<?xml version="1.0" encoding="UTF-8" standalone="no" ?>
<gpx xmlns="http://www.topografix.com/GPX/1/1" xmlns:xsi="http://www.w3.org/2001/XMLSchema-instance" xsi:schemaLocation="http://www.topografix.com/GPX/1/1 http://www.topografix.com/GPX/1/1/gpx.xsd" version="1.1" creator="VisuGPX - https://www.visugpx.com">
  <metadata>
    <name>Vosges - Pyrénées 76. De Labastide-Rouairoux à Hautpoul</name>
    <desc><![CDATA[Trace AlpineQuest 23/05/2026 06:33:44]]></desc>
  </metadata>
  <trk>
    <name><![CDATA[visugpx_ZGWlivAna5_1]]></name>
    <extensions>
      <line xmlns="http://www.topografix.com/GPX/gpx_style/0/2">
        <color>0000FF</color>
        <width>4</width>
      </line>
    </extensions>
    <trkseg>
      <trkpt lat="43.47265" lon="2.61145">
        <ele>373.4</ele>
        <time>2026-05-23T04:33:44Z</time>
      </trkpt>
      <trkpt lat="43.47257" lon="2.61163">
        <ele>372.4</ele>
        <time>2026-05-23T04:33:50Z</time>
      </trkpt>
      <trkpt lat="43.47257" lon="2.61163">
        <ele>372.4</ele>
        <time>2026-05-23T04:33:55Z</time>
      </trkpt>
      <trkpt lat="43.47257" lon="2.61163">
        <ele>372.4</ele>
        <time>2026-05-23T04:34:00Z</time>
      </trkpt>
      <trkpt lat="43.47257" lon="2.61163">
        <ele>372.4</ele>
        <time>2026-05-23T04:34:05Z</time>
      </trkpt>
      <trkpt lat="43.47257" lon="2.61163">
        <ele>372.4</ele>
        <time>2026-05-23T04:34:10Z</time>
      </trkpt>
      <trkpt lat="43.47257" lon="2.61163">
        <ele>372.4</ele>
        <time>2026-05-23T04:34:15Z</time>
      </trkpt>
      <trkpt lat="43.47257" lon="2.61163">
        <ele>372.4</ele>
        <time>2026-05-23T04:34:20Z</time>
      </trkpt>
      <trkpt lat="43.47257" lon="2.61163">
        <ele>372.4</ele>
        <time>2026-05-23T04:34:25Z</time>
      </trkpt>
      <trkpt lat="43.47257" lon="2.61163">
        <ele>372.4</ele>
        <time>2026-05-23T04:34:30Z</time>
      </trkpt>
      <trkpt lat="43.47255" lon="2.61146">
        <ele>372.3</ele>
        <time>2026-05-23T04:34:35Z</time>
      </trkpt>
      <trkpt lat="43.47253" lon="2.61138">
        <ele>372</ele>
        <time>2026-05-23T04:34:40Z</time>
      </trkpt>
      <trkpt lat="43.47251" lon="2.61133">
        <ele>371.7</ele>
        <time>2026-05-23T04:34:45Z</time>
      </trkpt>
      <trkpt lat="43.47248" lon="2.61126">
        <ele>372.1</ele>
        <time>2026-05-23T04:34:50Z</time>
      </trkpt>
      <trkpt lat="43.47244" lon="2.61119">
        <ele>373.1</ele>
        <time>2026-05-23T04:34:55Z</time>
      </trkpt>
      <trkpt lat="43.47239" lon="2.61111">
        <ele>374.1</ele>
        <time>2026-05-23T04:35:00Z</time>
      </trkpt>
      <trkpt lat="43.47237" lon="2.61109">
        <ele>374.6</ele>
        <time>2026-05-23T04:35:05Z</time>
      </trkpt>
      <trkpt lat="43.47235" lon="2.61102">
        <ele>374.7</ele>
        <time>2026-05-23T04:35:10Z</time>
      </trkpt>
      <trkpt lat="43.47232" lon="2.61096">
        <ele>375.1</ele>
        <time>2026-05-23T04:35:15Z</time>
      </trkpt>
      <trkpt lat="43.47226" lon="2.61084">
        <ele>375.7</ele>
        <time>2026-05-23T04:35:20Z</time>
      </trkpt>
      <trkpt lat="43.47222" lon="2.61076">
        <ele>376.3</ele>
        <time>2026-05-23T04:35:25Z</time>
      </trkpt>
      <trkpt lat="43.47217" lon="2.61069">
        <ele>376.9</ele>
        <time>2026-05-23T04:35:30Z</time>
      </trkpt>
      <trkpt lat="43.47213" lon="2.61065">
        <ele>377.2</ele>
        <time>2026-05-23T04:35:35Z</time>
      </trkpt>
      <trkpt lat="43.47208" lon="2.61055">
        <ele>377.2</ele>
        <time>2026-05-23T04:35:40Z</time>
      </trkpt>
      <trkpt lat="43.47204" lon="2.61049">
        <ele>377</ele>
        <time>2026-05-23T04:35:45Z</time>
      </trkpt>
      <trkpt lat="43.47199" lon="2.61041">
        <ele>376.5</ele>
        <time>2026-05-23T04:35:50Z</time>
      </trkpt>
      <trkpt lat="43.47195" lon="2.61033">
        <ele>375.6</ele>
        <time>2026-05-23T04:35:55Z</time>
      </trkpt>
      <trkpt lat="43.47189" lon="2.61026">
        <ele>374.6</ele>
        <time>2026-05-23T04:36:00Z</time>
      </trkpt>
      <trkpt lat="43.47185" lon="2.61021">
        <ele>373.7</ele>
        <time>2026-05-23T04:36:05Z</time>
      </trkpt>
      <trkpt lat="43.47182" lon="2.61019">
        <ele>373.2</ele>
        <time>2026-05-23T04:36:10Z</time>
      </trkpt>
      <trkpt lat="43.4718" lon="2.61018">
        <ele>372.9</ele>
        <time>2026-05-23T04:36:15Z</time>
      </trkpt>
      <trkpt lat="43.4718" lon="2.61017">
        <ele>372.8</ele>
        <time>2026-05-23T04:36:20Z</time>
      </trkpt>
      <trkpt lat="43.4718" lon="2.61017">
        <ele>372.8</ele>
        <time>2026-05-23T04:36:25Z</time>
      </trkpt>
      <trkpt lat="43.4718" lon="2.61017">
        <ele>372.8</ele>
        <time>2026-05-23T04:36:30Z</time>
      </trkpt>
      <trkpt lat="43.4718" lon="2.61017">
        <ele>372.8</ele>
        <time>2026-05-23T04:36:35Z</time>
      </trkpt>
      <trkpt lat="43.47177" lon="2.61008">
        <ele>370.9</ele>
        <time>2026-05-23T04:36:40Z</time>
      </trkpt>
      <trkpt lat="43.47172" lon="2.61002">
        <ele>369.1</ele>
        <time>2026-05-23T04:36:45Z</time>
      </trkpt>
      <trkpt lat="43.4717" lon="2.60996">
        <ele>368.5</ele>
        <time>2026-05-23T04:36:50Z</time>
      </trkpt>
      <trkpt lat="43.47166" lon="2.6099">
        <ele>368.3</ele>
        <time>2026-05-23T04:36:55Z</time>
      </trkpt>
      <trkpt lat="43.4716" lon="2.60983">
        <ele>369.6</ele>
        <time>2026-05-23T04:37:00Z</time>
      </trkpt>
      <trkpt lat="43.47155" lon="2.60975">
        <ele>370.4</ele>
        <time>2026-05-23T04:37:05Z</time>
      </trkpt>
      <trkpt lat="43.47151" lon="2.60967">
        <ele>370.9</ele>
        <time>2026-05-23T04:37:10Z</time>
      </trkpt>
      <trkpt lat="43.47146" lon="2.6096">
        <ele>371.3</ele>
        <time>2026-05-23T04:37:15Z</time>
      </trkpt>
      <trkpt lat="43.47142" lon="2.60953">
        <ele>371.4</ele>
        <time>2026-05-23T04:37:20Z</time>
      </trkpt>
      <trkpt lat="43.47138" lon="2.60946">
        <ele>371.4</ele>
        <time>2026-05-23T04:37:25Z</time>
      </trkpt>
      <trkpt lat="43.47134" lon="2.60937">
        <ele>371.1</ele>
        <time>2026-05-23T04:37:30Z</time>
      </trkpt>
      <trkpt lat="43.4713" lon="2.60928">
        <ele>370.5</ele>
        <time>2026-05-23T04:37:35Z</time>
      </trkpt>
      <trkpt lat="43.47125" lon="2.6092">
        <ele>369.9</ele>
        <time>2026-05-23T04:37:40Z</time>
      </trkpt>
      <trkpt lat="43.47123" lon="2.60912">
        <ele>369.5</ele>
        <time>2026-05-23T04:37:45Z</time>
      </trkpt>
      <trkpt lat="43.47121" lon="2.60902">
        <ele>369.3</ele>
        <time>2026-05-23T04:37:50Z</time>
      </trkpt>
      <trkpt lat="43.47118" lon="2.60892">
        <ele>369</ele>
        <time>2026-05-23T04:37:55Z</time>
      </trkpt>
      <trkpt lat="43.47114" lon="2.60885">
        <ele>368.7</ele>
        <time>2026-05-23T04:38:00Z</time>
      </trkpt>
      <trkpt lat="43.4711" lon="2.60879">
        <ele>368.3</ele>
        <time>2026-05-23T04:38:05Z</time>
      </trkpt>
      <trkpt lat="43.47107" lon="2.60872">
        <ele>367.8</ele>
        <time>2026-05-23T04:38:10Z</time>
      </trkpt>
      <trkpt lat="43.47103" lon="2.60862">
        <ele>367</ele>
        <time>2026-05-23T04:38:15Z</time>
      </trkpt>
      <trkpt lat="43.47098" lon="2.60849">
        <ele>365.9</ele>
        <time>2026-05-23T04:38:20Z</time>
      </trkpt>
      <trkpt lat="43.47095" lon="2.60841">
        <ele>365</ele>
        <time>2026-05-23T04:38:25Z</time>
      </trkpt>
      <trkpt lat="43.47093" lon="2.60834">
        <ele>364.3</ele>
        <time>2026-05-23T04:38:30Z</time>
      </trkpt>
      <trkpt lat="43.47091" lon="2.60825">
        <ele>364</ele>
        <time>2026-05-23T04:38:35Z</time>
      </trkpt>
      <trkpt lat="43.4709" lon="2.60818">
        <ele>363.8</ele>
        <time>2026-05-23T04:38:40Z</time>
      </trkpt>
      <trkpt lat="43.47088" lon="2.60807">
        <ele>363.4</ele>
        <time>2026-05-23T04:38:45Z</time>
      </trkpt>
      <trkpt lat="43.47087" lon="2.60799">
        <ele>363.2</ele>
        <time>2026-05-23T04:38:50Z</time>
      </trkpt>
      <trkpt lat="43.47084" lon="2.6079">
        <ele>362.6</ele>
        <time>2026-05-23T04:38:55Z</time>
      </trkpt>
      <trkpt lat="43.47085" lon="2.60782">
        <ele>362.7</ele>
        <time>2026-05-23T04:39:00Z</time>
      </trkpt>
      <trkpt lat="43.47085" lon="2.60771">
        <ele>362.5</ele>
        <time>2026-05-23T04:39:05Z</time>
      </trkpt>
      <trkpt lat="43.47085" lon="2.6076">
        <ele>362.4</ele>
        <time>2026-05-23T04:39:10Z</time>
      </trkpt>
      <trkpt lat="43.47083" lon="2.60752">
        <ele>362.1</ele>
        <time>2026-05-23T04:39:15Z</time>
      </trkpt>
      <trkpt lat="43.47083" lon="2.60744">
        <ele>362.2</ele>
        <time>2026-05-23T04:39:20Z</time>
      </trkpt>
      <trkpt lat="43.47084" lon="2.60732">
        <ele>362.6</ele>
        <time>2026-05-23T04:39:25Z</time>
      </trkpt>
      <trkpt lat="43.47084" lon="2.6072">
        <ele>362.8</ele>
        <time>2026-05-23T04:39:30Z</time>
      </trkpt>
      <trkpt lat="43.47085" lon="2.60704">
        <ele>363.4</ele>
        <time>2026-05-23T04:39:35Z</time>
      </trkpt>
      <trkpt lat="43.47084" lon="2.60694">
        <ele>363.5</ele>
        <time>2026-05-23T04:39:40Z</time>
      </trkpt>
      <trkpt lat="43.47084" lon="2.60686">
        <ele>363.7</ele>
        <time>2026-05-23T04:39:45Z</time>
      </trkpt>
      <trkpt lat="43.47083" lon="2.60677">
        <ele>363.8</ele>
        <time>2026-05-23T04:39:50Z</time>
      </trkpt>
      <trkpt lat="43.47082" lon="2.60665">
        <ele>364.2</ele>
        <time>2026-05-23T04:39:55Z</time>
      </trkpt>
      <trkpt lat="43.47083" lon="2.60655">
        <ele>363.9</ele>
        <time>2026-05-23T04:40:00Z</time>
      </trkpt>
      <trkpt lat="43.47086" lon="2.60646">
        <ele>364.2</ele>
        <time>2026-05-23T04:40:05Z</time>
      </trkpt>
      <trkpt lat="43.47089" lon="2.60636">
        <ele>364.5</ele>
        <time>2026-05-23T04:40:10Z</time>
      </trkpt>
      <trkpt lat="43.4709" lon="2.60633">
        <ele>364.6</ele>
        <time>2026-05-23T04:40:15Z</time>
      </trkpt>
      <trkpt lat="43.47089" lon="2.6062">
        <ele>364.3</ele>
        <time>2026-05-23T04:40:20Z</time>
      </trkpt>
      <trkpt lat="43.47089" lon="2.6061">
        <ele>364.1</ele>
        <time>2026-05-23T04:40:25Z</time>
      </trkpt>
      <trkpt lat="43.47093" lon="2.60602">
        <ele>364.5</ele>
        <time>2026-05-23T04:40:30Z</time>
      </trkpt>
      <trkpt lat="43.47094" lon="2.60592">
        <ele>364.5</ele>
        <time>2026-05-23T04:40:35Z</time>
      </trkpt>
      <trkpt lat="43.471" lon="2.60584">
        <ele>365</ele>
        <time>2026-05-23T04:40:40Z</time>
      </trkpt>
      <trkpt lat="43.47108" lon="2.60569">
        <ele>365.4</ele>
        <time>2026-05-23T04:40:45Z</time>
      </trkpt>
      <trkpt lat="43.4711" lon="2.60556">
        <ele>365</ele>
        <time>2026-05-23T04:40:50Z</time>
      </trkpt>
      <trkpt lat="43.47113" lon="2.60549">
        <ele>365</ele>
        <time>2026-05-23T04:40:55Z</time>
      </trkpt>
      <trkpt lat="43.47116" lon="2.60542">
        <ele>365</ele>
        <time>2026-05-23T04:41:00Z</time>
      </trkpt>
      <trkpt lat="43.47119" lon="2.60531">
        <ele>364.7</ele>
        <time>2026-05-23T04:41:05Z</time>
      </trkpt>
      <trkpt lat="43.47122" lon="2.60522">
        <ele>364.5</ele>
        <time>2026-05-23T04:41:10Z</time>
      </trkpt>
      <trkpt lat="43.47125" lon="2.60514">
        <ele>364.3</ele>
        <time>2026-05-23T04:41:15Z</time>
      </trkpt>
      <trkpt lat="43.47126" lon="2.6051">
        <ele>364.1</ele>
        <time>2026-05-23T04:41:20Z</time>
      </trkpt>
      <trkpt lat="43.47126" lon="2.6051">
        <ele>364.1</ele>
        <time>2026-05-23T04:41:25Z</time>
      </trkpt>
      <trkpt lat="43.47126" lon="2.6051">
        <ele>364.1</ele>
        <time>2026-05-23T04:41:30Z</time>
      </trkpt>
      <trkpt lat="43.47126" lon="2.6051">
        <ele>364.1</ele>
        <time>2026-05-23T04:41:35Z</time>
      </trkpt>
      <trkpt lat="43.47127" lon="2.60505">
        <ele>363.9</ele>
        <time>2026-05-23T04:41:40Z</time>
      </trkpt>
      <trkpt lat="43.47132" lon="2.60498">
        <ele>364.2</ele>
        <time>2026-05-23T04:41:45Z</time>
      </trkpt>
      <trkpt lat="43.47136" lon="2.60491">
        <ele>365.4</ele>
        <time>2026-05-23T04:41:50Z</time>
      </trkpt>
      <trkpt lat="43.47141" lon="2.60486">
        <ele>366.5</ele>
        <time>2026-05-23T04:41:55Z</time>
      </trkpt>
      <trkpt lat="43.47142" lon="2.60485">
        <ele>366.7</ele>
        <time>2026-05-23T04:42:00Z</time>
      </trkpt>
      <trkpt lat="43.47144" lon="2.60485">
        <ele>366.9</ele>
        <time>2026-05-23T04:42:05Z</time>
      </trkpt>
      <trkpt lat="43.47146" lon="2.60479">
        <ele>367.9</ele>
        <time>2026-05-23T04:42:10Z</time>
      </trkpt>
      <trkpt lat="43.4715" lon="2.60472">
        <ele>369.3</ele>
        <time>2026-05-23T04:42:15Z</time>
      </trkpt>
      <trkpt lat="43.47152" lon="2.60467">
        <ele>370.2</ele>
        <time>2026-05-23T04:42:20Z</time>
      </trkpt>
      <trkpt lat="43.47152" lon="2.60463">
        <ele>370.9</ele>
        <time>2026-05-23T04:42:25Z</time>
      </trkpt>
      <trkpt lat="43.47152" lon="2.6046">
        <ele>371.3</ele>
        <time>2026-05-23T04:42:30Z</time>
      </trkpt>
      <trkpt lat="43.47152" lon="2.6046">
        <ele>371.3</ele>
        <time>2026-05-23T04:42:35Z</time>
      </trkpt>
      <trkpt lat="43.47159" lon="2.60451">
        <ele>373.4</ele>
        <time>2026-05-23T04:42:40Z</time>
      </trkpt>
      <trkpt lat="43.47165" lon="2.60445">
        <ele>375.1</ele>
        <time>2026-05-23T04:42:45Z</time>
      </trkpt>
      <trkpt lat="43.4717" lon="2.60439">
        <ele>376.3</ele>
        <time>2026-05-23T04:42:50Z</time>
      </trkpt>
      <trkpt lat="43.47174" lon="2.60432">
        <ele>377.5</ele>
        <time>2026-05-23T04:42:55Z</time>
      </trkpt>
      <trkpt lat="43.47178" lon="2.60424">
        <ele>379</ele>
        <time>2026-05-23T04:43:00Z</time>
      </trkpt>
      <trkpt lat="43.47182" lon="2.60418">
        <ele>380.1</ele>
        <time>2026-05-23T04:43:05Z</time>
      </trkpt>
      <trkpt lat="43.47188" lon="2.60413">
        <ele>381</ele>
        <time>2026-05-23T04:43:10Z</time>
      </trkpt>
      <trkpt lat="43.47194" lon="2.60407">
        <ele>382</ele>
        <time>2026-05-23T04:43:15Z</time>
      </trkpt>
      <trkpt lat="43.47198" lon="2.60398">
        <ele>383.5</ele>
        <time>2026-05-23T04:43:20Z</time>
      </trkpt>
      <trkpt lat="43.47204" lon="2.60392">
        <ele>384.5</ele>
        <time>2026-05-23T04:43:25Z</time>
      </trkpt>
      <trkpt lat="43.4721" lon="2.60385">
        <ele>385.8</ele>
        <time>2026-05-23T04:43:30Z</time>
      </trkpt>
      <trkpt lat="43.47218" lon="2.60378">
        <ele>387.2</ele>
        <time>2026-05-23T04:43:35Z</time>
      </trkpt>
      <trkpt lat="43.47223" lon="2.60374">
        <ele>388</ele>
        <time>2026-05-23T04:43:40Z</time>
      </trkpt>
      <trkpt lat="43.47229" lon="2.60367">
        <ele>389.4</ele>
        <time>2026-05-23T04:43:45Z</time>
      </trkpt>
      <trkpt lat="43.47234" lon="2.60362">
        <ele>390.4</ele>
        <time>2026-05-23T04:43:50Z</time>
      </trkpt>
      <trkpt lat="43.47239" lon="2.60355">
        <ele>391.8</ele>
        <time>2026-05-23T04:43:55Z</time>
      </trkpt>
      <trkpt lat="43.47244" lon="2.60346">
        <ele>393.5</ele>
        <time>2026-05-23T04:44:00Z</time>
      </trkpt>
      <trkpt lat="43.47251" lon="2.60341">
        <ele>394.5</ele>
        <time>2026-05-23T04:44:05Z</time>
      </trkpt>
      <trkpt lat="43.47257" lon="2.60335">
        <ele>394</ele>
        <time>2026-05-23T04:44:10Z</time>
      </trkpt>
      <trkpt lat="43.47261" lon="2.6033">
        <ele>393.6</ele>
        <time>2026-05-23T04:44:15Z</time>
      </trkpt>
      <trkpt lat="43.47264" lon="2.60325">
        <ele>393.3</ele>
        <time>2026-05-23T04:44:20Z</time>
      </trkpt>
      <trkpt lat="43.47266" lon="2.60319">
        <ele>393.3</ele>
        <time>2026-05-23T04:44:25Z</time>
      </trkpt>
      <trkpt lat="43.47275" lon="2.60311">
        <ele>392.2</ele>
        <time>2026-05-23T04:44:30Z</time>
      </trkpt>
      <trkpt lat="43.47281" lon="2.60304">
        <ele>391.8</ele>
        <time>2026-05-23T04:44:35Z</time>
      </trkpt>
      <trkpt lat="43.47288" lon="2.60298">
        <ele>391.3</ele>
        <time>2026-05-23T04:44:40Z</time>
      </trkpt>
      <trkpt lat="43.4729" lon="2.60291">
        <ele>391.8</ele>
        <time>2026-05-23T04:44:45Z</time>
      </trkpt>
      <trkpt lat="43.47293" lon="2.60283">
        <ele>392.5</ele>
        <time>2026-05-23T04:44:50Z</time>
      </trkpt>
      <trkpt lat="43.47296" lon="2.60276">
        <ele>393</ele>
        <time>2026-05-23T04:44:55Z</time>
      </trkpt>
      <trkpt lat="43.47304" lon="2.6027">
        <ele>393</ele>
        <time>2026-05-23T04:45:00Z</time>
      </trkpt>
      <trkpt lat="43.47308" lon="2.60264">
        <ele>393.5</ele>
        <time>2026-05-23T04:45:05Z</time>
      </trkpt>
      <trkpt lat="43.47313" lon="2.60257">
        <ele>394.2</ele>
        <time>2026-05-23T04:45:10Z</time>
      </trkpt>
      <trkpt lat="43.4732" lon="2.60251">
        <ele>394.8</ele>
        <time>2026-05-23T04:45:15Z</time>
      </trkpt>
      <trkpt lat="43.47329" lon="2.60246">
        <ele>394.4</ele>
        <time>2026-05-23T04:45:20Z</time>
      </trkpt>
      <trkpt lat="43.47333" lon="2.60237">
        <ele>394.3</ele>
        <time>2026-05-23T04:45:25Z</time>
      </trkpt>
      <trkpt lat="43.47337" lon="2.60229">
        <ele>393.4</ele>
        <time>2026-05-23T04:45:30Z</time>
      </trkpt>
      <trkpt lat="43.47339" lon="2.6022">
        <ele>393.1</ele>
        <time>2026-05-23T04:45:35Z</time>
      </trkpt>
      <trkpt lat="43.47344" lon="2.6021">
        <ele>391.8</ele>
        <time>2026-05-23T04:45:40Z</time>
      </trkpt>
      <trkpt lat="43.47345" lon="2.602">
        <ele>391.8</ele>
        <time>2026-05-23T04:45:45Z</time>
      </trkpt>
      <trkpt lat="43.47349" lon="2.60187">
        <ele>390.9</ele>
        <time>2026-05-23T04:45:50Z</time>
      </trkpt>
      <trkpt lat="43.47354" lon="2.60179">
        <ele>389.5</ele>
        <time>2026-05-23T04:45:55Z</time>
      </trkpt>
      <trkpt lat="43.47352" lon="2.60171">
        <ele>390.3</ele>
        <time>2026-05-23T04:46:00Z</time>
      </trkpt>
      <trkpt lat="43.47346" lon="2.60165">
        <ele>392.1</ele>
        <time>2026-05-23T04:46:05Z</time>
      </trkpt>
      <trkpt lat="43.47341" lon="2.6016">
        <ele>393.4</ele>
        <time>2026-05-23T04:46:10Z</time>
      </trkpt>
      <trkpt lat="43.47334" lon="2.60152">
        <ele>395.3</ele>
        <time>2026-05-23T04:46:15Z</time>
      </trkpt>
      <trkpt lat="43.47331" lon="2.60144">
        <ele>395.3</ele>
        <time>2026-05-23T04:46:20Z</time>
      </trkpt>
      <trkpt lat="43.47329" lon="2.60137">
        <ele>395.1</ele>
        <time>2026-05-23T04:46:25Z</time>
      </trkpt>
      <trkpt lat="43.47326" lon="2.6013">
        <ele>395</ele>
        <time>2026-05-23T04:46:30Z</time>
      </trkpt>
      <trkpt lat="43.47322" lon="2.60123">
        <ele>395</ele>
        <time>2026-05-23T04:46:35Z</time>
      </trkpt>
      <trkpt lat="43.47317" lon="2.60117">
        <ele>395</ele>
        <time>2026-05-23T04:46:40Z</time>
      </trkpt>
      <trkpt lat="43.47313" lon="2.60111">
        <ele>395</ele>
        <time>2026-05-23T04:46:45Z</time>
      </trkpt>
      <trkpt lat="43.4731" lon="2.60104">
        <ele>394.9</ele>
        <time>2026-05-23T04:46:50Z</time>
      </trkpt>
      <trkpt lat="43.47309" lon="2.60098">
        <ele>394.7</ele>
        <time>2026-05-23T04:46:55Z</time>
      </trkpt>
      <trkpt lat="43.47305" lon="2.6009">
        <ele>394.6</ele>
        <time>2026-05-23T04:47:00Z</time>
      </trkpt>
      <trkpt lat="43.473" lon="2.6008">
        <ele>394.5</ele>
        <time>2026-05-23T04:47:05Z</time>
      </trkpt>
      <trkpt lat="43.47299" lon="2.60074">
        <ele>394.3</ele>
        <time>2026-05-23T04:47:10Z</time>
      </trkpt>
      <trkpt lat="43.47298" lon="2.60065">
        <ele>394.1</ele>
        <time>2026-05-23T04:47:15Z</time>
      </trkpt>
      <trkpt lat="43.473" lon="2.60058">
        <ele>393.7</ele>
        <time>2026-05-23T04:47:20Z</time>
      </trkpt>
      <trkpt lat="43.47299" lon="2.60051">
        <ele>393.6</ele>
        <time>2026-05-23T04:47:25Z</time>
      </trkpt>
      <trkpt lat="43.47299" lon="2.60048">
        <ele>393.5</ele>
        <time>2026-05-23T04:47:30Z</time>
      </trkpt>
      <trkpt lat="43.47293" lon="2.60046">
        <ele>393.8</ele>
        <time>2026-05-23T04:47:35Z</time>
      </trkpt>
      <trkpt lat="43.47292" lon="2.60043">
        <ele>393.8</ele>
        <time>2026-05-23T04:47:40Z</time>
      </trkpt>
      <trkpt lat="43.47292" lon="2.60043">
        <ele>393.8</ele>
        <time>2026-05-23T04:47:45Z</time>
      </trkpt>
      <trkpt lat="43.47286" lon="2.60041">
        <ele>394.1</ele>
        <time>2026-05-23T04:47:50Z</time>
      </trkpt>
      <trkpt lat="43.47285" lon="2.6004">
        <ele>394.1</ele>
        <time>2026-05-23T04:47:55Z</time>
      </trkpt>
      <trkpt lat="43.47285" lon="2.6004">
        <ele>394.1</ele>
        <time>2026-05-23T04:48:00Z</time>
      </trkpt>
      <trkpt lat="43.47285" lon="2.6004">
        <ele>394.1</ele>
        <time>2026-05-23T04:48:05Z</time>
      </trkpt>
      <trkpt lat="43.47285" lon="2.6004">
        <ele>394.1</ele>
        <time>2026-05-23T04:48:10Z</time>
      </trkpt>
      <trkpt lat="43.47289" lon="2.60036">
        <ele>393.8</ele>
        <time>2026-05-23T04:48:15Z</time>
      </trkpt>
      <trkpt lat="43.47287" lon="2.60029">
        <ele>393.7</ele>
        <time>2026-05-23T04:48:20Z</time>
      </trkpt>
      <trkpt lat="43.47284" lon="2.60021">
        <ele>393.7</ele>
        <time>2026-05-23T04:48:25Z</time>
      </trkpt>
      <trkpt lat="43.47283" lon="2.60012">
        <ele>393.5</ele>
        <time>2026-05-23T04:48:30Z</time>
      </trkpt>
      <trkpt lat="43.47282" lon="2.60003">
        <ele>393.4</ele>
        <time>2026-05-23T04:48:35Z</time>
      </trkpt>
      <trkpt lat="43.47281" lon="2.59993">
        <ele>392.5</ele>
        <time>2026-05-23T04:48:40Z</time>
      </trkpt>
      <trkpt lat="43.47278" lon="2.59985">
        <ele>391.7</ele>
        <time>2026-05-23T04:48:45Z</time>
      </trkpt>
      <trkpt lat="43.47278" lon="2.59976">
        <ele>390.5</ele>
        <time>2026-05-23T04:48:50Z</time>
      </trkpt>
      <trkpt lat="43.47278" lon="2.59962">
        <ele>388.6</ele>
        <time>2026-05-23T04:48:55Z</time>
      </trkpt>
      <trkpt lat="43.47277" lon="2.59952">
        <ele>387.4</ele>
        <time>2026-05-23T04:49:00Z</time>
      </trkpt>
      <trkpt lat="43.47276" lon="2.59943">
        <ele>386.3</ele>
        <time>2026-05-23T04:49:05Z</time>
      </trkpt>
      <trkpt lat="43.47276" lon="2.59932">
        <ele>384.8</ele>
        <time>2026-05-23T04:49:10Z</time>
      </trkpt>
      <trkpt lat="43.47275" lon="2.59924">
        <ele>383.9</ele>
        <time>2026-05-23T04:49:15Z</time>
      </trkpt>
      <trkpt lat="43.47272" lon="2.5991">
        <ele>382.6</ele>
        <time>2026-05-23T04:49:20Z</time>
      </trkpt>
      <trkpt lat="43.47273" lon="2.599">
        <ele>381.6</ele>
        <time>2026-05-23T04:49:25Z</time>
      </trkpt>
      <trkpt lat="43.47273" lon="2.5989">
        <ele>380.7</ele>
        <time>2026-05-23T04:49:30Z</time>
      </trkpt>
      <trkpt lat="43.47272" lon="2.59881">
        <ele>380</ele>
        <time>2026-05-23T04:49:35Z</time>
      </trkpt>
      <trkpt lat="43.47271" lon="2.59871">
        <ele>379.3</ele>
        <time>2026-05-23T04:49:40Z</time>
      </trkpt>
      <trkpt lat="43.47271" lon="2.59862">
        <ele>378.5</ele>
        <time>2026-05-23T04:49:45Z</time>
      </trkpt>
      <trkpt lat="43.4727" lon="2.59853">
        <ele>377.8</ele>
        <time>2026-05-23T04:49:50Z</time>
      </trkpt>
      <trkpt lat="43.47269" lon="2.59842">
        <ele>377</ele>
        <time>2026-05-23T04:49:55Z</time>
      </trkpt>
      <trkpt lat="43.47267" lon="2.59835">
        <ele>376.7</ele>
        <time>2026-05-23T04:50:00Z</time>
      </trkpt>
      <trkpt lat="43.47264" lon="2.59827">
        <ele>375.9</ele>
        <time>2026-05-23T04:50:05Z</time>
      </trkpt>
      <trkpt lat="43.4726" lon="2.59817">
        <ele>374.7</ele>
        <time>2026-05-23T04:50:10Z</time>
      </trkpt>
      <trkpt lat="43.47255" lon="2.59806">
        <ele>373.6</ele>
        <time>2026-05-23T04:50:15Z</time>
      </trkpt>
      <trkpt lat="43.47249" lon="2.59795">
        <ele>372.5</ele>
        <time>2026-05-23T04:50:20Z</time>
      </trkpt>
      <trkpt lat="43.47243" lon="2.59785">
        <ele>370.7</ele>
        <time>2026-05-23T04:50:25Z</time>
      </trkpt>
      <trkpt lat="43.47239" lon="2.59779">
        <ele>369.6</ele>
        <time>2026-05-23T04:50:30Z</time>
      </trkpt>
      <trkpt lat="43.47236" lon="2.59774">
        <ele>368.7</ele>
        <time>2026-05-23T04:50:35Z</time>
      </trkpt>
      <trkpt lat="43.47231" lon="2.59764">
        <ele>367</ele>
        <time>2026-05-23T04:50:40Z</time>
      </trkpt>
      <trkpt lat="43.47227" lon="2.59758">
        <ele>366</ele>
        <time>2026-05-23T04:50:45Z</time>
      </trkpt>
      <trkpt lat="43.47222" lon="2.59749">
        <ele>364.5</ele>
        <time>2026-05-23T04:50:50Z</time>
      </trkpt>
      <trkpt lat="43.47217" lon="2.59738">
        <ele>363</ele>
        <time>2026-05-23T04:50:55Z</time>
      </trkpt>
      <trkpt lat="43.47211" lon="2.59729">
        <ele>361.7</ele>
        <time>2026-05-23T04:51:00Z</time>
      </trkpt>
      <trkpt lat="43.47207" lon="2.5972">
        <ele>360.5</ele>
        <time>2026-05-23T04:51:05Z</time>
      </trkpt>
      <trkpt lat="43.47203" lon="2.59711">
        <ele>359.4</ele>
        <time>2026-05-23T04:51:10Z</time>
      </trkpt>
      <trkpt lat="43.47198" lon="2.59702">
        <ele>358.3</ele>
        <time>2026-05-23T04:51:15Z</time>
      </trkpt>
      <trkpt lat="43.47193" lon="2.59697">
        <ele>357.8</ele>
        <time>2026-05-23T04:51:20Z</time>
      </trkpt>
      <trkpt lat="43.47187" lon="2.59692">
        <ele>357.3</ele>
        <time>2026-05-23T04:51:25Z</time>
      </trkpt>
      <trkpt lat="43.47183" lon="2.59688">
        <ele>356.9</ele>
        <time>2026-05-23T04:51:30Z</time>
      </trkpt>
      <trkpt lat="43.47177" lon="2.59681">
        <ele>356.3</ele>
        <time>2026-05-23T04:51:35Z</time>
      </trkpt>
      <trkpt lat="43.47172" lon="2.59674">
        <ele>355.6</ele>
        <time>2026-05-23T04:51:40Z</time>
      </trkpt>
      <trkpt lat="43.47166" lon="2.59668">
        <ele>355.1</ele>
        <time>2026-05-23T04:51:45Z</time>
      </trkpt>
      <trkpt lat="43.47161" lon="2.59661">
        <ele>354.7</ele>
        <time>2026-05-23T04:51:50Z</time>
      </trkpt>
      <trkpt lat="43.47155" lon="2.59651">
        <ele>354.2</ele>
        <time>2026-05-23T04:51:55Z</time>
      </trkpt>
      <trkpt lat="43.47151" lon="2.59641">
        <ele>353.7</ele>
        <time>2026-05-23T04:52:00Z</time>
      </trkpt>
      <trkpt lat="43.47145" lon="2.59634">
        <ele>353.5</ele>
        <time>2026-05-23T04:52:05Z</time>
      </trkpt>
      <trkpt lat="43.47141" lon="2.59627">
        <ele>353.4</ele>
        <time>2026-05-23T04:52:10Z</time>
      </trkpt>
      <trkpt lat="43.47136" lon="2.59619">
        <ele>353.2</ele>
        <time>2026-05-23T04:52:15Z</time>
      </trkpt>
      <trkpt lat="43.47132" lon="2.59612">
        <ele>353.1</ele>
        <time>2026-05-23T04:52:20Z</time>
      </trkpt>
      <trkpt lat="43.47129" lon="2.59604">
        <ele>352.9</ele>
        <time>2026-05-23T04:52:25Z</time>
      </trkpt>
      <trkpt lat="43.47125" lon="2.59594">
        <ele>352.8</ele>
        <time>2026-05-23T04:52:30Z</time>
      </trkpt>
      <trkpt lat="43.47122" lon="2.59585">
        <ele>352.7</ele>
        <time>2026-05-23T04:52:35Z</time>
      </trkpt>
      <trkpt lat="43.47118" lon="2.59575">
        <ele>352.7</ele>
        <time>2026-05-23T04:52:40Z</time>
      </trkpt>
      <trkpt lat="43.47114" lon="2.59567">
        <ele>352.9</ele>
        <time>2026-05-23T04:52:45Z</time>
      </trkpt>
      <trkpt lat="43.47111" lon="2.5956">
        <ele>353</ele>
        <time>2026-05-23T04:52:50Z</time>
      </trkpt>
      <trkpt lat="43.47108" lon="2.59552">
        <ele>353.1</ele>
        <time>2026-05-23T04:52:55Z</time>
      </trkpt>
      <trkpt lat="43.47106" lon="2.59544">
        <ele>353.2</ele>
        <time>2026-05-23T04:53:00Z</time>
      </trkpt>
      <trkpt lat="43.47105" lon="2.59533">
        <ele>353.2</ele>
        <time>2026-05-23T04:53:05Z</time>
      </trkpt>
      <trkpt lat="43.47105" lon="2.59525">
        <ele>353.1</ele>
        <time>2026-05-23T04:53:10Z</time>
      </trkpt>
      <trkpt lat="43.47102" lon="2.59518">
        <ele>353.4</ele>
        <time>2026-05-23T04:53:15Z</time>
      </trkpt>
      <trkpt lat="43.47098" lon="2.59511">
        <ele>353.9</ele>
        <time>2026-05-23T04:53:20Z</time>
      </trkpt>
      <trkpt lat="43.47094" lon="2.59502">
        <ele>354.5</ele>
        <time>2026-05-23T04:53:25Z</time>
      </trkpt>
      <trkpt lat="43.4709" lon="2.59493">
        <ele>354.3</ele>
        <time>2026-05-23T04:53:30Z</time>
      </trkpt>
      <trkpt lat="43.47085" lon="2.59485">
        <ele>354.2</ele>
        <time>2026-05-23T04:53:35Z</time>
      </trkpt>
      <trkpt lat="43.47081" lon="2.59477">
        <ele>353.7</ele>
        <time>2026-05-23T04:53:40Z</time>
      </trkpt>
      <trkpt lat="43.47078" lon="2.59471">
        <ele>353.4</ele>
        <time>2026-05-23T04:53:45Z</time>
      </trkpt>
      <trkpt lat="43.47073" lon="2.59461">
        <ele>352.8</ele>
        <time>2026-05-23T04:53:50Z</time>
      </trkpt>
      <trkpt lat="43.47067" lon="2.59451">
        <ele>352.4</ele>
        <time>2026-05-23T04:53:55Z</time>
      </trkpt>
      <trkpt lat="43.47064" lon="2.59442">
        <ele>351.8</ele>
        <time>2026-05-23T04:54:00Z</time>
      </trkpt>
      <trkpt lat="43.4706" lon="2.59433">
        <ele>351.2</ele>
        <time>2026-05-23T04:54:05Z</time>
      </trkpt>
      <trkpt lat="43.47056" lon="2.59423">
        <ele>350.6</ele>
        <time>2026-05-23T04:54:10Z</time>
      </trkpt>
      <trkpt lat="43.47054" lon="2.59416">
        <ele>350.1</ele>
        <time>2026-05-23T04:54:15Z</time>
      </trkpt>
      <trkpt lat="43.47051" lon="2.59408">
        <ele>349.7</ele>
        <time>2026-05-23T04:54:20Z</time>
      </trkpt>
      <trkpt lat="43.47048" lon="2.59401">
        <ele>349.5</ele>
        <time>2026-05-23T04:54:25Z</time>
      </trkpt>
      <trkpt lat="43.47045" lon="2.59393">
        <ele>349.1</ele>
        <time>2026-05-23T04:54:30Z</time>
      </trkpt>
      <trkpt lat="43.47043" lon="2.59383">
        <ele>348.5</ele>
        <time>2026-05-23T04:54:35Z</time>
      </trkpt>
      <trkpt lat="43.47041" lon="2.59375">
        <ele>348.1</ele>
        <time>2026-05-23T04:54:40Z</time>
      </trkpt>
      <trkpt lat="43.4704" lon="2.59365">
        <ele>347.4</ele>
        <time>2026-05-23T04:54:45Z</time>
      </trkpt>
      <trkpt lat="43.47039" lon="2.59354">
        <ele>346.6</ele>
        <time>2026-05-23T04:54:50Z</time>
      </trkpt>
      <trkpt lat="43.47042" lon="2.59349">
        <ele>345.8</ele>
        <time>2026-05-23T04:54:55Z</time>
      </trkpt>
      <trkpt lat="43.47048" lon="2.59345">
        <ele>344.7</ele>
        <time>2026-05-23T04:55:00Z</time>
      </trkpt>
      <trkpt lat="43.47055" lon="2.59342">
        <ele>343.5</ele>
        <time>2026-05-23T04:55:05Z</time>
      </trkpt>
      <trkpt lat="43.47061" lon="2.59341">
        <ele>342.6</ele>
        <time>2026-05-23T04:55:10Z</time>
      </trkpt>
      <trkpt lat="43.47065" lon="2.59345">
        <ele>342.5</ele>
        <time>2026-05-23T04:55:15Z</time>
      </trkpt>
      <trkpt lat="43.47066" lon="2.59347">
        <ele>342.5</ele>
        <time>2026-05-23T04:55:20Z</time>
      </trkpt>
      <trkpt lat="43.47066" lon="2.59347">
        <ele>342.5</ele>
        <time>2026-05-23T04:55:25Z</time>
      </trkpt>
      <trkpt lat="43.47066" lon="2.59347">
        <ele>342.5</ele>
        <time>2026-05-23T04:55:30Z</time>
      </trkpt>
      <trkpt lat="43.47066" lon="2.59347">
        <ele>342.5</ele>
        <time>2026-05-23T04:55:35Z</time>
      </trkpt>
      <trkpt lat="43.47066" lon="2.59347">
        <ele>342.5</ele>
        <time>2026-05-23T04:55:40Z</time>
      </trkpt>
      <trkpt lat="43.47066" lon="2.59347">
        <ele>342.5</ele>
        <time>2026-05-23T04:55:45Z</time>
      </trkpt>
      <trkpt lat="43.47066" lon="2.59347">
        <ele>342.5</ele>
        <time>2026-05-23T04:55:50Z</time>
      </trkpt>
      <trkpt lat="43.47066" lon="2.59347">
        <ele>342.5</ele>
        <time>2026-05-23T04:55:55Z</time>
      </trkpt>
      <trkpt lat="43.47066" lon="2.59347">
        <ele>342.5</ele>
        <time>2026-05-23T04:56:00Z</time>
      </trkpt>
      <trkpt lat="43.47066" lon="2.59347">
        <ele>342.5</ele>
        <time>2026-05-23T04:56:05Z</time>
      </trkpt>
      <trkpt lat="43.47066" lon="2.59347">
        <ele>342.5</ele>
        <time>2026-05-23T04:56:10Z</time>
      </trkpt>
      <trkpt lat="43.47066" lon="2.59347">
        <ele>342.5</ele>
        <time>2026-05-23T04:56:15Z</time>
      </trkpt>
      <trkpt lat="43.47066" lon="2.59347">
        <ele>342.5</ele>
        <time>2026-05-23T04:56:20Z</time>
      </trkpt>
      <trkpt lat="43.47065" lon="2.5934">
        <ele>342</ele>
        <time>2026-05-23T04:56:25Z</time>
      </trkpt>
      <trkpt lat="43.47068" lon="2.59337">
        <ele>341.4</ele>
        <time>2026-05-23T04:56:30Z</time>
      </trkpt>
      <trkpt lat="43.47073" lon="2.59332">
        <ele>340.4</ele>
        <time>2026-05-23T04:56:35Z</time>
      </trkpt>
      <trkpt lat="43.47081" lon="2.59331">
        <ele>339.3</ele>
        <time>2026-05-23T04:56:40Z</time>
      </trkpt>
      <trkpt lat="43.47089" lon="2.5933">
        <ele>338.9</ele>
        <time>2026-05-23T04:56:45Z</time>
      </trkpt>
      <trkpt lat="43.47093" lon="2.59327">
        <ele>338.9</ele>
        <time>2026-05-23T04:56:50Z</time>
      </trkpt>
      <trkpt lat="43.47104" lon="2.59325">
        <ele>338.9</ele>
        <time>2026-05-23T04:56:55Z</time>
      </trkpt>
      <trkpt lat="43.47108" lon="2.5932">
        <ele>338.9</ele>
        <time>2026-05-23T04:57:00Z</time>
      </trkpt>
      <trkpt lat="43.47117" lon="2.59319">
        <ele>338.9</ele>
        <time>2026-05-23T04:57:05Z</time>
      </trkpt>
      <trkpt lat="43.47125" lon="2.59317">
        <ele>338.9</ele>
        <time>2026-05-23T04:57:10Z</time>
      </trkpt>
      <trkpt lat="43.47131" lon="2.59307">
        <ele>339.2</ele>
        <time>2026-05-23T04:57:15Z</time>
      </trkpt>
      <trkpt lat="43.47132" lon="2.59301">
        <ele>339.3</ele>
        <time>2026-05-23T04:57:20Z</time>
      </trkpt>
      <trkpt lat="43.47133" lon="2.59293">
        <ele>339.6</ele>
        <time>2026-05-23T04:57:25Z</time>
      </trkpt>
      <trkpt lat="43.47134" lon="2.59286">
        <ele>339.8</ele>
        <time>2026-05-23T04:57:30Z</time>
      </trkpt>
      <trkpt lat="43.47137" lon="2.59281">
        <ele>340</ele>
        <time>2026-05-23T04:57:35Z</time>
      </trkpt>
      <trkpt lat="43.47139" lon="2.59271">
        <ele>340.3</ele>
        <time>2026-05-23T04:57:40Z</time>
      </trkpt>
      <trkpt lat="43.47139" lon="2.59263">
        <ele>340.6</ele>
        <time>2026-05-23T04:57:45Z</time>
      </trkpt>
      <trkpt lat="43.47139" lon="2.59256">
        <ele>340.8</ele>
        <time>2026-05-23T04:57:50Z</time>
      </trkpt>
      <trkpt lat="43.47139" lon="2.59247">
        <ele>340.9</ele>
        <time>2026-05-23T04:57:55Z</time>
      </trkpt>
      <trkpt lat="43.47139" lon="2.59235">
        <ele>340.6</ele>
        <time>2026-05-23T04:58:00Z</time>
      </trkpt>
      <trkpt lat="43.47141" lon="2.59227">
        <ele>340.4</ele>
        <time>2026-05-23T04:58:05Z</time>
      </trkpt>
      <trkpt lat="43.47142" lon="2.59221">
        <ele>340.3</ele>
        <time>2026-05-23T04:58:10Z</time>
      </trkpt>
      <trkpt lat="43.47143" lon="2.59214">
        <ele>340.1</ele>
        <time>2026-05-23T04:58:15Z</time>
      </trkpt>
      <trkpt lat="43.47143" lon="2.59213">
        <ele>340.1</ele>
        <time>2026-05-23T04:58:20Z</time>
      </trkpt>
      <trkpt lat="43.47142" lon="2.59209">
        <ele>339.9</ele>
        <time>2026-05-23T04:58:25Z</time>
      </trkpt>
      <trkpt lat="43.47142" lon="2.59209">
        <ele>339.9</ele>
        <time>2026-05-23T04:58:30Z</time>
      </trkpt>
      <trkpt lat="43.47142" lon="2.59209">
        <ele>339.9</ele>
        <time>2026-05-23T04:58:35Z</time>
      </trkpt>
      <trkpt lat="43.47142" lon="2.59209">
        <ele>339.9</ele>
        <time>2026-05-23T04:58:40Z</time>
      </trkpt>
      <trkpt lat="43.47141" lon="2.59204">
        <ele>339.8</ele>
        <time>2026-05-23T04:58:45Z</time>
      </trkpt>
      <trkpt lat="43.47142" lon="2.59196">
        <ele>339.6</ele>
        <time>2026-05-23T04:58:50Z</time>
      </trkpt>
      <trkpt lat="43.47143" lon="2.5919">
        <ele>339.4</ele>
        <time>2026-05-23T04:58:55Z</time>
      </trkpt>
      <trkpt lat="43.47143" lon="2.59185">
        <ele>339.3</ele>
        <time>2026-05-23T04:59:00Z</time>
      </trkpt>
      <trkpt lat="43.47151" lon="2.59177">
        <ele>339.1</ele>
        <time>2026-05-23T04:59:05Z</time>
      </trkpt>
      <trkpt lat="43.47157" lon="2.59174">
        <ele>339.1</ele>
        <time>2026-05-23T04:59:10Z</time>
      </trkpt>
      <trkpt lat="43.47163" lon="2.59171">
        <ele>339.1</ele>
        <time>2026-05-23T04:59:15Z</time>
      </trkpt>
      <trkpt lat="43.47166" lon="2.5917">
        <ele>339.1</ele>
        <time>2026-05-23T04:59:20Z</time>
      </trkpt>
      <trkpt lat="43.47166" lon="2.59171">
        <ele>339.1</ele>
        <time>2026-05-23T04:59:25Z</time>
      </trkpt>
      <trkpt lat="43.47166" lon="2.59171">
        <ele>339.1</ele>
        <time>2026-05-23T04:59:30Z</time>
      </trkpt>
      <trkpt lat="43.47166" lon="2.59171">
        <ele>339.1</ele>
        <time>2026-05-23T04:59:35Z</time>
      </trkpt>
      <trkpt lat="43.47166" lon="2.59171">
        <ele>339.1</ele>
        <time>2026-05-23T04:59:40Z</time>
      </trkpt>
      <trkpt lat="43.47166" lon="2.59171">
        <ele>339.1</ele>
        <time>2026-05-23T04:59:45Z</time>
      </trkpt>
      <trkpt lat="43.47166" lon="2.59171">
        <ele>339.1</ele>
        <time>2026-05-23T04:59:50Z</time>
      </trkpt>
      <trkpt lat="43.47166" lon="2.59171">
        <ele>339.1</ele>
        <time>2026-05-23T04:59:55Z</time>
      </trkpt>
      <trkpt lat="43.47166" lon="2.59171">
        <ele>339.1</ele>
        <time>2026-05-23T05:00:00Z</time>
      </trkpt>
      <trkpt lat="43.47166" lon="2.59171">
        <ele>339.1</ele>
        <time>2026-05-23T05:00:05Z</time>
      </trkpt>
      <trkpt lat="43.47166" lon="2.59171">
        <ele>339.1</ele>
        <time>2026-05-23T05:00:10Z</time>
      </trkpt>
      <trkpt lat="43.47166" lon="2.59171">
        <ele>339.1</ele>
        <time>2026-05-23T05:00:15Z</time>
      </trkpt>
      <trkpt lat="43.47166" lon="2.59171">
        <ele>339.1</ele>
        <time>2026-05-23T05:00:20Z</time>
      </trkpt>
      <trkpt lat="43.47166" lon="2.59171">
        <ele>339.1</ele>
        <time>2026-05-23T05:00:25Z</time>
      </trkpt>
      <trkpt lat="43.47166" lon="2.59171">
        <ele>339.1</ele>
        <time>2026-05-23T05:00:30Z</time>
      </trkpt>
      <trkpt lat="43.47166" lon="2.59171">
        <ele>339.1</ele>
        <time>2026-05-23T05:00:35Z</time>
      </trkpt>
      <trkpt lat="43.47166" lon="2.59171">
        <ele>339.1</ele>
        <time>2026-05-23T05:00:40Z</time>
      </trkpt>
      <trkpt lat="43.47166" lon="2.59171">
        <ele>339.1</ele>
        <time>2026-05-23T05:00:45Z</time>
      </trkpt>
      <trkpt lat="43.47166" lon="2.59171">
        <ele>339.1</ele>
        <time>2026-05-23T05:00:50Z</time>
      </trkpt>
      <trkpt lat="43.47166" lon="2.59171">
        <ele>339.1</ele>
        <time>2026-05-23T05:00:55Z</time>
      </trkpt>
      <trkpt lat="43.47165" lon="2.59168">
        <ele>339</ele>
        <time>2026-05-23T05:01:00Z</time>
      </trkpt>
      <trkpt lat="43.47165" lon="2.59168">
        <ele>339</ele>
        <time>2026-05-23T05:01:05Z</time>
      </trkpt>
      <trkpt lat="43.47165" lon="2.59168">
        <ele>339</ele>
        <time>2026-05-23T05:01:10Z</time>
      </trkpt>
      <trkpt lat="43.47165" lon="2.59168">
        <ele>339</ele>
        <time>2026-05-23T05:01:15Z</time>
      </trkpt>
      <trkpt lat="43.47165" lon="2.59168">
        <ele>339</ele>
        <time>2026-05-23T05:01:20Z</time>
      </trkpt>
      <trkpt lat="43.47165" lon="2.59168">
        <ele>339</ele>
        <time>2026-05-23T05:01:25Z</time>
      </trkpt>
      <trkpt lat="43.47165" lon="2.59168">
        <ele>339</ele>
        <time>2026-05-23T05:01:30Z</time>
      </trkpt>
      <trkpt lat="43.47158" lon="2.5917">
        <ele>339</ele>
        <time>2026-05-23T05:01:35Z</time>
      </trkpt>
      <trkpt lat="43.47157" lon="2.59158">
        <ele>338.8</ele>
        <time>2026-05-23T05:01:40Z</time>
      </trkpt>
      <trkpt lat="43.47159" lon="2.59147">
        <ele>338.7</ele>
        <time>2026-05-23T05:01:45Z</time>
      </trkpt>
      <trkpt lat="43.47161" lon="2.59137">
        <ele>338.6</ele>
        <time>2026-05-23T05:01:50Z</time>
      </trkpt>
      <trkpt lat="43.47161" lon="2.59128">
        <ele>338.4</ele>
        <time>2026-05-23T05:01:55Z</time>
      </trkpt>
      <trkpt lat="43.4716" lon="2.59121">
        <ele>338.3</ele>
        <time>2026-05-23T05:02:00Z</time>
      </trkpt>
      <trkpt lat="43.4716" lon="2.59113">
        <ele>338.2</ele>
        <time>2026-05-23T05:02:05Z</time>
      </trkpt>
      <trkpt lat="43.4716" lon="2.59103">
        <ele>338.1</ele>
        <time>2026-05-23T05:02:10Z</time>
      </trkpt>
      <trkpt lat="43.47159" lon="2.59093">
        <ele>337.9</ele>
        <time>2026-05-23T05:02:15Z</time>
      </trkpt>
      <trkpt lat="43.47159" lon="2.59083">
        <ele>337.8</ele>
        <time>2026-05-23T05:02:20Z</time>
      </trkpt>
      <trkpt lat="43.47159" lon="2.59075">
        <ele>337.9</ele>
        <time>2026-05-23T05:02:25Z</time>
      </trkpt>
      <trkpt lat="43.47158" lon="2.59065">
        <ele>338</ele>
        <time>2026-05-23T05:02:30Z</time>
      </trkpt>
      <trkpt lat="43.47158" lon="2.59055">
        <ele>338.1</ele>
        <time>2026-05-23T05:02:35Z</time>
      </trkpt>
      <trkpt lat="43.47157" lon="2.59045">
        <ele>338.1</ele>
        <time>2026-05-23T05:02:40Z</time>
      </trkpt>
      <trkpt lat="43.47157" lon="2.59035">
        <ele>338.2</ele>
        <time>2026-05-23T05:02:45Z</time>
      </trkpt>
      <trkpt lat="43.47155" lon="2.59022">
        <ele>338.2</ele>
        <time>2026-05-23T05:02:50Z</time>
      </trkpt>
      <trkpt lat="43.47152" lon="2.5901">
        <ele>338.2</ele>
        <time>2026-05-23T05:02:55Z</time>
      </trkpt>
      <trkpt lat="43.4715" lon="2.59">
        <ele>338.2</ele>
        <time>2026-05-23T05:03:00Z</time>
      </trkpt>
      <trkpt lat="43.47149" lon="2.58991">
        <ele>338.2</ele>
        <time>2026-05-23T05:03:05Z</time>
      </trkpt>
      <trkpt lat="43.47147" lon="2.58983">
        <ele>338.2</ele>
        <time>2026-05-23T05:03:10Z</time>
      </trkpt>
      <trkpt lat="43.47146" lon="2.58974">
        <ele>338.2</ele>
        <time>2026-05-23T05:03:15Z</time>
      </trkpt>
      <trkpt lat="43.47145" lon="2.58966">
        <ele>338.2</ele>
        <time>2026-05-23T05:03:20Z</time>
      </trkpt>
      <trkpt lat="43.47143" lon="2.58954">
        <ele>338.1</ele>
        <time>2026-05-23T05:03:25Z</time>
      </trkpt>
      <trkpt lat="43.47141" lon="2.58943">
        <ele>338</ele>
        <time>2026-05-23T05:03:30Z</time>
      </trkpt>
      <trkpt lat="43.47138" lon="2.58933">
        <ele>337.9</ele>
        <time>2026-05-23T05:03:35Z</time>
      </trkpt>
      <trkpt lat="43.47136" lon="2.5892">
        <ele>337.8</ele>
        <time>2026-05-23T05:03:40Z</time>
      </trkpt>
      <trkpt lat="43.47135" lon="2.58911">
        <ele>337.7</ele>
        <time>2026-05-23T05:03:45Z</time>
      </trkpt>
      <trkpt lat="43.47134" lon="2.58902">
        <ele>337.6</ele>
        <time>2026-05-23T05:03:50Z</time>
      </trkpt>
      <trkpt lat="43.47133" lon="2.58894">
        <ele>337.5</ele>
        <time>2026-05-23T05:03:55Z</time>
      </trkpt>
      <trkpt lat="43.47131" lon="2.58884">
        <ele>337.3</ele>
        <time>2026-05-23T05:04:00Z</time>
      </trkpt>
      <trkpt lat="43.4713" lon="2.58873">
        <ele>337.1</ele>
        <time>2026-05-23T05:04:05Z</time>
      </trkpt>
      <trkpt lat="43.47128" lon="2.5886">
        <ele>336.9</ele>
        <time>2026-05-23T05:04:10Z</time>
      </trkpt>
      <trkpt lat="43.47128" lon="2.58849">
        <ele>336.8</ele>
        <time>2026-05-23T05:04:15Z</time>
      </trkpt>
      <trkpt lat="43.47125" lon="2.58839">
        <ele>336.5</ele>
        <time>2026-05-23T05:04:20Z</time>
      </trkpt>
      <trkpt lat="43.47124" lon="2.5883">
        <ele>336.3</ele>
        <time>2026-05-23T05:04:25Z</time>
      </trkpt>
      <trkpt lat="43.47123" lon="2.5882">
        <ele>336</ele>
        <time>2026-05-23T05:04:30Z</time>
      </trkpt>
      <trkpt lat="43.47122" lon="2.58809">
        <ele>335.7</ele>
        <time>2026-05-23T05:04:35Z</time>
      </trkpt>
      <trkpt lat="43.47122" lon="2.58799">
        <ele>335.4</ele>
        <time>2026-05-23T05:04:40Z</time>
      </trkpt>
      <trkpt lat="43.4712" lon="2.58788">
        <ele>335</ele>
        <time>2026-05-23T05:04:45Z</time>
      </trkpt>
      <trkpt lat="43.47119" lon="2.58778">
        <ele>334.7</ele>
        <time>2026-05-23T05:04:50Z</time>
      </trkpt>
      <trkpt lat="43.47117" lon="2.58768">
        <ele>334.3</ele>
        <time>2026-05-23T05:04:55Z</time>
      </trkpt>
      <trkpt lat="43.47116" lon="2.58759">
        <ele>334</ele>
        <time>2026-05-23T05:05:00Z</time>
      </trkpt>
      <trkpt lat="43.47114" lon="2.58748">
        <ele>333.6</ele>
        <time>2026-05-23T05:05:05Z</time>
      </trkpt>
      <trkpt lat="43.47114" lon="2.5874">
        <ele>333.5</ele>
        <time>2026-05-23T05:05:10Z</time>
      </trkpt>
      <trkpt lat="43.47115" lon="2.58734">
        <ele>333.5</ele>
        <time>2026-05-23T05:05:15Z</time>
      </trkpt>
      <trkpt lat="43.47114" lon="2.58725">
        <ele>333.4</ele>
        <time>2026-05-23T05:05:20Z</time>
      </trkpt>
      <trkpt lat="43.47114" lon="2.58717">
        <ele>333.3</ele>
        <time>2026-05-23T05:05:25Z</time>
      </trkpt>
      <trkpt lat="43.47114" lon="2.58707">
        <ele>333.2</ele>
        <time>2026-05-23T05:05:30Z</time>
      </trkpt>
      <trkpt lat="43.47112" lon="2.58699">
        <ele>333</ele>
        <time>2026-05-23T05:05:35Z</time>
      </trkpt>
      <trkpt lat="43.47113" lon="2.58691">
        <ele>333</ele>
        <time>2026-05-23T05:05:40Z</time>
      </trkpt>
      <trkpt lat="43.47113" lon="2.58684">
        <ele>333</ele>
        <time>2026-05-23T05:05:45Z</time>
      </trkpt>
      <trkpt lat="43.47113" lon="2.58675">
        <ele>332.9</ele>
        <time>2026-05-23T05:05:50Z</time>
      </trkpt>
      <trkpt lat="43.47112" lon="2.58664">
        <ele>332.7</ele>
        <time>2026-05-23T05:05:55Z</time>
      </trkpt>
      <trkpt lat="43.47113" lon="2.58655">
        <ele>332.6</ele>
        <time>2026-05-23T05:06:00Z</time>
      </trkpt>
      <trkpt lat="43.47112" lon="2.58646">
        <ele>332.3</ele>
        <time>2026-05-23T05:06:05Z</time>
      </trkpt>
      <trkpt lat="43.47112" lon="2.58635">
        <ele>332</ele>
        <time>2026-05-23T05:06:10Z</time>
      </trkpt>
      <trkpt lat="43.47113" lon="2.58625">
        <ele>331.8</ele>
        <time>2026-05-23T05:06:15Z</time>
      </trkpt>
      <trkpt lat="43.47115" lon="2.58616">
        <ele>331.8</ele>
        <time>2026-05-23T05:06:20Z</time>
      </trkpt>
      <trkpt lat="43.47115" lon="2.58607">
        <ele>331.6</ele>
        <time>2026-05-23T05:06:25Z</time>
      </trkpt>
      <trkpt lat="43.47118" lon="2.58598">
        <ele>331.7</ele>
        <time>2026-05-23T05:06:30Z</time>
      </trkpt>
      <trkpt lat="43.4712" lon="2.58591">
        <ele>331.7</ele>
        <time>2026-05-23T05:06:35Z</time>
      </trkpt>
      <trkpt lat="43.47121" lon="2.58581">
        <ele>331.6</ele>
        <time>2026-05-23T05:06:40Z</time>
      </trkpt>
      <trkpt lat="43.47123" lon="2.5857">
        <ele>331.6</ele>
        <time>2026-05-23T05:06:45Z</time>
      </trkpt>
      <trkpt lat="43.47126" lon="2.58559">
        <ele>331.6</ele>
        <time>2026-05-23T05:06:50Z</time>
      </trkpt>
      <trkpt lat="43.47127" lon="2.58551">
        <ele>331.6</ele>
        <time>2026-05-23T05:06:55Z</time>
      </trkpt>
      <trkpt lat="43.47129" lon="2.58543">
        <ele>331.6</ele>
        <time>2026-05-23T05:07:00Z</time>
      </trkpt>
      <trkpt lat="43.47132" lon="2.58533">
        <ele>331.6</ele>
        <time>2026-05-23T05:07:05Z</time>
      </trkpt>
      <trkpt lat="43.47133" lon="2.58522">
        <ele>331.5</ele>
        <time>2026-05-23T05:07:10Z</time>
      </trkpt>
      <trkpt lat="43.47134" lon="2.58514">
        <ele>331.3</ele>
        <time>2026-05-23T05:07:15Z</time>
      </trkpt>
      <trkpt lat="43.47137" lon="2.58504">
        <ele>331.3</ele>
        <time>2026-05-23T05:07:20Z</time>
      </trkpt>
      <trkpt lat="43.47139" lon="2.58496">
        <ele>331.2</ele>
        <time>2026-05-23T05:07:25Z</time>
      </trkpt>
      <trkpt lat="43.47141" lon="2.58485">
        <ele>331</ele>
        <time>2026-05-23T05:07:30Z</time>
      </trkpt>
      <trkpt lat="43.47143" lon="2.58472">
        <ele>330.8</ele>
        <time>2026-05-23T05:07:35Z</time>
      </trkpt>
      <trkpt lat="43.47147" lon="2.58462">
        <ele>330.7</ele>
        <time>2026-05-23T05:07:40Z</time>
      </trkpt>
      <trkpt lat="43.47149" lon="2.58453">
        <ele>330.5</ele>
        <time>2026-05-23T05:07:45Z</time>
      </trkpt>
      <trkpt lat="43.4715" lon="2.5844">
        <ele>330.1</ele>
        <time>2026-05-23T05:07:50Z</time>
      </trkpt>
      <trkpt lat="43.47152" lon="2.58427">
        <ele>329.8</ele>
        <time>2026-05-23T05:07:55Z</time>
      </trkpt>
      <trkpt lat="43.47153" lon="2.58418">
        <ele>329.6</ele>
        <time>2026-05-23T05:08:00Z</time>
      </trkpt>
      <trkpt lat="43.47157" lon="2.58408">
        <ele>329.5</ele>
        <time>2026-05-23T05:08:05Z</time>
      </trkpt>
      <trkpt lat="43.4716" lon="2.58399">
        <ele>329.4</ele>
        <time>2026-05-23T05:08:10Z</time>
      </trkpt>
      <trkpt lat="43.47162" lon="2.5839">
        <ele>329.2</ele>
        <time>2026-05-23T05:08:15Z</time>
      </trkpt>
      <trkpt lat="43.47164" lon="2.5838">
        <ele>329.1</ele>
        <time>2026-05-23T05:08:20Z</time>
      </trkpt>
      <trkpt lat="43.47167" lon="2.58372">
        <ele>329</ele>
        <time>2026-05-23T05:08:25Z</time>
      </trkpt>
      <trkpt lat="43.47168" lon="2.58366">
        <ele>329</ele>
        <time>2026-05-23T05:08:30Z</time>
      </trkpt>
      <trkpt lat="43.4717" lon="2.58358">
        <ele>329.1</ele>
        <time>2026-05-23T05:08:35Z</time>
      </trkpt>
      <trkpt lat="43.47172" lon="2.58349">
        <ele>329.2</ele>
        <time>2026-05-23T05:08:40Z</time>
      </trkpt>
      <trkpt lat="43.47177" lon="2.58342">
        <ele>329.7</ele>
        <time>2026-05-23T05:08:45Z</time>
      </trkpt>
      <trkpt lat="43.4718" lon="2.58334">
        <ele>329.9</ele>
        <time>2026-05-23T05:08:50Z</time>
      </trkpt>
      <trkpt lat="43.47182" lon="2.58324">
        <ele>330.1</ele>
        <time>2026-05-23T05:08:55Z</time>
      </trkpt>
      <trkpt lat="43.47184" lon="2.58314">
        <ele>330.2</ele>
        <time>2026-05-23T05:09:00Z</time>
      </trkpt>
      <trkpt lat="43.47185" lon="2.58305">
        <ele>330.2</ele>
        <time>2026-05-23T05:09:05Z</time>
      </trkpt>
      <trkpt lat="43.47188" lon="2.58295">
        <ele>330.4</ele>
        <time>2026-05-23T05:09:10Z</time>
      </trkpt>
      <trkpt lat="43.47191" lon="2.58286">
        <ele>330.6</ele>
        <time>2026-05-23T05:09:15Z</time>
      </trkpt>
      <trkpt lat="43.47193" lon="2.58277">
        <ele>330.7</ele>
        <time>2026-05-23T05:09:20Z</time>
      </trkpt>
      <trkpt lat="43.47196" lon="2.58268">
        <ele>330.9</ele>
        <time>2026-05-23T05:09:25Z</time>
      </trkpt>
      <trkpt lat="43.472" lon="2.58258">
        <ele>331.2</ele>
        <time>2026-05-23T05:09:30Z</time>
      </trkpt>
      <trkpt lat="43.47202" lon="2.58249">
        <ele>331.2</ele>
        <time>2026-05-23T05:09:35Z</time>
      </trkpt>
      <trkpt lat="43.47202" lon="2.58243">
        <ele>331.1</ele>
        <time>2026-05-23T05:09:40Z</time>
      </trkpt>
      <trkpt lat="43.47199" lon="2.58236">
        <ele>330.7</ele>
        <time>2026-05-23T05:09:45Z</time>
      </trkpt>
      <trkpt lat="43.47196" lon="2.58229">
        <ele>330.3</ele>
        <time>2026-05-23T05:09:50Z</time>
      </trkpt>
      <trkpt lat="43.47194" lon="2.58228">
        <ele>330</ele>
        <time>2026-05-23T05:09:55Z</time>
      </trkpt>
      <trkpt lat="43.47193" lon="2.58228">
        <ele>329.9</ele>
        <time>2026-05-23T05:10:00Z</time>
      </trkpt>
      <trkpt lat="43.47199" lon="2.58228">
        <ele>330.6</ele>
        <time>2026-05-23T05:10:05Z</time>
      </trkpt>
      <trkpt lat="43.47206" lon="2.58229">
        <ele>331.4</ele>
        <time>2026-05-23T05:10:10Z</time>
      </trkpt>
      <trkpt lat="43.47211" lon="2.58223">
        <ele>331.8</ele>
        <time>2026-05-23T05:10:15Z</time>
      </trkpt>
      <trkpt lat="43.47213" lon="2.58215">
        <ele>331.9</ele>
        <time>2026-05-23T05:10:20Z</time>
      </trkpt>
      <trkpt lat="43.47214" lon="2.58208">
        <ele>331.8</ele>
        <time>2026-05-23T05:10:25Z</time>
      </trkpt>
      <trkpt lat="43.47216" lon="2.58198">
        <ele>331.8</ele>
        <time>2026-05-23T05:10:30Z</time>
      </trkpt>
      <trkpt lat="43.4722" lon="2.58192">
        <ele>332.1</ele>
        <time>2026-05-23T05:10:35Z</time>
      </trkpt>
      <trkpt lat="43.47222" lon="2.58189">
        <ele>332.2</ele>
        <time>2026-05-23T05:10:40Z</time>
      </trkpt>
      <trkpt lat="43.47222" lon="2.58189">
        <ele>332.2</ele>
        <time>2026-05-23T05:10:40Z</time>
      </trkpt>
      <trkpt lat="43.47215" lon="2.58169">
        <ele>331.1</ele>
        <time>2026-05-23T05:16:33Z</time>
      </trkpt>
      <trkpt lat="43.4722" lon="2.5818">
        <ele>331.8</ele>
        <time>2026-05-23T05:16:39Z</time>
      </trkpt>
      <trkpt lat="43.47224" lon="2.58175">
        <ele>332</ele>
        <time>2026-05-23T05:16:44Z</time>
      </trkpt>
      <trkpt lat="43.47227" lon="2.5817">
        <ele>332.2</ele>
        <time>2026-05-23T05:16:49Z</time>
      </trkpt>
      <trkpt lat="43.47228" lon="2.58161">
        <ele>332</ele>
        <time>2026-05-23T05:16:54Z</time>
      </trkpt>
      <trkpt lat="43.47229" lon="2.58151">
        <ele>331.7</ele>
        <time>2026-05-23T05:16:59Z</time>
      </trkpt>
      <trkpt lat="43.4723" lon="2.58142">
        <ele>331.5</ele>
        <time>2026-05-23T05:17:04Z</time>
      </trkpt>
      <trkpt lat="43.47231" lon="2.58129">
        <ele>331.2</ele>
        <time>2026-05-23T05:17:09Z</time>
      </trkpt>
      <trkpt lat="43.47233" lon="2.58119">
        <ele>331</ele>
        <time>2026-05-23T05:17:14Z</time>
      </trkpt>
      <trkpt lat="43.47237" lon="2.58111">
        <ele>331</ele>
        <time>2026-05-23T05:17:19Z</time>
      </trkpt>
      <trkpt lat="43.47238" lon="2.58103">
        <ele>330.8</ele>
        <time>2026-05-23T05:17:24Z</time>
      </trkpt>
      <trkpt lat="43.47239" lon="2.58095">
        <ele>330.6</ele>
        <time>2026-05-23T05:17:29Z</time>
      </trkpt>
      <trkpt lat="43.47242" lon="2.58085">
        <ele>330.5</ele>
        <time>2026-05-23T05:17:34Z</time>
      </trkpt>
      <trkpt lat="43.47246" lon="2.58076">
        <ele>330.3</ele>
        <time>2026-05-23T05:17:39Z</time>
      </trkpt>
      <trkpt lat="43.47249" lon="2.58067">
        <ele>330</ele>
        <time>2026-05-23T05:17:44Z</time>
      </trkpt>
      <trkpt lat="43.47249" lon="2.5806">
        <ele>329.5</ele>
        <time>2026-05-23T05:17:49Z</time>
      </trkpt>
      <trkpt lat="43.47248" lon="2.58057">
        <ele>329.3</ele>
        <time>2026-05-23T05:17:54Z</time>
      </trkpt>
      <trkpt lat="43.47248" lon="2.58056">
        <ele>329.2</ele>
        <time>2026-05-23T05:17:59Z</time>
      </trkpt>
      <trkpt lat="43.47248" lon="2.58056">
        <ele>329.2</ele>
        <time>2026-05-23T05:18:04Z</time>
      </trkpt>
      <trkpt lat="43.47248" lon="2.58056">
        <ele>329.2</ele>
        <time>2026-05-23T05:18:09Z</time>
      </trkpt>
      <trkpt lat="43.47246" lon="2.58049">
        <ele>328.7</ele>
        <time>2026-05-23T05:18:14Z</time>
      </trkpt>
      <trkpt lat="43.47251" lon="2.58042">
        <ele>328.7</ele>
        <time>2026-05-23T05:18:19Z</time>
      </trkpt>
      <trkpt lat="43.47254" lon="2.58036">
        <ele>328.7</ele>
        <time>2026-05-23T05:18:24Z</time>
      </trkpt>
      <trkpt lat="43.47257" lon="2.58028">
        <ele>328.7</ele>
        <time>2026-05-23T05:18:29Z</time>
      </trkpt>
      <trkpt lat="43.47259" lon="2.58018">
        <ele>328.4</ele>
        <time>2026-05-23T05:18:34Z</time>
      </trkpt>
      <trkpt lat="43.47262" lon="2.58012">
        <ele>328.6</ele>
        <time>2026-05-23T05:18:39Z</time>
      </trkpt>
      <trkpt lat="43.47265" lon="2.58003">
        <ele>328.5</ele>
        <time>2026-05-23T05:18:44Z</time>
      </trkpt>
      <trkpt lat="43.47268" lon="2.57992">
        <ele>328.5</ele>
        <time>2026-05-23T05:18:49Z</time>
      </trkpt>
      <trkpt lat="43.4727" lon="2.57983">
        <ele>328.5</ele>
        <time>2026-05-23T05:18:54Z</time>
      </trkpt>
      <trkpt lat="43.47271" lon="2.57975">
        <ele>328.4</ele>
        <time>2026-05-23T05:18:59Z</time>
      </trkpt>
      <trkpt lat="43.47273" lon="2.57966">
        <ele>328.4</ele>
        <time>2026-05-23T05:19:04Z</time>
      </trkpt>
      <trkpt lat="43.47275" lon="2.57957">
        <ele>328.4</ele>
        <time>2026-05-23T05:19:09Z</time>
      </trkpt>
      <trkpt lat="43.47278" lon="2.57948">
        <ele>328.5</ele>
        <time>2026-05-23T05:19:14Z</time>
      </trkpt>
      <trkpt lat="43.47279" lon="2.57937">
        <ele>328.3</ele>
        <time>2026-05-23T05:19:19Z</time>
      </trkpt>
      <trkpt lat="43.47281" lon="2.5793">
        <ele>328.3</ele>
        <time>2026-05-23T05:19:24Z</time>
      </trkpt>
      <trkpt lat="43.47283" lon="2.57919">
        <ele>328.2</ele>
        <time>2026-05-23T05:19:29Z</time>
      </trkpt>
      <trkpt lat="43.47285" lon="2.57911">
        <ele>328.3</ele>
        <time>2026-05-23T05:19:34Z</time>
      </trkpt>
      <trkpt lat="43.47286" lon="2.57901">
        <ele>328.1</ele>
        <time>2026-05-23T05:19:39Z</time>
      </trkpt>
      <trkpt lat="43.47287" lon="2.5789">
        <ele>327.8</ele>
        <time>2026-05-23T05:19:44Z</time>
      </trkpt>
      <trkpt lat="43.47288" lon="2.5788">
        <ele>327.6</ele>
        <time>2026-05-23T05:19:49Z</time>
      </trkpt>
      <trkpt lat="43.4729" lon="2.5787">
        <ele>327.6</ele>
        <time>2026-05-23T05:19:54Z</time>
      </trkpt>
      <trkpt lat="43.47292" lon="2.57863">
        <ele>327.6</ele>
        <time>2026-05-23T05:19:59Z</time>
      </trkpt>
      <trkpt lat="43.47292" lon="2.57854">
        <ele>327.3</ele>
        <time>2026-05-23T05:20:04Z</time>
      </trkpt>
      <trkpt lat="43.47291" lon="2.57843">
        <ele>326.8</ele>
        <time>2026-05-23T05:20:09Z</time>
      </trkpt>
      <trkpt lat="43.47292" lon="2.57834">
        <ele>326.6</ele>
        <time>2026-05-23T05:20:14Z</time>
      </trkpt>
      <trkpt lat="43.47293" lon="2.57825">
        <ele>326.5</ele>
        <time>2026-05-23T05:20:19Z</time>
      </trkpt>
      <trkpt lat="43.47294" lon="2.57817">
        <ele>326.4</ele>
        <time>2026-05-23T05:20:24Z</time>
      </trkpt>
      <trkpt lat="43.47295" lon="2.57806">
        <ele>326.3</ele>
        <time>2026-05-23T05:20:29Z</time>
      </trkpt>
      <trkpt lat="43.47295" lon="2.57794">
        <ele>326</ele>
        <time>2026-05-23T05:20:34Z</time>
      </trkpt>
      <trkpt lat="43.47295" lon="2.57784">
        <ele>325.7</ele>
        <time>2026-05-23T05:20:39Z</time>
      </trkpt>
      <trkpt lat="43.47296" lon="2.57775">
        <ele>325.6</ele>
        <time>2026-05-23T05:20:44Z</time>
      </trkpt>
      <trkpt lat="43.47298" lon="2.57765">
        <ele>325.6</ele>
        <time>2026-05-23T05:20:49Z</time>
      </trkpt>
      <trkpt lat="43.47301" lon="2.57757">
        <ele>325.7</ele>
        <time>2026-05-23T05:20:54Z</time>
      </trkpt>
      <trkpt lat="43.47301" lon="2.57751">
        <ele>325.5</ele>
        <time>2026-05-23T05:20:59Z</time>
      </trkpt>
      <trkpt lat="43.47302" lon="2.57742">
        <ele>325.6</ele>
        <time>2026-05-23T05:21:04Z</time>
      </trkpt>
      <trkpt lat="43.47303" lon="2.57727">
        <ele>325.6</ele>
        <time>2026-05-23T05:21:09Z</time>
      </trkpt>
      <trkpt lat="43.47303" lon="2.57717">
        <ele>325.6</ele>
        <time>2026-05-23T05:21:14Z</time>
      </trkpt>
      <trkpt lat="43.47303" lon="2.57705">
        <ele>325.6</ele>
        <time>2026-05-23T05:21:19Z</time>
      </trkpt>
      <trkpt lat="43.47302" lon="2.57695">
        <ele>325.5</ele>
        <time>2026-05-23T05:21:24Z</time>
      </trkpt>
      <trkpt lat="43.47302" lon="2.57687">
        <ele>325.4</ele>
        <time>2026-05-23T05:21:29Z</time>
      </trkpt>
      <trkpt lat="43.47303" lon="2.57677">
        <ele>325.5</ele>
        <time>2026-05-23T05:21:34Z</time>
      </trkpt>
      <trkpt lat="43.47303" lon="2.57668">
        <ele>325.5</ele>
        <time>2026-05-23T05:21:39Z</time>
      </trkpt>
      <trkpt lat="43.47304" lon="2.57658">
        <ele>325.7</ele>
        <time>2026-05-23T05:21:44Z</time>
      </trkpt>
      <trkpt lat="43.47304" lon="2.57648">
        <ele>325.9</ele>
        <time>2026-05-23T05:21:49Z</time>
      </trkpt>
      <trkpt lat="43.47304" lon="2.57639">
        <ele>326.1</ele>
        <time>2026-05-23T05:21:54Z</time>
      </trkpt>
      <trkpt lat="43.47306" lon="2.57628">
        <ele>326.5</ele>
        <time>2026-05-23T05:21:59Z</time>
      </trkpt>
      <trkpt lat="43.47305" lon="2.57615">
        <ele>326.6</ele>
        <time>2026-05-23T05:22:04Z</time>
      </trkpt>
      <trkpt lat="43.47306" lon="2.57605">
        <ele>326.9</ele>
        <time>2026-05-23T05:22:09Z</time>
      </trkpt>
      <trkpt lat="43.47306" lon="2.57594">
        <ele>327.2</ele>
        <time>2026-05-23T05:22:14Z</time>
      </trkpt>
      <trkpt lat="43.47306" lon="2.57584">
        <ele>327.4</ele>
        <time>2026-05-23T05:22:19Z</time>
      </trkpt>
      <trkpt lat="43.47307" lon="2.57574">
        <ele>327.4</ele>
        <time>2026-05-23T05:22:24Z</time>
      </trkpt>
      <trkpt lat="43.47306" lon="2.57564">
        <ele>327.2</ele>
        <time>2026-05-23T05:22:29Z</time>
      </trkpt>
      <trkpt lat="43.47306" lon="2.57556">
        <ele>327.2</ele>
        <time>2026-05-23T05:22:34Z</time>
      </trkpt>
      <trkpt lat="43.47307" lon="2.57546">
        <ele>327.2</ele>
        <time>2026-05-23T05:22:39Z</time>
      </trkpt>
      <trkpt lat="43.47308" lon="2.57536">
        <ele>327.2</ele>
        <time>2026-05-23T05:22:44Z</time>
      </trkpt>
      <trkpt lat="43.47307" lon="2.57524">
        <ele>327</ele>
        <time>2026-05-23T05:22:49Z</time>
      </trkpt>
      <trkpt lat="43.47308" lon="2.57514">
        <ele>327.1</ele>
        <time>2026-05-23T05:22:54Z</time>
      </trkpt>
      <trkpt lat="43.47308" lon="2.57505">
        <ele>327</ele>
        <time>2026-05-23T05:22:59Z</time>
      </trkpt>
      <trkpt lat="43.47308" lon="2.57501">
        <ele>327</ele>
        <time>2026-05-23T05:23:04Z</time>
      </trkpt>
      <trkpt lat="43.47308" lon="2.57498">
        <ele>326.9</ele>
        <time>2026-05-23T05:23:09Z</time>
      </trkpt>
      <trkpt lat="43.47308" lon="2.57498">
        <ele>326.9</ele>
        <time>2026-05-23T05:23:14Z</time>
      </trkpt>
      <trkpt lat="43.47309" lon="2.57487">
        <ele>326.7</ele>
        <time>2026-05-23T05:23:19Z</time>
      </trkpt>
      <trkpt lat="43.47309" lon="2.5748">
        <ele>326.6</ele>
        <time>2026-05-23T05:23:24Z</time>
      </trkpt>
      <trkpt lat="43.4731" lon="2.5747">
        <ele>326.4</ele>
        <time>2026-05-23T05:23:29Z</time>
      </trkpt>
      <trkpt lat="43.4731" lon="2.5746">
        <ele>326.2</ele>
        <time>2026-05-23T05:23:34Z</time>
      </trkpt>
      <trkpt lat="43.47311" lon="2.57452">
        <ele>326.1</ele>
        <time>2026-05-23T05:23:39Z</time>
      </trkpt>
      <trkpt lat="43.47312" lon="2.57443">
        <ele>325.9</ele>
        <time>2026-05-23T05:23:44Z</time>
      </trkpt>
      <trkpt lat="43.47312" lon="2.57433">
        <ele>325.6</ele>
        <time>2026-05-23T05:23:49Z</time>
      </trkpt>
      <trkpt lat="43.47312" lon="2.57425">
        <ele>325.4</ele>
        <time>2026-05-23T05:23:54Z</time>
      </trkpt>
      <trkpt lat="43.47313" lon="2.57415">
        <ele>325.2</ele>
        <time>2026-05-23T05:23:59Z</time>
      </trkpt>
      <trkpt lat="43.47312" lon="2.57408">
        <ele>324.9</ele>
        <time>2026-05-23T05:24:04Z</time>
      </trkpt>
      <trkpt lat="43.47315" lon="2.57403">
        <ele>325</ele>
        <time>2026-05-23T05:24:09Z</time>
      </trkpt>
      <trkpt lat="43.47315" lon="2.57394">
        <ele>324.7</ele>
        <time>2026-05-23T05:24:14Z</time>
      </trkpt>
      <trkpt lat="43.47316" lon="2.57385">
        <ele>324.5</ele>
        <time>2026-05-23T05:24:19Z</time>
      </trkpt>
      <trkpt lat="43.47315" lon="2.57374">
        <ele>324</ele>
        <time>2026-05-23T05:24:24Z</time>
      </trkpt>
      <trkpt lat="43.47314" lon="2.57365">
        <ele>323.7</ele>
        <time>2026-05-23T05:24:29Z</time>
      </trkpt>
      <trkpt lat="43.47315" lon="2.57355">
        <ele>323.4</ele>
        <time>2026-05-23T05:24:34Z</time>
      </trkpt>
      <trkpt lat="43.47316" lon="2.57344">
        <ele>323.1</ele>
        <time>2026-05-23T05:24:39Z</time>
      </trkpt>
      <trkpt lat="43.47314" lon="2.57335">
        <ele>322.7</ele>
        <time>2026-05-23T05:24:44Z</time>
      </trkpt>
      <trkpt lat="43.47314" lon="2.57327">
        <ele>322.7</ele>
        <time>2026-05-23T05:24:49Z</time>
      </trkpt>
      <trkpt lat="43.47314" lon="2.57325">
        <ele>322.7</ele>
        <time>2026-05-23T05:24:54Z</time>
      </trkpt>
      <trkpt lat="43.47316" lon="2.57322">
        <ele>322.9</ele>
        <time>2026-05-23T05:24:59Z</time>
      </trkpt>
      <trkpt lat="43.47316" lon="2.57322">
        <ele>322.9</ele>
        <time>2026-05-23T05:25:04Z</time>
      </trkpt>
      <trkpt lat="43.47316" lon="2.57322">
        <ele>322.9</ele>
        <time>2026-05-23T05:25:09Z</time>
      </trkpt>
      <trkpt lat="43.47316" lon="2.57322">
        <ele>322.9</ele>
        <time>2026-05-23T05:25:14Z</time>
      </trkpt>
      <trkpt lat="43.4732" lon="2.57307">
        <ele>323.5</ele>
        <time>2026-05-23T05:25:19Z</time>
      </trkpt>
      <trkpt lat="43.4732" lon="2.57298">
        <ele>323.7</ele>
        <time>2026-05-23T05:25:24Z</time>
      </trkpt>
      <trkpt lat="43.4732" lon="2.57291">
        <ele>323.8</ele>
        <time>2026-05-23T05:25:29Z</time>
      </trkpt>
      <trkpt lat="43.47319" lon="2.57282">
        <ele>323.9</ele>
        <time>2026-05-23T05:25:34Z</time>
      </trkpt>
      <trkpt lat="43.4732" lon="2.57272">
        <ele>324.2</ele>
        <time>2026-05-23T05:25:39Z</time>
      </trkpt>
      <trkpt lat="43.4732" lon="2.57262">
        <ele>324.3</ele>
        <time>2026-05-23T05:25:44Z</time>
      </trkpt>
      <trkpt lat="43.47321" lon="2.57252">
        <ele>324.6</ele>
        <time>2026-05-23T05:25:49Z</time>
      </trkpt>
      <trkpt lat="43.47322" lon="2.57241">
        <ele>324.7</ele>
        <time>2026-05-23T05:25:54Z</time>
      </trkpt>
      <trkpt lat="43.47322" lon="2.57231">
        <ele>324.6</ele>
        <time>2026-05-23T05:25:59Z</time>
      </trkpt>
      <trkpt lat="43.47322" lon="2.57224">
        <ele>324.6</ele>
        <time>2026-05-23T05:26:04Z</time>
      </trkpt>
      <trkpt lat="43.47323" lon="2.57215">
        <ele>324.6</ele>
        <time>2026-05-23T05:26:09Z</time>
      </trkpt>
      <trkpt lat="43.47322" lon="2.57204">
        <ele>324.4</ele>
        <time>2026-05-23T05:26:14Z</time>
      </trkpt>
      <trkpt lat="43.47323" lon="2.57194">
        <ele>324.5</ele>
        <time>2026-05-23T05:26:19Z</time>
      </trkpt>
      <trkpt lat="43.47325" lon="2.57185">
        <ele>324.6</ele>
        <time>2026-05-23T05:26:24Z</time>
      </trkpt>
      <trkpt lat="43.47326" lon="2.57174">
        <ele>324.5</ele>
        <time>2026-05-23T05:26:29Z</time>
      </trkpt>
      <trkpt lat="43.47325" lon="2.57165">
        <ele>324.3</ele>
        <time>2026-05-23T05:26:34Z</time>
      </trkpt>
      <trkpt lat="43.47325" lon="2.57156">
        <ele>324.1</ele>
        <time>2026-05-23T05:26:39Z</time>
      </trkpt>
      <trkpt lat="43.47325" lon="2.57146">
        <ele>323.8</ele>
        <time>2026-05-23T05:26:44Z</time>
      </trkpt>
      <trkpt lat="43.47327" lon="2.57134">
        <ele>323.5</ele>
        <time>2026-05-23T05:26:49Z</time>
      </trkpt>
      <trkpt lat="43.47326" lon="2.57125">
        <ele>323.1</ele>
        <time>2026-05-23T05:26:54Z</time>
      </trkpt>
      <trkpt lat="43.47327" lon="2.57116">
        <ele>322.9</ele>
        <time>2026-05-23T05:26:59Z</time>
      </trkpt>
      <trkpt lat="43.47328" lon="2.57107">
        <ele>322.7</ele>
        <time>2026-05-23T05:27:04Z</time>
      </trkpt>
      <trkpt lat="43.47329" lon="2.57097">
        <ele>322.4</ele>
        <time>2026-05-23T05:27:09Z</time>
      </trkpt>
      <trkpt lat="43.47329" lon="2.57087">
        <ele>322</ele>
        <time>2026-05-23T05:27:14Z</time>
      </trkpt>
      <trkpt lat="43.4733" lon="2.57076">
        <ele>321.9</ele>
        <time>2026-05-23T05:27:19Z</time>
      </trkpt>
      <trkpt lat="43.47331" lon="2.57067">
        <ele>321.9</ele>
        <time>2026-05-23T05:27:24Z</time>
      </trkpt>
      <trkpt lat="43.47331" lon="2.57058">
        <ele>322</ele>
        <time>2026-05-23T05:27:29Z</time>
      </trkpt>
      <trkpt lat="43.47331" lon="2.57046">
        <ele>322</ele>
        <time>2026-05-23T05:27:34Z</time>
      </trkpt>
      <trkpt lat="43.47331" lon="2.57036">
        <ele>322</ele>
        <time>2026-05-23T05:27:39Z</time>
      </trkpt>
      <trkpt lat="43.47331" lon="2.57026">
        <ele>322</ele>
        <time>2026-05-23T05:27:44Z</time>
      </trkpt>
      <trkpt lat="43.47332" lon="2.57015">
        <ele>322</ele>
        <time>2026-05-23T05:27:49Z</time>
      </trkpt>
      <trkpt lat="43.47334" lon="2.57005">
        <ele>322.1</ele>
        <time>2026-05-23T05:27:54Z</time>
      </trkpt>
      <trkpt lat="43.47334" lon="2.56994">
        <ele>321.9</ele>
        <time>2026-05-23T05:27:59Z</time>
      </trkpt>
      <trkpt lat="43.47333" lon="2.56985">
        <ele>321.6</ele>
        <time>2026-05-23T05:28:04Z</time>
      </trkpt>
      <trkpt lat="43.47334" lon="2.56973">
        <ele>321.4</ele>
        <time>2026-05-23T05:28:09Z</time>
      </trkpt>
      <trkpt lat="43.47333" lon="2.56964">
        <ele>321.1</ele>
        <time>2026-05-23T05:28:14Z</time>
      </trkpt>
      <trkpt lat="43.47333" lon="2.56956">
        <ele>320.9</ele>
        <time>2026-05-23T05:28:19Z</time>
      </trkpt>
      <trkpt lat="43.47333" lon="2.56944">
        <ele>320.7</ele>
        <time>2026-05-23T05:28:24Z</time>
      </trkpt>
      <trkpt lat="43.47334" lon="2.56933">
        <ele>320.5</ele>
        <time>2026-05-23T05:28:29Z</time>
      </trkpt>
      <trkpt lat="43.47335" lon="2.56922">
        <ele>320.3</ele>
        <time>2026-05-23T05:28:34Z</time>
      </trkpt>
      <trkpt lat="43.47333" lon="2.56912">
        <ele>319.9</ele>
        <time>2026-05-23T05:28:39Z</time>
      </trkpt>
      <trkpt lat="43.47334" lon="2.56904">
        <ele>319.8</ele>
        <time>2026-05-23T05:28:44Z</time>
      </trkpt>
      <trkpt lat="43.47334" lon="2.56894">
        <ele>319.5</ele>
        <time>2026-05-23T05:28:49Z</time>
      </trkpt>
      <trkpt lat="43.47336" lon="2.56888">
        <ele>319.6</ele>
        <time>2026-05-23T05:28:54Z</time>
      </trkpt>
      <trkpt lat="43.47334" lon="2.56873">
        <ele>319</ele>
        <time>2026-05-23T05:28:59Z</time>
      </trkpt>
      <trkpt lat="43.47333" lon="2.56861">
        <ele>318.7</ele>
        <time>2026-05-23T05:29:04Z</time>
      </trkpt>
      <trkpt lat="43.47332" lon="2.5685">
        <ele>318.4</ele>
        <time>2026-05-23T05:29:09Z</time>
      </trkpt>
      <trkpt lat="43.47331" lon="2.5684">
        <ele>318.1</ele>
        <time>2026-05-23T05:29:14Z</time>
      </trkpt>
      <trkpt lat="43.4733" lon="2.56831">
        <ele>317.9</ele>
        <time>2026-05-23T05:29:19Z</time>
      </trkpt>
      <trkpt lat="43.47329" lon="2.56821">
        <ele>318</ele>
        <time>2026-05-23T05:29:24Z</time>
      </trkpt>
      <trkpt lat="43.47326" lon="2.56812">
        <ele>318</ele>
        <time>2026-05-23T05:29:29Z</time>
      </trkpt>
      <trkpt lat="43.47324" lon="2.56802">
        <ele>318.1</ele>
        <time>2026-05-23T05:29:34Z</time>
      </trkpt>
      <trkpt lat="43.47323" lon="2.56792">
        <ele>318.1</ele>
        <time>2026-05-23T05:29:39Z</time>
      </trkpt>
      <trkpt lat="43.47321" lon="2.56783">
        <ele>318.1</ele>
        <time>2026-05-23T05:29:44Z</time>
      </trkpt>
      <trkpt lat="43.47318" lon="2.56771">
        <ele>318.1</ele>
        <time>2026-05-23T05:29:49Z</time>
      </trkpt>
      <trkpt lat="43.47316" lon="2.5676">
        <ele>318.1</ele>
        <time>2026-05-23T05:29:54Z</time>
      </trkpt>
      <trkpt lat="43.47314" lon="2.56751">
        <ele>318.1</ele>
        <time>2026-05-23T05:29:59Z</time>
      </trkpt>
      <trkpt lat="43.47312" lon="2.56741">
        <ele>317.8</ele>
        <time>2026-05-23T05:30:04Z</time>
      </trkpt>
      <trkpt lat="43.47311" lon="2.56729">
        <ele>317.6</ele>
        <time>2026-05-23T05:30:09Z</time>
      </trkpt>
      <trkpt lat="43.47309" lon="2.56719">
        <ele>317.4</ele>
        <time>2026-05-23T05:30:14Z</time>
      </trkpt>
      <trkpt lat="43.47307" lon="2.5671">
        <ele>317.1</ele>
        <time>2026-05-23T05:30:19Z</time>
      </trkpt>
      <trkpt lat="43.47304" lon="2.56702">
        <ele>316.8</ele>
        <time>2026-05-23T05:30:24Z</time>
      </trkpt>
      <trkpt lat="43.47302" lon="2.56694">
        <ele>316.6</ele>
        <time>2026-05-23T05:30:29Z</time>
      </trkpt>
      <trkpt lat="43.473" lon="2.56684">
        <ele>316.3</ele>
        <time>2026-05-23T05:30:34Z</time>
      </trkpt>
      <trkpt lat="43.47299" lon="2.56676">
        <ele>316.1</ele>
        <time>2026-05-23T05:30:39Z</time>
      </trkpt>
      <trkpt lat="43.47298" lon="2.56667">
        <ele>315.9</ele>
        <time>2026-05-23T05:30:44Z</time>
      </trkpt>
      <trkpt lat="43.47296" lon="2.56658">
        <ele>315.8</ele>
        <time>2026-05-23T05:30:49Z</time>
      </trkpt>
      <trkpt lat="43.47295" lon="2.5665">
        <ele>315.8</ele>
        <time>2026-05-23T05:30:54Z</time>
      </trkpt>
      <trkpt lat="43.47293" lon="2.5664">
        <ele>315.7</ele>
        <time>2026-05-23T05:30:59Z</time>
      </trkpt>
      <trkpt lat="43.47291" lon="2.56632">
        <ele>315.7</ele>
        <time>2026-05-23T05:31:04Z</time>
      </trkpt>
      <trkpt lat="43.47289" lon="2.56624">
        <ele>315.6</ele>
        <time>2026-05-23T05:31:09Z</time>
      </trkpt>
      <trkpt lat="43.47287" lon="2.56616">
        <ele>315.6</ele>
        <time>2026-05-23T05:31:14Z</time>
      </trkpt>
      <trkpt lat="43.47286" lon="2.56607">
        <ele>315.7</ele>
        <time>2026-05-23T05:31:19Z</time>
      </trkpt>
      <trkpt lat="43.47285" lon="2.56597">
        <ele>315.7</ele>
        <time>2026-05-23T05:31:24Z</time>
      </trkpt>
      <trkpt lat="43.47283" lon="2.56587">
        <ele>315.8</ele>
        <time>2026-05-23T05:31:29Z</time>
      </trkpt>
      <trkpt lat="43.47281" lon="2.56579">
        <ele>315.7</ele>
        <time>2026-05-23T05:31:34Z</time>
      </trkpt>
      <trkpt lat="43.4728" lon="2.56569">
        <ele>315.7</ele>
        <time>2026-05-23T05:31:39Z</time>
      </trkpt>
      <trkpt lat="43.47278" lon="2.56559">
        <ele>315.6</ele>
        <time>2026-05-23T05:31:44Z</time>
      </trkpt>
      <trkpt lat="43.47277" lon="2.56548">
        <ele>315.5</ele>
        <time>2026-05-23T05:31:49Z</time>
      </trkpt>
      <trkpt lat="43.47277" lon="2.56539">
        <ele>315.5</ele>
        <time>2026-05-23T05:31:54Z</time>
      </trkpt>
      <trkpt lat="43.47277" lon="2.56529">
        <ele>315.4</ele>
        <time>2026-05-23T05:31:59Z</time>
      </trkpt>
      <trkpt lat="43.47277" lon="2.56518">
        <ele>315.4</ele>
        <time>2026-05-23T05:32:04Z</time>
      </trkpt>
      <trkpt lat="43.47276" lon="2.56508">
        <ele>315.3</ele>
        <time>2026-05-23T05:32:09Z</time>
      </trkpt>
      <trkpt lat="43.47277" lon="2.56496">
        <ele>315.3</ele>
        <time>2026-05-23T05:32:14Z</time>
      </trkpt>
      <trkpt lat="43.47277" lon="2.56485">
        <ele>315.2</ele>
        <time>2026-05-23T05:32:19Z</time>
      </trkpt>
      <trkpt lat="43.47278" lon="2.56473">
        <ele>315.1</ele>
        <time>2026-05-23T05:32:24Z</time>
      </trkpt>
      <trkpt lat="43.47279" lon="2.56463">
        <ele>315.1</ele>
        <time>2026-05-23T05:32:29Z</time>
      </trkpt>
      <trkpt lat="43.47281" lon="2.56455">
        <ele>315.1</ele>
        <time>2026-05-23T05:32:34Z</time>
      </trkpt>
      <trkpt lat="43.47282" lon="2.56445">
        <ele>315</ele>
        <time>2026-05-23T05:32:39Z</time>
      </trkpt>
      <trkpt lat="43.47283" lon="2.56436">
        <ele>315</ele>
        <time>2026-05-23T05:32:44Z</time>
      </trkpt>
      <trkpt lat="43.47285" lon="2.56426">
        <ele>314.9</ele>
        <time>2026-05-23T05:32:49Z</time>
      </trkpt>
      <trkpt lat="43.47286" lon="2.56416">
        <ele>314.8</ele>
        <time>2026-05-23T05:32:54Z</time>
      </trkpt>
      <trkpt lat="43.47288" lon="2.56408">
        <ele>314.5</ele>
        <time>2026-05-23T05:32:59Z</time>
      </trkpt>
      <trkpt lat="43.4729" lon="2.56399">
        <ele>314.1</ele>
        <time>2026-05-23T05:33:04Z</time>
      </trkpt>
      <trkpt lat="43.47294" lon="2.56389">
        <ele>313.7</ele>
        <time>2026-05-23T05:33:09Z</time>
      </trkpt>
      <trkpt lat="43.47295" lon="2.56378">
        <ele>313.2</ele>
        <time>2026-05-23T05:33:14Z</time>
      </trkpt>
      <trkpt lat="43.47299" lon="2.56369">
        <ele>312.9</ele>
        <time>2026-05-23T05:33:19Z</time>
      </trkpt>
      <trkpt lat="43.47301" lon="2.56362">
        <ele>312.6</ele>
        <time>2026-05-23T05:33:24Z</time>
      </trkpt>
      <trkpt lat="43.47305" lon="2.56354">
        <ele>312.3</ele>
        <time>2026-05-23T05:33:29Z</time>
      </trkpt>
      <trkpt lat="43.47306" lon="2.56346">
        <ele>312</ele>
        <time>2026-05-23T05:33:34Z</time>
      </trkpt>
      <trkpt lat="43.47309" lon="2.56337">
        <ele>311.6</ele>
        <time>2026-05-23T05:33:39Z</time>
      </trkpt>
      <trkpt lat="43.47313" lon="2.56328">
        <ele>311.5</ele>
        <time>2026-05-23T05:33:44Z</time>
      </trkpt>
      <trkpt lat="43.47318" lon="2.56319">
        <ele>311.5</ele>
        <time>2026-05-23T05:33:49Z</time>
      </trkpt>
      <trkpt lat="43.47322" lon="2.5631">
        <ele>311.5</ele>
        <time>2026-05-23T05:33:54Z</time>
      </trkpt>
      <trkpt lat="43.47327" lon="2.56305">
        <ele>311.5</ele>
        <time>2026-05-23T05:33:59Z</time>
      </trkpt>
      <trkpt lat="43.47331" lon="2.56297">
        <ele>311.5</ele>
        <time>2026-05-23T05:34:04Z</time>
      </trkpt>
      <trkpt lat="43.47335" lon="2.5629">
        <ele>311.6</ele>
        <time>2026-05-23T05:34:09Z</time>
      </trkpt>
      <trkpt lat="43.47335" lon="2.56287">
        <ele>311.6</ele>
        <time>2026-05-23T05:34:14Z</time>
      </trkpt>
      <trkpt lat="43.47335" lon="2.56284">
        <ele>311.6</ele>
        <time>2026-05-23T05:34:19Z</time>
      </trkpt>
      <trkpt lat="43.47335" lon="2.56284">
        <ele>311.6</ele>
        <time>2026-05-23T05:34:24Z</time>
      </trkpt>
      <trkpt lat="43.47341" lon="2.56274">
        <ele>312</ele>
        <time>2026-05-23T05:34:29Z</time>
      </trkpt>
      <trkpt lat="43.47345" lon="2.56267">
        <ele>312.2</ele>
        <time>2026-05-23T05:34:34Z</time>
      </trkpt>
      <trkpt lat="43.47349" lon="2.5626">
        <ele>312.5</ele>
        <time>2026-05-23T05:34:39Z</time>
      </trkpt>
      <trkpt lat="43.47355" lon="2.56251">
        <ele>312.8</ele>
        <time>2026-05-23T05:34:44Z</time>
      </trkpt>
      <trkpt lat="43.4736" lon="2.56242">
        <ele>313.2</ele>
        <time>2026-05-23T05:34:49Z</time>
      </trkpt>
      <trkpt lat="43.47364" lon="2.56235">
        <ele>313.6</ele>
        <time>2026-05-23T05:34:54Z</time>
      </trkpt>
      <trkpt lat="43.47368" lon="2.56227">
        <ele>313.8</ele>
        <time>2026-05-23T05:34:59Z</time>
      </trkpt>
      <trkpt lat="43.47372" lon="2.5622">
        <ele>314.1</ele>
        <time>2026-05-23T05:35:04Z</time>
      </trkpt>
      <trkpt lat="43.47376" lon="2.56213">
        <ele>314.3</ele>
        <time>2026-05-23T05:35:09Z</time>
      </trkpt>
      <trkpt lat="43.47382" lon="2.56204">
        <ele>314.7</ele>
        <time>2026-05-23T05:35:14Z</time>
      </trkpt>
      <trkpt lat="43.47385" lon="2.56197">
        <ele>314.8</ele>
        <time>2026-05-23T05:35:19Z</time>
      </trkpt>
      <trkpt lat="43.47388" lon="2.56188">
        <ele>314.9</ele>
        <time>2026-05-23T05:35:24Z</time>
      </trkpt>
      <trkpt lat="43.47394" lon="2.56181">
        <ele>315.1</ele>
        <time>2026-05-23T05:35:29Z</time>
      </trkpt>
      <trkpt lat="43.47396" lon="2.56174">
        <ele>315.1</ele>
        <time>2026-05-23T05:35:34Z</time>
      </trkpt>
      <trkpt lat="43.47401" lon="2.56164">
        <ele>315.2</ele>
        <time>2026-05-23T05:35:39Z</time>
      </trkpt>
      <trkpt lat="43.47407" lon="2.56154">
        <ele>315.1</ele>
        <time>2026-05-23T05:35:44Z</time>
      </trkpt>
      <trkpt lat="43.4741" lon="2.56146">
        <ele>315</ele>
        <time>2026-05-23T05:35:49Z</time>
      </trkpt>
      <trkpt lat="43.47413" lon="2.56138">
        <ele>314.8</ele>
        <time>2026-05-23T05:35:54Z</time>
      </trkpt>
      <trkpt lat="43.47419" lon="2.56131">
        <ele>314.9</ele>
        <time>2026-05-23T05:35:59Z</time>
      </trkpt>
      <trkpt lat="43.47424" lon="2.56122">
        <ele>314.9</ele>
        <time>2026-05-23T05:36:04Z</time>
      </trkpt>
      <trkpt lat="43.47428" lon="2.56114">
        <ele>314.8</ele>
        <time>2026-05-23T05:36:09Z</time>
      </trkpt>
      <trkpt lat="43.47433" lon="2.56107">
        <ele>314.9</ele>
        <time>2026-05-23T05:36:14Z</time>
      </trkpt>
      <trkpt lat="43.47436" lon="2.56097">
        <ele>314.6</ele>
        <time>2026-05-23T05:36:19Z</time>
      </trkpt>
      <trkpt lat="43.4744" lon="2.56089">
        <ele>314.4</ele>
        <time>2026-05-23T05:36:24Z</time>
      </trkpt>
      <trkpt lat="43.47445" lon="2.56081">
        <ele>314.3</ele>
        <time>2026-05-23T05:36:29Z</time>
      </trkpt>
      <trkpt lat="43.4745" lon="2.56073">
        <ele>314.1</ele>
        <time>2026-05-23T05:36:34Z</time>
      </trkpt>
      <trkpt lat="43.47452" lon="2.56065">
        <ele>313.8</ele>
        <time>2026-05-23T05:36:39Z</time>
      </trkpt>
      <trkpt lat="43.47455" lon="2.56057">
        <ele>313.6</ele>
        <time>2026-05-23T05:36:44Z</time>
      </trkpt>
      <trkpt lat="43.4746" lon="2.56049">
        <ele>313.4</ele>
        <time>2026-05-23T05:36:49Z</time>
      </trkpt>
      <trkpt lat="43.47464" lon="2.56041">
        <ele>313.2</ele>
        <time>2026-05-23T05:36:54Z</time>
      </trkpt>
      <trkpt lat="43.47467" lon="2.56029">
        <ele>312.7</ele>
        <time>2026-05-23T05:36:59Z</time>
      </trkpt>
      <trkpt lat="43.4747" lon="2.56019">
        <ele>312.3</ele>
        <time>2026-05-23T05:37:04Z</time>
      </trkpt>
      <trkpt lat="43.47473" lon="2.5601">
        <ele>311.9</ele>
        <time>2026-05-23T05:37:09Z</time>
      </trkpt>
      <trkpt lat="43.47477" lon="2.56002">
        <ele>311.6</ele>
        <time>2026-05-23T05:37:14Z</time>
      </trkpt>
      <trkpt lat="43.4748" lon="2.55992">
        <ele>311.5</ele>
        <time>2026-05-23T05:37:19Z</time>
      </trkpt>
      <trkpt lat="43.47482" lon="2.55981">
        <ele>311.5</ele>
        <time>2026-05-23T05:37:24Z</time>
      </trkpt>
      <trkpt lat="43.47484" lon="2.55971">
        <ele>311.5</ele>
        <time>2026-05-23T05:37:29Z</time>
      </trkpt>
      <trkpt lat="43.47486" lon="2.55961">
        <ele>311.6</ele>
        <time>2026-05-23T05:37:34Z</time>
      </trkpt>
      <trkpt lat="43.47487" lon="2.55951">
        <ele>311.6</ele>
        <time>2026-05-23T05:37:39Z</time>
      </trkpt>
      <trkpt lat="43.47489" lon="2.5594">
        <ele>311.6</ele>
        <time>2026-05-23T05:37:44Z</time>
      </trkpt>
      <trkpt lat="43.4749" lon="2.55932">
        <ele>311.7</ele>
        <time>2026-05-23T05:37:49Z</time>
      </trkpt>
      <trkpt lat="43.47493" lon="2.55922">
        <ele>311.8</ele>
        <time>2026-05-23T05:37:54Z</time>
      </trkpt>
      <trkpt lat="43.47496" lon="2.55913">
        <ele>311.9</ele>
        <time>2026-05-23T05:37:59Z</time>
      </trkpt>
      <trkpt lat="43.47499" lon="2.55904">
        <ele>312.1</ele>
        <time>2026-05-23T05:38:04Z</time>
      </trkpt>
      <trkpt lat="43.47501" lon="2.55895">
        <ele>312.3</ele>
        <time>2026-05-23T05:38:09Z</time>
      </trkpt>
      <trkpt lat="43.47503" lon="2.55885">
        <ele>312.6</ele>
        <time>2026-05-23T05:38:14Z</time>
      </trkpt>
      <trkpt lat="43.47503" lon="2.55876">
        <ele>312.7</ele>
        <time>2026-05-23T05:38:19Z</time>
      </trkpt>
      <trkpt lat="43.47505" lon="2.55868">
        <ele>313</ele>
        <time>2026-05-23T05:38:24Z</time>
      </trkpt>
      <trkpt lat="43.47506" lon="2.5586">
        <ele>313.2</ele>
        <time>2026-05-23T05:38:29Z</time>
      </trkpt>
      <trkpt lat="43.47509" lon="2.55851">
        <ele>313.5</ele>
        <time>2026-05-23T05:38:34Z</time>
      </trkpt>
      <trkpt lat="43.47511" lon="2.55841">
        <ele>313.7</ele>
        <time>2026-05-23T05:38:39Z</time>
      </trkpt>
      <trkpt lat="43.47513" lon="2.55832">
        <ele>313.9</ele>
        <time>2026-05-23T05:38:44Z</time>
      </trkpt>
      <trkpt lat="43.47516" lon="2.55823">
        <ele>314.1</ele>
        <time>2026-05-23T05:38:49Z</time>
      </trkpt>
      <trkpt lat="43.47517" lon="2.55815">
        <ele>314.1</ele>
        <time>2026-05-23T05:38:54Z</time>
      </trkpt>
      <trkpt lat="43.47519" lon="2.55805">
        <ele>314.2</ele>
        <time>2026-05-23T05:38:59Z</time>
      </trkpt>
      <trkpt lat="43.47521" lon="2.55795">
        <ele>314.3</ele>
        <time>2026-05-23T05:39:04Z</time>
      </trkpt>
      <trkpt lat="43.47523" lon="2.55786">
        <ele>314.4</ele>
        <time>2026-05-23T05:39:09Z</time>
      </trkpt>
      <trkpt lat="43.47525" lon="2.55776">
        <ele>314.5</ele>
        <time>2026-05-23T05:39:14Z</time>
      </trkpt>
      <trkpt lat="43.47527" lon="2.55765">
        <ele>314.7</ele>
        <time>2026-05-23T05:39:19Z</time>
      </trkpt>
      <trkpt lat="43.47529" lon="2.55755">
        <ele>314.8</ele>
        <time>2026-05-23T05:39:24Z</time>
      </trkpt>
      <trkpt lat="43.4753" lon="2.55746">
        <ele>314.7</ele>
        <time>2026-05-23T05:39:29Z</time>
      </trkpt>
      <trkpt lat="43.47532" lon="2.55735">
        <ele>314.5</ele>
        <time>2026-05-23T05:39:34Z</time>
      </trkpt>
      <trkpt lat="43.47534" lon="2.55725">
        <ele>314.3</ele>
        <time>2026-05-23T05:39:39Z</time>
      </trkpt>
      <trkpt lat="43.47535" lon="2.55715">
        <ele>314</ele>
        <time>2026-05-23T05:39:44Z</time>
      </trkpt>
      <trkpt lat="43.47537" lon="2.55706">
        <ele>313.9</ele>
        <time>2026-05-23T05:39:49Z</time>
      </trkpt>
      <trkpt lat="43.4754" lon="2.55697">
        <ele>313.9</ele>
        <time>2026-05-23T05:39:54Z</time>
      </trkpt>
      <trkpt lat="43.47541" lon="2.55687">
        <ele>313.7</ele>
        <time>2026-05-23T05:39:59Z</time>
      </trkpt>
      <trkpt lat="43.47544" lon="2.55679">
        <ele>313.7</ele>
        <time>2026-05-23T05:40:04Z</time>
      </trkpt>
      <trkpt lat="43.47546" lon="2.5567">
        <ele>313.6</ele>
        <time>2026-05-23T05:40:09Z</time>
      </trkpt>
      <trkpt lat="43.47546" lon="2.55661">
        <ele>313.2</ele>
        <time>2026-05-23T05:40:14Z</time>
      </trkpt>
      <trkpt lat="43.47547" lon="2.55652">
        <ele>312.8</ele>
        <time>2026-05-23T05:40:19Z</time>
      </trkpt>
      <trkpt lat="43.47549" lon="2.55643">
        <ele>312.5</ele>
        <time>2026-05-23T05:40:24Z</time>
      </trkpt>
      <trkpt lat="43.47551" lon="2.55633">
        <ele>312.1</ele>
        <time>2026-05-23T05:40:29Z</time>
      </trkpt>
      <trkpt lat="43.47552" lon="2.55624">
        <ele>311.6</ele>
        <time>2026-05-23T05:40:34Z</time>
      </trkpt>
      <trkpt lat="43.47552" lon="2.55611">
        <ele>310.8</ele>
        <time>2026-05-23T05:40:39Z</time>
      </trkpt>
      <trkpt lat="43.47552" lon="2.55598">
        <ele>310</ele>
        <time>2026-05-23T05:40:44Z</time>
      </trkpt>
      <trkpt lat="43.47553" lon="2.55586">
        <ele>309.3</ele>
        <time>2026-05-23T05:40:49Z</time>
      </trkpt>
      <trkpt lat="43.47554" lon="2.55577">
        <ele>309.7</ele>
        <time>2026-05-23T05:40:54Z</time>
      </trkpt>
      <trkpt lat="43.47554" lon="2.55567">
        <ele>310.5</ele>
        <time>2026-05-23T05:40:59Z</time>
      </trkpt>
      <trkpt lat="43.47555" lon="2.55558">
        <ele>311.2</ele>
        <time>2026-05-23T05:41:04Z</time>
      </trkpt>
      <trkpt lat="43.47554" lon="2.55552">
        <ele>311.7</ele>
        <time>2026-05-23T05:41:09Z</time>
      </trkpt>
      <trkpt lat="43.47554" lon="2.5554">
        <ele>312.6</ele>
        <time>2026-05-23T05:41:14Z</time>
      </trkpt>
      <trkpt lat="43.47552" lon="2.55524">
        <ele>313.8</ele>
        <time>2026-05-23T05:41:19Z</time>
      </trkpt>
      <trkpt lat="43.4755" lon="2.55512">
        <ele>314.8</ele>
        <time>2026-05-23T05:41:24Z</time>
      </trkpt>
      <trkpt lat="43.4755" lon="2.55503">
        <ele>315.6</ele>
        <time>2026-05-23T05:41:29Z</time>
      </trkpt>
      <trkpt lat="43.47549" lon="2.55493">
        <ele>316.4</ele>
        <time>2026-05-23T05:41:34Z</time>
      </trkpt>
      <trkpt lat="43.47547" lon="2.55485">
        <ele>317.1</ele>
        <time>2026-05-23T05:41:39Z</time>
      </trkpt>
      <trkpt lat="43.47547" lon="2.55475">
        <ele>317.9</ele>
        <time>2026-05-23T05:41:44Z</time>
      </trkpt>
      <trkpt lat="43.47545" lon="2.55465">
        <ele>318.8</ele>
        <time>2026-05-23T05:41:49Z</time>
      </trkpt>
      <trkpt lat="43.47543" lon="2.55455">
        <ele>319.7</ele>
        <time>2026-05-23T05:41:54Z</time>
      </trkpt>
      <trkpt lat="43.47541" lon="2.55446">
        <ele>320.6</ele>
        <time>2026-05-23T05:41:59Z</time>
      </trkpt>
      <trkpt lat="43.4754" lon="2.5544">
        <ele>321.2</ele>
        <time>2026-05-23T05:42:04Z</time>
      </trkpt>
      <trkpt lat="43.47539" lon="2.55437">
        <ele>321.5</ele>
        <time>2026-05-23T05:42:09Z</time>
      </trkpt>
      <trkpt lat="43.47539" lon="2.55437">
        <ele>321.5</ele>
        <time>2026-05-23T05:42:14Z</time>
      </trkpt>
      <trkpt lat="43.47535" lon="2.5543">
        <ele>322.4</ele>
        <time>2026-05-23T05:42:19Z</time>
      </trkpt>
      <trkpt lat="43.47533" lon="2.55423">
        <ele>323.3</ele>
        <time>2026-05-23T05:42:24Z</time>
      </trkpt>
      <trkpt lat="43.47534" lon="2.55415">
        <ele>323.8</ele>
        <time>2026-05-23T05:42:29Z</time>
      </trkpt>
      <trkpt lat="43.47534" lon="2.55406">
        <ele>323.9</ele>
        <time>2026-05-23T05:42:34Z</time>
      </trkpt>
      <trkpt lat="43.47533" lon="2.55397">
        <ele>324.1</ele>
        <time>2026-05-23T05:42:39Z</time>
      </trkpt>
      <trkpt lat="43.47531" lon="2.55386">
        <ele>324.4</ele>
        <time>2026-05-23T05:42:44Z</time>
      </trkpt>
      <trkpt lat="43.47529" lon="2.55377">
        <ele>324.8</ele>
        <time>2026-05-23T05:42:49Z</time>
      </trkpt>
      <trkpt lat="43.47528" lon="2.55367">
        <ele>325.1</ele>
        <time>2026-05-23T05:42:54Z</time>
      </trkpt>
      <trkpt lat="43.47527" lon="2.55359">
        <ele>325.4</ele>
        <time>2026-05-23T05:42:59Z</time>
      </trkpt>
      <trkpt lat="43.47527" lon="2.55349">
        <ele>325.5</ele>
        <time>2026-05-23T05:43:04Z</time>
      </trkpt>
      <trkpt lat="43.47527" lon="2.5534">
        <ele>325.7</ele>
        <time>2026-05-23T05:43:09Z</time>
      </trkpt>
      <trkpt lat="43.47527" lon="2.55329">
        <ele>325.6</ele>
        <time>2026-05-23T05:43:14Z</time>
      </trkpt>
      <trkpt lat="43.47527" lon="2.5532">
        <ele>325.1</ele>
        <time>2026-05-23T05:43:19Z</time>
      </trkpt>
      <trkpt lat="43.47528" lon="2.55309">
        <ele>324.4</ele>
        <time>2026-05-23T05:43:24Z</time>
      </trkpt>
      <trkpt lat="43.47528" lon="2.55298">
        <ele>323.8</ele>
        <time>2026-05-23T05:43:29Z</time>
      </trkpt>
      <trkpt lat="43.47528" lon="2.55286">
        <ele>323.2</ele>
        <time>2026-05-23T05:43:34Z</time>
      </trkpt>
      <trkpt lat="43.47529" lon="2.55278">
        <ele>322.6</ele>
        <time>2026-05-23T05:43:39Z</time>
      </trkpt>
      <trkpt lat="43.4753" lon="2.55268">
        <ele>321.9</ele>
        <time>2026-05-23T05:43:44Z</time>
      </trkpt>
      <trkpt lat="43.4753" lon="2.55254">
        <ele>321.2</ele>
        <time>2026-05-23T05:43:49Z</time>
      </trkpt>
      <trkpt lat="43.47532" lon="2.55242">
        <ele>320.3</ele>
        <time>2026-05-23T05:43:54Z</time>
      </trkpt>
      <trkpt lat="43.47534" lon="2.55233">
        <ele>319.6</ele>
        <time>2026-05-23T05:43:59Z</time>
      </trkpt>
      <trkpt lat="43.47534" lon="2.55225">
        <ele>319.3</ele>
        <time>2026-05-23T05:44:04Z</time>
      </trkpt>
      <trkpt lat="43.47535" lon="2.55216">
        <ele>318.8</ele>
        <time>2026-05-23T05:44:09Z</time>
      </trkpt>
      <trkpt lat="43.47535" lon="2.552">
        <ele>318.2</ele>
        <time>2026-05-23T05:44:14Z</time>
      </trkpt>
      <trkpt lat="43.47535" lon="2.55188">
        <ele>317.8</ele>
        <time>2026-05-23T05:44:19Z</time>
      </trkpt>
      <trkpt lat="43.47536" lon="2.5518">
        <ele>317.3</ele>
        <time>2026-05-23T05:44:24Z</time>
      </trkpt>
      <trkpt lat="43.47538" lon="2.55172">
        <ele>316.7</ele>
        <time>2026-05-23T05:44:29Z</time>
      </trkpt>
      <trkpt lat="43.47539" lon="2.55162">
        <ele>316.5</ele>
        <time>2026-05-23T05:44:34Z</time>
      </trkpt>
      <trkpt lat="43.47539" lon="2.55153">
        <ele>316.8</ele>
        <time>2026-05-23T05:44:39Z</time>
      </trkpt>
      <trkpt lat="43.4754" lon="2.55143">
        <ele>316.9</ele>
        <time>2026-05-23T05:44:44Z</time>
      </trkpt>
      <trkpt lat="43.4754" lon="2.55132">
        <ele>317.2</ele>
        <time>2026-05-23T05:44:49Z</time>
      </trkpt>
      <trkpt lat="43.47541" lon="2.55124">
        <ele>317.4</ele>
        <time>2026-05-23T05:44:54Z</time>
      </trkpt>
      <trkpt lat="43.47542" lon="2.55117">
        <ele>317.5</ele>
        <time>2026-05-23T05:44:59Z</time>
      </trkpt>
      <trkpt lat="43.47542" lon="2.55113">
        <ele>317.6</ele>
        <time>2026-05-23T05:45:04Z</time>
      </trkpt>
      <trkpt lat="43.47542" lon="2.55111">
        <ele>317.6</ele>
        <time>2026-05-23T05:45:09Z</time>
      </trkpt>
      <trkpt lat="43.47542" lon="2.55111">
        <ele>317.6</ele>
        <time>2026-05-23T05:45:14Z</time>
      </trkpt>
      <trkpt lat="43.47542" lon="2.55111">
        <ele>317.6</ele>
        <time>2026-05-23T05:45:19Z</time>
      </trkpt>
      <trkpt lat="43.47542" lon="2.55111">
        <ele>317.6</ele>
        <time>2026-05-23T05:45:24Z</time>
      </trkpt>
      <trkpt lat="43.47541" lon="2.55099">
        <ele>318.1</ele>
        <time>2026-05-23T05:45:29Z</time>
      </trkpt>
      <trkpt lat="43.4754" lon="2.55089">
        <ele>318.5</ele>
        <time>2026-05-23T05:45:34Z</time>
      </trkpt>
      <trkpt lat="43.47538" lon="2.55076">
        <ele>319.1</ele>
        <time>2026-05-23T05:45:39Z</time>
      </trkpt>
      <trkpt lat="43.47536" lon="2.55066">
        <ele>319.5</ele>
        <time>2026-05-23T05:45:44Z</time>
      </trkpt>
      <trkpt lat="43.47535" lon="2.55059">
        <ele>319.8</ele>
        <time>2026-05-23T05:45:49Z</time>
      </trkpt>
      <trkpt lat="43.47536" lon="2.55052">
        <ele>320</ele>
        <time>2026-05-23T05:45:54Z</time>
      </trkpt>
      <trkpt lat="43.47537" lon="2.55048">
        <ele>320.1</ele>
        <time>2026-05-23T05:45:59Z</time>
      </trkpt>
      <trkpt lat="43.47538" lon="2.55046">
        <ele>320.1</ele>
        <time>2026-05-23T05:46:04Z</time>
      </trkpt>
      <trkpt lat="43.47536" lon="2.55042">
        <ele>320.3</ele>
        <time>2026-05-23T05:46:09Z</time>
      </trkpt>
      <trkpt lat="43.47536" lon="2.55036">
        <ele>320.5</ele>
        <time>2026-05-23T05:46:14Z</time>
      </trkpt>
      <trkpt lat="43.47534" lon="2.55031">
        <ele>320.8</ele>
        <time>2026-05-23T05:46:19Z</time>
      </trkpt>
      <trkpt lat="43.47532" lon="2.55028">
        <ele>321</ele>
        <time>2026-05-23T05:46:24Z</time>
      </trkpt>
      <trkpt lat="43.47532" lon="2.55028">
        <ele>321</ele>
        <time>2026-05-23T05:46:29Z</time>
      </trkpt>
      <trkpt lat="43.47532" lon="2.55028">
        <ele>321</ele>
        <time>2026-05-23T05:46:34Z</time>
      </trkpt>
      <trkpt lat="43.4753" lon="2.5502">
        <ele>321.3</ele>
        <time>2026-05-23T05:46:39Z</time>
      </trkpt>
      <trkpt lat="43.47529" lon="2.55011">
        <ele>321.6</ele>
        <time>2026-05-23T05:46:44Z</time>
      </trkpt>
      <trkpt lat="43.47526" lon="2.55003">
        <ele>322</ele>
        <time>2026-05-23T05:46:49Z</time>
      </trkpt>
      <trkpt lat="43.47525" lon="2.54995">
        <ele>321.9</ele>
        <time>2026-05-23T05:46:54Z</time>
      </trkpt>
      <trkpt lat="43.47524" lon="2.5499">
        <ele>321.8</ele>
        <time>2026-05-23T05:46:59Z</time>
      </trkpt>
      <trkpt lat="43.47524" lon="2.5499">
        <ele>321.8</ele>
        <time>2026-05-23T05:47:04Z</time>
      </trkpt>
      <trkpt lat="43.47524" lon="2.54989">
        <ele>321.7</ele>
        <time>2026-05-23T05:47:09Z</time>
      </trkpt>
      <trkpt lat="43.47521" lon="2.5498">
        <ele>321.6</ele>
        <time>2026-05-23T05:47:14Z</time>
      </trkpt>
      <trkpt lat="43.47516" lon="2.5497">
        <ele>321.6</ele>
        <time>2026-05-23T05:47:19Z</time>
      </trkpt>
      <trkpt lat="43.47513" lon="2.5496">
        <ele>321.5</ele>
        <time>2026-05-23T05:47:24Z</time>
      </trkpt>
      <trkpt lat="43.47511" lon="2.54953">
        <ele>321.5</ele>
        <time>2026-05-23T05:47:29Z</time>
      </trkpt>
      <trkpt lat="43.47508" lon="2.54945">
        <ele>321.6</ele>
        <time>2026-05-23T05:47:34Z</time>
      </trkpt>
      <trkpt lat="43.47503" lon="2.54935">
        <ele>321.9</ele>
        <time>2026-05-23T05:47:39Z</time>
      </trkpt>
      <trkpt lat="43.47498" lon="2.54927">
        <ele>322.2</ele>
        <time>2026-05-23T05:47:44Z</time>
      </trkpt>
      <trkpt lat="43.47494" lon="2.54919">
        <ele>322.2</ele>
        <time>2026-05-23T05:47:49Z</time>
      </trkpt>
      <trkpt lat="43.4749" lon="2.5491">
        <ele>321.4</ele>
        <time>2026-05-23T05:47:54Z</time>
      </trkpt>
      <trkpt lat="43.47484" lon="2.54902">
        <ele>320.5</ele>
        <time>2026-05-23T05:47:59Z</time>
      </trkpt>
      <trkpt lat="43.47479" lon="2.54896">
        <ele>320</ele>
        <time>2026-05-23T05:48:04Z</time>
      </trkpt>
      <trkpt lat="43.47474" lon="2.54887">
        <ele>319</ele>
        <time>2026-05-23T05:48:09Z</time>
      </trkpt>
      <trkpt lat="43.4747" lon="2.54877">
        <ele>318</ele>
        <time>2026-05-23T05:48:14Z</time>
      </trkpt>
      <trkpt lat="43.47464" lon="2.54868">
        <ele>317.2</ele>
        <time>2026-05-23T05:48:19Z</time>
      </trkpt>
      <trkpt lat="43.4746" lon="2.54859">
        <ele>316.3</ele>
        <time>2026-05-23T05:48:24Z</time>
      </trkpt>
      <trkpt lat="43.47456" lon="2.54855">
        <ele>316.1</ele>
        <time>2026-05-23T05:48:29Z</time>
      </trkpt>
      <trkpt lat="43.47456" lon="2.54855">
        <ele>316.1</ele>
        <time>2026-05-23T05:48:34Z</time>
      </trkpt>
      <trkpt lat="43.47456" lon="2.54855">
        <ele>316.1</ele>
        <time>2026-05-23T05:48:39Z</time>
      </trkpt>
      <trkpt lat="43.47456" lon="2.54855">
        <ele>316.1</ele>
        <time>2026-05-23T05:48:44Z</time>
      </trkpt>
      <trkpt lat="43.47452" lon="2.5485">
        <ele>315.7</ele>
        <time>2026-05-23T05:48:49Z</time>
      </trkpt>
      <trkpt lat="43.47453" lon="2.54847">
        <ele>315.3</ele>
        <time>2026-05-23T05:48:54Z</time>
      </trkpt>
      <trkpt lat="43.47448" lon="2.54841">
        <ele>315</ele>
        <time>2026-05-23T05:48:59Z</time>
      </trkpt>
      <trkpt lat="43.47446" lon="2.54836">
        <ele>314.5</ele>
        <time>2026-05-23T05:49:04Z</time>
      </trkpt>
      <trkpt lat="43.47445" lon="2.54832">
        <ele>314.1</ele>
        <time>2026-05-23T05:49:09Z</time>
      </trkpt>
      <trkpt lat="43.47436" lon="2.54823">
        <ele>313.6</ele>
        <time>2026-05-23T05:49:14Z</time>
      </trkpt>
      <trkpt lat="43.47429" lon="2.54819">
        <ele>313.5</ele>
        <time>2026-05-23T05:49:19Z</time>
      </trkpt>
      <trkpt lat="43.47423" lon="2.54815">
        <ele>313.3</ele>
        <time>2026-05-23T05:49:24Z</time>
      </trkpt>
      <trkpt lat="43.47419" lon="2.54809">
        <ele>312.7</ele>
        <time>2026-05-23T05:49:29Z</time>
      </trkpt>
      <trkpt lat="43.47412" lon="2.54803">
        <ele>311.9</ele>
        <time>2026-05-23T05:49:34Z</time>
      </trkpt>
      <trkpt lat="43.47407" lon="2.54797">
        <ele>311</ele>
        <time>2026-05-23T05:49:39Z</time>
      </trkpt>
      <trkpt lat="43.474" lon="2.54792">
        <ele>310.2</ele>
        <time>2026-05-23T05:49:44Z</time>
      </trkpt>
      <trkpt lat="43.47394" lon="2.54788">
        <ele>309.6</ele>
        <time>2026-05-23T05:49:49Z</time>
      </trkpt>
      <trkpt lat="43.47387" lon="2.54784">
        <ele>309.1</ele>
        <time>2026-05-23T05:49:54Z</time>
      </trkpt>
      <trkpt lat="43.4738" lon="2.5478">
        <ele>308.5</ele>
        <time>2026-05-23T05:49:59Z</time>
      </trkpt>
      <trkpt lat="43.47373" lon="2.54776">
        <ele>307.9</ele>
        <time>2026-05-23T05:50:04Z</time>
      </trkpt>
      <trkpt lat="43.47367" lon="2.54773">
        <ele>307.5</ele>
        <time>2026-05-23T05:50:09Z</time>
      </trkpt>
      <trkpt lat="43.4736" lon="2.54769">
        <ele>307</ele>
        <time>2026-05-23T05:50:14Z</time>
      </trkpt>
      <trkpt lat="43.47353" lon="2.54766">
        <ele>306.7</ele>
        <time>2026-05-23T05:50:19Z</time>
      </trkpt>
      <trkpt lat="43.47346" lon="2.54763">
        <ele>306.3</ele>
        <time>2026-05-23T05:50:24Z</time>
      </trkpt>
      <trkpt lat="43.47339" lon="2.54759">
        <ele>305.9</ele>
        <time>2026-05-23T05:50:29Z</time>
      </trkpt>
      <trkpt lat="43.47333" lon="2.54755">
        <ele>305.5</ele>
        <time>2026-05-23T05:50:34Z</time>
      </trkpt>
      <trkpt lat="43.47328" lon="2.54751">
        <ele>305.2</ele>
        <time>2026-05-23T05:50:39Z</time>
      </trkpt>
      <trkpt lat="43.47322" lon="2.54747">
        <ele>305.2</ele>
        <time>2026-05-23T05:50:44Z</time>
      </trkpt>
      <trkpt lat="43.47316" lon="2.54744">
        <ele>305.3</ele>
        <time>2026-05-23T05:50:49Z</time>
      </trkpt>
      <trkpt lat="43.47309" lon="2.54741">
        <ele>305.4</ele>
        <time>2026-05-23T05:50:54Z</time>
      </trkpt>
      <trkpt lat="43.47304" lon="2.5474">
        <ele>305.5</ele>
        <time>2026-05-23T05:50:59Z</time>
      </trkpt>
      <trkpt lat="43.47303" lon="2.54741">
        <ele>305.6</ele>
        <time>2026-05-23T05:51:04Z</time>
      </trkpt>
      <trkpt lat="43.47303" lon="2.54742">
        <ele>305.6</ele>
        <time>2026-05-23T05:51:09Z</time>
      </trkpt>
      <trkpt lat="43.47303" lon="2.54742">
        <ele>305.6</ele>
        <time>2026-05-23T05:51:14Z</time>
      </trkpt>
      <trkpt lat="43.47303" lon="2.54742">
        <ele>305.6</ele>
        <time>2026-05-23T05:51:19Z</time>
      </trkpt>
      <trkpt lat="43.47303" lon="2.54742">
        <ele>305.6</ele>
        <time>2026-05-23T05:51:24Z</time>
      </trkpt>
      <trkpt lat="43.47303" lon="2.54742">
        <ele>305.6</ele>
        <time>2026-05-23T05:51:29Z</time>
      </trkpt>
      <trkpt lat="43.47292" lon="2.54738">
        <ele>305.8</ele>
        <time>2026-05-23T05:51:34Z</time>
      </trkpt>
      <trkpt lat="43.47288" lon="2.54732">
        <ele>305.9</ele>
        <time>2026-05-23T05:51:39Z</time>
      </trkpt>
      <trkpt lat="43.47282" lon="2.54726">
        <ele>306</ele>
        <time>2026-05-23T05:51:44Z</time>
      </trkpt>
      <trkpt lat="43.47278" lon="2.54722">
        <ele>306.1</ele>
        <time>2026-05-23T05:51:49Z</time>
      </trkpt>
      <trkpt lat="43.47273" lon="2.54718">
        <ele>306.2</ele>
        <time>2026-05-23T05:51:54Z</time>
      </trkpt>
      <trkpt lat="43.47267" lon="2.54717">
        <ele>306.4</ele>
        <time>2026-05-23T05:51:59Z</time>
      </trkpt>
      <trkpt lat="43.4726" lon="2.54713">
        <ele>306.7</ele>
        <time>2026-05-23T05:52:04Z</time>
      </trkpt>
      <trkpt lat="43.47255" lon="2.54709">
        <ele>306.8</ele>
        <time>2026-05-23T05:52:09Z</time>
      </trkpt>
      <trkpt lat="43.47251" lon="2.54706">
        <ele>307</ele>
        <time>2026-05-23T05:52:14Z</time>
      </trkpt>
      <trkpt lat="43.47248" lon="2.54703">
        <ele>307.1</ele>
        <time>2026-05-23T05:52:19Z</time>
      </trkpt>
      <trkpt lat="43.47246" lon="2.54701">
        <ele>307.3</ele>
        <time>2026-05-23T05:52:24Z</time>
      </trkpt>
      <trkpt lat="43.47246" lon="2.54701">
        <ele>307.3</ele>
        <time>2026-05-23T05:52:29Z</time>
      </trkpt>
      <trkpt lat="43.47246" lon="2.54701">
        <ele>307.3</ele>
        <time>2026-05-23T05:52:34Z</time>
      </trkpt>
      <trkpt lat="43.47239" lon="2.54701">
        <ele>307.7</ele>
        <time>2026-05-23T05:52:39Z</time>
      </trkpt>
      <trkpt lat="43.47233" lon="2.54697">
        <ele>308</ele>
        <time>2026-05-23T05:52:44Z</time>
      </trkpt>
      <trkpt lat="43.47227" lon="2.54692">
        <ele>308.4</ele>
        <time>2026-05-23T05:52:49Z</time>
      </trkpt>
      <trkpt lat="43.47221" lon="2.54687">
        <ele>308.6</ele>
        <time>2026-05-23T05:52:54Z</time>
      </trkpt>
      <trkpt lat="43.47215" lon="2.54682">
        <ele>308.9</ele>
        <time>2026-05-23T05:52:59Z</time>
      </trkpt>
      <trkpt lat="43.47209" lon="2.54678">
        <ele>309.2</ele>
        <time>2026-05-23T05:53:04Z</time>
      </trkpt>
      <trkpt lat="43.47204" lon="2.54673">
        <ele>309.3</ele>
        <time>2026-05-23T05:53:09Z</time>
      </trkpt>
      <trkpt lat="43.47198" lon="2.54666">
        <ele>309.5</ele>
        <time>2026-05-23T05:53:14Z</time>
      </trkpt>
      <trkpt lat="43.47192" lon="2.54662">
        <ele>309.5</ele>
        <time>2026-05-23T05:53:19Z</time>
      </trkpt>
      <trkpt lat="43.47186" lon="2.54655">
        <ele>309.3</ele>
        <time>2026-05-23T05:53:24Z</time>
      </trkpt>
      <trkpt lat="43.47181" lon="2.5465">
        <ele>309.2</ele>
        <time>2026-05-23T05:53:29Z</time>
      </trkpt>
      <trkpt lat="43.47176" lon="2.54643">
        <ele>308.9</ele>
        <time>2026-05-23T05:53:34Z</time>
      </trkpt>
      <trkpt lat="43.4717" lon="2.54636">
        <ele>308.7</ele>
        <time>2026-05-23T05:53:39Z</time>
      </trkpt>
      <trkpt lat="43.47166" lon="2.54629">
        <ele>308.3</ele>
        <time>2026-05-23T05:53:44Z</time>
      </trkpt>
      <trkpt lat="43.47162" lon="2.54622">
        <ele>307.9</ele>
        <time>2026-05-23T05:53:49Z</time>
      </trkpt>
      <trkpt lat="43.47157" lon="2.54614">
        <ele>307.4</ele>
        <time>2026-05-23T05:53:54Z</time>
      </trkpt>
      <trkpt lat="43.47153" lon="2.54606">
        <ele>306.9</ele>
        <time>2026-05-23T05:53:59Z</time>
      </trkpt>
      <trkpt lat="43.47149" lon="2.54599">
        <ele>306.5</ele>
        <time>2026-05-23T05:54:04Z</time>
      </trkpt>
      <trkpt lat="43.47143" lon="2.5459">
        <ele>306</ele>
        <time>2026-05-23T05:54:09Z</time>
      </trkpt>
      <trkpt lat="43.47139" lon="2.5458">
        <ele>305.7</ele>
        <time>2026-05-23T05:54:14Z</time>
      </trkpt>
      <trkpt lat="43.47135" lon="2.54572">
        <ele>305.8</ele>
        <time>2026-05-23T05:54:19Z</time>
      </trkpt>
      <trkpt lat="43.47131" lon="2.54564">
        <ele>306</ele>
        <time>2026-05-23T05:54:24Z</time>
      </trkpt>
      <trkpt lat="43.47127" lon="2.54557">
        <ele>306.1</ele>
        <time>2026-05-23T05:54:29Z</time>
      </trkpt>
      <trkpt lat="43.47124" lon="2.5455">
        <ele>306.2</ele>
        <time>2026-05-23T05:54:34Z</time>
      </trkpt>
      <trkpt lat="43.47121" lon="2.5454">
        <ele>306.3</ele>
        <time>2026-05-23T05:54:39Z</time>
      </trkpt>
      <trkpt lat="43.47119" lon="2.5453">
        <ele>306.4</ele>
        <time>2026-05-23T05:54:44Z</time>
      </trkpt>
      <trkpt lat="43.47117" lon="2.54518">
        <ele>306.5</ele>
        <time>2026-05-23T05:54:49Z</time>
      </trkpt>
      <trkpt lat="43.47113" lon="2.5451">
        <ele>306.6</ele>
        <time>2026-05-23T05:54:54Z</time>
      </trkpt>
      <trkpt lat="43.47107" lon="2.54502">
        <ele>306.7</ele>
        <time>2026-05-23T05:54:59Z</time>
      </trkpt>
      <trkpt lat="43.47102" lon="2.54496">
        <ele>306.9</ele>
        <time>2026-05-23T05:55:04Z</time>
      </trkpt>
      <trkpt lat="43.47098" lon="2.54491">
        <ele>307.1</ele>
        <time>2026-05-23T05:55:09Z</time>
      </trkpt>
      <trkpt lat="43.47095" lon="2.54488">
        <ele>307.3</ele>
        <time>2026-05-23T05:55:14Z</time>
      </trkpt>
      <trkpt lat="43.47089" lon="2.5449">
        <ele>307.3</ele>
        <time>2026-05-23T05:55:19Z</time>
      </trkpt>
      <trkpt lat="43.47084" lon="2.54489">
        <ele>307.4</ele>
        <time>2026-05-23T05:55:24Z</time>
      </trkpt>
      <trkpt lat="43.47078" lon="2.54486">
        <ele>307.5</ele>
        <time>2026-05-23T05:55:29Z</time>
      </trkpt>
      <trkpt lat="43.47074" lon="2.54483">
        <ele>307.5</ele>
        <time>2026-05-23T05:55:34Z</time>
      </trkpt>
      <trkpt lat="43.47067" lon="2.5448">
        <ele>307.6</ele>
        <time>2026-05-23T05:55:39Z</time>
      </trkpt>
      <trkpt lat="43.47061" lon="2.54478">
        <ele>307.6</ele>
        <time>2026-05-23T05:55:44Z</time>
      </trkpt>
      <trkpt lat="43.47055" lon="2.54475">
        <ele>307.6</ele>
        <time>2026-05-23T05:55:49Z</time>
      </trkpt>
      <trkpt lat="43.47049" lon="2.54474">
        <ele>307.6</ele>
        <time>2026-05-23T05:55:54Z</time>
      </trkpt>
      <trkpt lat="43.47042" lon="2.54471">
        <ele>307.5</ele>
        <time>2026-05-23T05:55:59Z</time>
      </trkpt>
      <trkpt lat="43.47037" lon="2.54468">
        <ele>307.5</ele>
        <time>2026-05-23T05:56:04Z</time>
      </trkpt>
      <trkpt lat="43.47034" lon="2.54464">
        <ele>307.5</ele>
        <time>2026-05-23T05:56:09Z</time>
      </trkpt>
      <trkpt lat="43.47033" lon="2.54462">
        <ele>307.5</ele>
        <time>2026-05-23T05:56:14Z</time>
      </trkpt>
      <trkpt lat="43.47033" lon="2.54462">
        <ele>307.5</ele>
        <time>2026-05-23T05:56:19Z</time>
      </trkpt>
      <trkpt lat="43.47033" lon="2.54462">
        <ele>307.5</ele>
        <time>2026-05-23T05:56:24Z</time>
      </trkpt>
      <trkpt lat="43.47033" lon="2.54462">
        <ele>307.5</ele>
        <time>2026-05-23T05:56:29Z</time>
      </trkpt>
      <trkpt lat="43.47033" lon="2.54462">
        <ele>307.5</ele>
        <time>2026-05-23T05:56:34Z</time>
      </trkpt>
      <trkpt lat="43.47033" lon="2.54462">
        <ele>307.5</ele>
        <time>2026-05-23T05:56:39Z</time>
      </trkpt>
      <trkpt lat="43.47033" lon="2.54462">
        <ele>307.5</ele>
        <time>2026-05-23T05:56:44Z</time>
      </trkpt>
      <trkpt lat="43.47033" lon="2.54462">
        <ele>307.5</ele>
        <time>2026-05-23T05:56:49Z</time>
      </trkpt>
      <trkpt lat="43.47033" lon="2.54462">
        <ele>307.5</ele>
        <time>2026-05-23T05:56:54Z</time>
      </trkpt>
      <trkpt lat="43.47033" lon="2.54462">
        <ele>307.5</ele>
        <time>2026-05-23T05:56:59Z</time>
      </trkpt>
      <trkpt lat="43.47033" lon="2.54462">
        <ele>307.5</ele>
        <time>2026-05-23T05:57:04Z</time>
      </trkpt>
      <trkpt lat="43.47033" lon="2.54462">
        <ele>307.5</ele>
        <time>2026-05-23T05:57:09Z</time>
      </trkpt>
      <trkpt lat="43.47033" lon="2.54462">
        <ele>307.5</ele>
        <time>2026-05-23T05:57:14Z</time>
      </trkpt>
      <trkpt lat="43.47033" lon="2.54462">
        <ele>307.5</ele>
        <time>2026-05-23T05:57:19Z</time>
      </trkpt>
      <trkpt lat="43.47033" lon="2.54462">
        <ele>307.5</ele>
        <time>2026-05-23T05:57:24Z</time>
      </trkpt>
      <trkpt lat="43.47033" lon="2.54462">
        <ele>307.5</ele>
        <time>2026-05-23T05:57:29Z</time>
      </trkpt>
      <trkpt lat="43.47033" lon="2.54462">
        <ele>307.5</ele>
        <time>2026-05-23T05:57:34Z</time>
      </trkpt>
      <trkpt lat="43.47033" lon="2.54462">
        <ele>307.5</ele>
        <time>2026-05-23T05:57:39Z</time>
      </trkpt>
      <trkpt lat="43.47033" lon="2.54462">
        <ele>307.5</ele>
        <time>2026-05-23T05:57:44Z</time>
      </trkpt>
      <trkpt lat="43.47033" lon="2.54462">
        <ele>307.5</ele>
        <time>2026-05-23T05:57:49Z</time>
      </trkpt>
      <trkpt lat="43.47033" lon="2.54462">
        <ele>307.5</ele>
        <time>2026-05-23T05:57:54Z</time>
      </trkpt>
      <trkpt lat="43.47033" lon="2.54462">
        <ele>307.5</ele>
        <time>2026-05-23T05:57:59Z</time>
      </trkpt>
      <trkpt lat="43.47033" lon="2.54462">
        <ele>307.5</ele>
        <time>2026-05-23T05:58:04Z</time>
      </trkpt>
      <trkpt lat="43.47033" lon="2.54462">
        <ele>307.5</ele>
        <time>2026-05-23T05:58:09Z</time>
      </trkpt>
      <trkpt lat="43.47033" lon="2.54462">
        <ele>307.5</ele>
        <time>2026-05-23T05:58:14Z</time>
      </trkpt>
      <trkpt lat="43.47033" lon="2.54462">
        <ele>307.5</ele>
        <time>2026-05-23T05:58:19Z</time>
      </trkpt>
      <trkpt lat="43.47033" lon="2.54462">
        <ele>307.5</ele>
        <time>2026-05-23T05:58:24Z</time>
      </trkpt>
      <trkpt lat="43.47033" lon="2.54462">
        <ele>307.5</ele>
        <time>2026-05-23T05:58:29Z</time>
      </trkpt>
      <trkpt lat="43.47033" lon="2.54462">
        <ele>307.5</ele>
        <time>2026-05-23T05:58:34Z</time>
      </trkpt>
      <trkpt lat="43.47033" lon="2.54462">
        <ele>307.5</ele>
        <time>2026-05-23T05:58:39Z</time>
      </trkpt>
      <trkpt lat="43.47033" lon="2.54462">
        <ele>307.5</ele>
        <time>2026-05-23T05:58:44Z</time>
      </trkpt>
      <trkpt lat="43.47033" lon="2.54462">
        <ele>307.5</ele>
        <time>2026-05-23T05:58:49Z</time>
      </trkpt>
      <trkpt lat="43.47033" lon="2.54462">
        <ele>307.5</ele>
        <time>2026-05-23T05:58:54Z</time>
      </trkpt>
      <trkpt lat="43.47033" lon="2.54462">
        <ele>307.5</ele>
        <time>2026-05-23T05:58:59Z</time>
      </trkpt>
      <trkpt lat="43.47033" lon="2.54462">
        <ele>307.5</ele>
        <time>2026-05-23T05:59:04Z</time>
      </trkpt>
      <trkpt lat="43.47033" lon="2.54462">
        <ele>307.5</ele>
        <time>2026-05-23T05:59:09Z</time>
      </trkpt>
      <trkpt lat="43.47033" lon="2.54462">
        <ele>307.5</ele>
        <time>2026-05-23T05:59:14Z</time>
      </trkpt>
      <trkpt lat="43.47033" lon="2.54462">
        <ele>307.5</ele>
        <time>2026-05-23T05:59:19Z</time>
      </trkpt>
      <trkpt lat="43.47033" lon="2.54462">
        <ele>307.5</ele>
        <time>2026-05-23T05:59:24Z</time>
      </trkpt>
      <trkpt lat="43.47033" lon="2.54462">
        <ele>307.5</ele>
        <time>2026-05-23T05:59:29Z</time>
      </trkpt>
      <trkpt lat="43.47033" lon="2.54462">
        <ele>307.5</ele>
        <time>2026-05-23T05:59:34Z</time>
      </trkpt>
      <trkpt lat="43.47033" lon="2.54462">
        <ele>307.5</ele>
        <time>2026-05-23T05:59:39Z</time>
      </trkpt>
      <trkpt lat="43.47033" lon="2.54462">
        <ele>307.5</ele>
        <time>2026-05-23T05:59:44Z</time>
      </trkpt>
      <trkpt lat="43.47033" lon="2.54462">
        <ele>307.5</ele>
        <time>2026-05-23T05:59:49Z</time>
      </trkpt>
      <trkpt lat="43.47033" lon="2.54462">
        <ele>307.5</ele>
        <time>2026-05-23T05:59:54Z</time>
      </trkpt>
      <trkpt lat="43.47033" lon="2.54462">
        <ele>307.5</ele>
        <time>2026-05-23T05:59:59Z</time>
      </trkpt>
      <trkpt lat="43.47033" lon="2.54462">
        <ele>307.5</ele>
        <time>2026-05-23T06:00:04Z</time>
      </trkpt>
      <trkpt lat="43.47033" lon="2.54462">
        <ele>307.5</ele>
        <time>2026-05-23T06:00:09Z</time>
      </trkpt>
      <trkpt lat="43.47033" lon="2.54462">
        <ele>307.5</ele>
        <time>2026-05-23T06:00:14Z</time>
      </trkpt>
      <trkpt lat="43.47033" lon="2.54462">
        <ele>307.5</ele>
        <time>2026-05-23T06:00:19Z</time>
      </trkpt>
      <trkpt lat="43.47033" lon="2.54462">
        <ele>307.5</ele>
        <time>2026-05-23T06:00:24Z</time>
      </trkpt>
      <trkpt lat="43.47033" lon="2.54462">
        <ele>307.5</ele>
        <time>2026-05-23T06:00:29Z</time>
      </trkpt>
      <trkpt lat="43.47033" lon="2.54462">
        <ele>307.5</ele>
        <time>2026-05-23T06:00:34Z</time>
      </trkpt>
      <trkpt lat="43.47033" lon="2.54462">
        <ele>307.5</ele>
        <time>2026-05-23T06:00:39Z</time>
      </trkpt>
      <trkpt lat="43.47033" lon="2.54462">
        <ele>307.5</ele>
        <time>2026-05-23T06:00:44Z</time>
      </trkpt>
      <trkpt lat="43.47033" lon="2.54462">
        <ele>307.5</ele>
        <time>2026-05-23T06:00:49Z</time>
      </trkpt>
      <trkpt lat="43.47033" lon="2.54462">
        <ele>307.5</ele>
        <time>2026-05-23T06:00:54Z</time>
      </trkpt>
      <trkpt lat="43.47033" lon="2.54462">
        <ele>307.5</ele>
        <time>2026-05-23T06:00:59Z</time>
      </trkpt>
      <trkpt lat="43.47033" lon="2.54462">
        <ele>307.5</ele>
        <time>2026-05-23T06:01:04Z</time>
      </trkpt>
      <trkpt lat="43.47033" lon="2.54462">
        <ele>307.5</ele>
        <time>2026-05-23T06:01:09Z</time>
      </trkpt>
      <trkpt lat="43.47033" lon="2.54462">
        <ele>307.5</ele>
        <time>2026-05-23T06:01:14Z</time>
      </trkpt>
      <trkpt lat="43.47033" lon="2.54462">
        <ele>307.5</ele>
        <time>2026-05-23T06:01:19Z</time>
      </trkpt>
      <trkpt lat="43.47033" lon="2.54462">
        <ele>307.5</ele>
        <time>2026-05-23T06:01:24Z</time>
      </trkpt>
      <trkpt lat="43.47033" lon="2.54462">
        <ele>307.5</ele>
        <time>2026-05-23T06:01:29Z</time>
      </trkpt>
      <trkpt lat="43.47033" lon="2.54462">
        <ele>307.5</ele>
        <time>2026-05-23T06:01:34Z</time>
      </trkpt>
      <trkpt lat="43.47033" lon="2.54462">
        <ele>307.5</ele>
        <time>2026-05-23T06:01:39Z</time>
      </trkpt>
      <trkpt lat="43.47033" lon="2.54462">
        <ele>307.5</ele>
        <time>2026-05-23T06:01:44Z</time>
      </trkpt>
      <trkpt lat="43.47033" lon="2.54462">
        <ele>307.5</ele>
        <time>2026-05-23T06:01:49Z</time>
      </trkpt>
      <trkpt lat="43.47033" lon="2.54462">
        <ele>307.5</ele>
        <time>2026-05-23T06:01:54Z</time>
      </trkpt>
      <trkpt lat="43.47031" lon="2.54465">
        <ele>307.5</ele>
        <time>2026-05-23T06:01:59Z</time>
      </trkpt>
      <trkpt lat="43.47025" lon="2.54468">
        <ele>307.3</ele>
        <time>2026-05-23T06:02:04Z</time>
      </trkpt>
      <trkpt lat="43.47018" lon="2.54466">
        <ele>307.3</ele>
        <time>2026-05-23T06:02:09Z</time>
      </trkpt>
      <trkpt lat="43.47012" lon="2.54465">
        <ele>307.2</ele>
        <time>2026-05-23T06:02:14Z</time>
      </trkpt>
      <trkpt lat="43.47007" lon="2.54466">
        <ele>307.1</ele>
        <time>2026-05-23T06:02:19Z</time>
      </trkpt>
      <trkpt lat="43.47" lon="2.54467">
        <ele>307</ele>
        <time>2026-05-23T06:02:24Z</time>
      </trkpt>
      <trkpt lat="43.46992" lon="2.54466">
        <ele>307</ele>
        <time>2026-05-23T06:02:29Z</time>
      </trkpt>
      <trkpt lat="43.46986" lon="2.54466">
        <ele>307</ele>
        <time>2026-05-23T06:02:34Z</time>
      </trkpt>
      <trkpt lat="43.46978" lon="2.54465">
        <ele>307</ele>
        <time>2026-05-23T06:02:39Z</time>
      </trkpt>
      <trkpt lat="43.46972" lon="2.54464">
        <ele>307</ele>
        <time>2026-05-23T06:02:44Z</time>
      </trkpt>
      <trkpt lat="43.46966" lon="2.54462">
        <ele>307</ele>
        <time>2026-05-23T06:02:49Z</time>
      </trkpt>
      <trkpt lat="43.46959" lon="2.54461">
        <ele>307</ele>
        <time>2026-05-23T06:02:54Z</time>
      </trkpt>
      <trkpt lat="43.46952" lon="2.5446">
        <ele>307</ele>
        <time>2026-05-23T06:02:59Z</time>
      </trkpt>
      <trkpt lat="43.46945" lon="2.54459">
        <ele>307</ele>
        <time>2026-05-23T06:03:04Z</time>
      </trkpt>
      <trkpt lat="43.46939" lon="2.54458">
        <ele>307</ele>
        <time>2026-05-23T06:03:09Z</time>
      </trkpt>
      <trkpt lat="43.46932" lon="2.54457">
        <ele>307</ele>
        <time>2026-05-23T06:03:14Z</time>
      </trkpt>
      <trkpt lat="43.46925" lon="2.54456">
        <ele>306.9</ele>
        <time>2026-05-23T06:03:19Z</time>
      </trkpt>
      <trkpt lat="43.46916" lon="2.54453">
        <ele>306.9</ele>
        <time>2026-05-23T06:03:24Z</time>
      </trkpt>
      <trkpt lat="43.4691" lon="2.54452">
        <ele>307</ele>
        <time>2026-05-23T06:03:29Z</time>
      </trkpt>
      <trkpt lat="43.46904" lon="2.5445">
        <ele>307.1</ele>
        <time>2026-05-23T06:03:34Z</time>
      </trkpt>
      <trkpt lat="43.46897" lon="2.54449">
        <ele>307.3</ele>
        <time>2026-05-23T06:03:39Z</time>
      </trkpt>
      <trkpt lat="43.46894" lon="2.54447">
        <ele>307.3</ele>
        <time>2026-05-23T06:03:44Z</time>
      </trkpt>
      <trkpt lat="43.46893" lon="2.54448">
        <ele>307.4</ele>
        <time>2026-05-23T06:03:49Z</time>
      </trkpt>
      <trkpt lat="43.46893" lon="2.54448">
        <ele>307.4</ele>
        <time>2026-05-23T06:03:54Z</time>
      </trkpt>
      <trkpt lat="43.46893" lon="2.54448">
        <ele>307.4</ele>
        <time>2026-05-23T06:03:59Z</time>
      </trkpt>
      <trkpt lat="43.46893" lon="2.54448">
        <ele>307.4</ele>
        <time>2026-05-23T06:04:04Z</time>
      </trkpt>
      <trkpt lat="43.46893" lon="2.54448">
        <ele>307.4</ele>
        <time>2026-05-23T06:04:09Z</time>
      </trkpt>
      <trkpt lat="43.46893" lon="2.54448">
        <ele>307.4</ele>
        <time>2026-05-23T06:04:14Z</time>
      </trkpt>
      <trkpt lat="43.46893" lon="2.54448">
        <ele>307.4</ele>
        <time>2026-05-23T06:04:19Z</time>
      </trkpt>
      <trkpt lat="43.46893" lon="2.54448">
        <ele>307.4</ele>
        <time>2026-05-23T06:04:24Z</time>
      </trkpt>
      <trkpt lat="43.46893" lon="2.54448">
        <ele>307.4</ele>
        <time>2026-05-23T06:04:29Z</time>
      </trkpt>
      <trkpt lat="43.46893" lon="2.54448">
        <ele>307.4</ele>
        <time>2026-05-23T06:04:34Z</time>
      </trkpt>
      <trkpt lat="43.46893" lon="2.54448">
        <ele>307.4</ele>
        <time>2026-05-23T06:04:39Z</time>
      </trkpt>
      <trkpt lat="43.46893" lon="2.54448">
        <ele>307.4</ele>
        <time>2026-05-23T06:04:44Z</time>
      </trkpt>
      <trkpt lat="43.46893" lon="2.54448">
        <ele>307.4</ele>
        <time>2026-05-23T06:04:49Z</time>
      </trkpt>
      <trkpt lat="43.46893" lon="2.54448">
        <ele>307.4</ele>
        <time>2026-05-23T06:04:54Z</time>
      </trkpt>
      <trkpt lat="43.46893" lon="2.54448">
        <ele>307.4</ele>
        <time>2026-05-23T06:04:59Z</time>
      </trkpt>
      <trkpt lat="43.46893" lon="2.54448">
        <ele>307.4</ele>
        <time>2026-05-23T06:05:04Z</time>
      </trkpt>
      <trkpt lat="43.46893" lon="2.54448">
        <ele>307.4</ele>
        <time>2026-05-23T06:05:09Z</time>
      </trkpt>
      <trkpt lat="43.46893" lon="2.54448">
        <ele>307.4</ele>
        <time>2026-05-23T06:05:14Z</time>
      </trkpt>
      <trkpt lat="43.46893" lon="2.54448">
        <ele>307.4</ele>
        <time>2026-05-23T06:05:19Z</time>
      </trkpt>
      <trkpt lat="43.46893" lon="2.54448">
        <ele>307.4</ele>
        <time>2026-05-23T06:05:24Z</time>
      </trkpt>
      <trkpt lat="43.46893" lon="2.54448">
        <ele>307.4</ele>
        <time>2026-05-23T06:05:29Z</time>
      </trkpt>
      <trkpt lat="43.46893" lon="2.54448">
        <ele>307.4</ele>
        <time>2026-05-23T06:05:34Z</time>
      </trkpt>
      <trkpt lat="43.46893" lon="2.54448">
        <ele>307.4</ele>
        <time>2026-05-23T06:05:39Z</time>
      </trkpt>
      <trkpt lat="43.46893" lon="2.54448">
        <ele>307.4</ele>
        <time>2026-05-23T06:05:44Z</time>
      </trkpt>
      <trkpt lat="43.46893" lon="2.54448">
        <ele>307.4</ele>
        <time>2026-05-23T06:05:49Z</time>
      </trkpt>
      <trkpt lat="43.46893" lon="2.54448">
        <ele>307.4</ele>
        <time>2026-05-23T06:05:54Z</time>
      </trkpt>
      <trkpt lat="43.46893" lon="2.54448">
        <ele>307.4</ele>
        <time>2026-05-23T06:05:59Z</time>
      </trkpt>
      <trkpt lat="43.46893" lon="2.54448">
        <ele>307.4</ele>
        <time>2026-05-23T06:06:04Z</time>
      </trkpt>
      <trkpt lat="43.46893" lon="2.54448">
        <ele>307.4</ele>
        <time>2026-05-23T06:06:09Z</time>
      </trkpt>
      <trkpt lat="43.46893" lon="2.54448">
        <ele>307.4</ele>
        <time>2026-05-23T06:06:14Z</time>
      </trkpt>
      <trkpt lat="43.46893" lon="2.54448">
        <ele>307.4</ele>
        <time>2026-05-23T06:06:19Z</time>
      </trkpt>
      <trkpt lat="43.46893" lon="2.54448">
        <ele>307.4</ele>
        <time>2026-05-23T06:06:24Z</time>
      </trkpt>
      <trkpt lat="43.46893" lon="2.54448">
        <ele>307.4</ele>
        <time>2026-05-23T06:06:29Z</time>
      </trkpt>
      <trkpt lat="43.46893" lon="2.54448">
        <ele>307.4</ele>
        <time>2026-05-23T06:06:34Z</time>
      </trkpt>
      <trkpt lat="43.46893" lon="2.54448">
        <ele>307.4</ele>
        <time>2026-05-23T06:06:39Z</time>
      </trkpt>
      <trkpt lat="43.46893" lon="2.54448">
        <ele>307.4</ele>
        <time>2026-05-23T06:06:44Z</time>
      </trkpt>
      <trkpt lat="43.46893" lon="2.54448">
        <ele>307.4</ele>
        <time>2026-05-23T06:06:49Z</time>
      </trkpt>
      <trkpt lat="43.46893" lon="2.54448">
        <ele>307.4</ele>
        <time>2026-05-23T06:06:54Z</time>
      </trkpt>
      <trkpt lat="43.46893" lon="2.54448">
        <ele>307.4</ele>
        <time>2026-05-23T06:06:59Z</time>
      </trkpt>
      <trkpt lat="43.46893" lon="2.54448">
        <ele>307.4</ele>
        <time>2026-05-23T06:07:04Z</time>
      </trkpt>
      <trkpt lat="43.46893" lon="2.54448">
        <ele>307.4</ele>
        <time>2026-05-23T06:07:09Z</time>
      </trkpt>
      <trkpt lat="43.46893" lon="2.54448">
        <ele>307.4</ele>
        <time>2026-05-23T06:07:14Z</time>
      </trkpt>
      <trkpt lat="43.46893" lon="2.54448">
        <ele>307.4</ele>
        <time>2026-05-23T06:07:19Z</time>
      </trkpt>
      <trkpt lat="43.46893" lon="2.54448">
        <ele>307.4</ele>
        <time>2026-05-23T06:07:24Z</time>
      </trkpt>
      <trkpt lat="43.46893" lon="2.54448">
        <ele>307.4</ele>
        <time>2026-05-23T06:07:29Z</time>
      </trkpt>
      <trkpt lat="43.46893" lon="2.54448">
        <ele>307.4</ele>
        <time>2026-05-23T06:07:34Z</time>
      </trkpt>
      <trkpt lat="43.46893" lon="2.54448">
        <ele>307.4</ele>
        <time>2026-05-23T06:07:39Z</time>
      </trkpt>
      <trkpt lat="43.46893" lon="2.54448">
        <ele>307.4</ele>
        <time>2026-05-23T06:07:44Z</time>
      </trkpt>
      <trkpt lat="43.46893" lon="2.54448">
        <ele>307.4</ele>
        <time>2026-05-23T06:07:49Z</time>
      </trkpt>
      <trkpt lat="43.46893" lon="2.54448">
        <ele>307.4</ele>
        <time>2026-05-23T06:07:54Z</time>
      </trkpt>
      <trkpt lat="43.46893" lon="2.54448">
        <ele>307.4</ele>
        <time>2026-05-23T06:07:59Z</time>
      </trkpt>
      <trkpt lat="43.46893" lon="2.54448">
        <ele>307.4</ele>
        <time>2026-05-23T06:08:04Z</time>
      </trkpt>
      <trkpt lat="43.46893" lon="2.54448">
        <ele>307.4</ele>
        <time>2026-05-23T06:08:09Z</time>
      </trkpt>
      <trkpt lat="43.46893" lon="2.54448">
        <ele>307.4</ele>
        <time>2026-05-23T06:08:14Z</time>
      </trkpt>
      <trkpt lat="43.46893" lon="2.54448">
        <ele>307.4</ele>
        <time>2026-05-23T06:08:19Z</time>
      </trkpt>
      <trkpt lat="43.46893" lon="2.54448">
        <ele>307.4</ele>
        <time>2026-05-23T06:08:24Z</time>
      </trkpt>
      <trkpt lat="43.46893" lon="2.54448">
        <ele>307.4</ele>
        <time>2026-05-23T06:08:29Z</time>
      </trkpt>
      <trkpt lat="43.46893" lon="2.54448">
        <ele>307.4</ele>
        <time>2026-05-23T06:08:34Z</time>
      </trkpt>
      <trkpt lat="43.46893" lon="2.54448">
        <ele>307.4</ele>
        <time>2026-05-23T06:08:39Z</time>
      </trkpt>
      <trkpt lat="43.46884" lon="2.54447">
        <ele>307.6</ele>
        <time>2026-05-23T06:08:44Z</time>
      </trkpt>
      <trkpt lat="43.46878" lon="2.54446">
        <ele>307.8</ele>
        <time>2026-05-23T06:08:49Z</time>
      </trkpt>
      <trkpt lat="43.46872" lon="2.54444">
        <ele>307.9</ele>
        <time>2026-05-23T06:08:54Z</time>
      </trkpt>
      <trkpt lat="43.46865" lon="2.54442">
        <ele>308.1</ele>
        <time>2026-05-23T06:08:59Z</time>
      </trkpt>
      <trkpt lat="43.46859" lon="2.5444">
        <ele>308.2</ele>
        <time>2026-05-23T06:09:04Z</time>
      </trkpt>
      <trkpt lat="43.46853" lon="2.5444">
        <ele>308.4</ele>
        <time>2026-05-23T06:09:09Z</time>
      </trkpt>
      <trkpt lat="43.46846" lon="2.54437">
        <ele>308.6</ele>
        <time>2026-05-23T06:09:14Z</time>
      </trkpt>
      <trkpt lat="43.4684" lon="2.54437">
        <ele>308.8</ele>
        <time>2026-05-23T06:09:19Z</time>
      </trkpt>
      <trkpt lat="43.46833" lon="2.54435">
        <ele>309</ele>
        <time>2026-05-23T06:09:24Z</time>
      </trkpt>
      <trkpt lat="43.46825" lon="2.54435">
        <ele>309</ele>
        <time>2026-05-23T06:09:29Z</time>
      </trkpt>
      <trkpt lat="43.46819" lon="2.54433">
        <ele>309.1</ele>
        <time>2026-05-23T06:09:34Z</time>
      </trkpt>
      <trkpt lat="43.46812" lon="2.54431">
        <ele>309.1</ele>
        <time>2026-05-23T06:09:39Z</time>
      </trkpt>
      <trkpt lat="43.46804" lon="2.5443">
        <ele>309.1</ele>
        <time>2026-05-23T06:09:44Z</time>
      </trkpt>
      <trkpt lat="43.46795" lon="2.54429">
        <ele>309.1</ele>
        <time>2026-05-23T06:09:49Z</time>
      </trkpt>
      <trkpt lat="43.46789" lon="2.54427">
        <ele>309.1</ele>
        <time>2026-05-23T06:09:54Z</time>
      </trkpt>
      <trkpt lat="43.46782" lon="2.54426">
        <ele>309.1</ele>
        <time>2026-05-23T06:09:59Z</time>
      </trkpt>
      <trkpt lat="43.46774" lon="2.54424">
        <ele>309.1</ele>
        <time>2026-05-23T06:10:04Z</time>
      </trkpt>
      <trkpt lat="43.46766" lon="2.54423">
        <ele>309.1</ele>
        <time>2026-05-23T06:10:09Z</time>
      </trkpt>
      <trkpt lat="43.46759" lon="2.5442">
        <ele>309.1</ele>
        <time>2026-05-23T06:10:14Z</time>
      </trkpt>
      <trkpt lat="43.46753" lon="2.54419">
        <ele>309.1</ele>
        <time>2026-05-23T06:10:19Z</time>
      </trkpt>
      <trkpt lat="43.46746" lon="2.54417">
        <ele>309.1</ele>
        <time>2026-05-23T06:10:24Z</time>
      </trkpt>
      <trkpt lat="43.46739" lon="2.54413">
        <ele>309.1</ele>
        <time>2026-05-23T06:10:29Z</time>
      </trkpt>
      <trkpt lat="43.46733" lon="2.54412">
        <ele>309.2</ele>
        <time>2026-05-23T06:10:34Z</time>
      </trkpt>
      <trkpt lat="43.46725" lon="2.54411">
        <ele>309.3</ele>
        <time>2026-05-23T06:10:39Z</time>
      </trkpt>
      <trkpt lat="43.46718" lon="2.54407">
        <ele>309.3</ele>
        <time>2026-05-23T06:10:44Z</time>
      </trkpt>
      <trkpt lat="43.46712" lon="2.54406">
        <ele>309.4</ele>
        <time>2026-05-23T06:10:49Z</time>
      </trkpt>
      <trkpt lat="43.46705" lon="2.54406">
        <ele>309.5</ele>
        <time>2026-05-23T06:10:54Z</time>
      </trkpt>
      <trkpt lat="43.46698" lon="2.54405">
        <ele>309.6</ele>
        <time>2026-05-23T06:10:59Z</time>
      </trkpt>
      <trkpt lat="43.46692" lon="2.54403">
        <ele>309.6</ele>
        <time>2026-05-23T06:11:04Z</time>
      </trkpt>
      <trkpt lat="43.46684" lon="2.54401">
        <ele>309.8</ele>
        <time>2026-05-23T06:11:09Z</time>
      </trkpt>
      <trkpt lat="43.46677" lon="2.544">
        <ele>309.9</ele>
        <time>2026-05-23T06:11:14Z</time>
      </trkpt>
      <trkpt lat="43.46669" lon="2.54398">
        <ele>310</ele>
        <time>2026-05-23T06:11:19Z</time>
      </trkpt>
      <trkpt lat="43.46662" lon="2.54397">
        <ele>310.2</ele>
        <time>2026-05-23T06:11:24Z</time>
      </trkpt>
      <trkpt lat="43.46656" lon="2.54394">
        <ele>310.3</ele>
        <time>2026-05-23T06:11:29Z</time>
      </trkpt>
      <trkpt lat="43.46647" lon="2.54394">
        <ele>310.6</ele>
        <time>2026-05-23T06:11:34Z</time>
      </trkpt>
      <trkpt lat="43.46639" lon="2.54393">
        <ele>310.9</ele>
        <time>2026-05-23T06:11:39Z</time>
      </trkpt>
      <trkpt lat="43.46633" lon="2.5439">
        <ele>311.1</ele>
        <time>2026-05-23T06:11:44Z</time>
      </trkpt>
      <trkpt lat="43.46626" lon="2.54387">
        <ele>311.3</ele>
        <time>2026-05-23T06:11:49Z</time>
      </trkpt>
      <trkpt lat="43.46619" lon="2.54383">
        <ele>311.5</ele>
        <time>2026-05-23T06:11:54Z</time>
      </trkpt>
      <trkpt lat="43.46612" lon="2.54377">
        <ele>311.7</ele>
        <time>2026-05-23T06:11:59Z</time>
      </trkpt>
      <trkpt lat="43.46604" lon="2.54378">
        <ele>311.9</ele>
        <time>2026-05-23T06:12:04Z</time>
      </trkpt>
      <trkpt lat="43.46597" lon="2.54374">
        <ele>312.1</ele>
        <time>2026-05-23T06:12:09Z</time>
      </trkpt>
      <trkpt lat="43.46591" lon="2.54374">
        <ele>312.3</ele>
        <time>2026-05-23T06:12:14Z</time>
      </trkpt>
      <trkpt lat="43.46583" lon="2.54372">
        <ele>312.5</ele>
        <time>2026-05-23T06:12:19Z</time>
      </trkpt>
      <trkpt lat="43.46576" lon="2.54371">
        <ele>312.7</ele>
        <time>2026-05-23T06:12:24Z</time>
      </trkpt>
      <trkpt lat="43.4657" lon="2.54373">
        <ele>313</ele>
        <time>2026-05-23T06:12:29Z</time>
      </trkpt>
      <trkpt lat="43.46563" lon="2.54373">
        <ele>313.2</ele>
        <time>2026-05-23T06:12:34Z</time>
      </trkpt>
      <trkpt lat="43.46557" lon="2.54374">
        <ele>313.4</ele>
        <time>2026-05-23T06:12:39Z</time>
      </trkpt>
      <trkpt lat="43.46551" lon="2.54373">
        <ele>313.7</ele>
        <time>2026-05-23T06:12:44Z</time>
      </trkpt>
      <trkpt lat="43.46545" lon="2.54371">
        <ele>313.9</ele>
        <time>2026-05-23T06:12:49Z</time>
      </trkpt>
      <trkpt lat="43.46538" lon="2.5437">
        <ele>314.1</ele>
        <time>2026-05-23T06:12:54Z</time>
      </trkpt>
      <trkpt lat="43.46531" lon="2.54368">
        <ele>314.4</ele>
        <time>2026-05-23T06:12:59Z</time>
      </trkpt>
      <trkpt lat="43.46524" lon="2.54368">
        <ele>314.7</ele>
        <time>2026-05-23T06:13:04Z</time>
      </trkpt>
      <trkpt lat="43.46517" lon="2.54368">
        <ele>314.9</ele>
        <time>2026-05-23T06:13:09Z</time>
      </trkpt>
      <trkpt lat="43.4651" lon="2.54368">
        <ele>315.2</ele>
        <time>2026-05-23T06:13:14Z</time>
      </trkpt>
      <trkpt lat="43.46503" lon="2.54366">
        <ele>315.5</ele>
        <time>2026-05-23T06:13:19Z</time>
      </trkpt>
      <trkpt lat="43.46496" lon="2.54363">
        <ele>315.7</ele>
        <time>2026-05-23T06:13:24Z</time>
      </trkpt>
      <trkpt lat="43.46489" lon="2.54361">
        <ele>315.8</ele>
        <time>2026-05-23T06:13:29Z</time>
      </trkpt>
      <trkpt lat="43.46485" lon="2.54357">
        <ele>315.9</ele>
        <time>2026-05-23T06:13:34Z</time>
      </trkpt>
      <trkpt lat="43.46486" lon="2.54354">
        <ele>316</ele>
        <time>2026-05-23T06:13:39Z</time>
      </trkpt>
      <trkpt lat="43.46479" lon="2.54357">
        <ele>316</ele>
        <time>2026-05-23T06:13:44Z</time>
      </trkpt>
      <trkpt lat="43.46472" lon="2.54356">
        <ele>316.2</ele>
        <time>2026-05-23T06:13:49Z</time>
      </trkpt>
      <trkpt lat="43.46464" lon="2.54356">
        <ele>316.3</ele>
        <time>2026-05-23T06:13:54Z</time>
      </trkpt>
      <trkpt lat="43.46456" lon="2.54356">
        <ele>316.4</ele>
        <time>2026-05-23T06:13:59Z</time>
      </trkpt>
      <trkpt lat="43.4645" lon="2.54355">
        <ele>316.5</ele>
        <time>2026-05-23T06:14:04Z</time>
      </trkpt>
      <trkpt lat="43.46444" lon="2.54351">
        <ele>316.6</ele>
        <time>2026-05-23T06:14:09Z</time>
      </trkpt>
      <trkpt lat="43.46437" lon="2.54351">
        <ele>316.7</ele>
        <time>2026-05-23T06:14:14Z</time>
      </trkpt>
      <trkpt lat="43.46429" lon="2.5435">
        <ele>316.8</ele>
        <time>2026-05-23T06:14:19Z</time>
      </trkpt>
      <trkpt lat="43.46422" lon="2.54348">
        <ele>316.9</ele>
        <time>2026-05-23T06:14:24Z</time>
      </trkpt>
      <trkpt lat="43.46414" lon="2.54348">
        <ele>317</ele>
        <time>2026-05-23T06:14:29Z</time>
      </trkpt>
      <trkpt lat="43.46408" lon="2.54348">
        <ele>316.8</ele>
        <time>2026-05-23T06:14:34Z</time>
      </trkpt>
      <trkpt lat="43.46403" lon="2.54349">
        <ele>316.8</ele>
        <time>2026-05-23T06:14:39Z</time>
      </trkpt>
      <trkpt lat="43.46395" lon="2.54352">
        <ele>316.7</ele>
        <time>2026-05-23T06:14:44Z</time>
      </trkpt>
      <trkpt lat="43.46388" lon="2.54356">
        <ele>316.6</ele>
        <time>2026-05-23T06:14:49Z</time>
      </trkpt>
      <trkpt lat="43.46381" lon="2.54358">
        <ele>316.5</ele>
        <time>2026-05-23T06:14:54Z</time>
      </trkpt>
      <trkpt lat="43.46373" lon="2.5436">
        <ele>316.5</ele>
        <time>2026-05-23T06:14:59Z</time>
      </trkpt>
      <trkpt lat="43.46368" lon="2.54361">
        <ele>316.4</ele>
        <time>2026-05-23T06:15:04Z</time>
      </trkpt>
      <trkpt lat="43.46368" lon="2.54365">
        <ele>316.5</ele>
        <time>2026-05-23T06:15:09Z</time>
      </trkpt>
      <trkpt lat="43.46368" lon="2.54367">
        <ele>316.5</ele>
        <time>2026-05-23T06:15:14Z</time>
      </trkpt>
      <trkpt lat="43.46369" lon="2.54367">
        <ele>316.5</ele>
        <time>2026-05-23T06:15:19Z</time>
      </trkpt>
      <trkpt lat="43.46366" lon="2.54364">
        <ele>316.5</ele>
        <time>2026-05-23T06:15:24Z</time>
      </trkpt>
      <trkpt lat="43.46357" lon="2.54362">
        <ele>316.3</ele>
        <time>2026-05-23T06:15:29Z</time>
      </trkpt>
      <trkpt lat="43.46351" lon="2.5436">
        <ele>316.2</ele>
        <time>2026-05-23T06:15:34Z</time>
      </trkpt>
      <trkpt lat="43.46344" lon="2.54356">
        <ele>316</ele>
        <time>2026-05-23T06:15:39Z</time>
      </trkpt>
      <trkpt lat="43.46338" lon="2.54353">
        <ele>315.8</ele>
        <time>2026-05-23T06:15:44Z</time>
      </trkpt>
      <trkpt lat="43.46333" lon="2.54349">
        <ele>315.6</ele>
        <time>2026-05-23T06:15:49Z</time>
      </trkpt>
      <trkpt lat="43.46327" lon="2.54348">
        <ele>315.6</ele>
        <time>2026-05-23T06:15:54Z</time>
      </trkpt>
      <trkpt lat="43.46321" lon="2.54343">
        <ele>315.5</ele>
        <time>2026-05-23T06:15:59Z</time>
      </trkpt>
      <trkpt lat="43.46313" lon="2.54338">
        <ele>315.4</ele>
        <time>2026-05-23T06:16:04Z</time>
      </trkpt>
      <trkpt lat="43.46304" lon="2.54333">
        <ele>315.3</ele>
        <time>2026-05-23T06:16:09Z</time>
      </trkpt>
      <trkpt lat="43.46296" lon="2.54328">
        <ele>315.4</ele>
        <time>2026-05-23T06:16:14Z</time>
      </trkpt>
      <trkpt lat="43.4629" lon="2.54326">
        <ele>315.4</ele>
        <time>2026-05-23T06:16:19Z</time>
      </trkpt>
      <trkpt lat="43.46287" lon="2.54323">
        <ele>315.4</ele>
        <time>2026-05-23T06:16:24Z</time>
      </trkpt>
      <trkpt lat="43.46286" lon="2.5432">
        <ele>315.4</ele>
        <time>2026-05-23T06:16:29Z</time>
      </trkpt>
      <trkpt lat="43.46282" lon="2.5432">
        <ele>315.5</ele>
        <time>2026-05-23T06:16:34Z</time>
      </trkpt>
      <trkpt lat="43.46275" lon="2.5432">
        <ele>315.5</ele>
        <time>2026-05-23T06:16:39Z</time>
      </trkpt>
      <trkpt lat="43.46268" lon="2.54319">
        <ele>315.6</ele>
        <time>2026-05-23T06:16:44Z</time>
      </trkpt>
      <trkpt lat="43.46261" lon="2.5432">
        <ele>315.7</ele>
        <time>2026-05-23T06:16:49Z</time>
      </trkpt>
      <trkpt lat="43.46253" lon="2.5432">
        <ele>315.8</ele>
        <time>2026-05-23T06:16:54Z</time>
      </trkpt>
      <trkpt lat="43.46247" lon="2.54319">
        <ele>315.9</ele>
        <time>2026-05-23T06:16:59Z</time>
      </trkpt>
      <trkpt lat="43.46241" lon="2.54316">
        <ele>316</ele>
        <time>2026-05-23T06:17:04Z</time>
      </trkpt>
      <trkpt lat="43.46235" lon="2.54315">
        <ele>316.2</ele>
        <time>2026-05-23T06:17:09Z</time>
      </trkpt>
      <trkpt lat="43.46229" lon="2.54313">
        <ele>316.3</ele>
        <time>2026-05-23T06:17:14Z</time>
      </trkpt>
      <trkpt lat="43.46224" lon="2.54311">
        <ele>316.4</ele>
        <time>2026-05-23T06:17:19Z</time>
      </trkpt>
      <trkpt lat="43.46221" lon="2.54309">
        <ele>316.5</ele>
        <time>2026-05-23T06:17:24Z</time>
      </trkpt>
      <trkpt lat="43.46221" lon="2.54309">
        <ele>316.5</ele>
        <time>2026-05-23T06:17:29Z</time>
      </trkpt>
      <trkpt lat="43.46221" lon="2.54309">
        <ele>316.5</ele>
        <time>2026-05-23T06:17:34Z</time>
      </trkpt>
      <trkpt lat="43.46221" lon="2.54309">
        <ele>316.5</ele>
        <time>2026-05-23T06:17:39Z</time>
      </trkpt>
      <trkpt lat="43.46221" lon="2.54309">
        <ele>316.5</ele>
        <time>2026-05-23T06:17:44Z</time>
      </trkpt>
      <trkpt lat="43.46221" lon="2.54309">
        <ele>316.5</ele>
        <time>2026-05-23T06:17:49Z</time>
      </trkpt>
      <trkpt lat="43.46221" lon="2.54309">
        <ele>316.5</ele>
        <time>2026-05-23T06:17:54Z</time>
      </trkpt>
      <trkpt lat="43.46221" lon="2.54309">
        <ele>316.5</ele>
        <time>2026-05-23T06:17:59Z</time>
      </trkpt>
      <trkpt lat="43.46221" lon="2.54309">
        <ele>316.5</ele>
        <time>2026-05-23T06:18:04Z</time>
      </trkpt>
      <trkpt lat="43.46221" lon="2.54309">
        <ele>316.5</ele>
        <time>2026-05-23T06:18:09Z</time>
      </trkpt>
      <trkpt lat="43.46221" lon="2.54309">
        <ele>316.5</ele>
        <time>2026-05-23T06:18:14Z</time>
      </trkpt>
      <trkpt lat="43.46221" lon="2.54309">
        <ele>316.5</ele>
        <time>2026-05-23T06:18:19Z</time>
      </trkpt>
      <trkpt lat="43.46221" lon="2.54309">
        <ele>316.5</ele>
        <time>2026-05-23T06:18:24Z</time>
      </trkpt>
      <trkpt lat="43.46221" lon="2.54309">
        <ele>316.5</ele>
        <time>2026-05-23T06:18:29Z</time>
      </trkpt>
      <trkpt lat="43.46221" lon="2.54309">
        <ele>316.5</ele>
        <time>2026-05-23T06:18:34Z</time>
      </trkpt>
      <trkpt lat="43.46209" lon="2.54312">
        <ele>316.9</ele>
        <time>2026-05-23T06:18:39Z</time>
      </trkpt>
      <trkpt lat="43.46202" lon="2.54308">
        <ele>317</ele>
        <time>2026-05-23T06:18:44Z</time>
      </trkpt>
      <trkpt lat="43.46197" lon="2.5431">
        <ele>317.2</ele>
        <time>2026-05-23T06:18:49Z</time>
      </trkpt>
      <trkpt lat="43.46191" lon="2.54308">
        <ele>317.3</ele>
        <time>2026-05-23T06:18:54Z</time>
      </trkpt>
      <trkpt lat="43.46185" lon="2.54309">
        <ele>317.5</ele>
        <time>2026-05-23T06:18:59Z</time>
      </trkpt>
      <trkpt lat="43.46181" lon="2.5431">
        <ele>317.6</ele>
        <time>2026-05-23T06:19:04Z</time>
      </trkpt>
      <trkpt lat="43.46176" lon="2.5431">
        <ele>317.7</ele>
        <time>2026-05-23T06:19:09Z</time>
      </trkpt>
      <trkpt lat="43.46166" lon="2.54309">
        <ele>318</ele>
        <time>2026-05-23T06:19:14Z</time>
      </trkpt>
      <trkpt lat="43.4616" lon="2.54303">
        <ele>318.3</ele>
        <time>2026-05-23T06:19:19Z</time>
      </trkpt>
      <trkpt lat="43.46157" lon="2.54298">
        <ele>318.4</ele>
        <time>2026-05-23T06:19:24Z</time>
      </trkpt>
      <trkpt lat="43.4615" lon="2.54298">
        <ele>318.6</ele>
        <time>2026-05-23T06:19:29Z</time>
      </trkpt>
      <trkpt lat="43.46136" lon="2.54303">
        <ele>319.2</ele>
        <time>2026-05-23T06:19:34Z</time>
      </trkpt>
      <trkpt lat="43.46129" lon="2.54303">
        <ele>319.5</ele>
        <time>2026-05-23T06:19:39Z</time>
      </trkpt>
      <trkpt lat="43.46122" lon="2.54303">
        <ele>319.8</ele>
        <time>2026-05-23T06:19:44Z</time>
      </trkpt>
      <trkpt lat="43.46118" lon="2.54303">
        <ele>319.9</ele>
        <time>2026-05-23T06:19:49Z</time>
      </trkpt>
      <trkpt lat="43.46114" lon="2.543">
        <ele>320</ele>
        <time>2026-05-23T06:19:54Z</time>
      </trkpt>
      <trkpt lat="43.4611" lon="2.54294">
        <ele>320.1</ele>
        <time>2026-05-23T06:19:59Z</time>
      </trkpt>
      <trkpt lat="43.4611" lon="2.54294">
        <ele>320.1</ele>
        <time>2026-05-23T06:20:04Z</time>
      </trkpt>
      <trkpt lat="43.4611" lon="2.54294">
        <ele>320.1</ele>
        <time>2026-05-23T06:20:09Z</time>
      </trkpt>
      <trkpt lat="43.4611" lon="2.54294">
        <ele>320.1</ele>
        <time>2026-05-23T06:20:14Z</time>
      </trkpt>
      <trkpt lat="43.4611" lon="2.54294">
        <ele>320.1</ele>
        <time>2026-05-23T06:20:19Z</time>
      </trkpt>
      <trkpt lat="43.46104" lon="2.54298">
        <ele>320.4</ele>
        <time>2026-05-23T06:20:24Z</time>
      </trkpt>
      <trkpt lat="43.46099" lon="2.54301">
        <ele>320.6</ele>
        <time>2026-05-23T06:20:29Z</time>
      </trkpt>
      <trkpt lat="43.46092" lon="2.54303">
        <ele>320.9</ele>
        <time>2026-05-23T06:20:34Z</time>
      </trkpt>
      <trkpt lat="43.46086" lon="2.54305">
        <ele>321.2</ele>
        <time>2026-05-23T06:20:39Z</time>
      </trkpt>
      <trkpt lat="43.46079" lon="2.54308">
        <ele>321.4</ele>
        <time>2026-05-23T06:20:44Z</time>
      </trkpt>
      <trkpt lat="43.46075" lon="2.54307">
        <ele>321.4</ele>
        <time>2026-05-23T06:20:49Z</time>
      </trkpt>
      <trkpt lat="43.46068" lon="2.5431">
        <ele>321.6</ele>
        <time>2026-05-23T06:20:54Z</time>
      </trkpt>
      <trkpt lat="43.46062" lon="2.54313">
        <ele>321.7</ele>
        <time>2026-05-23T06:20:59Z</time>
      </trkpt>
      <trkpt lat="43.46055" lon="2.54316">
        <ele>321.9</ele>
        <time>2026-05-23T06:21:04Z</time>
      </trkpt>
      <trkpt lat="43.46048" lon="2.54318">
        <ele>322</ele>
        <time>2026-05-23T06:21:09Z</time>
      </trkpt>
      <trkpt lat="43.46042" lon="2.54316">
        <ele>322</ele>
        <time>2026-05-23T06:21:14Z</time>
      </trkpt>
      <trkpt lat="43.46036" lon="2.54315">
        <ele>322</ele>
        <time>2026-05-23T06:21:19Z</time>
      </trkpt>
      <trkpt lat="43.46031" lon="2.54309">
        <ele>321.9</ele>
        <time>2026-05-23T06:21:24Z</time>
      </trkpt>
      <trkpt lat="43.46026" lon="2.54302">
        <ele>321.7</ele>
        <time>2026-05-23T06:21:29Z</time>
      </trkpt>
      <trkpt lat="43.46023" lon="2.54295">
        <ele>321.5</ele>
        <time>2026-05-23T06:21:34Z</time>
      </trkpt>
      <trkpt lat="43.46021" lon="2.54285">
        <ele>321.2</ele>
        <time>2026-05-23T06:21:39Z</time>
      </trkpt>
      <trkpt lat="43.46021" lon="2.54275">
        <ele>320.8</ele>
        <time>2026-05-23T06:21:44Z</time>
      </trkpt>
      <trkpt lat="43.46019" lon="2.54266">
        <ele>320.5</ele>
        <time>2026-05-23T06:21:49Z</time>
      </trkpt>
      <trkpt lat="43.46017" lon="2.54257">
        <ele>320.2</ele>
        <time>2026-05-23T06:21:54Z</time>
      </trkpt>
      <trkpt lat="43.46015" lon="2.54249">
        <ele>320</ele>
        <time>2026-05-23T06:21:59Z</time>
      </trkpt>
      <trkpt lat="43.46014" lon="2.54241">
        <ele>320.3</ele>
        <time>2026-05-23T06:22:04Z</time>
      </trkpt>
      <trkpt lat="43.46013" lon="2.54231">
        <ele>320.5</ele>
        <time>2026-05-23T06:22:09Z</time>
      </trkpt>
      <trkpt lat="43.4601" lon="2.54222">
        <ele>320.8</ele>
        <time>2026-05-23T06:22:14Z</time>
      </trkpt>
      <trkpt lat="43.46008" lon="2.54211">
        <ele>321.2</ele>
        <time>2026-05-23T06:22:19Z</time>
      </trkpt>
      <trkpt lat="43.46007" lon="2.54201">
        <ele>321.6</ele>
        <time>2026-05-23T06:22:24Z</time>
      </trkpt>
      <trkpt lat="43.46005" lon="2.5419">
        <ele>322</ele>
        <time>2026-05-23T06:22:29Z</time>
      </trkpt>
      <trkpt lat="43.46003" lon="2.54183">
        <ele>322.3</ele>
        <time>2026-05-23T06:22:34Z</time>
      </trkpt>
      <trkpt lat="43.46002" lon="2.54175">
        <ele>322.6</ele>
        <time>2026-05-23T06:22:39Z</time>
      </trkpt>
      <trkpt lat="43.45998" lon="2.54164">
        <ele>323.3</ele>
        <time>2026-05-23T06:22:44Z</time>
      </trkpt>
      <trkpt lat="43.45997" lon="2.54155">
        <ele>324.2</ele>
        <time>2026-05-23T06:22:49Z</time>
      </trkpt>
      <trkpt lat="43.45994" lon="2.54148">
        <ele>324.9</ele>
        <time>2026-05-23T06:22:54Z</time>
      </trkpt>
      <trkpt lat="43.45992" lon="2.5414">
        <ele>325.8</ele>
        <time>2026-05-23T06:22:59Z</time>
      </trkpt>
      <trkpt lat="43.45988" lon="2.54133">
        <ele>326.6</ele>
        <time>2026-05-23T06:23:04Z</time>
      </trkpt>
      <trkpt lat="43.45989" lon="2.54129">
        <ele>326.9</ele>
        <time>2026-05-23T06:23:09Z</time>
      </trkpt>
      <trkpt lat="43.45988" lon="2.54123">
        <ele>327.5</ele>
        <time>2026-05-23T06:23:14Z</time>
      </trkpt>
      <trkpt lat="43.45987" lon="2.54113">
        <ele>328.4</ele>
        <time>2026-05-23T06:23:19Z</time>
      </trkpt>
      <trkpt lat="43.45986" lon="2.54104">
        <ele>329.2</ele>
        <time>2026-05-23T06:23:24Z</time>
      </trkpt>
      <trkpt lat="43.45982" lon="2.54092">
        <ele>330.5</ele>
        <time>2026-05-23T06:23:29Z</time>
      </trkpt>
      <trkpt lat="43.45981" lon="2.54085">
        <ele>331.2</ele>
        <time>2026-05-23T06:23:34Z</time>
      </trkpt>
      <trkpt lat="43.45979" lon="2.54076">
        <ele>331.9</ele>
        <time>2026-05-23T06:23:39Z</time>
      </trkpt>
      <trkpt lat="43.4598" lon="2.54064">
        <ele>332.4</ele>
        <time>2026-05-23T06:23:44Z</time>
      </trkpt>
      <trkpt lat="43.45979" lon="2.54058">
        <ele>332.7</ele>
        <time>2026-05-23T06:23:49Z</time>
      </trkpt>
      <trkpt lat="43.45977" lon="2.54049">
        <ele>333.3</ele>
        <time>2026-05-23T06:23:54Z</time>
      </trkpt>
      <trkpt lat="43.45975" lon="2.54042">
        <ele>333.8</ele>
        <time>2026-05-23T06:23:59Z</time>
      </trkpt>
      <trkpt lat="43.45973" lon="2.54037">
        <ele>334.2</ele>
        <time>2026-05-23T06:24:04Z</time>
      </trkpt>
      <trkpt lat="43.45971" lon="2.5403">
        <ele>334.6</ele>
        <time>2026-05-23T06:24:09Z</time>
      </trkpt>
      <trkpt lat="43.45969" lon="2.54025">
        <ele>335</ele>
        <time>2026-05-23T06:24:14Z</time>
      </trkpt>
      <trkpt lat="43.45969" lon="2.54017">
        <ele>335.4</ele>
        <time>2026-05-23T06:24:19Z</time>
      </trkpt>
      <trkpt lat="43.45967" lon="2.54009">
        <ele>335.9</ele>
        <time>2026-05-23T06:24:24Z</time>
      </trkpt>
      <trkpt lat="43.45964" lon="2.54001">
        <ele>336.5</ele>
        <time>2026-05-23T06:24:29Z</time>
      </trkpt>
      <trkpt lat="43.45967" lon="2.53991">
        <ele>336.4</ele>
        <time>2026-05-23T06:24:34Z</time>
      </trkpt>
      <trkpt lat="43.45964" lon="2.53981">
        <ele>336.6</ele>
        <time>2026-05-23T06:24:39Z</time>
      </trkpt>
      <trkpt lat="43.45962" lon="2.53971">
        <ele>336.7</ele>
        <time>2026-05-23T06:24:44Z</time>
      </trkpt>
      <trkpt lat="43.45961" lon="2.53957">
        <ele>336.8</ele>
        <time>2026-05-23T06:24:49Z</time>
      </trkpt>
      <trkpt lat="43.4596" lon="2.53952">
        <ele>336.9</ele>
        <time>2026-05-23T06:24:54Z</time>
      </trkpt>
      <trkpt lat="43.45953" lon="2.53952">
        <ele>337.5</ele>
        <time>2026-05-23T06:24:59Z</time>
      </trkpt>
      <trkpt lat="43.45949" lon="2.53951">
        <ele>337.8</ele>
        <time>2026-05-23T06:25:04Z</time>
      </trkpt>
      <trkpt lat="43.45946" lon="2.5395">
        <ele>338.1</ele>
        <time>2026-05-23T06:25:09Z</time>
      </trkpt>
      <trkpt lat="43.45941" lon="2.53954">
        <ele>338.5</ele>
        <time>2026-05-23T06:25:14Z</time>
      </trkpt>
      <trkpt lat="43.45937" lon="2.53955">
        <ele>338.8</ele>
        <time>2026-05-23T06:25:19Z</time>
      </trkpt>
      <trkpt lat="43.45934" lon="2.53952">
        <ele>339.1</ele>
        <time>2026-05-23T06:25:24Z</time>
      </trkpt>
      <trkpt lat="43.45934" lon="2.53952">
        <ele>339.1</ele>
        <time>2026-05-23T06:25:29Z</time>
      </trkpt>
      <trkpt lat="43.45934" lon="2.53952">
        <ele>339.1</ele>
        <time>2026-05-23T06:25:34Z</time>
      </trkpt>
      <trkpt lat="43.45931" lon="2.53953">
        <ele>339.3</ele>
        <time>2026-05-23T06:25:39Z</time>
      </trkpt>
      <trkpt lat="43.45926" lon="2.53952">
        <ele>339.8</ele>
        <time>2026-05-23T06:25:44Z</time>
      </trkpt>
      <trkpt lat="43.4592" lon="2.53953">
        <ele>340.3</ele>
        <time>2026-05-23T06:25:49Z</time>
      </trkpt>
      <trkpt lat="43.45914" lon="2.53957">
        <ele>340.6</ele>
        <time>2026-05-23T06:25:54Z</time>
      </trkpt>
      <trkpt lat="43.45909" lon="2.53959">
        <ele>340.9</ele>
        <time>2026-05-23T06:25:59Z</time>
      </trkpt>
      <trkpt lat="43.45904" lon="2.53961">
        <ele>341.1</ele>
        <time>2026-05-23T06:26:04Z</time>
      </trkpt>
      <trkpt lat="43.45897" lon="2.53961">
        <ele>341.4</ele>
        <time>2026-05-23T06:26:09Z</time>
      </trkpt>
      <trkpt lat="43.4589" lon="2.5396">
        <ele>341.7</ele>
        <time>2026-05-23T06:26:14Z</time>
      </trkpt>
      <trkpt lat="43.45884" lon="2.53963">
        <ele>342</ele>
        <time>2026-05-23T06:26:19Z</time>
      </trkpt>
      <trkpt lat="43.45878" lon="2.53964">
        <ele>342.2</ele>
        <time>2026-05-23T06:26:24Z</time>
      </trkpt>
      <trkpt lat="43.45873" lon="2.53966">
        <ele>342.4</ele>
        <time>2026-05-23T06:26:29Z</time>
      </trkpt>
      <trkpt lat="43.45867" lon="2.53968">
        <ele>342.6</ele>
        <time>2026-05-23T06:26:34Z</time>
      </trkpt>
      <trkpt lat="43.45861" lon="2.53969">
        <ele>342.9</ele>
        <time>2026-05-23T06:26:39Z</time>
      </trkpt>
      <trkpt lat="43.45856" lon="2.53971">
        <ele>343</ele>
        <time>2026-05-23T06:26:44Z</time>
      </trkpt>
      <trkpt lat="43.45851" lon="2.53974">
        <ele>343.2</ele>
        <time>2026-05-23T06:26:49Z</time>
      </trkpt>
      <trkpt lat="43.45846" lon="2.53976">
        <ele>343.3</ele>
        <time>2026-05-23T06:26:54Z</time>
      </trkpt>
      <trkpt lat="43.45841" lon="2.53978">
        <ele>343.5</ele>
        <time>2026-05-23T06:26:59Z</time>
      </trkpt>
      <trkpt lat="43.45834" lon="2.53981">
        <ele>343.7</ele>
        <time>2026-05-23T06:27:04Z</time>
      </trkpt>
      <trkpt lat="43.45829" lon="2.53981">
        <ele>344</ele>
        <time>2026-05-23T06:27:09Z</time>
      </trkpt>
      <trkpt lat="43.45822" lon="2.53982">
        <ele>344.6</ele>
        <time>2026-05-23T06:27:14Z</time>
      </trkpt>
      <trkpt lat="43.45816" lon="2.53984">
        <ele>345</ele>
        <time>2026-05-23T06:27:19Z</time>
      </trkpt>
      <trkpt lat="43.45808" lon="2.53983">
        <ele>345.7</ele>
        <time>2026-05-23T06:27:24Z</time>
      </trkpt>
      <trkpt lat="43.45803" lon="2.53986">
        <ele>346</ele>
        <time>2026-05-23T06:27:29Z</time>
      </trkpt>
      <trkpt lat="43.45797" lon="2.53986">
        <ele>346.5</ele>
        <time>2026-05-23T06:27:34Z</time>
      </trkpt>
      <trkpt lat="43.45792" lon="2.53989">
        <ele>346.8</ele>
        <time>2026-05-23T06:27:39Z</time>
      </trkpt>
      <trkpt lat="43.45785" lon="2.5399">
        <ele>347.4</ele>
        <time>2026-05-23T06:27:44Z</time>
      </trkpt>
      <trkpt lat="43.45779" lon="2.53994">
        <ele>347.7</ele>
        <time>2026-05-23T06:27:49Z</time>
      </trkpt>
      <trkpt lat="43.45773" lon="2.53997">
        <ele>348.1</ele>
        <time>2026-05-23T06:27:54Z</time>
      </trkpt>
      <trkpt lat="43.45767" lon="2.53999">
        <ele>348.6</ele>
        <time>2026-05-23T06:27:59Z</time>
      </trkpt>
      <trkpt lat="43.4576" lon="2.54">
        <ele>349.2</ele>
        <time>2026-05-23T06:28:04Z</time>
      </trkpt>
      <trkpt lat="43.45755" lon="2.54002">
        <ele>349.5</ele>
        <time>2026-05-23T06:28:09Z</time>
      </trkpt>
      <trkpt lat="43.45749" lon="2.54004">
        <ele>350</ele>
        <time>2026-05-23T06:28:14Z</time>
      </trkpt>
      <trkpt lat="43.45743" lon="2.54005">
        <ele>350.8</ele>
        <time>2026-05-23T06:28:19Z</time>
      </trkpt>
      <trkpt lat="43.45738" lon="2.54006">
        <ele>351.4</ele>
        <time>2026-05-23T06:28:24Z</time>
      </trkpt>
      <trkpt lat="43.45732" lon="2.54007">
        <ele>352.2</ele>
        <time>2026-05-23T06:28:29Z</time>
      </trkpt>
      <trkpt lat="43.45727" lon="2.54009">
        <ele>352.8</ele>
        <time>2026-05-23T06:28:34Z</time>
      </trkpt>
      <trkpt lat="43.45721" lon="2.54011">
        <ele>353.5</ele>
        <time>2026-05-23T06:28:39Z</time>
      </trkpt>
      <trkpt lat="43.45715" lon="2.54012">
        <ele>354.3</ele>
        <time>2026-05-23T06:28:44Z</time>
      </trkpt>
      <trkpt lat="43.45709" lon="2.54014">
        <ele>355.1</ele>
        <time>2026-05-23T06:28:49Z</time>
      </trkpt>
      <trkpt lat="43.45703" lon="2.54016">
        <ele>355.8</ele>
        <time>2026-05-23T06:28:54Z</time>
      </trkpt>
      <trkpt lat="43.45696" lon="2.54018">
        <ele>356.8</ele>
        <time>2026-05-23T06:28:59Z</time>
      </trkpt>
      <trkpt lat="43.4569" lon="2.5402">
        <ele>357.5</ele>
        <time>2026-05-23T06:29:04Z</time>
      </trkpt>
      <trkpt lat="43.45682" lon="2.54019">
        <ele>358.7</ele>
        <time>2026-05-23T06:29:09Z</time>
      </trkpt>
      <trkpt lat="43.45675" lon="2.54019">
        <ele>359.6</ele>
        <time>2026-05-23T06:29:14Z</time>
      </trkpt>
      <trkpt lat="43.45669" lon="2.54018">
        <ele>360.5</ele>
        <time>2026-05-23T06:29:19Z</time>
      </trkpt>
      <trkpt lat="43.45664" lon="2.54018">
        <ele>361.4</ele>
        <time>2026-05-23T06:29:24Z</time>
      </trkpt>
      <trkpt lat="43.45657" lon="2.54012">
        <ele>363</ele>
        <time>2026-05-23T06:29:29Z</time>
      </trkpt>
      <trkpt lat="43.45652" lon="2.54009">
        <ele>364.1</ele>
        <time>2026-05-23T06:29:34Z</time>
      </trkpt>
      <trkpt lat="43.45647" lon="2.54005">
        <ele>365.1</ele>
        <time>2026-05-23T06:29:39Z</time>
      </trkpt>
      <trkpt lat="43.45641" lon="2.53999">
        <ele>366.3</ele>
        <time>2026-05-23T06:29:44Z</time>
      </trkpt>
      <trkpt lat="43.45638" lon="2.54">
        <ele>366.8</ele>
        <time>2026-05-23T06:29:49Z</time>
      </trkpt>
      <trkpt lat="43.45636" lon="2.54">
        <ele>367.3</ele>
        <time>2026-05-23T06:29:54Z</time>
      </trkpt>
      <trkpt lat="43.45632" lon="2.53999">
        <ele>368.1</ele>
        <time>2026-05-23T06:29:59Z</time>
      </trkpt>
      <trkpt lat="43.45627" lon="2.53997">
        <ele>369.2</ele>
        <time>2026-05-23T06:30:04Z</time>
      </trkpt>
      <trkpt lat="43.45623" lon="2.53993">
        <ele>370.1</ele>
        <time>2026-05-23T06:30:09Z</time>
      </trkpt>
      <trkpt lat="43.45618" lon="2.5399">
        <ele>371.2</ele>
        <time>2026-05-23T06:30:14Z</time>
      </trkpt>
      <trkpt lat="43.45613" lon="2.53988">
        <ele>372.2</ele>
        <time>2026-05-23T06:30:19Z</time>
      </trkpt>
      <trkpt lat="43.45609" lon="2.53984">
        <ele>373.1</ele>
        <time>2026-05-23T06:30:24Z</time>
      </trkpt>
      <trkpt lat="43.45607" lon="2.53977">
        <ele>373.7</ele>
        <time>2026-05-23T06:30:29Z</time>
      </trkpt>
      <trkpt lat="43.45602" lon="2.53972">
        <ele>374.9</ele>
        <time>2026-05-23T06:30:34Z</time>
      </trkpt>
      <trkpt lat="43.45599" lon="2.53966">
        <ele>375.6</ele>
        <time>2026-05-23T06:30:39Z</time>
      </trkpt>
      <trkpt lat="43.45597" lon="2.5396">
        <ele>376.2</ele>
        <time>2026-05-23T06:30:44Z</time>
      </trkpt>
      <trkpt lat="43.45596" lon="2.53954">
        <ele>376.5</ele>
        <time>2026-05-23T06:30:49Z</time>
      </trkpt>
      <trkpt lat="43.45596" lon="2.5395">
        <ele>376.6</ele>
        <time>2026-05-23T06:30:54Z</time>
      </trkpt>
      <trkpt lat="43.45598" lon="2.53946">
        <ele>376.3</ele>
        <time>2026-05-23T06:30:59Z</time>
      </trkpt>
      <trkpt lat="43.45598" lon="2.53945">
        <ele>376.3</ele>
        <time>2026-05-23T06:31:04Z</time>
      </trkpt>
      <trkpt lat="43.45597" lon="2.53944">
        <ele>376.6</ele>
        <time>2026-05-23T06:31:09Z</time>
      </trkpt>
      <trkpt lat="43.45591" lon="2.53941">
        <ele>377.9</ele>
        <time>2026-05-23T06:31:14Z</time>
      </trkpt>
      <trkpt lat="43.45587" lon="2.53935">
        <ele>378.8</ele>
        <time>2026-05-23T06:31:19Z</time>
      </trkpt>
      <trkpt lat="43.45585" lon="2.53929">
        <ele>379.4</ele>
        <time>2026-05-23T06:31:24Z</time>
      </trkpt>
      <trkpt lat="43.45583" lon="2.53923">
        <ele>380</ele>
        <time>2026-05-23T06:31:29Z</time>
      </trkpt>
      <trkpt lat="43.4558" lon="2.53917">
        <ele>381.2</ele>
        <time>2026-05-23T06:31:34Z</time>
      </trkpt>
      <trkpt lat="43.45577" lon="2.53911">
        <ele>382.7</ele>
        <time>2026-05-23T06:31:39Z</time>
      </trkpt>
      <trkpt lat="43.45576" lon="2.53905">
        <ele>383.4</ele>
        <time>2026-05-23T06:31:44Z</time>
      </trkpt>
      <trkpt lat="43.45573" lon="2.53899">
        <ele>384.9</ele>
        <time>2026-05-23T06:31:49Z</time>
      </trkpt>
      <trkpt lat="43.45571" lon="2.53891">
        <ele>386.2</ele>
        <time>2026-05-23T06:31:54Z</time>
      </trkpt>
      <trkpt lat="43.45567" lon="2.53887">
        <ele>387.8</ele>
        <time>2026-05-23T06:31:59Z</time>
      </trkpt>
      <trkpt lat="43.45564" lon="2.5388">
        <ele>389.3</ele>
        <time>2026-05-23T06:32:04Z</time>
      </trkpt>
      <trkpt lat="43.45562" lon="2.53873">
        <ele>390.4</ele>
        <time>2026-05-23T06:32:09Z</time>
      </trkpt>
      <trkpt lat="43.45559" lon="2.53866">
        <ele>391.9</ele>
        <time>2026-05-23T06:32:14Z</time>
      </trkpt>
      <trkpt lat="43.45557" lon="2.53861">
        <ele>392.9</ele>
        <time>2026-05-23T06:32:19Z</time>
      </trkpt>
      <trkpt lat="43.45555" lon="2.53855">
        <ele>393.9</ele>
        <time>2026-05-23T06:32:24Z</time>
      </trkpt>
      <trkpt lat="43.45552" lon="2.53849">
        <ele>395.2</ele>
        <time>2026-05-23T06:32:29Z</time>
      </trkpt>
      <trkpt lat="43.45548" lon="2.53844">
        <ele>396.8</ele>
        <time>2026-05-23T06:32:34Z</time>
      </trkpt>
      <trkpt lat="43.45545" lon="2.53837">
        <ele>398.2</ele>
        <time>2026-05-23T06:32:39Z</time>
      </trkpt>
      <trkpt lat="43.45543" lon="2.53831">
        <ele>399.2</ele>
        <time>2026-05-23T06:32:44Z</time>
      </trkpt>
      <trkpt lat="43.45541" lon="2.53824">
        <ele>400.3</ele>
        <time>2026-05-23T06:32:49Z</time>
      </trkpt>
      <trkpt lat="43.45538" lon="2.53818">
        <ele>401.7</ele>
        <time>2026-05-23T06:32:54Z</time>
      </trkpt>
      <trkpt lat="43.45536" lon="2.5381">
        <ele>403</ele>
        <time>2026-05-23T06:32:59Z</time>
      </trkpt>
      <trkpt lat="43.45534" lon="2.53801">
        <ele>404.3</ele>
        <time>2026-05-23T06:33:04Z</time>
      </trkpt>
      <trkpt lat="43.45533" lon="2.53794">
        <ele>405.1</ele>
        <time>2026-05-23T06:33:09Z</time>
      </trkpt>
      <trkpt lat="43.45531" lon="2.53786">
        <ele>406.4</ele>
        <time>2026-05-23T06:33:14Z</time>
      </trkpt>
      <trkpt lat="43.45529" lon="2.53779">
        <ele>407.7</ele>
        <time>2026-05-23T06:33:19Z</time>
      </trkpt>
      <trkpt lat="43.45527" lon="2.53771">
        <ele>409</ele>
        <time>2026-05-23T06:33:24Z</time>
      </trkpt>
      <trkpt lat="43.45525" lon="2.53762">
        <ele>410.5</ele>
        <time>2026-05-23T06:33:29Z</time>
      </trkpt>
      <trkpt lat="43.45523" lon="2.53756">
        <ele>411.7</ele>
        <time>2026-05-23T06:33:34Z</time>
      </trkpt>
      <trkpt lat="43.45522" lon="2.53747">
        <ele>412.7</ele>
        <time>2026-05-23T06:33:39Z</time>
      </trkpt>
      <trkpt lat="43.45522" lon="2.53741">
        <ele>413</ele>
        <time>2026-05-23T06:33:44Z</time>
      </trkpt>
      <trkpt lat="43.45522" lon="2.53735">
        <ele>413.3</ele>
        <time>2026-05-23T06:33:49Z</time>
      </trkpt>
      <trkpt lat="43.4552" lon="2.53729">
        <ele>414.3</ele>
        <time>2026-05-23T06:33:54Z</time>
      </trkpt>
      <trkpt lat="43.45518" lon="2.53724">
        <ele>415.3</ele>
        <time>2026-05-23T06:33:59Z</time>
      </trkpt>
      <trkpt lat="43.45517" lon="2.53725">
        <ele>415.7</ele>
        <time>2026-05-23T06:34:04Z</time>
      </trkpt>
      <trkpt lat="43.45514" lon="2.53721">
        <ele>417</ele>
        <time>2026-05-23T06:34:09Z</time>
      </trkpt>
      <trkpt lat="43.45513" lon="2.53715">
        <ele>417.7</ele>
        <time>2026-05-23T06:34:14Z</time>
      </trkpt>
      <trkpt lat="43.45512" lon="2.53707">
        <ele>418.5</ele>
        <time>2026-05-23T06:34:19Z</time>
      </trkpt>
      <trkpt lat="43.45511" lon="2.53701">
        <ele>419.1</ele>
        <time>2026-05-23T06:34:24Z</time>
      </trkpt>
      <trkpt lat="43.4551" lon="2.53695">
        <ele>419.8</ele>
        <time>2026-05-23T06:34:29Z</time>
      </trkpt>
      <trkpt lat="43.45508" lon="2.53691">
        <ele>420.8</ele>
        <time>2026-05-23T06:34:34Z</time>
      </trkpt>
      <trkpt lat="43.45506" lon="2.53685">
        <ele>421.8</ele>
        <time>2026-05-23T06:34:39Z</time>
      </trkpt>
      <trkpt lat="43.45506" lon="2.53679">
        <ele>422.1</ele>
        <time>2026-05-23T06:34:44Z</time>
      </trkpt>
      <trkpt lat="43.45503" lon="2.53673">
        <ele>423.5</ele>
        <time>2026-05-23T06:34:49Z</time>
      </trkpt>
      <trkpt lat="43.45501" lon="2.53668">
        <ele>424.6</ele>
        <time>2026-05-23T06:34:54Z</time>
      </trkpt>
      <trkpt lat="43.455" lon="2.53662">
        <ele>424.4</ele>
        <time>2026-05-23T06:34:59Z</time>
      </trkpt>
      <trkpt lat="43.45498" lon="2.53656">
        <ele>424.3</ele>
        <time>2026-05-23T06:35:04Z</time>
      </trkpt>
      <trkpt lat="43.45496" lon="2.53647">
        <ele>423.9</ele>
        <time>2026-05-23T06:35:09Z</time>
      </trkpt>
      <trkpt lat="43.45495" lon="2.5364">
        <ele>423.4</ele>
        <time>2026-05-23T06:35:14Z</time>
      </trkpt>
      <trkpt lat="43.45493" lon="2.53633">
        <ele>423.2</ele>
        <time>2026-05-23T06:35:19Z</time>
      </trkpt>
      <trkpt lat="43.45491" lon="2.53626">
        <ele>423.1</ele>
        <time>2026-05-23T06:35:24Z</time>
      </trkpt>
      <trkpt lat="43.45489" lon="2.53619">
        <ele>423</ele>
        <time>2026-05-23T06:35:29Z</time>
      </trkpt>
      <trkpt lat="43.45487" lon="2.53613">
        <ele>423.1</ele>
        <time>2026-05-23T06:35:34Z</time>
      </trkpt>
      <trkpt lat="43.45484" lon="2.53607">
        <ele>423.6</ele>
        <time>2026-05-23T06:35:39Z</time>
      </trkpt>
      <trkpt lat="43.45481" lon="2.53602">
        <ele>424.2</ele>
        <time>2026-05-23T06:35:44Z</time>
      </trkpt>
      <trkpt lat="43.45477" lon="2.53597">
        <ele>425.2</ele>
        <time>2026-05-23T06:35:49Z</time>
      </trkpt>
      <trkpt lat="43.45475" lon="2.53591">
        <ele>425.4</ele>
        <time>2026-05-23T06:35:54Z</time>
      </trkpt>
      <trkpt lat="43.45471" lon="2.53586">
        <ele>426.5</ele>
        <time>2026-05-23T06:35:59Z</time>
      </trkpt>
      <trkpt lat="43.45469" lon="2.53579">
        <ele>426.6</ele>
        <time>2026-05-23T06:36:04Z</time>
      </trkpt>
      <trkpt lat="43.45469" lon="2.53574">
        <ele>426.2</ele>
        <time>2026-05-23T06:36:09Z</time>
      </trkpt>
      <trkpt lat="43.4547" lon="2.53571">
        <ele>425.5</ele>
        <time>2026-05-23T06:36:14Z</time>
      </trkpt>
      <trkpt lat="43.4547" lon="2.53571">
        <ele>425.5</ele>
        <time>2026-05-23T06:36:19Z</time>
      </trkpt>
      <trkpt lat="43.4547" lon="2.53571">
        <ele>425.5</ele>
        <time>2026-05-23T06:36:24Z</time>
      </trkpt>
      <trkpt lat="43.4547" lon="2.53571">
        <ele>425.5</ele>
        <time>2026-05-23T06:36:29Z</time>
      </trkpt>
      <trkpt lat="43.45469" lon="2.53569">
        <ele>425.7</ele>
        <time>2026-05-23T06:36:34Z</time>
      </trkpt>
      <trkpt lat="43.45464" lon="2.53566">
        <ele>427.5</ele>
        <time>2026-05-23T06:36:39Z</time>
      </trkpt>
      <trkpt lat="43.4546" lon="2.53562">
        <ele>428.9</ele>
        <time>2026-05-23T06:36:44Z</time>
      </trkpt>
      <trkpt lat="43.45457" lon="2.53557">
        <ele>429.7</ele>
        <time>2026-05-23T06:36:49Z</time>
      </trkpt>
      <trkpt lat="43.45454" lon="2.53552">
        <ele>430.5</ele>
        <time>2026-05-23T06:36:54Z</time>
      </trkpt>
      <trkpt lat="43.4545" lon="2.53547">
        <ele>431.8</ele>
        <time>2026-05-23T06:36:59Z</time>
      </trkpt>
      <trkpt lat="43.45446" lon="2.53541">
        <ele>432.9</ele>
        <time>2026-05-23T06:37:04Z</time>
      </trkpt>
      <trkpt lat="43.45442" lon="2.53536">
        <ele>434.2</ele>
        <time>2026-05-23T06:37:09Z</time>
      </trkpt>
      <trkpt lat="43.45439" lon="2.53531">
        <ele>435.1</ele>
        <time>2026-05-23T06:37:14Z</time>
      </trkpt>
      <trkpt lat="43.45436" lon="2.53528">
        <ele>436.1</ele>
        <time>2026-05-23T06:37:19Z</time>
      </trkpt>
      <trkpt lat="43.45432" lon="2.53522">
        <ele>437.3</ele>
        <time>2026-05-23T06:37:24Z</time>
      </trkpt>
      <trkpt lat="43.45428" lon="2.53515">
        <ele>438.4</ele>
        <time>2026-05-23T06:37:29Z</time>
      </trkpt>
      <trkpt lat="43.45423" lon="2.53509">
        <ele>440</ele>
        <time>2026-05-23T06:37:34Z</time>
      </trkpt>
      <trkpt lat="43.45419" lon="2.53502">
        <ele>441.2</ele>
        <time>2026-05-23T06:37:39Z</time>
      </trkpt>
      <trkpt lat="43.45416" lon="2.53496">
        <ele>441.8</ele>
        <time>2026-05-23T06:37:44Z</time>
      </trkpt>
      <trkpt lat="43.45413" lon="2.53487">
        <ele>442</ele>
        <time>2026-05-23T06:37:49Z</time>
      </trkpt>
      <trkpt lat="43.4541" lon="2.5348">
        <ele>442.5</ele>
        <time>2026-05-23T06:37:54Z</time>
      </trkpt>
      <trkpt lat="43.45407" lon="2.53474">
        <ele>443</ele>
        <time>2026-05-23T06:37:59Z</time>
      </trkpt>
      <trkpt lat="43.45405" lon="2.53469">
        <ele>443.3</ele>
        <time>2026-05-23T06:38:04Z</time>
      </trkpt>
      <trkpt lat="43.45403" lon="2.53463">
        <ele>443.4</ele>
        <time>2026-05-23T06:38:09Z</time>
      </trkpt>
      <trkpt lat="43.454" lon="2.53456">
        <ele>443.8</ele>
        <time>2026-05-23T06:38:14Z</time>
      </trkpt>
      <trkpt lat="43.45397" lon="2.5345">
        <ele>444.4</ele>
        <time>2026-05-23T06:38:19Z</time>
      </trkpt>
      <trkpt lat="43.45396" lon="2.53445">
        <ele>444.2</ele>
        <time>2026-05-23T06:38:24Z</time>
      </trkpt>
      <trkpt lat="43.45393" lon="2.53439">
        <ele>444.7</ele>
        <time>2026-05-23T06:38:29Z</time>
      </trkpt>
      <trkpt lat="43.4539" lon="2.53433">
        <ele>445.2</ele>
        <time>2026-05-23T06:38:34Z</time>
      </trkpt>
      <trkpt lat="43.45387" lon="2.53425">
        <ele>445.5</ele>
        <time>2026-05-23T06:38:39Z</time>
      </trkpt>
      <trkpt lat="43.45384" lon="2.53416">
        <ele>445.6</ele>
        <time>2026-05-23T06:38:44Z</time>
      </trkpt>
      <trkpt lat="43.4538" lon="2.53409">
        <ele>446.4</ele>
        <time>2026-05-23T06:38:49Z</time>
      </trkpt>
      <trkpt lat="43.45377" lon="2.53403">
        <ele>446.8</ele>
        <time>2026-05-23T06:38:54Z</time>
      </trkpt>
      <trkpt lat="43.45374" lon="2.53398">
        <ele>447.3</ele>
        <time>2026-05-23T06:38:59Z</time>
      </trkpt>
      <trkpt lat="43.4537" lon="2.53393">
        <ele>448.2</ele>
        <time>2026-05-23T06:39:04Z</time>
      </trkpt>
      <trkpt lat="43.45366" lon="2.53387">
        <ele>449</ele>
        <time>2026-05-23T06:39:09Z</time>
      </trkpt>
      <trkpt lat="43.45362" lon="2.53382">
        <ele>449.9</ele>
        <time>2026-05-23T06:39:14Z</time>
      </trkpt>
      <trkpt lat="43.45359" lon="2.53376">
        <ele>450.1</ele>
        <time>2026-05-23T06:39:19Z</time>
      </trkpt>
      <trkpt lat="43.45355" lon="2.53372">
        <ele>451.1</ele>
        <time>2026-05-23T06:39:24Z</time>
      </trkpt>
      <trkpt lat="43.4535" lon="2.53368">
        <ele>452.4</ele>
        <time>2026-05-23T06:39:29Z</time>
      </trkpt>
      <trkpt lat="43.45345" lon="2.53364">
        <ele>453.7</ele>
        <time>2026-05-23T06:39:34Z</time>
      </trkpt>
      <trkpt lat="43.4534" lon="2.53361">
        <ele>455.1</ele>
        <time>2026-05-23T06:39:39Z</time>
      </trkpt>
      <trkpt lat="43.45335" lon="2.53356">
        <ele>456.2</ele>
        <time>2026-05-23T06:39:44Z</time>
      </trkpt>
      <trkpt lat="43.45331" lon="2.53353">
        <ele>457.5</ele>
        <time>2026-05-23T06:39:49Z</time>
      </trkpt>
      <trkpt lat="43.4533" lon="2.53349">
        <ele>457.3</ele>
        <time>2026-05-23T06:39:54Z</time>
      </trkpt>
      <trkpt lat="43.4533" lon="2.5335">
        <ele>457.4</ele>
        <time>2026-05-23T06:39:59Z</time>
      </trkpt>
      <trkpt lat="43.4533" lon="2.5335">
        <ele>457.4</ele>
        <time>2026-05-23T06:40:04Z</time>
      </trkpt>
      <trkpt lat="43.4533" lon="2.5335">
        <ele>457.4</ele>
        <time>2026-05-23T06:40:09Z</time>
      </trkpt>
      <trkpt lat="43.45333" lon="2.53351">
        <ele>456.1</ele>
        <time>2026-05-23T06:40:14Z</time>
      </trkpt>
      <trkpt lat="43.45337" lon="2.53355">
        <ele>455.3</ele>
        <time>2026-05-23T06:40:19Z</time>
      </trkpt>
      <trkpt lat="43.4534" lon="2.5336">
        <ele>455</ele>
        <time>2026-05-23T06:40:24Z</time>
      </trkpt>
      <trkpt lat="43.45345" lon="2.53362">
        <ele>453.4</ele>
        <time>2026-05-23T06:40:29Z</time>
      </trkpt>
      <trkpt lat="43.45348" lon="2.53358">
        <ele>451.6</ele>
        <time>2026-05-23T06:40:34Z</time>
      </trkpt>
      <trkpt lat="43.45346" lon="2.53352">
        <ele>451.4</ele>
        <time>2026-05-23T06:40:39Z</time>
      </trkpt>
      <trkpt lat="43.45344" lon="2.53344">
        <ele>450.9</ele>
        <time>2026-05-23T06:40:44Z</time>
      </trkpt>
      <trkpt lat="43.45343" lon="2.53335">
        <ele>449.8</ele>
        <time>2026-05-23T06:40:49Z</time>
      </trkpt>
      <trkpt lat="43.45343" lon="2.53327">
        <ele>448.4</ele>
        <time>2026-05-23T06:40:54Z</time>
      </trkpt>
      <trkpt lat="43.45343" lon="2.53318">
        <ele>446.8</ele>
        <time>2026-05-23T06:40:59Z</time>
      </trkpt>
      <trkpt lat="43.45341" lon="2.5331">
        <ele>446.1</ele>
        <time>2026-05-23T06:41:04Z</time>
      </trkpt>
      <trkpt lat="43.45338" lon="2.53303">
        <ele>445.9</ele>
        <time>2026-05-23T06:41:09Z</time>
      </trkpt>
      <trkpt lat="43.45333" lon="2.533">
        <ele>447.1</ele>
        <time>2026-05-23T06:41:14Z</time>
      </trkpt>
      <trkpt lat="43.45329" lon="2.53298">
        <ele>448.5</ele>
        <time>2026-05-23T06:41:19Z</time>
      </trkpt>
      <trkpt lat="43.45324" lon="2.53294">
        <ele>449.9</ele>
        <time>2026-05-23T06:41:24Z</time>
      </trkpt>
      <trkpt lat="43.4532" lon="2.53292">
        <ele>451.2</ele>
        <time>2026-05-23T06:41:29Z</time>
      </trkpt>
      <trkpt lat="43.45316" lon="2.53289">
        <ele>452.3</ele>
        <time>2026-05-23T06:41:34Z</time>
      </trkpt>
      <trkpt lat="43.45311" lon="2.53285">
        <ele>453.6</ele>
        <time>2026-05-23T06:41:39Z</time>
      </trkpt>
      <trkpt lat="43.45307" lon="2.53281">
        <ele>454.4</ele>
        <time>2026-05-23T06:41:44Z</time>
      </trkpt>
      <trkpt lat="43.45304" lon="2.53277">
        <ele>454.7</ele>
        <time>2026-05-23T06:41:49Z</time>
      </trkpt>
      <trkpt lat="43.453" lon="2.53272">
        <ele>455.1</ele>
        <time>2026-05-23T06:41:54Z</time>
      </trkpt>
      <trkpt lat="43.45295" lon="2.53268">
        <ele>456.1</ele>
        <time>2026-05-23T06:41:59Z</time>
      </trkpt>
      <trkpt lat="43.45291" lon="2.53265">
        <ele>456.9</ele>
        <time>2026-05-23T06:42:04Z</time>
      </trkpt>
      <trkpt lat="43.45288" lon="2.53263">
        <ele>457.6</ele>
        <time>2026-05-23T06:42:09Z</time>
      </trkpt>
      <trkpt lat="43.45286" lon="2.53262">
        <ele>458.1</ele>
        <time>2026-05-23T06:42:14Z</time>
      </trkpt>
      <trkpt lat="43.45283" lon="2.5326">
        <ele>458.7</ele>
        <time>2026-05-23T06:42:19Z</time>
      </trkpt>
      <trkpt lat="43.45278" lon="2.53254">
        <ele>459</ele>
        <time>2026-05-23T06:42:24Z</time>
      </trkpt>
      <trkpt lat="43.45273" lon="2.53249">
        <ele>459.4</ele>
        <time>2026-05-23T06:42:29Z</time>
      </trkpt>
      <trkpt lat="43.45268" lon="2.53242">
        <ele>459.3</ele>
        <time>2026-05-23T06:42:34Z</time>
      </trkpt>
      <trkpt lat="43.45265" lon="2.53239">
        <ele>459.5</ele>
        <time>2026-05-23T06:42:39Z</time>
      </trkpt>
      <trkpt lat="43.45262" lon="2.53236">
        <ele>459.7</ele>
        <time>2026-05-23T06:42:44Z</time>
      </trkpt>
      <trkpt lat="43.45258" lon="2.53233">
        <ele>460.3</ele>
        <time>2026-05-23T06:42:49Z</time>
      </trkpt>
      <trkpt lat="43.45254" lon="2.53231">
        <ele>461.1</ele>
        <time>2026-05-23T06:42:54Z</time>
      </trkpt>
      <trkpt lat="43.45252" lon="2.53227">
        <ele>460.7</ele>
        <time>2026-05-23T06:42:59Z</time>
      </trkpt>
      <trkpt lat="43.45252" lon="2.53226">
        <ele>460.4</ele>
        <time>2026-05-23T06:43:04Z</time>
      </trkpt>
      <trkpt lat="43.45252" lon="2.53226">
        <ele>460.4</ele>
        <time>2026-05-23T06:43:09Z</time>
      </trkpt>
      <trkpt lat="43.45248" lon="2.53218">
        <ele>459.2</ele>
        <time>2026-05-23T06:43:14Z</time>
      </trkpt>
      <trkpt lat="43.45243" lon="2.53211">
        <ele>458.3</ele>
        <time>2026-05-23T06:43:19Z</time>
      </trkpt>
      <trkpt lat="43.45238" lon="2.53205">
        <ele>457.6</ele>
        <time>2026-05-23T06:43:24Z</time>
      </trkpt>
      <trkpt lat="43.45233" lon="2.53198">
        <ele>456.6</ele>
        <time>2026-05-23T06:43:29Z</time>
      </trkpt>
      <trkpt lat="43.45228" lon="2.53195">
        <ele>456.7</ele>
        <time>2026-05-23T06:43:34Z</time>
      </trkpt>
      <trkpt lat="43.45223" lon="2.53191">
        <ele>456.6</ele>
        <time>2026-05-23T06:43:39Z</time>
      </trkpt>
      <trkpt lat="43.45219" lon="2.53191">
        <ele>457.4</ele>
        <time>2026-05-23T06:43:44Z</time>
      </trkpt>
      <trkpt lat="43.45215" lon="2.53191">
        <ele>458.2</ele>
        <time>2026-05-23T06:43:49Z</time>
      </trkpt>
      <trkpt lat="43.45211" lon="2.53189">
        <ele>458.4</ele>
        <time>2026-05-23T06:43:54Z</time>
      </trkpt>
      <trkpt lat="43.45207" lon="2.53187">
        <ele>458.6</ele>
        <time>2026-05-23T06:43:59Z</time>
      </trkpt>
      <trkpt lat="43.45203" lon="2.53186">
        <ele>459.1</ele>
        <time>2026-05-23T06:44:04Z</time>
      </trkpt>
      <trkpt lat="43.45197" lon="2.53185">
        <ele>460</ele>
        <time>2026-05-23T06:44:09Z</time>
      </trkpt>
      <trkpt lat="43.45193" lon="2.53183">
        <ele>460.2</ele>
        <time>2026-05-23T06:44:14Z</time>
      </trkpt>
      <trkpt lat="43.45189" lon="2.53182">
        <ele>460.7</ele>
        <time>2026-05-23T06:44:19Z</time>
      </trkpt>
      <trkpt lat="43.45187" lon="2.53178">
        <ele>459.8</ele>
        <time>2026-05-23T06:44:24Z</time>
      </trkpt>
      <trkpt lat="43.45184" lon="2.53174">
        <ele>459.1</ele>
        <time>2026-05-23T06:44:29Z</time>
      </trkpt>
      <trkpt lat="43.45184" lon="2.53174">
        <ele>459.1</ele>
        <time>2026-05-23T06:44:34Z</time>
      </trkpt>
      <trkpt lat="43.45184" lon="2.53174">
        <ele>459.1</ele>
        <time>2026-05-23T06:44:39Z</time>
      </trkpt>
      <trkpt lat="43.45176" lon="2.53171">
        <ele>459.6</ele>
        <time>2026-05-23T06:44:44Z</time>
      </trkpt>
      <trkpt lat="43.45172" lon="2.5317">
        <ele>460.1</ele>
        <time>2026-05-23T06:44:49Z</time>
      </trkpt>
      <trkpt lat="43.45167" lon="2.53168">
        <ele>460.4</ele>
        <time>2026-05-23T06:44:54Z</time>
      </trkpt>
      <trkpt lat="43.45164" lon="2.53166">
        <ele>460.6</ele>
        <time>2026-05-23T06:44:59Z</time>
      </trkpt>
      <trkpt lat="43.45161" lon="2.53166">
        <ele>461.4</ele>
        <time>2026-05-23T06:45:04Z</time>
      </trkpt>
      <trkpt lat="43.45158" lon="2.53163">
        <ele>461.5</ele>
        <time>2026-05-23T06:45:09Z</time>
      </trkpt>
      <trkpt lat="43.45154" lon="2.53161">
        <ele>462.1</ele>
        <time>2026-05-23T06:45:14Z</time>
      </trkpt>
      <trkpt lat="43.45154" lon="2.53159">
        <ele>461.6</ele>
        <time>2026-05-23T06:45:19Z</time>
      </trkpt>
      <trkpt lat="43.45154" lon="2.53159">
        <ele>461.6</ele>
        <time>2026-05-23T06:45:24Z</time>
      </trkpt>
      <trkpt lat="43.45148" lon="2.53156">
        <ele>462.5</ele>
        <time>2026-05-23T06:45:29Z</time>
      </trkpt>
      <trkpt lat="43.45145" lon="2.53154">
        <ele>462.9</ele>
        <time>2026-05-23T06:45:34Z</time>
      </trkpt>
      <trkpt lat="43.45141" lon="2.53154">
        <ele>463.9</ele>
        <time>2026-05-23T06:45:39Z</time>
      </trkpt>
      <trkpt lat="43.45136" lon="2.53151">
        <ele>464.5</ele>
        <time>2026-05-23T06:45:44Z</time>
      </trkpt>
      <trkpt lat="43.45133" lon="2.53149">
        <ele>464.8</ele>
        <time>2026-05-23T06:45:49Z</time>
      </trkpt>
      <trkpt lat="43.45129" lon="2.53147">
        <ele>465.4</ele>
        <time>2026-05-23T06:45:54Z</time>
      </trkpt>
      <trkpt lat="43.45125" lon="2.53147">
        <ele>466.4</ele>
        <time>2026-05-23T06:45:59Z</time>
      </trkpt>
      <trkpt lat="43.45122" lon="2.53144">
        <ele>466.5</ele>
        <time>2026-05-23T06:46:04Z</time>
      </trkpt>
      <trkpt lat="43.45117" lon="2.53141">
        <ele>467</ele>
        <time>2026-05-23T06:46:09Z</time>
      </trkpt>
      <trkpt lat="43.45113" lon="2.53138">
        <ele>467.3</ele>
        <time>2026-05-23T06:46:14Z</time>
      </trkpt>
      <trkpt lat="43.45108" lon="2.53135">
        <ele>467.8</ele>
        <time>2026-05-23T06:46:19Z</time>
      </trkpt>
      <trkpt lat="43.45102" lon="2.53133">
        <ele>468.9</ele>
        <time>2026-05-23T06:46:24Z</time>
      </trkpt>
      <trkpt lat="43.45099" lon="2.53131">
        <ele>469.1</ele>
        <time>2026-05-23T06:46:29Z</time>
      </trkpt>
      <trkpt lat="43.45099" lon="2.53131">
        <ele>469.1</ele>
        <time>2026-05-23T06:46:34Z</time>
      </trkpt>
      <trkpt lat="43.45099" lon="2.53131">
        <ele>469.1</ele>
        <time>2026-05-23T06:46:39Z</time>
      </trkpt>
      <trkpt lat="43.45099" lon="2.53131">
        <ele>469.1</ele>
        <time>2026-05-23T06:46:44Z</time>
      </trkpt>
      <trkpt lat="43.45094" lon="2.53129">
        <ele>469.9</ele>
        <time>2026-05-23T06:46:49Z</time>
      </trkpt>
      <trkpt lat="43.45086" lon="2.53125">
        <ele>470.8</ele>
        <time>2026-05-23T06:46:54Z</time>
      </trkpt>
      <trkpt lat="43.45082" lon="2.53124">
        <ele>471.7</ele>
        <time>2026-05-23T06:46:59Z</time>
      </trkpt>
      <trkpt lat="43.45078" lon="2.53126">
        <ele>473.5</ele>
        <time>2026-05-23T06:47:04Z</time>
      </trkpt>
      <trkpt lat="43.45075" lon="2.53128">
        <ele>475</ele>
        <time>2026-05-23T06:47:09Z</time>
      </trkpt>
      <trkpt lat="43.45072" lon="2.53129">
        <ele>476.3</ele>
        <time>2026-05-23T06:47:14Z</time>
      </trkpt>
      <trkpt lat="43.45068" lon="2.53133">
        <ele>478.6</ele>
        <time>2026-05-23T06:47:19Z</time>
      </trkpt>
      <trkpt lat="43.45064" lon="2.53136">
        <ele>480.7</ele>
        <time>2026-05-23T06:47:24Z</time>
      </trkpt>
      <trkpt lat="43.45059" lon="2.53139">
        <ele>483.2</ele>
        <time>2026-05-23T06:47:29Z</time>
      </trkpt>
      <trkpt lat="43.45054" lon="2.53141">
        <ele>485.4</ele>
        <time>2026-05-23T06:47:34Z</time>
      </trkpt>
      <trkpt lat="43.45049" lon="2.53139">
        <ele>486.6</ele>
        <time>2026-05-23T06:47:39Z</time>
      </trkpt>
      <trkpt lat="43.45046" lon="2.53136">
        <ele>486.8</ele>
        <time>2026-05-23T06:47:44Z</time>
      </trkpt>
      <trkpt lat="43.45042" lon="2.53133">
        <ele>487.3</ele>
        <time>2026-05-23T06:47:49Z</time>
      </trkpt>
      <trkpt lat="43.45038" lon="2.53129">
        <ele>487.5</ele>
        <time>2026-05-23T06:47:54Z</time>
      </trkpt>
      <trkpt lat="43.45035" lon="2.53126">
        <ele>487.7</ele>
        <time>2026-05-23T06:47:59Z</time>
      </trkpt>
      <trkpt lat="43.45033" lon="2.53126">
        <ele>488.4</ele>
        <time>2026-05-23T06:48:04Z</time>
      </trkpt>
      <trkpt lat="43.45033" lon="2.53126">
        <ele>488.4</ele>
        <time>2026-05-23T06:48:09Z</time>
      </trkpt>
      <trkpt lat="43.45033" lon="2.53126">
        <ele>488.4</ele>
        <time>2026-05-23T06:48:14Z</time>
      </trkpt>
      <trkpt lat="43.45029" lon="2.53119">
        <ele>487.8</ele>
        <time>2026-05-23T06:48:19Z</time>
      </trkpt>
      <trkpt lat="43.45027" lon="2.53113">
        <ele>486.8</ele>
        <time>2026-05-23T06:48:24Z</time>
      </trkpt>
      <trkpt lat="43.45025" lon="2.53108">
        <ele>486</ele>
        <time>2026-05-23T06:48:29Z</time>
      </trkpt>
      <trkpt lat="43.4502" lon="2.53104">
        <ele>486.5</ele>
        <time>2026-05-23T06:48:34Z</time>
      </trkpt>
      <trkpt lat="43.45017" lon="2.531">
        <ele>486.4</ele>
        <time>2026-05-23T06:48:39Z</time>
      </trkpt>
      <trkpt lat="43.45013" lon="2.53097">
        <ele>486.8</ele>
        <time>2026-05-23T06:48:44Z</time>
      </trkpt>
      <trkpt lat="43.4501" lon="2.53094">
        <ele>486.9</ele>
        <time>2026-05-23T06:48:49Z</time>
      </trkpt>
      <trkpt lat="43.45004" lon="2.53089">
        <ele>487.4</ele>
        <time>2026-05-23T06:48:54Z</time>
      </trkpt>
      <trkpt lat="43.44999" lon="2.53084">
        <ele>487.5</ele>
        <time>2026-05-23T06:48:59Z</time>
      </trkpt>
      <trkpt lat="43.44993" lon="2.5308">
        <ele>488.4</ele>
        <time>2026-05-23T06:49:04Z</time>
      </trkpt>
      <trkpt lat="43.44989" lon="2.53077">
        <ele>488.9</ele>
        <time>2026-05-23T06:49:09Z</time>
      </trkpt>
      <trkpt lat="43.44985" lon="2.53076">
        <ele>489.9</ele>
        <time>2026-05-23T06:49:14Z</time>
      </trkpt>
      <trkpt lat="43.4498" lon="2.53073">
        <ele>490.6</ele>
        <time>2026-05-23T06:49:19Z</time>
      </trkpt>
      <trkpt lat="43.44974" lon="2.53073">
        <ele>492.6</ele>
        <time>2026-05-23T06:49:24Z</time>
      </trkpt>
      <trkpt lat="43.44966" lon="2.53073">
        <ele>495.2</ele>
        <time>2026-05-23T06:49:29Z</time>
      </trkpt>
      <trkpt lat="43.44961" lon="2.53074">
        <ele>497.1</ele>
        <time>2026-05-23T06:49:34Z</time>
      </trkpt>
      <trkpt lat="43.44958" lon="2.53075">
        <ele>498.4</ele>
        <time>2026-05-23T06:49:39Z</time>
      </trkpt>
      <trkpt lat="43.44956" lon="2.53076">
        <ele>499.4</ele>
        <time>2026-05-23T06:49:44Z</time>
      </trkpt>
      <trkpt lat="43.44954" lon="2.53078">
        <ele>500.7</ele>
        <time>2026-05-23T06:49:49Z</time>
      </trkpt>
      <trkpt lat="43.44953" lon="2.53078">
        <ele>501</ele>
        <time>2026-05-23T06:49:54Z</time>
      </trkpt>
      <trkpt lat="43.44953" lon="2.53078">
        <ele>501</ele>
        <time>2026-05-23T06:49:59Z</time>
      </trkpt>
      <trkpt lat="43.44953" lon="2.53078">
        <ele>501</ele>
        <time>2026-05-23T06:50:04Z</time>
      </trkpt>
      <trkpt lat="43.4495" lon="2.53057">
        <ele>495</ele>
        <time>2026-05-23T06:50:09Z</time>
      </trkpt>
      <trkpt lat="43.44951" lon="2.53049">
        <ele>492</ele>
        <time>2026-05-23T06:50:14Z</time>
      </trkpt>
      <trkpt lat="43.44951" lon="2.53044">
        <ele>490.4</ele>
        <time>2026-05-23T06:50:19Z</time>
      </trkpt>
      <trkpt lat="43.44949" lon="2.53038">
        <ele>489</ele>
        <time>2026-05-23T06:50:24Z</time>
      </trkpt>
      <trkpt lat="43.44948" lon="2.53037">
        <ele>488.9</ele>
        <time>2026-05-23T06:50:29Z</time>
      </trkpt>
      <trkpt lat="43.44941" lon="2.5303">
        <ele>488.5</ele>
        <time>2026-05-23T06:50:34Z</time>
      </trkpt>
      <trkpt lat="43.44938" lon="2.53027">
        <ele>488.3</ele>
        <time>2026-05-23T06:50:39Z</time>
      </trkpt>
      <trkpt lat="43.44934" lon="2.53025">
        <ele>488.6</ele>
        <time>2026-05-23T06:50:44Z</time>
      </trkpt>
      <trkpt lat="43.44931" lon="2.53024">
        <ele>489.1</ele>
        <time>2026-05-23T06:50:49Z</time>
      </trkpt>
      <trkpt lat="43.44931" lon="2.53024">
        <ele>489.1</ele>
        <time>2026-05-23T06:50:54Z</time>
      </trkpt>
      <trkpt lat="43.44925" lon="2.53017">
        <ele>488.2</ele>
        <time>2026-05-23T06:50:59Z</time>
      </trkpt>
      <trkpt lat="43.44919" lon="2.53016">
        <ele>489.3</ele>
        <time>2026-05-23T06:51:04Z</time>
      </trkpt>
      <trkpt lat="43.44914" lon="2.53013">
        <ele>489.8</ele>
        <time>2026-05-23T06:51:09Z</time>
      </trkpt>
      <trkpt lat="43.44908" lon="2.53012">
        <ele>491.6</ele>
        <time>2026-05-23T06:51:14Z</time>
      </trkpt>
      <trkpt lat="43.44903" lon="2.53008">
        <ele>491.9</ele>
        <time>2026-05-23T06:51:19Z</time>
      </trkpt>
      <trkpt lat="43.44899" lon="2.53005">
        <ele>492.2</ele>
        <time>2026-05-23T06:51:24Z</time>
      </trkpt>
      <trkpt lat="43.44894" lon="2.53003">
        <ele>493.3</ele>
        <time>2026-05-23T06:51:29Z</time>
      </trkpt>
      <trkpt lat="43.4489" lon="2.53003">
        <ele>494.7</ele>
        <time>2026-05-23T06:51:34Z</time>
      </trkpt>
      <trkpt lat="43.44885" lon="2.53002">
        <ele>496.1</ele>
        <time>2026-05-23T06:51:39Z</time>
      </trkpt>
      <trkpt lat="43.44879" lon="2.53">
        <ele>497.6</ele>
        <time>2026-05-23T06:51:44Z</time>
      </trkpt>
      <trkpt lat="43.44872" lon="2.52999">
        <ele>499.8</ele>
        <time>2026-05-23T06:51:49Z</time>
      </trkpt>
      <trkpt lat="43.44866" lon="2.52998">
        <ele>501.7</ele>
        <time>2026-05-23T06:51:54Z</time>
      </trkpt>
      <trkpt lat="43.44859" lon="2.52995">
        <ele>503.3</ele>
        <time>2026-05-23T06:51:59Z</time>
      </trkpt>
      <trkpt lat="43.44854" lon="2.52993">
        <ele>504.5</ele>
        <time>2026-05-23T06:52:04Z</time>
      </trkpt>
      <trkpt lat="43.44846" lon="2.52992">
        <ele>507</ele>
        <time>2026-05-23T06:52:09Z</time>
      </trkpt>
      <trkpt lat="43.44842" lon="2.52992">
        <ele>508.4</ele>
        <time>2026-05-23T06:52:14Z</time>
      </trkpt>
      <trkpt lat="43.44837" lon="2.52992">
        <ele>510.1</ele>
        <time>2026-05-23T06:52:19Z</time>
      </trkpt>
      <trkpt lat="43.44832" lon="2.52987">
        <ele>510.1</ele>
        <time>2026-05-23T06:52:24Z</time>
      </trkpt>
      <trkpt lat="43.44832" lon="2.52987">
        <ele>510.1</ele>
        <time>2026-05-23T06:52:29Z</time>
      </trkpt>
      <trkpt lat="43.44832" lon="2.52987">
        <ele>510.1</ele>
        <time>2026-05-23T06:52:34Z</time>
      </trkpt>
      <trkpt lat="43.44821" lon="2.52974">
        <ele>508.4</ele>
        <time>2026-05-23T06:52:39Z</time>
      </trkpt>
      <trkpt lat="43.44817" lon="2.52969">
        <ele>507.7</ele>
        <time>2026-05-23T06:52:44Z</time>
      </trkpt>
      <trkpt lat="43.44813" lon="2.52966">
        <ele>507.6</ele>
        <time>2026-05-23T06:52:49Z</time>
      </trkpt>
      <trkpt lat="43.4481" lon="2.52964">
        <ele>507.6</ele>
        <time>2026-05-23T06:52:54Z</time>
      </trkpt>
      <trkpt lat="43.44806" lon="2.52964">
        <ele>508.5</ele>
        <time>2026-05-23T06:52:59Z</time>
      </trkpt>
      <trkpt lat="43.44802" lon="2.52962">
        <ele>508.7</ele>
        <time>2026-05-23T06:53:04Z</time>
      </trkpt>
      <trkpt lat="43.44799" lon="2.52958">
        <ele>508</ele>
        <time>2026-05-23T06:53:09Z</time>
      </trkpt>
      <trkpt lat="43.44793" lon="2.52953">
        <ele>507.6</ele>
        <time>2026-05-23T06:53:14Z</time>
      </trkpt>
      <trkpt lat="43.4479" lon="2.52953">
        <ele>508.3</ele>
        <time>2026-05-23T06:53:19Z</time>
      </trkpt>
      <trkpt lat="43.44786" lon="2.52951">
        <ele>508.5</ele>
        <time>2026-05-23T06:53:24Z</time>
      </trkpt>
      <trkpt lat="43.44783" lon="2.52949">
        <ele>508.4</ele>
        <time>2026-05-23T06:53:29Z</time>
      </trkpt>
      <trkpt lat="43.44779" lon="2.52945">
        <ele>507.9</ele>
        <time>2026-05-23T06:53:34Z</time>
      </trkpt>
      <trkpt lat="43.44775" lon="2.52943">
        <ele>508.1</ele>
        <time>2026-05-23T06:53:39Z</time>
      </trkpt>
      <trkpt lat="43.44771" lon="2.52938">
        <ele>507.2</ele>
        <time>2026-05-23T06:53:44Z</time>
      </trkpt>
      <trkpt lat="43.4477" lon="2.52932">
        <ele>505.3</ele>
        <time>2026-05-23T06:53:49Z</time>
      </trkpt>
      <trkpt lat="43.44769" lon="2.52929">
        <ele>504.5</ele>
        <time>2026-05-23T06:53:54Z</time>
      </trkpt>
      <trkpt lat="43.44765" lon="2.52922">
        <ele>502.8</ele>
        <time>2026-05-23T06:53:59Z</time>
      </trkpt>
      <trkpt lat="43.4476" lon="2.52912">
        <ele>501.7</ele>
        <time>2026-05-23T06:54:04Z</time>
      </trkpt>
      <trkpt lat="43.44759" lon="2.52903">
        <ele>501.4</ele>
        <time>2026-05-23T06:54:09Z</time>
      </trkpt>
      <trkpt lat="43.44754" lon="2.52897">
        <ele>501.9</ele>
        <time>2026-05-23T06:54:14Z</time>
      </trkpt>
      <trkpt lat="43.44748" lon="2.52894">
        <ele>503</ele>
        <time>2026-05-23T06:54:19Z</time>
      </trkpt>
      <trkpt lat="43.44745" lon="2.52896">
        <ele>504</ele>
        <time>2026-05-23T06:54:24Z</time>
      </trkpt>
      <trkpt lat="43.44738" lon="2.52891">
        <ele>505.6</ele>
        <time>2026-05-23T06:54:29Z</time>
      </trkpt>
      <trkpt lat="43.44733" lon="2.52886">
        <ele>506.5</ele>
        <time>2026-05-23T06:54:34Z</time>
      </trkpt>
      <trkpt lat="43.44729" lon="2.52883">
        <ele>507.3</ele>
        <time>2026-05-23T06:54:39Z</time>
      </trkpt>
      <trkpt lat="43.44724" lon="2.52885">
        <ele>508.9</ele>
        <time>2026-05-23T06:54:44Z</time>
      </trkpt>
      <trkpt lat="43.44719" lon="2.52888">
        <ele>510.7</ele>
        <time>2026-05-23T06:54:49Z</time>
      </trkpt>
      <trkpt lat="43.44714" lon="2.52891">
        <ele>512.5</ele>
        <time>2026-05-23T06:54:54Z</time>
      </trkpt>
      <trkpt lat="43.44712" lon="2.52895">
        <ele>513.7</ele>
        <time>2026-05-23T06:54:59Z</time>
      </trkpt>
      <trkpt lat="43.44709" lon="2.52899">
        <ele>515.1</ele>
        <time>2026-05-23T06:55:04Z</time>
      </trkpt>
      <trkpt lat="43.44706" lon="2.52902">
        <ele>516.5</ele>
        <time>2026-05-23T06:55:09Z</time>
      </trkpt>
      <trkpt lat="43.44706" lon="2.52902">
        <ele>516.5</ele>
        <time>2026-05-23T06:55:14Z</time>
      </trkpt>
      <trkpt lat="43.44706" lon="2.52902">
        <ele>516.5</ele>
        <time>2026-05-23T06:55:19Z</time>
      </trkpt>
      <trkpt lat="43.44706" lon="2.52902">
        <ele>516.5</ele>
        <time>2026-05-23T06:55:24Z</time>
      </trkpt>
      <trkpt lat="43.44706" lon="2.52902">
        <ele>516.5</ele>
        <time>2026-05-23T06:55:29Z</time>
      </trkpt>
      <trkpt lat="43.447" lon="2.52906">
        <ele>519</ele>
        <time>2026-05-23T06:55:34Z</time>
      </trkpt>
      <trkpt lat="43.44699" lon="2.52911">
        <ele>520.2</ele>
        <time>2026-05-23T06:55:39Z</time>
      </trkpt>
      <trkpt lat="43.44694" lon="2.52911">
        <ele>521.8</ele>
        <time>2026-05-23T06:55:44Z</time>
      </trkpt>
      <trkpt lat="43.44693" lon="2.52905">
        <ele>521.1</ele>
        <time>2026-05-23T06:55:49Z</time>
      </trkpt>
      <trkpt lat="43.44693" lon="2.52904">
        <ele>520.9</ele>
        <time>2026-05-23T06:55:54Z</time>
      </trkpt>
      <trkpt lat="43.44693" lon="2.52904">
        <ele>520.9</ele>
        <time>2026-05-23T06:55:59Z</time>
      </trkpt>
      <trkpt lat="43.44686" lon="2.52903">
        <ele>522.9</ele>
        <time>2026-05-23T06:56:04Z</time>
      </trkpt>
      <trkpt lat="43.44679" lon="2.52902">
        <ele>524.9</ele>
        <time>2026-05-23T06:56:09Z</time>
      </trkpt>
      <trkpt lat="43.44675" lon="2.529">
        <ele>525.7</ele>
        <time>2026-05-23T06:56:14Z</time>
      </trkpt>
      <trkpt lat="43.4467" lon="2.529">
        <ele>527.2</ele>
        <time>2026-05-23T06:56:19Z</time>
      </trkpt>
      <trkpt lat="43.44664" lon="2.52903">
        <ele>530.1</ele>
        <time>2026-05-23T06:56:24Z</time>
      </trkpt>
      <trkpt lat="43.44659" lon="2.52905">
        <ele>532.8</ele>
        <time>2026-05-23T06:56:29Z</time>
      </trkpt>
      <trkpt lat="43.44655" lon="2.52903">
        <ele>534.2</ele>
        <time>2026-05-23T06:56:34Z</time>
      </trkpt>
      <trkpt lat="43.4465" lon="2.529">
        <ele>535.7</ele>
        <time>2026-05-23T06:56:39Z</time>
      </trkpt>
      <trkpt lat="43.44647" lon="2.52895">
        <ele>535.8</ele>
        <time>2026-05-23T06:56:44Z</time>
      </trkpt>
      <trkpt lat="43.44644" lon="2.52893">
        <ele>536.6</ele>
        <time>2026-05-23T06:56:49Z</time>
      </trkpt>
      <trkpt lat="43.4464" lon="2.52889">
        <ele>537.3</ele>
        <time>2026-05-23T06:56:54Z</time>
      </trkpt>
      <trkpt lat="43.44637" lon="2.52886">
        <ele>537.8</ele>
        <time>2026-05-23T06:56:59Z</time>
      </trkpt>
      <trkpt lat="43.44635" lon="2.52883">
        <ele>537.9</ele>
        <time>2026-05-23T06:57:04Z</time>
      </trkpt>
      <trkpt lat="43.44631" lon="2.5288">
        <ele>538.8</ele>
        <time>2026-05-23T06:57:09Z</time>
      </trkpt>
      <trkpt lat="43.44631" lon="2.5288">
        <ele>538.8</ele>
        <time>2026-05-23T06:57:14Z</time>
      </trkpt>
      <trkpt lat="43.44625" lon="2.5287">
        <ele>538.6</ele>
        <time>2026-05-23T06:57:19Z</time>
      </trkpt>
      <trkpt lat="43.44624" lon="2.5286">
        <ele>536.3</ele>
        <time>2026-05-23T06:57:24Z</time>
      </trkpt>
      <trkpt lat="43.4462" lon="2.52855">
        <ele>536.5</ele>
        <time>2026-05-23T06:57:29Z</time>
      </trkpt>
      <trkpt lat="43.44615" lon="2.52851">
        <ele>537.3</ele>
        <time>2026-05-23T06:57:34Z</time>
      </trkpt>
      <trkpt lat="43.44611" lon="2.52845">
        <ele>537.1</ele>
        <time>2026-05-23T06:57:39Z</time>
      </trkpt>
      <trkpt lat="43.44606" lon="2.52841">
        <ele>537.9</ele>
        <time>2026-05-23T06:57:44Z</time>
      </trkpt>
      <trkpt lat="43.44603" lon="2.52839">
        <ele>538.4</ele>
        <time>2026-05-23T06:57:49Z</time>
      </trkpt>
      <trkpt lat="43.44599" lon="2.52836">
        <ele>539</ele>
        <time>2026-05-23T06:57:54Z</time>
      </trkpt>
      <trkpt lat="43.44599" lon="2.52829">
        <ele>537.4</ele>
        <time>2026-05-23T06:57:59Z</time>
      </trkpt>
      <trkpt lat="43.44599" lon="2.52829">
        <ele>537.4</ele>
        <time>2026-05-23T06:58:04Z</time>
      </trkpt>
      <trkpt lat="43.44599" lon="2.52829">
        <ele>537.4</ele>
        <time>2026-05-23T06:58:09Z</time>
      </trkpt>
      <trkpt lat="43.44599" lon="2.52829">
        <ele>537.4</ele>
        <time>2026-05-23T06:58:14Z</time>
      </trkpt>
      <trkpt lat="43.44599" lon="2.52829">
        <ele>537.4</ele>
        <time>2026-05-23T06:58:19Z</time>
      </trkpt>
      <trkpt lat="43.44599" lon="2.52829">
        <ele>537.4</ele>
        <time>2026-05-23T06:58:24Z</time>
      </trkpt>
      <trkpt lat="43.44593" lon="2.52815">
        <ele>536.7</ele>
        <time>2026-05-23T06:58:29Z</time>
      </trkpt>
      <trkpt lat="43.44592" lon="2.52811">
        <ele>536.1</ele>
        <time>2026-05-23T06:58:34Z</time>
      </trkpt>
      <trkpt lat="43.4459" lon="2.52805">
        <ele>535.4</ele>
        <time>2026-05-23T06:58:39Z</time>
      </trkpt>
      <trkpt lat="43.44589" lon="2.52804">
        <ele>535.5</ele>
        <time>2026-05-23T06:58:44Z</time>
      </trkpt>
      <trkpt lat="43.44589" lon="2.52804">
        <ele>535.5</ele>
        <time>2026-05-23T06:58:49Z</time>
      </trkpt>
      <trkpt lat="43.44581" lon="2.528">
        <ele>536.5</ele>
        <time>2026-05-23T06:58:54Z</time>
      </trkpt>
      <trkpt lat="43.44578" lon="2.52798">
        <ele>536.6</ele>
        <time>2026-05-23T06:58:59Z</time>
      </trkpt>
      <trkpt lat="43.44574" lon="2.52797">
        <ele>537.2</ele>
        <time>2026-05-23T06:59:04Z</time>
      </trkpt>
      <trkpt lat="43.44571" lon="2.52798">
        <ele>538</ele>
        <time>2026-05-23T06:59:09Z</time>
      </trkpt>
      <trkpt lat="43.44565" lon="2.52797">
        <ele>539</ele>
        <time>2026-05-23T06:59:14Z</time>
      </trkpt>
      <trkpt lat="43.44561" lon="2.5279">
        <ele>538</ele>
        <time>2026-05-23T06:59:19Z</time>
      </trkpt>
      <trkpt lat="43.44557" lon="2.52787">
        <ele>538</ele>
        <time>2026-05-23T06:59:24Z</time>
      </trkpt>
      <trkpt lat="43.44553" lon="2.52784">
        <ele>537.9</ele>
        <time>2026-05-23T06:59:29Z</time>
      </trkpt>
      <trkpt lat="43.44552" lon="2.52782">
        <ele>537.6</ele>
        <time>2026-05-23T06:59:34Z</time>
      </trkpt>
      <trkpt lat="43.44551" lon="2.52781">
        <ele>537.5</ele>
        <time>2026-05-23T06:59:39Z</time>
      </trkpt>
      <trkpt lat="43.44551" lon="2.52781">
        <ele>537.5</ele>
        <time>2026-05-23T06:59:44Z</time>
      </trkpt>
      <trkpt lat="43.44544" lon="2.52772">
        <ele>536.3</ele>
        <time>2026-05-23T06:59:49Z</time>
      </trkpt>
      <trkpt lat="43.4454" lon="2.5277">
        <ele>536.4</ele>
        <time>2026-05-23T06:59:54Z</time>
      </trkpt>
      <trkpt lat="43.4454" lon="2.5277">
        <ele>536.4</ele>
        <time>2026-05-23T06:59:59Z</time>
      </trkpt>
      <trkpt lat="43.44536" lon="2.52768">
        <ele>536.6</ele>
        <time>2026-05-23T07:00:04Z</time>
      </trkpt>
      <trkpt lat="43.44533" lon="2.52766">
        <ele>536.5</ele>
        <time>2026-05-23T07:00:09Z</time>
      </trkpt>
      <trkpt lat="43.44532" lon="2.52766">
        <ele>536.7</ele>
        <time>2026-05-23T07:00:14Z</time>
      </trkpt>
      <trkpt lat="43.44532" lon="2.52766">
        <ele>536.7</ele>
        <time>2026-05-23T07:00:19Z</time>
      </trkpt>
      <trkpt lat="43.44532" lon="2.52766">
        <ele>536.7</ele>
        <time>2026-05-23T07:00:24Z</time>
      </trkpt>
      <trkpt lat="43.44532" lon="2.52766">
        <ele>536.7</ele>
        <time>2026-05-23T07:00:29Z</time>
      </trkpt>
      <trkpt lat="43.44532" lon="2.52766">
        <ele>536.7</ele>
        <time>2026-05-23T07:00:34Z</time>
      </trkpt>
      <trkpt lat="43.44523" lon="2.52771">
        <ele>539.7</ele>
        <time>2026-05-23T07:00:39Z</time>
      </trkpt>
      <trkpt lat="43.44519" lon="2.52767">
        <ele>539.2</ele>
        <time>2026-05-23T07:00:44Z</time>
      </trkpt>
      <trkpt lat="43.44517" lon="2.52766">
        <ele>539.3</ele>
        <time>2026-05-23T07:00:49Z</time>
      </trkpt>
      <trkpt lat="43.44515" lon="2.52764">
        <ele>539</ele>
        <time>2026-05-23T07:00:54Z</time>
      </trkpt>
      <trkpt lat="43.44514" lon="2.52764">
        <ele>539.2</ele>
        <time>2026-05-23T07:00:59Z</time>
      </trkpt>
      <trkpt lat="43.4451" lon="2.52761">
        <ele>538.9</ele>
        <time>2026-05-23T07:01:04Z</time>
      </trkpt>
      <trkpt lat="43.44506" lon="2.52757">
        <ele>538.3</ele>
        <time>2026-05-23T07:01:09Z</time>
      </trkpt>
      <trkpt lat="43.44502" lon="2.52755">
        <ele>538.3</ele>
        <time>2026-05-23T07:01:14Z</time>
      </trkpt>
      <trkpt lat="43.44497" lon="2.52753">
        <ele>538.4</ele>
        <time>2026-05-23T07:01:19Z</time>
      </trkpt>
      <trkpt lat="43.44493" lon="2.52753">
        <ele>539</ele>
        <time>2026-05-23T07:01:24Z</time>
      </trkpt>
      <trkpt lat="43.44489" lon="2.52754">
        <ele>539.9</ele>
        <time>2026-05-23T07:01:29Z</time>
      </trkpt>
      <trkpt lat="43.44487" lon="2.52756">
        <ele>540.8</ele>
        <time>2026-05-23T07:01:34Z</time>
      </trkpt>
      <trkpt lat="43.44485" lon="2.52761">
        <ele>542.6</ele>
        <time>2026-05-23T07:01:39Z</time>
      </trkpt>
      <trkpt lat="43.44485" lon="2.52761">
        <ele>542.6</ele>
        <time>2026-05-23T07:01:44Z</time>
      </trkpt>
      <trkpt lat="43.44484" lon="2.52768">
        <ele>545</ele>
        <time>2026-05-23T07:01:49Z</time>
      </trkpt>
      <trkpt lat="43.44483" lon="2.52768">
        <ele>545.1</ele>
        <time>2026-05-23T07:01:54Z</time>
      </trkpt>
      <trkpt lat="43.44483" lon="2.52768">
        <ele>545.1</ele>
        <time>2026-05-23T07:01:59Z</time>
      </trkpt>
      <trkpt lat="43.44483" lon="2.52768">
        <ele>545.1</ele>
        <time>2026-05-23T07:02:04Z</time>
      </trkpt>
      <trkpt lat="43.44483" lon="2.52768">
        <ele>545.1</ele>
        <time>2026-05-23T07:02:09Z</time>
      </trkpt>
      <trkpt lat="43.44483" lon="2.52768">
        <ele>545.1</ele>
        <time>2026-05-23T07:02:14Z</time>
      </trkpt>
      <trkpt lat="43.44471" lon="2.52767">
        <ele>546.4</ele>
        <time>2026-05-23T07:02:19Z</time>
      </trkpt>
      <trkpt lat="43.44468" lon="2.52764">
        <ele>545.9</ele>
        <time>2026-05-23T07:02:24Z</time>
      </trkpt>
      <trkpt lat="43.44465" lon="2.52764">
        <ele>546.3</ele>
        <time>2026-05-23T07:02:29Z</time>
      </trkpt>
      <trkpt lat="43.44464" lon="2.52766">
        <ele>547</ele>
        <time>2026-05-23T07:02:34Z</time>
      </trkpt>
      <trkpt lat="43.44464" lon="2.52766">
        <ele>547</ele>
        <time>2026-05-23T07:02:39Z</time>
      </trkpt>
      <trkpt lat="43.44457" lon="2.52767">
        <ele>548.3</ele>
        <time>2026-05-23T07:02:44Z</time>
      </trkpt>
      <trkpt lat="43.44453" lon="2.52769">
        <ele>549.4</ele>
        <time>2026-05-23T07:02:49Z</time>
      </trkpt>
      <trkpt lat="43.44449" lon="2.52769">
        <ele>549.9</ele>
        <time>2026-05-23T07:02:54Z</time>
      </trkpt>
      <trkpt lat="43.44445" lon="2.52767">
        <ele>549.9</ele>
        <time>2026-05-23T07:02:59Z</time>
      </trkpt>
      <trkpt lat="43.4444" lon="2.52769">
        <ele>551.1</ele>
        <time>2026-05-23T07:03:04Z</time>
      </trkpt>
      <trkpt lat="43.44436" lon="2.52769">
        <ele>551.7</ele>
        <time>2026-05-23T07:03:09Z</time>
      </trkpt>
      <trkpt lat="43.44434" lon="2.52768">
        <ele>551.7</ele>
        <time>2026-05-23T07:03:14Z</time>
      </trkpt>
      <trkpt lat="43.44431" lon="2.52768">
        <ele>552.1</ele>
        <time>2026-05-23T07:03:19Z</time>
      </trkpt>
      <trkpt lat="43.44427" lon="2.52771">
        <ele>553.4</ele>
        <time>2026-05-23T07:03:24Z</time>
      </trkpt>
      <trkpt lat="43.44423" lon="2.52771">
        <ele>554</ele>
        <time>2026-05-23T07:03:29Z</time>
      </trkpt>
      <trkpt lat="43.44418" lon="2.52771">
        <ele>554.6</ele>
        <time>2026-05-23T07:03:34Z</time>
      </trkpt>
      <trkpt lat="43.44414" lon="2.52768">
        <ele>554.4</ele>
        <time>2026-05-23T07:03:39Z</time>
      </trkpt>
      <trkpt lat="43.44412" lon="2.52766">
        <ele>554.3</ele>
        <time>2026-05-23T07:03:44Z</time>
      </trkpt>
      <trkpt lat="43.4441" lon="2.52767">
        <ele>554.9</ele>
        <time>2026-05-23T07:03:49Z</time>
      </trkpt>
      <trkpt lat="43.44409" lon="2.5277">
        <ele>555.9</ele>
        <time>2026-05-23T07:03:54Z</time>
      </trkpt>
      <trkpt lat="43.44409" lon="2.5277">
        <ele>555.9</ele>
        <time>2026-05-23T07:03:59Z</time>
      </trkpt>
      <trkpt lat="43.44402" lon="2.52774">
        <ele>558</ele>
        <time>2026-05-23T07:04:04Z</time>
      </trkpt>
      <trkpt lat="43.44399" lon="2.52775">
        <ele>558.7</ele>
        <time>2026-05-23T07:04:09Z</time>
      </trkpt>
      <trkpt lat="43.44397" lon="2.52776">
        <ele>559.2</ele>
        <time>2026-05-23T07:04:14Z</time>
      </trkpt>
      <trkpt lat="43.44395" lon="2.52775">
        <ele>559.3</ele>
        <time>2026-05-23T07:04:19Z</time>
      </trkpt>
      <trkpt lat="43.4439" lon="2.52774">
        <ele>559.9</ele>
        <time>2026-05-23T07:04:24Z</time>
      </trkpt>
      <trkpt lat="43.44386" lon="2.52772">
        <ele>560.2</ele>
        <time>2026-05-23T07:04:29Z</time>
      </trkpt>
      <trkpt lat="43.44382" lon="2.52771">
        <ele>560.7</ele>
        <time>2026-05-23T07:04:34Z</time>
      </trkpt>
      <trkpt lat="43.44378" lon="2.52771">
        <ele>561.4</ele>
        <time>2026-05-23T07:04:39Z</time>
      </trkpt>
      <trkpt lat="43.44374" lon="2.52773">
        <ele>562.3</ele>
        <time>2026-05-23T07:04:44Z</time>
      </trkpt>
      <trkpt lat="43.4437" lon="2.52774">
        <ele>563.1</ele>
        <time>2026-05-23T07:04:49Z</time>
      </trkpt>
      <trkpt lat="43.44368" lon="2.52773">
        <ele>563.3</ele>
        <time>2026-05-23T07:04:54Z</time>
      </trkpt>
      <trkpt lat="43.44363" lon="2.52773">
        <ele>564.1</ele>
        <time>2026-05-23T07:04:59Z</time>
      </trkpt>
      <trkpt lat="43.44361" lon="2.52772">
        <ele>564.4</ele>
        <time>2026-05-23T07:05:04Z</time>
      </trkpt>
      <trkpt lat="43.44361" lon="2.52772">
        <ele>564.4</ele>
        <time>2026-05-23T07:05:09Z</time>
      </trkpt>
      <trkpt lat="43.44361" lon="2.52772">
        <ele>564.4</ele>
        <time>2026-05-23T07:05:14Z</time>
      </trkpt>
      <trkpt lat="43.44361" lon="2.52772">
        <ele>564.4</ele>
        <time>2026-05-23T07:05:19Z</time>
      </trkpt>
      <trkpt lat="43.44361" lon="2.52772">
        <ele>564.4</ele>
        <time>2026-05-23T07:05:24Z</time>
      </trkpt>
      <trkpt lat="43.44361" lon="2.52772">
        <ele>564.4</ele>
        <time>2026-05-23T07:05:29Z</time>
      </trkpt>
      <trkpt lat="43.44361" lon="2.52772">
        <ele>564.4</ele>
        <time>2026-05-23T07:05:34Z</time>
      </trkpt>
      <trkpt lat="43.44361" lon="2.52772">
        <ele>564.4</ele>
        <time>2026-05-23T07:05:39Z</time>
      </trkpt>
      <trkpt lat="43.44361" lon="2.52772">
        <ele>564.4</ele>
        <time>2026-05-23T07:05:44Z</time>
      </trkpt>
      <trkpt lat="43.44361" lon="2.52772">
        <ele>564.4</ele>
        <time>2026-05-23T07:05:49Z</time>
      </trkpt>
      <trkpt lat="43.44361" lon="2.52772">
        <ele>564.4</ele>
        <time>2026-05-23T07:05:54Z</time>
      </trkpt>
      <trkpt lat="43.44361" lon="2.52772">
        <ele>564.4</ele>
        <time>2026-05-23T07:05:59Z</time>
      </trkpt>
      <trkpt lat="43.4436" lon="2.52771">
        <ele>564.5</ele>
        <time>2026-05-23T07:06:04Z</time>
      </trkpt>
      <trkpt lat="43.44353" lon="2.52773">
        <ele>565.8</ele>
        <time>2026-05-23T07:06:09Z</time>
      </trkpt>
      <trkpt lat="43.44347" lon="2.52774">
        <ele>566.8</ele>
        <time>2026-05-23T07:06:14Z</time>
      </trkpt>
      <trkpt lat="43.44343" lon="2.52774">
        <ele>567.4</ele>
        <time>2026-05-23T07:06:19Z</time>
      </trkpt>
      <trkpt lat="43.44341" lon="2.52775">
        <ele>567.8</ele>
        <time>2026-05-23T07:06:24Z</time>
      </trkpt>
      <trkpt lat="43.44338" lon="2.52778">
        <ele>568.3</ele>
        <time>2026-05-23T07:06:29Z</time>
      </trkpt>
      <trkpt lat="43.44336" lon="2.52773">
        <ele>568.6</ele>
        <time>2026-05-23T07:06:34Z</time>
      </trkpt>
      <trkpt lat="43.44335" lon="2.52764">
        <ele>568.7</ele>
        <time>2026-05-23T07:06:39Z</time>
      </trkpt>
      <trkpt lat="43.44333" lon="2.52763">
        <ele>569.2</ele>
        <time>2026-05-23T07:06:44Z</time>
      </trkpt>
      <trkpt lat="43.44329" lon="2.52771">
        <ele>571.4</ele>
        <time>2026-05-23T07:06:49Z</time>
      </trkpt>
      <trkpt lat="43.44327" lon="2.52777">
        <ele>572.5</ele>
        <time>2026-05-23T07:06:54Z</time>
      </trkpt>
      <trkpt lat="43.44327" lon="2.52782">
        <ele>572.4</ele>
        <time>2026-05-23T07:06:59Z</time>
      </trkpt>
      <trkpt lat="43.44325" lon="2.52787">
        <ele>573.3</ele>
        <time>2026-05-23T07:07:04Z</time>
      </trkpt>
      <trkpt lat="43.44322" lon="2.52791">
        <ele>574.7</ele>
        <time>2026-05-23T07:07:09Z</time>
      </trkpt>
      <trkpt lat="43.4432" lon="2.52792">
        <ele>575.7</ele>
        <time>2026-05-23T07:07:14Z</time>
      </trkpt>
      <trkpt lat="43.44317" lon="2.52793">
        <ele>577.2</ele>
        <time>2026-05-23T07:07:19Z</time>
      </trkpt>
      <trkpt lat="43.44311" lon="2.52792">
        <ele>580.2</ele>
        <time>2026-05-23T07:07:24Z</time>
      </trkpt>
      <trkpt lat="43.44308" lon="2.52793">
        <ele>581.7</ele>
        <time>2026-05-23T07:07:29Z</time>
      </trkpt>
      <trkpt lat="43.44305" lon="2.52793">
        <ele>583.2</ele>
        <time>2026-05-23T07:07:34Z</time>
      </trkpt>
      <trkpt lat="43.44304" lon="2.52793">
        <ele>583.7</ele>
        <time>2026-05-23T07:07:39Z</time>
      </trkpt>
      <trkpt lat="43.44304" lon="2.52793">
        <ele>583.7</ele>
        <time>2026-05-23T07:07:44Z</time>
      </trkpt>
      <trkpt lat="43.44304" lon="2.52793">
        <ele>583.7</ele>
        <time>2026-05-23T07:07:49Z</time>
      </trkpt>
      <trkpt lat="43.44304" lon="2.52793">
        <ele>583.7</ele>
        <time>2026-05-23T07:07:54Z</time>
      </trkpt>
      <trkpt lat="43.44304" lon="2.52793">
        <ele>583.7</ele>
        <time>2026-05-23T07:07:59Z</time>
      </trkpt>
      <trkpt lat="43.44295" lon="2.52803">
        <ele>587.1</ele>
        <time>2026-05-23T07:08:04Z</time>
      </trkpt>
      <trkpt lat="43.44296" lon="2.52804">
        <ele>586.5</ele>
        <time>2026-05-23T07:08:09Z</time>
      </trkpt>
      <trkpt lat="43.44296" lon="2.52804">
        <ele>586.5</ele>
        <time>2026-05-23T07:08:14Z</time>
      </trkpt>
      <trkpt lat="43.44296" lon="2.52804">
        <ele>586.5</ele>
        <time>2026-05-23T07:08:19Z</time>
      </trkpt>
      <trkpt lat="43.44296" lon="2.52804">
        <ele>586.5</ele>
        <time>2026-05-23T07:08:24Z</time>
      </trkpt>
      <trkpt lat="43.44296" lon="2.52804">
        <ele>586.5</ele>
        <time>2026-05-23T07:08:29Z</time>
      </trkpt>
      <trkpt lat="43.44296" lon="2.52804">
        <ele>586.5</ele>
        <time>2026-05-23T07:08:34Z</time>
      </trkpt>
      <trkpt lat="43.44296" lon="2.52804">
        <ele>586.5</ele>
        <time>2026-05-23T07:08:39Z</time>
      </trkpt>
      <trkpt lat="43.44296" lon="2.52804">
        <ele>586.5</ele>
        <time>2026-05-23T07:08:44Z</time>
      </trkpt>
      <trkpt lat="43.44296" lon="2.52804">
        <ele>586.5</ele>
        <time>2026-05-23T07:08:49Z</time>
      </trkpt>
      <trkpt lat="43.44296" lon="2.52804">
        <ele>586.5</ele>
        <time>2026-05-23T07:08:54Z</time>
      </trkpt>
      <trkpt lat="43.44296" lon="2.52804">
        <ele>586.5</ele>
        <time>2026-05-23T07:08:59Z</time>
      </trkpt>
      <trkpt lat="43.44296" lon="2.52804">
        <ele>586.5</ele>
        <time>2026-05-23T07:09:04Z</time>
      </trkpt>
      <trkpt lat="43.44296" lon="2.52804">
        <ele>586.5</ele>
        <time>2026-05-23T07:09:09Z</time>
      </trkpt>
      <trkpt lat="43.44296" lon="2.52804">
        <ele>586.5</ele>
        <time>2026-05-23T07:09:14Z</time>
      </trkpt>
      <trkpt lat="43.44295" lon="2.52807">
        <ele>586.6</ele>
        <time>2026-05-23T07:09:19Z</time>
      </trkpt>
      <trkpt lat="43.44293" lon="2.52811">
        <ele>587.1</ele>
        <time>2026-05-23T07:09:24Z</time>
      </trkpt>
      <trkpt lat="43.44291" lon="2.52815">
        <ele>587.5</ele>
        <time>2026-05-23T07:09:29Z</time>
      </trkpt>
      <trkpt lat="43.44288" lon="2.52816">
        <ele>588.7</ele>
        <time>2026-05-23T07:09:34Z</time>
      </trkpt>
      <trkpt lat="43.44289" lon="2.52822">
        <ele>587.5</ele>
        <time>2026-05-23T07:09:39Z</time>
      </trkpt>
      <trkpt lat="43.44289" lon="2.52823">
        <ele>587.3</ele>
        <time>2026-05-23T07:09:44Z</time>
      </trkpt>
      <trkpt lat="43.44289" lon="2.52823">
        <ele>587.3</ele>
        <time>2026-05-23T07:09:49Z</time>
      </trkpt>
      <trkpt lat="43.44289" lon="2.52823">
        <ele>587.3</ele>
        <time>2026-05-23T07:09:54Z</time>
      </trkpt>
      <trkpt lat="43.44289" lon="2.52823">
        <ele>587.3</ele>
        <time>2026-05-23T07:09:59Z</time>
      </trkpt>
      <trkpt lat="43.44289" lon="2.52823">
        <ele>587.3</ele>
        <time>2026-05-23T07:10:04Z</time>
      </trkpt>
      <trkpt lat="43.44289" lon="2.52823">
        <ele>587.3</ele>
        <time>2026-05-23T07:10:09Z</time>
      </trkpt>
      <trkpt lat="43.44289" lon="2.52823">
        <ele>587.3</ele>
        <time>2026-05-23T07:10:14Z</time>
      </trkpt>
      <trkpt lat="43.44289" lon="2.52823">
        <ele>587.3</ele>
        <time>2026-05-23T07:10:19Z</time>
      </trkpt>
      <trkpt lat="43.44289" lon="2.52837">
        <ele>586.3</ele>
        <time>2026-05-23T07:10:24Z</time>
      </trkpt>
      <trkpt lat="43.44289" lon="2.52838">
        <ele>586.4</ele>
        <time>2026-05-23T07:10:29Z</time>
      </trkpt>
      <trkpt lat="43.44289" lon="2.52838">
        <ele>586.4</ele>
        <time>2026-05-23T07:10:34Z</time>
      </trkpt>
      <trkpt lat="43.44289" lon="2.52838">
        <ele>586.4</ele>
        <time>2026-05-23T07:10:39Z</time>
      </trkpt>
      <trkpt lat="43.44289" lon="2.52838">
        <ele>586.4</ele>
        <time>2026-05-23T07:10:44Z</time>
      </trkpt>
      <trkpt lat="43.44289" lon="2.52838">
        <ele>586.4</ele>
        <time>2026-05-23T07:10:49Z</time>
      </trkpt>
      <trkpt lat="43.4429" lon="2.52841">
        <ele>586.3</ele>
        <time>2026-05-23T07:10:54Z</time>
      </trkpt>
      <trkpt lat="43.44289" lon="2.52841">
        <ele>586.7</ele>
        <time>2026-05-23T07:10:59Z</time>
      </trkpt>
      <trkpt lat="43.44293" lon="2.52848">
        <ele>586</ele>
        <time>2026-05-23T07:11:04Z</time>
      </trkpt>
      <trkpt lat="43.44296" lon="2.52849">
        <ele>585.1</ele>
        <time>2026-05-23T07:11:09Z</time>
      </trkpt>
      <trkpt lat="43.44297" lon="2.52851">
        <ele>584.9</ele>
        <time>2026-05-23T07:11:14Z</time>
      </trkpt>
      <trkpt lat="43.44297" lon="2.52851">
        <ele>584.9</ele>
        <time>2026-05-23T07:11:19Z</time>
      </trkpt>
      <trkpt lat="43.44297" lon="2.52851">
        <ele>584.9</ele>
        <time>2026-05-23T07:11:24Z</time>
      </trkpt>
      <trkpt lat="43.44297" lon="2.52851">
        <ele>584.9</ele>
        <time>2026-05-23T07:11:29Z</time>
      </trkpt>
      <trkpt lat="43.44297" lon="2.52851">
        <ele>584.9</ele>
        <time>2026-05-23T07:11:34Z</time>
      </trkpt>
      <trkpt lat="43.44297" lon="2.52851">
        <ele>584.9</ele>
        <time>2026-05-23T07:11:39Z</time>
      </trkpt>
      <trkpt lat="43.44297" lon="2.52851">
        <ele>584.9</ele>
        <time>2026-05-23T07:11:44Z</time>
      </trkpt>
      <trkpt lat="43.44308" lon="2.52857">
        <ele>582.2</ele>
        <time>2026-05-23T07:11:49Z</time>
      </trkpt>
      <trkpt lat="43.44309" lon="2.52859">
        <ele>582.2</ele>
        <time>2026-05-23T07:11:54Z</time>
      </trkpt>
      <trkpt lat="43.44315" lon="2.52865">
        <ele>581.4</ele>
        <time>2026-05-23T07:11:59Z</time>
      </trkpt>
      <trkpt lat="43.44315" lon="2.52865">
        <ele>581.4</ele>
        <time>2026-05-23T07:12:04Z</time>
      </trkpt>
      <trkpt lat="43.44316" lon="2.52864">
        <ele>581</ele>
        <time>2026-05-23T07:12:09Z</time>
      </trkpt>
      <trkpt lat="43.44316" lon="2.52864">
        <ele>581</ele>
        <time>2026-05-23T07:12:14Z</time>
      </trkpt>
      <trkpt lat="43.44316" lon="2.52864">
        <ele>581</ele>
        <time>2026-05-23T07:12:19Z</time>
      </trkpt>
      <trkpt lat="43.44322" lon="2.52865">
        <ele>579.4</ele>
        <time>2026-05-23T07:12:24Z</time>
      </trkpt>
      <trkpt lat="43.44324" lon="2.52867">
        <ele>579.3</ele>
        <time>2026-05-23T07:12:29Z</time>
      </trkpt>
      <trkpt lat="43.44325" lon="2.52869">
        <ele>579.4</ele>
        <time>2026-05-23T07:12:34Z</time>
      </trkpt>
      <trkpt lat="43.44325" lon="2.52869">
        <ele>579.4</ele>
        <time>2026-05-23T07:12:39Z</time>
      </trkpt>
      <trkpt lat="43.44329" lon="2.52873">
        <ele>579.2</ele>
        <time>2026-05-23T07:12:44Z</time>
      </trkpt>
      <trkpt lat="43.44329" lon="2.52874">
        <ele>579.4</ele>
        <time>2026-05-23T07:12:49Z</time>
      </trkpt>
      <trkpt lat="43.44329" lon="2.52874">
        <ele>579.4</ele>
        <time>2026-05-23T07:12:54Z</time>
      </trkpt>
      <trkpt lat="43.44329" lon="2.52874">
        <ele>579.4</ele>
        <time>2026-05-23T07:12:59Z</time>
      </trkpt>
      <trkpt lat="43.44322" lon="2.52882">
        <ele>582.7</ele>
        <time>2026-05-23T07:13:04Z</time>
      </trkpt>
      <trkpt lat="43.4432" lon="2.52884">
        <ele>583.5</ele>
        <time>2026-05-23T07:13:09Z</time>
      </trkpt>
      <trkpt lat="43.4432" lon="2.52884">
        <ele>583.5</ele>
        <time>2026-05-23T07:13:14Z</time>
      </trkpt>
      <trkpt lat="43.4432" lon="2.52884">
        <ele>583.5</ele>
        <time>2026-05-23T07:13:19Z</time>
      </trkpt>
      <trkpt lat="43.4432" lon="2.52884">
        <ele>583.5</ele>
        <time>2026-05-23T07:13:24Z</time>
      </trkpt>
      <trkpt lat="43.44311" lon="2.52889">
        <ele>586.3</ele>
        <time>2026-05-23T07:13:29Z</time>
      </trkpt>
      <trkpt lat="43.44307" lon="2.52886">
        <ele>586.7</ele>
        <time>2026-05-23T07:13:34Z</time>
      </trkpt>
      <trkpt lat="43.44304" lon="2.52885">
        <ele>587.2</ele>
        <time>2026-05-23T07:13:39Z</time>
      </trkpt>
      <trkpt lat="43.44303" lon="2.52884">
        <ele>587.3</ele>
        <time>2026-05-23T07:13:44Z</time>
      </trkpt>
      <trkpt lat="43.44303" lon="2.52884">
        <ele>587.3</ele>
        <time>2026-05-23T07:13:49Z</time>
      </trkpt>
      <trkpt lat="43.44303" lon="2.52884">
        <ele>587.3</ele>
        <time>2026-05-23T07:13:54Z</time>
      </trkpt>
      <trkpt lat="43.44303" lon="2.52884">
        <ele>587.3</ele>
        <time>2026-05-23T07:13:59Z</time>
      </trkpt>
      <trkpt lat="43.44303" lon="2.52884">
        <ele>587.3</ele>
        <time>2026-05-23T07:14:04Z</time>
      </trkpt>
      <trkpt lat="43.44297" lon="2.52894">
        <ele>589.8</ele>
        <time>2026-05-23T07:14:09Z</time>
      </trkpt>
      <trkpt lat="43.44297" lon="2.52898">
        <ele>590.3</ele>
        <time>2026-05-23T07:14:14Z</time>
      </trkpt>
      <trkpt lat="43.44296" lon="2.529">
        <ele>590.7</ele>
        <time>2026-05-23T07:14:19Z</time>
      </trkpt>
      <trkpt lat="43.44296" lon="2.52902">
        <ele>590.9</ele>
        <time>2026-05-23T07:14:24Z</time>
      </trkpt>
      <trkpt lat="43.44296" lon="2.52902">
        <ele>590.9</ele>
        <time>2026-05-23T07:14:29Z</time>
      </trkpt>
      <trkpt lat="43.44296" lon="2.52902">
        <ele>590.9</ele>
        <time>2026-05-23T07:14:34Z</time>
      </trkpt>
      <trkpt lat="43.44296" lon="2.52902">
        <ele>590.9</ele>
        <time>2026-05-23T07:14:39Z</time>
      </trkpt>
      <trkpt lat="43.44296" lon="2.52902">
        <ele>590.9</ele>
        <time>2026-05-23T07:14:44Z</time>
      </trkpt>
      <trkpt lat="43.44296" lon="2.52902">
        <ele>590.9</ele>
        <time>2026-05-23T07:14:49Z</time>
      </trkpt>
      <trkpt lat="43.44296" lon="2.52902">
        <ele>590.9</ele>
        <time>2026-05-23T07:14:54Z</time>
      </trkpt>
      <trkpt lat="43.44296" lon="2.52902">
        <ele>590.9</ele>
        <time>2026-05-23T07:14:59Z</time>
      </trkpt>
      <trkpt lat="43.44296" lon="2.52902">
        <ele>590.9</ele>
        <time>2026-05-23T07:15:04Z</time>
      </trkpt>
      <trkpt lat="43.44296" lon="2.52906">
        <ele>591.3</ele>
        <time>2026-05-23T07:15:09Z</time>
      </trkpt>
      <trkpt lat="43.44293" lon="2.52911">
        <ele>592.3</ele>
        <time>2026-05-23T07:15:14Z</time>
      </trkpt>
      <trkpt lat="43.44292" lon="2.52916">
        <ele>592.9</ele>
        <time>2026-05-23T07:15:19Z</time>
      </trkpt>
      <trkpt lat="43.44291" lon="2.52922">
        <ele>594.9</ele>
        <time>2026-05-23T07:15:24Z</time>
      </trkpt>
      <trkpt lat="43.44289" lon="2.52926">
        <ele>596.5</ele>
        <time>2026-05-23T07:15:29Z</time>
      </trkpt>
      <trkpt lat="43.44289" lon="2.52929">
        <ele>597.5</ele>
        <time>2026-05-23T07:15:34Z</time>
      </trkpt>
      <trkpt lat="43.44289" lon="2.52929">
        <ele>597.5</ele>
        <time>2026-05-23T07:15:39Z</time>
      </trkpt>
      <trkpt lat="43.44283" lon="2.52937">
        <ele>600.6</ele>
        <time>2026-05-23T07:15:44Z</time>
      </trkpt>
      <trkpt lat="43.44278" lon="2.52941">
        <ele>602.2</ele>
        <time>2026-05-23T07:15:49Z</time>
      </trkpt>
      <trkpt lat="43.44274" lon="2.52946">
        <ele>603.8</ele>
        <time>2026-05-23T07:15:54Z</time>
      </trkpt>
      <trkpt lat="43.44272" lon="2.52949">
        <ele>604.8</ele>
        <time>2026-05-23T07:15:59Z</time>
      </trkpt>
      <trkpt lat="43.44269" lon="2.52949">
        <ele>604.9</ele>
        <time>2026-05-23T07:16:04Z</time>
      </trkpt>
      <trkpt lat="43.44265" lon="2.5295">
        <ele>605.2</ele>
        <time>2026-05-23T07:16:09Z</time>
      </trkpt>
      <trkpt lat="43.44262" lon="2.52952">
        <ele>605.8</ele>
        <time>2026-05-23T07:16:14Z</time>
      </trkpt>
      <trkpt lat="43.44259" lon="2.52956">
        <ele>606.9</ele>
        <time>2026-05-23T07:16:19Z</time>
      </trkpt>
      <trkpt lat="43.44259" lon="2.5296">
        <ele>607.9</ele>
        <time>2026-05-23T07:16:24Z</time>
      </trkpt>
      <trkpt lat="43.4426" lon="2.52967">
        <ele>609.7</ele>
        <time>2026-05-23T07:16:29Z</time>
      </trkpt>
      <trkpt lat="43.4426" lon="2.52967">
        <ele>609.7</ele>
        <time>2026-05-23T07:16:34Z</time>
      </trkpt>
      <trkpt lat="43.4426" lon="2.52967">
        <ele>609.7</ele>
        <time>2026-05-23T07:16:39Z</time>
      </trkpt>
      <trkpt lat="43.4426" lon="2.52967">
        <ele>609.7</ele>
        <time>2026-05-23T07:16:44Z</time>
      </trkpt>
      <trkpt lat="43.4426" lon="2.52967">
        <ele>609.7</ele>
        <time>2026-05-23T07:16:49Z</time>
      </trkpt>
      <trkpt lat="43.44255" lon="2.52976">
        <ele>611.8</ele>
        <time>2026-05-23T07:16:54Z</time>
      </trkpt>
      <trkpt lat="43.44255" lon="2.52976">
        <ele>611.8</ele>
        <time>2026-05-23T07:16:59Z</time>
      </trkpt>
      <trkpt lat="43.44255" lon="2.52976">
        <ele>611.8</ele>
        <time>2026-05-23T07:17:04Z</time>
      </trkpt>
      <trkpt lat="43.44255" lon="2.52976">
        <ele>611.8</ele>
        <time>2026-05-23T07:17:09Z</time>
      </trkpt>
      <trkpt lat="43.44255" lon="2.52976">
        <ele>611.8</ele>
        <time>2026-05-23T07:17:14Z</time>
      </trkpt>
      <trkpt lat="43.44255" lon="2.52976">
        <ele>611.8</ele>
        <time>2026-05-23T07:17:19Z</time>
      </trkpt>
      <trkpt lat="43.44255" lon="2.52976">
        <ele>611.8</ele>
        <time>2026-05-23T07:17:24Z</time>
      </trkpt>
      <trkpt lat="43.44255" lon="2.52976">
        <ele>611.8</ele>
        <time>2026-05-23T07:17:29Z</time>
      </trkpt>
      <trkpt lat="43.44255" lon="2.52976">
        <ele>611.8</ele>
        <time>2026-05-23T07:17:34Z</time>
      </trkpt>
      <trkpt lat="43.44255" lon="2.52976">
        <ele>611.8</ele>
        <time>2026-05-23T07:17:39Z</time>
      </trkpt>
      <trkpt lat="43.44255" lon="2.52976">
        <ele>611.8</ele>
        <time>2026-05-23T07:17:44Z</time>
      </trkpt>
      <trkpt lat="43.44262" lon="2.52968">
        <ele>610</ele>
        <time>2026-05-23T07:17:49Z</time>
      </trkpt>
      <trkpt lat="43.44262" lon="2.52967">
        <ele>609.8</ele>
        <time>2026-05-23T07:17:54Z</time>
      </trkpt>
      <trkpt lat="43.44262" lon="2.52967">
        <ele>609.8</ele>
        <time>2026-05-23T07:17:59Z</time>
      </trkpt>
      <trkpt lat="43.44262" lon="2.52967">
        <ele>609.8</ele>
        <time>2026-05-23T07:18:04Z</time>
      </trkpt>
      <trkpt lat="43.44262" lon="2.52967">
        <ele>609.8</ele>
        <time>2026-05-23T07:18:09Z</time>
      </trkpt>
      <trkpt lat="43.44262" lon="2.52967">
        <ele>609.8</ele>
        <time>2026-05-23T07:18:14Z</time>
      </trkpt>
      <trkpt lat="43.44262" lon="2.52967">
        <ele>609.8</ele>
        <time>2026-05-23T07:18:19Z</time>
      </trkpt>
      <trkpt lat="43.44262" lon="2.52967">
        <ele>609.8</ele>
        <time>2026-05-23T07:18:24Z</time>
      </trkpt>
      <trkpt lat="43.44262" lon="2.52967">
        <ele>609.8</ele>
        <time>2026-05-23T07:18:29Z</time>
      </trkpt>
      <trkpt lat="43.44262" lon="2.52967">
        <ele>609.8</ele>
        <time>2026-05-23T07:18:34Z</time>
      </trkpt>
      <trkpt lat="43.44262" lon="2.52967">
        <ele>609.8</ele>
        <time>2026-05-23T07:18:39Z</time>
      </trkpt>
      <trkpt lat="43.44262" lon="2.52967">
        <ele>609.8</ele>
        <time>2026-05-23T07:18:44Z</time>
      </trkpt>
      <trkpt lat="43.44262" lon="2.52967">
        <ele>609.8</ele>
        <time>2026-05-23T07:18:49Z</time>
      </trkpt>
      <trkpt lat="43.44262" lon="2.52967">
        <ele>609.8</ele>
        <time>2026-05-23T07:18:54Z</time>
      </trkpt>
      <trkpt lat="43.44262" lon="2.52967">
        <ele>609.8</ele>
        <time>2026-05-23T07:18:59Z</time>
      </trkpt>
      <trkpt lat="43.44262" lon="2.52967">
        <ele>609.8</ele>
        <time>2026-05-23T07:19:04Z</time>
      </trkpt>
      <trkpt lat="43.44262" lon="2.52967">
        <ele>609.8</ele>
        <time>2026-05-23T07:19:09Z</time>
      </trkpt>
      <trkpt lat="43.44262" lon="2.52967">
        <ele>609.8</ele>
        <time>2026-05-23T07:19:14Z</time>
      </trkpt>
      <trkpt lat="43.44262" lon="2.52967">
        <ele>609.8</ele>
        <time>2026-05-23T07:19:19Z</time>
      </trkpt>
      <trkpt lat="43.44262" lon="2.52967">
        <ele>609.8</ele>
        <time>2026-05-23T07:19:24Z</time>
      </trkpt>
      <trkpt lat="43.44256" lon="2.52962">
        <ele>608.4</ele>
        <time>2026-05-23T07:19:29Z</time>
      </trkpt>
      <trkpt lat="43.4425" lon="2.52961">
        <ele>608.1</ele>
        <time>2026-05-23T07:19:34Z</time>
      </trkpt>
      <trkpt lat="43.44245" lon="2.52962">
        <ele>610.2</ele>
        <time>2026-05-23T07:19:39Z</time>
      </trkpt>
      <trkpt lat="43.44246" lon="2.52964">
        <ele>610.3</ele>
        <time>2026-05-23T07:19:44Z</time>
      </trkpt>
      <trkpt lat="43.44244" lon="2.52966">
        <ele>611.5</ele>
        <time>2026-05-23T07:19:49Z</time>
      </trkpt>
      <trkpt lat="43.44242" lon="2.52966">
        <ele>612.2</ele>
        <time>2026-05-23T07:19:54Z</time>
      </trkpt>
      <trkpt lat="43.44237" lon="2.52973">
        <ele>615.6</ele>
        <time>2026-05-23T07:19:59Z</time>
      </trkpt>
      <trkpt lat="43.44234" lon="2.52976">
        <ele>617.4</ele>
        <time>2026-05-23T07:20:04Z</time>
      </trkpt>
      <trkpt lat="43.44233" lon="2.52978">
        <ele>618.2</ele>
        <time>2026-05-23T07:20:09Z</time>
      </trkpt>
      <trkpt lat="43.44231" lon="2.5298">
        <ele>619.4</ele>
        <time>2026-05-23T07:20:14Z</time>
      </trkpt>
      <trkpt lat="43.44231" lon="2.52979">
        <ele>619.2</ele>
        <time>2026-05-23T07:20:19Z</time>
      </trkpt>
      <trkpt lat="43.44231" lon="2.52979">
        <ele>619.2</ele>
        <time>2026-05-23T07:20:24Z</time>
      </trkpt>
      <trkpt lat="43.44231" lon="2.52979">
        <ele>619.2</ele>
        <time>2026-05-23T07:20:29Z</time>
      </trkpt>
      <trkpt lat="43.44231" lon="2.52979">
        <ele>619.2</ele>
        <time>2026-05-23T07:20:34Z</time>
      </trkpt>
      <trkpt lat="43.44231" lon="2.52979">
        <ele>619.2</ele>
        <time>2026-05-23T07:20:39Z</time>
      </trkpt>
      <trkpt lat="43.44231" lon="2.52979">
        <ele>619.2</ele>
        <time>2026-05-23T07:20:44Z</time>
      </trkpt>
      <trkpt lat="43.44231" lon="2.52979">
        <ele>619.2</ele>
        <time>2026-05-23T07:20:49Z</time>
      </trkpt>
      <trkpt lat="43.44231" lon="2.52979">
        <ele>619.2</ele>
        <time>2026-05-23T07:20:54Z</time>
      </trkpt>
      <trkpt lat="43.44231" lon="2.52979">
        <ele>619.2</ele>
        <time>2026-05-23T07:20:59Z</time>
      </trkpt>
      <trkpt lat="43.44231" lon="2.52979">
        <ele>619.2</ele>
        <time>2026-05-23T07:21:04Z</time>
      </trkpt>
      <trkpt lat="43.44231" lon="2.52979">
        <ele>619.2</ele>
        <time>2026-05-23T07:21:09Z</time>
      </trkpt>
      <trkpt lat="43.44231" lon="2.52979">
        <ele>619.2</ele>
        <time>2026-05-23T07:21:14Z</time>
      </trkpt>
      <trkpt lat="43.44222" lon="2.52984">
        <ele>623.6</ele>
        <time>2026-05-23T07:21:19Z</time>
      </trkpt>
      <trkpt lat="43.44222" lon="2.52984">
        <ele>623.6</ele>
        <time>2026-05-23T07:21:24Z</time>
      </trkpt>
      <trkpt lat="43.44222" lon="2.52984">
        <ele>623.6</ele>
        <time>2026-05-23T07:21:29Z</time>
      </trkpt>
      <trkpt lat="43.44222" lon="2.52984">
        <ele>623.6</ele>
        <time>2026-05-23T07:21:34Z</time>
      </trkpt>
      <trkpt lat="43.44217" lon="2.52985">
        <ele>625.6</ele>
        <time>2026-05-23T07:21:39Z</time>
      </trkpt>
      <trkpt lat="43.44212" lon="2.52986">
        <ele>627.6</ele>
        <time>2026-05-23T07:21:44Z</time>
      </trkpt>
      <trkpt lat="43.44207" lon="2.5299">
        <ele>630.3</ele>
        <time>2026-05-23T07:21:49Z</time>
      </trkpt>
      <trkpt lat="43.44204" lon="2.5299">
        <ele>631.4</ele>
        <time>2026-05-23T07:21:54Z</time>
      </trkpt>
      <trkpt lat="43.44199" lon="2.52994">
        <ele>634.1</ele>
        <time>2026-05-23T07:21:59Z</time>
      </trkpt>
      <trkpt lat="43.44193" lon="2.52996">
        <ele>636.7</ele>
        <time>2026-05-23T07:22:04Z</time>
      </trkpt>
      <trkpt lat="43.44188" lon="2.52997">
        <ele>638.7</ele>
        <time>2026-05-23T07:22:09Z</time>
      </trkpt>
      <trkpt lat="43.44182" lon="2.53">
        <ele>641.5</ele>
        <time>2026-05-23T07:22:14Z</time>
      </trkpt>
      <trkpt lat="43.44178" lon="2.53001">
        <ele>643.1</ele>
        <time>2026-05-23T07:22:19Z</time>
      </trkpt>
      <trkpt lat="43.44172" lon="2.53001">
        <ele>645.3</ele>
        <time>2026-05-23T07:22:24Z</time>
      </trkpt>
      <trkpt lat="43.44168" lon="2.53004">
        <ele>647.2</ele>
        <time>2026-05-23T07:22:29Z</time>
      </trkpt>
      <trkpt lat="43.44164" lon="2.53006">
        <ele>649.4</ele>
        <time>2026-05-23T07:22:34Z</time>
      </trkpt>
      <trkpt lat="43.44162" lon="2.53006">
        <ele>650.5</ele>
        <time>2026-05-23T07:22:39Z</time>
      </trkpt>
      <trkpt lat="43.4416" lon="2.53009">
        <ele>652.1</ele>
        <time>2026-05-23T07:22:44Z</time>
      </trkpt>
      <trkpt lat="43.44157" lon="2.53012">
        <ele>654.3</ele>
        <time>2026-05-23T07:22:49Z</time>
      </trkpt>
      <trkpt lat="43.44153" lon="2.53005">
        <ele>655.4</ele>
        <time>2026-05-23T07:22:54Z</time>
      </trkpt>
      <trkpt lat="43.4415" lon="2.52998">
        <ele>655.8</ele>
        <time>2026-05-23T07:22:59Z</time>
      </trkpt>
      <trkpt lat="43.44148" lon="2.52997">
        <ele>656.6</ele>
        <time>2026-05-23T07:23:04Z</time>
      </trkpt>
      <trkpt lat="43.44148" lon="2.52997">
        <ele>656.6</ele>
        <time>2026-05-23T07:23:09Z</time>
      </trkpt>
      <trkpt lat="43.44148" lon="2.52997">
        <ele>656.6</ele>
        <time>2026-05-23T07:23:14Z</time>
      </trkpt>
      <trkpt lat="43.44148" lon="2.52997">
        <ele>656.6</ele>
        <time>2026-05-23T07:23:19Z</time>
      </trkpt>
      <trkpt lat="43.44148" lon="2.52997">
        <ele>656.6</ele>
        <time>2026-05-23T07:23:24Z</time>
      </trkpt>
      <trkpt lat="43.44148" lon="2.52997">
        <ele>656.6</ele>
        <time>2026-05-23T07:23:29Z</time>
      </trkpt>
      <trkpt lat="43.44148" lon="2.52997">
        <ele>656.6</ele>
        <time>2026-05-23T07:23:34Z</time>
      </trkpt>
      <trkpt lat="43.44148" lon="2.52997">
        <ele>656.6</ele>
        <time>2026-05-23T07:23:39Z</time>
      </trkpt>
      <trkpt lat="43.44148" lon="2.52997">
        <ele>656.6</ele>
        <time>2026-05-23T07:23:44Z</time>
      </trkpt>
      <trkpt lat="43.44148" lon="2.52997">
        <ele>656.6</ele>
        <time>2026-05-23T07:23:49Z</time>
      </trkpt>
      <trkpt lat="43.44146" lon="2.53004">
        <ele>659.1</ele>
        <time>2026-05-23T07:23:54Z</time>
      </trkpt>
      <trkpt lat="43.44145" lon="2.53006">
        <ele>660</ele>
        <time>2026-05-23T07:23:59Z</time>
      </trkpt>
      <trkpt lat="43.44141" lon="2.53007">
        <ele>662.4</ele>
        <time>2026-05-23T07:24:04Z</time>
      </trkpt>
      <trkpt lat="43.44136" lon="2.53006">
        <ele>665</ele>
        <time>2026-05-23T07:24:09Z</time>
      </trkpt>
      <trkpt lat="43.44131" lon="2.5301">
        <ele>668.5</ele>
        <time>2026-05-23T07:24:14Z</time>
      </trkpt>
      <trkpt lat="43.44127" lon="2.53016">
        <ele>671.8</ele>
        <time>2026-05-23T07:24:19Z</time>
      </trkpt>
      <trkpt lat="43.44124" lon="2.53022">
        <ele>674.5</ele>
        <time>2026-05-23T07:24:24Z</time>
      </trkpt>
      <trkpt lat="43.44124" lon="2.53027">
        <ele>675.4</ele>
        <time>2026-05-23T07:24:29Z</time>
      </trkpt>
      <trkpt lat="43.44124" lon="2.53027">
        <ele>675.4</ele>
        <time>2026-05-23T07:24:34Z</time>
      </trkpt>
      <trkpt lat="43.44124" lon="2.53027">
        <ele>675.4</ele>
        <time>2026-05-23T07:24:39Z</time>
      </trkpt>
      <trkpt lat="43.44124" lon="2.53027">
        <ele>675.4</ele>
        <time>2026-05-23T07:24:44Z</time>
      </trkpt>
      <trkpt lat="43.44124" lon="2.53027">
        <ele>675.4</ele>
        <time>2026-05-23T07:24:49Z</time>
      </trkpt>
      <trkpt lat="43.44124" lon="2.53027">
        <ele>675.4</ele>
        <time>2026-05-23T07:24:54Z</time>
      </trkpt>
      <trkpt lat="43.44124" lon="2.53027">
        <ele>675.4</ele>
        <time>2026-05-23T07:24:59Z</time>
      </trkpt>
      <trkpt lat="43.44124" lon="2.53027">
        <ele>675.4</ele>
        <time>2026-05-23T07:25:04Z</time>
      </trkpt>
      <trkpt lat="43.44124" lon="2.53027">
        <ele>675.4</ele>
        <time>2026-05-23T07:25:09Z</time>
      </trkpt>
      <trkpt lat="43.44124" lon="2.53027">
        <ele>675.4</ele>
        <time>2026-05-23T07:25:14Z</time>
      </trkpt>
      <trkpt lat="43.44124" lon="2.53027">
        <ele>675.4</ele>
        <time>2026-05-23T07:25:19Z</time>
      </trkpt>
      <trkpt lat="43.44124" lon="2.53027">
        <ele>675.4</ele>
        <time>2026-05-23T07:25:24Z</time>
      </trkpt>
      <trkpt lat="43.44124" lon="2.53027">
        <ele>675.4</ele>
        <time>2026-05-23T07:25:29Z</time>
      </trkpt>
      <trkpt lat="43.44124" lon="2.53027">
        <ele>675.4</ele>
        <time>2026-05-23T07:25:34Z</time>
      </trkpt>
      <trkpt lat="43.44124" lon="2.53027">
        <ele>675.4</ele>
        <time>2026-05-23T07:25:39Z</time>
      </trkpt>
      <trkpt lat="43.44126" lon="2.53025">
        <ele>673.9</ele>
        <time>2026-05-23T07:25:44Z</time>
      </trkpt>
      <trkpt lat="43.44126" lon="2.5301">
        <ele>671.2</ele>
        <time>2026-05-23T07:25:49Z</time>
      </trkpt>
      <trkpt lat="43.44122" lon="2.53006">
        <ele>672.7</ele>
        <time>2026-05-23T07:25:54Z</time>
      </trkpt>
      <trkpt lat="43.44122" lon="2.53006">
        <ele>672.7</ele>
        <time>2026-05-23T07:25:59Z</time>
      </trkpt>
      <trkpt lat="43.44122" lon="2.53006">
        <ele>672.7</ele>
        <time>2026-05-23T07:26:04Z</time>
      </trkpt>
      <trkpt lat="43.44122" lon="2.53006">
        <ele>672.7</ele>
        <time>2026-05-23T07:26:09Z</time>
      </trkpt>
      <trkpt lat="43.44122" lon="2.53006">
        <ele>672.7</ele>
        <time>2026-05-23T07:26:14Z</time>
      </trkpt>
      <trkpt lat="43.44122" lon="2.53006">
        <ele>672.7</ele>
        <time>2026-05-23T07:26:19Z</time>
      </trkpt>
      <trkpt lat="43.44123" lon="2.52999">
        <ele>670.9</ele>
        <time>2026-05-23T07:26:24Z</time>
      </trkpt>
      <trkpt lat="43.44117" lon="2.52993">
        <ele>672.7</ele>
        <time>2026-05-23T07:26:29Z</time>
      </trkpt>
      <trkpt lat="43.44115" lon="2.52988">
        <ele>672.5</ele>
        <time>2026-05-23T07:26:34Z</time>
      </trkpt>
      <trkpt lat="43.44112" lon="2.52983">
        <ele>672.9</ele>
        <time>2026-05-23T07:26:39Z</time>
      </trkpt>
      <trkpt lat="43.44112" lon="2.52983">
        <ele>672.9</ele>
        <time>2026-05-23T07:26:44Z</time>
      </trkpt>
      <trkpt lat="43.44112" lon="2.52983">
        <ele>672.9</ele>
        <time>2026-05-23T07:26:49Z</time>
      </trkpt>
      <trkpt lat="43.44112" lon="2.52983">
        <ele>672.9</ele>
        <time>2026-05-23T07:26:54Z</time>
      </trkpt>
      <trkpt lat="43.44112" lon="2.52983">
        <ele>672.9</ele>
        <time>2026-05-23T07:26:59Z</time>
      </trkpt>
      <trkpt lat="43.44112" lon="2.52983">
        <ele>672.9</ele>
        <time>2026-05-23T07:27:04Z</time>
      </trkpt>
      <trkpt lat="43.44112" lon="2.52983">
        <ele>672.9</ele>
        <time>2026-05-23T07:27:09Z</time>
      </trkpt>
      <trkpt lat="43.44112" lon="2.52983">
        <ele>672.9</ele>
        <time>2026-05-23T07:27:14Z</time>
      </trkpt>
      <trkpt lat="43.44112" lon="2.52983">
        <ele>672.9</ele>
        <time>2026-05-23T07:27:19Z</time>
      </trkpt>
      <trkpt lat="43.44112" lon="2.52983">
        <ele>672.9</ele>
        <time>2026-05-23T07:27:24Z</time>
      </trkpt>
      <trkpt lat="43.44112" lon="2.52983">
        <ele>672.9</ele>
        <time>2026-05-23T07:27:29Z</time>
      </trkpt>
      <trkpt lat="43.4412" lon="2.52979">
        <ele>667.6</ele>
        <time>2026-05-23T07:27:34Z</time>
      </trkpt>
      <trkpt lat="43.44122" lon="2.52972">
        <ele>664.9</ele>
        <time>2026-05-23T07:27:39Z</time>
      </trkpt>
      <trkpt lat="43.44124" lon="2.52973">
        <ele>664</ele>
        <time>2026-05-23T07:27:44Z</time>
      </trkpt>
      <trkpt lat="43.44125" lon="2.52976">
        <ele>664.2</ele>
        <time>2026-05-23T07:27:49Z</time>
      </trkpt>
      <trkpt lat="43.44125" lon="2.52975">
        <ele>664</ele>
        <time>2026-05-23T07:27:54Z</time>
      </trkpt>
      <trkpt lat="43.44121" lon="2.52972">
        <ele>665.4</ele>
        <time>2026-05-23T07:27:59Z</time>
      </trkpt>
      <trkpt lat="43.44119" lon="2.52972">
        <ele>666.4</ele>
        <time>2026-05-23T07:28:04Z</time>
      </trkpt>
      <trkpt lat="43.44117" lon="2.52967">
        <ele>666.3</ele>
        <time>2026-05-23T07:28:09Z</time>
      </trkpt>
      <trkpt lat="43.44116" lon="2.52963">
        <ele>665.8</ele>
        <time>2026-05-23T07:28:14Z</time>
      </trkpt>
      <trkpt lat="43.44115" lon="2.52963">
        <ele>666.3</ele>
        <time>2026-05-23T07:28:19Z</time>
      </trkpt>
      <trkpt lat="43.44115" lon="2.52963">
        <ele>666.3</ele>
        <time>2026-05-23T07:28:24Z</time>
      </trkpt>
      <trkpt lat="43.44115" lon="2.52963">
        <ele>666.3</ele>
        <time>2026-05-23T07:28:29Z</time>
      </trkpt>
      <trkpt lat="43.44115" lon="2.52963">
        <ele>666.3</ele>
        <time>2026-05-23T07:28:34Z</time>
      </trkpt>
      <trkpt lat="43.44115" lon="2.52963">
        <ele>666.3</ele>
        <time>2026-05-23T07:28:39Z</time>
      </trkpt>
      <trkpt lat="43.44117" lon="2.52951">
        <ele>662.3</ele>
        <time>2026-05-23T07:28:44Z</time>
      </trkpt>
      <trkpt lat="43.44114" lon="2.52943">
        <ele>661.9</ele>
        <time>2026-05-23T07:28:49Z</time>
      </trkpt>
      <trkpt lat="43.4411" lon="2.52935">
        <ele>661.8</ele>
        <time>2026-05-23T07:28:54Z</time>
      </trkpt>
      <trkpt lat="43.44106" lon="2.52929">
        <ele>662.3</ele>
        <time>2026-05-23T07:28:59Z</time>
      </trkpt>
      <trkpt lat="43.44103" lon="2.52926">
        <ele>663</ele>
        <time>2026-05-23T07:29:04Z</time>
      </trkpt>
      <trkpt lat="43.44101" lon="2.52921">
        <ele>662.6</ele>
        <time>2026-05-23T07:29:09Z</time>
      </trkpt>
      <trkpt lat="43.441" lon="2.5292">
        <ele>662.9</ele>
        <time>2026-05-23T07:29:14Z</time>
      </trkpt>
      <trkpt lat="43.441" lon="2.5292">
        <ele>662.9</ele>
        <time>2026-05-23T07:29:19Z</time>
      </trkpt>
      <trkpt lat="43.441" lon="2.5292">
        <ele>662.9</ele>
        <time>2026-05-23T07:29:24Z</time>
      </trkpt>
      <trkpt lat="43.441" lon="2.5292">
        <ele>662.9</ele>
        <time>2026-05-23T07:29:29Z</time>
      </trkpt>
      <trkpt lat="43.441" lon="2.5292">
        <ele>662.9</ele>
        <time>2026-05-23T07:29:34Z</time>
      </trkpt>
      <trkpt lat="43.441" lon="2.5292">
        <ele>662.9</ele>
        <time>2026-05-23T07:29:39Z</time>
      </trkpt>
      <trkpt lat="43.44095" lon="2.52916">
        <ele>664.2</ele>
        <time>2026-05-23T07:29:44Z</time>
      </trkpt>
      <trkpt lat="43.44093" lon="2.52912">
        <ele>664.2</ele>
        <time>2026-05-23T07:29:49Z</time>
      </trkpt>
      <trkpt lat="43.44088" lon="2.52909">
        <ele>665.7</ele>
        <time>2026-05-23T07:29:54Z</time>
      </trkpt>
      <trkpt lat="43.44086" lon="2.52906">
        <ele>665.8</ele>
        <time>2026-05-23T07:29:59Z</time>
      </trkpt>
      <trkpt lat="43.44085" lon="2.52902">
        <ele>665.2</ele>
        <time>2026-05-23T07:30:04Z</time>
      </trkpt>
      <trkpt lat="43.44085" lon="2.52902">
        <ele>665.2</ele>
        <time>2026-05-23T07:30:09Z</time>
      </trkpt>
      <trkpt lat="43.44085" lon="2.52902">
        <ele>665.2</ele>
        <time>2026-05-23T07:30:14Z</time>
      </trkpt>
      <trkpt lat="43.44085" lon="2.52902">
        <ele>665.2</ele>
        <time>2026-05-23T07:30:19Z</time>
      </trkpt>
      <trkpt lat="43.44085" lon="2.52902">
        <ele>665.2</ele>
        <time>2026-05-23T07:30:24Z</time>
      </trkpt>
      <trkpt lat="43.44085" lon="2.52902">
        <ele>665.2</ele>
        <time>2026-05-23T07:30:29Z</time>
      </trkpt>
      <trkpt lat="43.44085" lon="2.52902">
        <ele>665.2</ele>
        <time>2026-05-23T07:30:34Z</time>
      </trkpt>
      <trkpt lat="43.44085" lon="2.52902">
        <ele>665.2</ele>
        <time>2026-05-23T07:30:39Z</time>
      </trkpt>
      <trkpt lat="43.44085" lon="2.52902">
        <ele>665.2</ele>
        <time>2026-05-23T07:30:44Z</time>
      </trkpt>
      <trkpt lat="43.44085" lon="2.52902">
        <ele>665.2</ele>
        <time>2026-05-23T07:30:49Z</time>
      </trkpt>
      <trkpt lat="43.44085" lon="2.52902">
        <ele>665.2</ele>
        <time>2026-05-23T07:30:54Z</time>
      </trkpt>
      <trkpt lat="43.44085" lon="2.52894">
        <ele>663</ele>
        <time>2026-05-23T07:30:59Z</time>
      </trkpt>
      <trkpt lat="43.44086" lon="2.52887">
        <ele>660.7</ele>
        <time>2026-05-23T07:31:04Z</time>
      </trkpt>
      <trkpt lat="43.44086" lon="2.52884">
        <ele>659.9</ele>
        <time>2026-05-23T07:31:09Z</time>
      </trkpt>
      <trkpt lat="43.44083" lon="2.52882">
        <ele>660.5</ele>
        <time>2026-05-23T07:31:14Z</time>
      </trkpt>
      <trkpt lat="43.44083" lon="2.52881">
        <ele>660.2</ele>
        <time>2026-05-23T07:31:19Z</time>
      </trkpt>
      <trkpt lat="43.44083" lon="2.52881">
        <ele>660.2</ele>
        <time>2026-05-23T07:31:24Z</time>
      </trkpt>
      <trkpt lat="43.44083" lon="2.52881">
        <ele>660.2</ele>
        <time>2026-05-23T07:31:29Z</time>
      </trkpt>
      <trkpt lat="43.44075" lon="2.52874">
        <ele>659.9</ele>
        <time>2026-05-23T07:31:34Z</time>
      </trkpt>
      <trkpt lat="43.44074" lon="2.52873">
        <ele>659.8</ele>
        <time>2026-05-23T07:31:39Z</time>
      </trkpt>
      <trkpt lat="43.44074" lon="2.52873">
        <ele>659.8</ele>
        <time>2026-05-23T07:31:44Z</time>
      </trkpt>
      <trkpt lat="43.44068" lon="2.52877">
        <ele>662.2</ele>
        <time>2026-05-23T07:31:49Z</time>
      </trkpt>
      <trkpt lat="43.44067" lon="2.52879">
        <ele>663</ele>
        <time>2026-05-23T07:31:54Z</time>
      </trkpt>
      <trkpt lat="43.44067" lon="2.52881">
        <ele>663.5</ele>
        <time>2026-05-23T07:31:59Z</time>
      </trkpt>
      <trkpt lat="43.44067" lon="2.52881">
        <ele>663.5</ele>
        <time>2026-05-23T07:32:04Z</time>
      </trkpt>
      <trkpt lat="43.44067" lon="2.52881">
        <ele>663.5</ele>
        <time>2026-05-23T07:32:09Z</time>
      </trkpt>
      <trkpt lat="43.44067" lon="2.52881">
        <ele>663.5</ele>
        <time>2026-05-23T07:32:14Z</time>
      </trkpt>
      <trkpt lat="43.44067" lon="2.52881">
        <ele>663.5</ele>
        <time>2026-05-23T07:32:19Z</time>
      </trkpt>
      <trkpt lat="43.44067" lon="2.52881">
        <ele>663.5</ele>
        <time>2026-05-23T07:32:24Z</time>
      </trkpt>
      <trkpt lat="43.44067" lon="2.52881">
        <ele>663.5</ele>
        <time>2026-05-23T07:32:29Z</time>
      </trkpt>
      <trkpt lat="43.44067" lon="2.52881">
        <ele>663.5</ele>
        <time>2026-05-23T07:32:34Z</time>
      </trkpt>
      <trkpt lat="43.44067" lon="2.52881">
        <ele>663.5</ele>
        <time>2026-05-23T07:32:39Z</time>
      </trkpt>
      <trkpt lat="43.44058" lon="2.52882">
        <ele>665.7</ele>
        <time>2026-05-23T07:32:44Z</time>
      </trkpt>
      <trkpt lat="43.44058" lon="2.52883">
        <ele>665.9</ele>
        <time>2026-05-23T07:32:49Z</time>
      </trkpt>
      <trkpt lat="43.44055" lon="2.52887">
        <ele>667.7</ele>
        <time>2026-05-23T07:32:54Z</time>
      </trkpt>
      <trkpt lat="43.44055" lon="2.52888">
        <ele>668</ele>
        <time>2026-05-23T07:32:59Z</time>
      </trkpt>
      <trkpt lat="43.44055" lon="2.52888">
        <ele>668</ele>
        <time>2026-05-23T07:33:04Z</time>
      </trkpt>
      <trkpt lat="43.44055" lon="2.52888">
        <ele>668</ele>
        <time>2026-05-23T07:33:09Z</time>
      </trkpt>
      <trkpt lat="43.44055" lon="2.52888">
        <ele>668</ele>
        <time>2026-05-23T07:33:14Z</time>
      </trkpt>
      <trkpt lat="43.44055" lon="2.52888">
        <ele>668</ele>
        <time>2026-05-23T07:33:19Z</time>
      </trkpt>
      <trkpt lat="43.44048" lon="2.52876">
        <ele>666</ele>
        <time>2026-05-23T07:33:24Z</time>
      </trkpt>
      <trkpt lat="43.44046" lon="2.52873">
        <ele>665.5</ele>
        <time>2026-05-23T07:33:29Z</time>
      </trkpt>
      <trkpt lat="43.44044" lon="2.52869">
        <ele>664.8</ele>
        <time>2026-05-23T07:33:34Z</time>
      </trkpt>
      <trkpt lat="43.44042" lon="2.52868">
        <ele>664.9</ele>
        <time>2026-05-23T07:33:39Z</time>
      </trkpt>
      <trkpt lat="43.44041" lon="2.52866">
        <ele>664.5</ele>
        <time>2026-05-23T07:33:44Z</time>
      </trkpt>
      <trkpt lat="43.44041" lon="2.52866">
        <ele>664.5</ele>
        <time>2026-05-23T07:33:49Z</time>
      </trkpt>
      <trkpt lat="43.44041" lon="2.52866">
        <ele>664.5</ele>
        <time>2026-05-23T07:33:54Z</time>
      </trkpt>
      <trkpt lat="43.44041" lon="2.52866">
        <ele>664.5</ele>
        <time>2026-05-23T07:33:59Z</time>
      </trkpt>
      <trkpt lat="43.44028" lon="2.52862">
        <ele>666</ele>
        <time>2026-05-23T07:34:04Z</time>
      </trkpt>
      <trkpt lat="43.44026" lon="2.5286">
        <ele>665.8</ele>
        <time>2026-05-23T07:34:09Z</time>
      </trkpt>
      <trkpt lat="43.44023" lon="2.52858">
        <ele>665.8</ele>
        <time>2026-05-23T07:34:14Z</time>
      </trkpt>
      <trkpt lat="43.44021" lon="2.52857">
        <ele>665.9</ele>
        <time>2026-05-23T07:34:19Z</time>
      </trkpt>
      <trkpt lat="43.44018" lon="2.52859">
        <ele>667.1</ele>
        <time>2026-05-23T07:34:24Z</time>
      </trkpt>
      <trkpt lat="43.44018" lon="2.52859">
        <ele>667.1</ele>
        <time>2026-05-23T07:34:29Z</time>
      </trkpt>
      <trkpt lat="43.44018" lon="2.52859">
        <ele>667.1</ele>
        <time>2026-05-23T07:34:34Z</time>
      </trkpt>
      <trkpt lat="43.4401" lon="2.52853">
        <ele>666.9</ele>
        <time>2026-05-23T07:34:39Z</time>
      </trkpt>
      <trkpt lat="43.44006" lon="2.52853">
        <ele>667.7</ele>
        <time>2026-05-23T07:34:44Z</time>
      </trkpt>
      <trkpt lat="43.44006" lon="2.52855">
        <ele>668.3</ele>
        <time>2026-05-23T07:34:49Z</time>
      </trkpt>
      <trkpt lat="43.44006" lon="2.52855">
        <ele>668.3</ele>
        <time>2026-05-23T07:34:54Z</time>
      </trkpt>
      <trkpt lat="43.44006" lon="2.52855">
        <ele>668.3</ele>
        <time>2026-05-23T07:34:59Z</time>
      </trkpt>
      <trkpt lat="43.44006" lon="2.52855">
        <ele>668.3</ele>
        <time>2026-05-23T07:35:04Z</time>
      </trkpt>
      <trkpt lat="43.44006" lon="2.52855">
        <ele>668.3</ele>
        <time>2026-05-23T07:35:09Z</time>
      </trkpt>
      <trkpt lat="43.44006" lon="2.52855">
        <ele>668.3</ele>
        <time>2026-05-23T07:35:14Z</time>
      </trkpt>
      <trkpt lat="43.44006" lon="2.52855">
        <ele>668.3</ele>
        <time>2026-05-23T07:35:19Z</time>
      </trkpt>
      <trkpt lat="43.44006" lon="2.52855">
        <ele>668.3</ele>
        <time>2026-05-23T07:35:24Z</time>
      </trkpt>
      <trkpt lat="43.44006" lon="2.52855">
        <ele>668.3</ele>
        <time>2026-05-23T07:35:29Z</time>
      </trkpt>
      <trkpt lat="43.44006" lon="2.52855">
        <ele>668.3</ele>
        <time>2026-05-23T07:35:34Z</time>
      </trkpt>
      <trkpt lat="43.44006" lon="2.52855">
        <ele>668.3</ele>
        <time>2026-05-23T07:35:39Z</time>
      </trkpt>
      <trkpt lat="43.44006" lon="2.52855">
        <ele>668.3</ele>
        <time>2026-05-23T07:35:44Z</time>
      </trkpt>
      <trkpt lat="43.44006" lon="2.52855">
        <ele>668.3</ele>
        <time>2026-05-23T07:35:49Z</time>
      </trkpt>
      <trkpt lat="43.44006" lon="2.52855">
        <ele>668.3</ele>
        <time>2026-05-23T07:35:54Z</time>
      </trkpt>
      <trkpt lat="43.44006" lon="2.52855">
        <ele>668.3</ele>
        <time>2026-05-23T07:35:59Z</time>
      </trkpt>
      <trkpt lat="43.44006" lon="2.52855">
        <ele>668.3</ele>
        <time>2026-05-23T07:36:04Z</time>
      </trkpt>
      <trkpt lat="43.44006" lon="2.52855">
        <ele>668.3</ele>
        <time>2026-05-23T07:36:09Z</time>
      </trkpt>
      <trkpt lat="43.43995" lon="2.52851">
        <ele>669</ele>
        <time>2026-05-23T07:36:14Z</time>
      </trkpt>
      <trkpt lat="43.43985" lon="2.52852">
        <ele>670.6</ele>
        <time>2026-05-23T07:36:19Z</time>
      </trkpt>
      <trkpt lat="43.43978" lon="2.52858">
        <ele>673.3</ele>
        <time>2026-05-23T07:36:24Z</time>
      </trkpt>
      <trkpt lat="43.43973" lon="2.5286">
        <ele>674.6</ele>
        <time>2026-05-23T07:36:29Z</time>
      </trkpt>
      <trkpt lat="43.4397" lon="2.5286">
        <ele>675</ele>
        <time>2026-05-23T07:36:34Z</time>
      </trkpt>
      <trkpt lat="43.43966" lon="2.52859">
        <ele>675.2</ele>
        <time>2026-05-23T07:36:39Z</time>
      </trkpt>
      <trkpt lat="43.43961" lon="2.52858">
        <ele>675.6</ele>
        <time>2026-05-23T07:36:44Z</time>
      </trkpt>
      <trkpt lat="43.43956" lon="2.52859">
        <ele>676.5</ele>
        <time>2026-05-23T07:36:49Z</time>
      </trkpt>
      <trkpt lat="43.43953" lon="2.52861">
        <ele>677.5</ele>
        <time>2026-05-23T07:36:54Z</time>
      </trkpt>
      <trkpt lat="43.43949" lon="2.52857">
        <ele>676.9</ele>
        <time>2026-05-23T07:36:59Z</time>
      </trkpt>
      <trkpt lat="43.43944" lon="2.52855">
        <ele>677</ele>
        <time>2026-05-23T07:37:04Z</time>
      </trkpt>
      <trkpt lat="43.43941" lon="2.52855">
        <ele>677.4</ele>
        <time>2026-05-23T07:37:09Z</time>
      </trkpt>
      <trkpt lat="43.43937" lon="2.52856">
        <ele>678.3</ele>
        <time>2026-05-23T07:37:14Z</time>
      </trkpt>
      <trkpt lat="43.43933" lon="2.52855">
        <ele>678.5</ele>
        <time>2026-05-23T07:37:19Z</time>
      </trkpt>
      <trkpt lat="43.4393" lon="2.52855">
        <ele>678.9</ele>
        <time>2026-05-23T07:37:24Z</time>
      </trkpt>
      <trkpt lat="43.43926" lon="2.52858">
        <ele>680.3</ele>
        <time>2026-05-23T07:37:29Z</time>
      </trkpt>
      <trkpt lat="43.43925" lon="2.52863">
        <ele>681.7</ele>
        <time>2026-05-23T07:37:34Z</time>
      </trkpt>
      <trkpt lat="43.43921" lon="2.52867">
        <ele>683.3</ele>
        <time>2026-05-23T07:37:39Z</time>
      </trkpt>
      <trkpt lat="43.43917" lon="2.52869">
        <ele>684.4</ele>
        <time>2026-05-23T07:37:44Z</time>
      </trkpt>
      <trkpt lat="43.43915" lon="2.5287">
        <ele>684.8</ele>
        <time>2026-05-23T07:37:49Z</time>
      </trkpt>
      <trkpt lat="43.43912" lon="2.52872">
        <ele>685.4</ele>
        <time>2026-05-23T07:37:54Z</time>
      </trkpt>
      <trkpt lat="43.43907" lon="2.52875">
        <ele>686.5</ele>
        <time>2026-05-23T07:37:59Z</time>
      </trkpt>
      <trkpt lat="43.43904" lon="2.52874">
        <ele>686.4</ele>
        <time>2026-05-23T07:38:04Z</time>
      </trkpt>
      <trkpt lat="43.43902" lon="2.52872">
        <ele>686</ele>
        <time>2026-05-23T07:38:09Z</time>
      </trkpt>
      <trkpt lat="43.439" lon="2.52872">
        <ele>686.1</ele>
        <time>2026-05-23T07:38:14Z</time>
      </trkpt>
      <trkpt lat="43.43896" lon="2.52876">
        <ele>687.2</ele>
        <time>2026-05-23T07:38:19Z</time>
      </trkpt>
      <trkpt lat="43.43893" lon="2.52871">
        <ele>686.2</ele>
        <time>2026-05-23T07:38:24Z</time>
      </trkpt>
      <trkpt lat="43.43892" lon="2.52868">
        <ele>685.5</ele>
        <time>2026-05-23T07:38:29Z</time>
      </trkpt>
      <trkpt lat="43.4389" lon="2.52868">
        <ele>685.6</ele>
        <time>2026-05-23T07:38:34Z</time>
      </trkpt>
      <trkpt lat="43.43885" lon="2.52869">
        <ele>686.1</ele>
        <time>2026-05-23T07:38:39Z</time>
      </trkpt>
      <trkpt lat="43.43883" lon="2.52873">
        <ele>687.1</ele>
        <time>2026-05-23T07:38:44Z</time>
      </trkpt>
      <trkpt lat="43.43882" lon="2.52873">
        <ele>687.2</ele>
        <time>2026-05-23T07:38:49Z</time>
      </trkpt>
      <trkpt lat="43.43878" lon="2.52875">
        <ele>687.9</ele>
        <time>2026-05-23T07:38:54Z</time>
      </trkpt>
      <trkpt lat="43.43877" lon="2.52879">
        <ele>688.8</ele>
        <time>2026-05-23T07:38:59Z</time>
      </trkpt>
      <trkpt lat="43.43873" lon="2.52881">
        <ele>689.5</ele>
        <time>2026-05-23T07:39:04Z</time>
      </trkpt>
      <trkpt lat="43.43868" lon="2.52882">
        <ele>689.9</ele>
        <time>2026-05-23T07:39:09Z</time>
      </trkpt>
      <trkpt lat="43.43867" lon="2.52883">
        <ele>690.2</ele>
        <time>2026-05-23T07:39:14Z</time>
      </trkpt>
      <trkpt lat="43.43863" lon="2.52883">
        <ele>690.3</ele>
        <time>2026-05-23T07:39:19Z</time>
      </trkpt>
      <trkpt lat="43.43859" lon="2.52884">
        <ele>690.7</ele>
        <time>2026-05-23T07:39:24Z</time>
      </trkpt>
      <trkpt lat="43.43854" lon="2.52885">
        <ele>691.1</ele>
        <time>2026-05-23T07:39:29Z</time>
      </trkpt>
      <trkpt lat="43.4385" lon="2.52884">
        <ele>691.1</ele>
        <time>2026-05-23T07:39:34Z</time>
      </trkpt>
      <trkpt lat="43.43846" lon="2.52884">
        <ele>691.2</ele>
        <time>2026-05-23T07:39:39Z</time>
      </trkpt>
      <trkpt lat="43.43842" lon="2.52887">
        <ele>692</ele>
        <time>2026-05-23T07:39:44Z</time>
      </trkpt>
      <trkpt lat="43.43839" lon="2.5289">
        <ele>692.7</ele>
        <time>2026-05-23T07:39:49Z</time>
      </trkpt>
      <trkpt lat="43.43832" lon="2.52895">
        <ele>694</ele>
        <time>2026-05-23T07:39:54Z</time>
      </trkpt>
      <trkpt lat="43.43827" lon="2.52897">
        <ele>695</ele>
        <time>2026-05-23T07:39:59Z</time>
      </trkpt>
      <trkpt lat="43.43825" lon="2.52898">
        <ele>695.4</ele>
        <time>2026-05-23T07:40:04Z</time>
      </trkpt>
      <trkpt lat="43.43823" lon="2.52901">
        <ele>696.2</ele>
        <time>2026-05-23T07:40:09Z</time>
      </trkpt>
      <trkpt lat="43.43819" lon="2.52901">
        <ele>696.6</ele>
        <time>2026-05-23T07:40:14Z</time>
      </trkpt>
      <trkpt lat="43.43816" lon="2.52906">
        <ele>697.8</ele>
        <time>2026-05-23T07:40:19Z</time>
      </trkpt>
      <trkpt lat="43.43814" lon="2.52904">
        <ele>697.7</ele>
        <time>2026-05-23T07:40:24Z</time>
      </trkpt>
      <trkpt lat="43.43809" lon="2.529">
        <ele>697.6</ele>
        <time>2026-05-23T07:40:29Z</time>
      </trkpt>
      <trkpt lat="43.43805" lon="2.529">
        <ele>698.1</ele>
        <time>2026-05-23T07:40:34Z</time>
      </trkpt>
      <trkpt lat="43.43803" lon="2.529">
        <ele>698.3</ele>
        <time>2026-05-23T07:40:39Z</time>
      </trkpt>
      <trkpt lat="43.43799" lon="2.52898">
        <ele>698.5</ele>
        <time>2026-05-23T07:40:44Z</time>
      </trkpt>
      <trkpt lat="43.43797" lon="2.52901">
        <ele>699.1</ele>
        <time>2026-05-23T07:40:49Z</time>
      </trkpt>
      <trkpt lat="43.43792" lon="2.52905">
        <ele>700.3</ele>
        <time>2026-05-23T07:40:54Z</time>
      </trkpt>
      <trkpt lat="43.43789" lon="2.52905">
        <ele>700.6</ele>
        <time>2026-05-23T07:40:59Z</time>
      </trkpt>
      <trkpt lat="43.43786" lon="2.52906">
        <ele>701.1</ele>
        <time>2026-05-23T07:41:04Z</time>
      </trkpt>
      <trkpt lat="43.43782" lon="2.52909">
        <ele>701.9</ele>
        <time>2026-05-23T07:41:09Z</time>
      </trkpt>
      <trkpt lat="43.43781" lon="2.52907">
        <ele>701.8</ele>
        <time>2026-05-23T07:41:14Z</time>
      </trkpt>
      <trkpt lat="43.43781" lon="2.52907">
        <ele>701.8</ele>
        <time>2026-05-23T07:41:19Z</time>
      </trkpt>
      <trkpt lat="43.43781" lon="2.52907">
        <ele>701.8</ele>
        <time>2026-05-23T07:41:24Z</time>
      </trkpt>
      <trkpt lat="43.43781" lon="2.52907">
        <ele>701.8</ele>
        <time>2026-05-23T07:41:29Z</time>
      </trkpt>
      <trkpt lat="43.43781" lon="2.52907">
        <ele>701.8</ele>
        <time>2026-05-23T07:41:34Z</time>
      </trkpt>
      <trkpt lat="43.43781" lon="2.52907">
        <ele>701.8</ele>
        <time>2026-05-23T07:41:39Z</time>
      </trkpt>
      <trkpt lat="43.43781" lon="2.52907">
        <ele>701.8</ele>
        <time>2026-05-23T07:41:44Z</time>
      </trkpt>
      <trkpt lat="43.43781" lon="2.52907">
        <ele>701.8</ele>
        <time>2026-05-23T07:41:49Z</time>
      </trkpt>
      <trkpt lat="43.43781" lon="2.52907">
        <ele>701.8</ele>
        <time>2026-05-23T07:41:54Z</time>
      </trkpt>
      <trkpt lat="43.43781" lon="2.52907">
        <ele>701.8</ele>
        <time>2026-05-23T07:41:59Z</time>
      </trkpt>
      <trkpt lat="43.43774" lon="2.52905">
        <ele>702.3</ele>
        <time>2026-05-23T07:42:04Z</time>
      </trkpt>
      <trkpt lat="43.43769" lon="2.52907">
        <ele>703</ele>
        <time>2026-05-23T07:42:09Z</time>
      </trkpt>
      <trkpt lat="43.43766" lon="2.52912">
        <ele>703.9</ele>
        <time>2026-05-23T07:42:14Z</time>
      </trkpt>
      <trkpt lat="43.43763" lon="2.52915">
        <ele>704.6</ele>
        <time>2026-05-23T07:42:19Z</time>
      </trkpt>
      <trkpt lat="43.43761" lon="2.52918">
        <ele>705.4</ele>
        <time>2026-05-23T07:42:24Z</time>
      </trkpt>
      <trkpt lat="43.4376" lon="2.52922">
        <ele>706.8</ele>
        <time>2026-05-23T07:42:29Z</time>
      </trkpt>
      <trkpt lat="43.4376" lon="2.52925">
        <ele>707.7</ele>
        <time>2026-05-23T07:42:34Z</time>
      </trkpt>
      <trkpt lat="43.43759" lon="2.52926">
        <ele>708.2</ele>
        <time>2026-05-23T07:42:39Z</time>
      </trkpt>
      <trkpt lat="43.43759" lon="2.52926">
        <ele>708.2</ele>
        <time>2026-05-23T07:42:44Z</time>
      </trkpt>
      <trkpt lat="43.43759" lon="2.52926">
        <ele>708.2</ele>
        <time>2026-05-23T07:42:49Z</time>
      </trkpt>
      <trkpt lat="43.43759" lon="2.52926">
        <ele>708.2</ele>
        <time>2026-05-23T07:42:54Z</time>
      </trkpt>
      <trkpt lat="43.43759" lon="2.52926">
        <ele>708.2</ele>
        <time>2026-05-23T07:42:59Z</time>
      </trkpt>
      <trkpt lat="43.4375" lon="2.5294">
        <ele>713.6</ele>
        <time>2026-05-23T07:43:04Z</time>
      </trkpt>
      <trkpt lat="43.43748" lon="2.52944">
        <ele>715.1</ele>
        <time>2026-05-23T07:43:09Z</time>
      </trkpt>
      <trkpt lat="43.43746" lon="2.52949">
        <ele>716.9</ele>
        <time>2026-05-23T07:43:14Z</time>
      </trkpt>
      <trkpt lat="43.43746" lon="2.52953">
        <ele>718.2</ele>
        <time>2026-05-23T07:43:19Z</time>
      </trkpt>
      <trkpt lat="43.43744" lon="2.52957">
        <ele>719.7</ele>
        <time>2026-05-23T07:43:24Z</time>
      </trkpt>
      <trkpt lat="43.43742" lon="2.5296">
        <ele>720.9</ele>
        <time>2026-05-23T07:43:29Z</time>
      </trkpt>
      <trkpt lat="43.43737" lon="2.52964">
        <ele>722.7</ele>
        <time>2026-05-23T07:43:34Z</time>
      </trkpt>
      <trkpt lat="43.43734" lon="2.52969">
        <ele>724.7</ele>
        <time>2026-05-23T07:43:39Z</time>
      </trkpt>
      <trkpt lat="43.43731" lon="2.52974">
        <ele>726.6</ele>
        <time>2026-05-23T07:43:44Z</time>
      </trkpt>
      <trkpt lat="43.43731" lon="2.52974">
        <ele>726.6</ele>
        <time>2026-05-23T07:43:49Z</time>
      </trkpt>
      <trkpt lat="43.43731" lon="2.52974">
        <ele>726.6</ele>
        <time>2026-05-23T07:43:54Z</time>
      </trkpt>
      <trkpt lat="43.43722" lon="2.52976">
        <ele>728.2</ele>
        <time>2026-05-23T07:43:59Z</time>
      </trkpt>
      <trkpt lat="43.43716" lon="2.52973">
        <ele>727.9</ele>
        <time>2026-05-23T07:44:04Z</time>
      </trkpt>
      <trkpt lat="43.43712" lon="2.52973">
        <ele>728.4</ele>
        <time>2026-05-23T07:44:09Z</time>
      </trkpt>
      <trkpt lat="43.43707" lon="2.52971">
        <ele>728.2</ele>
        <time>2026-05-23T07:44:14Z</time>
      </trkpt>
      <trkpt lat="43.43704" lon="2.5297">
        <ele>728.2</ele>
        <time>2026-05-23T07:44:19Z</time>
      </trkpt>
      <trkpt lat="43.43703" lon="2.52966">
        <ele>727.1</ele>
        <time>2026-05-23T07:44:24Z</time>
      </trkpt>
      <trkpt lat="43.43702" lon="2.52961">
        <ele>725.5</ele>
        <time>2026-05-23T07:44:29Z</time>
      </trkpt>
      <trkpt lat="43.43698" lon="2.52958">
        <ele>725</ele>
        <time>2026-05-23T07:44:34Z</time>
      </trkpt>
      <trkpt lat="43.43695" lon="2.52956">
        <ele>724.7</ele>
        <time>2026-05-23T07:44:39Z</time>
      </trkpt>
      <trkpt lat="43.43693" lon="2.52953">
        <ele>723.9</ele>
        <time>2026-05-23T07:44:44Z</time>
      </trkpt>
      <trkpt lat="43.4369" lon="2.52951">
        <ele>723.6</ele>
        <time>2026-05-23T07:44:49Z</time>
      </trkpt>
      <trkpt lat="43.4369" lon="2.52951">
        <ele>723.6</ele>
        <time>2026-05-23T07:44:54Z</time>
      </trkpt>
      <trkpt lat="43.4369" lon="2.52951">
        <ele>723.6</ele>
        <time>2026-05-23T07:44:59Z</time>
      </trkpt>
      <trkpt lat="43.4369" lon="2.52951">
        <ele>723.6</ele>
        <time>2026-05-23T07:45:04Z</time>
      </trkpt>
      <trkpt lat="43.4368" lon="2.52946">
        <ele>723.1</ele>
        <time>2026-05-23T07:45:09Z</time>
      </trkpt>
      <trkpt lat="43.43678" lon="2.52942">
        <ele>722</ele>
        <time>2026-05-23T07:45:14Z</time>
      </trkpt>
      <trkpt lat="43.43677" lon="2.52942">
        <ele>722.1</ele>
        <time>2026-05-23T07:45:19Z</time>
      </trkpt>
      <trkpt lat="43.43677" lon="2.52942">
        <ele>722.1</ele>
        <time>2026-05-23T07:45:24Z</time>
      </trkpt>
      <trkpt lat="43.43677" lon="2.52942">
        <ele>722.1</ele>
        <time>2026-05-23T07:45:29Z</time>
      </trkpt>
      <trkpt lat="43.43668" lon="2.52946">
        <ele>724.4</ele>
        <time>2026-05-23T07:45:34Z</time>
      </trkpt>
      <trkpt lat="43.43668" lon="2.52945">
        <ele>724</ele>
        <time>2026-05-23T07:45:39Z</time>
      </trkpt>
      <trkpt lat="43.43668" lon="2.52945">
        <ele>724</ele>
        <time>2026-05-23T07:45:44Z</time>
      </trkpt>
      <trkpt lat="43.43668" lon="2.52945">
        <ele>724</ele>
        <time>2026-05-23T07:45:49Z</time>
      </trkpt>
      <trkpt lat="43.43657" lon="2.52949">
        <ele>727.3</ele>
        <time>2026-05-23T07:45:54Z</time>
      </trkpt>
      <trkpt lat="43.43654" lon="2.5295">
        <ele>728.2</ele>
        <time>2026-05-23T07:45:59Z</time>
      </trkpt>
      <trkpt lat="43.43652" lon="2.52952">
        <ele>729.2</ele>
        <time>2026-05-23T07:46:04Z</time>
      </trkpt>
      <trkpt lat="43.43651" lon="2.52952">
        <ele>729.4</ele>
        <time>2026-05-23T07:46:09Z</time>
      </trkpt>
      <trkpt lat="43.43651" lon="2.52952">
        <ele>729.4</ele>
        <time>2026-05-23T07:46:14Z</time>
      </trkpt>
      <trkpt lat="43.43651" lon="2.52952">
        <ele>729.4</ele>
        <time>2026-05-23T07:46:19Z</time>
      </trkpt>
      <trkpt lat="43.43645" lon="2.52958">
        <ele>732.3</ele>
        <time>2026-05-23T07:46:24Z</time>
      </trkpt>
      <trkpt lat="43.43643" lon="2.5296">
        <ele>733.3</ele>
        <time>2026-05-23T07:46:29Z</time>
      </trkpt>
      <trkpt lat="43.4364" lon="2.52961">
        <ele>734.1</ele>
        <time>2026-05-23T07:46:34Z</time>
      </trkpt>
      <trkpt lat="43.43638" lon="2.52961">
        <ele>734.4</ele>
        <time>2026-05-23T07:46:39Z</time>
      </trkpt>
      <trkpt lat="43.43635" lon="2.52962">
        <ele>735.3</ele>
        <time>2026-05-23T07:46:44Z</time>
      </trkpt>
      <trkpt lat="43.43632" lon="2.52965">
        <ele>736.6</ele>
        <time>2026-05-23T07:46:49Z</time>
      </trkpt>
      <trkpt lat="43.43628" lon="2.52967">
        <ele>737.9</ele>
        <time>2026-05-23T07:46:54Z</time>
      </trkpt>
      <trkpt lat="43.43623" lon="2.52967">
        <ele>738.7</ele>
        <time>2026-05-23T07:46:59Z</time>
      </trkpt>
      <trkpt lat="43.4362" lon="2.52968">
        <ele>739.5</ele>
        <time>2026-05-23T07:47:04Z</time>
      </trkpt>
      <trkpt lat="43.43614" lon="2.52972">
        <ele>741.6</ele>
        <time>2026-05-23T07:47:09Z</time>
      </trkpt>
      <trkpt lat="43.43609" lon="2.52972">
        <ele>742.4</ele>
        <time>2026-05-23T07:47:14Z</time>
      </trkpt>
      <trkpt lat="43.43605" lon="2.52974">
        <ele>743.6</ele>
        <time>2026-05-23T07:47:19Z</time>
      </trkpt>
      <trkpt lat="43.43602" lon="2.52979">
        <ele>745.3</ele>
        <time>2026-05-23T07:47:24Z</time>
      </trkpt>
      <trkpt lat="43.43599" lon="2.5298">
        <ele>746</ele>
        <time>2026-05-23T07:47:29Z</time>
      </trkpt>
      <trkpt lat="43.43595" lon="2.52979">
        <ele>746.4</ele>
        <time>2026-05-23T07:47:34Z</time>
      </trkpt>
      <trkpt lat="43.43592" lon="2.5298">
        <ele>747.1</ele>
        <time>2026-05-23T07:47:39Z</time>
      </trkpt>
      <trkpt lat="43.43588" lon="2.52981">
        <ele>747.9</ele>
        <time>2026-05-23T07:47:44Z</time>
      </trkpt>
      <trkpt lat="43.43585" lon="2.52984">
        <ele>749.1</ele>
        <time>2026-05-23T07:47:49Z</time>
      </trkpt>
      <trkpt lat="43.43582" lon="2.52985">
        <ele>749.9</ele>
        <time>2026-05-23T07:47:54Z</time>
      </trkpt>
      <trkpt lat="43.4358" lon="2.52986">
        <ele>750.6</ele>
        <time>2026-05-23T07:47:59Z</time>
      </trkpt>
      <trkpt lat="43.43577" lon="2.52986">
        <ele>751.3</ele>
        <time>2026-05-23T07:48:04Z</time>
      </trkpt>
      <trkpt lat="43.43577" lon="2.52987">
        <ele>751.5</ele>
        <time>2026-05-23T07:48:09Z</time>
      </trkpt>
      <trkpt lat="43.43577" lon="2.52987">
        <ele>751.5</ele>
        <time>2026-05-23T07:48:14Z</time>
      </trkpt>
      <trkpt lat="43.43571" lon="2.52992">
        <ele>754.1</ele>
        <time>2026-05-23T07:48:19Z</time>
      </trkpt>
      <trkpt lat="43.43566" lon="2.52997">
        <ele>756.4</ele>
        <time>2026-05-23T07:48:24Z</time>
      </trkpt>
      <trkpt lat="43.43561" lon="2.53">
        <ele>758.4</ele>
        <time>2026-05-23T07:48:29Z</time>
      </trkpt>
      <trkpt lat="43.43559" lon="2.53003">
        <ele>760.1</ele>
        <time>2026-05-23T07:48:34Z</time>
      </trkpt>
      <trkpt lat="43.43558" lon="2.53005">
        <ele>761.1</ele>
        <time>2026-05-23T07:48:39Z</time>
      </trkpt>
      <trkpt lat="43.43555" lon="2.53006">
        <ele>762.2</ele>
        <time>2026-05-23T07:48:44Z</time>
      </trkpt>
      <trkpt lat="43.43551" lon="2.53009">
        <ele>764.4</ele>
        <time>2026-05-23T07:48:49Z</time>
      </trkpt>
      <trkpt lat="43.4355" lon="2.53014">
        <ele>766.6</ele>
        <time>2026-05-23T07:48:54Z</time>
      </trkpt>
      <trkpt lat="43.4355" lon="2.53014">
        <ele>766.6</ele>
        <time>2026-05-23T07:48:59Z</time>
      </trkpt>
      <trkpt lat="43.4355" lon="2.53014">
        <ele>766.6</ele>
        <time>2026-05-23T07:49:04Z</time>
      </trkpt>
      <trkpt lat="43.4355" lon="2.53014">
        <ele>766.6</ele>
        <time>2026-05-23T07:49:09Z</time>
      </trkpt>
      <trkpt lat="43.4355" lon="2.53014">
        <ele>766.6</ele>
        <time>2026-05-23T07:49:14Z</time>
      </trkpt>
      <trkpt lat="43.43543" lon="2.53004">
        <ele>764.2</ele>
        <time>2026-05-23T07:49:19Z</time>
      </trkpt>
      <trkpt lat="43.43543" lon="2.53004">
        <ele>764.2</ele>
        <time>2026-05-23T07:49:24Z</time>
      </trkpt>
      <trkpt lat="43.43543" lon="2.53004">
        <ele>764.2</ele>
        <time>2026-05-23T07:49:29Z</time>
      </trkpt>
      <trkpt lat="43.43542" lon="2.52989">
        <ele>760.2</ele>
        <time>2026-05-23T07:49:34Z</time>
      </trkpt>
      <trkpt lat="43.43541" lon="2.52989">
        <ele>760.4</ele>
        <time>2026-05-23T07:49:39Z</time>
      </trkpt>
      <trkpt lat="43.43536" lon="2.52993">
        <ele>762.6</ele>
        <time>2026-05-23T07:49:44Z</time>
      </trkpt>
      <trkpt lat="43.43534" lon="2.52995">
        <ele>763.6</ele>
        <time>2026-05-23T07:49:49Z</time>
      </trkpt>
      <trkpt lat="43.43531" lon="2.52996">
        <ele>764.5</ele>
        <time>2026-05-23T07:49:54Z</time>
      </trkpt>
      <trkpt lat="43.43529" lon="2.52996">
        <ele>765</ele>
        <time>2026-05-23T07:49:59Z</time>
      </trkpt>
      <trkpt lat="43.43527" lon="2.52995">
        <ele>765.2</ele>
        <time>2026-05-23T07:50:04Z</time>
      </trkpt>
      <trkpt lat="43.43525" lon="2.52993">
        <ele>765.2</ele>
        <time>2026-05-23T07:50:09Z</time>
      </trkpt>
      <trkpt lat="43.43524" lon="2.52994">
        <ele>765.7</ele>
        <time>2026-05-23T07:50:14Z</time>
      </trkpt>
      <trkpt lat="43.4352" lon="2.52995">
        <ele>766.9</ele>
        <time>2026-05-23T07:50:19Z</time>
      </trkpt>
      <trkpt lat="43.43516" lon="2.52995">
        <ele>767.8</ele>
        <time>2026-05-23T07:50:24Z</time>
      </trkpt>
      <trkpt lat="43.43512" lon="2.52996">
        <ele>769</ele>
        <time>2026-05-23T07:50:29Z</time>
      </trkpt>
      <trkpt lat="43.43509" lon="2.52996">
        <ele>769.8</ele>
        <time>2026-05-23T07:50:34Z</time>
      </trkpt>
      <trkpt lat="43.43503" lon="2.52995">
        <ele>770.9</ele>
        <time>2026-05-23T07:50:39Z</time>
      </trkpt>
      <trkpt lat="43.43498" lon="2.52994">
        <ele>771.4</ele>
        <time>2026-05-23T07:50:44Z</time>
      </trkpt>
      <trkpt lat="43.43492" lon="2.52996">
        <ele>772.3</ele>
        <time>2026-05-23T07:50:49Z</time>
      </trkpt>
      <trkpt lat="43.43487" lon="2.52999">
        <ele>773.4</ele>
        <time>2026-05-23T07:50:54Z</time>
      </trkpt>
      <trkpt lat="43.43482" lon="2.52996">
        <ele>772.8</ele>
        <time>2026-05-23T07:50:59Z</time>
      </trkpt>
      <trkpt lat="43.4348" lon="2.52994">
        <ele>772.4</ele>
        <time>2026-05-23T07:51:04Z</time>
      </trkpt>
      <trkpt lat="43.43475" lon="2.52992">
        <ele>772.1</ele>
        <time>2026-05-23T07:51:09Z</time>
      </trkpt>
      <trkpt lat="43.43471" lon="2.52988">
        <ele>771.3</ele>
        <time>2026-05-23T07:51:14Z</time>
      </trkpt>
      <trkpt lat="43.43466" lon="2.52984">
        <ele>770.6</ele>
        <time>2026-05-23T07:51:19Z</time>
      </trkpt>
      <trkpt lat="43.43462" lon="2.52982">
        <ele>770.3</ele>
        <time>2026-05-23T07:51:24Z</time>
      </trkpt>
      <trkpt lat="43.43458" lon="2.52981">
        <ele>770.3</ele>
        <time>2026-05-23T07:51:29Z</time>
      </trkpt>
      <trkpt lat="43.43458" lon="2.5298">
        <ele>770.1</ele>
        <time>2026-05-23T07:51:34Z</time>
      </trkpt>
      <trkpt lat="43.43458" lon="2.5298">
        <ele>770.1</ele>
        <time>2026-05-23T07:51:39Z</time>
      </trkpt>
      <trkpt lat="43.4345" lon="2.52967">
        <ele>767.5</ele>
        <time>2026-05-23T07:51:44Z</time>
      </trkpt>
      <trkpt lat="43.4345" lon="2.52967">
        <ele>767.5</ele>
        <time>2026-05-23T07:51:49Z</time>
      </trkpt>
      <trkpt lat="43.43444" lon="2.52962">
        <ele>766.7</ele>
        <time>2026-05-23T07:51:54Z</time>
      </trkpt>
      <trkpt lat="43.43439" lon="2.52962">
        <ele>767.1</ele>
        <time>2026-05-23T07:51:59Z</time>
      </trkpt>
      <trkpt lat="43.43435" lon="2.52963">
        <ele>767.6</ele>
        <time>2026-05-23T07:52:04Z</time>
      </trkpt>
      <trkpt lat="43.43432" lon="2.52968">
        <ele>769</ele>
        <time>2026-05-23T07:52:09Z</time>
      </trkpt>
      <trkpt lat="43.43429" lon="2.52967">
        <ele>769</ele>
        <time>2026-05-23T07:52:14Z</time>
      </trkpt>
      <trkpt lat="43.43426" lon="2.52965">
        <ele>768.8</ele>
        <time>2026-05-23T07:52:19Z</time>
      </trkpt>
      <trkpt lat="43.43422" lon="2.52963">
        <ele>768.6</ele>
        <time>2026-05-23T07:52:24Z</time>
      </trkpt>
      <trkpt lat="43.43418" lon="2.52961">
        <ele>768.5</ele>
        <time>2026-05-23T07:52:29Z</time>
      </trkpt>
      <trkpt lat="43.43414" lon="2.5296">
        <ele>768.5</ele>
        <time>2026-05-23T07:52:34Z</time>
      </trkpt>
      <trkpt lat="43.43413" lon="2.5296">
        <ele>768.6</ele>
        <time>2026-05-23T07:52:39Z</time>
      </trkpt>
      <trkpt lat="43.43409" lon="2.52961">
        <ele>769</ele>
        <time>2026-05-23T07:52:44Z</time>
      </trkpt>
      <trkpt lat="43.43407" lon="2.52958">
        <ele>768.5</ele>
        <time>2026-05-23T07:52:49Z</time>
      </trkpt>
      <trkpt lat="43.43404" lon="2.52955">
        <ele>768</ele>
        <time>2026-05-23T07:52:54Z</time>
      </trkpt>
      <trkpt lat="43.434" lon="2.52956">
        <ele>768.4</ele>
        <time>2026-05-23T07:52:59Z</time>
      </trkpt>
      <trkpt lat="43.43398" lon="2.52959">
        <ele>769.1</ele>
        <time>2026-05-23T07:53:04Z</time>
      </trkpt>
      <trkpt lat="43.43396" lon="2.5296">
        <ele>769.4</ele>
        <time>2026-05-23T07:53:09Z</time>
      </trkpt>
      <trkpt lat="43.43394" lon="2.52961">
        <ele>769.7</ele>
        <time>2026-05-23T07:53:14Z</time>
      </trkpt>
      <trkpt lat="43.4339" lon="2.52961">
        <ele>769.9</ele>
        <time>2026-05-23T07:53:19Z</time>
      </trkpt>
      <trkpt lat="43.43388" lon="2.52961">
        <ele>770</ele>
        <time>2026-05-23T07:53:24Z</time>
      </trkpt>
      <trkpt lat="43.43383" lon="2.52961">
        <ele>770.3</ele>
        <time>2026-05-23T07:53:29Z</time>
      </trkpt>
      <trkpt lat="43.43377" lon="2.52963">
        <ele>771</ele>
        <time>2026-05-23T07:53:34Z</time>
      </trkpt>
      <trkpt lat="43.43374" lon="2.52962">
        <ele>770.9</ele>
        <time>2026-05-23T07:53:39Z</time>
      </trkpt>
      <trkpt lat="43.43369" lon="2.52963">
        <ele>771.4</ele>
        <time>2026-05-23T07:53:44Z</time>
      </trkpt>
      <trkpt lat="43.43362" lon="2.52963">
        <ele>771.7</ele>
        <time>2026-05-23T07:53:49Z</time>
      </trkpt>
      <trkpt lat="43.43358" lon="2.52961">
        <ele>771.6</ele>
        <time>2026-05-23T07:53:54Z</time>
      </trkpt>
      <trkpt lat="43.43353" lon="2.5296">
        <ele>771.7</ele>
        <time>2026-05-23T07:53:59Z</time>
      </trkpt>
      <trkpt lat="43.43346" lon="2.5296">
        <ele>772.1</ele>
        <time>2026-05-23T07:54:04Z</time>
      </trkpt>
      <trkpt lat="43.4334" lon="2.5296">
        <ele>772.4</ele>
        <time>2026-05-23T07:54:09Z</time>
      </trkpt>
      <trkpt lat="43.43335" lon="2.5296">
        <ele>772.6</ele>
        <time>2026-05-23T07:54:14Z</time>
      </trkpt>
      <trkpt lat="43.43329" lon="2.52959">
        <ele>773.8</ele>
        <time>2026-05-23T07:54:19Z</time>
      </trkpt>
      <trkpt lat="43.43324" lon="2.5296">
        <ele>775.4</ele>
        <time>2026-05-23T07:54:24Z</time>
      </trkpt>
      <trkpt lat="43.4332" lon="2.52957">
        <ele>776.2</ele>
        <time>2026-05-23T07:54:29Z</time>
      </trkpt>
      <trkpt lat="43.43318" lon="2.52956">
        <ele>776.7</ele>
        <time>2026-05-23T07:54:34Z</time>
      </trkpt>
      <trkpt lat="43.43318" lon="2.52956">
        <ele>776.7</ele>
        <time>2026-05-23T07:54:39Z</time>
      </trkpt>
      <trkpt lat="43.43318" lon="2.52956">
        <ele>776.7</ele>
        <time>2026-05-23T07:54:44Z</time>
      </trkpt>
      <trkpt lat="43.43313" lon="2.52963">
        <ele>778.8</ele>
        <time>2026-05-23T07:54:49Z</time>
      </trkpt>
      <trkpt lat="43.43307" lon="2.5296">
        <ele>780.2</ele>
        <time>2026-05-23T07:54:54Z</time>
      </trkpt>
      <trkpt lat="43.43303" lon="2.52957">
        <ele>781.1</ele>
        <time>2026-05-23T07:54:59Z</time>
      </trkpt>
      <trkpt lat="43.43298" lon="2.52956">
        <ele>782.5</ele>
        <time>2026-05-23T07:55:04Z</time>
      </trkpt>
      <trkpt lat="43.4329" lon="2.52954">
        <ele>784.8</ele>
        <time>2026-05-23T07:55:09Z</time>
      </trkpt>
      <trkpt lat="43.43282" lon="2.52952">
        <ele>787.1</ele>
        <time>2026-05-23T07:55:14Z</time>
      </trkpt>
      <trkpt lat="43.43276" lon="2.52953">
        <ele>788.9</ele>
        <time>2026-05-23T07:55:19Z</time>
      </trkpt>
      <trkpt lat="43.4327" lon="2.52956">
        <ele>790.7</ele>
        <time>2026-05-23T07:55:24Z</time>
      </trkpt>
      <trkpt lat="43.43265" lon="2.52956">
        <ele>792.2</ele>
        <time>2026-05-23T07:55:29Z</time>
      </trkpt>
      <trkpt lat="43.4326" lon="2.52958">
        <ele>793.6</ele>
        <time>2026-05-23T07:55:34Z</time>
      </trkpt>
      <trkpt lat="43.43257" lon="2.52952">
        <ele>794.6</ele>
        <time>2026-05-23T07:55:39Z</time>
      </trkpt>
      <trkpt lat="43.43253" lon="2.52945">
        <ele>796</ele>
        <time>2026-05-23T07:55:44Z</time>
      </trkpt>
      <trkpt lat="43.43253" lon="2.52944">
        <ele>796.1</ele>
        <time>2026-05-23T07:55:49Z</time>
      </trkpt>
      <trkpt lat="43.43253" lon="2.52944">
        <ele>796.1</ele>
        <time>2026-05-23T07:55:54Z</time>
      </trkpt>
      <trkpt lat="43.43249" lon="2.52933">
        <ele>797.8</ele>
        <time>2026-05-23T07:55:59Z</time>
      </trkpt>
      <trkpt lat="43.43249" lon="2.52929">
        <ele>798</ele>
        <time>2026-05-23T07:56:04Z</time>
      </trkpt>
      <trkpt lat="43.43249" lon="2.52929">
        <ele>798</ele>
        <time>2026-05-23T07:56:09Z</time>
      </trkpt>
      <trkpt lat="43.43249" lon="2.52929">
        <ele>798</ele>
        <time>2026-05-23T07:56:14Z</time>
      </trkpt>
      <trkpt lat="43.43249" lon="2.52929">
        <ele>798</ele>
        <time>2026-05-23T07:56:19Z</time>
      </trkpt>
      <trkpt lat="43.43249" lon="2.52929">
        <ele>798</ele>
        <time>2026-05-23T07:56:24Z</time>
      </trkpt>
      <trkpt lat="43.43249" lon="2.52929">
        <ele>798</ele>
        <time>2026-05-23T07:56:29Z</time>
      </trkpt>
      <trkpt lat="43.43247" lon="2.52916">
        <ele>799.1</ele>
        <time>2026-05-23T07:56:34Z</time>
      </trkpt>
      <trkpt lat="43.43247" lon="2.52915">
        <ele>799</ele>
        <time>2026-05-23T07:56:39Z</time>
      </trkpt>
      <trkpt lat="43.43247" lon="2.52915">
        <ele>799</ele>
        <time>2026-05-23T07:56:44Z</time>
      </trkpt>
      <trkpt lat="43.43247" lon="2.52915">
        <ele>799</ele>
        <time>2026-05-23T07:56:49Z</time>
      </trkpt>
      <trkpt lat="43.43247" lon="2.52915">
        <ele>799</ele>
        <time>2026-05-23T07:56:54Z</time>
      </trkpt>
      <trkpt lat="43.43247" lon="2.529">
        <ele>797.3</ele>
        <time>2026-05-23T07:56:59Z</time>
      </trkpt>
      <trkpt lat="43.43244" lon="2.52898">
        <ele>798.3</ele>
        <time>2026-05-23T07:57:04Z</time>
      </trkpt>
      <trkpt lat="43.43241" lon="2.52897">
        <ele>799.3</ele>
        <time>2026-05-23T07:57:09Z</time>
      </trkpt>
      <trkpt lat="43.4324" lon="2.52896">
        <ele>799.5</ele>
        <time>2026-05-23T07:57:14Z</time>
      </trkpt>
      <trkpt lat="43.4324" lon="2.52896">
        <ele>799.5</ele>
        <time>2026-05-23T07:57:19Z</time>
      </trkpt>
      <trkpt lat="43.4324" lon="2.52896">
        <ele>799.5</ele>
        <time>2026-05-23T07:57:24Z</time>
      </trkpt>
      <trkpt lat="43.4324" lon="2.52896">
        <ele>799.5</ele>
        <time>2026-05-23T07:57:29Z</time>
      </trkpt>
      <trkpt lat="43.4324" lon="2.52896">
        <ele>799.5</ele>
        <time>2026-05-23T07:57:34Z</time>
      </trkpt>
      <trkpt lat="43.43237" lon="2.52882">
        <ele>799</ele>
        <time>2026-05-23T07:57:39Z</time>
      </trkpt>
      <trkpt lat="43.43236" lon="2.52881">
        <ele>799.3</ele>
        <time>2026-05-23T07:57:44Z</time>
      </trkpt>
      <trkpt lat="43.43236" lon="2.52881">
        <ele>799.3</ele>
        <time>2026-05-23T07:57:49Z</time>
      </trkpt>
      <trkpt lat="43.43236" lon="2.52881">
        <ele>799.3</ele>
        <time>2026-05-23T07:57:54Z</time>
      </trkpt>
      <trkpt lat="43.4323" lon="2.52871">
        <ele>800.2</ele>
        <time>2026-05-23T07:57:59Z</time>
      </trkpt>
      <trkpt lat="43.43226" lon="2.52867">
        <ele>801.1</ele>
        <time>2026-05-23T07:58:04Z</time>
      </trkpt>
      <trkpt lat="43.43223" lon="2.52864">
        <ele>801.8</ele>
        <time>2026-05-23T07:58:09Z</time>
      </trkpt>
      <trkpt lat="43.43221" lon="2.52857">
        <ele>801.5</ele>
        <time>2026-05-23T07:58:14Z</time>
      </trkpt>
      <trkpt lat="43.43221" lon="2.52852">
        <ele>800.9</ele>
        <time>2026-05-23T07:58:19Z</time>
      </trkpt>
      <trkpt lat="43.4322" lon="2.52847">
        <ele>800.6</ele>
        <time>2026-05-23T07:58:24Z</time>
      </trkpt>
      <trkpt lat="43.43218" lon="2.52845">
        <ele>801</ele>
        <time>2026-05-23T07:58:29Z</time>
      </trkpt>
      <trkpt lat="43.43213" lon="2.52842">
        <ele>802.2</ele>
        <time>2026-05-23T07:58:34Z</time>
      </trkpt>
      <trkpt lat="43.4321" lon="2.52838">
        <ele>802.6</ele>
        <time>2026-05-23T07:58:39Z</time>
      </trkpt>
      <trkpt lat="43.43207" lon="2.52836">
        <ele>803.3</ele>
        <time>2026-05-23T07:58:44Z</time>
      </trkpt>
      <trkpt lat="43.43207" lon="2.52836">
        <ele>803.3</ele>
        <time>2026-05-23T07:58:49Z</time>
      </trkpt>
      <trkpt lat="43.43195" lon="2.52829">
        <ele>806.5</ele>
        <time>2026-05-23T07:58:54Z</time>
      </trkpt>
      <trkpt lat="43.4319" lon="2.52827">
        <ele>807.9</ele>
        <time>2026-05-23T07:58:59Z</time>
      </trkpt>
      <trkpt lat="43.43186" lon="2.52821">
        <ele>808.6</ele>
        <time>2026-05-23T07:59:04Z</time>
      </trkpt>
      <trkpt lat="43.43186" lon="2.52815">
        <ele>808.1</ele>
        <time>2026-05-23T07:59:09Z</time>
      </trkpt>
      <trkpt lat="43.43183" lon="2.5281">
        <ele>808.5</ele>
        <time>2026-05-23T07:59:14Z</time>
      </trkpt>
      <trkpt lat="43.43178" lon="2.52812">
        <ele>810</ele>
        <time>2026-05-23T07:59:19Z</time>
      </trkpt>
      <trkpt lat="43.43175" lon="2.52811">
        <ele>810.8</ele>
        <time>2026-05-23T07:59:24Z</time>
      </trkpt>
      <trkpt lat="43.43169" lon="2.5281">
        <ele>812.3</ele>
        <time>2026-05-23T07:59:29Z</time>
      </trkpt>
      <trkpt lat="43.43164" lon="2.52809">
        <ele>813.2</ele>
        <time>2026-05-23T07:59:34Z</time>
      </trkpt>
      <trkpt lat="43.43159" lon="2.52807">
        <ele>813.6</ele>
        <time>2026-05-23T07:59:39Z</time>
      </trkpt>
      <trkpt lat="43.43155" lon="2.52805">
        <ele>813.9</ele>
        <time>2026-05-23T07:59:44Z</time>
      </trkpt>
      <trkpt lat="43.43155" lon="2.52803">
        <ele>813.7</ele>
        <time>2026-05-23T07:59:49Z</time>
      </trkpt>
      <trkpt lat="43.43151" lon="2.52798">
        <ele>813.6</ele>
        <time>2026-05-23T07:59:54Z</time>
      </trkpt>
      <trkpt lat="43.43151" lon="2.52798">
        <ele>813.6</ele>
        <time>2026-05-23T07:59:59Z</time>
      </trkpt>
      <trkpt lat="43.43141" lon="2.52797">
        <ele>815</ele>
        <time>2026-05-23T08:00:04Z</time>
      </trkpt>
      <trkpt lat="43.4314" lon="2.52798">
        <ele>815.3</ele>
        <time>2026-05-23T08:00:09Z</time>
      </trkpt>
      <trkpt lat="43.43138" lon="2.52795">
        <ele>815.2</ele>
        <time>2026-05-23T08:00:14Z</time>
      </trkpt>
      <trkpt lat="43.43133" lon="2.52789">
        <ele>815.2</ele>
        <time>2026-05-23T08:00:19Z</time>
      </trkpt>
      <trkpt lat="43.4313" lon="2.52785">
        <ele>815.2</ele>
        <time>2026-05-23T08:00:24Z</time>
      </trkpt>
      <trkpt lat="43.43126" lon="2.52781">
        <ele>815.4</ele>
        <time>2026-05-23T08:00:29Z</time>
      </trkpt>
      <trkpt lat="43.43124" lon="2.52774">
        <ele>814.9</ele>
        <time>2026-05-23T08:00:34Z</time>
      </trkpt>
      <trkpt lat="43.4312" lon="2.52769">
        <ele>815</ele>
        <time>2026-05-23T08:00:39Z</time>
      </trkpt>
      <trkpt lat="43.4312" lon="2.52765">
        <ele>814.5</ele>
        <time>2026-05-23T08:00:44Z</time>
      </trkpt>
      <trkpt lat="43.43117" lon="2.52764">
        <ele>814.9</ele>
        <time>2026-05-23T08:00:49Z</time>
      </trkpt>
      <trkpt lat="43.43116" lon="2.52763">
        <ele>814.9</ele>
        <time>2026-05-23T08:00:54Z</time>
      </trkpt>
      <trkpt lat="43.43116" lon="2.52763">
        <ele>814.9</ele>
        <time>2026-05-23T08:00:59Z</time>
      </trkpt>
      <trkpt lat="43.43116" lon="2.52763">
        <ele>814.9</ele>
        <time>2026-05-23T08:01:04Z</time>
      </trkpt>
      <trkpt lat="43.43106" lon="2.52767">
        <ele>817</ele>
        <time>2026-05-23T08:01:09Z</time>
      </trkpt>
      <trkpt lat="43.43105" lon="2.52776">
        <ele>818.1</ele>
        <time>2026-05-23T08:01:14Z</time>
      </trkpt>
      <trkpt lat="43.43105" lon="2.52782">
        <ele>818.7</ele>
        <time>2026-05-23T08:01:19Z</time>
      </trkpt>
      <trkpt lat="43.43107" lon="2.52787">
        <ele>819</ele>
        <time>2026-05-23T08:01:24Z</time>
      </trkpt>
      <trkpt lat="43.4311" lon="2.5279">
        <ele>818.8</ele>
        <time>2026-05-23T08:01:29Z</time>
      </trkpt>
      <trkpt lat="43.43111" lon="2.52794">
        <ele>819.1</ele>
        <time>2026-05-23T08:01:34Z</time>
      </trkpt>
      <trkpt lat="43.43113" lon="2.52798">
        <ele>819.2</ele>
        <time>2026-05-23T08:01:39Z</time>
      </trkpt>
      <trkpt lat="43.43113" lon="2.52799">
        <ele>819.3</ele>
        <time>2026-05-23T08:01:44Z</time>
      </trkpt>
      <trkpt lat="43.43114" lon="2.528">
        <ele>819.3</ele>
        <time>2026-05-23T08:01:49Z</time>
      </trkpt>
      <trkpt lat="43.43114" lon="2.528">
        <ele>819.3</ele>
        <time>2026-05-23T08:01:54Z</time>
      </trkpt>
      <trkpt lat="43.43114" lon="2.528">
        <ele>819.3</ele>
        <time>2026-05-23T08:01:59Z</time>
      </trkpt>
      <trkpt lat="43.43114" lon="2.528">
        <ele>819.3</ele>
        <time>2026-05-23T08:02:04Z</time>
      </trkpt>
      <trkpt lat="43.43119" lon="2.5281">
        <ele>819.7</ele>
        <time>2026-05-23T08:02:09Z</time>
      </trkpt>
      <trkpt lat="43.43122" lon="2.52814">
        <ele>819.7</ele>
        <time>2026-05-23T08:02:14Z</time>
      </trkpt>
      <trkpt lat="43.43124" lon="2.52817">
        <ele>819.8</ele>
        <time>2026-05-23T08:02:19Z</time>
      </trkpt>
      <trkpt lat="43.43126" lon="2.52819">
        <ele>819.7</ele>
        <time>2026-05-23T08:02:24Z</time>
      </trkpt>
      <trkpt lat="43.43127" lon="2.52821">
        <ele>819.8</ele>
        <time>2026-05-23T08:02:29Z</time>
      </trkpt>
      <trkpt lat="43.43127" lon="2.52821">
        <ele>819.8</ele>
        <time>2026-05-23T08:02:34Z</time>
      </trkpt>
      <trkpt lat="43.43135" lon="2.52822">
        <ele>818.8</ele>
        <time>2026-05-23T08:02:39Z</time>
      </trkpt>
      <trkpt lat="43.43138" lon="2.52824">
        <ele>818.7</ele>
        <time>2026-05-23T08:02:44Z</time>
      </trkpt>
      <trkpt lat="43.43139" lon="2.52827">
        <ele>818.9</ele>
        <time>2026-05-23T08:02:49Z</time>
      </trkpt>
      <trkpt lat="43.43141" lon="2.52832">
        <ele>819.2</ele>
        <time>2026-05-23T08:02:54Z</time>
      </trkpt>
      <trkpt lat="43.43142" lon="2.52837">
        <ele>820</ele>
        <time>2026-05-23T08:02:59Z</time>
      </trkpt>
      <trkpt lat="43.43142" lon="2.52842">
        <ele>821</ele>
        <time>2026-05-23T08:03:04Z</time>
      </trkpt>
      <trkpt lat="43.43144" lon="2.52847">
        <ele>821.7</ele>
        <time>2026-05-23T08:03:09Z</time>
      </trkpt>
      <trkpt lat="43.43143" lon="2.52851">
        <ele>822.7</ele>
        <time>2026-05-23T08:03:14Z</time>
      </trkpt>
      <trkpt lat="43.43145" lon="2.52855">
        <ele>823.2</ele>
        <time>2026-05-23T08:03:19Z</time>
      </trkpt>
      <trkpt lat="43.43145" lon="2.52855">
        <ele>823.2</ele>
        <time>2026-05-23T08:03:24Z</time>
      </trkpt>
      <trkpt lat="43.43145" lon="2.52855">
        <ele>823.2</ele>
        <time>2026-05-23T08:03:29Z</time>
      </trkpt>
      <trkpt lat="43.43145" lon="2.52855">
        <ele>823.2</ele>
        <time>2026-05-23T08:03:34Z</time>
      </trkpt>
      <trkpt lat="43.43144" lon="2.52871">
        <ele>826.5</ele>
        <time>2026-05-23T08:03:39Z</time>
      </trkpt>
      <trkpt lat="43.4314" lon="2.52875">
        <ele>828</ele>
        <time>2026-05-23T08:03:44Z</time>
      </trkpt>
      <trkpt lat="43.43138" lon="2.52877">
        <ele>828.7</ele>
        <time>2026-05-23T08:03:49Z</time>
      </trkpt>
      <trkpt lat="43.43138" lon="2.52878">
        <ele>828.9</ele>
        <time>2026-05-23T08:03:54Z</time>
      </trkpt>
      <trkpt lat="43.43138" lon="2.52878">
        <ele>828.9</ele>
        <time>2026-05-23T08:03:59Z</time>
      </trkpt>
      <trkpt lat="43.43138" lon="2.52878">
        <ele>828.9</ele>
        <time>2026-05-23T08:04:04Z</time>
      </trkpt>
      <trkpt lat="43.43138" lon="2.52878">
        <ele>828.9</ele>
        <time>2026-05-23T08:04:09Z</time>
      </trkpt>
      <trkpt lat="43.43138" lon="2.52878">
        <ele>828.9</ele>
        <time>2026-05-23T08:04:14Z</time>
      </trkpt>
      <trkpt lat="43.43138" lon="2.52878">
        <ele>828.9</ele>
        <time>2026-05-23T08:04:19Z</time>
      </trkpt>
      <trkpt lat="43.43138" lon="2.52878">
        <ele>828.9</ele>
        <time>2026-05-23T08:04:24Z</time>
      </trkpt>
      <trkpt lat="43.43138" lon="2.52878">
        <ele>828.9</ele>
        <time>2026-05-23T08:04:29Z</time>
      </trkpt>
      <trkpt lat="43.43138" lon="2.52878">
        <ele>828.9</ele>
        <time>2026-05-23T08:04:34Z</time>
      </trkpt>
      <trkpt lat="43.43138" lon="2.52878">
        <ele>828.9</ele>
        <time>2026-05-23T08:04:39Z</time>
      </trkpt>
      <trkpt lat="43.43138" lon="2.52878">
        <ele>828.9</ele>
        <time>2026-05-23T08:04:44Z</time>
      </trkpt>
      <trkpt lat="43.43138" lon="2.52878">
        <ele>828.9</ele>
        <time>2026-05-23T08:04:49Z</time>
      </trkpt>
      <trkpt lat="43.43138" lon="2.52878">
        <ele>828.9</ele>
        <time>2026-05-23T08:04:54Z</time>
      </trkpt>
      <trkpt lat="43.43138" lon="2.52878">
        <ele>828.9</ele>
        <time>2026-05-23T08:04:59Z</time>
      </trkpt>
      <trkpt lat="43.43138" lon="2.52878">
        <ele>828.9</ele>
        <time>2026-05-23T08:05:04Z</time>
      </trkpt>
      <trkpt lat="43.43138" lon="2.52878">
        <ele>828.9</ele>
        <time>2026-05-23T08:05:09Z</time>
      </trkpt>
      <trkpt lat="43.43138" lon="2.52878">
        <ele>828.9</ele>
        <time>2026-05-23T08:05:14Z</time>
      </trkpt>
      <trkpt lat="43.43138" lon="2.52878">
        <ele>828.9</ele>
        <time>2026-05-23T08:05:19Z</time>
      </trkpt>
      <trkpt lat="43.43138" lon="2.52878">
        <ele>828.9</ele>
        <time>2026-05-23T08:05:24Z</time>
      </trkpt>
      <trkpt lat="43.43138" lon="2.52878">
        <ele>828.9</ele>
        <time>2026-05-23T08:05:29Z</time>
      </trkpt>
      <trkpt lat="43.43138" lon="2.52878">
        <ele>828.9</ele>
        <time>2026-05-23T08:05:34Z</time>
      </trkpt>
      <trkpt lat="43.43138" lon="2.52878">
        <ele>828.9</ele>
        <time>2026-05-23T08:05:39Z</time>
      </trkpt>
      <trkpt lat="43.43138" lon="2.52878">
        <ele>828.9</ele>
        <time>2026-05-23T08:05:44Z</time>
      </trkpt>
      <trkpt lat="43.43138" lon="2.52878">
        <ele>828.9</ele>
        <time>2026-05-23T08:05:49Z</time>
      </trkpt>
      <trkpt lat="43.43138" lon="2.52878">
        <ele>828.9</ele>
        <time>2026-05-23T08:05:54Z</time>
      </trkpt>
      <trkpt lat="43.43138" lon="2.52878">
        <ele>828.9</ele>
        <time>2026-05-23T08:05:59Z</time>
      </trkpt>
      <trkpt lat="43.43138" lon="2.52878">
        <ele>828.9</ele>
        <time>2026-05-23T08:06:04Z</time>
      </trkpt>
      <trkpt lat="43.43138" lon="2.52878">
        <ele>828.9</ele>
        <time>2026-05-23T08:06:09Z</time>
      </trkpt>
      <trkpt lat="43.43138" lon="2.52878">
        <ele>828.9</ele>
        <time>2026-05-23T08:06:14Z</time>
      </trkpt>
      <trkpt lat="43.43138" lon="2.52878">
        <ele>828.9</ele>
        <time>2026-05-23T08:06:19Z</time>
      </trkpt>
      <trkpt lat="43.43138" lon="2.52878">
        <ele>828.9</ele>
        <time>2026-05-23T08:06:24Z</time>
      </trkpt>
      <trkpt lat="43.43138" lon="2.52878">
        <ele>828.9</ele>
        <time>2026-05-23T08:06:29Z</time>
      </trkpt>
      <trkpt lat="43.43138" lon="2.52878">
        <ele>828.9</ele>
        <time>2026-05-23T08:06:34Z</time>
      </trkpt>
      <trkpt lat="43.43138" lon="2.52878">
        <ele>828.9</ele>
        <time>2026-05-23T08:06:39Z</time>
      </trkpt>
      <trkpt lat="43.43138" lon="2.52878">
        <ele>828.9</ele>
        <time>2026-05-23T08:06:44Z</time>
      </trkpt>
      <trkpt lat="43.43138" lon="2.52878">
        <ele>828.9</ele>
        <time>2026-05-23T08:06:49Z</time>
      </trkpt>
      <trkpt lat="43.43138" lon="2.52878">
        <ele>828.9</ele>
        <time>2026-05-23T08:06:54Z</time>
      </trkpt>
      <trkpt lat="43.43138" lon="2.52878">
        <ele>828.9</ele>
        <time>2026-05-23T08:06:59Z</time>
      </trkpt>
      <trkpt lat="43.43138" lon="2.52878">
        <ele>828.9</ele>
        <time>2026-05-23T08:07:04Z</time>
      </trkpt>
      <trkpt lat="43.43138" lon="2.52878">
        <ele>828.9</ele>
        <time>2026-05-23T08:07:09Z</time>
      </trkpt>
      <trkpt lat="43.43138" lon="2.52878">
        <ele>828.9</ele>
        <time>2026-05-23T08:07:14Z</time>
      </trkpt>
      <trkpt lat="43.43138" lon="2.52878">
        <ele>828.9</ele>
        <time>2026-05-23T08:07:19Z</time>
      </trkpt>
      <trkpt lat="43.43138" lon="2.52878">
        <ele>828.9</ele>
        <time>2026-05-23T08:07:24Z</time>
      </trkpt>
      <trkpt lat="43.43138" lon="2.52878">
        <ele>828.9</ele>
        <time>2026-05-23T08:07:29Z</time>
      </trkpt>
      <trkpt lat="43.43138" lon="2.52878">
        <ele>828.9</ele>
        <time>2026-05-23T08:07:34Z</time>
      </trkpt>
      <trkpt lat="43.43138" lon="2.52878">
        <ele>828.9</ele>
        <time>2026-05-23T08:07:39Z</time>
      </trkpt>
      <trkpt lat="43.43138" lon="2.52878">
        <ele>828.9</ele>
        <time>2026-05-23T08:07:44Z</time>
      </trkpt>
      <trkpt lat="43.43138" lon="2.52878">
        <ele>828.9</ele>
        <time>2026-05-23T08:07:49Z</time>
      </trkpt>
      <trkpt lat="43.43138" lon="2.52878">
        <ele>828.9</ele>
        <time>2026-05-23T08:07:54Z</time>
      </trkpt>
      <trkpt lat="43.43138" lon="2.52878">
        <ele>828.9</ele>
        <time>2026-05-23T08:07:59Z</time>
      </trkpt>
      <trkpt lat="43.43138" lon="2.52878">
        <ele>828.9</ele>
        <time>2026-05-23T08:08:04Z</time>
      </trkpt>
      <trkpt lat="43.43138" lon="2.52878">
        <ele>828.9</ele>
        <time>2026-05-23T08:08:09Z</time>
      </trkpt>
      <trkpt lat="43.43138" lon="2.52878">
        <ele>828.9</ele>
        <time>2026-05-23T08:08:14Z</time>
      </trkpt>
      <trkpt lat="43.43138" lon="2.52878">
        <ele>828.9</ele>
        <time>2026-05-23T08:08:19Z</time>
      </trkpt>
      <trkpt lat="43.43138" lon="2.52878">
        <ele>828.9</ele>
        <time>2026-05-23T08:08:24Z</time>
      </trkpt>
      <trkpt lat="43.43138" lon="2.52878">
        <ele>828.9</ele>
        <time>2026-05-23T08:08:29Z</time>
      </trkpt>
      <trkpt lat="43.43138" lon="2.52878">
        <ele>828.9</ele>
        <time>2026-05-23T08:08:34Z</time>
      </trkpt>
      <trkpt lat="43.43138" lon="2.52878">
        <ele>828.9</ele>
        <time>2026-05-23T08:08:39Z</time>
      </trkpt>
      <trkpt lat="43.43138" lon="2.52878">
        <ele>828.9</ele>
        <time>2026-05-23T08:08:44Z</time>
      </trkpt>
      <trkpt lat="43.43138" lon="2.52878">
        <ele>828.9</ele>
        <time>2026-05-23T08:08:49Z</time>
      </trkpt>
      <trkpt lat="43.43138" lon="2.52878">
        <ele>828.9</ele>
        <time>2026-05-23T08:08:54Z</time>
      </trkpt>
      <trkpt lat="43.43138" lon="2.52878">
        <ele>828.9</ele>
        <time>2026-05-23T08:08:59Z</time>
      </trkpt>
      <trkpt lat="43.43138" lon="2.52878">
        <ele>828.9</ele>
        <time>2026-05-23T08:09:04Z</time>
      </trkpt>
      <trkpt lat="43.43138" lon="2.52878">
        <ele>828.9</ele>
        <time>2026-05-23T08:09:09Z</time>
      </trkpt>
      <trkpt lat="43.43138" lon="2.52878">
        <ele>828.9</ele>
        <time>2026-05-23T08:09:14Z</time>
      </trkpt>
      <trkpt lat="43.43138" lon="2.52878">
        <ele>828.9</ele>
        <time>2026-05-23T08:09:19Z</time>
      </trkpt>
      <trkpt lat="43.43138" lon="2.52878">
        <ele>828.9</ele>
        <time>2026-05-23T08:09:24Z</time>
      </trkpt>
      <trkpt lat="43.43138" lon="2.52878">
        <ele>828.9</ele>
        <time>2026-05-23T08:09:29Z</time>
      </trkpt>
      <trkpt lat="43.43138" lon="2.52878">
        <ele>828.9</ele>
        <time>2026-05-23T08:09:34Z</time>
      </trkpt>
      <trkpt lat="43.43138" lon="2.52878">
        <ele>828.9</ele>
        <time>2026-05-23T08:09:39Z</time>
      </trkpt>
      <trkpt lat="43.43138" lon="2.52878">
        <ele>828.9</ele>
        <time>2026-05-23T08:09:44Z</time>
      </trkpt>
      <trkpt lat="43.43138" lon="2.52878">
        <ele>828.9</ele>
        <time>2026-05-23T08:09:49Z</time>
      </trkpt>
      <trkpt lat="43.43141" lon="2.52881">
        <ele>829</ele>
        <time>2026-05-23T08:09:54Z</time>
      </trkpt>
      <trkpt lat="43.4314" lon="2.52884">
        <ele>829.8</ele>
        <time>2026-05-23T08:09:59Z</time>
      </trkpt>
      <trkpt lat="43.4314" lon="2.52886">
        <ele>830.2</ele>
        <time>2026-05-23T08:10:04Z</time>
      </trkpt>
      <trkpt lat="43.4314" lon="2.52887">
        <ele>830.4</ele>
        <time>2026-05-23T08:10:09Z</time>
      </trkpt>
      <trkpt lat="43.4314" lon="2.52887">
        <ele>830.4</ele>
        <time>2026-05-23T08:10:14Z</time>
      </trkpt>
      <trkpt lat="43.4314" lon="2.52887">
        <ele>830.4</ele>
        <time>2026-05-23T08:10:19Z</time>
      </trkpt>
      <trkpt lat="43.4314" lon="2.52887">
        <ele>830.4</ele>
        <time>2026-05-23T08:10:24Z</time>
      </trkpt>
      <trkpt lat="43.43136" lon="2.52899">
        <ele>833.6</ele>
        <time>2026-05-23T08:10:29Z</time>
      </trkpt>
      <trkpt lat="43.43136" lon="2.52899">
        <ele>833.6</ele>
        <time>2026-05-23T08:10:34Z</time>
      </trkpt>
      <trkpt lat="43.43136" lon="2.52899">
        <ele>833.6</ele>
        <time>2026-05-23T08:10:39Z</time>
      </trkpt>
      <trkpt lat="43.43136" lon="2.52899">
        <ele>833.6</ele>
        <time>2026-05-23T08:10:44Z</time>
      </trkpt>
      <trkpt lat="43.43136" lon="2.52899">
        <ele>833.6</ele>
        <time>2026-05-23T08:10:49Z</time>
      </trkpt>
      <trkpt lat="43.43136" lon="2.52899">
        <ele>833.6</ele>
        <time>2026-05-23T08:10:54Z</time>
      </trkpt>
      <trkpt lat="43.43126" lon="2.52904">
        <ele>836.6</ele>
        <time>2026-05-23T08:10:59Z</time>
      </trkpt>
      <trkpt lat="43.43122" lon="2.52907">
        <ele>838</ele>
        <time>2026-05-23T08:11:04Z</time>
      </trkpt>
      <trkpt lat="43.4312" lon="2.52909">
        <ele>838.8</ele>
        <time>2026-05-23T08:11:09Z</time>
      </trkpt>
      <trkpt lat="43.43118" lon="2.52912">
        <ele>839.9</ele>
        <time>2026-05-23T08:11:14Z</time>
      </trkpt>
      <trkpt lat="43.43117" lon="2.52914">
        <ele>840.5</ele>
        <time>2026-05-23T08:11:19Z</time>
      </trkpt>
      <trkpt lat="43.43115" lon="2.52921">
        <ele>841.7</ele>
        <time>2026-05-23T08:11:24Z</time>
      </trkpt>
      <trkpt lat="43.43114" lon="2.52926">
        <ele>842.1</ele>
        <time>2026-05-23T08:11:29Z</time>
      </trkpt>
      <trkpt lat="43.43112" lon="2.52929">
        <ele>842.7</ele>
        <time>2026-05-23T08:11:34Z</time>
      </trkpt>
      <trkpt lat="43.4311" lon="2.52933">
        <ele>843.3</ele>
        <time>2026-05-23T08:11:39Z</time>
      </trkpt>
      <trkpt lat="43.43108" lon="2.52932">
        <ele>843.7</ele>
        <time>2026-05-23T08:11:44Z</time>
      </trkpt>
      <trkpt lat="43.43105" lon="2.52929">
        <ele>844.2</ele>
        <time>2026-05-23T08:11:49Z</time>
      </trkpt>
      <trkpt lat="43.43106" lon="2.52922">
        <ele>843.6</ele>
        <time>2026-05-23T08:11:54Z</time>
      </trkpt>
      <trkpt lat="43.43105" lon="2.52919">
        <ele>843.7</ele>
        <time>2026-05-23T08:11:59Z</time>
      </trkpt>
      <trkpt lat="43.43105" lon="2.52919">
        <ele>843.7</ele>
        <time>2026-05-23T08:12:04Z</time>
      </trkpt>
      <trkpt lat="43.43107" lon="2.52908">
        <ele>841.2</ele>
        <time>2026-05-23T08:12:09Z</time>
      </trkpt>
      <trkpt lat="43.43107" lon="2.52904">
        <ele>840.2</ele>
        <time>2026-05-23T08:12:14Z</time>
      </trkpt>
      <trkpt lat="43.43104" lon="2.52903">
        <ele>840.6</ele>
        <time>2026-05-23T08:12:19Z</time>
      </trkpt>
      <trkpt lat="43.43104" lon="2.52903">
        <ele>840.6</ele>
        <time>2026-05-23T08:12:24Z</time>
      </trkpt>
      <trkpt lat="43.43104" lon="2.52903">
        <ele>840.6</ele>
        <time>2026-05-23T08:12:29Z</time>
      </trkpt>
      <trkpt lat="43.43104" lon="2.52903">
        <ele>840.6</ele>
        <time>2026-05-23T08:12:34Z</time>
      </trkpt>
      <trkpt lat="43.43094" lon="2.52911">
        <ele>844.4</ele>
        <time>2026-05-23T08:12:39Z</time>
      </trkpt>
      <trkpt lat="43.43094" lon="2.52911">
        <ele>844.4</ele>
        <time>2026-05-23T08:12:44Z</time>
      </trkpt>
      <trkpt lat="43.43094" lon="2.52911">
        <ele>844.4</ele>
        <time>2026-05-23T08:12:49Z</time>
      </trkpt>
      <trkpt lat="43.43086" lon="2.52917">
        <ele>847.5</ele>
        <time>2026-05-23T08:12:54Z</time>
      </trkpt>
      <trkpt lat="43.43084" lon="2.52917">
        <ele>847.9</ele>
        <time>2026-05-23T08:12:59Z</time>
      </trkpt>
      <trkpt lat="43.43082" lon="2.52918">
        <ele>848.4</ele>
        <time>2026-05-23T08:13:04Z</time>
      </trkpt>
      <trkpt lat="43.43082" lon="2.52918">
        <ele>848.4</ele>
        <time>2026-05-23T08:13:09Z</time>
      </trkpt>
      <trkpt lat="43.43082" lon="2.52918">
        <ele>848.4</ele>
        <time>2026-05-23T08:13:14Z</time>
      </trkpt>
      <trkpt lat="43.43082" lon="2.52918">
        <ele>848.4</ele>
        <time>2026-05-23T08:13:19Z</time>
      </trkpt>
      <trkpt lat="43.43082" lon="2.52918">
        <ele>848.4</ele>
        <time>2026-05-23T08:13:24Z</time>
      </trkpt>
      <trkpt lat="43.43082" lon="2.52918">
        <ele>848.4</ele>
        <time>2026-05-23T08:13:29Z</time>
      </trkpt>
      <trkpt lat="43.43082" lon="2.52918">
        <ele>848.4</ele>
        <time>2026-05-23T08:13:34Z</time>
      </trkpt>
      <trkpt lat="43.43082" lon="2.52918">
        <ele>848.4</ele>
        <time>2026-05-23T08:13:39Z</time>
      </trkpt>
      <trkpt lat="43.43074" lon="2.52912">
        <ele>848.6</ele>
        <time>2026-05-23T08:13:44Z</time>
      </trkpt>
      <trkpt lat="43.43073" lon="2.52912">
        <ele>848.8</ele>
        <time>2026-05-23T08:13:49Z</time>
      </trkpt>
      <trkpt lat="43.43073" lon="2.52912">
        <ele>848.8</ele>
        <time>2026-05-23T08:13:54Z</time>
      </trkpt>
      <trkpt lat="43.43066" lon="2.52919">
        <ele>851.5</ele>
        <time>2026-05-23T08:13:59Z</time>
      </trkpt>
      <trkpt lat="43.43062" lon="2.52921">
        <ele>852.5</ele>
        <time>2026-05-23T08:14:04Z</time>
      </trkpt>
      <trkpt lat="43.4306" lon="2.52924">
        <ele>853.2</ele>
        <time>2026-05-23T08:14:09Z</time>
      </trkpt>
      <trkpt lat="43.43057" lon="2.52928">
        <ele>854.2</ele>
        <time>2026-05-23T08:14:14Z</time>
      </trkpt>
      <trkpt lat="43.43054" lon="2.5293">
        <ele>855</ele>
        <time>2026-05-23T08:14:19Z</time>
      </trkpt>
      <trkpt lat="43.43052" lon="2.52932">
        <ele>855.6</ele>
        <time>2026-05-23T08:14:24Z</time>
      </trkpt>
      <trkpt lat="43.43048" lon="2.52934">
        <ele>856.6</ele>
        <time>2026-05-23T08:14:29Z</time>
      </trkpt>
      <trkpt lat="43.43044" lon="2.52937">
        <ele>857.8</ele>
        <time>2026-05-23T08:14:34Z</time>
      </trkpt>
      <trkpt lat="43.43042" lon="2.5294">
        <ele>858.6</ele>
        <time>2026-05-23T08:14:39Z</time>
      </trkpt>
      <trkpt lat="43.4304" lon="2.52945">
        <ele>859.6</ele>
        <time>2026-05-23T08:14:44Z</time>
      </trkpt>
      <trkpt lat="43.43039" lon="2.52944">
        <ele>859.7</ele>
        <time>2026-05-23T08:14:49Z</time>
      </trkpt>
      <trkpt lat="43.43039" lon="2.52944">
        <ele>859.7</ele>
        <time>2026-05-23T08:14:54Z</time>
      </trkpt>
      <trkpt lat="43.43039" lon="2.52944">
        <ele>859.7</ele>
        <time>2026-05-23T08:14:59Z</time>
      </trkpt>
      <trkpt lat="43.43039" lon="2.52944">
        <ele>859.7</ele>
        <time>2026-05-23T08:15:04Z</time>
      </trkpt>
      <trkpt lat="43.43039" lon="2.52944">
        <ele>859.7</ele>
        <time>2026-05-23T08:15:09Z</time>
      </trkpt>
      <trkpt lat="43.43039" lon="2.52944">
        <ele>859.7</ele>
        <time>2026-05-23T08:15:14Z</time>
      </trkpt>
      <trkpt lat="43.43039" lon="2.52944">
        <ele>859.7</ele>
        <time>2026-05-23T08:15:19Z</time>
      </trkpt>
      <trkpt lat="43.43039" lon="2.52944">
        <ele>859.7</ele>
        <time>2026-05-23T08:15:24Z</time>
      </trkpt>
      <trkpt lat="43.43039" lon="2.52944">
        <ele>859.7</ele>
        <time>2026-05-23T08:15:29Z</time>
      </trkpt>
      <trkpt lat="43.43031" lon="2.52941">
        <ele>861.1</ele>
        <time>2026-05-23T08:15:34Z</time>
      </trkpt>
      <trkpt lat="43.4303" lon="2.52941">
        <ele>861.3</ele>
        <time>2026-05-23T08:15:39Z</time>
      </trkpt>
      <trkpt lat="43.43026" lon="2.52939">
        <ele>861.9</ele>
        <time>2026-05-23T08:15:44Z</time>
      </trkpt>
      <trkpt lat="43.43025" lon="2.52936">
        <ele>861.7</ele>
        <time>2026-05-23T08:15:49Z</time>
      </trkpt>
      <trkpt lat="43.43021" lon="2.52933">
        <ele>862.2</ele>
        <time>2026-05-23T08:15:54Z</time>
      </trkpt>
      <trkpt lat="43.43018" lon="2.52932">
        <ele>862.7</ele>
        <time>2026-05-23T08:15:59Z</time>
      </trkpt>
      <trkpt lat="43.43014" lon="2.52934">
        <ele>863.8</ele>
        <time>2026-05-23T08:16:04Z</time>
      </trkpt>
      <trkpt lat="43.4301" lon="2.52936">
        <ele>864.9</ele>
        <time>2026-05-23T08:16:09Z</time>
      </trkpt>
      <trkpt lat="43.43007" lon="2.52937">
        <ele>865.7</ele>
        <time>2026-05-23T08:16:14Z</time>
      </trkpt>
      <trkpt lat="43.43005" lon="2.52939">
        <ele>866.4</ele>
        <time>2026-05-23T08:16:19Z</time>
      </trkpt>
      <trkpt lat="43.43005" lon="2.52939">
        <ele>866.4</ele>
        <time>2026-05-23T08:16:24Z</time>
      </trkpt>
      <trkpt lat="43.42999" lon="2.5294">
        <ele>867.8</ele>
        <time>2026-05-23T08:16:29Z</time>
      </trkpt>
      <trkpt lat="43.42997" lon="2.52939">
        <ele>867.8</ele>
        <time>2026-05-23T08:16:34Z</time>
      </trkpt>
      <trkpt lat="43.42993" lon="2.5294">
        <ele>868.4</ele>
        <time>2026-05-23T08:16:39Z</time>
      </trkpt>
      <trkpt lat="43.42991" lon="2.52941">
        <ele>868.8</ele>
        <time>2026-05-23T08:16:44Z</time>
      </trkpt>
      <trkpt lat="43.42991" lon="2.52942">
        <ele>869</ele>
        <time>2026-05-23T08:16:49Z</time>
      </trkpt>
      <trkpt lat="43.42991" lon="2.52942">
        <ele>869</ele>
        <time>2026-05-23T08:16:54Z</time>
      </trkpt>
      <trkpt lat="43.42991" lon="2.52942">
        <ele>869</ele>
        <time>2026-05-23T08:16:59Z</time>
      </trkpt>
      <trkpt lat="43.42992" lon="2.52954">
        <ele>870.7</ele>
        <time>2026-05-23T08:17:04Z</time>
      </trkpt>
      <trkpt lat="43.42991" lon="2.52959">
        <ele>871.6</ele>
        <time>2026-05-23T08:17:09Z</time>
      </trkpt>
      <trkpt lat="43.42991" lon="2.52965">
        <ele>872.6</ele>
        <time>2026-05-23T08:17:14Z</time>
      </trkpt>
      <trkpt lat="43.42988" lon="2.52969">
        <ele>873.6</ele>
        <time>2026-05-23T08:17:19Z</time>
      </trkpt>
      <trkpt lat="43.42986" lon="2.52972">
        <ele>874.3</ele>
        <time>2026-05-23T08:17:24Z</time>
      </trkpt>
      <trkpt lat="43.42984" lon="2.52975">
        <ele>875</ele>
        <time>2026-05-23T08:17:29Z</time>
      </trkpt>
      <trkpt lat="43.42982" lon="2.52978">
        <ele>875.7</ele>
        <time>2026-05-23T08:17:34Z</time>
      </trkpt>
      <trkpt lat="43.4298" lon="2.5298">
        <ele>876.2</ele>
        <time>2026-05-23T08:17:39Z</time>
      </trkpt>
      <trkpt lat="43.42977" lon="2.52983">
        <ele>877.1</ele>
        <time>2026-05-23T08:17:44Z</time>
      </trkpt>
      <trkpt lat="43.42973" lon="2.52984">
        <ele>877.7</ele>
        <time>2026-05-23T08:17:49Z</time>
      </trkpt>
      <trkpt lat="43.42969" lon="2.52984">
        <ele>878.2</ele>
        <time>2026-05-23T08:17:54Z</time>
      </trkpt>
      <trkpt lat="43.42969" lon="2.52984">
        <ele>878.2</ele>
        <time>2026-05-23T08:17:59Z</time>
      </trkpt>
      <trkpt lat="43.42969" lon="2.52984">
        <ele>878.2</ele>
        <time>2026-05-23T08:18:04Z</time>
      </trkpt>
      <trkpt lat="43.42969" lon="2.52984">
        <ele>878.2</ele>
        <time>2026-05-23T08:18:09Z</time>
      </trkpt>
      <trkpt lat="43.42969" lon="2.52984">
        <ele>878.2</ele>
        <time>2026-05-23T08:18:14Z</time>
      </trkpt>
      <trkpt lat="43.42969" lon="2.52984">
        <ele>878.2</ele>
        <time>2026-05-23T08:18:19Z</time>
      </trkpt>
      <trkpt lat="43.42969" lon="2.52984">
        <ele>878.2</ele>
        <time>2026-05-23T08:18:24Z</time>
      </trkpt>
      <trkpt lat="43.42969" lon="2.52984">
        <ele>878.2</ele>
        <time>2026-05-23T08:18:29Z</time>
      </trkpt>
      <trkpt lat="43.42969" lon="2.52984">
        <ele>878.2</ele>
        <time>2026-05-23T08:18:34Z</time>
      </trkpt>
      <trkpt lat="43.42969" lon="2.52984">
        <ele>878.2</ele>
        <time>2026-05-23T08:18:39Z</time>
      </trkpt>
      <trkpt lat="43.42969" lon="2.52984">
        <ele>878.2</ele>
        <time>2026-05-23T08:18:44Z</time>
      </trkpt>
      <trkpt lat="43.42969" lon="2.52984">
        <ele>878.2</ele>
        <time>2026-05-23T08:18:49Z</time>
      </trkpt>
      <trkpt lat="43.42969" lon="2.52984">
        <ele>878.2</ele>
        <time>2026-05-23T08:18:54Z</time>
      </trkpt>
      <trkpt lat="43.42969" lon="2.52984">
        <ele>878.2</ele>
        <time>2026-05-23T08:18:59Z</time>
      </trkpt>
      <trkpt lat="43.42969" lon="2.52984">
        <ele>878.2</ele>
        <time>2026-05-23T08:19:04Z</time>
      </trkpt>
      <trkpt lat="43.42969" lon="2.52984">
        <ele>878.2</ele>
        <time>2026-05-23T08:19:09Z</time>
      </trkpt>
      <trkpt lat="43.42969" lon="2.52984">
        <ele>878.2</ele>
        <time>2026-05-23T08:19:14Z</time>
      </trkpt>
      <trkpt lat="43.42969" lon="2.52984">
        <ele>878.2</ele>
        <time>2026-05-23T08:19:19Z</time>
      </trkpt>
      <trkpt lat="43.42969" lon="2.52984">
        <ele>878.2</ele>
        <time>2026-05-23T08:19:24Z</time>
      </trkpt>
      <trkpt lat="43.42969" lon="2.52984">
        <ele>878.2</ele>
        <time>2026-05-23T08:19:29Z</time>
      </trkpt>
      <trkpt lat="43.42969" lon="2.52984">
        <ele>878.2</ele>
        <time>2026-05-23T08:19:34Z</time>
      </trkpt>
      <trkpt lat="43.42969" lon="2.52984">
        <ele>878.2</ele>
        <time>2026-05-23T08:19:39Z</time>
      </trkpt>
      <trkpt lat="43.42969" lon="2.52984">
        <ele>878.2</ele>
        <time>2026-05-23T08:19:44Z</time>
      </trkpt>
      <trkpt lat="43.42969" lon="2.52984">
        <ele>878.2</ele>
        <time>2026-05-23T08:19:49Z</time>
      </trkpt>
      <trkpt lat="43.42969" lon="2.52984">
        <ele>878.2</ele>
        <time>2026-05-23T08:19:54Z</time>
      </trkpt>
      <trkpt lat="43.42969" lon="2.52984">
        <ele>878.2</ele>
        <time>2026-05-23T08:19:59Z</time>
      </trkpt>
      <trkpt lat="43.42969" lon="2.52984">
        <ele>878.2</ele>
        <time>2026-05-23T08:20:04Z</time>
      </trkpt>
      <trkpt lat="43.42969" lon="2.52984">
        <ele>878.2</ele>
        <time>2026-05-23T08:20:09Z</time>
      </trkpt>
      <trkpt lat="43.42969" lon="2.52984">
        <ele>878.2</ele>
        <time>2026-05-23T08:20:14Z</time>
      </trkpt>
      <trkpt lat="43.42969" lon="2.52984">
        <ele>878.2</ele>
        <time>2026-05-23T08:20:19Z</time>
      </trkpt>
      <trkpt lat="43.42969" lon="2.52984">
        <ele>878.2</ele>
        <time>2026-05-23T08:20:24Z</time>
      </trkpt>
      <trkpt lat="43.42969" lon="2.52984">
        <ele>878.2</ele>
        <time>2026-05-23T08:20:29Z</time>
      </trkpt>
      <trkpt lat="43.42969" lon="2.52984">
        <ele>878.2</ele>
        <time>2026-05-23T08:20:34Z</time>
      </trkpt>
      <trkpt lat="43.42969" lon="2.52984">
        <ele>878.2</ele>
        <time>2026-05-23T08:20:39Z</time>
      </trkpt>
      <trkpt lat="43.42969" lon="2.52984">
        <ele>878.2</ele>
        <time>2026-05-23T08:20:44Z</time>
      </trkpt>
      <trkpt lat="43.42969" lon="2.52984">
        <ele>878.2</ele>
        <time>2026-05-23T08:20:49Z</time>
      </trkpt>
      <trkpt lat="43.42969" lon="2.52984">
        <ele>878.2</ele>
        <time>2026-05-23T08:20:54Z</time>
      </trkpt>
      <trkpt lat="43.42969" lon="2.52984">
        <ele>878.2</ele>
        <time>2026-05-23T08:20:59Z</time>
      </trkpt>
      <trkpt lat="43.42969" lon="2.52984">
        <ele>878.2</ele>
        <time>2026-05-23T08:21:04Z</time>
      </trkpt>
      <trkpt lat="43.42969" lon="2.52984">
        <ele>878.2</ele>
        <time>2026-05-23T08:21:09Z</time>
      </trkpt>
      <trkpt lat="43.42969" lon="2.52984">
        <ele>878.2</ele>
        <time>2026-05-23T08:21:14Z</time>
      </trkpt>
      <trkpt lat="43.42969" lon="2.52984">
        <ele>878.2</ele>
        <time>2026-05-23T08:21:19Z</time>
      </trkpt>
      <trkpt lat="43.42969" lon="2.52984">
        <ele>878.2</ele>
        <time>2026-05-23T08:21:24Z</time>
      </trkpt>
      <trkpt lat="43.42969" lon="2.52984">
        <ele>878.2</ele>
        <time>2026-05-23T08:21:29Z</time>
      </trkpt>
      <trkpt lat="43.42969" lon="2.52984">
        <ele>878.2</ele>
        <time>2026-05-23T08:21:34Z</time>
      </trkpt>
      <trkpt lat="43.42969" lon="2.52984">
        <ele>878.2</ele>
        <time>2026-05-23T08:21:39Z</time>
      </trkpt>
      <trkpt lat="43.42969" lon="2.52984">
        <ele>878.2</ele>
        <time>2026-05-23T08:21:44Z</time>
      </trkpt>
      <trkpt lat="43.42969" lon="2.52984">
        <ele>878.2</ele>
        <time>2026-05-23T08:21:49Z</time>
      </trkpt>
      <trkpt lat="43.42969" lon="2.52984">
        <ele>878.2</ele>
        <time>2026-05-23T08:21:54Z</time>
      </trkpt>
      <trkpt lat="43.42969" lon="2.52984">
        <ele>878.2</ele>
        <time>2026-05-23T08:21:59Z</time>
      </trkpt>
      <trkpt lat="43.42969" lon="2.52984">
        <ele>878.2</ele>
        <time>2026-05-23T08:22:04Z</time>
      </trkpt>
      <trkpt lat="43.42969" lon="2.52984">
        <ele>878.2</ele>
        <time>2026-05-23T08:22:09Z</time>
      </trkpt>
      <trkpt lat="43.42969" lon="2.52984">
        <ele>878.2</ele>
        <time>2026-05-23T08:22:14Z</time>
      </trkpt>
      <trkpt lat="43.42969" lon="2.52984">
        <ele>878.2</ele>
        <time>2026-05-23T08:22:19Z</time>
      </trkpt>
      <trkpt lat="43.42969" lon="2.52984">
        <ele>878.2</ele>
        <time>2026-05-23T08:22:24Z</time>
      </trkpt>
      <trkpt lat="43.42969" lon="2.52984">
        <ele>878.2</ele>
        <time>2026-05-23T08:22:29Z</time>
      </trkpt>
      <trkpt lat="43.42969" lon="2.52984">
        <ele>878.2</ele>
        <time>2026-05-23T08:22:34Z</time>
      </trkpt>
      <trkpt lat="43.42969" lon="2.52984">
        <ele>878.2</ele>
        <time>2026-05-23T08:22:39Z</time>
      </trkpt>
      <trkpt lat="43.42969" lon="2.52984">
        <ele>878.2</ele>
        <time>2026-05-23T08:22:44Z</time>
      </trkpt>
      <trkpt lat="43.42969" lon="2.52984">
        <ele>878.2</ele>
        <time>2026-05-23T08:22:49Z</time>
      </trkpt>
      <trkpt lat="43.42969" lon="2.52984">
        <ele>878.2</ele>
        <time>2026-05-23T08:22:54Z</time>
      </trkpt>
      <trkpt lat="43.42969" lon="2.52984">
        <ele>878.2</ele>
        <time>2026-05-23T08:22:59Z</time>
      </trkpt>
      <trkpt lat="43.42969" lon="2.52984">
        <ele>878.2</ele>
        <time>2026-05-23T08:23:04Z</time>
      </trkpt>
      <trkpt lat="43.42969" lon="2.52984">
        <ele>878.2</ele>
        <time>2026-05-23T08:23:09Z</time>
      </trkpt>
      <trkpt lat="43.42969" lon="2.52984">
        <ele>878.2</ele>
        <time>2026-05-23T08:23:14Z</time>
      </trkpt>
      <trkpt lat="43.42969" lon="2.52984">
        <ele>878.2</ele>
        <time>2026-05-23T08:23:19Z</time>
      </trkpt>
      <trkpt lat="43.42969" lon="2.52984">
        <ele>878.2</ele>
        <time>2026-05-23T08:23:24Z</time>
      </trkpt>
      <trkpt lat="43.42969" lon="2.52984">
        <ele>878.2</ele>
        <time>2026-05-23T08:23:29Z</time>
      </trkpt>
      <trkpt lat="43.42969" lon="2.52984">
        <ele>878.2</ele>
        <time>2026-05-23T08:23:34Z</time>
      </trkpt>
      <trkpt lat="43.42969" lon="2.52984">
        <ele>878.2</ele>
        <time>2026-05-23T08:23:39Z</time>
      </trkpt>
      <trkpt lat="43.42969" lon="2.52984">
        <ele>878.2</ele>
        <time>2026-05-23T08:23:44Z</time>
      </trkpt>
      <trkpt lat="43.42969" lon="2.52984">
        <ele>878.2</ele>
        <time>2026-05-23T08:23:49Z</time>
      </trkpt>
      <trkpt lat="43.42969" lon="2.52984">
        <ele>878.2</ele>
        <time>2026-05-23T08:23:54Z</time>
      </trkpt>
      <trkpt lat="43.42969" lon="2.52984">
        <ele>878.2</ele>
        <time>2026-05-23T08:23:59Z</time>
      </trkpt>
      <trkpt lat="43.42969" lon="2.52984">
        <ele>878.2</ele>
        <time>2026-05-23T08:24:04Z</time>
      </trkpt>
      <trkpt lat="43.42969" lon="2.52984">
        <ele>878.2</ele>
        <time>2026-05-23T08:24:09Z</time>
      </trkpt>
      <trkpt lat="43.42969" lon="2.52984">
        <ele>878.2</ele>
        <time>2026-05-23T08:24:14Z</time>
      </trkpt>
      <trkpt lat="43.42969" lon="2.52984">
        <ele>878.2</ele>
        <time>2026-05-23T08:24:19Z</time>
      </trkpt>
      <trkpt lat="43.42969" lon="2.52984">
        <ele>878.2</ele>
        <time>2026-05-23T08:24:24Z</time>
      </trkpt>
      <trkpt lat="43.42969" lon="2.52984">
        <ele>878.2</ele>
        <time>2026-05-23T08:24:29Z</time>
      </trkpt>
      <trkpt lat="43.42969" lon="2.52984">
        <ele>878.2</ele>
        <time>2026-05-23T08:24:34Z</time>
      </trkpt>
      <trkpt lat="43.42969" lon="2.52984">
        <ele>878.2</ele>
        <time>2026-05-23T08:24:39Z</time>
      </trkpt>
      <trkpt lat="43.42969" lon="2.52984">
        <ele>878.2</ele>
        <time>2026-05-23T08:24:44Z</time>
      </trkpt>
      <trkpt lat="43.42969" lon="2.52984">
        <ele>878.2</ele>
        <time>2026-05-23T08:24:49Z</time>
      </trkpt>
      <trkpt lat="43.42969" lon="2.52984">
        <ele>878.2</ele>
        <time>2026-05-23T08:24:54Z</time>
      </trkpt>
      <trkpt lat="43.42969" lon="2.52984">
        <ele>878.2</ele>
        <time>2026-05-23T08:24:59Z</time>
      </trkpt>
      <trkpt lat="43.42969" lon="2.52984">
        <ele>878.2</ele>
        <time>2026-05-23T08:25:04Z</time>
      </trkpt>
      <trkpt lat="43.42969" lon="2.52984">
        <ele>878.2</ele>
        <time>2026-05-23T08:25:09Z</time>
      </trkpt>
      <trkpt lat="43.42969" lon="2.52984">
        <ele>878.2</ele>
        <time>2026-05-23T08:25:14Z</time>
      </trkpt>
      <trkpt lat="43.42969" lon="2.52984">
        <ele>878.2</ele>
        <time>2026-05-23T08:25:19Z</time>
      </trkpt>
      <trkpt lat="43.42969" lon="2.52984">
        <ele>878.2</ele>
        <time>2026-05-23T08:25:24Z</time>
      </trkpt>
      <trkpt lat="43.42969" lon="2.52984">
        <ele>878.2</ele>
        <time>2026-05-23T08:25:29Z</time>
      </trkpt>
      <trkpt lat="43.42969" lon="2.52984">
        <ele>878.2</ele>
        <time>2026-05-23T08:25:34Z</time>
      </trkpt>
      <trkpt lat="43.42969" lon="2.52984">
        <ele>878.2</ele>
        <time>2026-05-23T08:25:39Z</time>
      </trkpt>
      <trkpt lat="43.42969" lon="2.52984">
        <ele>878.2</ele>
        <time>2026-05-23T08:25:44Z</time>
      </trkpt>
      <trkpt lat="43.42969" lon="2.52984">
        <ele>878.2</ele>
        <time>2026-05-23T08:25:49Z</time>
      </trkpt>
      <trkpt lat="43.42969" lon="2.52984">
        <ele>878.2</ele>
        <time>2026-05-23T08:25:54Z</time>
      </trkpt>
      <trkpt lat="43.42969" lon="2.52984">
        <ele>878.2</ele>
        <time>2026-05-23T08:25:59Z</time>
      </trkpt>
      <trkpt lat="43.42969" lon="2.52984">
        <ele>878.2</ele>
        <time>2026-05-23T08:26:04Z</time>
      </trkpt>
      <trkpt lat="43.42969" lon="2.52984">
        <ele>878.2</ele>
        <time>2026-05-23T08:26:09Z</time>
      </trkpt>
      <trkpt lat="43.42969" lon="2.52984">
        <ele>878.2</ele>
        <time>2026-05-23T08:26:14Z</time>
      </trkpt>
      <trkpt lat="43.42969" lon="2.52984">
        <ele>878.2</ele>
        <time>2026-05-23T08:26:19Z</time>
      </trkpt>
      <trkpt lat="43.42969" lon="2.52984">
        <ele>878.2</ele>
        <time>2026-05-23T08:26:24Z</time>
      </trkpt>
      <trkpt lat="43.42969" lon="2.52984">
        <ele>878.2</ele>
        <time>2026-05-23T08:26:29Z</time>
      </trkpt>
      <trkpt lat="43.42969" lon="2.52984">
        <ele>878.2</ele>
        <time>2026-05-23T08:26:34Z</time>
      </trkpt>
      <trkpt lat="43.42969" lon="2.52984">
        <ele>878.2</ele>
        <time>2026-05-23T08:26:39Z</time>
      </trkpt>
      <trkpt lat="43.42969" lon="2.52984">
        <ele>878.2</ele>
        <time>2026-05-23T08:26:44Z</time>
      </trkpt>
      <trkpt lat="43.42969" lon="2.52984">
        <ele>878.2</ele>
        <time>2026-05-23T08:26:49Z</time>
      </trkpt>
      <trkpt lat="43.42969" lon="2.52984">
        <ele>878.2</ele>
        <time>2026-05-23T08:26:54Z</time>
      </trkpt>
      <trkpt lat="43.42969" lon="2.52984">
        <ele>878.2</ele>
        <time>2026-05-23T08:26:59Z</time>
      </trkpt>
      <trkpt lat="43.42969" lon="2.52984">
        <ele>878.2</ele>
        <time>2026-05-23T08:27:04Z</time>
      </trkpt>
      <trkpt lat="43.42969" lon="2.52984">
        <ele>878.2</ele>
        <time>2026-05-23T08:27:09Z</time>
      </trkpt>
      <trkpt lat="43.42969" lon="2.52984">
        <ele>878.2</ele>
        <time>2026-05-23T08:27:14Z</time>
      </trkpt>
      <trkpt lat="43.42969" lon="2.52984">
        <ele>878.2</ele>
        <time>2026-05-23T08:27:19Z</time>
      </trkpt>
      <trkpt lat="43.42969" lon="2.52984">
        <ele>878.2</ele>
        <time>2026-05-23T08:27:24Z</time>
      </trkpt>
      <trkpt lat="43.42969" lon="2.52984">
        <ele>878.2</ele>
        <time>2026-05-23T08:27:29Z</time>
      </trkpt>
      <trkpt lat="43.42969" lon="2.52984">
        <ele>878.2</ele>
        <time>2026-05-23T08:27:34Z</time>
      </trkpt>
      <trkpt lat="43.42969" lon="2.52984">
        <ele>878.2</ele>
        <time>2026-05-23T08:27:39Z</time>
      </trkpt>
      <trkpt lat="43.42969" lon="2.52984">
        <ele>878.2</ele>
        <time>2026-05-23T08:27:44Z</time>
      </trkpt>
      <trkpt lat="43.42969" lon="2.52984">
        <ele>878.2</ele>
        <time>2026-05-23T08:27:49Z</time>
      </trkpt>
      <trkpt lat="43.42969" lon="2.52984">
        <ele>878.2</ele>
        <time>2026-05-23T08:27:54Z</time>
      </trkpt>
      <trkpt lat="43.42969" lon="2.52984">
        <ele>878.2</ele>
        <time>2026-05-23T08:27:59Z</time>
      </trkpt>
      <trkpt lat="43.42969" lon="2.52984">
        <ele>878.2</ele>
        <time>2026-05-23T08:28:04Z</time>
      </trkpt>
      <trkpt lat="43.42969" lon="2.52984">
        <ele>878.2</ele>
        <time>2026-05-23T08:28:09Z</time>
      </trkpt>
      <trkpt lat="43.42969" lon="2.52984">
        <ele>878.2</ele>
        <time>2026-05-23T08:28:14Z</time>
      </trkpt>
      <trkpt lat="43.42969" lon="2.52984">
        <ele>878.2</ele>
        <time>2026-05-23T08:28:19Z</time>
      </trkpt>
      <trkpt lat="43.42969" lon="2.52984">
        <ele>878.2</ele>
        <time>2026-05-23T08:28:24Z</time>
      </trkpt>
      <trkpt lat="43.42969" lon="2.52984">
        <ele>878.2</ele>
        <time>2026-05-23T08:28:29Z</time>
      </trkpt>
      <trkpt lat="43.42969" lon="2.52984">
        <ele>878.2</ele>
        <time>2026-05-23T08:28:34Z</time>
      </trkpt>
      <trkpt lat="43.42969" lon="2.52984">
        <ele>878.2</ele>
        <time>2026-05-23T08:28:39Z</time>
      </trkpt>
      <trkpt lat="43.42969" lon="2.52984">
        <ele>878.2</ele>
        <time>2026-05-23T08:28:44Z</time>
      </trkpt>
      <trkpt lat="43.42969" lon="2.52984">
        <ele>878.2</ele>
        <time>2026-05-23T08:28:49Z</time>
      </trkpt>
      <trkpt lat="43.42969" lon="2.52984">
        <ele>878.2</ele>
        <time>2026-05-23T08:28:54Z</time>
      </trkpt>
      <trkpt lat="43.42969" lon="2.52984">
        <ele>878.2</ele>
        <time>2026-05-23T08:28:59Z</time>
      </trkpt>
      <trkpt lat="43.42969" lon="2.52984">
        <ele>878.2</ele>
        <time>2026-05-23T08:29:04Z</time>
      </trkpt>
      <trkpt lat="43.42969" lon="2.52984">
        <ele>878.2</ele>
        <time>2026-05-23T08:29:09Z</time>
      </trkpt>
      <trkpt lat="43.42969" lon="2.52984">
        <ele>878.2</ele>
        <time>2026-05-23T08:29:14Z</time>
      </trkpt>
      <trkpt lat="43.42969" lon="2.52984">
        <ele>878.2</ele>
        <time>2026-05-23T08:29:19Z</time>
      </trkpt>
      <trkpt lat="43.42969" lon="2.52984">
        <ele>878.2</ele>
        <time>2026-05-23T08:29:24Z</time>
      </trkpt>
      <trkpt lat="43.42969" lon="2.52984">
        <ele>878.2</ele>
        <time>2026-05-23T08:29:29Z</time>
      </trkpt>
      <trkpt lat="43.42969" lon="2.52984">
        <ele>878.2</ele>
        <time>2026-05-23T08:29:34Z</time>
      </trkpt>
      <trkpt lat="43.42969" lon="2.52984">
        <ele>878.2</ele>
        <time>2026-05-23T08:29:39Z</time>
      </trkpt>
      <trkpt lat="43.42969" lon="2.52984">
        <ele>878.2</ele>
        <time>2026-05-23T08:29:44Z</time>
      </trkpt>
      <trkpt lat="43.42969" lon="2.52984">
        <ele>878.2</ele>
        <time>2026-05-23T08:29:49Z</time>
      </trkpt>
      <trkpt lat="43.42969" lon="2.52984">
        <ele>878.2</ele>
        <time>2026-05-23T08:29:54Z</time>
      </trkpt>
      <trkpt lat="43.42965" lon="2.52994">
        <ele>880.2</ele>
        <time>2026-05-23T08:29:59Z</time>
      </trkpt>
      <trkpt lat="43.42958" lon="2.52996">
        <ele>881.4</ele>
        <time>2026-05-23T08:30:04Z</time>
      </trkpt>
      <trkpt lat="43.42953" lon="2.52999">
        <ele>882.5</ele>
        <time>2026-05-23T08:30:09Z</time>
      </trkpt>
      <trkpt lat="43.4295" lon="2.53">
        <ele>883</ele>
        <time>2026-05-23T08:30:14Z</time>
      </trkpt>
      <trkpt lat="43.42947" lon="2.53001">
        <ele>883.3</ele>
        <time>2026-05-23T08:30:19Z</time>
      </trkpt>
      <trkpt lat="43.42944" lon="2.53003">
        <ele>883.7</ele>
        <time>2026-05-23T08:30:24Z</time>
      </trkpt>
      <trkpt lat="43.4294" lon="2.53006">
        <ele>884.1</ele>
        <time>2026-05-23T08:30:29Z</time>
      </trkpt>
      <trkpt lat="43.42938" lon="2.5301">
        <ele>884.3</ele>
        <time>2026-05-23T08:30:34Z</time>
      </trkpt>
      <trkpt lat="43.42938" lon="2.53014">
        <ele>884.3</ele>
        <time>2026-05-23T08:30:39Z</time>
      </trkpt>
      <trkpt lat="43.42938" lon="2.53018">
        <ele>884.3</ele>
        <time>2026-05-23T08:30:44Z</time>
      </trkpt>
      <trkpt lat="43.42938" lon="2.53019">
        <ele>884.3</ele>
        <time>2026-05-23T08:30:49Z</time>
      </trkpt>
      <trkpt lat="43.42938" lon="2.53019">
        <ele>884.3</ele>
        <time>2026-05-23T08:30:54Z</time>
      </trkpt>
      <trkpt lat="43.42932" lon="2.53029">
        <ele>885.1</ele>
        <time>2026-05-23T08:30:59Z</time>
      </trkpt>
      <trkpt lat="43.42927" lon="2.53032">
        <ele>885.8</ele>
        <time>2026-05-23T08:31:04Z</time>
      </trkpt>
      <trkpt lat="43.42922" lon="2.53034">
        <ele>886.6</ele>
        <time>2026-05-23T08:31:09Z</time>
      </trkpt>
      <trkpt lat="43.42918" lon="2.53035">
        <ele>887.2</ele>
        <time>2026-05-23T08:31:14Z</time>
      </trkpt>
      <trkpt lat="43.42914" lon="2.53037">
        <ele>887.9</ele>
        <time>2026-05-23T08:31:19Z</time>
      </trkpt>
      <trkpt lat="43.42907" lon="2.53039">
        <ele>889.1</ele>
        <time>2026-05-23T08:31:24Z</time>
      </trkpt>
      <trkpt lat="43.42903" lon="2.53042">
        <ele>889.8</ele>
        <time>2026-05-23T08:31:29Z</time>
      </trkpt>
      <trkpt lat="43.42899" lon="2.53045">
        <ele>890.5</ele>
        <time>2026-05-23T08:31:34Z</time>
      </trkpt>
      <trkpt lat="43.42895" lon="2.53047">
        <ele>891.2</ele>
        <time>2026-05-23T08:31:39Z</time>
      </trkpt>
      <trkpt lat="43.42892" lon="2.53047">
        <ele>891.7</ele>
        <time>2026-05-23T08:31:44Z</time>
      </trkpt>
      <trkpt lat="43.42886" lon="2.53044">
        <ele>892.7</ele>
        <time>2026-05-23T08:31:49Z</time>
      </trkpt>
      <trkpt lat="43.42882" lon="2.53041">
        <ele>893.3</ele>
        <time>2026-05-23T08:31:54Z</time>
      </trkpt>
      <trkpt lat="43.42879" lon="2.53034">
        <ele>893.7</ele>
        <time>2026-05-23T08:31:59Z</time>
      </trkpt>
      <trkpt lat="43.42877" lon="2.53028">
        <ele>893.8</ele>
        <time>2026-05-23T08:32:04Z</time>
      </trkpt>
      <trkpt lat="43.42873" lon="2.53024">
        <ele>894.4</ele>
        <time>2026-05-23T08:32:09Z</time>
      </trkpt>
      <trkpt lat="43.42869" lon="2.53026">
        <ele>895.1</ele>
        <time>2026-05-23T08:32:14Z</time>
      </trkpt>
      <trkpt lat="43.42864" lon="2.53032">
        <ele>896.1</ele>
        <time>2026-05-23T08:32:19Z</time>
      </trkpt>
      <trkpt lat="43.42863" lon="2.53037">
        <ele>896.4</ele>
        <time>2026-05-23T08:32:24Z</time>
      </trkpt>
      <trkpt lat="43.42859" lon="2.53041">
        <ele>897.2</ele>
        <time>2026-05-23T08:32:29Z</time>
      </trkpt>
      <trkpt lat="43.42856" lon="2.53041">
        <ele>897.7</ele>
        <time>2026-05-23T08:32:34Z</time>
      </trkpt>
      <trkpt lat="43.42849" lon="2.53039">
        <ele>898.8</ele>
        <time>2026-05-23T08:32:39Z</time>
      </trkpt>
      <trkpt lat="43.42845" lon="2.5304">
        <ele>899.5</ele>
        <time>2026-05-23T08:32:44Z</time>
      </trkpt>
      <trkpt lat="43.42841" lon="2.53043">
        <ele>900.3</ele>
        <time>2026-05-23T08:32:49Z</time>
      </trkpt>
      <trkpt lat="43.42835" lon="2.53045">
        <ele>901.3</ele>
        <time>2026-05-23T08:32:54Z</time>
      </trkpt>
      <trkpt lat="43.4283" lon="2.53046">
        <ele>902.4</ele>
        <time>2026-05-23T08:32:59Z</time>
      </trkpt>
      <trkpt lat="43.42825" lon="2.53046">
        <ele>903.5</ele>
        <time>2026-05-23T08:33:04Z</time>
      </trkpt>
      <trkpt lat="43.42822" lon="2.53043">
        <ele>904.1</ele>
        <time>2026-05-23T08:33:09Z</time>
      </trkpt>
      <trkpt lat="43.42821" lon="2.5304">
        <ele>904.2</ele>
        <time>2026-05-23T08:33:14Z</time>
      </trkpt>
      <trkpt lat="43.42815" lon="2.53033">
        <ele>905.3</ele>
        <time>2026-05-23T08:33:19Z</time>
      </trkpt>
      <trkpt lat="43.42811" lon="2.53034">
        <ele>906.2</ele>
        <time>2026-05-23T08:33:24Z</time>
      </trkpt>
      <trkpt lat="43.42808" lon="2.53039">
        <ele>907</ele>
        <time>2026-05-23T08:33:29Z</time>
      </trkpt>
      <trkpt lat="43.42805" lon="2.53044">
        <ele>907.9</ele>
        <time>2026-05-23T08:33:34Z</time>
      </trkpt>
      <trkpt lat="43.42802" lon="2.53046">
        <ele>908.6</ele>
        <time>2026-05-23T08:33:39Z</time>
      </trkpt>
      <trkpt lat="43.428" lon="2.53047">
        <ele>909.1</ele>
        <time>2026-05-23T08:33:44Z</time>
      </trkpt>
      <trkpt lat="43.428" lon="2.53047">
        <ele>909.1</ele>
        <time>2026-05-23T08:33:49Z</time>
      </trkpt>
      <trkpt lat="43.42791" lon="2.53041">
        <ele>910.9</ele>
        <time>2026-05-23T08:33:54Z</time>
      </trkpt>
      <trkpt lat="43.42788" lon="2.53038">
        <ele>911.5</ele>
        <time>2026-05-23T08:33:59Z</time>
      </trkpt>
      <trkpt lat="43.42784" lon="2.53036">
        <ele>912.3</ele>
        <time>2026-05-23T08:34:04Z</time>
      </trkpt>
      <trkpt lat="43.4278" lon="2.53037">
        <ele>913.2</ele>
        <time>2026-05-23T08:34:09Z</time>
      </trkpt>
      <trkpt lat="43.42776" lon="2.53039">
        <ele>914.2</ele>
        <time>2026-05-23T08:34:14Z</time>
      </trkpt>
      <trkpt lat="43.42771" lon="2.5304">
        <ele>915.3</ele>
        <time>2026-05-23T08:34:19Z</time>
      </trkpt>
      <trkpt lat="43.42768" lon="2.53042">
        <ele>916</ele>
        <time>2026-05-23T08:34:24Z</time>
      </trkpt>
      <trkpt lat="43.42764" lon="2.53038">
        <ele>916.8</ele>
        <time>2026-05-23T08:34:29Z</time>
      </trkpt>
      <trkpt lat="43.42761" lon="2.53036">
        <ele>917.4</ele>
        <time>2026-05-23T08:34:34Z</time>
      </trkpt>
      <trkpt lat="43.4276" lon="2.53035">
        <ele>917.6</ele>
        <time>2026-05-23T08:34:39Z</time>
      </trkpt>
      <trkpt lat="43.4276" lon="2.53035">
        <ele>917.6</ele>
        <time>2026-05-23T08:34:44Z</time>
      </trkpt>
      <trkpt lat="43.42757" lon="2.53029">
        <ele>918.1</ele>
        <time>2026-05-23T08:34:49Z</time>
      </trkpt>
      <trkpt lat="43.42754" lon="2.53027">
        <ele>918.8</ele>
        <time>2026-05-23T08:34:54Z</time>
      </trkpt>
      <trkpt lat="43.4275" lon="2.53023">
        <ele>919.6</ele>
        <time>2026-05-23T08:34:59Z</time>
      </trkpt>
      <trkpt lat="43.42745" lon="2.53021">
        <ele>920.7</ele>
        <time>2026-05-23T08:35:04Z</time>
      </trkpt>
      <trkpt lat="43.42739" lon="2.53019">
        <ele>922.1</ele>
        <time>2026-05-23T08:35:09Z</time>
      </trkpt>
      <trkpt lat="43.42731" lon="2.53022">
        <ele>924.1</ele>
        <time>2026-05-23T08:35:14Z</time>
      </trkpt>
      <trkpt lat="43.42728" lon="2.53028">
        <ele>924.9</ele>
        <time>2026-05-23T08:35:19Z</time>
      </trkpt>
      <trkpt lat="43.42725" lon="2.53033">
        <ele>925.7</ele>
        <time>2026-05-23T08:35:24Z</time>
      </trkpt>
      <trkpt lat="43.42724" lon="2.53037">
        <ele>926</ele>
        <time>2026-05-23T08:35:29Z</time>
      </trkpt>
      <trkpt lat="43.4272" lon="2.5304">
        <ele>927</ele>
        <time>2026-05-23T08:35:34Z</time>
      </trkpt>
      <trkpt lat="43.42718" lon="2.53036">
        <ele>927.4</ele>
        <time>2026-05-23T08:35:39Z</time>
      </trkpt>
      <trkpt lat="43.42716" lon="2.5303">
        <ele>927.8</ele>
        <time>2026-05-23T08:35:44Z</time>
      </trkpt>
      <trkpt lat="43.42715" lon="2.53024">
        <ele>928</ele>
        <time>2026-05-23T08:35:49Z</time>
      </trkpt>
      <trkpt lat="43.42711" lon="2.53021">
        <ele>929</ele>
        <time>2026-05-23T08:35:54Z</time>
      </trkpt>
      <trkpt lat="43.42706" lon="2.53022">
        <ele>930.2</ele>
        <time>2026-05-23T08:35:59Z</time>
      </trkpt>
      <trkpt lat="43.42702" lon="2.53022">
        <ele>931.2</ele>
        <time>2026-05-23T08:36:04Z</time>
      </trkpt>
      <trkpt lat="43.42698" lon="2.53019">
        <ele>932.1</ele>
        <time>2026-05-23T08:36:09Z</time>
      </trkpt>
      <trkpt lat="43.42696" lon="2.53019">
        <ele>932.6</ele>
        <time>2026-05-23T08:36:14Z</time>
      </trkpt>
      <trkpt lat="43.42692" lon="2.53021">
        <ele>933.6</ele>
        <time>2026-05-23T08:36:19Z</time>
      </trkpt>
      <trkpt lat="43.42689" lon="2.53022">
        <ele>934.3</ele>
        <time>2026-05-23T08:36:24Z</time>
      </trkpt>
      <trkpt lat="43.42686" lon="2.53025">
        <ele>935</ele>
        <time>2026-05-23T08:36:29Z</time>
      </trkpt>
      <trkpt lat="43.42683" lon="2.53025">
        <ele>935.8</ele>
        <time>2026-05-23T08:36:34Z</time>
      </trkpt>
      <trkpt lat="43.42682" lon="2.53025">
        <ele>936</ele>
        <time>2026-05-23T08:36:39Z</time>
      </trkpt>
      <trkpt lat="43.42682" lon="2.53025">
        <ele>936</ele>
        <time>2026-05-23T08:36:44Z</time>
      </trkpt>
      <trkpt lat="43.42682" lon="2.53025">
        <ele>936</ele>
        <time>2026-05-23T08:36:49Z</time>
      </trkpt>
      <trkpt lat="43.42669" lon="2.53028">
        <ele>939.1</ele>
        <time>2026-05-23T08:36:54Z</time>
      </trkpt>
      <trkpt lat="43.42666" lon="2.53031">
        <ele>939.8</ele>
        <time>2026-05-23T08:36:59Z</time>
      </trkpt>
      <trkpt lat="43.42665" lon="2.53034">
        <ele>940</ele>
        <time>2026-05-23T08:37:04Z</time>
      </trkpt>
      <trkpt lat="43.42665" lon="2.53034">
        <ele>940</ele>
        <time>2026-05-23T08:37:09Z</time>
      </trkpt>
      <trkpt lat="43.42665" lon="2.53034">
        <ele>940</ele>
        <time>2026-05-23T08:37:14Z</time>
      </trkpt>
      <trkpt lat="43.42665" lon="2.53034">
        <ele>940</ele>
        <time>2026-05-23T08:37:19Z</time>
      </trkpt>
      <trkpt lat="43.42654" lon="2.53028">
        <ele>942.8</ele>
        <time>2026-05-23T08:37:24Z</time>
      </trkpt>
      <trkpt lat="43.42654" lon="2.53028">
        <ele>942.8</ele>
        <time>2026-05-23T08:37:29Z</time>
      </trkpt>
      <trkpt lat="43.42654" lon="2.53028">
        <ele>942.8</ele>
        <time>2026-05-23T08:37:34Z</time>
      </trkpt>
      <trkpt lat="43.42654" lon="2.53028">
        <ele>942.8</ele>
        <time>2026-05-23T08:37:39Z</time>
      </trkpt>
      <trkpt lat="43.42643" lon="2.5303">
        <ele>945.5</ele>
        <time>2026-05-23T08:37:44Z</time>
      </trkpt>
      <trkpt lat="43.42639" lon="2.53033">
        <ele>946.5</ele>
        <time>2026-05-23T08:37:49Z</time>
      </trkpt>
      <trkpt lat="43.42636" lon="2.53031">
        <ele>947.3</ele>
        <time>2026-05-23T08:37:54Z</time>
      </trkpt>
      <trkpt lat="43.42634" lon="2.53029">
        <ele>947.8</ele>
        <time>2026-05-23T08:37:59Z</time>
      </trkpt>
      <trkpt lat="43.42634" lon="2.53029">
        <ele>947.8</ele>
        <time>2026-05-23T08:38:04Z</time>
      </trkpt>
      <trkpt lat="43.42634" lon="2.53029">
        <ele>947.8</ele>
        <time>2026-05-23T08:38:09Z</time>
      </trkpt>
      <trkpt lat="43.42624" lon="2.53032">
        <ele>950.2</ele>
        <time>2026-05-23T08:38:14Z</time>
      </trkpt>
      <trkpt lat="43.42622" lon="2.53032">
        <ele>950.7</ele>
        <time>2026-05-23T08:38:19Z</time>
      </trkpt>
      <trkpt lat="43.42619" lon="2.53029">
        <ele>951.5</ele>
        <time>2026-05-23T08:38:24Z</time>
      </trkpt>
      <trkpt lat="43.42616" lon="2.53026">
        <ele>952.2</ele>
        <time>2026-05-23T08:38:29Z</time>
      </trkpt>
      <trkpt lat="43.42613" lon="2.53021">
        <ele>953</ele>
        <time>2026-05-23T08:38:34Z</time>
      </trkpt>
      <trkpt lat="43.42611" lon="2.53016">
        <ele>953.4</ele>
        <time>2026-05-23T08:38:39Z</time>
      </trkpt>
      <trkpt lat="43.42608" lon="2.53011">
        <ele>954.1</ele>
        <time>2026-05-23T08:38:44Z</time>
      </trkpt>
      <trkpt lat="43.42605" lon="2.53008">
        <ele>954.8</ele>
        <time>2026-05-23T08:38:49Z</time>
      </trkpt>
      <trkpt lat="43.42602" lon="2.53006">
        <ele>955.6</ele>
        <time>2026-05-23T08:38:54Z</time>
      </trkpt>
      <trkpt lat="43.42602" lon="2.53006">
        <ele>955.6</ele>
        <time>2026-05-23T08:38:59Z</time>
      </trkpt>
      <trkpt lat="43.42599" lon="2.52997">
        <ele>956</ele>
        <time>2026-05-23T08:39:04Z</time>
      </trkpt>
      <trkpt lat="43.42595" lon="2.52993">
        <ele>956.6</ele>
        <time>2026-05-23T08:39:09Z</time>
      </trkpt>
      <trkpt lat="43.42589" lon="2.52991">
        <ele>957.9</ele>
        <time>2026-05-23T08:39:14Z</time>
      </trkpt>
      <trkpt lat="43.42584" lon="2.52988">
        <ele>958.8</ele>
        <time>2026-05-23T08:39:19Z</time>
      </trkpt>
      <trkpt lat="43.4258" lon="2.52987">
        <ele>959.9</ele>
        <time>2026-05-23T08:39:24Z</time>
      </trkpt>
      <trkpt lat="43.42577" lon="2.52986">
        <ele>960.6</ele>
        <time>2026-05-23T08:39:29Z</time>
      </trkpt>
      <trkpt lat="43.42577" lon="2.52985">
        <ele>960.6</ele>
        <time>2026-05-23T08:39:34Z</time>
      </trkpt>
      <trkpt lat="43.42577" lon="2.52985">
        <ele>960.6</ele>
        <time>2026-05-23T08:39:39Z</time>
      </trkpt>
      <trkpt lat="43.42567" lon="2.52978">
        <ele>962.8</ele>
        <time>2026-05-23T08:39:44Z</time>
      </trkpt>
      <trkpt lat="43.42566" lon="2.52977">
        <ele>963</ele>
        <time>2026-05-23T08:39:49Z</time>
      </trkpt>
      <trkpt lat="43.42566" lon="2.52977">
        <ele>963</ele>
        <time>2026-05-23T08:39:54Z</time>
      </trkpt>
      <trkpt lat="43.42566" lon="2.52977">
        <ele>963</ele>
        <time>2026-05-23T08:39:59Z</time>
      </trkpt>
      <trkpt lat="43.42566" lon="2.52977">
        <ele>963</ele>
        <time>2026-05-23T08:40:04Z</time>
      </trkpt>
      <trkpt lat="43.42566" lon="2.52977">
        <ele>963</ele>
        <time>2026-05-23T08:40:09Z</time>
      </trkpt>
      <trkpt lat="43.42566" lon="2.52977">
        <ele>963</ele>
        <time>2026-05-23T08:40:14Z</time>
      </trkpt>
      <trkpt lat="43.42556" lon="2.52975">
        <ele>965.7</ele>
        <time>2026-05-23T08:40:19Z</time>
      </trkpt>
      <trkpt lat="43.42551" lon="2.52974">
        <ele>967</ele>
        <time>2026-05-23T08:40:24Z</time>
      </trkpt>
      <trkpt lat="43.42549" lon="2.52971">
        <ele>967.3</ele>
        <time>2026-05-23T08:40:29Z</time>
      </trkpt>
      <trkpt lat="43.42549" lon="2.52971">
        <ele>967.3</ele>
        <time>2026-05-23T08:40:34Z</time>
      </trkpt>
      <trkpt lat="43.42549" lon="2.52971">
        <ele>967.3</ele>
        <time>2026-05-23T08:40:39Z</time>
      </trkpt>
      <trkpt lat="43.42549" lon="2.52971">
        <ele>967.3</ele>
        <time>2026-05-23T08:40:44Z</time>
      </trkpt>
      <trkpt lat="43.42549" lon="2.52971">
        <ele>967.3</ele>
        <time>2026-05-23T08:40:49Z</time>
      </trkpt>
      <trkpt lat="43.42549" lon="2.52971">
        <ele>967.3</ele>
        <time>2026-05-23T08:40:54Z</time>
      </trkpt>
      <trkpt lat="43.42549" lon="2.52971">
        <ele>967.3</ele>
        <time>2026-05-23T08:40:59Z</time>
      </trkpt>
      <trkpt lat="43.42549" lon="2.52971">
        <ele>967.3</ele>
        <time>2026-05-23T08:41:04Z</time>
      </trkpt>
      <trkpt lat="43.42545" lon="2.52963">
        <ele>967.7</ele>
        <time>2026-05-23T08:41:09Z</time>
      </trkpt>
      <trkpt lat="43.42539" lon="2.52965">
        <ele>969.6</ele>
        <time>2026-05-23T08:41:14Z</time>
      </trkpt>
      <trkpt lat="43.42535" lon="2.52965">
        <ele>970.7</ele>
        <time>2026-05-23T08:41:19Z</time>
      </trkpt>
      <trkpt lat="43.42532" lon="2.52962">
        <ele>971.3</ele>
        <time>2026-05-23T08:41:24Z</time>
      </trkpt>
      <trkpt lat="43.4253" lon="2.52961">
        <ele>971.8</ele>
        <time>2026-05-23T08:41:29Z</time>
      </trkpt>
      <trkpt lat="43.42523" lon="2.52959">
        <ele>973.6</ele>
        <time>2026-05-23T08:41:34Z</time>
      </trkpt>
      <trkpt lat="43.4252" lon="2.52958">
        <ele>974.3</ele>
        <time>2026-05-23T08:41:39Z</time>
      </trkpt>
      <trkpt lat="43.42516" lon="2.52956">
        <ele>975.3</ele>
        <time>2026-05-23T08:41:44Z</time>
      </trkpt>
      <trkpt lat="43.42512" lon="2.52954">
        <ele>976.2</ele>
        <time>2026-05-23T08:41:49Z</time>
      </trkpt>
      <trkpt lat="43.42509" lon="2.52951">
        <ele>976.8</ele>
        <time>2026-05-23T08:41:54Z</time>
      </trkpt>
      <trkpt lat="43.42507" lon="2.52949">
        <ele>977.1</ele>
        <time>2026-05-23T08:41:59Z</time>
      </trkpt>
      <trkpt lat="43.42502" lon="2.52947">
        <ele>978.4</ele>
        <time>2026-05-23T08:42:04Z</time>
      </trkpt>
      <trkpt lat="43.42499" lon="2.52946">
        <ele>979</ele>
        <time>2026-05-23T08:42:09Z</time>
      </trkpt>
      <trkpt lat="43.42494" lon="2.52947">
        <ele>979.7</ele>
        <time>2026-05-23T08:42:14Z</time>
      </trkpt>
      <trkpt lat="43.4249" lon="2.52943">
        <ele>979.9</ele>
        <time>2026-05-23T08:42:19Z</time>
      </trkpt>
      <trkpt lat="43.42489" lon="2.52942">
        <ele>980</ele>
        <time>2026-05-23T08:42:24Z</time>
      </trkpt>
      <trkpt lat="43.42489" lon="2.52942">
        <ele>980</ele>
        <time>2026-05-23T08:42:29Z</time>
      </trkpt>
      <trkpt lat="43.42489" lon="2.52942">
        <ele>980</ele>
        <time>2026-05-23T08:42:34Z</time>
      </trkpt>
      <trkpt lat="43.42489" lon="2.52942">
        <ele>980</ele>
        <time>2026-05-23T08:42:39Z</time>
      </trkpt>
      <trkpt lat="43.42489" lon="2.52942">
        <ele>980</ele>
        <time>2026-05-23T08:42:44Z</time>
      </trkpt>
      <trkpt lat="43.42485" lon="2.52943">
        <ele>980.6</ele>
        <time>2026-05-23T08:42:49Z</time>
      </trkpt>
      <trkpt lat="43.42483" lon="2.52945">
        <ele>981.1</ele>
        <time>2026-05-23T08:42:54Z</time>
      </trkpt>
      <trkpt lat="43.4248" lon="2.52948">
        <ele>981.8</ele>
        <time>2026-05-23T08:42:59Z</time>
      </trkpt>
      <trkpt lat="43.42477" lon="2.52951">
        <ele>982.4</ele>
        <time>2026-05-23T08:43:04Z</time>
      </trkpt>
      <trkpt lat="43.42475" lon="2.52951">
        <ele>982.7</ele>
        <time>2026-05-23T08:43:09Z</time>
      </trkpt>
      <trkpt lat="43.42475" lon="2.52951">
        <ele>982.7</ele>
        <time>2026-05-23T08:43:14Z</time>
      </trkpt>
      <trkpt lat="43.42475" lon="2.52951">
        <ele>982.7</ele>
        <time>2026-05-23T08:43:19Z</time>
      </trkpt>
      <trkpt lat="43.4247" lon="2.52962">
        <ele>984.2</ele>
        <time>2026-05-23T08:43:24Z</time>
      </trkpt>
      <trkpt lat="43.42469" lon="2.52962">
        <ele>984.4</ele>
        <time>2026-05-23T08:43:29Z</time>
      </trkpt>
      <trkpt lat="43.42469" lon="2.52962">
        <ele>984.4</ele>
        <time>2026-05-23T08:43:34Z</time>
      </trkpt>
      <trkpt lat="43.42469" lon="2.52962">
        <ele>984.4</ele>
        <time>2026-05-23T08:43:39Z</time>
      </trkpt>
      <trkpt lat="43.4246" lon="2.5296">
        <ele>985.4</ele>
        <time>2026-05-23T08:43:44Z</time>
      </trkpt>
      <trkpt lat="43.42459" lon="2.5296">
        <ele>985.5</ele>
        <time>2026-05-23T08:43:49Z</time>
      </trkpt>
      <trkpt lat="43.42459" lon="2.5296">
        <ele>985.5</ele>
        <time>2026-05-23T08:43:54Z</time>
      </trkpt>
      <trkpt lat="43.42461" lon="2.5297">
        <ele>986</ele>
        <time>2026-05-23T08:43:59Z</time>
      </trkpt>
      <trkpt lat="43.42461" lon="2.5297">
        <ele>986</ele>
        <time>2026-05-23T08:44:04Z</time>
      </trkpt>
      <trkpt lat="43.42463" lon="2.52979">
        <ele>986.4</ele>
        <time>2026-05-23T08:44:09Z</time>
      </trkpt>
      <trkpt lat="43.42464" lon="2.52983">
        <ele>986.6</ele>
        <time>2026-05-23T08:44:14Z</time>
      </trkpt>
      <trkpt lat="43.42466" lon="2.5299">
        <ele>986.9</ele>
        <time>2026-05-23T08:44:19Z</time>
      </trkpt>
      <trkpt lat="43.42467" lon="2.52996">
        <ele>987.3</ele>
        <time>2026-05-23T08:44:24Z</time>
      </trkpt>
      <trkpt lat="43.42466" lon="2.53">
        <ele>987.7</ele>
        <time>2026-05-23T08:44:29Z</time>
      </trkpt>
      <trkpt lat="43.42466" lon="2.53001">
        <ele>987.6</ele>
        <time>2026-05-23T08:44:34Z</time>
      </trkpt>
      <trkpt lat="43.42463" lon="2.5301">
        <ele>987.6</ele>
        <time>2026-05-23T08:44:39Z</time>
      </trkpt>
      <trkpt lat="43.42464" lon="2.53015">
        <ele>987.4</ele>
        <time>2026-05-23T08:44:44Z</time>
      </trkpt>
      <trkpt lat="43.42463" lon="2.53021">
        <ele>987.3</ele>
        <time>2026-05-23T08:44:49Z</time>
      </trkpt>
      <trkpt lat="43.42461" lon="2.53027">
        <ele>987.3</ele>
        <time>2026-05-23T08:44:54Z</time>
      </trkpt>
      <trkpt lat="43.42459" lon="2.53033">
        <ele>987.2</ele>
        <time>2026-05-23T08:44:59Z</time>
      </trkpt>
      <trkpt lat="43.42458" lon="2.53038">
        <ele>987.2</ele>
        <time>2026-05-23T08:45:04Z</time>
      </trkpt>
      <trkpt lat="43.42455" lon="2.53044">
        <ele>987.2</ele>
        <time>2026-05-23T08:45:09Z</time>
      </trkpt>
      <trkpt lat="43.42451" lon="2.53048">
        <ele>987.5</ele>
        <time>2026-05-23T08:45:14Z</time>
      </trkpt>
      <trkpt lat="43.42449" lon="2.53051">
        <ele>987.5</ele>
        <time>2026-05-23T08:45:19Z</time>
      </trkpt>
      <trkpt lat="43.42446" lon="2.53053">
        <ele>987.7</ele>
        <time>2026-05-23T08:45:24Z</time>
      </trkpt>
      <trkpt lat="43.42444" lon="2.53056">
        <ele>987.8</ele>
        <time>2026-05-23T08:45:29Z</time>
      </trkpt>
      <trkpt lat="43.42442" lon="2.53061">
        <ele>987.8</ele>
        <time>2026-05-23T08:45:34Z</time>
      </trkpt>
      <trkpt lat="43.42439" lon="2.53066">
        <ele>987.8</ele>
        <time>2026-05-23T08:45:39Z</time>
      </trkpt>
      <trkpt lat="43.42436" lon="2.53071">
        <ele>987.9</ele>
        <time>2026-05-23T08:45:44Z</time>
      </trkpt>
      <trkpt lat="43.42432" lon="2.53074">
        <ele>988.1</ele>
        <time>2026-05-23T08:45:49Z</time>
      </trkpt>
      <trkpt lat="43.4243" lon="2.53079">
        <ele>988.1</ele>
        <time>2026-05-23T08:45:54Z</time>
      </trkpt>
      <trkpt lat="43.42428" lon="2.53085">
        <ele>987.9</ele>
        <time>2026-05-23T08:45:59Z</time>
      </trkpt>
      <trkpt lat="43.42426" lon="2.53091">
        <ele>987.3</ele>
        <time>2026-05-23T08:46:04Z</time>
      </trkpt>
      <trkpt lat="43.42426" lon="2.53094">
        <ele>987</ele>
        <time>2026-05-23T08:46:09Z</time>
      </trkpt>
      <trkpt lat="43.42426" lon="2.53094">
        <ele>987</ele>
        <time>2026-05-23T08:46:14Z</time>
      </trkpt>
      <trkpt lat="43.42426" lon="2.53094">
        <ele>987</ele>
        <time>2026-05-23T08:46:19Z</time>
      </trkpt>
      <trkpt lat="43.42426" lon="2.53094">
        <ele>987</ele>
        <time>2026-05-23T08:46:24Z</time>
      </trkpt>
      <trkpt lat="43.42426" lon="2.53094">
        <ele>987</ele>
        <time>2026-05-23T08:46:29Z</time>
      </trkpt>
      <trkpt lat="43.42426" lon="2.53094">
        <ele>987</ele>
        <time>2026-05-23T08:46:34Z</time>
      </trkpt>
      <trkpt lat="43.42426" lon="2.53094">
        <ele>987</ele>
        <time>2026-05-23T08:46:39Z</time>
      </trkpt>
      <trkpt lat="43.42426" lon="2.53094">
        <ele>987</ele>
        <time>2026-05-23T08:46:44Z</time>
      </trkpt>
      <trkpt lat="43.42426" lon="2.53094">
        <ele>987</ele>
        <time>2026-05-23T08:46:49Z</time>
      </trkpt>
      <trkpt lat="43.42424" lon="2.53107">
        <ele>985.6</ele>
        <time>2026-05-23T08:46:54Z</time>
      </trkpt>
      <trkpt lat="43.42424" lon="2.53107">
        <ele>985.6</ele>
        <time>2026-05-23T08:46:59Z</time>
      </trkpt>
      <trkpt lat="43.42424" lon="2.53107">
        <ele>985.6</ele>
        <time>2026-05-23T08:47:04Z</time>
      </trkpt>
      <trkpt lat="43.42424" lon="2.53107">
        <ele>985.6</ele>
        <time>2026-05-23T08:47:09Z</time>
      </trkpt>
      <trkpt lat="43.42424" lon="2.53107">
        <ele>985.6</ele>
        <time>2026-05-23T08:47:14Z</time>
      </trkpt>
      <trkpt lat="43.42424" lon="2.53107">
        <ele>985.6</ele>
        <time>2026-05-23T08:47:19Z</time>
      </trkpt>
      <trkpt lat="43.42424" lon="2.53107">
        <ele>985.6</ele>
        <time>2026-05-23T08:47:24Z</time>
      </trkpt>
      <trkpt lat="43.42424" lon="2.53107">
        <ele>985.6</ele>
        <time>2026-05-23T08:47:29Z</time>
      </trkpt>
      <trkpt lat="43.42423" lon="2.53095">
        <ele>987.1</ele>
        <time>2026-05-23T08:47:34Z</time>
      </trkpt>
      <trkpt lat="43.4242" lon="2.53095">
        <ele>987.3</ele>
        <time>2026-05-23T08:47:39Z</time>
      </trkpt>
      <trkpt lat="43.4242" lon="2.53095">
        <ele>987.3</ele>
        <time>2026-05-23T08:47:44Z</time>
      </trkpt>
      <trkpt lat="43.4242" lon="2.53095">
        <ele>987.3</ele>
        <time>2026-05-23T08:47:49Z</time>
      </trkpt>
      <trkpt lat="43.4242" lon="2.53095">
        <ele>987.3</ele>
        <time>2026-05-23T08:47:54Z</time>
      </trkpt>
      <trkpt lat="43.42409" lon="2.53101">
        <ele>986.3</ele>
        <time>2026-05-23T08:47:59Z</time>
      </trkpt>
      <trkpt lat="43.42403" lon="2.53107">
        <ele>985.2</ele>
        <time>2026-05-23T08:48:04Z</time>
      </trkpt>
      <trkpt lat="43.42398" lon="2.53109">
        <ele>984.6</ele>
        <time>2026-05-23T08:48:09Z</time>
      </trkpt>
      <trkpt lat="43.42395" lon="2.5311">
        <ele>984.3</ele>
        <time>2026-05-23T08:48:14Z</time>
      </trkpt>
      <trkpt lat="43.42389" lon="2.53109">
        <ele>984</ele>
        <time>2026-05-23T08:48:19Z</time>
      </trkpt>
      <trkpt lat="43.42384" lon="2.53107">
        <ele>983.9</ele>
        <time>2026-05-23T08:48:24Z</time>
      </trkpt>
      <trkpt lat="43.42381" lon="2.53104">
        <ele>983.9</ele>
        <time>2026-05-23T08:48:29Z</time>
      </trkpt>
      <trkpt lat="43.42377" lon="2.531">
        <ele>984</ele>
        <time>2026-05-23T08:48:34Z</time>
      </trkpt>
      <trkpt lat="43.42374" lon="2.53097">
        <ele>984.1</ele>
        <time>2026-05-23T08:48:39Z</time>
      </trkpt>
      <trkpt lat="43.42372" lon="2.53094">
        <ele>984.2</ele>
        <time>2026-05-23T08:48:44Z</time>
      </trkpt>
      <trkpt lat="43.42369" lon="2.5309">
        <ele>984.4</ele>
        <time>2026-05-23T08:48:49Z</time>
      </trkpt>
      <trkpt lat="43.42369" lon="2.5309">
        <ele>984.4</ele>
        <time>2026-05-23T08:48:54Z</time>
      </trkpt>
      <trkpt lat="43.42369" lon="2.5309">
        <ele>984.4</ele>
        <time>2026-05-23T08:48:59Z</time>
      </trkpt>
      <trkpt lat="43.42366" lon="2.53078">
        <ele>985</ele>
        <time>2026-05-23T08:49:04Z</time>
      </trkpt>
      <trkpt lat="43.42365" lon="2.53075">
        <ele>985.1</ele>
        <time>2026-05-23T08:49:09Z</time>
      </trkpt>
      <trkpt lat="43.42365" lon="2.53075">
        <ele>985.1</ele>
        <time>2026-05-23T08:49:14Z</time>
      </trkpt>
      <trkpt lat="43.42365" lon="2.53075">
        <ele>985.1</ele>
        <time>2026-05-23T08:49:19Z</time>
      </trkpt>
      <trkpt lat="43.42363" lon="2.53061">
        <ele>985.6</ele>
        <time>2026-05-23T08:49:24Z</time>
      </trkpt>
      <trkpt lat="43.42361" lon="2.53058">
        <ele>985.5</ele>
        <time>2026-05-23T08:49:29Z</time>
      </trkpt>
      <trkpt lat="43.4236" lon="2.53053">
        <ele>985.7</ele>
        <time>2026-05-23T08:49:34Z</time>
      </trkpt>
      <trkpt lat="43.42362" lon="2.5305">
        <ele>986</ele>
        <time>2026-05-23T08:49:39Z</time>
      </trkpt>
      <trkpt lat="43.42362" lon="2.53046">
        <ele>986.2</ele>
        <time>2026-05-23T08:49:44Z</time>
      </trkpt>
      <trkpt lat="43.42361" lon="2.53042">
        <ele>986.3</ele>
        <time>2026-05-23T08:49:49Z</time>
      </trkpt>
      <trkpt lat="43.42363" lon="2.53037">
        <ele>986.7</ele>
        <time>2026-05-23T08:49:54Z</time>
      </trkpt>
      <trkpt lat="43.42364" lon="2.53034">
        <ele>986.9</ele>
        <time>2026-05-23T08:49:59Z</time>
      </trkpt>
      <trkpt lat="43.42364" lon="2.53034">
        <ele>986.9</ele>
        <time>2026-05-23T08:50:04Z</time>
      </trkpt>
      <trkpt lat="43.42364" lon="2.53034">
        <ele>986.9</ele>
        <time>2026-05-23T08:50:09Z</time>
      </trkpt>
      <trkpt lat="43.42364" lon="2.53034">
        <ele>986.9</ele>
        <time>2026-05-23T08:50:14Z</time>
      </trkpt>
      <trkpt lat="43.42364" lon="2.53034">
        <ele>986.9</ele>
        <time>2026-05-23T08:50:19Z</time>
      </trkpt>
      <trkpt lat="43.42364" lon="2.53034">
        <ele>986.9</ele>
        <time>2026-05-23T08:50:24Z</time>
      </trkpt>
      <trkpt lat="43.42364" lon="2.53034">
        <ele>986.9</ele>
        <time>2026-05-23T08:50:29Z</time>
      </trkpt>
      <trkpt lat="43.42364" lon="2.53034">
        <ele>986.9</ele>
        <time>2026-05-23T08:50:34Z</time>
      </trkpt>
      <trkpt lat="43.42364" lon="2.53034">
        <ele>986.9</ele>
        <time>2026-05-23T08:50:39Z</time>
      </trkpt>
      <trkpt lat="43.42364" lon="2.53034">
        <ele>986.9</ele>
        <time>2026-05-23T08:50:44Z</time>
      </trkpt>
      <trkpt lat="43.42364" lon="2.53034">
        <ele>986.9</ele>
        <time>2026-05-23T08:50:49Z</time>
      </trkpt>
      <trkpt lat="43.42364" lon="2.53034">
        <ele>986.9</ele>
        <time>2026-05-23T08:50:54Z</time>
      </trkpt>
      <trkpt lat="43.42364" lon="2.53034">
        <ele>986.9</ele>
        <time>2026-05-23T08:50:59Z</time>
      </trkpt>
      <trkpt lat="43.42364" lon="2.53034">
        <ele>986.9</ele>
        <time>2026-05-23T08:51:04Z</time>
      </trkpt>
      <trkpt lat="43.42364" lon="2.53034">
        <ele>986.9</ele>
        <time>2026-05-23T08:51:09Z</time>
      </trkpt>
      <trkpt lat="43.42364" lon="2.53034">
        <ele>986.9</ele>
        <time>2026-05-23T08:51:14Z</time>
      </trkpt>
      <trkpt lat="43.42364" lon="2.53034">
        <ele>986.9</ele>
        <time>2026-05-23T08:51:19Z</time>
      </trkpt>
      <trkpt lat="43.42364" lon="2.53034">
        <ele>986.9</ele>
        <time>2026-05-23T08:51:24Z</time>
      </trkpt>
      <trkpt lat="43.42364" lon="2.53034">
        <ele>986.9</ele>
        <time>2026-05-23T08:51:29Z</time>
      </trkpt>
      <trkpt lat="43.42364" lon="2.53034">
        <ele>986.9</ele>
        <time>2026-05-23T08:51:34Z</time>
      </trkpt>
      <trkpt lat="43.42364" lon="2.53034">
        <ele>986.9</ele>
        <time>2026-05-23T08:51:39Z</time>
      </trkpt>
      <trkpt lat="43.42364" lon="2.53034">
        <ele>986.9</ele>
        <time>2026-05-23T08:51:44Z</time>
      </trkpt>
      <trkpt lat="43.42364" lon="2.53034">
        <ele>986.9</ele>
        <time>2026-05-23T08:51:49Z</time>
      </trkpt>
      <trkpt lat="43.42364" lon="2.53034">
        <ele>986.9</ele>
        <time>2026-05-23T08:51:54Z</time>
      </trkpt>
      <trkpt lat="43.42364" lon="2.53034">
        <ele>986.9</ele>
        <time>2026-05-23T08:51:59Z</time>
      </trkpt>
      <trkpt lat="43.42364" lon="2.53034">
        <ele>986.9</ele>
        <time>2026-05-23T08:52:04Z</time>
      </trkpt>
      <trkpt lat="43.42364" lon="2.53034">
        <ele>986.9</ele>
        <time>2026-05-23T08:52:09Z</time>
      </trkpt>
      <trkpt lat="43.42364" lon="2.53034">
        <ele>986.9</ele>
        <time>2026-05-23T08:52:14Z</time>
      </trkpt>
      <trkpt lat="43.42364" lon="2.53034">
        <ele>986.9</ele>
        <time>2026-05-23T08:52:19Z</time>
      </trkpt>
      <trkpt lat="43.42367" lon="2.53038">
        <ele>987</ele>
        <time>2026-05-23T08:52:24Z</time>
      </trkpt>
      <trkpt lat="43.42367" lon="2.53038">
        <ele>987</ele>
        <time>2026-05-23T08:52:29Z</time>
      </trkpt>
      <trkpt lat="43.42367" lon="2.53038">
        <ele>987</ele>
        <time>2026-05-23T08:52:34Z</time>
      </trkpt>
      <trkpt lat="43.42367" lon="2.53038">
        <ele>987</ele>
        <time>2026-05-23T08:52:39Z</time>
      </trkpt>
      <trkpt lat="43.42367" lon="2.53038">
        <ele>987</ele>
        <time>2026-05-23T08:52:44Z</time>
      </trkpt>
      <trkpt lat="43.42367" lon="2.53038">
        <ele>987</ele>
        <time>2026-05-23T08:52:49Z</time>
      </trkpt>
      <trkpt lat="43.42367" lon="2.53038">
        <ele>987</ele>
        <time>2026-05-23T08:52:54Z</time>
      </trkpt>
      <trkpt lat="43.42375" lon="2.5304">
        <ele>987.6</ele>
        <time>2026-05-23T08:52:59Z</time>
      </trkpt>
      <trkpt lat="43.42377" lon="2.5304">
        <ele>987.7</ele>
        <time>2026-05-23T08:53:04Z</time>
      </trkpt>
      <trkpt lat="43.4238" lon="2.53041">
        <ele>988</ele>
        <time>2026-05-23T08:53:09Z</time>
      </trkpt>
      <trkpt lat="43.42382" lon="2.5304">
        <ele>988.2</ele>
        <time>2026-05-23T08:53:14Z</time>
      </trkpt>
      <trkpt lat="43.42383" lon="2.53039">
        <ele>988.3</ele>
        <time>2026-05-23T08:53:19Z</time>
      </trkpt>
      <trkpt lat="43.42383" lon="2.53039">
        <ele>988.3</ele>
        <time>2026-05-23T08:53:24Z</time>
      </trkpt>
      <trkpt lat="43.42383" lon="2.53039">
        <ele>988.3</ele>
        <time>2026-05-23T08:53:29Z</time>
      </trkpt>
      <trkpt lat="43.42383" lon="2.53039">
        <ele>988.3</ele>
        <time>2026-05-23T08:53:34Z</time>
      </trkpt>
      <trkpt lat="43.42383" lon="2.53039">
        <ele>988.3</ele>
        <time>2026-05-23T08:53:39Z</time>
      </trkpt>
      <trkpt lat="43.42383" lon="2.53039">
        <ele>988.3</ele>
        <time>2026-05-23T08:53:44Z</time>
      </trkpt>
      <trkpt lat="43.42383" lon="2.53039">
        <ele>988.3</ele>
        <time>2026-05-23T08:53:49Z</time>
      </trkpt>
      <trkpt lat="43.42383" lon="2.53039">
        <ele>988.3</ele>
        <time>2026-05-23T08:53:54Z</time>
      </trkpt>
      <trkpt lat="43.42383" lon="2.53039">
        <ele>988.3</ele>
        <time>2026-05-23T08:53:59Z</time>
      </trkpt>
      <trkpt lat="43.42383" lon="2.53039">
        <ele>988.3</ele>
        <time>2026-05-23T08:54:04Z</time>
      </trkpt>
      <trkpt lat="43.42383" lon="2.53039">
        <ele>988.3</ele>
        <time>2026-05-23T08:54:09Z</time>
      </trkpt>
      <trkpt lat="43.42383" lon="2.53039">
        <ele>988.3</ele>
        <time>2026-05-23T08:54:14Z</time>
      </trkpt>
      <trkpt lat="43.42383" lon="2.53039">
        <ele>988.3</ele>
        <time>2026-05-23T08:54:19Z</time>
      </trkpt>
      <trkpt lat="43.42383" lon="2.53039">
        <ele>988.3</ele>
        <time>2026-05-23T08:54:24Z</time>
      </trkpt>
      <trkpt lat="43.42383" lon="2.53039">
        <ele>988.3</ele>
        <time>2026-05-23T08:54:29Z</time>
      </trkpt>
      <trkpt lat="43.42383" lon="2.53039">
        <ele>988.3</ele>
        <time>2026-05-23T08:54:34Z</time>
      </trkpt>
      <trkpt lat="43.42383" lon="2.53039">
        <ele>988.3</ele>
        <time>2026-05-23T08:54:39Z</time>
      </trkpt>
      <trkpt lat="43.42383" lon="2.53039">
        <ele>988.3</ele>
        <time>2026-05-23T08:54:44Z</time>
      </trkpt>
      <trkpt lat="43.42383" lon="2.53039">
        <ele>988.3</ele>
        <time>2026-05-23T08:54:49Z</time>
      </trkpt>
      <trkpt lat="43.42383" lon="2.53039">
        <ele>988.3</ele>
        <time>2026-05-23T08:54:54Z</time>
      </trkpt>
      <trkpt lat="43.42383" lon="2.53039">
        <ele>988.3</ele>
        <time>2026-05-23T08:54:59Z</time>
      </trkpt>
      <trkpt lat="43.42383" lon="2.53039">
        <ele>988.3</ele>
        <time>2026-05-23T08:55:04Z</time>
      </trkpt>
      <trkpt lat="43.42383" lon="2.53039">
        <ele>988.3</ele>
        <time>2026-05-23T08:55:09Z</time>
      </trkpt>
      <trkpt lat="43.42383" lon="2.53039">
        <ele>988.3</ele>
        <time>2026-05-23T08:55:14Z</time>
      </trkpt>
      <trkpt lat="43.42383" lon="2.53039">
        <ele>988.3</ele>
        <time>2026-05-23T08:55:19Z</time>
      </trkpt>
      <trkpt lat="43.42383" lon="2.53039">
        <ele>988.3</ele>
        <time>2026-05-23T08:55:24Z</time>
      </trkpt>
      <trkpt lat="43.42383" lon="2.53039">
        <ele>988.3</ele>
        <time>2026-05-23T08:55:29Z</time>
      </trkpt>
      <trkpt lat="43.42383" lon="2.53039">
        <ele>988.3</ele>
        <time>2026-05-23T08:55:34Z</time>
      </trkpt>
      <trkpt lat="43.42383" lon="2.53039">
        <ele>988.3</ele>
        <time>2026-05-23T08:55:39Z</time>
      </trkpt>
      <trkpt lat="43.42383" lon="2.53039">
        <ele>988.3</ele>
        <time>2026-05-23T08:55:44Z</time>
      </trkpt>
      <trkpt lat="43.42383" lon="2.53039">
        <ele>988.3</ele>
        <time>2026-05-23T08:55:49Z</time>
      </trkpt>
      <trkpt lat="43.42383" lon="2.53039">
        <ele>988.3</ele>
        <time>2026-05-23T08:55:54Z</time>
      </trkpt>
      <trkpt lat="43.42383" lon="2.53039">
        <ele>988.3</ele>
        <time>2026-05-23T08:55:59Z</time>
      </trkpt>
      <trkpt lat="43.42383" lon="2.53039">
        <ele>988.3</ele>
        <time>2026-05-23T08:56:04Z</time>
      </trkpt>
      <trkpt lat="43.42383" lon="2.53039">
        <ele>988.3</ele>
        <time>2026-05-23T08:56:09Z</time>
      </trkpt>
      <trkpt lat="43.42383" lon="2.53039">
        <ele>988.3</ele>
        <time>2026-05-23T08:56:14Z</time>
      </trkpt>
      <trkpt lat="43.42383" lon="2.53039">
        <ele>988.3</ele>
        <time>2026-05-23T08:56:19Z</time>
      </trkpt>
      <trkpt lat="43.42383" lon="2.53039">
        <ele>988.3</ele>
        <time>2026-05-23T08:56:24Z</time>
      </trkpt>
      <trkpt lat="43.42383" lon="2.53039">
        <ele>988.3</ele>
        <time>2026-05-23T08:56:29Z</time>
      </trkpt>
      <trkpt lat="43.42383" lon="2.53039">
        <ele>988.3</ele>
        <time>2026-05-23T08:56:34Z</time>
      </trkpt>
      <trkpt lat="43.42391" lon="2.53037">
        <ele>989.1</ele>
        <time>2026-05-23T08:56:39Z</time>
      </trkpt>
      <trkpt lat="43.42392" lon="2.53036">
        <ele>989.2</ele>
        <time>2026-05-23T08:56:44Z</time>
      </trkpt>
      <trkpt lat="43.42392" lon="2.53036">
        <ele>989.2</ele>
        <time>2026-05-23T08:56:49Z</time>
      </trkpt>
      <trkpt lat="43.42392" lon="2.53036">
        <ele>989.2</ele>
        <time>2026-05-23T08:56:54Z</time>
      </trkpt>
      <trkpt lat="43.42395" lon="2.53036">
        <ele>989.5</ele>
        <time>2026-05-23T08:56:59Z</time>
      </trkpt>
      <trkpt lat="43.424" lon="2.53036">
        <ele>989.9</ele>
        <time>2026-05-23T08:57:04Z</time>
      </trkpt>
      <trkpt lat="43.42404" lon="2.53035">
        <ele>990.3</ele>
        <time>2026-05-23T08:57:09Z</time>
      </trkpt>
      <trkpt lat="43.42406" lon="2.53033">
        <ele>990.5</ele>
        <time>2026-05-23T08:57:14Z</time>
      </trkpt>
      <trkpt lat="43.42406" lon="2.53033">
        <ele>990.5</ele>
        <time>2026-05-23T08:57:19Z</time>
      </trkpt>
      <trkpt lat="43.42406" lon="2.53033">
        <ele>990.5</ele>
        <time>2026-05-23T08:57:24Z</time>
      </trkpt>
      <trkpt lat="43.42406" lon="2.53033">
        <ele>990.5</ele>
        <time>2026-05-23T08:57:29Z</time>
      </trkpt>
      <trkpt lat="43.42406" lon="2.53033">
        <ele>990.5</ele>
        <time>2026-05-23T08:57:34Z</time>
      </trkpt>
      <trkpt lat="43.42406" lon="2.53033">
        <ele>990.5</ele>
        <time>2026-05-23T08:57:39Z</time>
      </trkpt>
      <trkpt lat="43.42406" lon="2.53033">
        <ele>990.5</ele>
        <time>2026-05-23T08:57:44Z</time>
      </trkpt>
      <trkpt lat="43.42406" lon="2.53033">
        <ele>990.5</ele>
        <time>2026-05-23T08:57:49Z</time>
      </trkpt>
      <trkpt lat="43.42406" lon="2.53033">
        <ele>990.5</ele>
        <time>2026-05-23T08:57:54Z</time>
      </trkpt>
      <trkpt lat="43.42406" lon="2.53033">
        <ele>990.5</ele>
        <time>2026-05-23T08:57:59Z</time>
      </trkpt>
      <trkpt lat="43.42406" lon="2.53033">
        <ele>990.5</ele>
        <time>2026-05-23T08:58:04Z</time>
      </trkpt>
      <trkpt lat="43.42406" lon="2.53033">
        <ele>990.5</ele>
        <time>2026-05-23T08:58:09Z</time>
      </trkpt>
      <trkpt lat="43.42406" lon="2.53033">
        <ele>990.5</ele>
        <time>2026-05-23T08:58:14Z</time>
      </trkpt>
      <trkpt lat="43.42406" lon="2.53033">
        <ele>990.5</ele>
        <time>2026-05-23T08:58:19Z</time>
      </trkpt>
      <trkpt lat="43.42406" lon="2.53033">
        <ele>990.5</ele>
        <time>2026-05-23T08:58:24Z</time>
      </trkpt>
      <trkpt lat="43.42406" lon="2.53033">
        <ele>990.5</ele>
        <time>2026-05-23T08:58:29Z</time>
      </trkpt>
      <trkpt lat="43.42406" lon="2.53033">
        <ele>990.5</ele>
        <time>2026-05-23T08:58:34Z</time>
      </trkpt>
      <trkpt lat="43.42406" lon="2.53033">
        <ele>990.5</ele>
        <time>2026-05-23T08:58:39Z</time>
      </trkpt>
      <trkpt lat="43.42406" lon="2.53033">
        <ele>990.5</ele>
        <time>2026-05-23T08:58:44Z</time>
      </trkpt>
      <trkpt lat="43.42406" lon="2.53033">
        <ele>990.5</ele>
        <time>2026-05-23T08:58:49Z</time>
      </trkpt>
      <trkpt lat="43.42406" lon="2.53033">
        <ele>990.5</ele>
        <time>2026-05-23T08:58:54Z</time>
      </trkpt>
      <trkpt lat="43.42406" lon="2.53033">
        <ele>990.5</ele>
        <time>2026-05-23T08:58:59Z</time>
      </trkpt>
      <trkpt lat="43.42406" lon="2.53033">
        <ele>990.5</ele>
        <time>2026-05-23T08:59:04Z</time>
      </trkpt>
      <trkpt lat="43.42406" lon="2.53033">
        <ele>990.5</ele>
        <time>2026-05-23T08:59:09Z</time>
      </trkpt>
      <trkpt lat="43.42406" lon="2.53033">
        <ele>990.5</ele>
        <time>2026-05-23T08:59:14Z</time>
      </trkpt>
      <trkpt lat="43.42406" lon="2.53033">
        <ele>990.5</ele>
        <time>2026-05-23T08:59:19Z</time>
      </trkpt>
      <trkpt lat="43.42406" lon="2.53033">
        <ele>990.5</ele>
        <time>2026-05-23T08:59:24Z</time>
      </trkpt>
      <trkpt lat="43.42406" lon="2.53033">
        <ele>990.5</ele>
        <time>2026-05-23T08:59:29Z</time>
      </trkpt>
      <trkpt lat="43.42406" lon="2.53033">
        <ele>990.5</ele>
        <time>2026-05-23T08:59:34Z</time>
      </trkpt>
      <trkpt lat="43.42406" lon="2.53033">
        <ele>990.5</ele>
        <time>2026-05-23T08:59:39Z</time>
      </trkpt>
      <trkpt lat="43.42406" lon="2.53033">
        <ele>990.5</ele>
        <time>2026-05-23T08:59:44Z</time>
      </trkpt>
      <trkpt lat="43.42406" lon="2.53033">
        <ele>990.5</ele>
        <time>2026-05-23T08:59:49Z</time>
      </trkpt>
      <trkpt lat="43.42406" lon="2.53033">
        <ele>990.5</ele>
        <time>2026-05-23T08:59:54Z</time>
      </trkpt>
      <trkpt lat="43.42406" lon="2.53033">
        <ele>990.5</ele>
        <time>2026-05-23T08:59:59Z</time>
      </trkpt>
      <trkpt lat="43.42403" lon="2.53037">
        <ele>990.1</ele>
        <time>2026-05-23T09:00:04Z</time>
      </trkpt>
      <trkpt lat="43.42403" lon="2.53037">
        <ele>990.1</ele>
        <time>2026-05-23T09:00:09Z</time>
      </trkpt>
      <trkpt lat="43.42403" lon="2.53037">
        <ele>990.1</ele>
        <time>2026-05-23T09:00:14Z</time>
      </trkpt>
      <trkpt lat="43.42403" lon="2.53037">
        <ele>990.1</ele>
        <time>2026-05-23T09:00:19Z</time>
      </trkpt>
      <trkpt lat="43.42403" lon="2.53037">
        <ele>990.1</ele>
        <time>2026-05-23T09:00:24Z</time>
      </trkpt>
      <trkpt lat="43.42403" lon="2.53037">
        <ele>990.1</ele>
        <time>2026-05-23T09:00:29Z</time>
      </trkpt>
      <trkpt lat="43.42403" lon="2.53037">
        <ele>990.1</ele>
        <time>2026-05-23T09:00:34Z</time>
      </trkpt>
      <trkpt lat="43.42403" lon="2.53037">
        <ele>990.1</ele>
        <time>2026-05-23T09:00:39Z</time>
      </trkpt>
      <trkpt lat="43.42403" lon="2.53037">
        <ele>990.1</ele>
        <time>2026-05-23T09:00:44Z</time>
      </trkpt>
      <trkpt lat="43.42403" lon="2.53037">
        <ele>990.1</ele>
        <time>2026-05-23T09:00:49Z</time>
      </trkpt>
      <trkpt lat="43.42403" lon="2.53037">
        <ele>990.1</ele>
        <time>2026-05-23T09:00:54Z</time>
      </trkpt>
      <trkpt lat="43.42403" lon="2.53037">
        <ele>990.1</ele>
        <time>2026-05-23T09:00:59Z</time>
      </trkpt>
      <trkpt lat="43.42403" lon="2.53037">
        <ele>990.1</ele>
        <time>2026-05-23T09:01:04Z</time>
      </trkpt>
      <trkpt lat="43.42403" lon="2.53037">
        <ele>990.1</ele>
        <time>2026-05-23T09:01:09Z</time>
      </trkpt>
      <trkpt lat="43.42403" lon="2.53037">
        <ele>990.1</ele>
        <time>2026-05-23T09:01:14Z</time>
      </trkpt>
      <trkpt lat="43.42403" lon="2.53037">
        <ele>990.1</ele>
        <time>2026-05-23T09:01:19Z</time>
      </trkpt>
      <trkpt lat="43.42403" lon="2.53037">
        <ele>990.1</ele>
        <time>2026-05-23T09:01:24Z</time>
      </trkpt>
      <trkpt lat="43.42403" lon="2.53037">
        <ele>990.1</ele>
        <time>2026-05-23T09:01:29Z</time>
      </trkpt>
      <trkpt lat="43.42403" lon="2.53037">
        <ele>990.1</ele>
        <time>2026-05-23T09:01:34Z</time>
      </trkpt>
      <trkpt lat="43.42403" lon="2.53037">
        <ele>990.1</ele>
        <time>2026-05-23T09:01:39Z</time>
      </trkpt>
      <trkpt lat="43.42403" lon="2.53037">
        <ele>990.1</ele>
        <time>2026-05-23T09:01:44Z</time>
      </trkpt>
      <trkpt lat="43.42403" lon="2.53037">
        <ele>990.1</ele>
        <time>2026-05-23T09:01:49Z</time>
      </trkpt>
      <trkpt lat="43.42403" lon="2.53037">
        <ele>990.1</ele>
        <time>2026-05-23T09:01:54Z</time>
      </trkpt>
      <trkpt lat="43.42403" lon="2.53037">
        <ele>990.1</ele>
        <time>2026-05-23T09:01:59Z</time>
      </trkpt>
      <trkpt lat="43.42403" lon="2.53037">
        <ele>990.1</ele>
        <time>2026-05-23T09:02:04Z</time>
      </trkpt>
      <trkpt lat="43.42403" lon="2.53037">
        <ele>990.1</ele>
        <time>2026-05-23T09:02:09Z</time>
      </trkpt>
      <trkpt lat="43.42403" lon="2.53037">
        <ele>990.1</ele>
        <time>2026-05-23T09:02:14Z</time>
      </trkpt>
      <trkpt lat="43.42403" lon="2.53037">
        <ele>990.1</ele>
        <time>2026-05-23T09:02:19Z</time>
      </trkpt>
      <trkpt lat="43.42403" lon="2.53037">
        <ele>990.1</ele>
        <time>2026-05-23T09:02:24Z</time>
      </trkpt>
      <trkpt lat="43.42393" lon="2.5304">
        <ele>989.1</ele>
        <time>2026-05-23T09:02:29Z</time>
      </trkpt>
      <trkpt lat="43.42393" lon="2.5304">
        <ele>989.1</ele>
        <time>2026-05-23T09:02:34Z</time>
      </trkpt>
      <trkpt lat="43.42393" lon="2.5304">
        <ele>989.1</ele>
        <time>2026-05-23T09:02:39Z</time>
      </trkpt>
      <trkpt lat="43.42393" lon="2.5304">
        <ele>989.1</ele>
        <time>2026-05-23T09:02:44Z</time>
      </trkpt>
      <trkpt lat="43.42393" lon="2.5304">
        <ele>989.1</ele>
        <time>2026-05-23T09:02:49Z</time>
      </trkpt>
      <trkpt lat="43.42393" lon="2.5304">
        <ele>989.1</ele>
        <time>2026-05-23T09:02:54Z</time>
      </trkpt>
      <trkpt lat="43.42393" lon="2.5304">
        <ele>989.1</ele>
        <time>2026-05-23T09:02:59Z</time>
      </trkpt>
      <trkpt lat="43.42393" lon="2.5304">
        <ele>989.1</ele>
        <time>2026-05-23T09:03:04Z</time>
      </trkpt>
      <trkpt lat="43.42393" lon="2.5304">
        <ele>989.1</ele>
        <time>2026-05-23T09:03:09Z</time>
      </trkpt>
      <trkpt lat="43.42393" lon="2.5304">
        <ele>989.1</ele>
        <time>2026-05-23T09:03:14Z</time>
      </trkpt>
      <trkpt lat="43.42393" lon="2.5304">
        <ele>989.1</ele>
        <time>2026-05-23T09:03:19Z</time>
      </trkpt>
      <trkpt lat="43.42384" lon="2.53041">
        <ele>988.3</ele>
        <time>2026-05-23T09:03:24Z</time>
      </trkpt>
      <trkpt lat="43.4238" lon="2.53042">
        <ele>987.9</ele>
        <time>2026-05-23T09:03:29Z</time>
      </trkpt>
      <trkpt lat="43.42376" lon="2.53043">
        <ele>987.5</ele>
        <time>2026-05-23T09:03:34Z</time>
      </trkpt>
      <trkpt lat="43.42375" lon="2.53042">
        <ele>987.5</ele>
        <time>2026-05-23T09:03:39Z</time>
      </trkpt>
      <trkpt lat="43.42371" lon="2.5304">
        <ele>987.2</ele>
        <time>2026-05-23T09:03:44Z</time>
      </trkpt>
      <trkpt lat="43.4237" lon="2.53039">
        <ele>987.2</ele>
        <time>2026-05-23T09:03:49Z</time>
      </trkpt>
      <trkpt lat="43.4237" lon="2.53039">
        <ele>987.2</ele>
        <time>2026-05-23T09:03:54Z</time>
      </trkpt>
      <trkpt lat="43.4237" lon="2.53039">
        <ele>987.2</ele>
        <time>2026-05-23T09:03:59Z</time>
      </trkpt>
      <trkpt lat="43.4237" lon="2.53039">
        <ele>987.2</ele>
        <time>2026-05-23T09:04:04Z</time>
      </trkpt>
      <trkpt lat="43.4237" lon="2.53039">
        <ele>987.2</ele>
        <time>2026-05-23T09:04:09Z</time>
      </trkpt>
      <trkpt lat="43.4237" lon="2.53039">
        <ele>987.2</ele>
        <time>2026-05-23T09:04:14Z</time>
      </trkpt>
      <trkpt lat="43.4237" lon="2.53039">
        <ele>987.2</ele>
        <time>2026-05-23T09:04:19Z</time>
      </trkpt>
      <trkpt lat="43.4237" lon="2.53039">
        <ele>987.2</ele>
        <time>2026-05-23T09:04:24Z</time>
      </trkpt>
      <trkpt lat="43.4237" lon="2.53039">
        <ele>987.2</ele>
        <time>2026-05-23T09:04:29Z</time>
      </trkpt>
      <trkpt lat="43.4237" lon="2.53039">
        <ele>987.2</ele>
        <time>2026-05-23T09:04:34Z</time>
      </trkpt>
      <trkpt lat="43.4237" lon="2.53039">
        <ele>987.2</ele>
        <time>2026-05-23T09:04:39Z</time>
      </trkpt>
      <trkpt lat="43.4237" lon="2.53039">
        <ele>987.2</ele>
        <time>2026-05-23T09:04:44Z</time>
      </trkpt>
      <trkpt lat="43.4237" lon="2.53039">
        <ele>987.2</ele>
        <time>2026-05-23T09:04:49Z</time>
      </trkpt>
      <trkpt lat="43.4237" lon="2.53039">
        <ele>987.2</ele>
        <time>2026-05-23T09:04:54Z</time>
      </trkpt>
      <trkpt lat="43.4237" lon="2.53039">
        <ele>987.2</ele>
        <time>2026-05-23T09:04:59Z</time>
      </trkpt>
      <trkpt lat="43.4237" lon="2.53039">
        <ele>987.2</ele>
        <time>2026-05-23T09:05:04Z</time>
      </trkpt>
      <trkpt lat="43.4237" lon="2.53039">
        <ele>987.2</ele>
        <time>2026-05-23T09:05:09Z</time>
      </trkpt>
      <trkpt lat="43.4237" lon="2.53039">
        <ele>987.2</ele>
        <time>2026-05-23T09:05:14Z</time>
      </trkpt>
      <trkpt lat="43.4236" lon="2.53029">
        <ele>986.8</ele>
        <time>2026-05-23T09:05:19Z</time>
      </trkpt>
      <trkpt lat="43.4236" lon="2.53029">
        <ele>986.8</ele>
        <time>2026-05-23T09:05:24Z</time>
      </trkpt>
      <trkpt lat="43.4236" lon="2.53029">
        <ele>986.8</ele>
        <time>2026-05-23T09:05:29Z</time>
      </trkpt>
      <trkpt lat="43.4236" lon="2.53029">
        <ele>986.8</ele>
        <time>2026-05-23T09:05:34Z</time>
      </trkpt>
      <trkpt lat="43.42354" lon="2.53026">
        <ele>986.5</ele>
        <time>2026-05-23T09:05:39Z</time>
      </trkpt>
      <trkpt lat="43.42348" lon="2.53025">
        <ele>986</ele>
        <time>2026-05-23T09:05:44Z</time>
      </trkpt>
      <trkpt lat="43.42342" lon="2.53025">
        <ele>985.5</ele>
        <time>2026-05-23T09:05:49Z</time>
      </trkpt>
      <trkpt lat="43.42337" lon="2.53023">
        <ele>985.2</ele>
        <time>2026-05-23T09:05:54Z</time>
      </trkpt>
      <trkpt lat="43.42333" lon="2.53019">
        <ele>985</ele>
        <time>2026-05-23T09:05:59Z</time>
      </trkpt>
      <trkpt lat="43.42331" lon="2.53014">
        <ele>984.7</ele>
        <time>2026-05-23T09:06:04Z</time>
      </trkpt>
      <trkpt lat="43.42327" lon="2.53007">
        <ele>983.9</ele>
        <time>2026-05-23T09:06:09Z</time>
      </trkpt>
      <trkpt lat="43.42323" lon="2.53">
        <ele>983</ele>
        <time>2026-05-23T09:06:14Z</time>
      </trkpt>
      <trkpt lat="43.42319" lon="2.52993">
        <ele>981.7</ele>
        <time>2026-05-23T09:06:19Z</time>
      </trkpt>
      <trkpt lat="43.42317" lon="2.52985">
        <ele>980.9</ele>
        <time>2026-05-23T09:06:24Z</time>
      </trkpt>
      <trkpt lat="43.42314" lon="2.52977">
        <ele>979.8</ele>
        <time>2026-05-23T09:06:29Z</time>
      </trkpt>
      <trkpt lat="43.42312" lon="2.5297">
        <ele>979</ele>
        <time>2026-05-23T09:06:34Z</time>
      </trkpt>
      <trkpt lat="43.42308" lon="2.52962">
        <ele>977.5</ele>
        <time>2026-05-23T09:06:39Z</time>
      </trkpt>
      <trkpt lat="43.42306" lon="2.52955">
        <ele>976.7</ele>
        <time>2026-05-23T09:06:44Z</time>
      </trkpt>
      <trkpt lat="43.42304" lon="2.5295">
        <ele>975.9</ele>
        <time>2026-05-23T09:06:49Z</time>
      </trkpt>
      <trkpt lat="43.423" lon="2.5295">
        <ele>974.7</ele>
        <time>2026-05-23T09:06:54Z</time>
      </trkpt>
      <trkpt lat="43.423" lon="2.5295">
        <ele>974.7</ele>
        <time>2026-05-23T09:06:59Z</time>
      </trkpt>
      <trkpt lat="43.423" lon="2.5295">
        <ele>974.7</ele>
        <time>2026-05-23T09:07:04Z</time>
      </trkpt>
      <trkpt lat="43.423" lon="2.5295">
        <ele>974.7</ele>
        <time>2026-05-23T09:07:09Z</time>
      </trkpt>
      <trkpt lat="43.423" lon="2.5295">
        <ele>974.7</ele>
        <time>2026-05-23T09:07:14Z</time>
      </trkpt>
      <trkpt lat="43.423" lon="2.5295">
        <ele>974.7</ele>
        <time>2026-05-23T09:07:19Z</time>
      </trkpt>
      <trkpt lat="43.423" lon="2.5295">
        <ele>974.7</ele>
        <time>2026-05-23T09:07:24Z</time>
      </trkpt>
      <trkpt lat="43.423" lon="2.5295">
        <ele>974.7</ele>
        <time>2026-05-23T09:07:29Z</time>
      </trkpt>
      <trkpt lat="43.423" lon="2.5295">
        <ele>974.7</ele>
        <time>2026-05-23T09:07:34Z</time>
      </trkpt>
      <trkpt lat="43.423" lon="2.5295">
        <ele>974.7</ele>
        <time>2026-05-23T09:07:39Z</time>
      </trkpt>
      <trkpt lat="43.423" lon="2.5295">
        <ele>974.7</ele>
        <time>2026-05-23T09:07:44Z</time>
      </trkpt>
      <trkpt lat="43.423" lon="2.5295">
        <ele>974.7</ele>
        <time>2026-05-23T09:07:49Z</time>
      </trkpt>
      <trkpt lat="43.423" lon="2.5295">
        <ele>974.7</ele>
        <time>2026-05-23T09:07:54Z</time>
      </trkpt>
      <trkpt lat="43.423" lon="2.5295">
        <ele>974.7</ele>
        <time>2026-05-23T09:07:59Z</time>
      </trkpt>
      <trkpt lat="43.42299" lon="2.52948">
        <ele>974.3</ele>
        <time>2026-05-23T09:08:04Z</time>
      </trkpt>
      <trkpt lat="43.42297" lon="2.52941">
        <ele>973.5</ele>
        <time>2026-05-23T09:08:09Z</time>
      </trkpt>
      <trkpt lat="43.42297" lon="2.52939">
        <ele>973.4</ele>
        <time>2026-05-23T09:08:14Z</time>
      </trkpt>
      <trkpt lat="43.42296" lon="2.52938">
        <ele>973.1</ele>
        <time>2026-05-23T09:08:19Z</time>
      </trkpt>
      <trkpt lat="43.42296" lon="2.52938">
        <ele>973.1</ele>
        <time>2026-05-23T09:08:24Z</time>
      </trkpt>
      <trkpt lat="43.42296" lon="2.52938">
        <ele>973.1</ele>
        <time>2026-05-23T09:08:29Z</time>
      </trkpt>
      <trkpt lat="43.42296" lon="2.52938">
        <ele>973.1</ele>
        <time>2026-05-23T09:08:34Z</time>
      </trkpt>
      <trkpt lat="43.42296" lon="2.52938">
        <ele>973.1</ele>
        <time>2026-05-23T09:08:39Z</time>
      </trkpt>
      <trkpt lat="43.42296" lon="2.52938">
        <ele>973.1</ele>
        <time>2026-05-23T09:08:44Z</time>
      </trkpt>
      <trkpt lat="43.42296" lon="2.52931">
        <ele>972.9</ele>
        <time>2026-05-23T09:08:49Z</time>
      </trkpt>
      <trkpt lat="43.42292" lon="2.52925">
        <ele>971.4</ele>
        <time>2026-05-23T09:08:54Z</time>
      </trkpt>
      <trkpt lat="43.42289" lon="2.52921">
        <ele>970.3</ele>
        <time>2026-05-23T09:08:59Z</time>
      </trkpt>
      <trkpt lat="43.42287" lon="2.52918">
        <ele>969.6</ele>
        <time>2026-05-23T09:09:04Z</time>
      </trkpt>
      <trkpt lat="43.42286" lon="2.52915">
        <ele>969.2</ele>
        <time>2026-05-23T09:09:09Z</time>
      </trkpt>
      <trkpt lat="43.42284" lon="2.52912">
        <ele>968.5</ele>
        <time>2026-05-23T09:09:14Z</time>
      </trkpt>
      <trkpt lat="43.42286" lon="2.52903">
        <ele>968.8</ele>
        <time>2026-05-23T09:09:19Z</time>
      </trkpt>
      <trkpt lat="43.42288" lon="2.52896">
        <ele>969.2</ele>
        <time>2026-05-23T09:09:24Z</time>
      </trkpt>
      <trkpt lat="43.42292" lon="2.52889">
        <ele>970.3</ele>
        <time>2026-05-23T09:09:29Z</time>
      </trkpt>
      <trkpt lat="43.42294" lon="2.52881">
        <ele>970.7</ele>
        <time>2026-05-23T09:09:34Z</time>
      </trkpt>
      <trkpt lat="43.42297" lon="2.52876">
        <ele>971.5</ele>
        <time>2026-05-23T09:09:39Z</time>
      </trkpt>
      <trkpt lat="43.42301" lon="2.52869">
        <ele>972.5</ele>
        <time>2026-05-23T09:09:44Z</time>
      </trkpt>
      <trkpt lat="43.42305" lon="2.52863">
        <ele>973.7</ele>
        <time>2026-05-23T09:09:49Z</time>
      </trkpt>
      <trkpt lat="43.42308" lon="2.52854">
        <ele>974.4</ele>
        <time>2026-05-23T09:09:54Z</time>
      </trkpt>
      <trkpt lat="43.42311" lon="2.52844">
        <ele>975.1</ele>
        <time>2026-05-23T09:09:59Z</time>
      </trkpt>
      <trkpt lat="43.42316" lon="2.52838">
        <ele>976.5</ele>
        <time>2026-05-23T09:10:04Z</time>
      </trkpt>
      <trkpt lat="43.42321" lon="2.52831">
        <ele>977.9</ele>
        <time>2026-05-23T09:10:09Z</time>
      </trkpt>
      <trkpt lat="43.42322" lon="2.52828">
        <ele>978.1</ele>
        <time>2026-05-23T09:10:14Z</time>
      </trkpt>
      <trkpt lat="43.42323" lon="2.52826">
        <ele>978.4</ele>
        <time>2026-05-23T09:10:19Z</time>
      </trkpt>
      <trkpt lat="43.42323" lon="2.52826">
        <ele>978.4</ele>
        <time>2026-05-23T09:10:24Z</time>
      </trkpt>
      <trkpt lat="43.42323" lon="2.52826">
        <ele>978.4</ele>
        <time>2026-05-23T09:10:29Z</time>
      </trkpt>
      <trkpt lat="43.42323" lon="2.52826">
        <ele>978.4</ele>
        <time>2026-05-23T09:10:34Z</time>
      </trkpt>
      <trkpt lat="43.42323" lon="2.52826">
        <ele>978.4</ele>
        <time>2026-05-23T09:10:39Z</time>
      </trkpt>
      <trkpt lat="43.42323" lon="2.52826">
        <ele>978.4</ele>
        <time>2026-05-23T09:10:44Z</time>
      </trkpt>
      <trkpt lat="43.42323" lon="2.52826">
        <ele>978.4</ele>
        <time>2026-05-23T09:10:49Z</time>
      </trkpt>
      <trkpt lat="43.42323" lon="2.52815">
        <ele>977.9</ele>
        <time>2026-05-23T09:10:54Z</time>
      </trkpt>
      <trkpt lat="43.42324" lon="2.52805">
        <ele>977.8</ele>
        <time>2026-05-23T09:10:59Z</time>
      </trkpt>
      <trkpt lat="43.42325" lon="2.52797">
        <ele>977.9</ele>
        <time>2026-05-23T09:11:04Z</time>
      </trkpt>
      <trkpt lat="43.42327" lon="2.52787">
        <ele>978.2</ele>
        <time>2026-05-23T09:11:09Z</time>
      </trkpt>
      <trkpt lat="43.42329" lon="2.52778">
        <ele>978.5</ele>
        <time>2026-05-23T09:11:14Z</time>
      </trkpt>
      <trkpt lat="43.42333" lon="2.5277">
        <ele>979.6</ele>
        <time>2026-05-23T09:11:19Z</time>
      </trkpt>
      <trkpt lat="43.42335" lon="2.52769">
        <ele>979.9</ele>
        <time>2026-05-23T09:11:24Z</time>
      </trkpt>
      <trkpt lat="43.42337" lon="2.52769">
        <ele>980.1</ele>
        <time>2026-05-23T09:11:29Z</time>
      </trkpt>
      <trkpt lat="43.42337" lon="2.52769">
        <ele>980.1</ele>
        <time>2026-05-23T09:11:34Z</time>
      </trkpt>
      <trkpt lat="43.42337" lon="2.52769">
        <ele>980.1</ele>
        <time>2026-05-23T09:11:39Z</time>
      </trkpt>
      <trkpt lat="43.42337" lon="2.52769">
        <ele>980.1</ele>
        <time>2026-05-23T09:11:44Z</time>
      </trkpt>
      <trkpt lat="43.42337" lon="2.52769">
        <ele>980.1</ele>
        <time>2026-05-23T09:11:49Z</time>
      </trkpt>
      <trkpt lat="43.42337" lon="2.52769">
        <ele>980.1</ele>
        <time>2026-05-23T09:11:54Z</time>
      </trkpt>
      <trkpt lat="43.42337" lon="2.52769">
        <ele>980.1</ele>
        <time>2026-05-23T09:11:59Z</time>
      </trkpt>
      <trkpt lat="43.42337" lon="2.52769">
        <ele>980.1</ele>
        <time>2026-05-23T09:12:04Z</time>
      </trkpt>
      <trkpt lat="43.42337" lon="2.52769">
        <ele>980.1</ele>
        <time>2026-05-23T09:12:09Z</time>
      </trkpt>
      <trkpt lat="43.42337" lon="2.52769">
        <ele>980.1</ele>
        <time>2026-05-23T09:12:14Z</time>
      </trkpt>
      <trkpt lat="43.42337" lon="2.52769">
        <ele>980.1</ele>
        <time>2026-05-23T09:12:19Z</time>
      </trkpt>
      <trkpt lat="43.42337" lon="2.52769">
        <ele>980.1</ele>
        <time>2026-05-23T09:12:24Z</time>
      </trkpt>
      <trkpt lat="43.42337" lon="2.52769">
        <ele>980.1</ele>
        <time>2026-05-23T09:12:29Z</time>
      </trkpt>
      <trkpt lat="43.42337" lon="2.52769">
        <ele>980.1</ele>
        <time>2026-05-23T09:12:34Z</time>
      </trkpt>
      <trkpt lat="43.42337" lon="2.52769">
        <ele>980.1</ele>
        <time>2026-05-23T09:12:39Z</time>
      </trkpt>
      <trkpt lat="43.42337" lon="2.52769">
        <ele>980.1</ele>
        <time>2026-05-23T09:12:44Z</time>
      </trkpt>
      <trkpt lat="43.42337" lon="2.52769">
        <ele>980.1</ele>
        <time>2026-05-23T09:12:49Z</time>
      </trkpt>
      <trkpt lat="43.42337" lon="2.52769">
        <ele>980.1</ele>
        <time>2026-05-23T09:12:54Z</time>
      </trkpt>
      <trkpt lat="43.42337" lon="2.52769">
        <ele>980.1</ele>
        <time>2026-05-23T09:12:59Z</time>
      </trkpt>
      <trkpt lat="43.42337" lon="2.52769">
        <ele>980.1</ele>
        <time>2026-05-23T09:13:04Z</time>
      </trkpt>
      <trkpt lat="43.42337" lon="2.52769">
        <ele>980.1</ele>
        <time>2026-05-23T09:13:09Z</time>
      </trkpt>
      <trkpt lat="43.42333" lon="2.52772">
        <ele>979.7</ele>
        <time>2026-05-23T09:13:14Z</time>
      </trkpt>
      <trkpt lat="43.42332" lon="2.52771">
        <ele>979.3</ele>
        <time>2026-05-23T09:13:19Z</time>
      </trkpt>
      <trkpt lat="43.42332" lon="2.52771">
        <ele>979.3</ele>
        <time>2026-05-23T09:13:24Z</time>
      </trkpt>
      <trkpt lat="43.42332" lon="2.52771">
        <ele>979.3</ele>
        <time>2026-05-23T09:13:29Z</time>
      </trkpt>
      <trkpt lat="43.42332" lon="2.52771">
        <ele>979.3</ele>
        <time>2026-05-23T09:13:34Z</time>
      </trkpt>
      <trkpt lat="43.42332" lon="2.52771">
        <ele>979.3</ele>
        <time>2026-05-23T09:13:39Z</time>
      </trkpt>
      <trkpt lat="43.42332" lon="2.52771">
        <ele>979.3</ele>
        <time>2026-05-23T09:13:44Z</time>
      </trkpt>
      <trkpt lat="43.42332" lon="2.52771">
        <ele>979.3</ele>
        <time>2026-05-23T09:13:49Z</time>
      </trkpt>
      <trkpt lat="43.42332" lon="2.52771">
        <ele>979.3</ele>
        <time>2026-05-23T09:13:54Z</time>
      </trkpt>
      <trkpt lat="43.42332" lon="2.52771">
        <ele>979.3</ele>
        <time>2026-05-23T09:13:59Z</time>
      </trkpt>
      <trkpt lat="43.42332" lon="2.52771">
        <ele>979.3</ele>
        <time>2026-05-23T09:14:04Z</time>
      </trkpt>
      <trkpt lat="43.42332" lon="2.52771">
        <ele>979.3</ele>
        <time>2026-05-23T09:14:09Z</time>
      </trkpt>
      <trkpt lat="43.42332" lon="2.52771">
        <ele>979.3</ele>
        <time>2026-05-23T09:14:14Z</time>
      </trkpt>
      <trkpt lat="43.42332" lon="2.52761">
        <ele>978.9</ele>
        <time>2026-05-23T09:14:19Z</time>
      </trkpt>
      <trkpt lat="43.42334" lon="2.52753">
        <ele>979.2</ele>
        <time>2026-05-23T09:14:24Z</time>
      </trkpt>
      <trkpt lat="43.42335" lon="2.52744">
        <ele>979</ele>
        <time>2026-05-23T09:14:29Z</time>
      </trkpt>
      <trkpt lat="43.42337" lon="2.52734">
        <ele>978.9</ele>
        <time>2026-05-23T09:14:34Z</time>
      </trkpt>
      <trkpt lat="43.42338" lon="2.52725">
        <ele>978.7</ele>
        <time>2026-05-23T09:14:39Z</time>
      </trkpt>
      <trkpt lat="43.42338" lon="2.52714">
        <ele>978.3</ele>
        <time>2026-05-23T09:14:44Z</time>
      </trkpt>
      <trkpt lat="43.42339" lon="2.52704">
        <ele>978.1</ele>
        <time>2026-05-23T09:14:49Z</time>
      </trkpt>
      <trkpt lat="43.4234" lon="2.52695">
        <ele>978</ele>
        <time>2026-05-23T09:14:54Z</time>
      </trkpt>
      <trkpt lat="43.4234" lon="2.52687">
        <ele>977.8</ele>
        <time>2026-05-23T09:14:59Z</time>
      </trkpt>
      <trkpt lat="43.42341" lon="2.52678">
        <ele>977.6</ele>
        <time>2026-05-23T09:15:04Z</time>
      </trkpt>
      <trkpt lat="43.42342" lon="2.52668">
        <ele>977.5</ele>
        <time>2026-05-23T09:15:09Z</time>
      </trkpt>
      <trkpt lat="43.42345" lon="2.52659">
        <ele>977.8</ele>
        <time>2026-05-23T09:15:14Z</time>
      </trkpt>
      <trkpt lat="43.42348" lon="2.52651">
        <ele>978.2</ele>
        <time>2026-05-23T09:15:19Z</time>
      </trkpt>
      <trkpt lat="43.42349" lon="2.52643">
        <ele>978.3</ele>
        <time>2026-05-23T09:15:24Z</time>
      </trkpt>
      <trkpt lat="43.4235" lon="2.52634">
        <ele>978.3</ele>
        <time>2026-05-23T09:15:29Z</time>
      </trkpt>
      <trkpt lat="43.4235" lon="2.52626">
        <ele>978.2</ele>
        <time>2026-05-23T09:15:34Z</time>
      </trkpt>
      <trkpt lat="43.42351" lon="2.52617">
        <ele>978.3</ele>
        <time>2026-05-23T09:15:39Z</time>
      </trkpt>
      <trkpt lat="43.42352" lon="2.52611">
        <ele>978.4</ele>
        <time>2026-05-23T09:15:44Z</time>
      </trkpt>
      <trkpt lat="43.42352" lon="2.52603">
        <ele>978.3</ele>
        <time>2026-05-23T09:15:49Z</time>
      </trkpt>
      <trkpt lat="43.42351" lon="2.52596">
        <ele>978</ele>
        <time>2026-05-23T09:15:54Z</time>
      </trkpt>
      <trkpt lat="43.42352" lon="2.52585">
        <ele>978.1</ele>
        <time>2026-05-23T09:15:59Z</time>
      </trkpt>
      <trkpt lat="43.42353" lon="2.52575">
        <ele>978.3</ele>
        <time>2026-05-23T09:16:04Z</time>
      </trkpt>
      <trkpt lat="43.42353" lon="2.52565">
        <ele>978.4</ele>
        <time>2026-05-23T09:16:09Z</time>
      </trkpt>
      <trkpt lat="43.42354" lon="2.52556">
        <ele>978.6</ele>
        <time>2026-05-23T09:16:14Z</time>
      </trkpt>
      <trkpt lat="43.42354" lon="2.52546">
        <ele>978.7</ele>
        <time>2026-05-23T09:16:19Z</time>
      </trkpt>
      <trkpt lat="43.42354" lon="2.52536">
        <ele>978.8</ele>
        <time>2026-05-23T09:16:24Z</time>
      </trkpt>
      <trkpt lat="43.42354" lon="2.52528">
        <ele>978.8</ele>
        <time>2026-05-23T09:16:29Z</time>
      </trkpt>
      <trkpt lat="43.42354" lon="2.52519">
        <ele>978.9</ele>
        <time>2026-05-23T09:16:34Z</time>
      </trkpt>
      <trkpt lat="43.42355" lon="2.52511">
        <ele>979.1</ele>
        <time>2026-05-23T09:16:39Z</time>
      </trkpt>
      <trkpt lat="43.42356" lon="2.52502">
        <ele>979.3</ele>
        <time>2026-05-23T09:16:44Z</time>
      </trkpt>
      <trkpt lat="43.42356" lon="2.52494">
        <ele>979.5</ele>
        <time>2026-05-23T09:16:49Z</time>
      </trkpt>
      <trkpt lat="43.42357" lon="2.52486">
        <ele>979.9</ele>
        <time>2026-05-23T09:16:54Z</time>
      </trkpt>
      <trkpt lat="43.42357" lon="2.52478">
        <ele>980.1</ele>
        <time>2026-05-23T09:16:59Z</time>
      </trkpt>
      <trkpt lat="43.42358" lon="2.52469">
        <ele>980.5</ele>
        <time>2026-05-23T09:17:04Z</time>
      </trkpt>
      <trkpt lat="43.42357" lon="2.5246">
        <ele>980.6</ele>
        <time>2026-05-23T09:17:09Z</time>
      </trkpt>
      <trkpt lat="43.42358" lon="2.52451">
        <ele>981</ele>
        <time>2026-05-23T09:17:14Z</time>
      </trkpt>
      <trkpt lat="43.42357" lon="2.52442">
        <ele>981</ele>
        <time>2026-05-23T09:17:19Z</time>
      </trkpt>
      <trkpt lat="43.42355" lon="2.52432">
        <ele>981</ele>
        <time>2026-05-23T09:17:24Z</time>
      </trkpt>
      <trkpt lat="43.42354" lon="2.52423">
        <ele>981.1</ele>
        <time>2026-05-23T09:17:29Z</time>
      </trkpt>
      <trkpt lat="43.42353" lon="2.52414">
        <ele>981.4</ele>
        <time>2026-05-23T09:17:34Z</time>
      </trkpt>
      <trkpt lat="43.42353" lon="2.52403">
        <ele>982.8</ele>
        <time>2026-05-23T09:17:39Z</time>
      </trkpt>
      <trkpt lat="43.42353" lon="2.52394">
        <ele>983.9</ele>
        <time>2026-05-23T09:17:44Z</time>
      </trkpt>
      <trkpt lat="43.42352" lon="2.52384">
        <ele>985.1</ele>
        <time>2026-05-23T09:17:49Z</time>
      </trkpt>
      <trkpt lat="43.42352" lon="2.52375">
        <ele>986.2</ele>
        <time>2026-05-23T09:17:54Z</time>
      </trkpt>
      <trkpt lat="43.4235" lon="2.52368">
        <ele>986.9</ele>
        <time>2026-05-23T09:17:59Z</time>
      </trkpt>
      <trkpt lat="43.42348" lon="2.52362">
        <ele>987.5</ele>
        <time>2026-05-23T09:18:04Z</time>
      </trkpt>
      <trkpt lat="43.4235" lon="2.52353">
        <ele>988.9</ele>
        <time>2026-05-23T09:18:09Z</time>
      </trkpt>
      <trkpt lat="43.42351" lon="2.52344">
        <ele>990.1</ele>
        <time>2026-05-23T09:18:14Z</time>
      </trkpt>
      <trkpt lat="43.42352" lon="2.52336">
        <ele>991.2</ele>
        <time>2026-05-23T09:18:19Z</time>
      </trkpt>
      <trkpt lat="43.42354" lon="2.5233">
        <ele>992.2</ele>
        <time>2026-05-23T09:18:24Z</time>
      </trkpt>
      <trkpt lat="43.42355" lon="2.52327">
        <ele>992.8</ele>
        <time>2026-05-23T09:18:29Z</time>
      </trkpt>
      <trkpt lat="43.42359" lon="2.52321">
        <ele>994</ele>
        <time>2026-05-23T09:18:34Z</time>
      </trkpt>
      <trkpt lat="43.42361" lon="2.52315">
        <ele>995.1</ele>
        <time>2026-05-23T09:18:39Z</time>
      </trkpt>
      <trkpt lat="43.42363" lon="2.5231">
        <ele>996.1</ele>
        <time>2026-05-23T09:18:44Z</time>
      </trkpt>
      <trkpt lat="43.42364" lon="2.52302">
        <ele>997.4</ele>
        <time>2026-05-23T09:18:49Z</time>
      </trkpt>
      <trkpt lat="43.42365" lon="2.52295">
        <ele>998.5</ele>
        <time>2026-05-23T09:18:54Z</time>
      </trkpt>
      <trkpt lat="43.42368" lon="2.52287">
        <ele>1000</ele>
        <time>2026-05-23T09:18:59Z</time>
      </trkpt>
      <trkpt lat="43.4237" lon="2.5228">
        <ele>1001.3</ele>
        <time>2026-05-23T09:19:04Z</time>
      </trkpt>
      <trkpt lat="43.42372" lon="2.52275">
        <ele>1002.3</ele>
        <time>2026-05-23T09:19:09Z</time>
      </trkpt>
      <trkpt lat="43.42374" lon="2.52268">
        <ele>1003.6</ele>
        <time>2026-05-23T09:19:14Z</time>
      </trkpt>
      <trkpt lat="43.42377" lon="2.52261">
        <ele>1005</ele>
        <time>2026-05-23T09:19:19Z</time>
      </trkpt>
      <trkpt lat="43.42381" lon="2.52255">
        <ele>1006.4</ele>
        <time>2026-05-23T09:19:24Z</time>
      </trkpt>
      <trkpt lat="43.42385" lon="2.52249">
        <ele>1007.7</ele>
        <time>2026-05-23T09:19:29Z</time>
      </trkpt>
      <trkpt lat="43.42391" lon="2.52243">
        <ele>1009.3</ele>
        <time>2026-05-23T09:19:34Z</time>
      </trkpt>
      <trkpt lat="43.42395" lon="2.52236">
        <ele>1010.7</ele>
        <time>2026-05-23T09:19:39Z</time>
      </trkpt>
      <trkpt lat="43.42401" lon="2.5223">
        <ele>1012.1</ele>
        <time>2026-05-23T09:19:44Z</time>
      </trkpt>
      <trkpt lat="43.42406" lon="2.52226">
        <ele>1013.2</ele>
        <time>2026-05-23T09:19:49Z</time>
      </trkpt>
      <trkpt lat="43.4241" lon="2.52217">
        <ele>1014.8</ele>
        <time>2026-05-23T09:19:54Z</time>
      </trkpt>
      <trkpt lat="43.42415" lon="2.52213">
        <ele>1015.7</ele>
        <time>2026-05-23T09:19:59Z</time>
      </trkpt>
      <trkpt lat="43.4242" lon="2.52207">
        <ele>1016.3</ele>
        <time>2026-05-23T09:20:04Z</time>
      </trkpt>
      <trkpt lat="43.42425" lon="2.52203">
        <ele>1016.3</ele>
        <time>2026-05-23T09:20:09Z</time>
      </trkpt>
      <trkpt lat="43.4243" lon="2.52196">
        <ele>1016.6</ele>
        <time>2026-05-23T09:20:14Z</time>
      </trkpt>
      <trkpt lat="43.42434" lon="2.52188">
        <ele>1017.3</ele>
        <time>2026-05-23T09:20:19Z</time>
      </trkpt>
      <trkpt lat="43.42441" lon="2.52184">
        <ele>1017</ele>
        <time>2026-05-23T09:20:24Z</time>
      </trkpt>
      <trkpt lat="43.42447" lon="2.52177">
        <ele>1017.3</ele>
        <time>2026-05-23T09:20:29Z</time>
      </trkpt>
      <trkpt lat="43.42453" lon="2.52172">
        <ele>1017.3</ele>
        <time>2026-05-23T09:20:34Z</time>
      </trkpt>
      <trkpt lat="43.42458" lon="2.52166">
        <ele>1017.6</ele>
        <time>2026-05-23T09:20:39Z</time>
      </trkpt>
      <trkpt lat="43.42463" lon="2.52159">
        <ele>1018</ele>
        <time>2026-05-23T09:20:44Z</time>
      </trkpt>
      <trkpt lat="43.42469" lon="2.52155">
        <ele>1017.8</ele>
        <time>2026-05-23T09:20:49Z</time>
      </trkpt>
      <trkpt lat="43.42475" lon="2.5215">
        <ele>1017.8</ele>
        <time>2026-05-23T09:20:54Z</time>
      </trkpt>
      <trkpt lat="43.42479" lon="2.52143">
        <ele>1018.2</ele>
        <time>2026-05-23T09:20:59Z</time>
      </trkpt>
      <trkpt lat="43.42486" lon="2.52137">
        <ele>1018.1</ele>
        <time>2026-05-23T09:21:04Z</time>
      </trkpt>
      <trkpt lat="43.42493" lon="2.52132">
        <ele>1018</ele>
        <time>2026-05-23T09:21:09Z</time>
      </trkpt>
      <trkpt lat="43.42498" lon="2.52128">
        <ele>1017.9</ele>
        <time>2026-05-23T09:21:14Z</time>
      </trkpt>
      <trkpt lat="43.42504" lon="2.5212">
        <ele>1018.1</ele>
        <time>2026-05-23T09:21:19Z</time>
      </trkpt>
      <trkpt lat="43.42509" lon="2.52115">
        <ele>1018</ele>
        <time>2026-05-23T09:21:24Z</time>
      </trkpt>
      <trkpt lat="43.42514" lon="2.52109">
        <ele>1018</ele>
        <time>2026-05-23T09:21:29Z</time>
      </trkpt>
      <trkpt lat="43.4252" lon="2.52104">
        <ele>1017.8</ele>
        <time>2026-05-23T09:21:34Z</time>
      </trkpt>
      <trkpt lat="43.42524" lon="2.52098">
        <ele>1018</ele>
        <time>2026-05-23T09:21:39Z</time>
      </trkpt>
      <trkpt lat="43.42528" lon="2.52094">
        <ele>1018</ele>
        <time>2026-05-23T09:21:44Z</time>
      </trkpt>
      <trkpt lat="43.42534" lon="2.52088">
        <ele>1017.9</ele>
        <time>2026-05-23T09:21:49Z</time>
      </trkpt>
      <trkpt lat="43.42542" lon="2.52082">
        <ele>1017.6</ele>
        <time>2026-05-23T09:21:54Z</time>
      </trkpt>
      <trkpt lat="43.42548" lon="2.52078">
        <ele>1017.1</ele>
        <time>2026-05-23T09:21:59Z</time>
      </trkpt>
      <trkpt lat="43.42555" lon="2.52071">
        <ele>1016.8</ele>
        <time>2026-05-23T09:22:04Z</time>
      </trkpt>
      <trkpt lat="43.4256" lon="2.52065">
        <ele>1016.7</ele>
        <time>2026-05-23T09:22:09Z</time>
      </trkpt>
      <trkpt lat="43.42567" lon="2.52057">
        <ele>1016.4</ele>
        <time>2026-05-23T09:22:14Z</time>
      </trkpt>
      <trkpt lat="43.42574" lon="2.52051">
        <ele>1016</ele>
        <time>2026-05-23T09:22:19Z</time>
      </trkpt>
      <trkpt lat="43.42582" lon="2.52044">
        <ele>1015.5</ele>
        <time>2026-05-23T09:22:24Z</time>
      </trkpt>
      <trkpt lat="43.42586" lon="2.52039">
        <ele>1015.5</ele>
        <time>2026-05-23T09:22:29Z</time>
      </trkpt>
      <trkpt lat="43.4259" lon="2.52034">
        <ele>1015.5</ele>
        <time>2026-05-23T09:22:34Z</time>
      </trkpt>
      <trkpt lat="43.42595" lon="2.52027">
        <ele>1015.5</ele>
        <time>2026-05-23T09:22:39Z</time>
      </trkpt>
      <trkpt lat="43.42599" lon="2.5202">
        <ele>1015.6</ele>
        <time>2026-05-23T09:22:44Z</time>
      </trkpt>
      <trkpt lat="43.42604" lon="2.52012">
        <ele>1015.7</ele>
        <time>2026-05-23T09:22:49Z</time>
      </trkpt>
      <trkpt lat="43.42606" lon="2.52004">
        <ele>1016</ele>
        <time>2026-05-23T09:22:54Z</time>
      </trkpt>
      <trkpt lat="43.42609" lon="2.51997">
        <ele>1016</ele>
        <time>2026-05-23T09:22:59Z</time>
      </trkpt>
      <trkpt lat="43.42613" lon="2.51987">
        <ele>1016</ele>
        <time>2026-05-23T09:23:04Z</time>
      </trkpt>
      <trkpt lat="43.42619" lon="2.51979">
        <ele>1015.5</ele>
        <time>2026-05-23T09:23:09Z</time>
      </trkpt>
      <trkpt lat="43.42624" lon="2.51973">
        <ele>1015.1</ele>
        <time>2026-05-23T09:23:14Z</time>
      </trkpt>
      <trkpt lat="43.42628" lon="2.51967">
        <ele>1014.8</ele>
        <time>2026-05-23T09:23:19Z</time>
      </trkpt>
      <trkpt lat="43.42632" lon="2.51959">
        <ele>1014.6</ele>
        <time>2026-05-23T09:23:24Z</time>
      </trkpt>
      <trkpt lat="43.42636" lon="2.5195">
        <ele>1014.3</ele>
        <time>2026-05-23T09:23:29Z</time>
      </trkpt>
      <trkpt lat="43.4264" lon="2.51942">
        <ele>1014</ele>
        <time>2026-05-23T09:23:34Z</time>
      </trkpt>
      <trkpt lat="43.42643" lon="2.51934">
        <ele>1013.9</ele>
        <time>2026-05-23T09:23:39Z</time>
      </trkpt>
      <trkpt lat="43.42646" lon="2.51925">
        <ele>1013.7</ele>
        <time>2026-05-23T09:23:44Z</time>
      </trkpt>
      <trkpt lat="43.4265" lon="2.51915">
        <ele>1013.4</ele>
        <time>2026-05-23T09:23:49Z</time>
      </trkpt>
      <trkpt lat="43.42653" lon="2.51907">
        <ele>1012.8</ele>
        <time>2026-05-23T09:23:54Z</time>
      </trkpt>
      <trkpt lat="43.42656" lon="2.51896">
        <ele>1012.3</ele>
        <time>2026-05-23T09:23:59Z</time>
      </trkpt>
      <trkpt lat="43.42658" lon="2.51887">
        <ele>1011.9</ele>
        <time>2026-05-23T09:24:04Z</time>
      </trkpt>
      <trkpt lat="43.42661" lon="2.51878">
        <ele>1011.3</ele>
        <time>2026-05-23T09:24:09Z</time>
      </trkpt>
      <trkpt lat="43.42663" lon="2.5187">
        <ele>1010.9</ele>
        <time>2026-05-23T09:24:14Z</time>
      </trkpt>
      <trkpt lat="43.42665" lon="2.51861">
        <ele>1010.6</ele>
        <time>2026-05-23T09:24:19Z</time>
      </trkpt>
      <trkpt lat="43.42669" lon="2.51852">
        <ele>1010</ele>
        <time>2026-05-23T09:24:24Z</time>
      </trkpt>
      <trkpt lat="43.42672" lon="2.51842">
        <ele>1009.7</ele>
        <time>2026-05-23T09:24:29Z</time>
      </trkpt>
      <trkpt lat="43.42673" lon="2.51832">
        <ele>1009.4</ele>
        <time>2026-05-23T09:24:34Z</time>
      </trkpt>
      <trkpt lat="43.42675" lon="2.51825">
        <ele>1008.7</ele>
        <time>2026-05-23T09:24:39Z</time>
      </trkpt>
      <trkpt lat="43.42676" lon="2.51815">
        <ele>1007.9</ele>
        <time>2026-05-23T09:24:44Z</time>
      </trkpt>
      <trkpt lat="43.42675" lon="2.51806">
        <ele>1007.4</ele>
        <time>2026-05-23T09:24:49Z</time>
      </trkpt>
      <trkpt lat="43.42676" lon="2.51796">
        <ele>1006.6</ele>
        <time>2026-05-23T09:24:54Z</time>
      </trkpt>
      <trkpt lat="43.42677" lon="2.51786">
        <ele>1005.9</ele>
        <time>2026-05-23T09:24:59Z</time>
      </trkpt>
      <trkpt lat="43.42677" lon="2.51774">
        <ele>1005</ele>
        <time>2026-05-23T09:25:04Z</time>
      </trkpt>
      <trkpt lat="43.42677" lon="2.51764">
        <ele>1004.3</ele>
        <time>2026-05-23T09:25:09Z</time>
      </trkpt>
      <trkpt lat="43.42679" lon="2.51749">
        <ele>1003.2</ele>
        <time>2026-05-23T09:25:14Z</time>
      </trkpt>
      <trkpt lat="43.4268" lon="2.5174">
        <ele>1002.7</ele>
        <time>2026-05-23T09:25:19Z</time>
      </trkpt>
      <trkpt lat="43.4268" lon="2.51732">
        <ele>1002.3</ele>
        <time>2026-05-23T09:25:24Z</time>
      </trkpt>
      <trkpt lat="43.42682" lon="2.5173">
        <ele>1002.1</ele>
        <time>2026-05-23T09:25:29Z</time>
      </trkpt>
      <trkpt lat="43.42681" lon="2.51725">
        <ele>1001.9</ele>
        <time>2026-05-23T09:25:34Z</time>
      </trkpt>
      <trkpt lat="43.42682" lon="2.51714">
        <ele>1001.3</ele>
        <time>2026-05-23T09:25:39Z</time>
      </trkpt>
      <trkpt lat="43.42683" lon="2.51706">
        <ele>1000.8</ele>
        <time>2026-05-23T09:25:44Z</time>
      </trkpt>
      <trkpt lat="43.42684" lon="2.51699">
        <ele>1000.4</ele>
        <time>2026-05-23T09:25:49Z</time>
      </trkpt>
      <trkpt lat="43.42686" lon="2.51692">
        <ele>999.9</ele>
        <time>2026-05-23T09:25:54Z</time>
      </trkpt>
      <trkpt lat="43.42687" lon="2.51682">
        <ele>999.3</ele>
        <time>2026-05-23T09:25:59Z</time>
      </trkpt>
      <trkpt lat="43.42688" lon="2.51673">
        <ele>998.8</ele>
        <time>2026-05-23T09:26:04Z</time>
      </trkpt>
      <trkpt lat="43.4269" lon="2.51663">
        <ele>998.1</ele>
        <time>2026-05-23T09:26:09Z</time>
      </trkpt>
      <trkpt lat="43.42691" lon="2.51655">
        <ele>997.7</ele>
        <time>2026-05-23T09:26:14Z</time>
      </trkpt>
      <trkpt lat="43.42694" lon="2.51648">
        <ele>997.1</ele>
        <time>2026-05-23T09:26:19Z</time>
      </trkpt>
      <trkpt lat="43.42695" lon="2.51639">
        <ele>996.6</ele>
        <time>2026-05-23T09:26:24Z</time>
      </trkpt>
      <trkpt lat="43.42697" lon="2.5163">
        <ele>996.1</ele>
        <time>2026-05-23T09:26:29Z</time>
      </trkpt>
      <trkpt lat="43.42699" lon="2.5162">
        <ele>995.5</ele>
        <time>2026-05-23T09:26:34Z</time>
      </trkpt>
      <trkpt lat="43.42702" lon="2.51612">
        <ele>995</ele>
        <time>2026-05-23T09:26:39Z</time>
      </trkpt>
      <trkpt lat="43.42703" lon="2.51603">
        <ele>994.6</ele>
        <time>2026-05-23T09:26:44Z</time>
      </trkpt>
      <trkpt lat="43.42704" lon="2.51594">
        <ele>994.1</ele>
        <time>2026-05-23T09:26:49Z</time>
      </trkpt>
      <trkpt lat="43.42707" lon="2.51584">
        <ele>993.6</ele>
        <time>2026-05-23T09:26:54Z</time>
      </trkpt>
      <trkpt lat="43.42707" lon="2.51575">
        <ele>992.8</ele>
        <time>2026-05-23T09:26:59Z</time>
      </trkpt>
      <trkpt lat="43.42707" lon="2.51562">
        <ele>991.6</ele>
        <time>2026-05-23T09:27:04Z</time>
      </trkpt>
      <trkpt lat="43.4271" lon="2.51552">
        <ele>990.6</ele>
        <time>2026-05-23T09:27:09Z</time>
      </trkpt>
      <trkpt lat="43.42713" lon="2.51545">
        <ele>989.9</ele>
        <time>2026-05-23T09:27:14Z</time>
      </trkpt>
      <trkpt lat="43.42717" lon="2.51535">
        <ele>988.9</ele>
        <time>2026-05-23T09:27:19Z</time>
      </trkpt>
      <trkpt lat="43.42721" lon="2.51526">
        <ele>988</ele>
        <time>2026-05-23T09:27:24Z</time>
      </trkpt>
      <trkpt lat="43.42724" lon="2.51519">
        <ele>987.3</ele>
        <time>2026-05-23T09:27:29Z</time>
      </trkpt>
      <trkpt lat="43.42728" lon="2.51514">
        <ele>986.7</ele>
        <time>2026-05-23T09:27:34Z</time>
      </trkpt>
      <trkpt lat="43.42733" lon="2.51506">
        <ele>985.9</ele>
        <time>2026-05-23T09:27:39Z</time>
      </trkpt>
      <trkpt lat="43.42735" lon="2.51495">
        <ele>985.1</ele>
        <time>2026-05-23T09:27:44Z</time>
      </trkpt>
      <trkpt lat="43.42738" lon="2.51488">
        <ele>984.7</ele>
        <time>2026-05-23T09:27:49Z</time>
      </trkpt>
      <trkpt lat="43.42741" lon="2.5148">
        <ele>984.2</ele>
        <time>2026-05-23T09:27:54Z</time>
      </trkpt>
      <trkpt lat="43.42744" lon="2.51473">
        <ele>983.8</ele>
        <time>2026-05-23T09:27:59Z</time>
      </trkpt>
      <trkpt lat="43.42747" lon="2.51464">
        <ele>983.3</ele>
        <time>2026-05-23T09:28:04Z</time>
      </trkpt>
      <trkpt lat="43.42752" lon="2.51454">
        <ele>982.9</ele>
        <time>2026-05-23T09:28:09Z</time>
      </trkpt>
      <trkpt lat="43.42754" lon="2.51446">
        <ele>982.6</ele>
        <time>2026-05-23T09:28:14Z</time>
      </trkpt>
      <trkpt lat="43.42757" lon="2.5144">
        <ele>982.5</ele>
        <time>2026-05-23T09:28:19Z</time>
      </trkpt>
      <trkpt lat="43.42759" lon="2.51431">
        <ele>982.2</ele>
        <time>2026-05-23T09:28:24Z</time>
      </trkpt>
      <trkpt lat="43.42761" lon="2.51422">
        <ele>982</ele>
        <time>2026-05-23T09:28:29Z</time>
      </trkpt>
      <trkpt lat="43.42763" lon="2.51414">
        <ele>981.8</ele>
        <time>2026-05-23T09:28:34Z</time>
      </trkpt>
      <trkpt lat="43.42765" lon="2.51406">
        <ele>981.4</ele>
        <time>2026-05-23T09:28:39Z</time>
      </trkpt>
      <trkpt lat="43.42767" lon="2.51396">
        <ele>980.9</ele>
        <time>2026-05-23T09:28:44Z</time>
      </trkpt>
      <trkpt lat="43.4277" lon="2.51387">
        <ele>980.6</ele>
        <time>2026-05-23T09:28:49Z</time>
      </trkpt>
      <trkpt lat="43.42774" lon="2.51377">
        <ele>980.3</ele>
        <time>2026-05-23T09:28:54Z</time>
      </trkpt>
      <trkpt lat="43.42776" lon="2.51367">
        <ele>979.9</ele>
        <time>2026-05-23T09:28:59Z</time>
      </trkpt>
      <trkpt lat="43.42778" lon="2.51355">
        <ele>979.3</ele>
        <time>2026-05-23T09:29:04Z</time>
      </trkpt>
      <trkpt lat="43.4278" lon="2.51346">
        <ele>979</ele>
        <time>2026-05-23T09:29:09Z</time>
      </trkpt>
      <trkpt lat="43.42782" lon="2.51336">
        <ele>978.6</ele>
        <time>2026-05-23T09:29:14Z</time>
      </trkpt>
      <trkpt lat="43.42783" lon="2.51331">
        <ele>978.3</ele>
        <time>2026-05-23T09:29:19Z</time>
      </trkpt>
      <trkpt lat="43.42783" lon="2.5133">
        <ele>978.2</ele>
        <time>2026-05-23T09:29:24Z</time>
      </trkpt>
      <trkpt lat="43.42785" lon="2.51322">
        <ele>977.6</ele>
        <time>2026-05-23T09:29:29Z</time>
      </trkpt>
      <trkpt lat="43.42788" lon="2.51314">
        <ele>977.1</ele>
        <time>2026-05-23T09:29:34Z</time>
      </trkpt>
      <trkpt lat="43.42793" lon="2.51307">
        <ele>977</ele>
        <time>2026-05-23T09:29:39Z</time>
      </trkpt>
      <trkpt lat="43.42799" lon="2.51296">
        <ele>976.5</ele>
        <time>2026-05-23T09:29:44Z</time>
      </trkpt>
      <trkpt lat="43.428" lon="2.51283">
        <ele>975.3</ele>
        <time>2026-05-23T09:29:49Z</time>
      </trkpt>
      <trkpt lat="43.42802" lon="2.51274">
        <ele>974.7</ele>
        <time>2026-05-23T09:29:54Z</time>
      </trkpt>
      <trkpt lat="43.42803" lon="2.51265">
        <ele>973.9</ele>
        <time>2026-05-23T09:29:59Z</time>
      </trkpt>
      <trkpt lat="43.42802" lon="2.51254">
        <ele>972.6</ele>
        <time>2026-05-23T09:30:04Z</time>
      </trkpt>
      <trkpt lat="43.42807" lon="2.51247">
        <ele>972.6</ele>
        <time>2026-05-23T09:30:09Z</time>
      </trkpt>
      <trkpt lat="43.42807" lon="2.51247">
        <ele>972.6</ele>
        <time>2026-05-23T09:30:14Z</time>
      </trkpt>
      <trkpt lat="43.42807" lon="2.51247">
        <ele>972.6</ele>
        <time>2026-05-23T09:30:19Z</time>
      </trkpt>
      <trkpt lat="43.42807" lon="2.51247">
        <ele>972.6</ele>
        <time>2026-05-23T09:30:24Z</time>
      </trkpt>
      <trkpt lat="43.42807" lon="2.51247">
        <ele>972.6</ele>
        <time>2026-05-23T09:30:29Z</time>
      </trkpt>
      <trkpt lat="43.42807" lon="2.51247">
        <ele>972.6</ele>
        <time>2026-05-23T09:30:34Z</time>
      </trkpt>
      <trkpt lat="43.42807" lon="2.51247">
        <ele>972.6</ele>
        <time>2026-05-23T09:30:39Z</time>
      </trkpt>
      <trkpt lat="43.42807" lon="2.51247">
        <ele>972.6</ele>
        <time>2026-05-23T09:30:44Z</time>
      </trkpt>
      <trkpt lat="43.42807" lon="2.51247">
        <ele>972.6</ele>
        <time>2026-05-23T09:30:49Z</time>
      </trkpt>
      <trkpt lat="43.42802" lon="2.51245">
        <ele>971.8</ele>
        <time>2026-05-23T09:30:54Z</time>
      </trkpt>
      <trkpt lat="43.42803" lon="2.51238">
        <ele>971.4</ele>
        <time>2026-05-23T09:30:59Z</time>
      </trkpt>
      <trkpt lat="43.42806" lon="2.51223">
        <ele>970.6</ele>
        <time>2026-05-23T09:31:04Z</time>
      </trkpt>
      <trkpt lat="43.42807" lon="2.51213">
        <ele>969.9</ele>
        <time>2026-05-23T09:31:09Z</time>
      </trkpt>
      <trkpt lat="43.42809" lon="2.51202">
        <ele>969.2</ele>
        <time>2026-05-23T09:31:14Z</time>
      </trkpt>
      <trkpt lat="43.42812" lon="2.51189">
        <ele>968.5</ele>
        <time>2026-05-23T09:31:19Z</time>
      </trkpt>
      <trkpt lat="43.42814" lon="2.5118">
        <ele>968</ele>
        <time>2026-05-23T09:31:24Z</time>
      </trkpt>
      <trkpt lat="43.42814" lon="2.51171">
        <ele>967.3</ele>
        <time>2026-05-23T09:31:29Z</time>
      </trkpt>
      <trkpt lat="43.42815" lon="2.51162">
        <ele>967.2</ele>
        <time>2026-05-23T09:31:34Z</time>
      </trkpt>
      <trkpt lat="43.42816" lon="2.51154">
        <ele>967.6</ele>
        <time>2026-05-23T09:31:39Z</time>
      </trkpt>
      <trkpt lat="43.42818" lon="2.51146">
        <ele>968.1</ele>
        <time>2026-05-23T09:31:44Z</time>
      </trkpt>
      <trkpt lat="43.4282" lon="2.51136">
        <ele>968.7</ele>
        <time>2026-05-23T09:31:49Z</time>
      </trkpt>
      <trkpt lat="43.42821" lon="2.51127">
        <ele>969.1</ele>
        <time>2026-05-23T09:31:54Z</time>
      </trkpt>
      <trkpt lat="43.42823" lon="2.51118">
        <ele>969.6</ele>
        <time>2026-05-23T09:31:59Z</time>
      </trkpt>
      <trkpt lat="43.42824" lon="2.5111">
        <ele>970</ele>
        <time>2026-05-23T09:32:04Z</time>
      </trkpt>
      <trkpt lat="43.42824" lon="2.51098">
        <ele>970.5</ele>
        <time>2026-05-23T09:32:09Z</time>
      </trkpt>
      <trkpt lat="43.42822" lon="2.51088">
        <ele>970.6</ele>
        <time>2026-05-23T09:32:14Z</time>
      </trkpt>
      <trkpt lat="43.4282" lon="2.5108">
        <ele>970.8</ele>
        <time>2026-05-23T09:32:19Z</time>
      </trkpt>
      <trkpt lat="43.42816" lon="2.51069">
        <ele>971</ele>
        <time>2026-05-23T09:32:24Z</time>
      </trkpt>
      <trkpt lat="43.42812" lon="2.51061">
        <ele>971</ele>
        <time>2026-05-23T09:32:29Z</time>
      </trkpt>
      <trkpt lat="43.42806" lon="2.51056">
        <ele>970.6</ele>
        <time>2026-05-23T09:32:34Z</time>
      </trkpt>
      <trkpt lat="43.42799" lon="2.51053">
        <ele>970</ele>
        <time>2026-05-23T09:32:39Z</time>
      </trkpt>
      <trkpt lat="43.42792" lon="2.5105">
        <ele>969.3</ele>
        <time>2026-05-23T09:32:44Z</time>
      </trkpt>
      <trkpt lat="43.42785" lon="2.51047">
        <ele>968.7</ele>
        <time>2026-05-23T09:32:49Z</time>
      </trkpt>
      <trkpt lat="43.42782" lon="2.51045">
        <ele>968.5</ele>
        <time>2026-05-23T09:32:54Z</time>
      </trkpt>
      <trkpt lat="43.42781" lon="2.51043">
        <ele>968.5</ele>
        <time>2026-05-23T09:32:59Z</time>
      </trkpt>
      <trkpt lat="43.42781" lon="2.51041">
        <ele>968.6</ele>
        <time>2026-05-23T09:33:04Z</time>
      </trkpt>
      <trkpt lat="43.42774" lon="2.51038">
        <ele>967.9</ele>
        <time>2026-05-23T09:33:09Z</time>
      </trkpt>
      <trkpt lat="43.42769" lon="2.51031">
        <ele>967.7</ele>
        <time>2026-05-23T09:33:14Z</time>
      </trkpt>
      <trkpt lat="43.42765" lon="2.51026">
        <ele>967.5</ele>
        <time>2026-05-23T09:33:19Z</time>
      </trkpt>
      <trkpt lat="43.42762" lon="2.51019">
        <ele>967.5</ele>
        <time>2026-05-23T09:33:24Z</time>
      </trkpt>
      <trkpt lat="43.42759" lon="2.5101">
        <ele>967.6</ele>
        <time>2026-05-23T09:33:29Z</time>
      </trkpt>
      <trkpt lat="43.42756" lon="2.51003">
        <ele>967.6</ele>
        <time>2026-05-23T09:33:34Z</time>
      </trkpt>
      <trkpt lat="43.42755" lon="2.51003">
        <ele>967.5</ele>
        <time>2026-05-23T09:33:39Z</time>
      </trkpt>
      <trkpt lat="43.42755" lon="2.51002">
        <ele>967.5</ele>
        <time>2026-05-23T09:33:44Z</time>
      </trkpt>
      <trkpt lat="43.42754" lon="2.50998">
        <ele>967.4</ele>
        <time>2026-05-23T09:33:49Z</time>
      </trkpt>
      <trkpt lat="43.42754" lon="2.50993">
        <ele>967.3</ele>
        <time>2026-05-23T09:33:54Z</time>
      </trkpt>
      <trkpt lat="43.42754" lon="2.50989">
        <ele>967.2</ele>
        <time>2026-05-23T09:33:59Z</time>
      </trkpt>
      <trkpt lat="43.42753" lon="2.50989">
        <ele>967.1</ele>
        <time>2026-05-23T09:34:04Z</time>
      </trkpt>
      <trkpt lat="43.42753" lon="2.50989">
        <ele>967.1</ele>
        <time>2026-05-23T09:34:09Z</time>
      </trkpt>
      <trkpt lat="43.42753" lon="2.50983">
        <ele>966.9</ele>
        <time>2026-05-23T09:34:14Z</time>
      </trkpt>
      <trkpt lat="43.42752" lon="2.50975">
        <ele>966.6</ele>
        <time>2026-05-23T09:34:19Z</time>
      </trkpt>
      <trkpt lat="43.42752" lon="2.50968">
        <ele>966.5</ele>
        <time>2026-05-23T09:34:24Z</time>
      </trkpt>
      <trkpt lat="43.42752" lon="2.50959">
        <ele>966.2</ele>
        <time>2026-05-23T09:34:29Z</time>
      </trkpt>
      <trkpt lat="43.42752" lon="2.5095">
        <ele>966</ele>
        <time>2026-05-23T09:34:34Z</time>
      </trkpt>
      <trkpt lat="43.42753" lon="2.50941">
        <ele>965.9</ele>
        <time>2026-05-23T09:34:39Z</time>
      </trkpt>
      <trkpt lat="43.42756" lon="2.50932">
        <ele>966</ele>
        <time>2026-05-23T09:34:44Z</time>
      </trkpt>
      <trkpt lat="43.4276" lon="2.50924">
        <ele>966.2</ele>
        <time>2026-05-23T09:34:49Z</time>
      </trkpt>
      <trkpt lat="43.42761" lon="2.50915">
        <ele>965.9</ele>
        <time>2026-05-23T09:34:54Z</time>
      </trkpt>
      <trkpt lat="43.42766" lon="2.50905">
        <ele>965.7</ele>
        <time>2026-05-23T09:34:59Z</time>
      </trkpt>
      <trkpt lat="43.42769" lon="2.50896">
        <ele>965.3</ele>
        <time>2026-05-23T09:35:04Z</time>
      </trkpt>
      <trkpt lat="43.42772" lon="2.50886">
        <ele>964.8</ele>
        <time>2026-05-23T09:35:09Z</time>
      </trkpt>
      <trkpt lat="43.42775" lon="2.50877">
        <ele>964.4</ele>
        <time>2026-05-23T09:35:14Z</time>
      </trkpt>
      <trkpt lat="43.42778" lon="2.50868">
        <ele>964</ele>
        <time>2026-05-23T09:35:19Z</time>
      </trkpt>
      <trkpt lat="43.4278" lon="2.5086">
        <ele>963.6</ele>
        <time>2026-05-23T09:35:24Z</time>
      </trkpt>
      <trkpt lat="43.42783" lon="2.50851">
        <ele>963.1</ele>
        <time>2026-05-23T09:35:29Z</time>
      </trkpt>
      <trkpt lat="43.42786" lon="2.50842">
        <ele>962.7</ele>
        <time>2026-05-23T09:35:34Z</time>
      </trkpt>
      <trkpt lat="43.42788" lon="2.50834">
        <ele>962.2</ele>
        <time>2026-05-23T09:35:39Z</time>
      </trkpt>
      <trkpt lat="43.42793" lon="2.50826">
        <ele>962.1</ele>
        <time>2026-05-23T09:35:44Z</time>
      </trkpt>
      <trkpt lat="43.42796" lon="2.50818">
        <ele>961.8</ele>
        <time>2026-05-23T09:35:49Z</time>
      </trkpt>
      <trkpt lat="43.42798" lon="2.50815">
        <ele>961.7</ele>
        <time>2026-05-23T09:35:54Z</time>
      </trkpt>
      <trkpt lat="43.42797" lon="2.50811">
        <ele>961.4</ele>
        <time>2026-05-23T09:35:59Z</time>
      </trkpt>
      <trkpt lat="43.42798" lon="2.50803">
        <ele>960.9</ele>
        <time>2026-05-23T09:36:04Z</time>
      </trkpt>
      <trkpt lat="43.42803" lon="2.50797">
        <ele>961</ele>
        <time>2026-05-23T09:36:09Z</time>
      </trkpt>
      <trkpt lat="43.42806" lon="2.50788">
        <ele>960.6</ele>
        <time>2026-05-23T09:36:14Z</time>
      </trkpt>
      <trkpt lat="43.4281" lon="2.5078">
        <ele>960.5</ele>
        <time>2026-05-23T09:36:19Z</time>
      </trkpt>
      <trkpt lat="43.42813" lon="2.50771">
        <ele>960.2</ele>
        <time>2026-05-23T09:36:24Z</time>
      </trkpt>
      <trkpt lat="43.42816" lon="2.50764">
        <ele>960</ele>
        <time>2026-05-23T09:36:29Z</time>
      </trkpt>
      <trkpt lat="43.42817" lon="2.50755">
        <ele>959.6</ele>
        <time>2026-05-23T09:36:34Z</time>
      </trkpt>
      <trkpt lat="43.42818" lon="2.50744">
        <ele>959.4</ele>
        <time>2026-05-23T09:36:39Z</time>
      </trkpt>
      <trkpt lat="43.42817" lon="2.50732">
        <ele>959.5</ele>
        <time>2026-05-23T09:36:44Z</time>
      </trkpt>
      <trkpt lat="43.42816" lon="2.5072">
        <ele>959.5</ele>
        <time>2026-05-23T09:36:49Z</time>
      </trkpt>
      <trkpt lat="43.42815" lon="2.5071">
        <ele>959.5</ele>
        <time>2026-05-23T09:36:54Z</time>
      </trkpt>
      <trkpt lat="43.42814" lon="2.50701">
        <ele>959.5</ele>
        <time>2026-05-23T09:36:59Z</time>
      </trkpt>
      <trkpt lat="43.42813" lon="2.5069">
        <ele>959.5</ele>
        <time>2026-05-23T09:37:04Z</time>
      </trkpt>
      <trkpt lat="43.42813" lon="2.50679">
        <ele>959.7</ele>
        <time>2026-05-23T09:37:09Z</time>
      </trkpt>
      <trkpt lat="43.42813" lon="2.50671">
        <ele>959.8</ele>
        <time>2026-05-23T09:37:14Z</time>
      </trkpt>
      <trkpt lat="43.42812" lon="2.50663">
        <ele>959.8</ele>
        <time>2026-05-23T09:37:19Z</time>
      </trkpt>
      <trkpt lat="43.42812" lon="2.50662">
        <ele>959.9</ele>
        <time>2026-05-23T09:37:24Z</time>
      </trkpt>
      <trkpt lat="43.42812" lon="2.50662">
        <ele>959.9</ele>
        <time>2026-05-23T09:37:29Z</time>
      </trkpt>
      <trkpt lat="43.42811" lon="2.50659">
        <ele>959.9</ele>
        <time>2026-05-23T09:37:34Z</time>
      </trkpt>
      <trkpt lat="43.42813" lon="2.5065">
        <ele>960.4</ele>
        <time>2026-05-23T09:37:39Z</time>
      </trkpt>
      <trkpt lat="43.42814" lon="2.5064">
        <ele>960.9</ele>
        <time>2026-05-23T09:37:44Z</time>
      </trkpt>
      <trkpt lat="43.42815" lon="2.50632">
        <ele>961.3</ele>
        <time>2026-05-23T09:37:49Z</time>
      </trkpt>
      <trkpt lat="43.42815" lon="2.50622">
        <ele>961.7</ele>
        <time>2026-05-23T09:37:54Z</time>
      </trkpt>
      <trkpt lat="43.42817" lon="2.50612">
        <ele>962.2</ele>
        <time>2026-05-23T09:37:59Z</time>
      </trkpt>
      <trkpt lat="43.42819" lon="2.50604">
        <ele>962.6</ele>
        <time>2026-05-23T09:38:04Z</time>
      </trkpt>
      <trkpt lat="43.4282" lon="2.50594">
        <ele>963</ele>
        <time>2026-05-23T09:38:09Z</time>
      </trkpt>
      <trkpt lat="43.42821" lon="2.50585">
        <ele>963.4</ele>
        <time>2026-05-23T09:38:14Z</time>
      </trkpt>
      <trkpt lat="43.42821" lon="2.50576">
        <ele>963.2</ele>
        <time>2026-05-23T09:38:19Z</time>
      </trkpt>
      <trkpt lat="43.42823" lon="2.50567">
        <ele>963.1</ele>
        <time>2026-05-23T09:38:24Z</time>
      </trkpt>
      <trkpt lat="43.42824" lon="2.50556">
        <ele>962.8</ele>
        <time>2026-05-23T09:38:29Z</time>
      </trkpt>
      <trkpt lat="43.42824" lon="2.50546">
        <ele>962.6</ele>
        <time>2026-05-23T09:38:34Z</time>
      </trkpt>
      <trkpt lat="43.42825" lon="2.50535">
        <ele>962.3</ele>
        <time>2026-05-23T09:38:39Z</time>
      </trkpt>
      <trkpt lat="43.42827" lon="2.50526">
        <ele>962.2</ele>
        <time>2026-05-23T09:38:44Z</time>
      </trkpt>
      <trkpt lat="43.42828" lon="2.50516">
        <ele>962</ele>
        <time>2026-05-23T09:38:49Z</time>
      </trkpt>
      <trkpt lat="43.42829" lon="2.50504">
        <ele>961.8</ele>
        <time>2026-05-23T09:38:54Z</time>
      </trkpt>
      <trkpt lat="43.42829" lon="2.50494">
        <ele>961.8</ele>
        <time>2026-05-23T09:38:59Z</time>
      </trkpt>
      <trkpt lat="43.4283" lon="2.50483">
        <ele>962.1</ele>
        <time>2026-05-23T09:39:04Z</time>
      </trkpt>
      <trkpt lat="43.42833" lon="2.50472">
        <ele>962.6</ele>
        <time>2026-05-23T09:39:09Z</time>
      </trkpt>
      <trkpt lat="43.42832" lon="2.50465">
        <ele>962.7</ele>
        <time>2026-05-23T09:39:14Z</time>
      </trkpt>
      <trkpt lat="43.42828" lon="2.50462">
        <ele>962.4</ele>
        <time>2026-05-23T09:39:19Z</time>
      </trkpt>
      <trkpt lat="43.42828" lon="2.50462">
        <ele>962.4</ele>
        <time>2026-05-23T09:39:24Z</time>
      </trkpt>
      <trkpt lat="43.42828" lon="2.50462">
        <ele>962.4</ele>
        <time>2026-05-23T09:39:29Z</time>
      </trkpt>
      <trkpt lat="43.4283" lon="2.50452">
        <ele>962.8</ele>
        <time>2026-05-23T09:39:34Z</time>
      </trkpt>
      <trkpt lat="43.42832" lon="2.50447">
        <ele>963.1</ele>
        <time>2026-05-23T09:39:39Z</time>
      </trkpt>
      <trkpt lat="43.42834" lon="2.50438">
        <ele>963.5</ele>
        <time>2026-05-23T09:39:44Z</time>
      </trkpt>
      <trkpt lat="43.42836" lon="2.50429">
        <ele>963.8</ele>
        <time>2026-05-23T09:39:49Z</time>
      </trkpt>
      <trkpt lat="43.42838" lon="2.50423">
        <ele>964</ele>
        <time>2026-05-23T09:39:54Z</time>
      </trkpt>
      <trkpt lat="43.42839" lon="2.50414">
        <ele>964.1</ele>
        <time>2026-05-23T09:39:59Z</time>
      </trkpt>
      <trkpt lat="43.4284" lon="2.50404">
        <ele>963.9</ele>
        <time>2026-05-23T09:40:04Z</time>
      </trkpt>
      <trkpt lat="43.42842" lon="2.50394">
        <ele>963.8</ele>
        <time>2026-05-23T09:40:09Z</time>
      </trkpt>
      <trkpt lat="43.42844" lon="2.50384">
        <ele>963.6</ele>
        <time>2026-05-23T09:40:14Z</time>
      </trkpt>
      <trkpt lat="43.42846" lon="2.50373">
        <ele>963.4</ele>
        <time>2026-05-23T09:40:19Z</time>
      </trkpt>
      <trkpt lat="43.42849" lon="2.50364">
        <ele>963.3</ele>
        <time>2026-05-23T09:40:24Z</time>
      </trkpt>
      <trkpt lat="43.42852" lon="2.50356">
        <ele>963.2</ele>
        <time>2026-05-23T09:40:29Z</time>
      </trkpt>
      <trkpt lat="43.42855" lon="2.50347">
        <ele>963.1</ele>
        <time>2026-05-23T09:40:34Z</time>
      </trkpt>
      <trkpt lat="43.42858" lon="2.50341">
        <ele>963.1</ele>
        <time>2026-05-23T09:40:39Z</time>
      </trkpt>
      <trkpt lat="43.42861" lon="2.50333">
        <ele>963</ele>
        <time>2026-05-23T09:40:44Z</time>
      </trkpt>
      <trkpt lat="43.42865" lon="2.50324">
        <ele>962.6</ele>
        <time>2026-05-23T09:40:49Z</time>
      </trkpt>
      <trkpt lat="43.42868" lon="2.50314">
        <ele>962</ele>
        <time>2026-05-23T09:40:54Z</time>
      </trkpt>
      <trkpt lat="43.4287" lon="2.50306">
        <ele>961.6</ele>
        <time>2026-05-23T09:40:59Z</time>
      </trkpt>
      <trkpt lat="43.42875" lon="2.50298">
        <ele>961.4</ele>
        <time>2026-05-23T09:41:04Z</time>
      </trkpt>
      <trkpt lat="43.42879" lon="2.50289">
        <ele>961</ele>
        <time>2026-05-23T09:41:09Z</time>
      </trkpt>
      <trkpt lat="43.42883" lon="2.50281">
        <ele>960.8</ele>
        <time>2026-05-23T09:41:14Z</time>
      </trkpt>
      <trkpt lat="43.42886" lon="2.50273">
        <ele>960.5</ele>
        <time>2026-05-23T09:41:19Z</time>
      </trkpt>
      <trkpt lat="43.42891" lon="2.50265">
        <ele>960.3</ele>
        <time>2026-05-23T09:41:24Z</time>
      </trkpt>
      <trkpt lat="43.42895" lon="2.50257">
        <ele>960.1</ele>
        <time>2026-05-23T09:41:29Z</time>
      </trkpt>
      <trkpt lat="43.42899" lon="2.50251">
        <ele>960</ele>
        <time>2026-05-23T09:41:34Z</time>
      </trkpt>
      <trkpt lat="43.42905" lon="2.50244">
        <ele>959.6</ele>
        <time>2026-05-23T09:41:39Z</time>
      </trkpt>
      <trkpt lat="43.42909" lon="2.50241">
        <ele>959.5</ele>
        <time>2026-05-23T09:41:44Z</time>
      </trkpt>
      <trkpt lat="43.4291" lon="2.50236">
        <ele>959.1</ele>
        <time>2026-05-23T09:41:49Z</time>
      </trkpt>
      <trkpt lat="43.42915" lon="2.50232">
        <ele>958.9</ele>
        <time>2026-05-23T09:41:54Z</time>
      </trkpt>
      <trkpt lat="43.42919" lon="2.50223">
        <ele>958.2</ele>
        <time>2026-05-23T09:41:59Z</time>
      </trkpt>
      <trkpt lat="43.42922" lon="2.50216">
        <ele>957.5</ele>
        <time>2026-05-23T09:42:04Z</time>
      </trkpt>
      <trkpt lat="43.42927" lon="2.5021">
        <ele>957.2</ele>
        <time>2026-05-23T09:42:09Z</time>
      </trkpt>
      <trkpt lat="43.4293" lon="2.50203">
        <ele>956.6</ele>
        <time>2026-05-23T09:42:14Z</time>
      </trkpt>
      <trkpt lat="43.42933" lon="2.50194">
        <ele>955.9</ele>
        <time>2026-05-23T09:42:19Z</time>
      </trkpt>
      <trkpt lat="43.42936" lon="2.50187">
        <ele>955.5</ele>
        <time>2026-05-23T09:42:24Z</time>
      </trkpt>
      <trkpt lat="43.42941" lon="2.50179">
        <ele>955.1</ele>
        <time>2026-05-23T09:42:29Z</time>
      </trkpt>
      <trkpt lat="43.42946" lon="2.50172">
        <ele>954.9</ele>
        <time>2026-05-23T09:42:34Z</time>
      </trkpt>
      <trkpt lat="43.42952" lon="2.50165">
        <ele>954.9</ele>
        <time>2026-05-23T09:42:39Z</time>
      </trkpt>
      <trkpt lat="43.42956" lon="2.50157">
        <ele>954.7</ele>
        <time>2026-05-23T09:42:44Z</time>
      </trkpt>
      <trkpt lat="43.42962" lon="2.50151">
        <ele>954.8</ele>
        <time>2026-05-23T09:42:49Z</time>
      </trkpt>
      <trkpt lat="43.42966" lon="2.50145">
        <ele>954.8</ele>
        <time>2026-05-23T09:42:54Z</time>
      </trkpt>
      <trkpt lat="43.42972" lon="2.50139">
        <ele>955</ele>
        <time>2026-05-23T09:42:59Z</time>
      </trkpt>
      <trkpt lat="43.42977" lon="2.50132">
        <ele>955.1</ele>
        <time>2026-05-23T09:43:04Z</time>
      </trkpt>
      <trkpt lat="43.42981" lon="2.50124">
        <ele>955</ele>
        <time>2026-05-23T09:43:09Z</time>
      </trkpt>
      <trkpt lat="43.42985" lon="2.50116">
        <ele>955</ele>
        <time>2026-05-23T09:43:14Z</time>
      </trkpt>
      <trkpt lat="43.4299" lon="2.5011">
        <ele>955.2</ele>
        <time>2026-05-23T09:43:19Z</time>
      </trkpt>
      <trkpt lat="43.42994" lon="2.50102">
        <ele>955.2</ele>
        <time>2026-05-23T09:43:24Z</time>
      </trkpt>
      <trkpt lat="43.42998" lon="2.50094">
        <ele>955.3</ele>
        <time>2026-05-23T09:43:29Z</time>
      </trkpt>
      <trkpt lat="43.43004" lon="2.50087">
        <ele>955.5</ele>
        <time>2026-05-23T09:43:34Z</time>
      </trkpt>
      <trkpt lat="43.43009" lon="2.50079">
        <ele>955.5</ele>
        <time>2026-05-23T09:43:39Z</time>
      </trkpt>
      <trkpt lat="43.43014" lon="2.50071">
        <ele>955.5</ele>
        <time>2026-05-23T09:43:44Z</time>
      </trkpt>
      <trkpt lat="43.43018" lon="2.50063">
        <ele>955.4</ele>
        <time>2026-05-23T09:43:49Z</time>
      </trkpt>
      <trkpt lat="43.43022" lon="2.50056">
        <ele>955.4</ele>
        <time>2026-05-23T09:43:54Z</time>
      </trkpt>
      <trkpt lat="43.43027" lon="2.50048">
        <ele>955.4</ele>
        <time>2026-05-23T09:43:59Z</time>
      </trkpt>
      <trkpt lat="43.43031" lon="2.50039">
        <ele>955.3</ele>
        <time>2026-05-23T09:44:04Z</time>
      </trkpt>
      <trkpt lat="43.43036" lon="2.50032">
        <ele>955.5</ele>
        <time>2026-05-23T09:44:09Z</time>
      </trkpt>
      <trkpt lat="43.4304" lon="2.50025">
        <ele>955.5</ele>
        <time>2026-05-23T09:44:14Z</time>
      </trkpt>
      <trkpt lat="43.43044" lon="2.50017">
        <ele>955.6</ele>
        <time>2026-05-23T09:44:19Z</time>
      </trkpt>
      <trkpt lat="43.43049" lon="2.50008">
        <ele>955.7</ele>
        <time>2026-05-23T09:44:24Z</time>
      </trkpt>
      <trkpt lat="43.43053" lon="2.5">
        <ele>955.7</ele>
        <time>2026-05-23T09:44:29Z</time>
      </trkpt>
      <trkpt lat="43.43057" lon="2.49992">
        <ele>955.5</ele>
        <time>2026-05-23T09:44:34Z</time>
      </trkpt>
      <trkpt lat="43.43062" lon="2.49985">
        <ele>955.5</ele>
        <time>2026-05-23T09:44:39Z</time>
      </trkpt>
      <trkpt lat="43.43068" lon="2.49977">
        <ele>955.6</ele>
        <time>2026-05-23T09:44:44Z</time>
      </trkpt>
      <trkpt lat="43.43072" lon="2.4997">
        <ele>955.5</ele>
        <time>2026-05-23T09:44:49Z</time>
      </trkpt>
      <trkpt lat="43.43076" lon="2.49962">
        <ele>955.4</ele>
        <time>2026-05-23T09:44:54Z</time>
      </trkpt>
      <trkpt lat="43.43081" lon="2.49955">
        <ele>955.5</ele>
        <time>2026-05-23T09:44:59Z</time>
      </trkpt>
      <trkpt lat="43.43085" lon="2.49948">
        <ele>955.4</ele>
        <time>2026-05-23T09:45:04Z</time>
      </trkpt>
      <trkpt lat="43.4309" lon="2.4994">
        <ele>955.3</ele>
        <time>2026-05-23T09:45:09Z</time>
      </trkpt>
      <trkpt lat="43.43094" lon="2.49934">
        <ele>955.2</ele>
        <time>2026-05-23T09:45:14Z</time>
      </trkpt>
      <trkpt lat="43.43098" lon="2.49927">
        <ele>955.2</ele>
        <time>2026-05-23T09:45:19Z</time>
      </trkpt>
      <trkpt lat="43.43102" lon="2.49919">
        <ele>955.1</ele>
        <time>2026-05-23T09:45:24Z</time>
      </trkpt>
      <trkpt lat="43.43106" lon="2.49911">
        <ele>955.2</ele>
        <time>2026-05-23T09:45:29Z</time>
      </trkpt>
      <trkpt lat="43.4311" lon="2.49904">
        <ele>955.3</ele>
        <time>2026-05-23T09:45:34Z</time>
      </trkpt>
      <trkpt lat="43.43113" lon="2.49897">
        <ele>955.4</ele>
        <time>2026-05-23T09:45:39Z</time>
      </trkpt>
      <trkpt lat="43.43116" lon="2.49889">
        <ele>955.4</ele>
        <time>2026-05-23T09:45:44Z</time>
      </trkpt>
      <trkpt lat="43.43119" lon="2.49881">
        <ele>955.4</ele>
        <time>2026-05-23T09:45:49Z</time>
      </trkpt>
      <trkpt lat="43.43123" lon="2.49875">
        <ele>955.7</ele>
        <time>2026-05-23T09:45:54Z</time>
      </trkpt>
      <trkpt lat="43.43125" lon="2.49871">
        <ele>955.9</ele>
        <time>2026-05-23T09:45:59Z</time>
      </trkpt>
      <trkpt lat="43.43129" lon="2.49869">
        <ele>956.3</ele>
        <time>2026-05-23T09:46:04Z</time>
      </trkpt>
      <trkpt lat="43.4313" lon="2.49866">
        <ele>956.4</ele>
        <time>2026-05-23T09:46:09Z</time>
      </trkpt>
      <trkpt lat="43.4313" lon="2.49864">
        <ele>956.3</ele>
        <time>2026-05-23T09:46:14Z</time>
      </trkpt>
      <trkpt lat="43.4313" lon="2.49864">
        <ele>956.3</ele>
        <time>2026-05-23T09:46:19Z</time>
      </trkpt>
      <trkpt lat="43.4313" lon="2.49864">
        <ele>956.3</ele>
        <time>2026-05-23T09:46:24Z</time>
      </trkpt>
      <trkpt lat="43.4313" lon="2.49864">
        <ele>956.3</ele>
        <time>2026-05-23T09:46:29Z</time>
      </trkpt>
      <trkpt lat="43.4313" lon="2.49864">
        <ele>956.3</ele>
        <time>2026-05-23T09:46:34Z</time>
      </trkpt>
      <trkpt lat="43.4313" lon="2.49864">
        <ele>956.3</ele>
        <time>2026-05-23T09:46:39Z</time>
      </trkpt>
      <trkpt lat="43.4313" lon="2.49864">
        <ele>956.3</ele>
        <time>2026-05-23T09:46:44Z</time>
      </trkpt>
      <trkpt lat="43.4313" lon="2.49864">
        <ele>956.3</ele>
        <time>2026-05-23T09:46:49Z</time>
      </trkpt>
      <trkpt lat="43.4313" lon="2.49864">
        <ele>956.3</ele>
        <time>2026-05-23T09:46:54Z</time>
      </trkpt>
      <trkpt lat="43.4313" lon="2.49864">
        <ele>956.3</ele>
        <time>2026-05-23T09:46:59Z</time>
      </trkpt>
      <trkpt lat="43.4313" lon="2.49864">
        <ele>956.3</ele>
        <time>2026-05-23T09:47:04Z</time>
      </trkpt>
      <trkpt lat="43.4313" lon="2.49864">
        <ele>956.3</ele>
        <time>2026-05-23T09:47:09Z</time>
      </trkpt>
      <trkpt lat="43.4313" lon="2.49864">
        <ele>956.3</ele>
        <time>2026-05-23T09:47:14Z</time>
      </trkpt>
      <trkpt lat="43.4313" lon="2.49864">
        <ele>956.3</ele>
        <time>2026-05-23T09:47:19Z</time>
      </trkpt>
      <trkpt lat="43.4313" lon="2.49864">
        <ele>956.3</ele>
        <time>2026-05-23T09:47:24Z</time>
      </trkpt>
      <trkpt lat="43.4313" lon="2.49864">
        <ele>956.3</ele>
        <time>2026-05-23T09:47:29Z</time>
      </trkpt>
      <trkpt lat="43.4313" lon="2.49864">
        <ele>956.3</ele>
        <time>2026-05-23T09:47:34Z</time>
      </trkpt>
      <trkpt lat="43.4313" lon="2.49864">
        <ele>956.3</ele>
        <time>2026-05-23T09:47:39Z</time>
      </trkpt>
      <trkpt lat="43.4313" lon="2.49864">
        <ele>956.3</ele>
        <time>2026-05-23T09:47:44Z</time>
      </trkpt>
      <trkpt lat="43.4313" lon="2.49864">
        <ele>956.3</ele>
        <time>2026-05-23T09:47:49Z</time>
      </trkpt>
      <trkpt lat="43.4313" lon="2.49864">
        <ele>956.3</ele>
        <time>2026-05-23T09:47:54Z</time>
      </trkpt>
      <trkpt lat="43.4313" lon="2.49864">
        <ele>956.3</ele>
        <time>2026-05-23T09:47:59Z</time>
      </trkpt>
      <trkpt lat="43.4313" lon="2.49864">
        <ele>956.3</ele>
        <time>2026-05-23T09:48:04Z</time>
      </trkpt>
      <trkpt lat="43.4313" lon="2.49864">
        <ele>956.3</ele>
        <time>2026-05-23T09:48:09Z</time>
      </trkpt>
      <trkpt lat="43.4313" lon="2.49864">
        <ele>956.3</ele>
        <time>2026-05-23T09:48:14Z</time>
      </trkpt>
      <trkpt lat="43.4313" lon="2.49864">
        <ele>956.3</ele>
        <time>2026-05-23T09:48:19Z</time>
      </trkpt>
      <trkpt lat="43.4313" lon="2.49864">
        <ele>956.3</ele>
        <time>2026-05-23T09:48:24Z</time>
      </trkpt>
      <trkpt lat="43.4313" lon="2.49864">
        <ele>956.3</ele>
        <time>2026-05-23T09:48:29Z</time>
      </trkpt>
      <trkpt lat="43.4313" lon="2.49864">
        <ele>956.3</ele>
        <time>2026-05-23T09:48:34Z</time>
      </trkpt>
      <trkpt lat="43.4313" lon="2.49864">
        <ele>956.3</ele>
        <time>2026-05-23T09:48:39Z</time>
      </trkpt>
      <trkpt lat="43.4313" lon="2.49864">
        <ele>956.3</ele>
        <time>2026-05-23T09:48:44Z</time>
      </trkpt>
      <trkpt lat="43.4313" lon="2.49864">
        <ele>956.3</ele>
        <time>2026-05-23T09:48:49Z</time>
      </trkpt>
      <trkpt lat="43.4313" lon="2.49864">
        <ele>956.3</ele>
        <time>2026-05-23T09:48:54Z</time>
      </trkpt>
      <trkpt lat="43.4313" lon="2.49864">
        <ele>956.3</ele>
        <time>2026-05-23T09:48:59Z</time>
      </trkpt>
      <trkpt lat="43.4313" lon="2.49864">
        <ele>956.3</ele>
        <time>2026-05-23T09:49:04Z</time>
      </trkpt>
      <trkpt lat="43.4313" lon="2.49864">
        <ele>956.3</ele>
        <time>2026-05-23T09:49:09Z</time>
      </trkpt>
      <trkpt lat="43.4313" lon="2.49864">
        <ele>956.3</ele>
        <time>2026-05-23T09:49:14Z</time>
      </trkpt>
      <trkpt lat="43.4313" lon="2.49864">
        <ele>956.3</ele>
        <time>2026-05-23T09:49:19Z</time>
      </trkpt>
      <trkpt lat="43.4313" lon="2.49864">
        <ele>956.3</ele>
        <time>2026-05-23T09:49:24Z</time>
      </trkpt>
      <trkpt lat="43.4313" lon="2.49864">
        <ele>956.3</ele>
        <time>2026-05-23T09:49:29Z</time>
      </trkpt>
      <trkpt lat="43.4313" lon="2.49864">
        <ele>956.3</ele>
        <time>2026-05-23T09:49:34Z</time>
      </trkpt>
      <trkpt lat="43.4313" lon="2.49864">
        <ele>956.3</ele>
        <time>2026-05-23T09:49:39Z</time>
      </trkpt>
      <trkpt lat="43.4313" lon="2.49864">
        <ele>956.3</ele>
        <time>2026-05-23T09:49:44Z</time>
      </trkpt>
      <trkpt lat="43.4313" lon="2.49864">
        <ele>956.3</ele>
        <time>2026-05-23T09:49:49Z</time>
      </trkpt>
      <trkpt lat="43.4313" lon="2.49864">
        <ele>956.3</ele>
        <time>2026-05-23T09:49:54Z</time>
      </trkpt>
      <trkpt lat="43.4313" lon="2.49864">
        <ele>956.3</ele>
        <time>2026-05-23T09:49:59Z</time>
      </trkpt>
      <trkpt lat="43.4313" lon="2.49864">
        <ele>956.3</ele>
        <time>2026-05-23T09:50:04Z</time>
      </trkpt>
      <trkpt lat="43.4313" lon="2.49864">
        <ele>956.3</ele>
        <time>2026-05-23T09:50:09Z</time>
      </trkpt>
      <trkpt lat="43.4313" lon="2.49864">
        <ele>956.3</ele>
        <time>2026-05-23T09:50:14Z</time>
      </trkpt>
      <trkpt lat="43.4313" lon="2.49864">
        <ele>956.3</ele>
        <time>2026-05-23T09:50:19Z</time>
      </trkpt>
      <trkpt lat="43.4313" lon="2.49864">
        <ele>956.3</ele>
        <time>2026-05-23T09:50:24Z</time>
      </trkpt>
      <trkpt lat="43.4313" lon="2.49864">
        <ele>956.3</ele>
        <time>2026-05-23T09:50:29Z</time>
      </trkpt>
      <trkpt lat="43.4313" lon="2.49864">
        <ele>956.3</ele>
        <time>2026-05-23T09:50:34Z</time>
      </trkpt>
      <trkpt lat="43.4313" lon="2.49864">
        <ele>956.3</ele>
        <time>2026-05-23T09:50:39Z</time>
      </trkpt>
      <trkpt lat="43.4313" lon="2.49864">
        <ele>956.3</ele>
        <time>2026-05-23T09:50:44Z</time>
      </trkpt>
      <trkpt lat="43.4313" lon="2.49864">
        <ele>956.3</ele>
        <time>2026-05-23T09:50:49Z</time>
      </trkpt>
      <trkpt lat="43.4313" lon="2.49864">
        <ele>956.3</ele>
        <time>2026-05-23T09:50:54Z</time>
      </trkpt>
      <trkpt lat="43.4313" lon="2.49864">
        <ele>956.3</ele>
        <time>2026-05-23T09:50:59Z</time>
      </trkpt>
      <trkpt lat="43.4313" lon="2.49864">
        <ele>956.3</ele>
        <time>2026-05-23T09:51:04Z</time>
      </trkpt>
      <trkpt lat="43.4313" lon="2.49864">
        <ele>956.3</ele>
        <time>2026-05-23T09:51:09Z</time>
      </trkpt>
      <trkpt lat="43.4313" lon="2.49864">
        <ele>956.3</ele>
        <time>2026-05-23T09:51:14Z</time>
      </trkpt>
      <trkpt lat="43.4313" lon="2.49864">
        <ele>956.3</ele>
        <time>2026-05-23T09:51:19Z</time>
      </trkpt>
      <trkpt lat="43.4313" lon="2.49864">
        <ele>956.3</ele>
        <time>2026-05-23T09:51:24Z</time>
      </trkpt>
      <trkpt lat="43.4313" lon="2.49864">
        <ele>956.3</ele>
        <time>2026-05-23T09:51:29Z</time>
      </trkpt>
      <trkpt lat="43.4313" lon="2.49864">
        <ele>956.3</ele>
        <time>2026-05-23T09:51:34Z</time>
      </trkpt>
      <trkpt lat="43.4313" lon="2.49864">
        <ele>956.3</ele>
        <time>2026-05-23T09:51:39Z</time>
      </trkpt>
      <trkpt lat="43.4313" lon="2.49864">
        <ele>956.3</ele>
        <time>2026-05-23T09:51:44Z</time>
      </trkpt>
      <trkpt lat="43.4313" lon="2.49864">
        <ele>956.3</ele>
        <time>2026-05-23T09:51:49Z</time>
      </trkpt>
      <trkpt lat="43.4313" lon="2.49864">
        <ele>956.3</ele>
        <time>2026-05-23T09:51:54Z</time>
      </trkpt>
      <trkpt lat="43.4313" lon="2.49864">
        <ele>956.3</ele>
        <time>2026-05-23T09:51:59Z</time>
      </trkpt>
      <trkpt lat="43.4313" lon="2.49864">
        <ele>956.3</ele>
        <time>2026-05-23T09:52:04Z</time>
      </trkpt>
      <trkpt lat="43.4313" lon="2.49864">
        <ele>956.3</ele>
        <time>2026-05-23T09:52:09Z</time>
      </trkpt>
      <trkpt lat="43.4313" lon="2.49864">
        <ele>956.3</ele>
        <time>2026-05-23T09:52:14Z</time>
      </trkpt>
      <trkpt lat="43.4313" lon="2.49864">
        <ele>956.3</ele>
        <time>2026-05-23T09:52:19Z</time>
      </trkpt>
      <trkpt lat="43.4313" lon="2.49864">
        <ele>956.3</ele>
        <time>2026-05-23T09:52:24Z</time>
      </trkpt>
      <trkpt lat="43.4313" lon="2.49864">
        <ele>956.3</ele>
        <time>2026-05-23T09:52:29Z</time>
      </trkpt>
      <trkpt lat="43.4313" lon="2.49864">
        <ele>956.3</ele>
        <time>2026-05-23T09:52:34Z</time>
      </trkpt>
      <trkpt lat="43.4313" lon="2.49864">
        <ele>956.3</ele>
        <time>2026-05-23T09:52:39Z</time>
      </trkpt>
      <trkpt lat="43.4313" lon="2.49864">
        <ele>956.3</ele>
        <time>2026-05-23T09:52:44Z</time>
      </trkpt>
      <trkpt lat="43.4313" lon="2.49864">
        <ele>956.3</ele>
        <time>2026-05-23T09:52:49Z</time>
      </trkpt>
      <trkpt lat="43.4313" lon="2.49864">
        <ele>956.3</ele>
        <time>2026-05-23T09:52:54Z</time>
      </trkpt>
      <trkpt lat="43.4313" lon="2.49864">
        <ele>956.3</ele>
        <time>2026-05-23T09:52:59Z</time>
      </trkpt>
      <trkpt lat="43.4313" lon="2.49864">
        <ele>956.3</ele>
        <time>2026-05-23T09:53:04Z</time>
      </trkpt>
      <trkpt lat="43.4313" lon="2.49864">
        <ele>956.3</ele>
        <time>2026-05-23T09:53:09Z</time>
      </trkpt>
      <trkpt lat="43.4313" lon="2.49864">
        <ele>956.3</ele>
        <time>2026-05-23T09:53:14Z</time>
      </trkpt>
      <trkpt lat="43.4313" lon="2.49864">
        <ele>956.3</ele>
        <time>2026-05-23T09:53:19Z</time>
      </trkpt>
      <trkpt lat="43.4313" lon="2.49864">
        <ele>956.3</ele>
        <time>2026-05-23T09:53:24Z</time>
      </trkpt>
      <trkpt lat="43.4313" lon="2.49864">
        <ele>956.3</ele>
        <time>2026-05-23T09:53:29Z</time>
      </trkpt>
      <trkpt lat="43.4313" lon="2.49864">
        <ele>956.3</ele>
        <time>2026-05-23T09:53:34Z</time>
      </trkpt>
      <trkpt lat="43.4313" lon="2.49864">
        <ele>956.3</ele>
        <time>2026-05-23T09:53:39Z</time>
      </trkpt>
      <trkpt lat="43.4313" lon="2.49864">
        <ele>956.3</ele>
        <time>2026-05-23T09:53:44Z</time>
      </trkpt>
      <trkpt lat="43.4313" lon="2.49864">
        <ele>956.3</ele>
        <time>2026-05-23T09:53:49Z</time>
      </trkpt>
      <trkpt lat="43.4313" lon="2.49864">
        <ele>956.3</ele>
        <time>2026-05-23T09:53:54Z</time>
      </trkpt>
      <trkpt lat="43.4313" lon="2.49864">
        <ele>956.3</ele>
        <time>2026-05-23T09:53:59Z</time>
      </trkpt>
      <trkpt lat="43.4313" lon="2.49864">
        <ele>956.3</ele>
        <time>2026-05-23T09:54:04Z</time>
      </trkpt>
      <trkpt lat="43.4313" lon="2.49864">
        <ele>956.3</ele>
        <time>2026-05-23T09:54:09Z</time>
      </trkpt>
      <trkpt lat="43.4313" lon="2.49864">
        <ele>956.3</ele>
        <time>2026-05-23T09:54:14Z</time>
      </trkpt>
      <trkpt lat="43.4313" lon="2.49864">
        <ele>956.3</ele>
        <time>2026-05-23T09:54:19Z</time>
      </trkpt>
      <trkpt lat="43.4313" lon="2.49864">
        <ele>956.3</ele>
        <time>2026-05-23T09:54:24Z</time>
      </trkpt>
      <trkpt lat="43.4313" lon="2.49864">
        <ele>956.3</ele>
        <time>2026-05-23T09:54:29Z</time>
      </trkpt>
      <trkpt lat="43.4313" lon="2.49864">
        <ele>956.3</ele>
        <time>2026-05-23T09:54:34Z</time>
      </trkpt>
      <trkpt lat="43.4313" lon="2.49864">
        <ele>956.3</ele>
        <time>2026-05-23T09:54:39Z</time>
      </trkpt>
      <trkpt lat="43.4313" lon="2.49864">
        <ele>956.3</ele>
        <time>2026-05-23T09:54:44Z</time>
      </trkpt>
      <trkpt lat="43.4313" lon="2.49864">
        <ele>956.3</ele>
        <time>2026-05-23T09:54:49Z</time>
      </trkpt>
      <trkpt lat="43.4313" lon="2.49864">
        <ele>956.3</ele>
        <time>2026-05-23T09:54:54Z</time>
      </trkpt>
      <trkpt lat="43.4313" lon="2.49864">
        <ele>956.3</ele>
        <time>2026-05-23T09:54:59Z</time>
      </trkpt>
      <trkpt lat="43.4313" lon="2.49864">
        <ele>956.3</ele>
        <time>2026-05-23T09:55:04Z</time>
      </trkpt>
      <trkpt lat="43.4313" lon="2.49864">
        <ele>956.3</ele>
        <time>2026-05-23T09:55:09Z</time>
      </trkpt>
      <trkpt lat="43.4313" lon="2.49864">
        <ele>956.3</ele>
        <time>2026-05-23T09:55:14Z</time>
      </trkpt>
      <trkpt lat="43.4313" lon="2.49864">
        <ele>956.3</ele>
        <time>2026-05-23T09:55:19Z</time>
      </trkpt>
      <trkpt lat="43.4313" lon="2.49864">
        <ele>956.3</ele>
        <time>2026-05-23T09:55:24Z</time>
      </trkpt>
      <trkpt lat="43.4313" lon="2.49864">
        <ele>956.3</ele>
        <time>2026-05-23T09:55:29Z</time>
      </trkpt>
      <trkpt lat="43.4313" lon="2.49864">
        <ele>956.3</ele>
        <time>2026-05-23T09:55:34Z</time>
      </trkpt>
      <trkpt lat="43.4313" lon="2.49864">
        <ele>956.3</ele>
        <time>2026-05-23T09:55:39Z</time>
      </trkpt>
      <trkpt lat="43.4313" lon="2.49864">
        <ele>956.3</ele>
        <time>2026-05-23T09:55:44Z</time>
      </trkpt>
      <trkpt lat="43.4313" lon="2.49864">
        <ele>956.3</ele>
        <time>2026-05-23T09:55:49Z</time>
      </trkpt>
      <trkpt lat="43.4313" lon="2.49864">
        <ele>956.3</ele>
        <time>2026-05-23T09:55:54Z</time>
      </trkpt>
      <trkpt lat="43.4313" lon="2.49864">
        <ele>956.3</ele>
        <time>2026-05-23T09:55:59Z</time>
      </trkpt>
      <trkpt lat="43.4313" lon="2.49864">
        <ele>956.3</ele>
        <time>2026-05-23T09:56:04Z</time>
      </trkpt>
      <trkpt lat="43.4313" lon="2.49864">
        <ele>956.3</ele>
        <time>2026-05-23T09:56:09Z</time>
      </trkpt>
      <trkpt lat="43.4313" lon="2.49864">
        <ele>956.3</ele>
        <time>2026-05-23T09:56:14Z</time>
      </trkpt>
      <trkpt lat="43.4313" lon="2.49864">
        <ele>956.3</ele>
        <time>2026-05-23T09:56:19Z</time>
      </trkpt>
      <trkpt lat="43.4313" lon="2.49864">
        <ele>956.3</ele>
        <time>2026-05-23T09:56:24Z</time>
      </trkpt>
      <trkpt lat="43.4313" lon="2.49864">
        <ele>956.3</ele>
        <time>2026-05-23T09:56:29Z</time>
      </trkpt>
      <trkpt lat="43.4313" lon="2.49864">
        <ele>956.3</ele>
        <time>2026-05-23T09:56:34Z</time>
      </trkpt>
      <trkpt lat="43.4313" lon="2.49864">
        <ele>956.3</ele>
        <time>2026-05-23T09:56:39Z</time>
      </trkpt>
      <trkpt lat="43.4313" lon="2.49864">
        <ele>956.3</ele>
        <time>2026-05-23T09:56:44Z</time>
      </trkpt>
      <trkpt lat="43.4313" lon="2.49864">
        <ele>956.3</ele>
        <time>2026-05-23T09:56:49Z</time>
      </trkpt>
      <trkpt lat="43.4313" lon="2.49864">
        <ele>956.3</ele>
        <time>2026-05-23T09:56:54Z</time>
      </trkpt>
      <trkpt lat="43.4313" lon="2.49864">
        <ele>956.3</ele>
        <time>2026-05-23T09:56:59Z</time>
      </trkpt>
      <trkpt lat="43.4313" lon="2.49864">
        <ele>956.3</ele>
        <time>2026-05-23T09:57:04Z</time>
      </trkpt>
      <trkpt lat="43.4313" lon="2.49864">
        <ele>956.3</ele>
        <time>2026-05-23T09:57:09Z</time>
      </trkpt>
      <trkpt lat="43.4313" lon="2.49864">
        <ele>956.3</ele>
        <time>2026-05-23T09:57:14Z</time>
      </trkpt>
      <trkpt lat="43.4313" lon="2.49864">
        <ele>956.3</ele>
        <time>2026-05-23T09:57:19Z</time>
      </trkpt>
      <trkpt lat="43.4313" lon="2.49864">
        <ele>956.3</ele>
        <time>2026-05-23T09:57:24Z</time>
      </trkpt>
      <trkpt lat="43.4313" lon="2.49864">
        <ele>956.3</ele>
        <time>2026-05-23T09:57:29Z</time>
      </trkpt>
      <trkpt lat="43.4313" lon="2.49864">
        <ele>956.3</ele>
        <time>2026-05-23T09:57:34Z</time>
      </trkpt>
      <trkpt lat="43.4313" lon="2.49864">
        <ele>956.3</ele>
        <time>2026-05-23T09:57:39Z</time>
      </trkpt>
      <trkpt lat="43.4313" lon="2.49864">
        <ele>956.3</ele>
        <time>2026-05-23T09:57:44Z</time>
      </trkpt>
      <trkpt lat="43.4313" lon="2.49864">
        <ele>956.3</ele>
        <time>2026-05-23T09:57:49Z</time>
      </trkpt>
      <trkpt lat="43.4313" lon="2.49864">
        <ele>956.3</ele>
        <time>2026-05-23T09:57:54Z</time>
      </trkpt>
      <trkpt lat="43.4313" lon="2.49864">
        <ele>956.3</ele>
        <time>2026-05-23T09:57:59Z</time>
      </trkpt>
      <trkpt lat="43.4313" lon="2.49864">
        <ele>956.3</ele>
        <time>2026-05-23T09:58:04Z</time>
      </trkpt>
      <trkpt lat="43.4313" lon="2.49864">
        <ele>956.3</ele>
        <time>2026-05-23T09:58:09Z</time>
      </trkpt>
      <trkpt lat="43.4313" lon="2.49864">
        <ele>956.3</ele>
        <time>2026-05-23T09:58:14Z</time>
      </trkpt>
      <trkpt lat="43.4313" lon="2.49864">
        <ele>956.3</ele>
        <time>2026-05-23T09:58:19Z</time>
      </trkpt>
      <trkpt lat="43.4313" lon="2.49864">
        <ele>956.3</ele>
        <time>2026-05-23T09:58:24Z</time>
      </trkpt>
      <trkpt lat="43.4313" lon="2.49864">
        <ele>956.3</ele>
        <time>2026-05-23T09:58:29Z</time>
      </trkpt>
      <trkpt lat="43.4313" lon="2.49864">
        <ele>956.3</ele>
        <time>2026-05-23T09:58:34Z</time>
      </trkpt>
      <trkpt lat="43.4313" lon="2.49864">
        <ele>956.3</ele>
        <time>2026-05-23T09:58:39Z</time>
      </trkpt>
      <trkpt lat="43.4313" lon="2.49864">
        <ele>956.3</ele>
        <time>2026-05-23T09:58:44Z</time>
      </trkpt>
      <trkpt lat="43.4313" lon="2.49864">
        <ele>956.3</ele>
        <time>2026-05-23T09:58:49Z</time>
      </trkpt>
      <trkpt lat="43.4313" lon="2.49864">
        <ele>956.3</ele>
        <time>2026-05-23T09:58:54Z</time>
      </trkpt>
      <trkpt lat="43.4313" lon="2.49864">
        <ele>956.3</ele>
        <time>2026-05-23T09:58:59Z</time>
      </trkpt>
      <trkpt lat="43.4313" lon="2.49864">
        <ele>956.3</ele>
        <time>2026-05-23T09:59:04Z</time>
      </trkpt>
      <trkpt lat="43.4313" lon="2.49864">
        <ele>956.3</ele>
        <time>2026-05-23T09:59:09Z</time>
      </trkpt>
      <trkpt lat="43.4313" lon="2.49864">
        <ele>956.3</ele>
        <time>2026-05-23T09:59:14Z</time>
      </trkpt>
      <trkpt lat="43.4313" lon="2.49864">
        <ele>956.3</ele>
        <time>2026-05-23T09:59:19Z</time>
      </trkpt>
      <trkpt lat="43.4313" lon="2.49864">
        <ele>956.3</ele>
        <time>2026-05-23T09:59:24Z</time>
      </trkpt>
      <trkpt lat="43.4313" lon="2.49864">
        <ele>956.3</ele>
        <time>2026-05-23T09:59:29Z</time>
      </trkpt>
      <trkpt lat="43.4313" lon="2.49864">
        <ele>956.3</ele>
        <time>2026-05-23T09:59:34Z</time>
      </trkpt>
      <trkpt lat="43.4313" lon="2.49864">
        <ele>956.3</ele>
        <time>2026-05-23T09:59:39Z</time>
      </trkpt>
      <trkpt lat="43.4313" lon="2.49864">
        <ele>956.3</ele>
        <time>2026-05-23T09:59:44Z</time>
      </trkpt>
      <trkpt lat="43.4313" lon="2.49864">
        <ele>956.3</ele>
        <time>2026-05-23T09:59:49Z</time>
      </trkpt>
      <trkpt lat="43.4313" lon="2.49864">
        <ele>956.3</ele>
        <time>2026-05-23T09:59:54Z</time>
      </trkpt>
      <trkpt lat="43.4313" lon="2.49864">
        <ele>956.3</ele>
        <time>2026-05-23T09:59:59Z</time>
      </trkpt>
      <trkpt lat="43.4313" lon="2.49864">
        <ele>956.3</ele>
        <time>2026-05-23T10:00:04Z</time>
      </trkpt>
      <trkpt lat="43.4313" lon="2.49864">
        <ele>956.3</ele>
        <time>2026-05-23T10:00:09Z</time>
      </trkpt>
      <trkpt lat="43.4313" lon="2.49864">
        <ele>956.3</ele>
        <time>2026-05-23T10:00:14Z</time>
      </trkpt>
      <trkpt lat="43.4313" lon="2.49864">
        <ele>956.3</ele>
        <time>2026-05-23T10:00:19Z</time>
      </trkpt>
      <trkpt lat="43.4313" lon="2.49864">
        <ele>956.3</ele>
        <time>2026-05-23T10:00:24Z</time>
      </trkpt>
      <trkpt lat="43.4313" lon="2.49864">
        <ele>956.3</ele>
        <time>2026-05-23T10:00:29Z</time>
      </trkpt>
      <trkpt lat="43.4313" lon="2.49864">
        <ele>956.3</ele>
        <time>2026-05-23T10:00:34Z</time>
      </trkpt>
      <trkpt lat="43.4313" lon="2.49864">
        <ele>956.3</ele>
        <time>2026-05-23T10:00:39Z</time>
      </trkpt>
      <trkpt lat="43.4313" lon="2.49864">
        <ele>956.3</ele>
        <time>2026-05-23T10:00:44Z</time>
      </trkpt>
      <trkpt lat="43.4313" lon="2.49864">
        <ele>956.3</ele>
        <time>2026-05-23T10:00:49Z</time>
      </trkpt>
      <trkpt lat="43.4313" lon="2.49864">
        <ele>956.3</ele>
        <time>2026-05-23T10:00:54Z</time>
      </trkpt>
      <trkpt lat="43.4313" lon="2.49864">
        <ele>956.3</ele>
        <time>2026-05-23T10:00:59Z</time>
      </trkpt>
      <trkpt lat="43.4313" lon="2.49864">
        <ele>956.3</ele>
        <time>2026-05-23T10:01:04Z</time>
      </trkpt>
      <trkpt lat="43.4313" lon="2.49864">
        <ele>956.3</ele>
        <time>2026-05-23T10:01:09Z</time>
      </trkpt>
      <trkpt lat="43.4313" lon="2.49864">
        <ele>956.3</ele>
        <time>2026-05-23T10:01:14Z</time>
      </trkpt>
      <trkpt lat="43.4313" lon="2.49864">
        <ele>956.3</ele>
        <time>2026-05-23T10:01:19Z</time>
      </trkpt>
      <trkpt lat="43.4313" lon="2.49864">
        <ele>956.3</ele>
        <time>2026-05-23T10:01:24Z</time>
      </trkpt>
      <trkpt lat="43.4313" lon="2.49864">
        <ele>956.3</ele>
        <time>2026-05-23T10:01:29Z</time>
      </trkpt>
      <trkpt lat="43.4313" lon="2.49864">
        <ele>956.3</ele>
        <time>2026-05-23T10:01:34Z</time>
      </trkpt>
      <trkpt lat="43.4313" lon="2.49864">
        <ele>956.3</ele>
        <time>2026-05-23T10:01:39Z</time>
      </trkpt>
      <trkpt lat="43.4313" lon="2.49864">
        <ele>956.3</ele>
        <time>2026-05-23T10:01:44Z</time>
      </trkpt>
      <trkpt lat="43.4313" lon="2.49864">
        <ele>956.3</ele>
        <time>2026-05-23T10:01:49Z</time>
      </trkpt>
      <trkpt lat="43.4313" lon="2.49864">
        <ele>956.3</ele>
        <time>2026-05-23T10:01:54Z</time>
      </trkpt>
      <trkpt lat="43.4313" lon="2.49864">
        <ele>956.3</ele>
        <time>2026-05-23T10:01:59Z</time>
      </trkpt>
      <trkpt lat="43.4313" lon="2.49864">
        <ele>956.3</ele>
        <time>2026-05-23T10:02:04Z</time>
      </trkpt>
      <trkpt lat="43.43131" lon="2.49854">
        <ele>956.1</ele>
        <time>2026-05-23T10:02:09Z</time>
      </trkpt>
      <trkpt lat="43.43132" lon="2.49852">
        <ele>956.2</ele>
        <time>2026-05-23T10:02:14Z</time>
      </trkpt>
      <trkpt lat="43.43131" lon="2.49847">
        <ele>955.9</ele>
        <time>2026-05-23T10:02:19Z</time>
      </trkpt>
      <trkpt lat="43.43135" lon="2.49843">
        <ele>956.4</ele>
        <time>2026-05-23T10:02:24Z</time>
      </trkpt>
      <trkpt lat="43.43139" lon="2.49839">
        <ele>956.8</ele>
        <time>2026-05-23T10:02:29Z</time>
      </trkpt>
      <trkpt lat="43.43142" lon="2.49834">
        <ele>957.2</ele>
        <time>2026-05-23T10:02:34Z</time>
      </trkpt>
      <trkpt lat="43.43147" lon="2.49831">
        <ele>957.9</ele>
        <time>2026-05-23T10:02:39Z</time>
      </trkpt>
      <trkpt lat="43.43152" lon="2.49827">
        <ele>958.7</ele>
        <time>2026-05-23T10:02:44Z</time>
      </trkpt>
      <trkpt lat="43.43153" lon="2.49824">
        <ele>958.8</ele>
        <time>2026-05-23T10:02:49Z</time>
      </trkpt>
      <trkpt lat="43.43152" lon="2.49824">
        <ele>958.7</ele>
        <time>2026-05-23T10:02:54Z</time>
      </trkpt>
      <trkpt lat="43.43152" lon="2.49823">
        <ele>958.7</ele>
        <time>2026-05-23T10:02:59Z</time>
      </trkpt>
      <trkpt lat="43.43152" lon="2.49823">
        <ele>958.7</ele>
        <time>2026-05-23T10:03:04Z</time>
      </trkpt>
      <trkpt lat="43.43152" lon="2.49823">
        <ele>958.7</ele>
        <time>2026-05-23T10:03:09Z</time>
      </trkpt>
      <trkpt lat="43.43152" lon="2.49823">
        <ele>958.7</ele>
        <time>2026-05-23T10:03:14Z</time>
      </trkpt>
      <trkpt lat="43.43152" lon="2.49823">
        <ele>958.7</ele>
        <time>2026-05-23T10:03:19Z</time>
      </trkpt>
      <trkpt lat="43.43152" lon="2.49823">
        <ele>958.7</ele>
        <time>2026-05-23T10:03:24Z</time>
      </trkpt>
      <trkpt lat="43.43152" lon="2.49823">
        <ele>958.7</ele>
        <time>2026-05-23T10:03:29Z</time>
      </trkpt>
      <trkpt lat="43.43152" lon="2.49823">
        <ele>958.7</ele>
        <time>2026-05-23T10:03:34Z</time>
      </trkpt>
      <trkpt lat="43.43152" lon="2.49823">
        <ele>958.7</ele>
        <time>2026-05-23T10:03:39Z</time>
      </trkpt>
      <trkpt lat="43.43152" lon="2.49823">
        <ele>958.7</ele>
        <time>2026-05-23T10:03:44Z</time>
      </trkpt>
      <trkpt lat="43.43152" lon="2.49823">
        <ele>958.7</ele>
        <time>2026-05-23T10:03:49Z</time>
      </trkpt>
      <trkpt lat="43.43152" lon="2.49823">
        <ele>958.7</ele>
        <time>2026-05-23T10:03:54Z</time>
      </trkpt>
      <trkpt lat="43.43152" lon="2.49823">
        <ele>958.7</ele>
        <time>2026-05-23T10:03:59Z</time>
      </trkpt>
      <trkpt lat="43.43152" lon="2.49823">
        <ele>958.7</ele>
        <time>2026-05-23T10:04:04Z</time>
      </trkpt>
      <trkpt lat="43.43152" lon="2.49823">
        <ele>958.7</ele>
        <time>2026-05-23T10:04:09Z</time>
      </trkpt>
      <trkpt lat="43.43152" lon="2.49823">
        <ele>958.7</ele>
        <time>2026-05-23T10:04:14Z</time>
      </trkpt>
      <trkpt lat="43.43152" lon="2.49823">
        <ele>958.7</ele>
        <time>2026-05-23T10:04:19Z</time>
      </trkpt>
      <trkpt lat="43.43152" lon="2.49823">
        <ele>958.7</ele>
        <time>2026-05-23T10:04:24Z</time>
      </trkpt>
      <trkpt lat="43.43152" lon="2.49823">
        <ele>958.7</ele>
        <time>2026-05-23T10:04:29Z</time>
      </trkpt>
      <trkpt lat="43.43152" lon="2.49823">
        <ele>958.7</ele>
        <time>2026-05-23T10:04:34Z</time>
      </trkpt>
      <trkpt lat="43.43152" lon="2.49823">
        <ele>958.7</ele>
        <time>2026-05-23T10:04:39Z</time>
      </trkpt>
      <trkpt lat="43.43152" lon="2.49823">
        <ele>958.7</ele>
        <time>2026-05-23T10:04:44Z</time>
      </trkpt>
      <trkpt lat="43.43152" lon="2.49823">
        <ele>958.7</ele>
        <time>2026-05-23T10:04:49Z</time>
      </trkpt>
      <trkpt lat="43.43152" lon="2.49823">
        <ele>958.7</ele>
        <time>2026-05-23T10:04:54Z</time>
      </trkpt>
      <trkpt lat="43.43152" lon="2.49823">
        <ele>958.7</ele>
        <time>2026-05-23T10:04:59Z</time>
      </trkpt>
      <trkpt lat="43.43152" lon="2.49823">
        <ele>958.7</ele>
        <time>2026-05-23T10:05:04Z</time>
      </trkpt>
      <trkpt lat="43.43152" lon="2.49823">
        <ele>958.7</ele>
        <time>2026-05-23T10:05:09Z</time>
      </trkpt>
      <trkpt lat="43.43153" lon="2.49818">
        <ele>958.8</ele>
        <time>2026-05-23T10:05:14Z</time>
      </trkpt>
      <trkpt lat="43.43157" lon="2.49814">
        <ele>959.4</ele>
        <time>2026-05-23T10:05:19Z</time>
      </trkpt>
      <trkpt lat="43.43163" lon="2.49811">
        <ele>960.4</ele>
        <time>2026-05-23T10:05:24Z</time>
      </trkpt>
      <trkpt lat="43.43166" lon="2.4981">
        <ele>960.9</ele>
        <time>2026-05-23T10:05:29Z</time>
      </trkpt>
      <trkpt lat="43.43167" lon="2.49808">
        <ele>961</ele>
        <time>2026-05-23T10:05:34Z</time>
      </trkpt>
      <trkpt lat="43.43167" lon="2.49807">
        <ele>961</ele>
        <time>2026-05-23T10:05:39Z</time>
      </trkpt>
      <trkpt lat="43.43167" lon="2.49807">
        <ele>961</ele>
        <time>2026-05-23T10:05:44Z</time>
      </trkpt>
      <trkpt lat="43.43167" lon="2.49807">
        <ele>961</ele>
        <time>2026-05-23T10:05:49Z</time>
      </trkpt>
      <trkpt lat="43.43167" lon="2.49807">
        <ele>961</ele>
        <time>2026-05-23T10:05:54Z</time>
      </trkpt>
      <trkpt lat="43.43167" lon="2.49807">
        <ele>961</ele>
        <time>2026-05-23T10:05:59Z</time>
      </trkpt>
      <trkpt lat="43.43167" lon="2.49807">
        <ele>961</ele>
        <time>2026-05-23T10:06:04Z</time>
      </trkpt>
      <trkpt lat="43.43167" lon="2.49807">
        <ele>961</ele>
        <time>2026-05-23T10:06:09Z</time>
      </trkpt>
      <trkpt lat="43.43167" lon="2.49807">
        <ele>961</ele>
        <time>2026-05-23T10:06:14Z</time>
      </trkpt>
      <trkpt lat="43.43167" lon="2.49807">
        <ele>961</ele>
        <time>2026-05-23T10:06:19Z</time>
      </trkpt>
      <trkpt lat="43.43167" lon="2.49807">
        <ele>961</ele>
        <time>2026-05-23T10:06:24Z</time>
      </trkpt>
      <trkpt lat="43.43167" lon="2.49807">
        <ele>961</ele>
        <time>2026-05-23T10:06:29Z</time>
      </trkpt>
      <trkpt lat="43.43167" lon="2.49807">
        <ele>961</ele>
        <time>2026-05-23T10:06:34Z</time>
      </trkpt>
      <trkpt lat="43.43167" lon="2.49807">
        <ele>961</ele>
        <time>2026-05-23T10:06:39Z</time>
      </trkpt>
      <trkpt lat="43.43167" lon="2.49807">
        <ele>961</ele>
        <time>2026-05-23T10:06:44Z</time>
      </trkpt>
      <trkpt lat="43.43167" lon="2.49807">
        <ele>961</ele>
        <time>2026-05-23T10:06:49Z</time>
      </trkpt>
      <trkpt lat="43.43167" lon="2.49807">
        <ele>961</ele>
        <time>2026-05-23T10:06:54Z</time>
      </trkpt>
      <trkpt lat="43.43167" lon="2.49807">
        <ele>961</ele>
        <time>2026-05-23T10:06:59Z</time>
      </trkpt>
      <trkpt lat="43.43167" lon="2.49807">
        <ele>961</ele>
        <time>2026-05-23T10:07:04Z</time>
      </trkpt>
      <trkpt lat="43.43167" lon="2.49807">
        <ele>961</ele>
        <time>2026-05-23T10:07:09Z</time>
      </trkpt>
      <trkpt lat="43.43167" lon="2.49807">
        <ele>961</ele>
        <time>2026-05-23T10:07:14Z</time>
      </trkpt>
      <trkpt lat="43.43167" lon="2.49807">
        <ele>961</ele>
        <time>2026-05-23T10:07:19Z</time>
      </trkpt>
      <trkpt lat="43.43167" lon="2.49807">
        <ele>961</ele>
        <time>2026-05-23T10:07:24Z</time>
      </trkpt>
      <trkpt lat="43.43167" lon="2.49807">
        <ele>961</ele>
        <time>2026-05-23T10:07:29Z</time>
      </trkpt>
      <trkpt lat="43.43167" lon="2.49807">
        <ele>961</ele>
        <time>2026-05-23T10:07:34Z</time>
      </trkpt>
      <trkpt lat="43.43167" lon="2.49807">
        <ele>961</ele>
        <time>2026-05-23T10:07:39Z</time>
      </trkpt>
      <trkpt lat="43.43167" lon="2.49807">
        <ele>961</ele>
        <time>2026-05-23T10:07:44Z</time>
      </trkpt>
      <trkpt lat="43.43167" lon="2.49807">
        <ele>961</ele>
        <time>2026-05-23T10:07:49Z</time>
      </trkpt>
      <trkpt lat="43.43167" lon="2.49807">
        <ele>961</ele>
        <time>2026-05-23T10:07:54Z</time>
      </trkpt>
      <trkpt lat="43.43167" lon="2.49807">
        <ele>961</ele>
        <time>2026-05-23T10:07:59Z</time>
      </trkpt>
      <trkpt lat="43.43167" lon="2.49807">
        <ele>961</ele>
        <time>2026-05-23T10:08:04Z</time>
      </trkpt>
      <trkpt lat="43.43167" lon="2.49807">
        <ele>961</ele>
        <time>2026-05-23T10:08:09Z</time>
      </trkpt>
      <trkpt lat="43.43167" lon="2.49807">
        <ele>961</ele>
        <time>2026-05-23T10:08:14Z</time>
      </trkpt>
      <trkpt lat="43.43167" lon="2.49807">
        <ele>961</ele>
        <time>2026-05-23T10:08:19Z</time>
      </trkpt>
      <trkpt lat="43.43167" lon="2.49807">
        <ele>961</ele>
        <time>2026-05-23T10:08:24Z</time>
      </trkpt>
      <trkpt lat="43.43167" lon="2.49807">
        <ele>961</ele>
        <time>2026-05-23T10:08:29Z</time>
      </trkpt>
      <trkpt lat="43.43167" lon="2.49807">
        <ele>961</ele>
        <time>2026-05-23T10:08:34Z</time>
      </trkpt>
      <trkpt lat="43.43167" lon="2.49807">
        <ele>961</ele>
        <time>2026-05-23T10:08:39Z</time>
      </trkpt>
      <trkpt lat="43.43167" lon="2.49807">
        <ele>961</ele>
        <time>2026-05-23T10:08:44Z</time>
      </trkpt>
      <trkpt lat="43.43167" lon="2.49807">
        <ele>961</ele>
        <time>2026-05-23T10:08:49Z</time>
      </trkpt>
      <trkpt lat="43.43167" lon="2.49807">
        <ele>961</ele>
        <time>2026-05-23T10:08:54Z</time>
      </trkpt>
      <trkpt lat="43.43167" lon="2.49807">
        <ele>961</ele>
        <time>2026-05-23T10:08:59Z</time>
      </trkpt>
      <trkpt lat="43.43167" lon="2.49807">
        <ele>961</ele>
        <time>2026-05-23T10:09:04Z</time>
      </trkpt>
      <trkpt lat="43.43167" lon="2.49807">
        <ele>961</ele>
        <time>2026-05-23T10:09:09Z</time>
      </trkpt>
      <trkpt lat="43.43167" lon="2.49807">
        <ele>961</ele>
        <time>2026-05-23T10:09:14Z</time>
      </trkpt>
      <trkpt lat="43.43167" lon="2.49807">
        <ele>961</ele>
        <time>2026-05-23T10:09:19Z</time>
      </trkpt>
      <trkpt lat="43.43167" lon="2.49807">
        <ele>961</ele>
        <time>2026-05-23T10:09:24Z</time>
      </trkpt>
      <trkpt lat="43.43167" lon="2.49807">
        <ele>961</ele>
        <time>2026-05-23T10:09:29Z</time>
      </trkpt>
      <trkpt lat="43.43167" lon="2.49807">
        <ele>961</ele>
        <time>2026-05-23T10:09:34Z</time>
      </trkpt>
      <trkpt lat="43.43167" lon="2.49807">
        <ele>961</ele>
        <time>2026-05-23T10:09:39Z</time>
      </trkpt>
      <trkpt lat="43.43167" lon="2.49807">
        <ele>961</ele>
        <time>2026-05-23T10:09:44Z</time>
      </trkpt>
      <trkpt lat="43.43167" lon="2.49807">
        <ele>961</ele>
        <time>2026-05-23T10:09:49Z</time>
      </trkpt>
      <trkpt lat="43.43167" lon="2.49807">
        <ele>961</ele>
        <time>2026-05-23T10:09:54Z</time>
      </trkpt>
      <trkpt lat="43.43167" lon="2.49807">
        <ele>961</ele>
        <time>2026-05-23T10:09:59Z</time>
      </trkpt>
      <trkpt lat="43.43167" lon="2.49807">
        <ele>961</ele>
        <time>2026-05-23T10:10:04Z</time>
      </trkpt>
      <trkpt lat="43.43167" lon="2.49807">
        <ele>961</ele>
        <time>2026-05-23T10:10:09Z</time>
      </trkpt>
      <trkpt lat="43.43167" lon="2.49807">
        <ele>961</ele>
        <time>2026-05-23T10:10:14Z</time>
      </trkpt>
      <trkpt lat="43.43167" lon="2.49807">
        <ele>961</ele>
        <time>2026-05-23T10:10:19Z</time>
      </trkpt>
      <trkpt lat="43.43167" lon="2.49807">
        <ele>961</ele>
        <time>2026-05-23T10:10:24Z</time>
      </trkpt>
      <trkpt lat="43.43167" lon="2.49807">
        <ele>961</ele>
        <time>2026-05-23T10:10:29Z</time>
      </trkpt>
      <trkpt lat="43.43167" lon="2.49807">
        <ele>961</ele>
        <time>2026-05-23T10:10:34Z</time>
      </trkpt>
      <trkpt lat="43.43167" lon="2.49807">
        <ele>961</ele>
        <time>2026-05-23T10:10:39Z</time>
      </trkpt>
      <trkpt lat="43.43167" lon="2.49807">
        <ele>961</ele>
        <time>2026-05-23T10:10:44Z</time>
      </trkpt>
      <trkpt lat="43.43167" lon="2.49807">
        <ele>961</ele>
        <time>2026-05-23T10:10:49Z</time>
      </trkpt>
      <trkpt lat="43.43167" lon="2.49807">
        <ele>961</ele>
        <time>2026-05-23T10:10:54Z</time>
      </trkpt>
      <trkpt lat="43.43167" lon="2.49807">
        <ele>961</ele>
        <time>2026-05-23T10:10:59Z</time>
      </trkpt>
      <trkpt lat="43.43167" lon="2.49807">
        <ele>961</ele>
        <time>2026-05-23T10:11:04Z</time>
      </trkpt>
      <trkpt lat="43.43167" lon="2.49807">
        <ele>961</ele>
        <time>2026-05-23T10:11:09Z</time>
      </trkpt>
      <trkpt lat="43.43167" lon="2.49807">
        <ele>961</ele>
        <time>2026-05-23T10:11:14Z</time>
      </trkpt>
      <trkpt lat="43.43167" lon="2.49807">
        <ele>961</ele>
        <time>2026-05-23T10:11:19Z</time>
      </trkpt>
      <trkpt lat="43.43167" lon="2.49807">
        <ele>961</ele>
        <time>2026-05-23T10:11:24Z</time>
      </trkpt>
      <trkpt lat="43.43167" lon="2.49807">
        <ele>961</ele>
        <time>2026-05-23T10:11:29Z</time>
      </trkpt>
      <trkpt lat="43.43167" lon="2.49807">
        <ele>961</ele>
        <time>2026-05-23T10:11:34Z</time>
      </trkpt>
      <trkpt lat="43.43167" lon="2.49807">
        <ele>961</ele>
        <time>2026-05-23T10:11:39Z</time>
      </trkpt>
      <trkpt lat="43.43167" lon="2.49807">
        <ele>961</ele>
        <time>2026-05-23T10:11:44Z</time>
      </trkpt>
      <trkpt lat="43.43167" lon="2.49807">
        <ele>961</ele>
        <time>2026-05-23T10:11:49Z</time>
      </trkpt>
      <trkpt lat="43.43167" lon="2.49807">
        <ele>961</ele>
        <time>2026-05-23T10:11:54Z</time>
      </trkpt>
      <trkpt lat="43.43167" lon="2.49807">
        <ele>961</ele>
        <time>2026-05-23T10:11:59Z</time>
      </trkpt>
      <trkpt lat="43.43167" lon="2.49807">
        <ele>961</ele>
        <time>2026-05-23T10:12:04Z</time>
      </trkpt>
      <trkpt lat="43.43167" lon="2.49807">
        <ele>961</ele>
        <time>2026-05-23T10:12:09Z</time>
      </trkpt>
      <trkpt lat="43.43167" lon="2.49807">
        <ele>961</ele>
        <time>2026-05-23T10:12:14Z</time>
      </trkpt>
      <trkpt lat="43.43167" lon="2.49807">
        <ele>961</ele>
        <time>2026-05-23T10:12:19Z</time>
      </trkpt>
      <trkpt lat="43.43167" lon="2.49807">
        <ele>961</ele>
        <time>2026-05-23T10:12:24Z</time>
      </trkpt>
      <trkpt lat="43.43167" lon="2.49807">
        <ele>961</ele>
        <time>2026-05-23T10:12:29Z</time>
      </trkpt>
      <trkpt lat="43.43167" lon="2.49807">
        <ele>961</ele>
        <time>2026-05-23T10:12:34Z</time>
      </trkpt>
      <trkpt lat="43.43167" lon="2.49807">
        <ele>961</ele>
        <time>2026-05-23T10:12:39Z</time>
      </trkpt>
      <trkpt lat="43.43167" lon="2.49807">
        <ele>961</ele>
        <time>2026-05-23T10:12:44Z</time>
      </trkpt>
      <trkpt lat="43.43167" lon="2.49807">
        <ele>961</ele>
        <time>2026-05-23T10:12:49Z</time>
      </trkpt>
      <trkpt lat="43.43167" lon="2.49807">
        <ele>961</ele>
        <time>2026-05-23T10:12:54Z</time>
      </trkpt>
      <trkpt lat="43.43167" lon="2.49807">
        <ele>961</ele>
        <time>2026-05-23T10:12:59Z</time>
      </trkpt>
      <trkpt lat="43.43167" lon="2.49807">
        <ele>961</ele>
        <time>2026-05-23T10:13:04Z</time>
      </trkpt>
      <trkpt lat="43.43167" lon="2.49807">
        <ele>961</ele>
        <time>2026-05-23T10:13:09Z</time>
      </trkpt>
      <trkpt lat="43.43167" lon="2.49807">
        <ele>961</ele>
        <time>2026-05-23T10:13:14Z</time>
      </trkpt>
      <trkpt lat="43.43167" lon="2.49807">
        <ele>961</ele>
        <time>2026-05-23T10:13:19Z</time>
      </trkpt>
      <trkpt lat="43.43167" lon="2.49807">
        <ele>961</ele>
        <time>2026-05-23T10:13:24Z</time>
      </trkpt>
      <trkpt lat="43.43167" lon="2.49807">
        <ele>961</ele>
        <time>2026-05-23T10:13:29Z</time>
      </trkpt>
      <trkpt lat="43.43167" lon="2.49807">
        <ele>961</ele>
        <time>2026-05-23T10:13:34Z</time>
      </trkpt>
      <trkpt lat="43.43167" lon="2.49807">
        <ele>961</ele>
        <time>2026-05-23T10:13:39Z</time>
      </trkpt>
      <trkpt lat="43.43167" lon="2.49807">
        <ele>961</ele>
        <time>2026-05-23T10:13:44Z</time>
      </trkpt>
      <trkpt lat="43.43167" lon="2.49807">
        <ele>961</ele>
        <time>2026-05-23T10:13:49Z</time>
      </trkpt>
      <trkpt lat="43.43167" lon="2.49807">
        <ele>961</ele>
        <time>2026-05-23T10:13:54Z</time>
      </trkpt>
      <trkpt lat="43.43167" lon="2.49807">
        <ele>961</ele>
        <time>2026-05-23T10:13:59Z</time>
      </trkpt>
      <trkpt lat="43.43167" lon="2.49807">
        <ele>961</ele>
        <time>2026-05-23T10:14:04Z</time>
      </trkpt>
      <trkpt lat="43.43167" lon="2.49807">
        <ele>961</ele>
        <time>2026-05-23T10:14:09Z</time>
      </trkpt>
      <trkpt lat="43.43167" lon="2.49807">
        <ele>961</ele>
        <time>2026-05-23T10:14:14Z</time>
      </trkpt>
      <trkpt lat="43.43167" lon="2.49807">
        <ele>961</ele>
        <time>2026-05-23T10:14:19Z</time>
      </trkpt>
      <trkpt lat="43.43167" lon="2.49807">
        <ele>961</ele>
        <time>2026-05-23T10:14:24Z</time>
      </trkpt>
      <trkpt lat="43.43167" lon="2.49807">
        <ele>961</ele>
        <time>2026-05-23T10:14:29Z</time>
      </trkpt>
      <trkpt lat="43.43167" lon="2.49807">
        <ele>961</ele>
        <time>2026-05-23T10:14:34Z</time>
      </trkpt>
      <trkpt lat="43.43167" lon="2.49807">
        <ele>961</ele>
        <time>2026-05-23T10:14:39Z</time>
      </trkpt>
      <trkpt lat="43.43167" lon="2.49807">
        <ele>961</ele>
        <time>2026-05-23T10:14:44Z</time>
      </trkpt>
      <trkpt lat="43.43167" lon="2.49807">
        <ele>961</ele>
        <time>2026-05-23T10:14:49Z</time>
      </trkpt>
      <trkpt lat="43.43168" lon="2.49807">
        <ele>961.1</ele>
        <time>2026-05-23T10:14:54Z</time>
      </trkpt>
      <trkpt lat="43.43173" lon="2.498">
        <ele>961.4</ele>
        <time>2026-05-23T10:14:59Z</time>
      </trkpt>
      <trkpt lat="43.43177" lon="2.49795">
        <ele>961.7</ele>
        <time>2026-05-23T10:15:04Z</time>
      </trkpt>
      <trkpt lat="43.43182" lon="2.4979">
        <ele>962.1</ele>
        <time>2026-05-23T10:15:09Z</time>
      </trkpt>
      <trkpt lat="43.43187" lon="2.49783">
        <ele>962.6</ele>
        <time>2026-05-23T10:15:14Z</time>
      </trkpt>
      <trkpt lat="43.43191" lon="2.49777">
        <ele>963</ele>
        <time>2026-05-23T10:15:19Z</time>
      </trkpt>
      <trkpt lat="43.43196" lon="2.4977">
        <ele>963.5</ele>
        <time>2026-05-23T10:15:24Z</time>
      </trkpt>
      <trkpt lat="43.43199" lon="2.49764">
        <ele>963.8</ele>
        <time>2026-05-23T10:15:29Z</time>
      </trkpt>
      <trkpt lat="43.43203" lon="2.49757">
        <ele>964.3</ele>
        <time>2026-05-23T10:15:34Z</time>
      </trkpt>
      <trkpt lat="43.43207" lon="2.4975">
        <ele>964.9</ele>
        <time>2026-05-23T10:15:39Z</time>
      </trkpt>
      <trkpt lat="43.43211" lon="2.49741">
        <ele>964.4</ele>
        <time>2026-05-23T10:15:44Z</time>
      </trkpt>
      <trkpt lat="43.43214" lon="2.49734">
        <ele>964.1</ele>
        <time>2026-05-23T10:15:49Z</time>
      </trkpt>
      <trkpt lat="43.43219" lon="2.49725">
        <ele>963.8</ele>
        <time>2026-05-23T10:15:54Z</time>
      </trkpt>
      <trkpt lat="43.43223" lon="2.49718">
        <ele>963.6</ele>
        <time>2026-05-23T10:15:59Z</time>
      </trkpt>
      <trkpt lat="43.43228" lon="2.49711">
        <ele>963.5</ele>
        <time>2026-05-23T10:16:04Z</time>
      </trkpt>
      <trkpt lat="43.43234" lon="2.49705">
        <ele>963.6</ele>
        <time>2026-05-23T10:16:09Z</time>
      </trkpt>
      <trkpt lat="43.43239" lon="2.49699">
        <ele>963.6</ele>
        <time>2026-05-23T10:16:14Z</time>
      </trkpt>
      <trkpt lat="43.43243" lon="2.49693">
        <ele>963.5</ele>
        <time>2026-05-23T10:16:19Z</time>
      </trkpt>
      <trkpt lat="43.43247" lon="2.49686">
        <ele>963.3</ele>
        <time>2026-05-23T10:16:24Z</time>
      </trkpt>
      <trkpt lat="43.43252" lon="2.49679">
        <ele>963.2</ele>
        <time>2026-05-23T10:16:29Z</time>
      </trkpt>
      <trkpt lat="43.43256" lon="2.49671">
        <ele>962.9</ele>
        <time>2026-05-23T10:16:34Z</time>
      </trkpt>
      <trkpt lat="43.43261" lon="2.49666">
        <ele>962.9</ele>
        <time>2026-05-23T10:16:39Z</time>
      </trkpt>
      <trkpt lat="43.43267" lon="2.49661">
        <ele>962.6</ele>
        <time>2026-05-23T10:16:44Z</time>
      </trkpt>
      <trkpt lat="43.43271" lon="2.49656">
        <ele>962.1</ele>
        <time>2026-05-23T10:16:49Z</time>
      </trkpt>
      <trkpt lat="43.43276" lon="2.49649">
        <ele>961.4</ele>
        <time>2026-05-23T10:16:54Z</time>
      </trkpt>
      <trkpt lat="43.4328" lon="2.49644">
        <ele>961</ele>
        <time>2026-05-23T10:16:59Z</time>
      </trkpt>
      <trkpt lat="43.43285" lon="2.49638">
        <ele>960.6</ele>
        <time>2026-05-23T10:17:04Z</time>
      </trkpt>
      <trkpt lat="43.4329" lon="2.49631">
        <ele>960</ele>
        <time>2026-05-23T10:17:09Z</time>
      </trkpt>
      <trkpt lat="43.43295" lon="2.49625">
        <ele>959.7</ele>
        <time>2026-05-23T10:17:14Z</time>
      </trkpt>
      <trkpt lat="43.433" lon="2.49619">
        <ele>959.4</ele>
        <time>2026-05-23T10:17:19Z</time>
      </trkpt>
      <trkpt lat="43.43304" lon="2.49612">
        <ele>958.8</ele>
        <time>2026-05-23T10:17:24Z</time>
      </trkpt>
      <trkpt lat="43.43306" lon="2.49605">
        <ele>958</ele>
        <time>2026-05-23T10:17:29Z</time>
      </trkpt>
      <trkpt lat="43.4331" lon="2.49598">
        <ele>957.5</ele>
        <time>2026-05-23T10:17:34Z</time>
      </trkpt>
      <trkpt lat="43.43313" lon="2.49592">
        <ele>957.1</ele>
        <time>2026-05-23T10:17:39Z</time>
      </trkpt>
      <trkpt lat="43.43317" lon="2.49585">
        <ele>956.7</ele>
        <time>2026-05-23T10:17:44Z</time>
      </trkpt>
      <trkpt lat="43.43321" lon="2.49579">
        <ele>956.4</ele>
        <time>2026-05-23T10:17:49Z</time>
      </trkpt>
      <trkpt lat="43.43325" lon="2.49571">
        <ele>955.8</ele>
        <time>2026-05-23T10:17:54Z</time>
      </trkpt>
      <trkpt lat="43.4333" lon="2.49565">
        <ele>955.6</ele>
        <time>2026-05-23T10:17:59Z</time>
      </trkpt>
      <trkpt lat="43.43337" lon="2.49559">
        <ele>956</ele>
        <time>2026-05-23T10:18:04Z</time>
      </trkpt>
      <trkpt lat="43.4334" lon="2.49551">
        <ele>955.5</ele>
        <time>2026-05-23T10:18:09Z</time>
      </trkpt>
      <trkpt lat="43.43344" lon="2.49549">
        <ele>956.1</ele>
        <time>2026-05-23T10:18:14Z</time>
      </trkpt>
      <trkpt lat="43.43345" lon="2.49547">
        <ele>956</ele>
        <time>2026-05-23T10:18:19Z</time>
      </trkpt>
      <trkpt lat="43.43345" lon="2.49547">
        <ele>956</ele>
        <time>2026-05-23T10:18:24Z</time>
      </trkpt>
      <trkpt lat="43.43348" lon="2.49541">
        <ele>955.8</ele>
        <time>2026-05-23T10:18:29Z</time>
      </trkpt>
      <trkpt lat="43.43352" lon="2.49534">
        <ele>955.8</ele>
        <time>2026-05-23T10:18:34Z</time>
      </trkpt>
      <trkpt lat="43.43358" lon="2.49524">
        <ele>955.8</ele>
        <time>2026-05-23T10:18:39Z</time>
      </trkpt>
      <trkpt lat="43.43363" lon="2.49516">
        <ele>956</ele>
        <time>2026-05-23T10:18:44Z</time>
      </trkpt>
      <trkpt lat="43.43367" lon="2.49508">
        <ele>955.9</ele>
        <time>2026-05-23T10:18:49Z</time>
      </trkpt>
      <trkpt lat="43.4337" lon="2.49501">
        <ele>955.8</ele>
        <time>2026-05-23T10:18:54Z</time>
      </trkpt>
      <trkpt lat="43.43375" lon="2.49492">
        <ele>957.1</ele>
        <time>2026-05-23T10:18:59Z</time>
      </trkpt>
      <trkpt lat="43.43378" lon="2.49483">
        <ele>957.9</ele>
        <time>2026-05-23T10:19:04Z</time>
      </trkpt>
      <trkpt lat="43.43379" lon="2.49472">
        <ele>958.2</ele>
        <time>2026-05-23T10:19:09Z</time>
      </trkpt>
      <trkpt lat="43.43381" lon="2.49463">
        <ele>958.7</ele>
        <time>2026-05-23T10:19:14Z</time>
      </trkpt>
      <trkpt lat="43.43384" lon="2.49455">
        <ele>959.3</ele>
        <time>2026-05-23T10:19:19Z</time>
      </trkpt>
      <trkpt lat="43.43386" lon="2.49446">
        <ele>959.7</ele>
        <time>2026-05-23T10:19:24Z</time>
      </trkpt>
      <trkpt lat="43.4339" lon="2.49439">
        <ele>960.4</ele>
        <time>2026-05-23T10:19:29Z</time>
      </trkpt>
      <trkpt lat="43.43392" lon="2.49429">
        <ele>960.6</ele>
        <time>2026-05-23T10:19:34Z</time>
      </trkpt>
      <trkpt lat="43.43395" lon="2.4942">
        <ele>960.9</ele>
        <time>2026-05-23T10:19:39Z</time>
      </trkpt>
      <trkpt lat="43.434" lon="2.49415">
        <ele>961.8</ele>
        <time>2026-05-23T10:19:44Z</time>
      </trkpt>
      <trkpt lat="43.43404" lon="2.4941">
        <ele>963.1</ele>
        <time>2026-05-23T10:19:49Z</time>
      </trkpt>
      <trkpt lat="43.43408" lon="2.49403">
        <ele>964.5</ele>
        <time>2026-05-23T10:19:54Z</time>
      </trkpt>
      <trkpt lat="43.43412" lon="2.49397">
        <ele>965.8</ele>
        <time>2026-05-23T10:19:59Z</time>
      </trkpt>
      <trkpt lat="43.43416" lon="2.49391">
        <ele>967</ele>
        <time>2026-05-23T10:20:04Z</time>
      </trkpt>
      <trkpt lat="43.43421" lon="2.49386">
        <ele>968.5</ele>
        <time>2026-05-23T10:20:09Z</time>
      </trkpt>
      <trkpt lat="43.43425" lon="2.49382">
        <ele>969.8</ele>
        <time>2026-05-23T10:20:14Z</time>
      </trkpt>
      <trkpt lat="43.43429" lon="2.49376">
        <ele>971.2</ele>
        <time>2026-05-23T10:20:19Z</time>
      </trkpt>
      <trkpt lat="43.43432" lon="2.49369">
        <ele>972.5</ele>
        <time>2026-05-23T10:20:24Z</time>
      </trkpt>
      <trkpt lat="43.43434" lon="2.49361">
        <ele>973.6</ele>
        <time>2026-05-23T10:20:29Z</time>
      </trkpt>
      <trkpt lat="43.43435" lon="2.49354">
        <ele>974.4</ele>
        <time>2026-05-23T10:20:34Z</time>
      </trkpt>
      <trkpt lat="43.43435" lon="2.49348">
        <ele>975</ele>
        <time>2026-05-23T10:20:39Z</time>
      </trkpt>
      <trkpt lat="43.43435" lon="2.49341">
        <ele>975.7</ele>
        <time>2026-05-23T10:20:44Z</time>
      </trkpt>
      <trkpt lat="43.43436" lon="2.49334">
        <ele>976.5</ele>
        <time>2026-05-23T10:20:49Z</time>
      </trkpt>
      <trkpt lat="43.43436" lon="2.49326">
        <ele>976.6</ele>
        <time>2026-05-23T10:20:54Z</time>
      </trkpt>
      <trkpt lat="43.43436" lon="2.4932">
        <ele>976.6</ele>
        <time>2026-05-23T10:20:59Z</time>
      </trkpt>
      <trkpt lat="43.43437" lon="2.49312">
        <ele>976.7</ele>
        <time>2026-05-23T10:21:04Z</time>
      </trkpt>
      <trkpt lat="43.43439" lon="2.49304">
        <ele>976.9</ele>
        <time>2026-05-23T10:21:09Z</time>
      </trkpt>
      <trkpt lat="43.43441" lon="2.49296">
        <ele>977.1</ele>
        <time>2026-05-23T10:21:14Z</time>
      </trkpt>
      <trkpt lat="43.43444" lon="2.49288">
        <ele>977.4</ele>
        <time>2026-05-23T10:21:19Z</time>
      </trkpt>
      <trkpt lat="43.43446" lon="2.49279">
        <ele>977.6</ele>
        <time>2026-05-23T10:21:24Z</time>
      </trkpt>
      <trkpt lat="43.4345" lon="2.49273">
        <ele>978</ele>
        <time>2026-05-23T10:21:29Z</time>
      </trkpt>
      <trkpt lat="43.43455" lon="2.49266">
        <ele>978.4</ele>
        <time>2026-05-23T10:21:34Z</time>
      </trkpt>
      <trkpt lat="43.4346" lon="2.4926">
        <ele>978.8</ele>
        <time>2026-05-23T10:21:39Z</time>
      </trkpt>
      <trkpt lat="43.43467" lon="2.49259">
        <ele>979.4</ele>
        <time>2026-05-23T10:21:44Z</time>
      </trkpt>
      <trkpt lat="43.43473" lon="2.49262">
        <ele>980</ele>
        <time>2026-05-23T10:21:49Z</time>
      </trkpt>
      <trkpt lat="43.43477" lon="2.49267">
        <ele>980.5</ele>
        <time>2026-05-23T10:21:54Z</time>
      </trkpt>
      <trkpt lat="43.43482" lon="2.49275">
        <ele>981.1</ele>
        <time>2026-05-23T10:21:59Z</time>
      </trkpt>
      <trkpt lat="43.43482" lon="2.49285">
        <ele>981.4</ele>
        <time>2026-05-23T10:22:04Z</time>
      </trkpt>
      <trkpt lat="43.43481" lon="2.49288">
        <ele>981.4</ele>
        <time>2026-05-23T10:22:09Z</time>
      </trkpt>
      <trkpt lat="43.43481" lon="2.49288">
        <ele>981.4</ele>
        <time>2026-05-23T10:22:14Z</time>
      </trkpt>
      <trkpt lat="43.43481" lon="2.49289">
        <ele>981.4</ele>
        <time>2026-05-23T10:22:19Z</time>
      </trkpt>
      <trkpt lat="43.4348" lon="2.49299">
        <ele>981.5</ele>
        <time>2026-05-23T10:22:24Z</time>
      </trkpt>
      <trkpt lat="43.43479" lon="2.49305">
        <ele>981.6</ele>
        <time>2026-05-23T10:22:29Z</time>
      </trkpt>
      <trkpt lat="43.43483" lon="2.4931">
        <ele>982.1</ele>
        <time>2026-05-23T10:22:34Z</time>
      </trkpt>
      <trkpt lat="43.43486" lon="2.49312">
        <ele>982.6</ele>
        <time>2026-05-23T10:22:39Z</time>
      </trkpt>
      <trkpt lat="43.43489" lon="2.49314">
        <ele>983</ele>
        <time>2026-05-23T10:22:44Z</time>
      </trkpt>
      <trkpt lat="43.43493" lon="2.49315">
        <ele>983.5</ele>
        <time>2026-05-23T10:22:49Z</time>
      </trkpt>
      <trkpt lat="43.43498" lon="2.49312">
        <ele>984</ele>
        <time>2026-05-23T10:22:54Z</time>
      </trkpt>
      <trkpt lat="43.43501" lon="2.49306">
        <ele>984.1</ele>
        <time>2026-05-23T10:22:59Z</time>
      </trkpt>
      <trkpt lat="43.43506" lon="2.49303">
        <ele>984.4</ele>
        <time>2026-05-23T10:23:04Z</time>
      </trkpt>
      <trkpt lat="43.43512" lon="2.49298">
        <ele>984.7</ele>
        <time>2026-05-23T10:23:09Z</time>
      </trkpt>
      <trkpt lat="43.43518" lon="2.49292">
        <ele>984.9</ele>
        <time>2026-05-23T10:23:14Z</time>
      </trkpt>
      <trkpt lat="43.43523" lon="2.49287">
        <ele>985.1</ele>
        <time>2026-05-23T10:23:19Z</time>
      </trkpt>
      <trkpt lat="43.43528" lon="2.49282">
        <ele>985.3</ele>
        <time>2026-05-23T10:23:24Z</time>
      </trkpt>
      <trkpt lat="43.43533" lon="2.49277">
        <ele>985.5</ele>
        <time>2026-05-23T10:23:29Z</time>
      </trkpt>
      <trkpt lat="43.43538" lon="2.49273">
        <ele>985.7</ele>
        <time>2026-05-23T10:23:34Z</time>
      </trkpt>
      <trkpt lat="43.43543" lon="2.49266">
        <ele>985.8</ele>
        <time>2026-05-23T10:23:39Z</time>
      </trkpt>
      <trkpt lat="43.43548" lon="2.49262">
        <ele>986</ele>
        <time>2026-05-23T10:23:44Z</time>
      </trkpt>
      <trkpt lat="43.43552" lon="2.49258">
        <ele>986.1</ele>
        <time>2026-05-23T10:23:49Z</time>
      </trkpt>
      <trkpt lat="43.43556" lon="2.49255">
        <ele>986.3</ele>
        <time>2026-05-23T10:23:54Z</time>
      </trkpt>
      <trkpt lat="43.43559" lon="2.4925">
        <ele>986.2</ele>
        <time>2026-05-23T10:23:59Z</time>
      </trkpt>
      <trkpt lat="43.4356" lon="2.49245">
        <ele>986.5</ele>
        <time>2026-05-23T10:24:04Z</time>
      </trkpt>
      <trkpt lat="43.43562" lon="2.49242">
        <ele>986.7</ele>
        <time>2026-05-23T10:24:09Z</time>
      </trkpt>
      <trkpt lat="43.43563" lon="2.49235">
        <ele>987.1</ele>
        <time>2026-05-23T10:24:14Z</time>
      </trkpt>
      <trkpt lat="43.43566" lon="2.49229">
        <ele>987.6</ele>
        <time>2026-05-23T10:24:19Z</time>
      </trkpt>
      <trkpt lat="43.43568" lon="2.49222">
        <ele>988.1</ele>
        <time>2026-05-23T10:24:24Z</time>
      </trkpt>
      <trkpt lat="43.43569" lon="2.49216">
        <ele>988.4</ele>
        <time>2026-05-23T10:24:29Z</time>
      </trkpt>
      <trkpt lat="43.43568" lon="2.49209">
        <ele>988.6</ele>
        <time>2026-05-23T10:24:34Z</time>
      </trkpt>
      <trkpt lat="43.43566" lon="2.49203">
        <ele>988.6</ele>
        <time>2026-05-23T10:24:39Z</time>
      </trkpt>
      <trkpt lat="43.43565" lon="2.49193">
        <ele>988.9</ele>
        <time>2026-05-23T10:24:44Z</time>
      </trkpt>
      <trkpt lat="43.43566" lon="2.49186">
        <ele>989.3</ele>
        <time>2026-05-23T10:24:49Z</time>
      </trkpt>
      <trkpt lat="43.43568" lon="2.49178">
        <ele>989.9</ele>
        <time>2026-05-23T10:24:54Z</time>
      </trkpt>
      <trkpt lat="43.43571" lon="2.49172">
        <ele>990.7</ele>
        <time>2026-05-23T10:24:59Z</time>
      </trkpt>
      <trkpt lat="43.43574" lon="2.49168">
        <ele>991.4</ele>
        <time>2026-05-23T10:25:04Z</time>
      </trkpt>
      <trkpt lat="43.43576" lon="2.4916">
        <ele>992.4</ele>
        <time>2026-05-23T10:25:09Z</time>
      </trkpt>
      <trkpt lat="43.43579" lon="2.49153">
        <ele>993.5</ele>
        <time>2026-05-23T10:25:14Z</time>
      </trkpt>
      <trkpt lat="43.43582" lon="2.49148">
        <ele>994.6</ele>
        <time>2026-05-23T10:25:19Z</time>
      </trkpt>
      <trkpt lat="43.43586" lon="2.49143">
        <ele>995.9</ele>
        <time>2026-05-23T10:25:24Z</time>
      </trkpt>
      <trkpt lat="43.43589" lon="2.49136">
        <ele>997.2</ele>
        <time>2026-05-23T10:25:29Z</time>
      </trkpt>
      <trkpt lat="43.43589" lon="2.49129">
        <ele>997.9</ele>
        <time>2026-05-23T10:25:34Z</time>
      </trkpt>
      <trkpt lat="43.43588" lon="2.49123">
        <ele>998.2</ele>
        <time>2026-05-23T10:25:39Z</time>
      </trkpt>
      <trkpt lat="43.43587" lon="2.49117">
        <ele>998.6</ele>
        <time>2026-05-23T10:25:44Z</time>
      </trkpt>
      <trkpt lat="43.43585" lon="2.4911">
        <ele>998.8</ele>
        <time>2026-05-23T10:25:49Z</time>
      </trkpt>
      <trkpt lat="43.43581" lon="2.49105">
        <ele>998.4</ele>
        <time>2026-05-23T10:25:54Z</time>
      </trkpt>
      <trkpt lat="43.43576" lon="2.49103">
        <ele>997.5</ele>
        <time>2026-05-23T10:25:59Z</time>
      </trkpt>
      <trkpt lat="43.43571" lon="2.491">
        <ele>996.7</ele>
        <time>2026-05-23T10:26:04Z</time>
      </trkpt>
      <trkpt lat="43.43566" lon="2.49098">
        <ele>995.8</ele>
        <time>2026-05-23T10:26:09Z</time>
      </trkpt>
      <trkpt lat="43.43559" lon="2.49094">
        <ele>994.6</ele>
        <time>2026-05-23T10:26:14Z</time>
      </trkpt>
      <trkpt lat="43.43553" lon="2.49089">
        <ele>993.7</ele>
        <time>2026-05-23T10:26:19Z</time>
      </trkpt>
      <trkpt lat="43.43549" lon="2.49082">
        <ele>993.3</ele>
        <time>2026-05-23T10:26:24Z</time>
      </trkpt>
      <trkpt lat="43.43548" lon="2.49075">
        <ele>993.5</ele>
        <time>2026-05-23T10:26:29Z</time>
      </trkpt>
      <trkpt lat="43.43545" lon="2.49068">
        <ele>993.3</ele>
        <time>2026-05-23T10:26:34Z</time>
      </trkpt>
      <trkpt lat="43.43545" lon="2.49059">
        <ele>993.9</ele>
        <time>2026-05-23T10:26:39Z</time>
      </trkpt>
      <trkpt lat="43.43543" lon="2.4905">
        <ele>994</ele>
        <time>2026-05-23T10:26:44Z</time>
      </trkpt>
      <trkpt lat="43.43543" lon="2.49039">
        <ele>994.7</ele>
        <time>2026-05-23T10:26:49Z</time>
      </trkpt>
      <trkpt lat="43.43543" lon="2.49028">
        <ele>995.4</ele>
        <time>2026-05-23T10:26:54Z</time>
      </trkpt>
      <trkpt lat="43.43542" lon="2.49017">
        <ele>996</ele>
        <time>2026-05-23T10:26:59Z</time>
      </trkpt>
      <trkpt lat="43.43541" lon="2.4901">
        <ele>996.2</ele>
        <time>2026-05-23T10:27:04Z</time>
      </trkpt>
      <trkpt lat="43.43541" lon="2.48999">
        <ele>996.9</ele>
        <time>2026-05-23T10:27:09Z</time>
      </trkpt>
      <trkpt lat="43.43539" lon="2.4899">
        <ele>996.6</ele>
        <time>2026-05-23T10:27:14Z</time>
      </trkpt>
      <trkpt lat="43.43539" lon="2.48981">
        <ele>996.8</ele>
        <time>2026-05-23T10:27:19Z</time>
      </trkpt>
      <trkpt lat="43.43538" lon="2.48971">
        <ele>996.7</ele>
        <time>2026-05-23T10:27:24Z</time>
      </trkpt>
      <trkpt lat="43.43536" lon="2.48961">
        <ele>996.5</ele>
        <time>2026-05-23T10:27:29Z</time>
      </trkpt>
      <trkpt lat="43.43537" lon="2.48951">
        <ele>996.9</ele>
        <time>2026-05-23T10:27:34Z</time>
      </trkpt>
      <trkpt lat="43.43536" lon="2.48942">
        <ele>996.9</ele>
        <time>2026-05-23T10:27:39Z</time>
      </trkpt>
      <trkpt lat="43.43536" lon="2.48933">
        <ele>997</ele>
        <time>2026-05-23T10:27:44Z</time>
      </trkpt>
      <trkpt lat="43.43536" lon="2.48925">
        <ele>997.2</ele>
        <time>2026-05-23T10:27:49Z</time>
      </trkpt>
      <trkpt lat="43.43537" lon="2.48915">
        <ele>997.5</ele>
        <time>2026-05-23T10:27:54Z</time>
      </trkpt>
      <trkpt lat="43.43537" lon="2.48905">
        <ele>997.4</ele>
        <time>2026-05-23T10:27:59Z</time>
      </trkpt>
      <trkpt lat="43.43539" lon="2.48897">
        <ele>997.7</ele>
        <time>2026-05-23T10:28:04Z</time>
      </trkpt>
      <trkpt lat="43.4354" lon="2.48888">
        <ele>997.8</ele>
        <time>2026-05-23T10:28:09Z</time>
      </trkpt>
      <trkpt lat="43.43541" lon="2.48878">
        <ele>997.9</ele>
        <time>2026-05-23T10:28:14Z</time>
      </trkpt>
      <trkpt lat="43.43542" lon="2.48868">
        <ele>998</ele>
        <time>2026-05-23T10:28:19Z</time>
      </trkpt>
      <trkpt lat="43.43543" lon="2.4886">
        <ele>998.1</ele>
        <time>2026-05-23T10:28:24Z</time>
      </trkpt>
      <trkpt lat="43.43545" lon="2.48851">
        <ele>998.5</ele>
        <time>2026-05-23T10:28:29Z</time>
      </trkpt>
      <trkpt lat="43.43545" lon="2.48842">
        <ele>998.4</ele>
        <time>2026-05-23T10:28:34Z</time>
      </trkpt>
      <trkpt lat="43.43544" lon="2.48832">
        <ele>998</ele>
        <time>2026-05-23T10:28:39Z</time>
      </trkpt>
      <trkpt lat="43.43545" lon="2.48824">
        <ele>997.9</ele>
        <time>2026-05-23T10:28:44Z</time>
      </trkpt>
      <trkpt lat="43.43544" lon="2.48814">
        <ele>997.3</ele>
        <time>2026-05-23T10:28:49Z</time>
      </trkpt>
      <trkpt lat="43.43546" lon="2.48807">
        <ele>997.6</ele>
        <time>2026-05-23T10:28:54Z</time>
      </trkpt>
      <trkpt lat="43.43546" lon="2.48797">
        <ele>997.2</ele>
        <time>2026-05-23T10:28:59Z</time>
      </trkpt>
      <trkpt lat="43.43547" lon="2.48788">
        <ele>997.2</ele>
        <time>2026-05-23T10:29:04Z</time>
      </trkpt>
      <trkpt lat="43.43548" lon="2.48778">
        <ele>997.1</ele>
        <time>2026-05-23T10:29:09Z</time>
      </trkpt>
      <trkpt lat="43.4355" lon="2.48772">
        <ele>997.3</ele>
        <time>2026-05-23T10:29:14Z</time>
      </trkpt>
      <trkpt lat="43.43552" lon="2.48764">
        <ele>997.6</ele>
        <time>2026-05-23T10:29:19Z</time>
      </trkpt>
      <trkpt lat="43.43554" lon="2.48754">
        <ele>997.7</ele>
        <time>2026-05-23T10:29:24Z</time>
      </trkpt>
      <trkpt lat="43.43558" lon="2.48747">
        <ele>998.7</ele>
        <time>2026-05-23T10:29:29Z</time>
      </trkpt>
      <trkpt lat="43.43562" lon="2.48742">
        <ele>1000</ele>
        <time>2026-05-23T10:29:34Z</time>
      </trkpt>
      <trkpt lat="43.43568" lon="2.48737">
        <ele>1001.7</ele>
        <time>2026-05-23T10:29:39Z</time>
      </trkpt>
      <trkpt lat="43.43574" lon="2.48734">
        <ele>1003.4</ele>
        <time>2026-05-23T10:29:44Z</time>
      </trkpt>
      <trkpt lat="43.43579" lon="2.48732">
        <ele>1004.8</ele>
        <time>2026-05-23T10:29:49Z</time>
      </trkpt>
      <trkpt lat="43.43584" lon="2.48728">
        <ele>1006.2</ele>
        <time>2026-05-23T10:29:54Z</time>
      </trkpt>
      <trkpt lat="43.4359" lon="2.48725">
        <ele>1007.6</ele>
        <time>2026-05-23T10:29:59Z</time>
      </trkpt>
      <trkpt lat="43.43593" lon="2.48722">
        <ele>1008.4</ele>
        <time>2026-05-23T10:30:04Z</time>
      </trkpt>
      <trkpt lat="43.43598" lon="2.48716">
        <ele>1009.8</ele>
        <time>2026-05-23T10:30:09Z</time>
      </trkpt>
      <trkpt lat="43.43601" lon="2.48714">
        <ele>1010.5</ele>
        <time>2026-05-23T10:30:14Z</time>
      </trkpt>
      <trkpt lat="43.43603" lon="2.48707">
        <ele>1011.2</ele>
        <time>2026-05-23T10:30:19Z</time>
      </trkpt>
      <trkpt lat="43.43606" lon="2.487">
        <ele>1012.1</ele>
        <time>2026-05-23T10:30:24Z</time>
      </trkpt>
      <trkpt lat="43.4361" lon="2.48696">
        <ele>1013</ele>
        <time>2026-05-23T10:30:29Z</time>
      </trkpt>
      <trkpt lat="43.43611" lon="2.48694">
        <ele>1013.3</ele>
        <time>2026-05-23T10:30:34Z</time>
      </trkpt>
      <trkpt lat="43.43611" lon="2.48693">
        <ele>1013.4</ele>
        <time>2026-05-23T10:30:39Z</time>
      </trkpt>
      <trkpt lat="43.43611" lon="2.48693">
        <ele>1013.4</ele>
        <time>2026-05-23T10:30:44Z</time>
      </trkpt>
      <trkpt lat="43.43611" lon="2.48693">
        <ele>1013.4</ele>
        <time>2026-05-23T10:30:49Z</time>
      </trkpt>
      <trkpt lat="43.4361" lon="2.48689">
        <ele>1013.3</ele>
        <time>2026-05-23T10:30:54Z</time>
      </trkpt>
      <trkpt lat="43.43612" lon="2.48682">
        <ele>1014</ele>
        <time>2026-05-23T10:30:59Z</time>
      </trkpt>
      <trkpt lat="43.43614" lon="2.48676">
        <ele>1014.6</ele>
        <time>2026-05-23T10:31:04Z</time>
      </trkpt>
      <trkpt lat="43.43615" lon="2.4867">
        <ele>1015</ele>
        <time>2026-05-23T10:31:09Z</time>
      </trkpt>
      <trkpt lat="43.43618" lon="2.4866">
        <ele>1016</ele>
        <time>2026-05-23T10:31:14Z</time>
      </trkpt>
      <trkpt lat="43.4362" lon="2.48652">
        <ele>1016.7</ele>
        <time>2026-05-23T10:31:19Z</time>
      </trkpt>
      <trkpt lat="43.43622" lon="2.48645">
        <ele>1017.5</ele>
        <time>2026-05-23T10:31:24Z</time>
      </trkpt>
      <trkpt lat="43.43623" lon="2.48636">
        <ele>1018.1</ele>
        <time>2026-05-23T10:31:29Z</time>
      </trkpt>
      <trkpt lat="43.43625" lon="2.48628">
        <ele>1018.9</ele>
        <time>2026-05-23T10:31:34Z</time>
      </trkpt>
      <trkpt lat="43.43626" lon="2.4862">
        <ele>1019.4</ele>
        <time>2026-05-23T10:31:39Z</time>
      </trkpt>
      <trkpt lat="43.43625" lon="2.48611">
        <ele>1019.7</ele>
        <time>2026-05-23T10:31:44Z</time>
      </trkpt>
      <trkpt lat="43.43624" lon="2.48602">
        <ele>1019.9</ele>
        <time>2026-05-23T10:31:49Z</time>
      </trkpt>
      <trkpt lat="43.43624" lon="2.48593">
        <ele>1020.3</ele>
        <time>2026-05-23T10:31:54Z</time>
      </trkpt>
      <trkpt lat="43.43629" lon="2.48586">
        <ele>1021.6</ele>
        <time>2026-05-23T10:31:59Z</time>
      </trkpt>
      <trkpt lat="43.43632" lon="2.48581">
        <ele>1022.4</ele>
        <time>2026-05-23T10:32:04Z</time>
      </trkpt>
      <trkpt lat="43.43631" lon="2.48574">
        <ele>1022.3</ele>
        <time>2026-05-23T10:32:09Z</time>
      </trkpt>
      <trkpt lat="43.43632" lon="2.48567">
        <ele>1022.7</ele>
        <time>2026-05-23T10:32:14Z</time>
      </trkpt>
      <trkpt lat="43.43633" lon="2.48559">
        <ele>1023.1</ele>
        <time>2026-05-23T10:32:19Z</time>
      </trkpt>
      <trkpt lat="43.43635" lon="2.48551">
        <ele>1023.6</ele>
        <time>2026-05-23T10:32:24Z</time>
      </trkpt>
      <trkpt lat="43.43635" lon="2.48546">
        <ele>1023.8</ele>
        <time>2026-05-23T10:32:29Z</time>
      </trkpt>
      <trkpt lat="43.43637" lon="2.4854">
        <ele>1024.3</ele>
        <time>2026-05-23T10:32:34Z</time>
      </trkpt>
      <trkpt lat="43.43638" lon="2.48533">
        <ele>1024.7</ele>
        <time>2026-05-23T10:32:39Z</time>
      </trkpt>
      <trkpt lat="43.43639" lon="2.48528">
        <ele>1025</ele>
        <time>2026-05-23T10:32:44Z</time>
      </trkpt>
      <trkpt lat="43.43641" lon="2.48523">
        <ele>1025.6</ele>
        <time>2026-05-23T10:32:49Z</time>
      </trkpt>
      <trkpt lat="43.43642" lon="2.48521">
        <ele>1025.8</ele>
        <time>2026-05-23T10:32:54Z</time>
      </trkpt>
      <trkpt lat="43.43642" lon="2.48521">
        <ele>1025.8</ele>
        <time>2026-05-23T10:32:59Z</time>
      </trkpt>
      <trkpt lat="43.43643" lon="2.48508">
        <ele>1026.4</ele>
        <time>2026-05-23T10:33:04Z</time>
      </trkpt>
      <trkpt lat="43.43644" lon="2.48503">
        <ele>1026.8</ele>
        <time>2026-05-23T10:33:09Z</time>
      </trkpt>
      <trkpt lat="43.43645" lon="2.48498">
        <ele>1027.1</ele>
        <time>2026-05-23T10:33:14Z</time>
      </trkpt>
      <trkpt lat="43.43647" lon="2.48492">
        <ele>1027.7</ele>
        <time>2026-05-23T10:33:19Z</time>
      </trkpt>
      <trkpt lat="43.43648" lon="2.48488">
        <ele>1028</ele>
        <time>2026-05-23T10:33:24Z</time>
      </trkpt>
      <trkpt lat="43.4365" lon="2.48482">
        <ele>1028.6</ele>
        <time>2026-05-23T10:33:29Z</time>
      </trkpt>
      <trkpt lat="43.43654" lon="2.48476">
        <ele>1029.6</ele>
        <time>2026-05-23T10:33:34Z</time>
      </trkpt>
      <trkpt lat="43.43655" lon="2.48471">
        <ele>1030</ele>
        <time>2026-05-23T10:33:39Z</time>
      </trkpt>
      <trkpt lat="43.43659" lon="2.48465">
        <ele>1031.1</ele>
        <time>2026-05-23T10:33:44Z</time>
      </trkpt>
      <trkpt lat="43.43661" lon="2.4846">
        <ele>1031.6</ele>
        <time>2026-05-23T10:33:49Z</time>
      </trkpt>
      <trkpt lat="43.43663" lon="2.48455">
        <ele>1032.2</ele>
        <time>2026-05-23T10:33:54Z</time>
      </trkpt>
      <trkpt lat="43.43665" lon="2.48447">
        <ele>1032.9</ele>
        <time>2026-05-23T10:33:59Z</time>
      </trkpt>
      <trkpt lat="43.43666" lon="2.48441">
        <ele>1033.3</ele>
        <time>2026-05-23T10:34:04Z</time>
      </trkpt>
      <trkpt lat="43.43667" lon="2.48436">
        <ele>1033.6</ele>
        <time>2026-05-23T10:34:09Z</time>
      </trkpt>
      <trkpt lat="43.43667" lon="2.4843">
        <ele>1033.7</ele>
        <time>2026-05-23T10:34:14Z</time>
      </trkpt>
      <trkpt lat="43.43668" lon="2.48424">
        <ele>1034</ele>
        <time>2026-05-23T10:34:19Z</time>
      </trkpt>
      <trkpt lat="43.43667" lon="2.48417">
        <ele>1034</ele>
        <time>2026-05-23T10:34:24Z</time>
      </trkpt>
      <trkpt lat="43.4367" lon="2.48413">
        <ele>1034.4</ele>
        <time>2026-05-23T10:34:29Z</time>
      </trkpt>
      <trkpt lat="43.43673" lon="2.48408">
        <ele>1034.8</ele>
        <time>2026-05-23T10:34:34Z</time>
      </trkpt>
      <trkpt lat="43.43676" lon="2.48403">
        <ele>1035.3</ele>
        <time>2026-05-23T10:34:39Z</time>
      </trkpt>
      <trkpt lat="43.43678" lon="2.48397">
        <ele>1035.7</ele>
        <time>2026-05-23T10:34:44Z</time>
      </trkpt>
      <trkpt lat="43.43681" lon="2.48391">
        <ele>1036.2</ele>
        <time>2026-05-23T10:34:49Z</time>
      </trkpt>
      <trkpt lat="43.43681" lon="2.48386">
        <ele>1036.4</ele>
        <time>2026-05-23T10:34:54Z</time>
      </trkpt>
      <trkpt lat="43.43681" lon="2.48382">
        <ele>1036.5</ele>
        <time>2026-05-23T10:34:59Z</time>
      </trkpt>
      <trkpt lat="43.43681" lon="2.48376">
        <ele>1036.6</ele>
        <time>2026-05-23T10:35:04Z</time>
      </trkpt>
      <trkpt lat="43.43682" lon="2.4837">
        <ele>1036.9</ele>
        <time>2026-05-23T10:35:09Z</time>
      </trkpt>
      <trkpt lat="43.43682" lon="2.48363">
        <ele>1037.1</ele>
        <time>2026-05-23T10:35:14Z</time>
      </trkpt>
      <trkpt lat="43.43682" lon="2.48357">
        <ele>1037.3</ele>
        <time>2026-05-23T10:35:19Z</time>
      </trkpt>
      <trkpt lat="43.43682" lon="2.48351">
        <ele>1037.5</ele>
        <time>2026-05-23T10:35:24Z</time>
      </trkpt>
      <trkpt lat="43.43683" lon="2.48348">
        <ele>1037.7</ele>
        <time>2026-05-23T10:35:29Z</time>
      </trkpt>
      <trkpt lat="43.43685" lon="2.48343">
        <ele>1038.2</ele>
        <time>2026-05-23T10:35:34Z</time>
      </trkpt>
      <trkpt lat="43.43685" lon="2.48337">
        <ele>1038.4</ele>
        <time>2026-05-23T10:35:39Z</time>
      </trkpt>
      <trkpt lat="43.43686" lon="2.48331">
        <ele>1038.9</ele>
        <time>2026-05-23T10:35:44Z</time>
      </trkpt>
      <trkpt lat="43.43687" lon="2.48325">
        <ele>1039.7</ele>
        <time>2026-05-23T10:35:49Z</time>
      </trkpt>
      <trkpt lat="43.43685" lon="2.48319">
        <ele>1039.9</ele>
        <time>2026-05-23T10:35:54Z</time>
      </trkpt>
      <trkpt lat="43.43685" lon="2.48313">
        <ele>1040.5</ele>
        <time>2026-05-23T10:35:59Z</time>
      </trkpt>
      <trkpt lat="43.43685" lon="2.48305">
        <ele>1041.3</ele>
        <time>2026-05-23T10:36:04Z</time>
      </trkpt>
      <trkpt lat="43.43686" lon="2.48298">
        <ele>1042.2</ele>
        <time>2026-05-23T10:36:09Z</time>
      </trkpt>
      <trkpt lat="43.43685" lon="2.48291">
        <ele>1042.7</ele>
        <time>2026-05-23T10:36:14Z</time>
      </trkpt>
      <trkpt lat="43.43686" lon="2.48282">
        <ele>1043.8</ele>
        <time>2026-05-23T10:36:19Z</time>
      </trkpt>
      <trkpt lat="43.43685" lon="2.48275">
        <ele>1044.3</ele>
        <time>2026-05-23T10:36:24Z</time>
      </trkpt>
      <trkpt lat="43.43685" lon="2.48267">
        <ele>1045.1</ele>
        <time>2026-05-23T10:36:29Z</time>
      </trkpt>
      <trkpt lat="43.43684" lon="2.4826">
        <ele>1045.6</ele>
        <time>2026-05-23T10:36:34Z</time>
      </trkpt>
      <trkpt lat="43.43684" lon="2.48253">
        <ele>1046.2</ele>
        <time>2026-05-23T10:36:39Z</time>
      </trkpt>
      <trkpt lat="43.43684" lon="2.48247">
        <ele>1046.7</ele>
        <time>2026-05-23T10:36:44Z</time>
      </trkpt>
      <trkpt lat="43.43684" lon="2.48239">
        <ele>1047.1</ele>
        <time>2026-05-23T10:36:49Z</time>
      </trkpt>
      <trkpt lat="43.43685" lon="2.48231">
        <ele>1047.8</ele>
        <time>2026-05-23T10:36:54Z</time>
      </trkpt>
      <trkpt lat="43.43684" lon="2.48222">
        <ele>1048.1</ele>
        <time>2026-05-23T10:36:59Z</time>
      </trkpt>
      <trkpt lat="43.43685" lon="2.48214">
        <ele>1048.7</ele>
        <time>2026-05-23T10:37:04Z</time>
      </trkpt>
      <trkpt lat="43.43686" lon="2.48206">
        <ele>1049.3</ele>
        <time>2026-05-23T10:37:09Z</time>
      </trkpt>
      <trkpt lat="43.43686" lon="2.48198">
        <ele>1049.8</ele>
        <time>2026-05-23T10:37:14Z</time>
      </trkpt>
      <trkpt lat="43.43687" lon="2.4819">
        <ele>1050.4</ele>
        <time>2026-05-23T10:37:19Z</time>
      </trkpt>
      <trkpt lat="43.43686" lon="2.48181">
        <ele>1050.7</ele>
        <time>2026-05-23T10:37:24Z</time>
      </trkpt>
      <trkpt lat="43.43686" lon="2.48174">
        <ele>1051.1</ele>
        <time>2026-05-23T10:37:29Z</time>
      </trkpt>
      <trkpt lat="43.43685" lon="2.48169">
        <ele>1051.2</ele>
        <time>2026-05-23T10:37:34Z</time>
      </trkpt>
      <trkpt lat="43.43685" lon="2.48161">
        <ele>1051.4</ele>
        <time>2026-05-23T10:37:39Z</time>
      </trkpt>
      <trkpt lat="43.43686" lon="2.48152">
        <ele>1051.8</ele>
        <time>2026-05-23T10:37:44Z</time>
      </trkpt>
      <trkpt lat="43.43688" lon="2.48143">
        <ele>1052.4</ele>
        <time>2026-05-23T10:37:49Z</time>
      </trkpt>
      <trkpt lat="43.43691" lon="2.48134">
        <ele>1053.2</ele>
        <time>2026-05-23T10:37:54Z</time>
      </trkpt>
      <trkpt lat="43.43691" lon="2.48124">
        <ele>1053.4</ele>
        <time>2026-05-23T10:37:59Z</time>
      </trkpt>
      <trkpt lat="43.43692" lon="2.48114">
        <ele>1053.8</ele>
        <time>2026-05-23T10:38:04Z</time>
      </trkpt>
      <trkpt lat="43.43692" lon="2.48107">
        <ele>1054</ele>
        <time>2026-05-23T10:38:09Z</time>
      </trkpt>
      <trkpt lat="43.43691" lon="2.48099">
        <ele>1054</ele>
        <time>2026-05-23T10:38:14Z</time>
      </trkpt>
      <trkpt lat="43.4369" lon="2.48093">
        <ele>1054</ele>
        <time>2026-05-23T10:38:19Z</time>
      </trkpt>
      <trkpt lat="43.43691" lon="2.48087">
        <ele>1054.3</ele>
        <time>2026-05-23T10:38:24Z</time>
      </trkpt>
      <trkpt lat="43.43689" lon="2.4808">
        <ele>1054.1</ele>
        <time>2026-05-23T10:38:29Z</time>
      </trkpt>
      <trkpt lat="43.43689" lon="2.4807">
        <ele>1054.5</ele>
        <time>2026-05-23T10:38:34Z</time>
      </trkpt>
      <trkpt lat="43.43689" lon="2.4806">
        <ele>1054.9</ele>
        <time>2026-05-23T10:38:39Z</time>
      </trkpt>
      <trkpt lat="43.43685" lon="2.48052">
        <ele>1054.4</ele>
        <time>2026-05-23T10:38:44Z</time>
      </trkpt>
      <trkpt lat="43.43683" lon="2.48043">
        <ele>1054.4</ele>
        <time>2026-05-23T10:38:49Z</time>
      </trkpt>
      <trkpt lat="43.43684" lon="2.48034">
        <ele>1054.9</ele>
        <time>2026-05-23T10:38:54Z</time>
      </trkpt>
      <trkpt lat="43.43683" lon="2.48025">
        <ele>1055</ele>
        <time>2026-05-23T10:38:59Z</time>
      </trkpt>
      <trkpt lat="43.43683" lon="2.48014">
        <ele>1055.4</ele>
        <time>2026-05-23T10:39:04Z</time>
      </trkpt>
      <trkpt lat="43.43681" lon="2.48005">
        <ele>1055.4</ele>
        <time>2026-05-23T10:39:09Z</time>
      </trkpt>
      <trkpt lat="43.43681" lon="2.47994">
        <ele>1055.9</ele>
        <time>2026-05-23T10:39:14Z</time>
      </trkpt>
      <trkpt lat="43.43683" lon="2.47986">
        <ele>1056.7</ele>
        <time>2026-05-23T10:39:19Z</time>
      </trkpt>
      <trkpt lat="43.43683" lon="2.47978">
        <ele>1057.2</ele>
        <time>2026-05-23T10:39:24Z</time>
      </trkpt>
      <trkpt lat="43.43682" lon="2.47968">
        <ele>1057.6</ele>
        <time>2026-05-23T10:39:29Z</time>
      </trkpt>
      <trkpt lat="43.43682" lon="2.4796">
        <ele>1058.1</ele>
        <time>2026-05-23T10:39:34Z</time>
      </trkpt>
      <trkpt lat="43.43683" lon="2.47954">
        <ele>1058.6</ele>
        <time>2026-05-23T10:39:39Z</time>
      </trkpt>
      <trkpt lat="43.43681" lon="2.47945">
        <ele>1058.8</ele>
        <time>2026-05-23T10:39:44Z</time>
      </trkpt>
      <trkpt lat="43.43678" lon="2.47935">
        <ele>1058.8</ele>
        <time>2026-05-23T10:39:49Z</time>
      </trkpt>
      <trkpt lat="43.43678" lon="2.47931">
        <ele>1059.1</ele>
        <time>2026-05-23T10:39:54Z</time>
      </trkpt>
      <trkpt lat="43.43679" lon="2.47929">
        <ele>1059.4</ele>
        <time>2026-05-23T10:39:59Z</time>
      </trkpt>
      <trkpt lat="43.43679" lon="2.47929">
        <ele>1059.4</ele>
        <time>2026-05-23T10:40:04Z</time>
      </trkpt>
      <trkpt lat="43.43679" lon="2.47929">
        <ele>1059.4</ele>
        <time>2026-05-23T10:40:09Z</time>
      </trkpt>
      <trkpt lat="43.43674" lon="2.47922">
        <ele>1058.9</ele>
        <time>2026-05-23T10:40:14Z</time>
      </trkpt>
      <trkpt lat="43.43671" lon="2.47914">
        <ele>1059</ele>
        <time>2026-05-23T10:40:19Z</time>
      </trkpt>
      <trkpt lat="43.43669" lon="2.47907">
        <ele>1059.4</ele>
        <time>2026-05-23T10:40:24Z</time>
      </trkpt>
      <trkpt lat="43.43668" lon="2.479">
        <ele>1060</ele>
        <time>2026-05-23T10:40:29Z</time>
      </trkpt>
      <trkpt lat="43.43667" lon="2.47893">
        <ele>1060.6</ele>
        <time>2026-05-23T10:40:34Z</time>
      </trkpt>
      <trkpt lat="43.43668" lon="2.47885">
        <ele>1061.6</ele>
        <time>2026-05-23T10:40:39Z</time>
      </trkpt>
      <trkpt lat="43.43669" lon="2.47879">
        <ele>1062.4</ele>
        <time>2026-05-23T10:40:44Z</time>
      </trkpt>
      <trkpt lat="43.43669" lon="2.47873">
        <ele>1063.1</ele>
        <time>2026-05-23T10:40:49Z</time>
      </trkpt>
      <trkpt lat="43.4367" lon="2.47866">
        <ele>1064</ele>
        <time>2026-05-23T10:40:54Z</time>
      </trkpt>
      <trkpt lat="43.43669" lon="2.47861">
        <ele>1064.3</ele>
        <time>2026-05-23T10:40:59Z</time>
      </trkpt>
      <trkpt lat="43.43668" lon="2.47855">
        <ele>1064.8</ele>
        <time>2026-05-23T10:41:04Z</time>
      </trkpt>
      <trkpt lat="43.43666" lon="2.47848">
        <ele>1065.2</ele>
        <time>2026-05-23T10:41:09Z</time>
      </trkpt>
      <trkpt lat="43.43665" lon="2.47841">
        <ele>1065.7</ele>
        <time>2026-05-23T10:41:14Z</time>
      </trkpt>
      <trkpt lat="43.43662" lon="2.47834">
        <ele>1065.6</ele>
        <time>2026-05-23T10:41:19Z</time>
      </trkpt>
      <trkpt lat="43.43661" lon="2.47828">
        <ele>1065.6</ele>
        <time>2026-05-23T10:41:24Z</time>
      </trkpt>
      <trkpt lat="43.43659" lon="2.47821">
        <ele>1065.3</ele>
        <time>2026-05-23T10:41:29Z</time>
      </trkpt>
      <trkpt lat="43.43659" lon="2.47815">
        <ele>1065.6</ele>
        <time>2026-05-23T10:41:34Z</time>
      </trkpt>
      <trkpt lat="43.43657" lon="2.47809">
        <ele>1065.3</ele>
        <time>2026-05-23T10:41:39Z</time>
      </trkpt>
      <trkpt lat="43.43656" lon="2.47803">
        <ele>1065.3</ele>
        <time>2026-05-23T10:41:44Z</time>
      </trkpt>
      <trkpt lat="43.43654" lon="2.47796">
        <ele>1065.2</ele>
        <time>2026-05-23T10:41:49Z</time>
      </trkpt>
      <trkpt lat="43.43654" lon="2.47791">
        <ele>1065.4</ele>
        <time>2026-05-23T10:41:54Z</time>
      </trkpt>
      <trkpt lat="43.43655" lon="2.47784">
        <ele>1066</ele>
        <time>2026-05-23T10:41:59Z</time>
      </trkpt>
      <trkpt lat="43.43656" lon="2.47777">
        <ele>1066.6</ele>
        <time>2026-05-23T10:42:04Z</time>
      </trkpt>
      <trkpt lat="43.43658" lon="2.47771">
        <ele>1067.3</ele>
        <time>2026-05-23T10:42:09Z</time>
      </trkpt>
      <trkpt lat="43.43658" lon="2.47766">
        <ele>1067.5</ele>
        <time>2026-05-23T10:42:14Z</time>
      </trkpt>
      <trkpt lat="43.43658" lon="2.47762">
        <ele>1067.7</ele>
        <time>2026-05-23T10:42:19Z</time>
      </trkpt>
      <trkpt lat="43.43657" lon="2.47757">
        <ele>1067.7</ele>
        <time>2026-05-23T10:42:24Z</time>
      </trkpt>
      <trkpt lat="43.43657" lon="2.47752">
        <ele>1067.9</ele>
        <time>2026-05-23T10:42:29Z</time>
      </trkpt>
      <trkpt lat="43.43657" lon="2.47746">
        <ele>1068.2</ele>
        <time>2026-05-23T10:42:34Z</time>
      </trkpt>
      <trkpt lat="43.43657" lon="2.47739">
        <ele>1068.5</ele>
        <time>2026-05-23T10:42:39Z</time>
      </trkpt>
      <trkpt lat="43.43656" lon="2.47733">
        <ele>1068.6</ele>
        <time>2026-05-23T10:42:44Z</time>
      </trkpt>
      <trkpt lat="43.43658" lon="2.47726">
        <ele>1069.2</ele>
        <time>2026-05-23T10:42:49Z</time>
      </trkpt>
      <trkpt lat="43.43658" lon="2.4772">
        <ele>1069.4</ele>
        <time>2026-05-23T10:42:54Z</time>
      </trkpt>
      <trkpt lat="43.4366" lon="2.47713">
        <ele>1070</ele>
        <time>2026-05-23T10:42:59Z</time>
      </trkpt>
      <trkpt lat="43.43663" lon="2.47707">
        <ele>1070.6</ele>
        <time>2026-05-23T10:43:04Z</time>
      </trkpt>
      <trkpt lat="43.43665" lon="2.477">
        <ele>1071</ele>
        <time>2026-05-23T10:43:09Z</time>
      </trkpt>
      <trkpt lat="43.43666" lon="2.47694">
        <ele>1071.3</ele>
        <time>2026-05-23T10:43:14Z</time>
      </trkpt>
      <trkpt lat="43.43668" lon="2.47687">
        <ele>1071.8</ele>
        <time>2026-05-23T10:43:19Z</time>
      </trkpt>
      <trkpt lat="43.43668" lon="2.4768">
        <ele>1071.9</ele>
        <time>2026-05-23T10:43:24Z</time>
      </trkpt>
      <trkpt lat="43.43668" lon="2.47673">
        <ele>1072.1</ele>
        <time>2026-05-23T10:43:29Z</time>
      </trkpt>
      <trkpt lat="43.43668" lon="2.47666">
        <ele>1072.3</ele>
        <time>2026-05-23T10:43:34Z</time>
      </trkpt>
      <trkpt lat="43.4367" lon="2.47663">
        <ele>1072.9</ele>
        <time>2026-05-23T10:43:39Z</time>
      </trkpt>
      <trkpt lat="43.4367" lon="2.47661">
        <ele>1073</ele>
        <time>2026-05-23T10:43:44Z</time>
      </trkpt>
      <trkpt lat="43.4367" lon="2.47661">
        <ele>1073</ele>
        <time>2026-05-23T10:43:49Z</time>
      </trkpt>
      <trkpt lat="43.4367" lon="2.47661">
        <ele>1073</ele>
        <time>2026-05-23T10:43:54Z</time>
      </trkpt>
      <trkpt lat="43.4367" lon="2.47661">
        <ele>1073</ele>
        <time>2026-05-23T10:43:59Z</time>
      </trkpt>
      <trkpt lat="43.43668" lon="2.47647">
        <ele>1073.5</ele>
        <time>2026-05-23T10:44:04Z</time>
      </trkpt>
      <trkpt lat="43.43668" lon="2.47647">
        <ele>1073.5</ele>
        <time>2026-05-23T10:44:09Z</time>
      </trkpt>
      <trkpt lat="43.43668" lon="2.47647">
        <ele>1073.5</ele>
        <time>2026-05-23T10:44:14Z</time>
      </trkpt>
      <trkpt lat="43.43668" lon="2.47647">
        <ele>1073.5</ele>
        <time>2026-05-23T10:44:19Z</time>
      </trkpt>
      <trkpt lat="43.43668" lon="2.47647">
        <ele>1073.5</ele>
        <time>2026-05-23T10:44:24Z</time>
      </trkpt>
      <trkpt lat="43.43668" lon="2.47647">
        <ele>1073.5</ele>
        <time>2026-05-23T10:44:29Z</time>
      </trkpt>
      <trkpt lat="43.43668" lon="2.47647">
        <ele>1073.5</ele>
        <time>2026-05-23T10:44:34Z</time>
      </trkpt>
      <trkpt lat="43.43668" lon="2.47647">
        <ele>1073.5</ele>
        <time>2026-05-23T10:44:39Z</time>
      </trkpt>
      <trkpt lat="43.43668" lon="2.47647">
        <ele>1073.5</ele>
        <time>2026-05-23T10:44:44Z</time>
      </trkpt>
      <trkpt lat="43.43666" lon="2.47644">
        <ele>1073.3</ele>
        <time>2026-05-23T10:44:49Z</time>
      </trkpt>
      <trkpt lat="43.43669" lon="2.47637">
        <ele>1074.3</ele>
        <time>2026-05-23T10:44:54Z</time>
      </trkpt>
      <trkpt lat="43.4367" lon="2.47631">
        <ele>1074.9</ele>
        <time>2026-05-23T10:44:59Z</time>
      </trkpt>
      <trkpt lat="43.43672" lon="2.47626">
        <ele>1075.6</ele>
        <time>2026-05-23T10:45:04Z</time>
      </trkpt>
      <trkpt lat="43.43673" lon="2.47622">
        <ele>1076.1</ele>
        <time>2026-05-23T10:45:09Z</time>
      </trkpt>
      <trkpt lat="43.43675" lon="2.47616">
        <ele>1076.9</ele>
        <time>2026-05-23T10:45:14Z</time>
      </trkpt>
      <trkpt lat="43.43676" lon="2.47609">
        <ele>1077.6</ele>
        <time>2026-05-23T10:45:19Z</time>
      </trkpt>
      <trkpt lat="43.43676" lon="2.47603">
        <ele>1078</ele>
        <time>2026-05-23T10:45:24Z</time>
      </trkpt>
      <trkpt lat="43.43675" lon="2.47596">
        <ele>1078.2</ele>
        <time>2026-05-23T10:45:29Z</time>
      </trkpt>
      <trkpt lat="43.43675" lon="2.4759">
        <ele>1078.6</ele>
        <time>2026-05-23T10:45:34Z</time>
      </trkpt>
      <trkpt lat="43.43674" lon="2.47584">
        <ele>1078.7</ele>
        <time>2026-05-23T10:45:39Z</time>
      </trkpt>
      <trkpt lat="43.43673" lon="2.47578">
        <ele>1079.2</ele>
        <time>2026-05-23T10:45:44Z</time>
      </trkpt>
      <trkpt lat="43.43672" lon="2.47575">
        <ele>1079.3</ele>
        <time>2026-05-23T10:45:49Z</time>
      </trkpt>
      <trkpt lat="43.43671" lon="2.47571">
        <ele>1079.5</ele>
        <time>2026-05-23T10:45:54Z</time>
      </trkpt>
      <trkpt lat="43.43671" lon="2.47571">
        <ele>1079.5</ele>
        <time>2026-05-23T10:45:59Z</time>
      </trkpt>
      <trkpt lat="43.43671" lon="2.47563">
        <ele>1080.5</ele>
        <time>2026-05-23T10:46:04Z</time>
      </trkpt>
      <trkpt lat="43.43672" lon="2.47559">
        <ele>1081.2</ele>
        <time>2026-05-23T10:46:09Z</time>
      </trkpt>
      <trkpt lat="43.43671" lon="2.47552">
        <ele>1081.8</ele>
        <time>2026-05-23T10:46:14Z</time>
      </trkpt>
      <trkpt lat="43.4367" lon="2.47546">
        <ele>1082.2</ele>
        <time>2026-05-23T10:46:19Z</time>
      </trkpt>
      <trkpt lat="43.43674" lon="2.47541">
        <ele>1083.8</ele>
        <time>2026-05-23T10:46:24Z</time>
      </trkpt>
      <trkpt lat="43.43674" lon="2.47536">
        <ele>1084.3</ele>
        <time>2026-05-23T10:46:29Z</time>
      </trkpt>
      <trkpt lat="43.43674" lon="2.47531">
        <ele>1084.9</ele>
        <time>2026-05-23T10:46:34Z</time>
      </trkpt>
      <trkpt lat="43.43677" lon="2.47528">
        <ele>1086</ele>
        <time>2026-05-23T10:46:39Z</time>
      </trkpt>
      <trkpt lat="43.43681" lon="2.47523">
        <ele>1087.4</ele>
        <time>2026-05-23T10:46:44Z</time>
      </trkpt>
      <trkpt lat="43.43686" lon="2.4752">
        <ele>1088.9</ele>
        <time>2026-05-23T10:46:49Z</time>
      </trkpt>
      <trkpt lat="43.4369" lon="2.47518">
        <ele>1090</ele>
        <time>2026-05-23T10:46:54Z</time>
      </trkpt>
      <trkpt lat="43.43692" lon="2.47515">
        <ele>1090.8</ele>
        <time>2026-05-23T10:46:59Z</time>
      </trkpt>
      <trkpt lat="43.43695" lon="2.47512">
        <ele>1091.8</ele>
        <time>2026-05-23T10:47:04Z</time>
      </trkpt>
      <trkpt lat="43.43699" lon="2.4751">
        <ele>1092.9</ele>
        <time>2026-05-23T10:47:09Z</time>
      </trkpt>
      <trkpt lat="43.43705" lon="2.47507">
        <ele>1094.5</ele>
        <time>2026-05-23T10:47:14Z</time>
      </trkpt>
      <trkpt lat="43.43709" lon="2.47502">
        <ele>1095.9</ele>
        <time>2026-05-23T10:47:19Z</time>
      </trkpt>
      <trkpt lat="43.43713" lon="2.47498">
        <ele>1097.4</ele>
        <time>2026-05-23T10:47:24Z</time>
      </trkpt>
      <trkpt lat="43.43716" lon="2.47493">
        <ele>1099</ele>
        <time>2026-05-23T10:47:29Z</time>
      </trkpt>
      <trkpt lat="43.43718" lon="2.47487">
        <ele>1100.6</ele>
        <time>2026-05-23T10:47:34Z</time>
      </trkpt>
      <trkpt lat="43.43722" lon="2.47483">
        <ele>1102.2</ele>
        <time>2026-05-23T10:47:39Z</time>
      </trkpt>
      <trkpt lat="43.43725" lon="2.4748">
        <ele>1103.3</ele>
        <time>2026-05-23T10:47:44Z</time>
      </trkpt>
      <trkpt lat="43.43727" lon="2.47475">
        <ele>1104.6</ele>
        <time>2026-05-23T10:47:49Z</time>
      </trkpt>
      <trkpt lat="43.43728" lon="2.47469">
        <ele>1105.9</ele>
        <time>2026-05-23T10:47:54Z</time>
      </trkpt>
      <trkpt lat="43.43729" lon="2.47463">
        <ele>1107.2</ele>
        <time>2026-05-23T10:47:59Z</time>
      </trkpt>
      <trkpt lat="43.4373" lon="2.47458">
        <ele>1108.3</ele>
        <time>2026-05-23T10:48:04Z</time>
      </trkpt>
      <trkpt lat="43.43729" lon="2.4745">
        <ele>1109.6</ele>
        <time>2026-05-23T10:48:09Z</time>
      </trkpt>
      <trkpt lat="43.4373" lon="2.47446">
        <ele>1110.5</ele>
        <time>2026-05-23T10:48:14Z</time>
      </trkpt>
      <trkpt lat="43.43731" lon="2.47444">
        <ele>1111.1</ele>
        <time>2026-05-23T10:48:19Z</time>
      </trkpt>
      <trkpt lat="43.43728" lon="2.47436">
        <ele>1112</ele>
        <time>2026-05-23T10:48:24Z</time>
      </trkpt>
      <trkpt lat="43.43724" lon="2.47434">
        <ele>1111.7</ele>
        <time>2026-05-23T10:48:29Z</time>
      </trkpt>
      <trkpt lat="43.4372" lon="2.47433">
        <ele>1111.2</ele>
        <time>2026-05-23T10:48:34Z</time>
      </trkpt>
      <trkpt lat="43.43717" lon="2.4743">
        <ele>1111.3</ele>
        <time>2026-05-23T10:48:39Z</time>
      </trkpt>
      <trkpt lat="43.43711" lon="2.47429">
        <ele>1110.5</ele>
        <time>2026-05-23T10:48:44Z</time>
      </trkpt>
      <trkpt lat="43.43708" lon="2.47429">
        <ele>1110</ele>
        <time>2026-05-23T10:48:49Z</time>
      </trkpt>
      <trkpt lat="43.43705" lon="2.47429">
        <ele>1109.5</ele>
        <time>2026-05-23T10:48:54Z</time>
      </trkpt>
      <trkpt lat="43.43701" lon="2.47427">
        <ele>1109.3</ele>
        <time>2026-05-23T10:48:59Z</time>
      </trkpt>
      <trkpt lat="43.43696" lon="2.47424">
        <ele>1109.1</ele>
        <time>2026-05-23T10:49:04Z</time>
      </trkpt>
      <trkpt lat="43.43692" lon="2.47421">
        <ele>1109</ele>
        <time>2026-05-23T10:49:09Z</time>
      </trkpt>
      <trkpt lat="43.43686" lon="2.47417">
        <ele>1108.9</ele>
        <time>2026-05-23T10:49:14Z</time>
      </trkpt>
      <trkpt lat="43.4368" lon="2.47413">
        <ele>1108.9</ele>
        <time>2026-05-23T10:49:19Z</time>
      </trkpt>
      <trkpt lat="43.43676" lon="2.4741">
        <ele>1108.9</ele>
        <time>2026-05-23T10:49:24Z</time>
      </trkpt>
      <trkpt lat="43.4367" lon="2.47409">
        <ele>1108.2</ele>
        <time>2026-05-23T10:49:29Z</time>
      </trkpt>
      <trkpt lat="43.43667" lon="2.47406">
        <ele>1108.4</ele>
        <time>2026-05-23T10:49:34Z</time>
      </trkpt>
      <trkpt lat="43.43663" lon="2.47405">
        <ele>1108.4</ele>
        <time>2026-05-23T10:49:39Z</time>
      </trkpt>
      <trkpt lat="43.43656" lon="2.47402">
        <ele>1108.9</ele>
        <time>2026-05-23T10:49:44Z</time>
      </trkpt>
      <trkpt lat="43.43652" lon="2.474">
        <ele>1109.1</ele>
        <time>2026-05-23T10:49:49Z</time>
      </trkpt>
      <trkpt lat="43.43648" lon="2.47396">
        <ele>1109.8</ele>
        <time>2026-05-23T10:49:54Z</time>
      </trkpt>
      <trkpt lat="43.43644" lon="2.47392">
        <ele>1110.4</ele>
        <time>2026-05-23T10:49:59Z</time>
      </trkpt>
      <trkpt lat="43.43641" lon="2.47388">
        <ele>1111</ele>
        <time>2026-05-23T10:50:04Z</time>
      </trkpt>
      <trkpt lat="43.43637" lon="2.47381">
        <ele>1112.1</ele>
        <time>2026-05-23T10:50:09Z</time>
      </trkpt>
      <trkpt lat="43.43632" lon="2.47375">
        <ele>1112.9</ele>
        <time>2026-05-23T10:50:14Z</time>
      </trkpt>
      <trkpt lat="43.43627" lon="2.47368">
        <ele>1113.8</ele>
        <time>2026-05-23T10:50:19Z</time>
      </trkpt>
      <trkpt lat="43.43622" lon="2.47362">
        <ele>1114.5</ele>
        <time>2026-05-23T10:50:24Z</time>
      </trkpt>
      <trkpt lat="43.43618" lon="2.47354">
        <ele>1115.4</ele>
        <time>2026-05-23T10:50:29Z</time>
      </trkpt>
      <trkpt lat="43.43616" lon="2.47348">
        <ele>1116.2</ele>
        <time>2026-05-23T10:50:34Z</time>
      </trkpt>
      <trkpt lat="43.43612" lon="2.4734">
        <ele>1117.1</ele>
        <time>2026-05-23T10:50:39Z</time>
      </trkpt>
      <trkpt lat="43.43606" lon="2.47331">
        <ele>1117.7</ele>
        <time>2026-05-23T10:50:44Z</time>
      </trkpt>
      <trkpt lat="43.43602" lon="2.47323">
        <ele>1118.3</ele>
        <time>2026-05-23T10:50:49Z</time>
      </trkpt>
      <trkpt lat="43.436" lon="2.47317">
        <ele>1118.8</ele>
        <time>2026-05-23T10:50:54Z</time>
      </trkpt>
      <trkpt lat="43.436" lon="2.47309">
        <ele>1119.7</ele>
        <time>2026-05-23T10:50:59Z</time>
      </trkpt>
      <trkpt lat="43.43599" lon="2.473">
        <ele>1120.7</ele>
        <time>2026-05-23T10:51:04Z</time>
      </trkpt>
      <trkpt lat="43.43597" lon="2.47291">
        <ele>1121.6</ele>
        <time>2026-05-23T10:51:09Z</time>
      </trkpt>
      <trkpt lat="43.43595" lon="2.47285">
        <ele>1122.1</ele>
        <time>2026-05-23T10:51:14Z</time>
      </trkpt>
      <trkpt lat="43.43593" lon="2.47278">
        <ele>1122.7</ele>
        <time>2026-05-23T10:51:19Z</time>
      </trkpt>
      <trkpt lat="43.43593" lon="2.4727">
        <ele>1123.6</ele>
        <time>2026-05-23T10:51:24Z</time>
      </trkpt>
      <trkpt lat="43.43592" lon="2.47262">
        <ele>1124.5</ele>
        <time>2026-05-23T10:51:29Z</time>
      </trkpt>
      <trkpt lat="43.4359" lon="2.47254">
        <ele>1125.2</ele>
        <time>2026-05-23T10:51:34Z</time>
      </trkpt>
      <trkpt lat="43.43588" lon="2.47249">
        <ele>1125.6</ele>
        <time>2026-05-23T10:51:39Z</time>
      </trkpt>
      <trkpt lat="43.43583" lon="2.47244">
        <ele>1125.9</ele>
        <time>2026-05-23T10:51:44Z</time>
      </trkpt>
      <trkpt lat="43.4358" lon="2.47239">
        <ele>1127.1</ele>
        <time>2026-05-23T10:51:49Z</time>
      </trkpt>
      <trkpt lat="43.43576" lon="2.47234">
        <ele>1128.4</ele>
        <time>2026-05-23T10:51:54Z</time>
      </trkpt>
      <trkpt lat="43.43571" lon="2.47228">
        <ele>1129.9</ele>
        <time>2026-05-23T10:51:59Z</time>
      </trkpt>
      <trkpt lat="43.43566" lon="2.47225">
        <ele>1131.1</ele>
        <time>2026-05-23T10:52:04Z</time>
      </trkpt>
      <trkpt lat="43.43562" lon="2.47219">
        <ele>1132.4</ele>
        <time>2026-05-23T10:52:09Z</time>
      </trkpt>
      <trkpt lat="43.43559" lon="2.47214">
        <ele>1133.5</ele>
        <time>2026-05-23T10:52:14Z</time>
      </trkpt>
      <trkpt lat="43.43557" lon="2.47209">
        <ele>1134.4</ele>
        <time>2026-05-23T10:52:19Z</time>
      </trkpt>
      <trkpt lat="43.43554" lon="2.47205">
        <ele>1135.3</ele>
        <time>2026-05-23T10:52:24Z</time>
      </trkpt>
      <trkpt lat="43.43552" lon="2.47199">
        <ele>1136.3</ele>
        <time>2026-05-23T10:52:29Z</time>
      </trkpt>
      <trkpt lat="43.4355" lon="2.47193">
        <ele>1137.3</ele>
        <time>2026-05-23T10:52:34Z</time>
      </trkpt>
      <trkpt lat="43.43548" lon="2.47187">
        <ele>1138.3</ele>
        <time>2026-05-23T10:52:39Z</time>
      </trkpt>
      <trkpt lat="43.43548" lon="2.47182">
        <ele>1138.9</ele>
        <time>2026-05-23T10:52:44Z</time>
      </trkpt>
      <trkpt lat="43.43547" lon="2.47177">
        <ele>1139.7</ele>
        <time>2026-05-23T10:52:49Z</time>
      </trkpt>
      <trkpt lat="43.43548" lon="2.4717">
        <ele>1140.4</ele>
        <time>2026-05-23T10:52:54Z</time>
      </trkpt>
      <trkpt lat="43.43547" lon="2.47163">
        <ele>1141.5</ele>
        <time>2026-05-23T10:52:59Z</time>
      </trkpt>
      <trkpt lat="43.43546" lon="2.47156">
        <ele>1142.8</ele>
        <time>2026-05-23T10:53:04Z</time>
      </trkpt>
      <trkpt lat="43.43546" lon="2.4715">
        <ele>1143.7</ele>
        <time>2026-05-23T10:53:09Z</time>
      </trkpt>
      <trkpt lat="43.43549" lon="2.47144">
        <ele>1144.4</ele>
        <time>2026-05-23T10:53:14Z</time>
      </trkpt>
      <trkpt lat="43.43553" lon="2.4714">
        <ele>1144.6</ele>
        <time>2026-05-23T10:53:19Z</time>
      </trkpt>
      <trkpt lat="43.43556" lon="2.47136">
        <ele>1145</ele>
        <time>2026-05-23T10:53:24Z</time>
      </trkpt>
      <trkpt lat="43.43558" lon="2.47132">
        <ele>1145.4</ele>
        <time>2026-05-23T10:53:29Z</time>
      </trkpt>
      <trkpt lat="43.43561" lon="2.47129">
        <ele>1145.6</ele>
        <time>2026-05-23T10:53:34Z</time>
      </trkpt>
      <trkpt lat="43.43563" lon="2.47128">
        <ele>1145.6</ele>
        <time>2026-05-23T10:53:39Z</time>
      </trkpt>
      <trkpt lat="43.43566" lon="2.47123">
        <ele>1146.1</ele>
        <time>2026-05-23T10:53:44Z</time>
      </trkpt>
      <trkpt lat="43.43568" lon="2.47119">
        <ele>1146.6</ele>
        <time>2026-05-23T10:53:49Z</time>
      </trkpt>
      <trkpt lat="43.43569" lon="2.47118">
        <ele>1146.6</ele>
        <time>2026-05-23T10:53:54Z</time>
      </trkpt>
      <trkpt lat="43.4357" lon="2.47113">
        <ele>1147.4</ele>
        <time>2026-05-23T10:53:59Z</time>
      </trkpt>
      <trkpt lat="43.4357" lon="2.47107">
        <ele>1148.3</ele>
        <time>2026-05-23T10:54:04Z</time>
      </trkpt>
      <trkpt lat="43.43571" lon="2.47103">
        <ele>1148.9</ele>
        <time>2026-05-23T10:54:09Z</time>
      </trkpt>
      <trkpt lat="43.43572" lon="2.47098">
        <ele>1149.6</ele>
        <time>2026-05-23T10:54:14Z</time>
      </trkpt>
      <trkpt lat="43.43573" lon="2.47094">
        <ele>1150.2</ele>
        <time>2026-05-23T10:54:19Z</time>
      </trkpt>
      <trkpt lat="43.43572" lon="2.47088">
        <ele>1151.3</ele>
        <time>2026-05-23T10:54:24Z</time>
      </trkpt>
      <trkpt lat="43.43566" lon="2.47081">
        <ele>1152.8</ele>
        <time>2026-05-23T10:54:29Z</time>
      </trkpt>
      <trkpt lat="43.43563" lon="2.47074">
        <ele>1153.5</ele>
        <time>2026-05-23T10:54:34Z</time>
      </trkpt>
      <trkpt lat="43.43559" lon="2.4707">
        <ele>1154.1</ele>
        <time>2026-05-23T10:54:39Z</time>
      </trkpt>
      <trkpt lat="43.43556" lon="2.47066">
        <ele>1154.6</ele>
        <time>2026-05-23T10:54:44Z</time>
      </trkpt>
      <trkpt lat="43.43553" lon="2.47059">
        <ele>1155.3</ele>
        <time>2026-05-23T10:54:49Z</time>
      </trkpt>
      <trkpt lat="43.4355" lon="2.47053">
        <ele>1155.9</ele>
        <time>2026-05-23T10:54:54Z</time>
      </trkpt>
      <trkpt lat="43.43548" lon="2.47047">
        <ele>1156.4</ele>
        <time>2026-05-23T10:54:59Z</time>
      </trkpt>
      <trkpt lat="43.43545" lon="2.4704">
        <ele>1157</ele>
        <time>2026-05-23T10:55:04Z</time>
      </trkpt>
      <trkpt lat="43.43543" lon="2.47034">
        <ele>1157.5</ele>
        <time>2026-05-23T10:55:09Z</time>
      </trkpt>
      <trkpt lat="43.43544" lon="2.47027">
        <ele>1157.8</ele>
        <time>2026-05-23T10:55:14Z</time>
      </trkpt>
      <trkpt lat="43.43545" lon="2.47022">
        <ele>1158</ele>
        <time>2026-05-23T10:55:19Z</time>
      </trkpt>
      <trkpt lat="43.43545" lon="2.47017">
        <ele>1158.3</ele>
        <time>2026-05-23T10:55:24Z</time>
      </trkpt>
      <trkpt lat="43.43544" lon="2.47013">
        <ele>1158.6</ele>
        <time>2026-05-23T10:55:29Z</time>
      </trkpt>
      <trkpt lat="43.43543" lon="2.47005">
        <ele>1159.1</ele>
        <time>2026-05-23T10:55:34Z</time>
      </trkpt>
      <trkpt lat="43.43541" lon="2.46997">
        <ele>1159.4</ele>
        <time>2026-05-23T10:55:39Z</time>
      </trkpt>
      <trkpt lat="43.4354" lon="2.4699">
        <ele>1159.1</ele>
        <time>2026-05-23T10:55:44Z</time>
      </trkpt>
      <trkpt lat="43.43537" lon="2.46982">
        <ele>1158.9</ele>
        <time>2026-05-23T10:55:49Z</time>
      </trkpt>
      <trkpt lat="43.43534" lon="2.46973">
        <ele>1158.6</ele>
        <time>2026-05-23T10:55:54Z</time>
      </trkpt>
      <trkpt lat="43.43532" lon="2.46964">
        <ele>1158.2</ele>
        <time>2026-05-23T10:55:59Z</time>
      </trkpt>
      <trkpt lat="43.4353" lon="2.46956">
        <ele>1157.9</ele>
        <time>2026-05-23T10:56:04Z</time>
      </trkpt>
      <trkpt lat="43.43525" lon="2.46949">
        <ele>1157.8</ele>
        <time>2026-05-23T10:56:09Z</time>
      </trkpt>
      <trkpt lat="43.43524" lon="2.46943">
        <ele>1157.5</ele>
        <time>2026-05-23T10:56:14Z</time>
      </trkpt>
      <trkpt lat="43.43522" lon="2.46936">
        <ele>1157.2</ele>
        <time>2026-05-23T10:56:19Z</time>
      </trkpt>
      <trkpt lat="43.4352" lon="2.46931">
        <ele>1156.9</ele>
        <time>2026-05-23T10:56:24Z</time>
      </trkpt>
      <trkpt lat="43.4352" lon="2.46934">
        <ele>1157.1</ele>
        <time>2026-05-23T10:56:29Z</time>
      </trkpt>
      <trkpt lat="43.43518" lon="2.46942">
        <ele>1157.8</ele>
        <time>2026-05-23T10:56:34Z</time>
      </trkpt>
      <trkpt lat="43.43518" lon="2.46948">
        <ele>1158.1</ele>
        <time>2026-05-23T10:56:39Z</time>
      </trkpt>
      <trkpt lat="43.43518" lon="2.46955">
        <ele>1158.6</ele>
        <time>2026-05-23T10:56:44Z</time>
      </trkpt>
      <trkpt lat="43.43518" lon="2.46957">
        <ele>1158.7</ele>
        <time>2026-05-23T10:56:49Z</time>
      </trkpt>
      <trkpt lat="43.43517" lon="2.46957">
        <ele>1158.8</ele>
        <time>2026-05-23T10:56:54Z</time>
      </trkpt>
      <trkpt lat="43.43515" lon="2.46952">
        <ele>1158.6</ele>
        <time>2026-05-23T10:56:59Z</time>
      </trkpt>
      <trkpt lat="43.43515" lon="2.46941">
        <ele>1157.9</ele>
        <time>2026-05-23T10:57:04Z</time>
      </trkpt>
      <trkpt lat="43.43516" lon="2.46929">
        <ele>1157</ele>
        <time>2026-05-23T10:57:09Z</time>
      </trkpt>
      <trkpt lat="43.43516" lon="2.46921">
        <ele>1156.5</ele>
        <time>2026-05-23T10:57:14Z</time>
      </trkpt>
      <trkpt lat="43.43518" lon="2.46913">
        <ele>1155.9</ele>
        <time>2026-05-23T10:57:19Z</time>
      </trkpt>
      <trkpt lat="43.4352" lon="2.46905">
        <ele>1155.4</ele>
        <time>2026-05-23T10:57:24Z</time>
      </trkpt>
      <trkpt lat="43.43521" lon="2.46897">
        <ele>1154.9</ele>
        <time>2026-05-23T10:57:29Z</time>
      </trkpt>
      <trkpt lat="43.43523" lon="2.46888">
        <ele>1154.4</ele>
        <time>2026-05-23T10:57:34Z</time>
      </trkpt>
      <trkpt lat="43.43522" lon="2.46878">
        <ele>1153.9</ele>
        <time>2026-05-23T10:57:39Z</time>
      </trkpt>
      <trkpt lat="43.43522" lon="2.46869">
        <ele>1153.4</ele>
        <time>2026-05-23T10:57:44Z</time>
      </trkpt>
      <trkpt lat="43.43525" lon="2.46859">
        <ele>1152.8</ele>
        <time>2026-05-23T10:57:49Z</time>
      </trkpt>
      <trkpt lat="43.43527" lon="2.4685">
        <ele>1152.2</ele>
        <time>2026-05-23T10:57:54Z</time>
      </trkpt>
      <trkpt lat="43.43531" lon="2.46839">
        <ele>1151.5</ele>
        <time>2026-05-23T10:57:59Z</time>
      </trkpt>
      <trkpt lat="43.43535" lon="2.46829">
        <ele>1150.9</ele>
        <time>2026-05-23T10:58:04Z</time>
      </trkpt>
      <trkpt lat="43.43539" lon="2.46817">
        <ele>1150</ele>
        <time>2026-05-23T10:58:09Z</time>
      </trkpt>
      <trkpt lat="43.43542" lon="2.46808">
        <ele>1149.3</ele>
        <time>2026-05-23T10:58:14Z</time>
      </trkpt>
      <trkpt lat="43.43546" lon="2.468">
        <ele>1148.7</ele>
        <time>2026-05-23T10:58:19Z</time>
      </trkpt>
      <trkpt lat="43.43548" lon="2.46792">
        <ele>1148.1</ele>
        <time>2026-05-23T10:58:24Z</time>
      </trkpt>
      <trkpt lat="43.43551" lon="2.46786">
        <ele>1147.6</ele>
        <time>2026-05-23T10:58:29Z</time>
      </trkpt>
      <trkpt lat="43.43558" lon="2.46777">
        <ele>1146.8</ele>
        <time>2026-05-23T10:58:34Z</time>
      </trkpt>
      <trkpt lat="43.43563" lon="2.4677">
        <ele>1146.1</ele>
        <time>2026-05-23T10:58:39Z</time>
      </trkpt>
      <trkpt lat="43.43569" lon="2.46766">
        <ele>1145.6</ele>
        <time>2026-05-23T10:58:44Z</time>
      </trkpt>
      <trkpt lat="43.43577" lon="2.4676">
        <ele>1144.9</ele>
        <time>2026-05-23T10:58:49Z</time>
      </trkpt>
      <trkpt lat="43.43581" lon="2.46756">
        <ele>1144.5</ele>
        <time>2026-05-23T10:58:54Z</time>
      </trkpt>
      <trkpt lat="43.43585" lon="2.46754">
        <ele>1144.4</ele>
        <time>2026-05-23T10:58:59Z</time>
      </trkpt>
      <trkpt lat="43.43591" lon="2.46748">
        <ele>1144.2</ele>
        <time>2026-05-23T10:59:04Z</time>
      </trkpt>
      <trkpt lat="43.43597" lon="2.46743">
        <ele>1144.2</ele>
        <time>2026-05-23T10:59:09Z</time>
      </trkpt>
      <trkpt lat="43.43602" lon="2.46737">
        <ele>1144</ele>
        <time>2026-05-23T10:59:14Z</time>
      </trkpt>
      <trkpt lat="43.43609" lon="2.46733">
        <ele>1144</ele>
        <time>2026-05-23T10:59:19Z</time>
      </trkpt>
      <trkpt lat="43.43613" lon="2.46725">
        <ele>1143.6</ele>
        <time>2026-05-23T10:59:24Z</time>
      </trkpt>
      <trkpt lat="43.43619" lon="2.46717">
        <ele>1143.2</ele>
        <time>2026-05-23T10:59:29Z</time>
      </trkpt>
      <trkpt lat="43.43621" lon="2.46707">
        <ele>1142.5</ele>
        <time>2026-05-23T10:59:34Z</time>
      </trkpt>
      <trkpt lat="43.43622" lon="2.46698">
        <ele>1141.9</ele>
        <time>2026-05-23T10:59:39Z</time>
      </trkpt>
      <trkpt lat="43.43625" lon="2.46693">
        <ele>1141.6</ele>
        <time>2026-05-23T10:59:44Z</time>
      </trkpt>
      <trkpt lat="43.43625" lon="2.46691">
        <ele>1141.4</ele>
        <time>2026-05-23T10:59:49Z</time>
      </trkpt>
      <trkpt lat="43.43625" lon="2.46691">
        <ele>1141.4</ele>
        <time>2026-05-23T10:59:54Z</time>
      </trkpt>
      <trkpt lat="43.43625" lon="2.46691">
        <ele>1141.4</ele>
        <time>2026-05-23T10:59:59Z</time>
      </trkpt>
      <trkpt lat="43.43625" lon="2.46691">
        <ele>1141.4</ele>
        <time>2026-05-23T11:00:04Z</time>
      </trkpt>
      <trkpt lat="43.43625" lon="2.46691">
        <ele>1141.4</ele>
        <time>2026-05-23T11:00:09Z</time>
      </trkpt>
      <trkpt lat="43.43625" lon="2.46691">
        <ele>1141.4</ele>
        <time>2026-05-23T11:00:14Z</time>
      </trkpt>
      <trkpt lat="43.43625" lon="2.46691">
        <ele>1141.4</ele>
        <time>2026-05-23T11:00:19Z</time>
      </trkpt>
      <trkpt lat="43.43625" lon="2.46691">
        <ele>1141.4</ele>
        <time>2026-05-23T11:00:24Z</time>
      </trkpt>
      <trkpt lat="43.43625" lon="2.46691">
        <ele>1141.4</ele>
        <time>2026-05-23T11:00:29Z</time>
      </trkpt>
      <trkpt lat="43.43625" lon="2.46691">
        <ele>1141.4</ele>
        <time>2026-05-23T11:00:34Z</time>
      </trkpt>
      <trkpt lat="43.43625" lon="2.46691">
        <ele>1141.4</ele>
        <time>2026-05-23T11:00:39Z</time>
      </trkpt>
      <trkpt lat="43.43625" lon="2.46691">
        <ele>1141.4</ele>
        <time>2026-05-23T11:00:44Z</time>
      </trkpt>
      <trkpt lat="43.43621" lon="2.46679">
        <ele>1140.4</ele>
        <time>2026-05-23T11:00:49Z</time>
      </trkpt>
      <trkpt lat="43.43621" lon="2.46679">
        <ele>1140.4</ele>
        <time>2026-05-23T11:00:54Z</time>
      </trkpt>
      <trkpt lat="43.43621" lon="2.46679">
        <ele>1140.4</ele>
        <time>2026-05-23T11:00:59Z</time>
      </trkpt>
      <trkpt lat="43.43621" lon="2.46679">
        <ele>1140.4</ele>
        <time>2026-05-23T11:01:04Z</time>
      </trkpt>
      <trkpt lat="43.43621" lon="2.46679">
        <ele>1140.4</ele>
        <time>2026-05-23T11:01:09Z</time>
      </trkpt>
      <trkpt lat="43.43621" lon="2.46679">
        <ele>1140.4</ele>
        <time>2026-05-23T11:01:14Z</time>
      </trkpt>
      <trkpt lat="43.43621" lon="2.46679">
        <ele>1140.4</ele>
        <time>2026-05-23T11:01:19Z</time>
      </trkpt>
      <trkpt lat="43.43621" lon="2.46679">
        <ele>1140.4</ele>
        <time>2026-05-23T11:01:24Z</time>
      </trkpt>
      <trkpt lat="43.43621" lon="2.46679">
        <ele>1140.4</ele>
        <time>2026-05-23T11:01:29Z</time>
      </trkpt>
      <trkpt lat="43.43621" lon="2.46679">
        <ele>1140.4</ele>
        <time>2026-05-23T11:01:34Z</time>
      </trkpt>
      <trkpt lat="43.43621" lon="2.46679">
        <ele>1140.4</ele>
        <time>2026-05-23T11:01:39Z</time>
      </trkpt>
      <trkpt lat="43.43621" lon="2.46679">
        <ele>1140.4</ele>
        <time>2026-05-23T11:01:44Z</time>
      </trkpt>
      <trkpt lat="43.43621" lon="2.46679">
        <ele>1140.4</ele>
        <time>2026-05-23T11:01:49Z</time>
      </trkpt>
      <trkpt lat="43.43621" lon="2.46679">
        <ele>1140.4</ele>
        <time>2026-05-23T11:01:54Z</time>
      </trkpt>
      <trkpt lat="43.43621" lon="2.46679">
        <ele>1140.4</ele>
        <time>2026-05-23T11:01:59Z</time>
      </trkpt>
      <trkpt lat="43.43621" lon="2.46679">
        <ele>1140.4</ele>
        <time>2026-05-23T11:02:04Z</time>
      </trkpt>
      <trkpt lat="43.43621" lon="2.46679">
        <ele>1140.4</ele>
        <time>2026-05-23T11:02:09Z</time>
      </trkpt>
      <trkpt lat="43.43621" lon="2.46679">
        <ele>1140.4</ele>
        <time>2026-05-23T11:02:14Z</time>
      </trkpt>
      <trkpt lat="43.43621" lon="2.46679">
        <ele>1140.4</ele>
        <time>2026-05-23T11:02:19Z</time>
      </trkpt>
      <trkpt lat="43.43621" lon="2.46679">
        <ele>1140.4</ele>
        <time>2026-05-23T11:02:24Z</time>
      </trkpt>
      <trkpt lat="43.43621" lon="2.46679">
        <ele>1140.4</ele>
        <time>2026-05-23T11:02:29Z</time>
      </trkpt>
      <trkpt lat="43.43621" lon="2.46679">
        <ele>1140.4</ele>
        <time>2026-05-23T11:02:34Z</time>
      </trkpt>
      <trkpt lat="43.43621" lon="2.46679">
        <ele>1140.4</ele>
        <time>2026-05-23T11:02:39Z</time>
      </trkpt>
      <trkpt lat="43.43621" lon="2.46679">
        <ele>1140.4</ele>
        <time>2026-05-23T11:02:44Z</time>
      </trkpt>
      <trkpt lat="43.43621" lon="2.46679">
        <ele>1140.4</ele>
        <time>2026-05-23T11:02:49Z</time>
      </trkpt>
      <trkpt lat="43.43621" lon="2.46679">
        <ele>1140.4</ele>
        <time>2026-05-23T11:02:54Z</time>
      </trkpt>
      <trkpt lat="43.43621" lon="2.46679">
        <ele>1140.4</ele>
        <time>2026-05-23T11:02:59Z</time>
      </trkpt>
      <trkpt lat="43.43621" lon="2.46679">
        <ele>1140.4</ele>
        <time>2026-05-23T11:03:04Z</time>
      </trkpt>
      <trkpt lat="43.43621" lon="2.46679">
        <ele>1140.4</ele>
        <time>2026-05-23T11:03:09Z</time>
      </trkpt>
      <trkpt lat="43.43621" lon="2.46679">
        <ele>1140.4</ele>
        <time>2026-05-23T11:03:14Z</time>
      </trkpt>
      <trkpt lat="43.43621" lon="2.46679">
        <ele>1140.4</ele>
        <time>2026-05-23T11:03:19Z</time>
      </trkpt>
      <trkpt lat="43.43621" lon="2.46679">
        <ele>1140.4</ele>
        <time>2026-05-23T11:03:24Z</time>
      </trkpt>
      <trkpt lat="43.43621" lon="2.46679">
        <ele>1140.4</ele>
        <time>2026-05-23T11:03:29Z</time>
      </trkpt>
      <trkpt lat="43.43621" lon="2.46679">
        <ele>1140.4</ele>
        <time>2026-05-23T11:03:34Z</time>
      </trkpt>
      <trkpt lat="43.43621" lon="2.46679">
        <ele>1140.4</ele>
        <time>2026-05-23T11:03:39Z</time>
      </trkpt>
      <trkpt lat="43.43621" lon="2.46679">
        <ele>1140.4</ele>
        <time>2026-05-23T11:03:44Z</time>
      </trkpt>
      <trkpt lat="43.43621" lon="2.46679">
        <ele>1140.4</ele>
        <time>2026-05-23T11:03:49Z</time>
      </trkpt>
      <trkpt lat="43.43621" lon="2.46679">
        <ele>1140.4</ele>
        <time>2026-05-23T11:03:54Z</time>
      </trkpt>
      <trkpt lat="43.43621" lon="2.46679">
        <ele>1140.4</ele>
        <time>2026-05-23T11:03:59Z</time>
      </trkpt>
      <trkpt lat="43.43621" lon="2.46679">
        <ele>1140.4</ele>
        <time>2026-05-23T11:04:04Z</time>
      </trkpt>
      <trkpt lat="43.43621" lon="2.46679">
        <ele>1140.4</ele>
        <time>2026-05-23T11:04:09Z</time>
      </trkpt>
      <trkpt lat="43.43621" lon="2.46679">
        <ele>1140.4</ele>
        <time>2026-05-23T11:04:14Z</time>
      </trkpt>
      <trkpt lat="43.43621" lon="2.46679">
        <ele>1140.4</ele>
        <time>2026-05-23T11:04:19Z</time>
      </trkpt>
      <trkpt lat="43.43621" lon="2.46679">
        <ele>1140.4</ele>
        <time>2026-05-23T11:04:24Z</time>
      </trkpt>
      <trkpt lat="43.43621" lon="2.46679">
        <ele>1140.4</ele>
        <time>2026-05-23T11:04:29Z</time>
      </trkpt>
      <trkpt lat="43.43621" lon="2.46679">
        <ele>1140.4</ele>
        <time>2026-05-23T11:04:34Z</time>
      </trkpt>
      <trkpt lat="43.43621" lon="2.46679">
        <ele>1140.4</ele>
        <time>2026-05-23T11:04:39Z</time>
      </trkpt>
      <trkpt lat="43.43621" lon="2.46679">
        <ele>1140.4</ele>
        <time>2026-05-23T11:04:44Z</time>
      </trkpt>
      <trkpt lat="43.43621" lon="2.46679">
        <ele>1140.4</ele>
        <time>2026-05-23T11:04:49Z</time>
      </trkpt>
      <trkpt lat="43.43621" lon="2.46679">
        <ele>1140.4</ele>
        <time>2026-05-23T11:04:54Z</time>
      </trkpt>
      <trkpt lat="43.43621" lon="2.46679">
        <ele>1140.4</ele>
        <time>2026-05-23T11:04:59Z</time>
      </trkpt>
      <trkpt lat="43.43621" lon="2.46679">
        <ele>1140.4</ele>
        <time>2026-05-23T11:05:04Z</time>
      </trkpt>
      <trkpt lat="43.43621" lon="2.46679">
        <ele>1140.4</ele>
        <time>2026-05-23T11:05:09Z</time>
      </trkpt>
      <trkpt lat="43.43621" lon="2.46679">
        <ele>1140.4</ele>
        <time>2026-05-23T11:05:14Z</time>
      </trkpt>
      <trkpt lat="43.43621" lon="2.46679">
        <ele>1140.4</ele>
        <time>2026-05-23T11:05:19Z</time>
      </trkpt>
      <trkpt lat="43.43621" lon="2.46679">
        <ele>1140.4</ele>
        <time>2026-05-23T11:05:24Z</time>
      </trkpt>
      <trkpt lat="43.43621" lon="2.46679">
        <ele>1140.4</ele>
        <time>2026-05-23T11:05:29Z</time>
      </trkpt>
      <trkpt lat="43.43621" lon="2.46679">
        <ele>1140.4</ele>
        <time>2026-05-23T11:05:34Z</time>
      </trkpt>
      <trkpt lat="43.43621" lon="2.46679">
        <ele>1140.4</ele>
        <time>2026-05-23T11:05:39Z</time>
      </trkpt>
      <trkpt lat="43.43621" lon="2.46679">
        <ele>1140.4</ele>
        <time>2026-05-23T11:05:44Z</time>
      </trkpt>
      <trkpt lat="43.43621" lon="2.46679">
        <ele>1140.4</ele>
        <time>2026-05-23T11:05:49Z</time>
      </trkpt>
      <trkpt lat="43.43621" lon="2.46679">
        <ele>1140.4</ele>
        <time>2026-05-23T11:05:54Z</time>
      </trkpt>
      <trkpt lat="43.43621" lon="2.46679">
        <ele>1140.4</ele>
        <time>2026-05-23T11:05:59Z</time>
      </trkpt>
      <trkpt lat="43.43621" lon="2.46679">
        <ele>1140.4</ele>
        <time>2026-05-23T11:06:04Z</time>
      </trkpt>
      <trkpt lat="43.43621" lon="2.46679">
        <ele>1140.4</ele>
        <time>2026-05-23T11:06:09Z</time>
      </trkpt>
      <trkpt lat="43.43621" lon="2.46679">
        <ele>1140.4</ele>
        <time>2026-05-23T11:06:14Z</time>
      </trkpt>
      <trkpt lat="43.43621" lon="2.46679">
        <ele>1140.4</ele>
        <time>2026-05-23T11:06:19Z</time>
      </trkpt>
      <trkpt lat="43.43621" lon="2.46679">
        <ele>1140.4</ele>
        <time>2026-05-23T11:06:24Z</time>
      </trkpt>
      <trkpt lat="43.43621" lon="2.46679">
        <ele>1140.4</ele>
        <time>2026-05-23T11:06:29Z</time>
      </trkpt>
      <trkpt lat="43.43621" lon="2.46679">
        <ele>1140.4</ele>
        <time>2026-05-23T11:06:34Z</time>
      </trkpt>
      <trkpt lat="43.43621" lon="2.46679">
        <ele>1140.4</ele>
        <time>2026-05-23T11:06:39Z</time>
      </trkpt>
      <trkpt lat="43.43621" lon="2.46679">
        <ele>1140.4</ele>
        <time>2026-05-23T11:06:44Z</time>
      </trkpt>
      <trkpt lat="43.43621" lon="2.46679">
        <ele>1140.4</ele>
        <time>2026-05-23T11:06:49Z</time>
      </trkpt>
      <trkpt lat="43.43621" lon="2.46679">
        <ele>1140.4</ele>
        <time>2026-05-23T11:06:54Z</time>
      </trkpt>
      <trkpt lat="43.43621" lon="2.46679">
        <ele>1140.4</ele>
        <time>2026-05-23T11:06:59Z</time>
      </trkpt>
      <trkpt lat="43.43621" lon="2.46679">
        <ele>1140.4</ele>
        <time>2026-05-23T11:07:04Z</time>
      </trkpt>
      <trkpt lat="43.43621" lon="2.46679">
        <ele>1140.4</ele>
        <time>2026-05-23T11:07:09Z</time>
      </trkpt>
      <trkpt lat="43.43621" lon="2.46679">
        <ele>1140.4</ele>
        <time>2026-05-23T11:07:14Z</time>
      </trkpt>
      <trkpt lat="43.43621" lon="2.46679">
        <ele>1140.4</ele>
        <time>2026-05-23T11:07:19Z</time>
      </trkpt>
      <trkpt lat="43.43621" lon="2.46679">
        <ele>1140.4</ele>
        <time>2026-05-23T11:07:24Z</time>
      </trkpt>
      <trkpt lat="43.43621" lon="2.46679">
        <ele>1140.4</ele>
        <time>2026-05-23T11:07:29Z</time>
      </trkpt>
      <trkpt lat="43.43621" lon="2.46679">
        <ele>1140.4</ele>
        <time>2026-05-23T11:07:34Z</time>
      </trkpt>
      <trkpt lat="43.43621" lon="2.46679">
        <ele>1140.4</ele>
        <time>2026-05-23T11:07:39Z</time>
      </trkpt>
      <trkpt lat="43.43621" lon="2.46679">
        <ele>1140.4</ele>
        <time>2026-05-23T11:07:44Z</time>
      </trkpt>
      <trkpt lat="43.43632" lon="2.46681">
        <ele>1140.7</ele>
        <time>2026-05-23T11:07:49Z</time>
      </trkpt>
      <trkpt lat="43.43636" lon="2.46675">
        <ele>1140.3</ele>
        <time>2026-05-23T11:07:54Z</time>
      </trkpt>
      <trkpt lat="43.43641" lon="2.46668">
        <ele>1139.8</ele>
        <time>2026-05-23T11:07:59Z</time>
      </trkpt>
      <trkpt lat="43.43645" lon="2.46663">
        <ele>1139.3</ele>
        <time>2026-05-23T11:08:04Z</time>
      </trkpt>
      <trkpt lat="43.43649" lon="2.46658">
        <ele>1138.7</ele>
        <time>2026-05-23T11:08:09Z</time>
      </trkpt>
      <trkpt lat="43.43654" lon="2.46653">
        <ele>1138.1</ele>
        <time>2026-05-23T11:08:14Z</time>
      </trkpt>
      <trkpt lat="43.4366" lon="2.46648">
        <ele>1137.5</ele>
        <time>2026-05-23T11:08:19Z</time>
      </trkpt>
      <trkpt lat="43.43665" lon="2.46642">
        <ele>1136.7</ele>
        <time>2026-05-23T11:08:24Z</time>
      </trkpt>
      <trkpt lat="43.4367" lon="2.46635">
        <ele>1136</ele>
        <time>2026-05-23T11:08:29Z</time>
      </trkpt>
      <trkpt lat="43.43674" lon="2.46627">
        <ele>1135.2</ele>
        <time>2026-05-23T11:08:34Z</time>
      </trkpt>
      <trkpt lat="43.4368" lon="2.46619">
        <ele>1134.5</ele>
        <time>2026-05-23T11:08:39Z</time>
      </trkpt>
      <trkpt lat="43.43684" lon="2.46612">
        <ele>1133.8</ele>
        <time>2026-05-23T11:08:44Z</time>
      </trkpt>
      <trkpt lat="43.43687" lon="2.46603">
        <ele>1132.8</ele>
        <time>2026-05-23T11:08:49Z</time>
      </trkpt>
      <trkpt lat="43.43692" lon="2.46595">
        <ele>1132.1</ele>
        <time>2026-05-23T11:08:54Z</time>
      </trkpt>
      <trkpt lat="43.43697" lon="2.46588">
        <ele>1131.4</ele>
        <time>2026-05-23T11:08:59Z</time>
      </trkpt>
      <trkpt lat="43.43701" lon="2.46581">
        <ele>1130.8</ele>
        <time>2026-05-23T11:09:04Z</time>
      </trkpt>
      <trkpt lat="43.43707" lon="2.46574">
        <ele>1130.3</ele>
        <time>2026-05-23T11:09:09Z</time>
      </trkpt>
      <trkpt lat="43.43713" lon="2.46567">
        <ele>1129.8</ele>
        <time>2026-05-23T11:09:14Z</time>
      </trkpt>
      <trkpt lat="43.43718" lon="2.46563">
        <ele>1129.6</ele>
        <time>2026-05-23T11:09:19Z</time>
      </trkpt>
      <trkpt lat="43.43724" lon="2.46556">
        <ele>1129.2</ele>
        <time>2026-05-23T11:09:24Z</time>
      </trkpt>
      <trkpt lat="43.43731" lon="2.4655">
        <ele>1128.9</ele>
        <time>2026-05-23T11:09:29Z</time>
      </trkpt>
      <trkpt lat="43.43737" lon="2.46544">
        <ele>1128.5</ele>
        <time>2026-05-23T11:09:34Z</time>
      </trkpt>
      <trkpt lat="43.43741" lon="2.46537">
        <ele>1127.9</ele>
        <time>2026-05-23T11:09:39Z</time>
      </trkpt>
      <trkpt lat="43.43746" lon="2.4653">
        <ele>1127.4</ele>
        <time>2026-05-23T11:09:44Z</time>
      </trkpt>
      <trkpt lat="43.43752" lon="2.46523">
        <ele>1127</ele>
        <time>2026-05-23T11:09:49Z</time>
      </trkpt>
      <trkpt lat="43.43759" lon="2.46514">
        <ele>1126.5</ele>
        <time>2026-05-23T11:09:54Z</time>
      </trkpt>
      <trkpt lat="43.43764" lon="2.46506">
        <ele>1126.1</ele>
        <time>2026-05-23T11:09:59Z</time>
      </trkpt>
      <trkpt lat="43.43768" lon="2.46497">
        <ele>1125.6</ele>
        <time>2026-05-23T11:10:04Z</time>
      </trkpt>
      <trkpt lat="43.43769" lon="2.46486">
        <ele>1125.1</ele>
        <time>2026-05-23T11:10:09Z</time>
      </trkpt>
      <trkpt lat="43.43773" lon="2.46478">
        <ele>1125</ele>
        <time>2026-05-23T11:10:14Z</time>
      </trkpt>
      <trkpt lat="43.43776" lon="2.46468">
        <ele>1124.7</ele>
        <time>2026-05-23T11:10:19Z</time>
      </trkpt>
      <trkpt lat="43.43781" lon="2.46458">
        <ele>1124.6</ele>
        <time>2026-05-23T11:10:24Z</time>
      </trkpt>
      <trkpt lat="43.43787" lon="2.46449">
        <ele>1124.6</ele>
        <time>2026-05-23T11:10:29Z</time>
      </trkpt>
      <trkpt lat="43.43789" lon="2.46439">
        <ele>1124.1</ele>
        <time>2026-05-23T11:10:34Z</time>
      </trkpt>
      <trkpt lat="43.43789" lon="2.46428">
        <ele>1123.5</ele>
        <time>2026-05-23T11:10:39Z</time>
      </trkpt>
      <trkpt lat="43.43787" lon="2.46416">
        <ele>1122.7</ele>
        <time>2026-05-23T11:10:44Z</time>
      </trkpt>
      <trkpt lat="43.43782" lon="2.46406">
        <ele>1122.7</ele>
        <time>2026-05-23T11:10:49Z</time>
      </trkpt>
      <trkpt lat="43.43779" lon="2.46395">
        <ele>1123</ele>
        <time>2026-05-23T11:10:54Z</time>
      </trkpt>
      <trkpt lat="43.43773" lon="2.46388">
        <ele>1122.8</ele>
        <time>2026-05-23T11:10:59Z</time>
      </trkpt>
      <trkpt lat="43.43769" lon="2.46382">
        <ele>1122.7</ele>
        <time>2026-05-23T11:11:04Z</time>
      </trkpt>
      <trkpt lat="43.43762" lon="2.46375">
        <ele>1122.4</ele>
        <time>2026-05-23T11:11:09Z</time>
      </trkpt>
      <trkpt lat="43.43756" lon="2.46369">
        <ele>1122.2</ele>
        <time>2026-05-23T11:11:14Z</time>
      </trkpt>
      <trkpt lat="43.43751" lon="2.46363">
        <ele>1122</ele>
        <time>2026-05-23T11:11:19Z</time>
      </trkpt>
      <trkpt lat="43.43746" lon="2.46354">
        <ele>1121.7</ele>
        <time>2026-05-23T11:11:24Z</time>
      </trkpt>
      <trkpt lat="43.43741" lon="2.46344">
        <ele>1121.3</ele>
        <time>2026-05-23T11:11:29Z</time>
      </trkpt>
      <trkpt lat="43.43739" lon="2.46335">
        <ele>1121.2</ele>
        <time>2026-05-23T11:11:34Z</time>
      </trkpt>
      <trkpt lat="43.43735" lon="2.46326">
        <ele>1120.3</ele>
        <time>2026-05-23T11:11:39Z</time>
      </trkpt>
      <trkpt lat="43.43732" lon="2.46315">
        <ele>1119.4</ele>
        <time>2026-05-23T11:11:44Z</time>
      </trkpt>
      <trkpt lat="43.4373" lon="2.46306">
        <ele>1118.7</ele>
        <time>2026-05-23T11:11:49Z</time>
      </trkpt>
      <trkpt lat="43.4373" lon="2.46296">
        <ele>1118.3</ele>
        <time>2026-05-23T11:11:54Z</time>
      </trkpt>
      <trkpt lat="43.43727" lon="2.46287">
        <ele>1117.5</ele>
        <time>2026-05-23T11:11:59Z</time>
      </trkpt>
      <trkpt lat="43.43724" lon="2.46279">
        <ele>1116.7</ele>
        <time>2026-05-23T11:12:04Z</time>
      </trkpt>
      <trkpt lat="43.43724" lon="2.46269">
        <ele>1116.3</ele>
        <time>2026-05-23T11:12:09Z</time>
      </trkpt>
      <trkpt lat="43.43722" lon="2.4626">
        <ele>1115.7</ele>
        <time>2026-05-23T11:12:14Z</time>
      </trkpt>
      <trkpt lat="43.4372" lon="2.4625">
        <ele>1115</ele>
        <time>2026-05-23T11:12:19Z</time>
      </trkpt>
      <trkpt lat="43.43716" lon="2.46239">
        <ele>1114.1</ele>
        <time>2026-05-23T11:12:24Z</time>
      </trkpt>
      <trkpt lat="43.43714" lon="2.46227">
        <ele>1113.5</ele>
        <time>2026-05-23T11:12:29Z</time>
      </trkpt>
      <trkpt lat="43.43712" lon="2.46217">
        <ele>1112.8</ele>
        <time>2026-05-23T11:12:34Z</time>
      </trkpt>
      <trkpt lat="43.43712" lon="2.46208">
        <ele>1112.5</ele>
        <time>2026-05-23T11:12:39Z</time>
      </trkpt>
      <trkpt lat="43.43711" lon="2.46199">
        <ele>1112.1</ele>
        <time>2026-05-23T11:12:44Z</time>
      </trkpt>
      <trkpt lat="43.43713" lon="2.46189">
        <ele>1112</ele>
        <time>2026-05-23T11:12:49Z</time>
      </trkpt>
      <trkpt lat="43.43713" lon="2.46179">
        <ele>1111.7</ele>
        <time>2026-05-23T11:12:54Z</time>
      </trkpt>
      <trkpt lat="43.43712" lon="2.46169">
        <ele>1111.2</ele>
        <time>2026-05-23T11:12:59Z</time>
      </trkpt>
      <trkpt lat="43.43712" lon="2.46159">
        <ele>1111.2</ele>
        <time>2026-05-23T11:13:04Z</time>
      </trkpt>
      <trkpt lat="43.43712" lon="2.4615">
        <ele>1111.3</ele>
        <time>2026-05-23T11:13:09Z</time>
      </trkpt>
      <trkpt lat="43.43713" lon="2.4614">
        <ele>1111.6</ele>
        <time>2026-05-23T11:13:14Z</time>
      </trkpt>
      <trkpt lat="43.43714" lon="2.46132">
        <ele>1111.9</ele>
        <time>2026-05-23T11:13:19Z</time>
      </trkpt>
      <trkpt lat="43.43712" lon="2.46122">
        <ele>1111.7</ele>
        <time>2026-05-23T11:13:24Z</time>
      </trkpt>
      <trkpt lat="43.4371" lon="2.46116">
        <ele>1111.4</ele>
        <time>2026-05-23T11:13:29Z</time>
      </trkpt>
      <trkpt lat="43.43709" lon="2.46109">
        <ele>1111.3</ele>
        <time>2026-05-23T11:13:34Z</time>
      </trkpt>
      <trkpt lat="43.43706" lon="2.46101">
        <ele>1110.9</ele>
        <time>2026-05-23T11:13:39Z</time>
      </trkpt>
      <trkpt lat="43.43705" lon="2.46093">
        <ele>1110.8</ele>
        <time>2026-05-23T11:13:44Z</time>
      </trkpt>
      <trkpt lat="43.43706" lon="2.46086">
        <ele>1111</ele>
        <time>2026-05-23T11:13:49Z</time>
      </trkpt>
      <trkpt lat="43.43706" lon="2.46079">
        <ele>1111</ele>
        <time>2026-05-23T11:13:54Z</time>
      </trkpt>
      <trkpt lat="43.43705" lon="2.46072">
        <ele>1110.6</ele>
        <time>2026-05-23T11:13:59Z</time>
      </trkpt>
      <trkpt lat="43.43707" lon="2.46063">
        <ele>1110.8</ele>
        <time>2026-05-23T11:14:04Z</time>
      </trkpt>
      <trkpt lat="43.4371" lon="2.46054">
        <ele>1111.1</ele>
        <time>2026-05-23T11:14:09Z</time>
      </trkpt>
      <trkpt lat="43.43713" lon="2.46045">
        <ele>1111.4</ele>
        <time>2026-05-23T11:14:14Z</time>
      </trkpt>
      <trkpt lat="43.43715" lon="2.46037">
        <ele>1111.5</ele>
        <time>2026-05-23T11:14:19Z</time>
      </trkpt>
      <trkpt lat="43.43718" lon="2.46029">
        <ele>1111.8</ele>
        <time>2026-05-23T11:14:24Z</time>
      </trkpt>
      <trkpt lat="43.43722" lon="2.46021">
        <ele>1112.2</ele>
        <time>2026-05-23T11:14:29Z</time>
      </trkpt>
      <trkpt lat="43.43725" lon="2.46013">
        <ele>1112.5</ele>
        <time>2026-05-23T11:14:34Z</time>
      </trkpt>
      <trkpt lat="43.43729" lon="2.46005">
        <ele>1112.9</ele>
        <time>2026-05-23T11:14:39Z</time>
      </trkpt>
      <trkpt lat="43.43734" lon="2.45999">
        <ele>1113.4</ele>
        <time>2026-05-23T11:14:44Z</time>
      </trkpt>
      <trkpt lat="43.43737" lon="2.45992">
        <ele>1113.3</ele>
        <time>2026-05-23T11:14:49Z</time>
      </trkpt>
      <trkpt lat="43.43739" lon="2.45982">
        <ele>1112.8</ele>
        <time>2026-05-23T11:14:54Z</time>
      </trkpt>
      <trkpt lat="43.43743" lon="2.45974">
        <ele>1112.7</ele>
        <time>2026-05-23T11:14:59Z</time>
      </trkpt>
      <trkpt lat="43.43747" lon="2.45967">
        <ele>1112.8</ele>
        <time>2026-05-23T11:15:04Z</time>
      </trkpt>
      <trkpt lat="43.43752" lon="2.45959">
        <ele>1112.9</ele>
        <time>2026-05-23T11:15:09Z</time>
      </trkpt>
      <trkpt lat="43.43756" lon="2.45951">
        <ele>1113</ele>
        <time>2026-05-23T11:15:14Z</time>
      </trkpt>
      <trkpt lat="43.43759" lon="2.45943">
        <ele>1112.9</ele>
        <time>2026-05-23T11:15:19Z</time>
      </trkpt>
      <trkpt lat="43.43763" lon="2.45935">
        <ele>1113</ele>
        <time>2026-05-23T11:15:24Z</time>
      </trkpt>
      <trkpt lat="43.43765" lon="2.45926">
        <ele>1112.6</ele>
        <time>2026-05-23T11:15:29Z</time>
      </trkpt>
      <trkpt lat="43.43768" lon="2.45917">
        <ele>1112.5</ele>
        <time>2026-05-23T11:15:34Z</time>
      </trkpt>
      <trkpt lat="43.43772" lon="2.45909">
        <ele>1113.3</ele>
        <time>2026-05-23T11:15:39Z</time>
      </trkpt>
      <trkpt lat="43.43776" lon="2.45901">
        <ele>1114.2</ele>
        <time>2026-05-23T11:15:44Z</time>
      </trkpt>
      <trkpt lat="43.4378" lon="2.45894">
        <ele>1115</ele>
        <time>2026-05-23T11:15:49Z</time>
      </trkpt>
      <trkpt lat="43.43784" lon="2.45887">
        <ele>1115.8</ele>
        <time>2026-05-23T11:15:54Z</time>
      </trkpt>
      <trkpt lat="43.43788" lon="2.45882">
        <ele>1116.6</ele>
        <time>2026-05-23T11:15:59Z</time>
      </trkpt>
      <trkpt lat="43.43792" lon="2.45874">
        <ele>1117.3</ele>
        <time>2026-05-23T11:16:04Z</time>
      </trkpt>
      <trkpt lat="43.43795" lon="2.45867">
        <ele>1117.9</ele>
        <time>2026-05-23T11:16:09Z</time>
      </trkpt>
      <trkpt lat="43.438" lon="2.45863">
        <ele>1118.7</ele>
        <time>2026-05-23T11:16:14Z</time>
      </trkpt>
      <trkpt lat="43.43805" lon="2.45858">
        <ele>1119.6</ele>
        <time>2026-05-23T11:16:19Z</time>
      </trkpt>
      <trkpt lat="43.43809" lon="2.45853">
        <ele>1120.2</ele>
        <time>2026-05-23T11:16:24Z</time>
      </trkpt>
      <trkpt lat="43.43815" lon="2.45846">
        <ele>1121.2</ele>
        <time>2026-05-23T11:16:29Z</time>
      </trkpt>
      <trkpt lat="43.43821" lon="2.4584">
        <ele>1122.1</ele>
        <time>2026-05-23T11:16:34Z</time>
      </trkpt>
      <trkpt lat="43.43825" lon="2.45836">
        <ele>1122.7</ele>
        <time>2026-05-23T11:16:39Z</time>
      </trkpt>
      <trkpt lat="43.43828" lon="2.4583">
        <ele>1123.4</ele>
        <time>2026-05-23T11:16:44Z</time>
      </trkpt>
      <trkpt lat="43.4383" lon="2.45822">
        <ele>1124.3</ele>
        <time>2026-05-23T11:16:49Z</time>
      </trkpt>
      <trkpt lat="43.43831" lon="2.45813">
        <ele>1125.1</ele>
        <time>2026-05-23T11:16:54Z</time>
      </trkpt>
      <trkpt lat="43.43832" lon="2.45805">
        <ele>1125.8</ele>
        <time>2026-05-23T11:16:59Z</time>
      </trkpt>
      <trkpt lat="43.43833" lon="2.45798">
        <ele>1126.5</ele>
        <time>2026-05-23T11:17:04Z</time>
      </trkpt>
      <trkpt lat="43.43831" lon="2.45792">
        <ele>1126.6</ele>
        <time>2026-05-23T11:17:09Z</time>
      </trkpt>
      <trkpt lat="43.43827" lon="2.45786">
        <ele>1126.4</ele>
        <time>2026-05-23T11:17:14Z</time>
      </trkpt>
      <trkpt lat="43.43824" lon="2.4578">
        <ele>1126.3</ele>
        <time>2026-05-23T11:17:19Z</time>
      </trkpt>
      <trkpt lat="43.4382" lon="2.45774">
        <ele>1126.1</ele>
        <time>2026-05-23T11:17:24Z</time>
      </trkpt>
      <trkpt lat="43.43817" lon="2.45769">
        <ele>1125.9</ele>
        <time>2026-05-23T11:17:29Z</time>
      </trkpt>
      <trkpt lat="43.43815" lon="2.45762">
        <ele>1126.1</ele>
        <time>2026-05-23T11:17:34Z</time>
      </trkpt>
      <trkpt lat="43.43815" lon="2.45756">
        <ele>1126.5</ele>
        <time>2026-05-23T11:17:39Z</time>
      </trkpt>
      <trkpt lat="43.43815" lon="2.4575">
        <ele>1126.9</ele>
        <time>2026-05-23T11:17:44Z</time>
      </trkpt>
      <trkpt lat="43.43815" lon="2.45743">
        <ele>1127.2</ele>
        <time>2026-05-23T11:17:49Z</time>
      </trkpt>
      <trkpt lat="43.43815" lon="2.45736">
        <ele>1127.5</ele>
        <time>2026-05-23T11:17:54Z</time>
      </trkpt>
      <trkpt lat="43.43815" lon="2.45729">
        <ele>1127.7</ele>
        <time>2026-05-23T11:17:59Z</time>
      </trkpt>
      <trkpt lat="43.43818" lon="2.45723">
        <ele>1128.5</ele>
        <time>2026-05-23T11:18:04Z</time>
      </trkpt>
      <trkpt lat="43.43822" lon="2.45717">
        <ele>1129.3</ele>
        <time>2026-05-23T11:18:09Z</time>
      </trkpt>
      <trkpt lat="43.43826" lon="2.45711">
        <ele>1130.2</ele>
        <time>2026-05-23T11:18:14Z</time>
      </trkpt>
      <trkpt lat="43.43831" lon="2.45707">
        <ele>1131.2</ele>
        <time>2026-05-23T11:18:19Z</time>
      </trkpt>
      <trkpt lat="43.43834" lon="2.45703">
        <ele>1131.8</ele>
        <time>2026-05-23T11:18:24Z</time>
      </trkpt>
      <trkpt lat="43.43836" lon="2.45699">
        <ele>1132.1</ele>
        <time>2026-05-23T11:18:29Z</time>
      </trkpt>
      <trkpt lat="43.4384" lon="2.45694">
        <ele>1132.6</ele>
        <time>2026-05-23T11:18:34Z</time>
      </trkpt>
      <trkpt lat="43.43843" lon="2.4569">
        <ele>1133</ele>
        <time>2026-05-23T11:18:39Z</time>
      </trkpt>
      <trkpt lat="43.43845" lon="2.45687">
        <ele>1133.2</ele>
        <time>2026-05-23T11:18:44Z</time>
      </trkpt>
      <trkpt lat="43.43849" lon="2.45684">
        <ele>1133.7</ele>
        <time>2026-05-23T11:18:49Z</time>
      </trkpt>
      <trkpt lat="43.43854" lon="2.45682">
        <ele>1134.1</ele>
        <time>2026-05-23T11:18:54Z</time>
      </trkpt>
      <trkpt lat="43.4386" lon="2.45678">
        <ele>1134.7</ele>
        <time>2026-05-23T11:18:59Z</time>
      </trkpt>
      <trkpt lat="43.43866" lon="2.45676">
        <ele>1135.2</ele>
        <time>2026-05-23T11:19:04Z</time>
      </trkpt>
      <trkpt lat="43.4387" lon="2.45672">
        <ele>1135.6</ele>
        <time>2026-05-23T11:19:09Z</time>
      </trkpt>
      <trkpt lat="43.43876" lon="2.45668">
        <ele>1136.1</ele>
        <time>2026-05-23T11:19:14Z</time>
      </trkpt>
      <trkpt lat="43.4388" lon="2.45665">
        <ele>1136.3</ele>
        <time>2026-05-23T11:19:19Z</time>
      </trkpt>
      <trkpt lat="43.43886" lon="2.45659">
        <ele>1136.5</ele>
        <time>2026-05-23T11:19:24Z</time>
      </trkpt>
      <trkpt lat="43.43891" lon="2.45654">
        <ele>1136.6</ele>
        <time>2026-05-23T11:19:29Z</time>
      </trkpt>
      <trkpt lat="43.43895" lon="2.45653">
        <ele>1136.8</ele>
        <time>2026-05-23T11:19:34Z</time>
      </trkpt>
      <trkpt lat="43.43899" lon="2.45652">
        <ele>1137</ele>
        <time>2026-05-23T11:19:39Z</time>
      </trkpt>
      <trkpt lat="43.43906" lon="2.4565">
        <ele>1137.4</ele>
        <time>2026-05-23T11:19:44Z</time>
      </trkpt>
      <trkpt lat="43.43914" lon="2.45648">
        <ele>1137.7</ele>
        <time>2026-05-23T11:19:49Z</time>
      </trkpt>
      <trkpt lat="43.43921" lon="2.45645">
        <ele>1137.9</ele>
        <time>2026-05-23T11:19:54Z</time>
      </trkpt>
      <trkpt lat="43.43927" lon="2.45642">
        <ele>1138</ele>
        <time>2026-05-23T11:19:59Z</time>
      </trkpt>
      <trkpt lat="43.43936" lon="2.45636">
        <ele>1138</ele>
        <time>2026-05-23T11:20:04Z</time>
      </trkpt>
      <trkpt lat="43.43945" lon="2.45631">
        <ele>1138</ele>
        <time>2026-05-23T11:20:09Z</time>
      </trkpt>
      <trkpt lat="43.43949" lon="2.45626">
        <ele>1137.7</ele>
        <time>2026-05-23T11:20:14Z</time>
      </trkpt>
      <trkpt lat="43.43954" lon="2.45621">
        <ele>1137.5</ele>
        <time>2026-05-23T11:20:19Z</time>
      </trkpt>
      <trkpt lat="43.4396" lon="2.45616">
        <ele>1137.3</ele>
        <time>2026-05-23T11:20:24Z</time>
      </trkpt>
      <trkpt lat="43.43968" lon="2.45611">
        <ele>1137.1</ele>
        <time>2026-05-23T11:20:29Z</time>
      </trkpt>
      <trkpt lat="43.43974" lon="2.45606">
        <ele>1136.8</ele>
        <time>2026-05-23T11:20:34Z</time>
      </trkpt>
      <trkpt lat="43.43982" lon="2.45602">
        <ele>1136.6</ele>
        <time>2026-05-23T11:20:39Z</time>
      </trkpt>
      <trkpt lat="43.43991" lon="2.45598">
        <ele>1136.4</ele>
        <time>2026-05-23T11:20:44Z</time>
      </trkpt>
      <trkpt lat="43.43995" lon="2.45595">
        <ele>1136.2</ele>
        <time>2026-05-23T11:20:49Z</time>
      </trkpt>
      <trkpt lat="43.44" lon="2.45592">
        <ele>1135.9</ele>
        <time>2026-05-23T11:20:54Z</time>
      </trkpt>
      <trkpt lat="43.44006" lon="2.45588">
        <ele>1135.6</ele>
        <time>2026-05-23T11:20:59Z</time>
      </trkpt>
      <trkpt lat="43.44013" lon="2.45583">
        <ele>1135.1</ele>
        <time>2026-05-23T11:21:04Z</time>
      </trkpt>
      <trkpt lat="43.44018" lon="2.45577">
        <ele>1134.4</ele>
        <time>2026-05-23T11:21:09Z</time>
      </trkpt>
      <trkpt lat="43.44023" lon="2.45571">
        <ele>1133.6</ele>
        <time>2026-05-23T11:21:14Z</time>
      </trkpt>
      <trkpt lat="43.44027" lon="2.45563">
        <ele>1132.6</ele>
        <time>2026-05-23T11:21:19Z</time>
      </trkpt>
      <trkpt lat="43.44032" lon="2.45556">
        <ele>1131.7</ele>
        <time>2026-05-23T11:21:24Z</time>
      </trkpt>
      <trkpt lat="43.44037" lon="2.4555">
        <ele>1130.9</ele>
        <time>2026-05-23T11:21:29Z</time>
      </trkpt>
      <trkpt lat="43.44042" lon="2.45544">
        <ele>1130.1</ele>
        <time>2026-05-23T11:21:34Z</time>
      </trkpt>
      <trkpt lat="43.44046" lon="2.4554">
        <ele>1129.5</ele>
        <time>2026-05-23T11:21:39Z</time>
      </trkpt>
      <trkpt lat="43.44053" lon="2.45534">
        <ele>1128.7</ele>
        <time>2026-05-23T11:21:44Z</time>
      </trkpt>
      <trkpt lat="43.4406" lon="2.45531">
        <ele>1128.4</ele>
        <time>2026-05-23T11:21:49Z</time>
      </trkpt>
      <trkpt lat="43.44064" lon="2.45527">
        <ele>1127.8</ele>
        <time>2026-05-23T11:21:54Z</time>
      </trkpt>
      <trkpt lat="43.44069" lon="2.45524">
        <ele>1127.4</ele>
        <time>2026-05-23T11:21:59Z</time>
      </trkpt>
      <trkpt lat="43.44076" lon="2.4552">
        <ele>1126.9</ele>
        <time>2026-05-23T11:22:04Z</time>
      </trkpt>
      <trkpt lat="43.44084" lon="2.45517">
        <ele>1126.5</ele>
        <time>2026-05-23T11:22:09Z</time>
      </trkpt>
      <trkpt lat="43.44093" lon="2.45515">
        <ele>1126.6</ele>
        <time>2026-05-23T11:22:14Z</time>
      </trkpt>
      <trkpt lat="43.44104" lon="2.45511">
        <ele>1126.6</ele>
        <time>2026-05-23T11:22:19Z</time>
      </trkpt>
      <trkpt lat="43.44112" lon="2.45509">
        <ele>1126.7</ele>
        <time>2026-05-23T11:22:24Z</time>
      </trkpt>
      <trkpt lat="43.44118" lon="2.45506">
        <ele>1126.5</ele>
        <time>2026-05-23T11:22:29Z</time>
      </trkpt>
      <trkpt lat="43.44125" lon="2.45501">
        <ele>1126.1</ele>
        <time>2026-05-23T11:22:34Z</time>
      </trkpt>
      <trkpt lat="43.44132" lon="2.45497">
        <ele>1125.8</ele>
        <time>2026-05-23T11:22:39Z</time>
      </trkpt>
      <trkpt lat="43.44139" lon="2.45492">
        <ele>1125.3</ele>
        <time>2026-05-23T11:22:44Z</time>
      </trkpt>
      <trkpt lat="43.44146" lon="2.45488">
        <ele>1125</ele>
        <time>2026-05-23T11:22:49Z</time>
      </trkpt>
      <trkpt lat="43.44154" lon="2.45486">
        <ele>1125</ele>
        <time>2026-05-23T11:22:54Z</time>
      </trkpt>
      <trkpt lat="43.44161" lon="2.45485">
        <ele>1125.2</ele>
        <time>2026-05-23T11:22:59Z</time>
      </trkpt>
      <trkpt lat="43.44168" lon="2.45485">
        <ele>1125.5</ele>
        <time>2026-05-23T11:23:04Z</time>
      </trkpt>
      <trkpt lat="43.44174" lon="2.45487">
        <ele>1125.8</ele>
        <time>2026-05-23T11:23:09Z</time>
      </trkpt>
      <trkpt lat="43.4418" lon="2.45488">
        <ele>1126</ele>
        <time>2026-05-23T11:23:14Z</time>
      </trkpt>
      <trkpt lat="43.44186" lon="2.4549">
        <ele>1126.3</ele>
        <time>2026-05-23T11:23:19Z</time>
      </trkpt>
      <trkpt lat="43.44191" lon="2.45493">
        <ele>1126.8</ele>
        <time>2026-05-23T11:23:24Z</time>
      </trkpt>
      <trkpt lat="43.44196" lon="2.45494">
        <ele>1127</ele>
        <time>2026-05-23T11:23:29Z</time>
      </trkpt>
      <trkpt lat="43.44203" lon="2.45497">
        <ele>1127.5</ele>
        <time>2026-05-23T11:23:34Z</time>
      </trkpt>
      <trkpt lat="43.4421" lon="2.45499">
        <ele>1127.8</ele>
        <time>2026-05-23T11:23:39Z</time>
      </trkpt>
      <trkpt lat="43.44218" lon="2.45501">
        <ele>1128.2</ele>
        <time>2026-05-23T11:23:44Z</time>
      </trkpt>
      <trkpt lat="43.44225" lon="2.45503">
        <ele>1128.5</ele>
        <time>2026-05-23T11:23:49Z</time>
      </trkpt>
      <trkpt lat="43.44232" lon="2.45505">
        <ele>1128.8</ele>
        <time>2026-05-23T11:23:54Z</time>
      </trkpt>
      <trkpt lat="43.44239" lon="2.45507">
        <ele>1129.1</ele>
        <time>2026-05-23T11:23:59Z</time>
      </trkpt>
      <trkpt lat="43.44247" lon="2.45509">
        <ele>1129.4</ele>
        <time>2026-05-23T11:24:04Z</time>
      </trkpt>
      <trkpt lat="43.44255" lon="2.45511">
        <ele>1129.4</ele>
        <time>2026-05-23T11:24:09Z</time>
      </trkpt>
      <trkpt lat="43.44262" lon="2.45513">
        <ele>1129.3</ele>
        <time>2026-05-23T11:24:14Z</time>
      </trkpt>
      <trkpt lat="43.44268" lon="2.45516">
        <ele>1129.4</ele>
        <time>2026-05-23T11:24:19Z</time>
      </trkpt>
      <trkpt lat="43.44275" lon="2.45519">
        <ele>1129.4</ele>
        <time>2026-05-23T11:24:24Z</time>
      </trkpt>
      <trkpt lat="43.4428" lon="2.45522">
        <ele>1129.5</ele>
        <time>2026-05-23T11:24:29Z</time>
      </trkpt>
      <trkpt lat="43.44286" lon="2.45523">
        <ele>1129.3</ele>
        <time>2026-05-23T11:24:34Z</time>
      </trkpt>
      <trkpt lat="43.44294" lon="2.45524">
        <ele>1129</ele>
        <time>2026-05-23T11:24:39Z</time>
      </trkpt>
      <trkpt lat="43.44299" lon="2.45526">
        <ele>1128.9</ele>
        <time>2026-05-23T11:24:44Z</time>
      </trkpt>
      <trkpt lat="43.44306" lon="2.45526">
        <ele>1128.5</ele>
        <time>2026-05-23T11:24:49Z</time>
      </trkpt>
      <trkpt lat="43.44313" lon="2.45526">
        <ele>1128</ele>
        <time>2026-05-23T11:24:54Z</time>
      </trkpt>
      <trkpt lat="43.44321" lon="2.45524">
        <ele>1127.2</ele>
        <time>2026-05-23T11:24:59Z</time>
      </trkpt>
      <trkpt lat="43.44328" lon="2.45522">
        <ele>1126.5</ele>
        <time>2026-05-23T11:25:04Z</time>
      </trkpt>
      <trkpt lat="43.44335" lon="2.45519">
        <ele>1125.6</ele>
        <time>2026-05-23T11:25:09Z</time>
      </trkpt>
      <trkpt lat="43.44343" lon="2.45519">
        <ele>1124.8</ele>
        <time>2026-05-23T11:25:14Z</time>
      </trkpt>
      <trkpt lat="43.44352" lon="2.45519">
        <ele>1123.9</ele>
        <time>2026-05-23T11:25:19Z</time>
      </trkpt>
      <trkpt lat="43.44359" lon="2.45518">
        <ele>1123.1</ele>
        <time>2026-05-23T11:25:24Z</time>
      </trkpt>
      <trkpt lat="43.44364" lon="2.45517">
        <ele>1122.4</ele>
        <time>2026-05-23T11:25:29Z</time>
      </trkpt>
      <trkpt lat="43.4437" lon="2.45516">
        <ele>1121.7</ele>
        <time>2026-05-23T11:25:34Z</time>
      </trkpt>
      <trkpt lat="43.44379" lon="2.45514">
        <ele>1120.5</ele>
        <time>2026-05-23T11:25:39Z</time>
      </trkpt>
      <trkpt lat="43.44385" lon="2.45511">
        <ele>1119.5</ele>
        <time>2026-05-23T11:25:44Z</time>
      </trkpt>
      <trkpt lat="43.44393" lon="2.4551">
        <ele>1118.6</ele>
        <time>2026-05-23T11:25:49Z</time>
      </trkpt>
      <trkpt lat="43.444" lon="2.45508">
        <ele>1117.7</ele>
        <time>2026-05-23T11:25:54Z</time>
      </trkpt>
      <trkpt lat="43.44405" lon="2.45507">
        <ele>1117.1</ele>
        <time>2026-05-23T11:25:59Z</time>
      </trkpt>
      <trkpt lat="43.44411" lon="2.45507">
        <ele>1116.5</ele>
        <time>2026-05-23T11:26:04Z</time>
      </trkpt>
      <trkpt lat="43.44419" lon="2.45506">
        <ele>1115.7</ele>
        <time>2026-05-23T11:26:09Z</time>
      </trkpt>
      <trkpt lat="43.44427" lon="2.45502">
        <ele>1114.7</ele>
        <time>2026-05-23T11:26:14Z</time>
      </trkpt>
      <trkpt lat="43.44433" lon="2.45499">
        <ele>1114</ele>
        <time>2026-05-23T11:26:19Z</time>
      </trkpt>
      <trkpt lat="43.44439" lon="2.45496">
        <ele>1113.3</ele>
        <time>2026-05-23T11:26:24Z</time>
      </trkpt>
      <trkpt lat="43.44447" lon="2.45496">
        <ele>1112.9</ele>
        <time>2026-05-23T11:26:29Z</time>
      </trkpt>
      <trkpt lat="43.44453" lon="2.45496">
        <ele>1112.6</ele>
        <time>2026-05-23T11:26:34Z</time>
      </trkpt>
      <trkpt lat="43.4446" lon="2.45495">
        <ele>1112.1</ele>
        <time>2026-05-23T11:26:39Z</time>
      </trkpt>
      <trkpt lat="43.44466" lon="2.45493">
        <ele>1111.6</ele>
        <time>2026-05-23T11:26:44Z</time>
      </trkpt>
      <trkpt lat="43.44473" lon="2.4549">
        <ele>1110.8</ele>
        <time>2026-05-23T11:26:49Z</time>
      </trkpt>
      <trkpt lat="43.44478" lon="2.45487">
        <ele>1110.2</ele>
        <time>2026-05-23T11:26:54Z</time>
      </trkpt>
      <trkpt lat="43.44485" lon="2.45484">
        <ele>1109.5</ele>
        <time>2026-05-23T11:26:59Z</time>
      </trkpt>
      <trkpt lat="43.44492" lon="2.45481">
        <ele>1108.8</ele>
        <time>2026-05-23T11:27:04Z</time>
      </trkpt>
      <trkpt lat="43.44501" lon="2.4548">
        <ele>1108.3</ele>
        <time>2026-05-23T11:27:09Z</time>
      </trkpt>
      <trkpt lat="43.44509" lon="2.45479">
        <ele>1107.7</ele>
        <time>2026-05-23T11:27:14Z</time>
      </trkpt>
      <trkpt lat="43.44517" lon="2.4548">
        <ele>1107.3</ele>
        <time>2026-05-23T11:27:19Z</time>
      </trkpt>
      <trkpt lat="43.44524" lon="2.4548">
        <ele>1106.9</ele>
        <time>2026-05-23T11:27:24Z</time>
      </trkpt>
      <trkpt lat="43.44534" lon="2.4548">
        <ele>1106.3</ele>
        <time>2026-05-23T11:27:29Z</time>
      </trkpt>
      <trkpt lat="43.44542" lon="2.45479">
        <ele>1105.7</ele>
        <time>2026-05-23T11:27:34Z</time>
      </trkpt>
      <trkpt lat="43.44549" lon="2.4548">
        <ele>1105.4</ele>
        <time>2026-05-23T11:27:39Z</time>
      </trkpt>
      <trkpt lat="43.44556" lon="2.45483">
        <ele>1105.3</ele>
        <time>2026-05-23T11:27:44Z</time>
      </trkpt>
      <trkpt lat="43.44561" lon="2.45486">
        <ele>1105.3</ele>
        <time>2026-05-23T11:27:49Z</time>
      </trkpt>
      <trkpt lat="43.44565" lon="2.4549">
        <ele>1105.4</ele>
        <time>2026-05-23T11:27:54Z</time>
      </trkpt>
      <trkpt lat="43.44571" lon="2.45491">
        <ele>1105.1</ele>
        <time>2026-05-23T11:27:59Z</time>
      </trkpt>
      <trkpt lat="43.44578" lon="2.45494">
        <ele>1104.9</ele>
        <time>2026-05-23T11:28:04Z</time>
      </trkpt>
      <trkpt lat="43.44586" lon="2.45496">
        <ele>1104.4</ele>
        <time>2026-05-23T11:28:09Z</time>
      </trkpt>
      <trkpt lat="43.44591" lon="2.45496">
        <ele>1104</ele>
        <time>2026-05-23T11:28:14Z</time>
      </trkpt>
      <trkpt lat="43.44597" lon="2.45492">
        <ele>1103.2</ele>
        <time>2026-05-23T11:28:19Z</time>
      </trkpt>
      <trkpt lat="43.44603" lon="2.45488">
        <ele>1102.4</ele>
        <time>2026-05-23T11:28:24Z</time>
      </trkpt>
      <trkpt lat="43.4461" lon="2.45483">
        <ele>1101.5</ele>
        <time>2026-05-23T11:28:29Z</time>
      </trkpt>
      <trkpt lat="43.44617" lon="2.45482">
        <ele>1100.9</ele>
        <time>2026-05-23T11:28:34Z</time>
      </trkpt>
      <trkpt lat="43.44625" lon="2.45482">
        <ele>1100.3</ele>
        <time>2026-05-23T11:28:39Z</time>
      </trkpt>
      <trkpt lat="43.44631" lon="2.45483">
        <ele>1099.9</ele>
        <time>2026-05-23T11:28:44Z</time>
      </trkpt>
      <trkpt lat="43.44639" lon="2.45483">
        <ele>1099.3</ele>
        <time>2026-05-23T11:28:49Z</time>
      </trkpt>
      <trkpt lat="43.44647" lon="2.45482">
        <ele>1098.6</ele>
        <time>2026-05-23T11:28:54Z</time>
      </trkpt>
      <trkpt lat="43.44655" lon="2.45478">
        <ele>1097.8</ele>
        <time>2026-05-23T11:28:59Z</time>
      </trkpt>
      <trkpt lat="43.4466" lon="2.45473">
        <ele>1097.2</ele>
        <time>2026-05-23T11:29:04Z</time>
      </trkpt>
      <trkpt lat="43.44659" lon="2.4547">
        <ele>1097.1</ele>
        <time>2026-05-23T11:29:09Z</time>
      </trkpt>
      <trkpt lat="43.44659" lon="2.4547">
        <ele>1097.1</ele>
        <time>2026-05-23T11:29:14Z</time>
      </trkpt>
      <trkpt lat="43.44659" lon="2.4547">
        <ele>1097.1</ele>
        <time>2026-05-23T11:29:19Z</time>
      </trkpt>
      <trkpt lat="43.44659" lon="2.4547">
        <ele>1097.1</ele>
        <time>2026-05-23T11:29:24Z</time>
      </trkpt>
      <trkpt lat="43.44659" lon="2.4547">
        <ele>1097.1</ele>
        <time>2026-05-23T11:29:29Z</time>
      </trkpt>
      <trkpt lat="43.44663" lon="2.45466">
        <ele>1096.6</ele>
        <time>2026-05-23T11:29:34Z</time>
      </trkpt>
      <trkpt lat="43.44666" lon="2.45463">
        <ele>1096.3</ele>
        <time>2026-05-23T11:29:39Z</time>
      </trkpt>
      <trkpt lat="43.44671" lon="2.45459">
        <ele>1095.8</ele>
        <time>2026-05-23T11:29:44Z</time>
      </trkpt>
      <trkpt lat="43.44673" lon="2.45458">
        <ele>1095.6</ele>
        <time>2026-05-23T11:29:49Z</time>
      </trkpt>
      <trkpt lat="43.44673" lon="2.45458">
        <ele>1095.6</ele>
        <time>2026-05-23T11:29:54Z</time>
      </trkpt>
      <trkpt lat="43.44673" lon="2.45458">
        <ele>1095.6</ele>
        <time>2026-05-23T11:29:59Z</time>
      </trkpt>
      <trkpt lat="43.44673" lon="2.4545">
        <ele>1095.3</ele>
        <time>2026-05-23T11:30:04Z</time>
      </trkpt>
      <trkpt lat="43.44675" lon="2.45447">
        <ele>1095</ele>
        <time>2026-05-23T11:30:09Z</time>
      </trkpt>
      <trkpt lat="43.44678" lon="2.45446">
        <ele>1094.8</ele>
        <time>2026-05-23T11:30:14Z</time>
      </trkpt>
      <trkpt lat="43.44682" lon="2.45444">
        <ele>1094.5</ele>
        <time>2026-05-23T11:30:19Z</time>
      </trkpt>
      <trkpt lat="43.44688" lon="2.45439">
        <ele>1094</ele>
        <time>2026-05-23T11:30:24Z</time>
      </trkpt>
      <trkpt lat="43.44696" lon="2.45432">
        <ele>1093.3</ele>
        <time>2026-05-23T11:30:29Z</time>
      </trkpt>
      <trkpt lat="43.44702" lon="2.45426">
        <ele>1092.7</ele>
        <time>2026-05-23T11:30:34Z</time>
      </trkpt>
      <trkpt lat="43.4471" lon="2.4542">
        <ele>1092.1</ele>
        <time>2026-05-23T11:30:39Z</time>
      </trkpt>
      <trkpt lat="43.44714" lon="2.45414">
        <ele>1091.3</ele>
        <time>2026-05-23T11:30:44Z</time>
      </trkpt>
      <trkpt lat="43.44718" lon="2.45409">
        <ele>1090.5</ele>
        <time>2026-05-23T11:30:49Z</time>
      </trkpt>
      <trkpt lat="43.44723" lon="2.45403">
        <ele>1089.4</ele>
        <time>2026-05-23T11:30:54Z</time>
      </trkpt>
      <trkpt lat="43.44728" lon="2.45397">
        <ele>1088.3</ele>
        <time>2026-05-23T11:30:59Z</time>
      </trkpt>
      <trkpt lat="43.44728" lon="2.45394">
        <ele>1087.9</ele>
        <time>2026-05-23T11:31:04Z</time>
      </trkpt>
      <trkpt lat="43.44724" lon="2.45392">
        <ele>1087.8</ele>
        <time>2026-05-23T11:31:09Z</time>
      </trkpt>
      <trkpt lat="43.44724" lon="2.45392">
        <ele>1087.8</ele>
        <time>2026-05-23T11:31:14Z</time>
      </trkpt>
      <trkpt lat="43.44724" lon="2.45392">
        <ele>1087.8</ele>
        <time>2026-05-23T11:31:19Z</time>
      </trkpt>
      <trkpt lat="43.44724" lon="2.45392">
        <ele>1087.8</ele>
        <time>2026-05-23T11:31:24Z</time>
      </trkpt>
      <trkpt lat="43.44724" lon="2.45392">
        <ele>1087.8</ele>
        <time>2026-05-23T11:31:29Z</time>
      </trkpt>
      <trkpt lat="43.44724" lon="2.45392">
        <ele>1087.8</ele>
        <time>2026-05-23T11:31:34Z</time>
      </trkpt>
      <trkpt lat="43.44724" lon="2.45392">
        <ele>1087.8</ele>
        <time>2026-05-23T11:31:39Z</time>
      </trkpt>
      <trkpt lat="43.44724" lon="2.45392">
        <ele>1087.8</ele>
        <time>2026-05-23T11:31:44Z</time>
      </trkpt>
      <trkpt lat="43.44724" lon="2.45392">
        <ele>1087.8</ele>
        <time>2026-05-23T11:31:49Z</time>
      </trkpt>
      <trkpt lat="43.44724" lon="2.45392">
        <ele>1087.8</ele>
        <time>2026-05-23T11:31:54Z</time>
      </trkpt>
      <trkpt lat="43.44724" lon="2.45392">
        <ele>1087.8</ele>
        <time>2026-05-23T11:31:59Z</time>
      </trkpt>
      <trkpt lat="43.44724" lon="2.45392">
        <ele>1087.8</ele>
        <time>2026-05-23T11:32:04Z</time>
      </trkpt>
      <trkpt lat="43.44724" lon="2.45392">
        <ele>1087.8</ele>
        <time>2026-05-23T11:32:09Z</time>
      </trkpt>
      <trkpt lat="43.44724" lon="2.45392">
        <ele>1087.8</ele>
        <time>2026-05-23T11:32:14Z</time>
      </trkpt>
      <trkpt lat="43.44724" lon="2.45392">
        <ele>1087.8</ele>
        <time>2026-05-23T11:32:19Z</time>
      </trkpt>
      <trkpt lat="43.44724" lon="2.45392">
        <ele>1087.8</ele>
        <time>2026-05-23T11:32:24Z</time>
      </trkpt>
      <trkpt lat="43.44724" lon="2.45392">
        <ele>1087.8</ele>
        <time>2026-05-23T11:32:29Z</time>
      </trkpt>
      <trkpt lat="43.44724" lon="2.45392">
        <ele>1087.8</ele>
        <time>2026-05-23T11:32:34Z</time>
      </trkpt>
      <trkpt lat="43.44724" lon="2.45392">
        <ele>1087.8</ele>
        <time>2026-05-23T11:32:39Z</time>
      </trkpt>
      <trkpt lat="43.44724" lon="2.45392">
        <ele>1087.8</ele>
        <time>2026-05-23T11:32:44Z</time>
      </trkpt>
      <trkpt lat="43.44724" lon="2.45392">
        <ele>1087.8</ele>
        <time>2026-05-23T11:32:49Z</time>
      </trkpt>
      <trkpt lat="43.44724" lon="2.45392">
        <ele>1087.8</ele>
        <time>2026-05-23T11:32:54Z</time>
      </trkpt>
      <trkpt lat="43.44724" lon="2.45392">
        <ele>1087.8</ele>
        <time>2026-05-23T11:32:59Z</time>
      </trkpt>
      <trkpt lat="43.44724" lon="2.45392">
        <ele>1087.8</ele>
        <time>2026-05-23T11:33:04Z</time>
      </trkpt>
      <trkpt lat="43.44724" lon="2.45392">
        <ele>1087.8</ele>
        <time>2026-05-23T11:33:09Z</time>
      </trkpt>
      <trkpt lat="43.44724" lon="2.45392">
        <ele>1087.8</ele>
        <time>2026-05-23T11:33:14Z</time>
      </trkpt>
      <trkpt lat="43.44724" lon="2.45392">
        <ele>1087.8</ele>
        <time>2026-05-23T11:33:19Z</time>
      </trkpt>
      <trkpt lat="43.44731" lon="2.45384">
        <ele>1086.4</ele>
        <time>2026-05-23T11:33:24Z</time>
      </trkpt>
      <trkpt lat="43.44736" lon="2.4538">
        <ele>1085.7</ele>
        <time>2026-05-23T11:33:29Z</time>
      </trkpt>
      <trkpt lat="43.4474" lon="2.45376">
        <ele>1085</ele>
        <time>2026-05-23T11:33:34Z</time>
      </trkpt>
      <trkpt lat="43.44742" lon="2.45371">
        <ele>1084.3</ele>
        <time>2026-05-23T11:33:39Z</time>
      </trkpt>
      <trkpt lat="43.44742" lon="2.4537">
        <ele>1084.1</ele>
        <time>2026-05-23T11:33:44Z</time>
      </trkpt>
      <trkpt lat="43.44742" lon="2.45369">
        <ele>1084</ele>
        <time>2026-05-23T11:33:49Z</time>
      </trkpt>
      <trkpt lat="43.44746" lon="2.45362">
        <ele>1082.9</ele>
        <time>2026-05-23T11:33:54Z</time>
      </trkpt>
      <trkpt lat="43.44751" lon="2.45355">
        <ele>1081.9</ele>
        <time>2026-05-23T11:33:59Z</time>
      </trkpt>
      <trkpt lat="43.44756" lon="2.45345">
        <ele>1081.1</ele>
        <time>2026-05-23T11:34:04Z</time>
      </trkpt>
      <trkpt lat="43.44759" lon="2.45339">
        <ele>1080.6</ele>
        <time>2026-05-23T11:34:09Z</time>
      </trkpt>
      <trkpt lat="43.44761" lon="2.45333">
        <ele>1080</ele>
        <time>2026-05-23T11:34:14Z</time>
      </trkpt>
      <trkpt lat="43.44764" lon="2.45325">
        <ele>1079</ele>
        <time>2026-05-23T11:34:19Z</time>
      </trkpt>
      <trkpt lat="43.44767" lon="2.45316">
        <ele>1077.9</ele>
        <time>2026-05-23T11:34:24Z</time>
      </trkpt>
      <trkpt lat="43.44771" lon="2.45307">
        <ele>1077</ele>
        <time>2026-05-23T11:34:29Z</time>
      </trkpt>
      <trkpt lat="43.44773" lon="2.45302">
        <ele>1076.5</ele>
        <time>2026-05-23T11:34:34Z</time>
      </trkpt>
      <trkpt lat="43.44773" lon="2.453">
        <ele>1076.2</ele>
        <time>2026-05-23T11:34:39Z</time>
      </trkpt>
      <trkpt lat="43.44772" lon="2.45296">
        <ele>1075.4</ele>
        <time>2026-05-23T11:34:44Z</time>
      </trkpt>
      <trkpt lat="43.44774" lon="2.45288">
        <ele>1074.5</ele>
        <time>2026-05-23T11:34:49Z</time>
      </trkpt>
      <trkpt lat="43.44779" lon="2.45282">
        <ele>1074.2</ele>
        <time>2026-05-23T11:34:54Z</time>
      </trkpt>
      <trkpt lat="43.44783" lon="2.45273">
        <ele>1073.5</ele>
        <time>2026-05-23T11:34:59Z</time>
      </trkpt>
      <trkpt lat="43.44787" lon="2.45263">
        <ele>1072.6</ele>
        <time>2026-05-23T11:35:04Z</time>
      </trkpt>
      <trkpt lat="43.44792" lon="2.45252">
        <ele>1071.8</ele>
        <time>2026-05-23T11:35:09Z</time>
      </trkpt>
      <trkpt lat="43.44794" lon="2.45242">
        <ele>1071.1</ele>
        <time>2026-05-23T11:35:14Z</time>
      </trkpt>
      <trkpt lat="43.44794" lon="2.45233">
        <ele>1070.2</ele>
        <time>2026-05-23T11:35:19Z</time>
      </trkpt>
      <trkpt lat="43.44794" lon="2.45226">
        <ele>1069.5</ele>
        <time>2026-05-23T11:35:24Z</time>
      </trkpt>
      <trkpt lat="43.44794" lon="2.45221">
        <ele>1069</ele>
        <time>2026-05-23T11:35:29Z</time>
      </trkpt>
      <trkpt lat="43.44793" lon="2.45212">
        <ele>1067.9</ele>
        <time>2026-05-23T11:35:34Z</time>
      </trkpt>
      <trkpt lat="43.44789" lon="2.45203">
        <ele>1066.1</ele>
        <time>2026-05-23T11:35:39Z</time>
      </trkpt>
      <trkpt lat="43.44788" lon="2.45197">
        <ele>1065.2</ele>
        <time>2026-05-23T11:35:44Z</time>
      </trkpt>
      <trkpt lat="43.44783" lon="2.45187">
        <ele>1062.9</ele>
        <time>2026-05-23T11:35:49Z</time>
      </trkpt>
      <trkpt lat="43.44779" lon="2.45174">
        <ele>1060.2</ele>
        <time>2026-05-23T11:35:54Z</time>
      </trkpt>
      <trkpt lat="43.44776" lon="2.45163">
        <ele>1058.2</ele>
        <time>2026-05-23T11:35:59Z</time>
      </trkpt>
      <trkpt lat="43.44774" lon="2.45154">
        <ele>1056.8</ele>
        <time>2026-05-23T11:36:04Z</time>
      </trkpt>
      <trkpt lat="43.44772" lon="2.45144">
        <ele>1055.2</ele>
        <time>2026-05-23T11:36:09Z</time>
      </trkpt>
      <trkpt lat="43.44773" lon="2.45134">
        <ele>1054.6</ele>
        <time>2026-05-23T11:36:14Z</time>
      </trkpt>
      <trkpt lat="43.44773" lon="2.45125">
        <ele>1053.8</ele>
        <time>2026-05-23T11:36:19Z</time>
      </trkpt>
      <trkpt lat="43.44774" lon="2.45115">
        <ele>1053.2</ele>
        <time>2026-05-23T11:36:24Z</time>
      </trkpt>
      <trkpt lat="43.44774" lon="2.45105">
        <ele>1052.3</ele>
        <time>2026-05-23T11:36:29Z</time>
      </trkpt>
      <trkpt lat="43.44776" lon="2.45096">
        <ele>1052.2</ele>
        <time>2026-05-23T11:36:34Z</time>
      </trkpt>
      <trkpt lat="43.44779" lon="2.45085">
        <ele>1052.2</ele>
        <time>2026-05-23T11:36:39Z</time>
      </trkpt>
      <trkpt lat="43.44781" lon="2.45074">
        <ele>1052.4</ele>
        <time>2026-05-23T11:36:44Z</time>
      </trkpt>
      <trkpt lat="43.44782" lon="2.45063">
        <ele>1052.3</ele>
        <time>2026-05-23T11:36:49Z</time>
      </trkpt>
      <trkpt lat="43.44783" lon="2.45053">
        <ele>1052.3</ele>
        <time>2026-05-23T11:36:54Z</time>
      </trkpt>
      <trkpt lat="43.44783" lon="2.45044">
        <ele>1051.9</ele>
        <time>2026-05-23T11:36:59Z</time>
      </trkpt>
      <trkpt lat="43.44783" lon="2.45035">
        <ele>1051.5</ele>
        <time>2026-05-23T11:37:04Z</time>
      </trkpt>
      <trkpt lat="43.44784" lon="2.45027">
        <ele>1051.5</ele>
        <time>2026-05-23T11:37:09Z</time>
      </trkpt>
      <trkpt lat="43.44787" lon="2.4502">
        <ele>1052.1</ele>
        <time>2026-05-23T11:37:14Z</time>
      </trkpt>
      <trkpt lat="43.4479" lon="2.45009">
        <ele>1052.5</ele>
        <time>2026-05-23T11:37:19Z</time>
      </trkpt>
      <trkpt lat="43.44792" lon="2.44998">
        <ele>1052.5</ele>
        <time>2026-05-23T11:37:24Z</time>
      </trkpt>
      <trkpt lat="43.44795" lon="2.44988">
        <ele>1052.7</ele>
        <time>2026-05-23T11:37:29Z</time>
      </trkpt>
      <trkpt lat="43.44798" lon="2.44979">
        <ele>1053</ele>
        <time>2026-05-23T11:37:34Z</time>
      </trkpt>
      <trkpt lat="43.44799" lon="2.44969">
        <ele>1052.7</ele>
        <time>2026-05-23T11:37:39Z</time>
      </trkpt>
      <trkpt lat="43.44801" lon="2.44961">
        <ele>1052.7</ele>
        <time>2026-05-23T11:37:44Z</time>
      </trkpt>
      <trkpt lat="43.44804" lon="2.44953">
        <ele>1053.1</ele>
        <time>2026-05-23T11:37:49Z</time>
      </trkpt>
      <trkpt lat="43.44806" lon="2.44943">
        <ele>1053</ele>
        <time>2026-05-23T11:37:54Z</time>
      </trkpt>
      <trkpt lat="43.44808" lon="2.44934">
        <ele>1053</ele>
        <time>2026-05-23T11:37:59Z</time>
      </trkpt>
      <trkpt lat="43.44808" lon="2.44923">
        <ele>1052.4</ele>
        <time>2026-05-23T11:38:04Z</time>
      </trkpt>
      <trkpt lat="43.44808" lon="2.44914">
        <ele>1051.8</ele>
        <time>2026-05-23T11:38:09Z</time>
      </trkpt>
      <trkpt lat="43.44808" lon="2.44903">
        <ele>1050.8</ele>
        <time>2026-05-23T11:38:14Z</time>
      </trkpt>
      <trkpt lat="43.44809" lon="2.44893">
        <ele>1050.3</ele>
        <time>2026-05-23T11:38:19Z</time>
      </trkpt>
      <trkpt lat="43.44811" lon="2.44884">
        <ele>1050</ele>
        <time>2026-05-23T11:38:24Z</time>
      </trkpt>
      <trkpt lat="43.44811" lon="2.44876">
        <ele>1049.3</ele>
        <time>2026-05-23T11:38:29Z</time>
      </trkpt>
      <trkpt lat="43.4481" lon="2.44868">
        <ele>1048.4</ele>
        <time>2026-05-23T11:38:34Z</time>
      </trkpt>
      <trkpt lat="43.4481" lon="2.44861">
        <ele>1047.8</ele>
        <time>2026-05-23T11:38:39Z</time>
      </trkpt>
      <trkpt lat="43.44809" lon="2.44853">
        <ele>1046.8</ele>
        <time>2026-05-23T11:38:44Z</time>
      </trkpt>
      <trkpt lat="43.44809" lon="2.44844">
        <ele>1046.1</ele>
        <time>2026-05-23T11:38:49Z</time>
      </trkpt>
      <trkpt lat="43.44808" lon="2.44839">
        <ele>1045.4</ele>
        <time>2026-05-23T11:38:54Z</time>
      </trkpt>
      <trkpt lat="43.44805" lon="2.44841">
        <ele>1044.8</ele>
        <time>2026-05-23T11:38:59Z</time>
      </trkpt>
      <trkpt lat="43.44801" lon="2.44842">
        <ele>1044</ele>
        <time>2026-05-23T11:39:04Z</time>
      </trkpt>
      <trkpt lat="43.448" lon="2.4484">
        <ele>1043.5</ele>
        <time>2026-05-23T11:39:09Z</time>
      </trkpt>
      <trkpt lat="43.448" lon="2.4484">
        <ele>1043.5</ele>
        <time>2026-05-23T11:39:14Z</time>
      </trkpt>
      <trkpt lat="43.448" lon="2.4484">
        <ele>1043.5</ele>
        <time>2026-05-23T11:39:19Z</time>
      </trkpt>
      <trkpt lat="43.448" lon="2.4484">
        <ele>1043.5</ele>
        <time>2026-05-23T11:39:24Z</time>
      </trkpt>
      <trkpt lat="43.44801" lon="2.44837">
        <ele>1043.5</ele>
        <time>2026-05-23T11:39:29Z</time>
      </trkpt>
      <trkpt lat="43.44806" lon="2.44835">
        <ele>1044.6</ele>
        <time>2026-05-23T11:39:34Z</time>
      </trkpt>
      <trkpt lat="43.44808" lon="2.44832">
        <ele>1044.7</ele>
        <time>2026-05-23T11:39:39Z</time>
      </trkpt>
      <trkpt lat="43.44808" lon="2.44832">
        <ele>1044.7</ele>
        <time>2026-05-23T11:39:44Z</time>
      </trkpt>
      <trkpt lat="43.44809" lon="2.44831">
        <ele>1044.7</ele>
        <time>2026-05-23T11:39:49Z</time>
      </trkpt>
      <trkpt lat="43.44809" lon="2.44831">
        <ele>1044.7</ele>
        <time>2026-05-23T11:39:54Z</time>
      </trkpt>
      <trkpt lat="43.44809" lon="2.44831">
        <ele>1044.7</ele>
        <time>2026-05-23T11:39:59Z</time>
      </trkpt>
      <trkpt lat="43.44809" lon="2.44831">
        <ele>1044.7</ele>
        <time>2026-05-23T11:40:04Z</time>
      </trkpt>
      <trkpt lat="43.44809" lon="2.44831">
        <ele>1044.7</ele>
        <time>2026-05-23T11:40:09Z</time>
      </trkpt>
      <trkpt lat="43.44809" lon="2.44831">
        <ele>1044.7</ele>
        <time>2026-05-23T11:40:14Z</time>
      </trkpt>
      <trkpt lat="43.44809" lon="2.44831">
        <ele>1044.7</ele>
        <time>2026-05-23T11:40:19Z</time>
      </trkpt>
      <trkpt lat="43.44809" lon="2.44831">
        <ele>1044.7</ele>
        <time>2026-05-23T11:40:24Z</time>
      </trkpt>
      <trkpt lat="43.44809" lon="2.44831">
        <ele>1044.7</ele>
        <time>2026-05-23T11:40:29Z</time>
      </trkpt>
      <trkpt lat="43.44809" lon="2.44831">
        <ele>1044.7</ele>
        <time>2026-05-23T11:40:34Z</time>
      </trkpt>
      <trkpt lat="43.44809" lon="2.44831">
        <ele>1044.7</ele>
        <time>2026-05-23T11:40:39Z</time>
      </trkpt>
      <trkpt lat="43.44809" lon="2.44831">
        <ele>1044.7</ele>
        <time>2026-05-23T11:40:44Z</time>
      </trkpt>
      <trkpt lat="43.44809" lon="2.44831">
        <ele>1044.7</ele>
        <time>2026-05-23T11:40:49Z</time>
      </trkpt>
      <trkpt lat="43.44809" lon="2.44831">
        <ele>1044.7</ele>
        <time>2026-05-23T11:40:54Z</time>
      </trkpt>
      <trkpt lat="43.4481" lon="2.44824">
        <ele>1043.7</ele>
        <time>2026-05-23T11:40:59Z</time>
      </trkpt>
      <trkpt lat="43.44814" lon="2.44816">
        <ele>1043.1</ele>
        <time>2026-05-23T11:41:04Z</time>
      </trkpt>
      <trkpt lat="43.44816" lon="2.44806">
        <ele>1041.6</ele>
        <time>2026-05-23T11:41:09Z</time>
      </trkpt>
      <trkpt lat="43.44819" lon="2.44796">
        <ele>1040.3</ele>
        <time>2026-05-23T11:41:14Z</time>
      </trkpt>
      <trkpt lat="43.4482" lon="2.44787">
        <ele>1038.8</ele>
        <time>2026-05-23T11:41:19Z</time>
      </trkpt>
      <trkpt lat="43.44822" lon="2.44782">
        <ele>1038.2</ele>
        <time>2026-05-23T11:41:24Z</time>
      </trkpt>
      <trkpt lat="43.44825" lon="2.44773">
        <ele>1037.1</ele>
        <time>2026-05-23T11:41:29Z</time>
      </trkpt>
      <trkpt lat="43.44828" lon="2.44764">
        <ele>1035.8</ele>
        <time>2026-05-23T11:41:34Z</time>
      </trkpt>
      <trkpt lat="43.44832" lon="2.44755">
        <ele>1034.8</ele>
        <time>2026-05-23T11:41:39Z</time>
      </trkpt>
      <trkpt lat="43.44836" lon="2.44746">
        <ele>1033.8</ele>
        <time>2026-05-23T11:41:44Z</time>
      </trkpt>
      <trkpt lat="43.44841" lon="2.44736">
        <ele>1032.9</ele>
        <time>2026-05-23T11:41:49Z</time>
      </trkpt>
      <trkpt lat="43.44843" lon="2.44728">
        <ele>1031.8</ele>
        <time>2026-05-23T11:41:54Z</time>
      </trkpt>
      <trkpt lat="43.44847" lon="2.44721">
        <ele>1031.3</ele>
        <time>2026-05-23T11:41:59Z</time>
      </trkpt>
      <trkpt lat="43.44852" lon="2.44714">
        <ele>1031</ele>
        <time>2026-05-23T11:42:04Z</time>
      </trkpt>
      <trkpt lat="43.44857" lon="2.44709">
        <ele>1031</ele>
        <time>2026-05-23T11:42:09Z</time>
      </trkpt>
      <trkpt lat="43.44864" lon="2.44704">
        <ele>1031.4</ele>
        <time>2026-05-23T11:42:14Z</time>
      </trkpt>
      <trkpt lat="43.44869" lon="2.44697">
        <ele>1031.2</ele>
        <time>2026-05-23T11:42:19Z</time>
      </trkpt>
      <trkpt lat="43.44875" lon="2.44691">
        <ele>1031.2</ele>
        <time>2026-05-23T11:42:24Z</time>
      </trkpt>
      <trkpt lat="43.4488" lon="2.44685">
        <ele>1031.1</ele>
        <time>2026-05-23T11:42:29Z</time>
      </trkpt>
      <trkpt lat="43.44883" lon="2.44679">
        <ele>1030.7</ele>
        <time>2026-05-23T11:42:34Z</time>
      </trkpt>
      <trkpt lat="43.44888" lon="2.44671">
        <ele>1030.2</ele>
        <time>2026-05-23T11:42:39Z</time>
      </trkpt>
      <trkpt lat="43.44897" lon="2.44662">
        <ele>1030.6</ele>
        <time>2026-05-23T11:42:44Z</time>
      </trkpt>
      <trkpt lat="43.44902" lon="2.44654">
        <ele>1030.5</ele>
        <time>2026-05-23T11:42:49Z</time>
      </trkpt>
      <trkpt lat="43.44905" lon="2.44646">
        <ele>1030</ele>
        <time>2026-05-23T11:42:54Z</time>
      </trkpt>
      <trkpt lat="43.44909" lon="2.44638">
        <ele>1029.7</ele>
        <time>2026-05-23T11:42:59Z</time>
      </trkpt>
      <trkpt lat="43.44913" lon="2.4463">
        <ele>1029.4</ele>
        <time>2026-05-23T11:43:04Z</time>
      </trkpt>
      <trkpt lat="43.44916" lon="2.44624">
        <ele>1029.2</ele>
        <time>2026-05-23T11:43:09Z</time>
      </trkpt>
      <trkpt lat="43.4492" lon="2.44618">
        <ele>1029.2</ele>
        <time>2026-05-23T11:43:14Z</time>
      </trkpt>
      <trkpt lat="43.44925" lon="2.44607">
        <ele>1028.7</ele>
        <time>2026-05-23T11:43:19Z</time>
      </trkpt>
      <trkpt lat="43.44929" lon="2.44597">
        <ele>1028.2</ele>
        <time>2026-05-23T11:43:24Z</time>
      </trkpt>
      <trkpt lat="43.44932" lon="2.4459">
        <ele>1027.8</ele>
        <time>2026-05-23T11:43:29Z</time>
      </trkpt>
      <trkpt lat="43.44934" lon="2.44579">
        <ele>1026.7</ele>
        <time>2026-05-23T11:43:34Z</time>
      </trkpt>
      <trkpt lat="43.44934" lon="2.44571">
        <ele>1025.5</ele>
        <time>2026-05-23T11:43:39Z</time>
      </trkpt>
      <trkpt lat="43.44935" lon="2.44563">
        <ele>1024.5</ele>
        <time>2026-05-23T11:43:44Z</time>
      </trkpt>
      <trkpt lat="43.44939" lon="2.44554">
        <ele>1023.9</ele>
        <time>2026-05-23T11:43:49Z</time>
      </trkpt>
      <trkpt lat="43.44943" lon="2.44548">
        <ele>1023.8</ele>
        <time>2026-05-23T11:43:54Z</time>
      </trkpt>
      <trkpt lat="43.44944" lon="2.4454">
        <ele>1022.8</ele>
        <time>2026-05-23T11:43:59Z</time>
      </trkpt>
      <trkpt lat="43.44945" lon="2.44531">
        <ele>1021.7</ele>
        <time>2026-05-23T11:44:04Z</time>
      </trkpt>
      <trkpt lat="43.44945" lon="2.44521">
        <ele>1020.2</ele>
        <time>2026-05-23T11:44:09Z</time>
      </trkpt>
      <trkpt lat="43.44945" lon="2.4451">
        <ele>1018.6</ele>
        <time>2026-05-23T11:44:14Z</time>
      </trkpt>
      <trkpt lat="43.44947" lon="2.445">
        <ele>1017.6</ele>
        <time>2026-05-23T11:44:19Z</time>
      </trkpt>
      <trkpt lat="43.44948" lon="2.44491">
        <ele>1016.8</ele>
        <time>2026-05-23T11:44:24Z</time>
      </trkpt>
      <trkpt lat="43.44949" lon="2.44485">
        <ele>1016.3</ele>
        <time>2026-05-23T11:44:29Z</time>
      </trkpt>
      <trkpt lat="43.4495" lon="2.44476">
        <ele>1015.6</ele>
        <time>2026-05-23T11:44:34Z</time>
      </trkpt>
      <trkpt lat="43.44952" lon="2.44467">
        <ele>1015</ele>
        <time>2026-05-23T11:44:39Z</time>
      </trkpt>
      <trkpt lat="43.44953" lon="2.44458">
        <ele>1014.2</ele>
        <time>2026-05-23T11:44:44Z</time>
      </trkpt>
      <trkpt lat="43.44955" lon="2.44451">
        <ele>1013.9</ele>
        <time>2026-05-23T11:44:49Z</time>
      </trkpt>
      <trkpt lat="43.44956" lon="2.44444">
        <ele>1013.4</ele>
        <time>2026-05-23T11:44:54Z</time>
      </trkpt>
      <trkpt lat="43.44958" lon="2.44435">
        <ele>1012.9</ele>
        <time>2026-05-23T11:44:59Z</time>
      </trkpt>
      <trkpt lat="43.4496" lon="2.44426">
        <ele>1012.4</ele>
        <time>2026-05-23T11:45:04Z</time>
      </trkpt>
      <trkpt lat="43.44962" lon="2.44415">
        <ele>1011.8</ele>
        <time>2026-05-23T11:45:09Z</time>
      </trkpt>
      <trkpt lat="43.44965" lon="2.44406">
        <ele>1011.8</ele>
        <time>2026-05-23T11:45:14Z</time>
      </trkpt>
      <trkpt lat="43.44968" lon="2.44395">
        <ele>1011.7</ele>
        <time>2026-05-23T11:45:19Z</time>
      </trkpt>
      <trkpt lat="43.44973" lon="2.44386">
        <ele>1012.2</ele>
        <time>2026-05-23T11:45:24Z</time>
      </trkpt>
      <trkpt lat="43.44975" lon="2.44376">
        <ele>1011.9</ele>
        <time>2026-05-23T11:45:29Z</time>
      </trkpt>
      <trkpt lat="43.44975" lon="2.44369">
        <ele>1011.4</ele>
        <time>2026-05-23T11:45:34Z</time>
      </trkpt>
      <trkpt lat="43.44975" lon="2.44361">
        <ele>1010.8</ele>
        <time>2026-05-23T11:45:39Z</time>
      </trkpt>
      <trkpt lat="43.44975" lon="2.44352">
        <ele>1010.1</ele>
        <time>2026-05-23T11:45:44Z</time>
      </trkpt>
      <trkpt lat="43.44976" lon="2.44344">
        <ele>1009.8</ele>
        <time>2026-05-23T11:45:49Z</time>
      </trkpt>
      <trkpt lat="43.44978" lon="2.44336">
        <ele>1009.7</ele>
        <time>2026-05-23T11:45:54Z</time>
      </trkpt>
      <trkpt lat="43.4498" lon="2.44328">
        <ele>1009.8</ele>
        <time>2026-05-23T11:45:59Z</time>
      </trkpt>
      <trkpt lat="43.44983" lon="2.44318">
        <ele>1010.1</ele>
        <time>2026-05-23T11:46:04Z</time>
      </trkpt>
      <trkpt lat="43.44985" lon="2.4431">
        <ele>1010.3</ele>
        <time>2026-05-23T11:46:09Z</time>
      </trkpt>
      <trkpt lat="43.44986" lon="2.44304">
        <ele>1010.2</ele>
        <time>2026-05-23T11:46:14Z</time>
      </trkpt>
      <trkpt lat="43.44986" lon="2.44296">
        <ele>1009.9</ele>
        <time>2026-05-23T11:46:19Z</time>
      </trkpt>
      <trkpt lat="43.44986" lon="2.44284">
        <ele>1009.4</ele>
        <time>2026-05-23T11:46:24Z</time>
      </trkpt>
      <trkpt lat="43.44985" lon="2.44279">
        <ele>1009</ele>
        <time>2026-05-23T11:46:29Z</time>
      </trkpt>
      <trkpt lat="43.44985" lon="2.44278">
        <ele>1008.9</ele>
        <time>2026-05-23T11:46:34Z</time>
      </trkpt>
      <trkpt lat="43.44985" lon="2.44278">
        <ele>1008.9</ele>
        <time>2026-05-23T11:46:39Z</time>
      </trkpt>
      <trkpt lat="43.44985" lon="2.44278">
        <ele>1008.9</ele>
        <time>2026-05-23T11:46:44Z</time>
      </trkpt>
      <trkpt lat="43.44985" lon="2.44278">
        <ele>1008.9</ele>
        <time>2026-05-23T11:46:49Z</time>
      </trkpt>
      <trkpt lat="43.44985" lon="2.44278">
        <ele>1008.9</ele>
        <time>2026-05-23T11:46:54Z</time>
      </trkpt>
      <trkpt lat="43.44981" lon="2.4427">
        <ele>1007.7</ele>
        <time>2026-05-23T11:46:59Z</time>
      </trkpt>
      <trkpt lat="43.44981" lon="2.44264">
        <ele>1007.5</ele>
        <time>2026-05-23T11:47:04Z</time>
      </trkpt>
      <trkpt lat="43.44981" lon="2.44263">
        <ele>1007.4</ele>
        <time>2026-05-23T11:47:09Z</time>
      </trkpt>
      <trkpt lat="43.44981" lon="2.44262">
        <ele>1007.4</ele>
        <time>2026-05-23T11:47:14Z</time>
      </trkpt>
      <trkpt lat="43.44981" lon="2.44262">
        <ele>1007.4</ele>
        <time>2026-05-23T11:47:19Z</time>
      </trkpt>
      <trkpt lat="43.44981" lon="2.44262">
        <ele>1007.4</ele>
        <time>2026-05-23T11:47:24Z</time>
      </trkpt>
      <trkpt lat="43.44981" lon="2.44262">
        <ele>1007.4</ele>
        <time>2026-05-23T11:47:29Z</time>
      </trkpt>
      <trkpt lat="43.44981" lon="2.44262">
        <ele>1007.4</ele>
        <time>2026-05-23T11:47:34Z</time>
      </trkpt>
      <trkpt lat="43.44981" lon="2.44262">
        <ele>1007.4</ele>
        <time>2026-05-23T11:47:39Z</time>
      </trkpt>
      <trkpt lat="43.44981" lon="2.44262">
        <ele>1007.4</ele>
        <time>2026-05-23T11:47:44Z</time>
      </trkpt>
      <trkpt lat="43.44981" lon="2.44262">
        <ele>1007.4</ele>
        <time>2026-05-23T11:47:49Z</time>
      </trkpt>
      <trkpt lat="43.44981" lon="2.44262">
        <ele>1007.4</ele>
        <time>2026-05-23T11:47:54Z</time>
      </trkpt>
      <trkpt lat="43.44981" lon="2.44262">
        <ele>1007.4</ele>
        <time>2026-05-23T11:47:59Z</time>
      </trkpt>
      <trkpt lat="43.44976" lon="2.44252">
        <ele>1005.9</ele>
        <time>2026-05-23T11:48:04Z</time>
      </trkpt>
      <trkpt lat="43.44974" lon="2.44242">
        <ele>1004.9</ele>
        <time>2026-05-23T11:48:09Z</time>
      </trkpt>
      <trkpt lat="43.44977" lon="2.44237">
        <ele>1005.2</ele>
        <time>2026-05-23T11:48:14Z</time>
      </trkpt>
      <trkpt lat="43.44977" lon="2.44237">
        <ele>1005.2</ele>
        <time>2026-05-23T11:48:19Z</time>
      </trkpt>
      <trkpt lat="43.44977" lon="2.44237">
        <ele>1005.2</ele>
        <time>2026-05-23T11:48:24Z</time>
      </trkpt>
      <trkpt lat="43.44977" lon="2.44237">
        <ele>1005.2</ele>
        <time>2026-05-23T11:48:29Z</time>
      </trkpt>
      <trkpt lat="43.44977" lon="2.44237">
        <ele>1005.2</ele>
        <time>2026-05-23T11:48:34Z</time>
      </trkpt>
      <trkpt lat="43.44977" lon="2.44237">
        <ele>1005.2</ele>
        <time>2026-05-23T11:48:39Z</time>
      </trkpt>
      <trkpt lat="43.44977" lon="2.44237">
        <ele>1005.2</ele>
        <time>2026-05-23T11:48:44Z</time>
      </trkpt>
      <trkpt lat="43.44977" lon="2.44237">
        <ele>1005.2</ele>
        <time>2026-05-23T11:48:49Z</time>
      </trkpt>
      <trkpt lat="43.44977" lon="2.44237">
        <ele>1005.2</ele>
        <time>2026-05-23T11:48:54Z</time>
      </trkpt>
      <trkpt lat="43.44977" lon="2.44237">
        <ele>1005.2</ele>
        <time>2026-05-23T11:48:59Z</time>
      </trkpt>
      <trkpt lat="43.44977" lon="2.44237">
        <ele>1005.2</ele>
        <time>2026-05-23T11:49:04Z</time>
      </trkpt>
      <trkpt lat="43.44977" lon="2.44234">
        <ele>1005</ele>
        <time>2026-05-23T11:49:09Z</time>
      </trkpt>
      <trkpt lat="43.44979" lon="2.44229">
        <ele>1005.1</ele>
        <time>2026-05-23T11:49:14Z</time>
      </trkpt>
      <trkpt lat="43.44981" lon="2.44225">
        <ele>1005.2</ele>
        <time>2026-05-23T11:49:19Z</time>
      </trkpt>
      <trkpt lat="43.44984" lon="2.44218">
        <ele>1005.4</ele>
        <time>2026-05-23T11:49:24Z</time>
      </trkpt>
      <trkpt lat="43.44988" lon="2.44207">
        <ele>1005.5</ele>
        <time>2026-05-23T11:49:29Z</time>
      </trkpt>
      <trkpt lat="43.4499" lon="2.44198">
        <ele>1005.2</ele>
        <time>2026-05-23T11:49:34Z</time>
      </trkpt>
      <trkpt lat="43.4499" lon="2.44191">
        <ele>1004.8</ele>
        <time>2026-05-23T11:49:39Z</time>
      </trkpt>
      <trkpt lat="43.44989" lon="2.44184">
        <ele>1004.1</ele>
        <time>2026-05-23T11:49:44Z</time>
      </trkpt>
      <trkpt lat="43.44987" lon="2.44178">
        <ele>1003.3</ele>
        <time>2026-05-23T11:49:49Z</time>
      </trkpt>
      <trkpt lat="43.44986" lon="2.44177">
        <ele>1003</ele>
        <time>2026-05-23T11:49:54Z</time>
      </trkpt>
      <trkpt lat="43.44986" lon="2.44177">
        <ele>1003</ele>
        <time>2026-05-23T11:49:59Z</time>
      </trkpt>
      <trkpt lat="43.44986" lon="2.44177">
        <ele>1003</ele>
        <time>2026-05-23T11:50:04Z</time>
      </trkpt>
      <trkpt lat="43.44986" lon="2.44177">
        <ele>1003</ele>
        <time>2026-05-23T11:50:09Z</time>
      </trkpt>
      <trkpt lat="43.44986" lon="2.44177">
        <ele>1003</ele>
        <time>2026-05-23T11:50:14Z</time>
      </trkpt>
      <trkpt lat="43.44986" lon="2.44177">
        <ele>1003</ele>
        <time>2026-05-23T11:50:19Z</time>
      </trkpt>
      <trkpt lat="43.4499" lon="2.44174">
        <ele>1003.6</ele>
        <time>2026-05-23T11:50:24Z</time>
      </trkpt>
      <trkpt lat="43.4499" lon="2.44174">
        <ele>1003.6</ele>
        <time>2026-05-23T11:50:29Z</time>
      </trkpt>
      <trkpt lat="43.4499" lon="2.44174">
        <ele>1003.6</ele>
        <time>2026-05-23T11:50:34Z</time>
      </trkpt>
      <trkpt lat="43.44989" lon="2.44164">
        <ele>1002.6</ele>
        <time>2026-05-23T11:50:39Z</time>
      </trkpt>
      <trkpt lat="43.44991" lon="2.44156">
        <ele>1002.3</ele>
        <time>2026-05-23T11:50:44Z</time>
      </trkpt>
      <trkpt lat="43.44993" lon="2.44147">
        <ele>1001.9</ele>
        <time>2026-05-23T11:50:49Z</time>
      </trkpt>
      <trkpt lat="43.44995" lon="2.44138">
        <ele>1001.5</ele>
        <time>2026-05-23T11:50:54Z</time>
      </trkpt>
      <trkpt lat="43.44995" lon="2.44131">
        <ele>1000.9</ele>
        <time>2026-05-23T11:50:59Z</time>
      </trkpt>
      <trkpt lat="43.44996" lon="2.44124">
        <ele>1000.5</ele>
        <time>2026-05-23T11:51:04Z</time>
      </trkpt>
      <trkpt lat="43.44997" lon="2.44116">
        <ele>1000.1</ele>
        <time>2026-05-23T11:51:09Z</time>
      </trkpt>
      <trkpt lat="43.45" lon="2.44108">
        <ele>1000.1</ele>
        <time>2026-05-23T11:51:14Z</time>
      </trkpt>
      <trkpt lat="43.45003" lon="2.44102">
        <ele>999.7</ele>
        <time>2026-05-23T11:51:19Z</time>
      </trkpt>
      <trkpt lat="43.45007" lon="2.44093">
        <ele>999</ele>
        <time>2026-05-23T11:51:24Z</time>
      </trkpt>
      <trkpt lat="43.4501" lon="2.44085">
        <ele>998.4</ele>
        <time>2026-05-23T11:51:29Z</time>
      </trkpt>
      <trkpt lat="43.45011" lon="2.44079">
        <ele>997.6</ele>
        <time>2026-05-23T11:51:34Z</time>
      </trkpt>
      <trkpt lat="43.45013" lon="2.44071">
        <ele>996.5</ele>
        <time>2026-05-23T11:51:39Z</time>
      </trkpt>
      <trkpt lat="43.45015" lon="2.44064">
        <ele>995.6</ele>
        <time>2026-05-23T11:51:44Z</time>
      </trkpt>
      <trkpt lat="43.45017" lon="2.44057">
        <ele>994.6</ele>
        <time>2026-05-23T11:51:49Z</time>
      </trkpt>
      <trkpt lat="43.4502" lon="2.44049">
        <ele>993.5</ele>
        <time>2026-05-23T11:51:54Z</time>
      </trkpt>
      <trkpt lat="43.45021" lon="2.44045">
        <ele>993</ele>
        <time>2026-05-23T11:51:59Z</time>
      </trkpt>
      <trkpt lat="43.45022" lon="2.44043">
        <ele>992.7</ele>
        <time>2026-05-23T11:52:04Z</time>
      </trkpt>
      <trkpt lat="43.45023" lon="2.44032">
        <ele>991.2</ele>
        <time>2026-05-23T11:52:09Z</time>
      </trkpt>
      <trkpt lat="43.45026" lon="2.44024">
        <ele>990.1</ele>
        <time>2026-05-23T11:52:14Z</time>
      </trkpt>
      <trkpt lat="43.45031" lon="2.44018">
        <ele>989.3</ele>
        <time>2026-05-23T11:52:19Z</time>
      </trkpt>
      <trkpt lat="43.45034" lon="2.44011">
        <ele>988.4</ele>
        <time>2026-05-23T11:52:24Z</time>
      </trkpt>
      <trkpt lat="43.45037" lon="2.44005">
        <ele>987.6</ele>
        <time>2026-05-23T11:52:29Z</time>
      </trkpt>
      <trkpt lat="43.45042" lon="2.44001">
        <ele>987.2</ele>
        <time>2026-05-23T11:52:34Z</time>
      </trkpt>
      <trkpt lat="43.45047" lon="2.43995">
        <ele>986.6</ele>
        <time>2026-05-23T11:52:39Z</time>
      </trkpt>
      <trkpt lat="43.45051" lon="2.43992">
        <ele>986.3</ele>
        <time>2026-05-23T11:52:44Z</time>
      </trkpt>
      <trkpt lat="43.45057" lon="2.4399">
        <ele>986.3</ele>
        <time>2026-05-23T11:52:49Z</time>
      </trkpt>
      <trkpt lat="43.45064" lon="2.4399">
        <ele>986.5</ele>
        <time>2026-05-23T11:52:54Z</time>
      </trkpt>
      <trkpt lat="43.45072" lon="2.43988">
        <ele>986.5</ele>
        <time>2026-05-23T11:52:59Z</time>
      </trkpt>
      <trkpt lat="43.4508" lon="2.43989">
        <ele>986.8</ele>
        <time>2026-05-23T11:53:04Z</time>
      </trkpt>
      <trkpt lat="43.45086" lon="2.4399">
        <ele>987.1</ele>
        <time>2026-05-23T11:53:09Z</time>
      </trkpt>
      <trkpt lat="43.45091" lon="2.43991">
        <ele>987.3</ele>
        <time>2026-05-23T11:53:14Z</time>
      </trkpt>
      <trkpt lat="43.45099" lon="2.4399">
        <ele>987.3</ele>
        <time>2026-05-23T11:53:19Z</time>
      </trkpt>
      <trkpt lat="43.45109" lon="2.43991">
        <ele>987.6</ele>
        <time>2026-05-23T11:53:24Z</time>
      </trkpt>
      <trkpt lat="43.45117" lon="2.43995">
        <ele>988.2</ele>
        <time>2026-05-23T11:53:29Z</time>
      </trkpt>
      <trkpt lat="43.45123" lon="2.43999">
        <ele>988.8</ele>
        <time>2026-05-23T11:53:34Z</time>
      </trkpt>
      <trkpt lat="43.4513" lon="2.44003">
        <ele>989.5</ele>
        <time>2026-05-23T11:53:39Z</time>
      </trkpt>
      <trkpt lat="43.45137" lon="2.44008">
        <ele>990.4</ele>
        <time>2026-05-23T11:53:44Z</time>
      </trkpt>
      <trkpt lat="43.45144" lon="2.44014">
        <ele>991.3</ele>
        <time>2026-05-23T11:53:49Z</time>
      </trkpt>
      <trkpt lat="43.4515" lon="2.44023">
        <ele>992.7</ele>
        <time>2026-05-23T11:53:54Z</time>
      </trkpt>
      <trkpt lat="43.45154" lon="2.4403">
        <ele>993.7</ele>
        <time>2026-05-23T11:53:59Z</time>
      </trkpt>
      <trkpt lat="43.45159" lon="2.4404">
        <ele>995.1</ele>
        <time>2026-05-23T11:54:04Z</time>
      </trkpt>
      <trkpt lat="43.45163" lon="2.44048">
        <ele>996.3</ele>
        <time>2026-05-23T11:54:09Z</time>
      </trkpt>
      <trkpt lat="43.45169" lon="2.44057">
        <ele>997.2</ele>
        <time>2026-05-23T11:54:14Z</time>
      </trkpt>
      <trkpt lat="43.45174" lon="2.44065">
        <ele>997.6</ele>
        <time>2026-05-23T11:54:19Z</time>
      </trkpt>
      <trkpt lat="43.45178" lon="2.44074">
        <ele>998.2</ele>
        <time>2026-05-23T11:54:24Z</time>
      </trkpt>
      <trkpt lat="43.4518" lon="2.44083">
        <ele>999</ele>
        <time>2026-05-23T11:54:29Z</time>
      </trkpt>
      <trkpt lat="43.45182" lon="2.4409">
        <ele>999.6</ele>
        <time>2026-05-23T11:54:34Z</time>
      </trkpt>
      <trkpt lat="43.45185" lon="2.441">
        <ele>1000.3</ele>
        <time>2026-05-23T11:54:39Z</time>
      </trkpt>
      <trkpt lat="43.45189" lon="2.4411">
        <ele>1000.9</ele>
        <time>2026-05-23T11:54:44Z</time>
      </trkpt>
      <trkpt lat="43.45192" lon="2.4412">
        <ele>1001.6</ele>
        <time>2026-05-23T11:54:49Z</time>
      </trkpt>
      <trkpt lat="43.45193" lon="2.44131">
        <ele>1002.7</ele>
        <time>2026-05-23T11:54:54Z</time>
      </trkpt>
      <trkpt lat="43.45196" lon="2.44141">
        <ele>1003.5</ele>
        <time>2026-05-23T11:54:59Z</time>
      </trkpt>
      <trkpt lat="43.45197" lon="2.44149">
        <ele>1004.2</ele>
        <time>2026-05-23T11:55:04Z</time>
      </trkpt>
      <trkpt lat="43.45199" lon="2.44161">
        <ele>1005.3</ele>
        <time>2026-05-23T11:55:09Z</time>
      </trkpt>
      <trkpt lat="43.45201" lon="2.44171">
        <ele>1006.1</ele>
        <time>2026-05-23T11:55:14Z</time>
      </trkpt>
      <trkpt lat="43.45204" lon="2.4418">
        <ele>1006.6</ele>
        <time>2026-05-23T11:55:19Z</time>
      </trkpt>
      <trkpt lat="43.45206" lon="2.4419">
        <ele>1007.3</ele>
        <time>2026-05-23T11:55:24Z</time>
      </trkpt>
      <trkpt lat="43.4521" lon="2.442">
        <ele>1007.6</ele>
        <time>2026-05-23T11:55:29Z</time>
      </trkpt>
      <trkpt lat="43.45212" lon="2.44207">
        <ele>1007.9</ele>
        <time>2026-05-23T11:55:34Z</time>
      </trkpt>
      <trkpt lat="43.45214" lon="2.44217">
        <ele>1008.5</ele>
        <time>2026-05-23T11:55:39Z</time>
      </trkpt>
      <trkpt lat="43.45214" lon="2.44224">
        <ele>1009.2</ele>
        <time>2026-05-23T11:55:44Z</time>
      </trkpt>
      <trkpt lat="43.45217" lon="2.44236">
        <ele>1009.8</ele>
        <time>2026-05-23T11:55:49Z</time>
      </trkpt>
      <trkpt lat="43.45221" lon="2.44246">
        <ele>1009.9</ele>
        <time>2026-05-23T11:55:54Z</time>
      </trkpt>
      <trkpt lat="43.45225" lon="2.44253">
        <ele>1009.7</ele>
        <time>2026-05-23T11:55:59Z</time>
      </trkpt>
      <trkpt lat="43.45229" lon="2.44261">
        <ele>1009.8</ele>
        <time>2026-05-23T11:56:04Z</time>
      </trkpt>
      <trkpt lat="43.45234" lon="2.44268">
        <ele>1009.6</ele>
        <time>2026-05-23T11:56:09Z</time>
      </trkpt>
      <trkpt lat="43.45238" lon="2.44276">
        <ele>1009.7</ele>
        <time>2026-05-23T11:56:14Z</time>
      </trkpt>
      <trkpt lat="43.45242" lon="2.44285">
        <ele>1009.9</ele>
        <time>2026-05-23T11:56:19Z</time>
      </trkpt>
      <trkpt lat="43.45247" lon="2.44294">
        <ele>1009.9</ele>
        <time>2026-05-23T11:56:24Z</time>
      </trkpt>
      <trkpt lat="43.45249" lon="2.44301">
        <ele>1010.3</ele>
        <time>2026-05-23T11:56:29Z</time>
      </trkpt>
      <trkpt lat="43.45254" lon="2.44308">
        <ele>1009.7</ele>
        <time>2026-05-23T11:56:34Z</time>
      </trkpt>
      <trkpt lat="43.4526" lon="2.44315">
        <ele>1008.8</ele>
        <time>2026-05-23T11:56:39Z</time>
      </trkpt>
      <trkpt lat="43.45267" lon="2.44322">
        <ele>1007.5</ele>
        <time>2026-05-23T11:56:44Z</time>
      </trkpt>
      <trkpt lat="43.45272" lon="2.44328">
        <ele>1006.7</ele>
        <time>2026-05-23T11:56:49Z</time>
      </trkpt>
      <trkpt lat="43.45277" lon="2.44333">
        <ele>1005.9</ele>
        <time>2026-05-23T11:56:54Z</time>
      </trkpt>
      <trkpt lat="43.45282" lon="2.44338">
        <ele>1005.2</ele>
        <time>2026-05-23T11:56:59Z</time>
      </trkpt>
      <trkpt lat="43.45289" lon="2.44344">
        <ele>1004.1</ele>
        <time>2026-05-23T11:57:04Z</time>
      </trkpt>
      <trkpt lat="43.45295" lon="2.4435">
        <ele>1003.4</ele>
        <time>2026-05-23T11:57:09Z</time>
      </trkpt>
      <trkpt lat="43.453" lon="2.44355">
        <ele>1002.9</ele>
        <time>2026-05-23T11:57:14Z</time>
      </trkpt>
      <trkpt lat="43.45306" lon="2.4436">
        <ele>1002.1</ele>
        <time>2026-05-23T11:57:19Z</time>
      </trkpt>
      <trkpt lat="43.45312" lon="2.44364">
        <ele>1001.2</ele>
        <time>2026-05-23T11:57:24Z</time>
      </trkpt>
      <trkpt lat="43.45319" lon="2.44368">
        <ele>1000</ele>
        <time>2026-05-23T11:57:29Z</time>
      </trkpt>
      <trkpt lat="43.45323" lon="2.44374">
        <ele>1000.1</ele>
        <time>2026-05-23T11:57:34Z</time>
      </trkpt>
      <trkpt lat="43.45329" lon="2.44376">
        <ele>998.9</ele>
        <time>2026-05-23T11:57:39Z</time>
      </trkpt>
      <trkpt lat="43.45334" lon="2.44379">
        <ele>998.2</ele>
        <time>2026-05-23T11:57:44Z</time>
      </trkpt>
      <trkpt lat="43.45339" lon="2.44381">
        <ele>997.4</ele>
        <time>2026-05-23T11:57:49Z</time>
      </trkpt>
      <trkpt lat="43.45342" lon="2.44378">
        <ele>996.1</ele>
        <time>2026-05-23T11:57:54Z</time>
      </trkpt>
      <trkpt lat="43.45345" lon="2.44377">
        <ele>995.2</ele>
        <time>2026-05-23T11:57:59Z</time>
      </trkpt>
      <trkpt lat="43.45349" lon="2.44381">
        <ele>995.1</ele>
        <time>2026-05-23T11:58:04Z</time>
      </trkpt>
      <trkpt lat="43.45351" lon="2.44385">
        <ele>995.5</ele>
        <time>2026-05-23T11:58:09Z</time>
      </trkpt>
      <trkpt lat="43.45357" lon="2.44385">
        <ele>994.1</ele>
        <time>2026-05-23T11:58:14Z</time>
      </trkpt>
      <trkpt lat="43.45359" lon="2.44388">
        <ele>994.2</ele>
        <time>2026-05-23T11:58:19Z</time>
      </trkpt>
      <trkpt lat="43.45364" lon="2.4439">
        <ele>993.4</ele>
        <time>2026-05-23T11:58:24Z</time>
      </trkpt>
      <trkpt lat="43.45368" lon="2.44394">
        <ele>993.3</ele>
        <time>2026-05-23T11:58:29Z</time>
      </trkpt>
      <trkpt lat="43.45371" lon="2.44398">
        <ele>993.4</ele>
        <time>2026-05-23T11:58:34Z</time>
      </trkpt>
      <trkpt lat="43.45375" lon="2.44402">
        <ele>993.2</ele>
        <time>2026-05-23T11:58:39Z</time>
      </trkpt>
      <trkpt lat="43.4538" lon="2.44408">
        <ele>993.1</ele>
        <time>2026-05-23T11:58:44Z</time>
      </trkpt>
      <trkpt lat="43.45383" lon="2.44413">
        <ele>993.4</ele>
        <time>2026-05-23T11:58:49Z</time>
      </trkpt>
      <trkpt lat="43.45386" lon="2.44417">
        <ele>993.4</ele>
        <time>2026-05-23T11:58:54Z</time>
      </trkpt>
      <trkpt lat="43.45393" lon="2.4443">
        <ele>994.6</ele>
        <time>2026-05-23T11:58:59Z</time>
      </trkpt>
      <trkpt lat="43.45397" lon="2.44439">
        <ele>995.5</ele>
        <time>2026-05-23T11:59:04Z</time>
      </trkpt>
      <trkpt lat="43.45402" lon="2.44447">
        <ele>996.1</ele>
        <time>2026-05-23T11:59:09Z</time>
      </trkpt>
      <trkpt lat="43.45407" lon="2.44453">
        <ele>996.2</ele>
        <time>2026-05-23T11:59:14Z</time>
      </trkpt>
      <trkpt lat="43.45411" lon="2.4446">
        <ele>996.7</ele>
        <time>2026-05-23T11:59:19Z</time>
      </trkpt>
      <trkpt lat="43.45416" lon="2.44465">
        <ele>996.6</ele>
        <time>2026-05-23T11:59:24Z</time>
      </trkpt>
      <trkpt lat="43.45422" lon="2.44469">
        <ele>995.8</ele>
        <time>2026-05-23T11:59:29Z</time>
      </trkpt>
      <trkpt lat="43.45429" lon="2.44472">
        <ele>994.5</ele>
        <time>2026-05-23T11:59:34Z</time>
      </trkpt>
      <trkpt lat="43.45435" lon="2.44475">
        <ele>993.5</ele>
        <time>2026-05-23T11:59:39Z</time>
      </trkpt>
      <trkpt lat="43.45443" lon="2.4448">
        <ele>992.3</ele>
        <time>2026-05-23T11:59:44Z</time>
      </trkpt>
      <trkpt lat="43.45451" lon="2.44483">
        <ele>990.7</ele>
        <time>2026-05-23T11:59:49Z</time>
      </trkpt>
      <trkpt lat="43.45456" lon="2.44487">
        <ele>990.1</ele>
        <time>2026-05-23T11:59:54Z</time>
      </trkpt>
      <trkpt lat="43.45462" lon="2.4449">
        <ele>989</ele>
        <time>2026-05-23T11:59:59Z</time>
      </trkpt>
      <trkpt lat="43.4547" lon="2.44493">
        <ele>987.3</ele>
        <time>2026-05-23T12:00:04Z</time>
      </trkpt>
      <trkpt lat="43.45477" lon="2.44497">
        <ele>986.1</ele>
        <time>2026-05-23T12:00:09Z</time>
      </trkpt>
      <trkpt lat="43.45485" lon="2.44501">
        <ele>984.4</ele>
        <time>2026-05-23T12:00:14Z</time>
      </trkpt>
      <trkpt lat="43.45493" lon="2.44504">
        <ele>982.5</ele>
        <time>2026-05-23T12:00:19Z</time>
      </trkpt>
      <trkpt lat="43.45501" lon="2.44508">
        <ele>980.8</ele>
        <time>2026-05-23T12:00:24Z</time>
      </trkpt>
      <trkpt lat="43.4551" lon="2.4451">
        <ele>979.2</ele>
        <time>2026-05-23T12:00:29Z</time>
      </trkpt>
      <trkpt lat="43.45518" lon="2.44512">
        <ele>977.9</ele>
        <time>2026-05-23T12:00:34Z</time>
      </trkpt>
      <trkpt lat="43.45526" lon="2.44512">
        <ele>976.3</ele>
        <time>2026-05-23T12:00:39Z</time>
      </trkpt>
      <trkpt lat="43.45534" lon="2.44512">
        <ele>974.7</ele>
        <time>2026-05-23T12:00:44Z</time>
      </trkpt>
      <trkpt lat="43.45543" lon="2.44513">
        <ele>973.1</ele>
        <time>2026-05-23T12:00:49Z</time>
      </trkpt>
      <trkpt lat="43.4555" lon="2.44514">
        <ele>971.8</ele>
        <time>2026-05-23T12:00:54Z</time>
      </trkpt>
      <trkpt lat="43.45555" lon="2.44514">
        <ele>970.8</ele>
        <time>2026-05-23T12:00:59Z</time>
      </trkpt>
      <trkpt lat="43.45562" lon="2.44514">
        <ele>969.4</ele>
        <time>2026-05-23T12:01:04Z</time>
      </trkpt>
      <trkpt lat="43.45567" lon="2.44507">
        <ele>967.8</ele>
        <time>2026-05-23T12:01:09Z</time>
      </trkpt>
      <trkpt lat="43.45573" lon="2.44501">
        <ele>966.1</ele>
        <time>2026-05-23T12:01:14Z</time>
      </trkpt>
      <trkpt lat="43.45579" lon="2.44496">
        <ele>964.2</ele>
        <time>2026-05-23T12:01:19Z</time>
      </trkpt>
      <trkpt lat="43.45585" lon="2.4449">
        <ele>962.2</ele>
        <time>2026-05-23T12:01:24Z</time>
      </trkpt>
      <trkpt lat="43.45592" lon="2.44483">
        <ele>960.8</ele>
        <time>2026-05-23T12:01:29Z</time>
      </trkpt>
      <trkpt lat="43.45599" lon="2.44478">
        <ele>959.8</ele>
        <time>2026-05-23T12:01:34Z</time>
      </trkpt>
      <trkpt lat="43.45606" lon="2.4447">
        <ele>958.4</ele>
        <time>2026-05-23T12:01:39Z</time>
      </trkpt>
      <trkpt lat="43.45612" lon="2.44464">
        <ele>957.4</ele>
        <time>2026-05-23T12:01:44Z</time>
      </trkpt>
      <trkpt lat="43.45617" lon="2.4446">
        <ele>956.8</ele>
        <time>2026-05-23T12:01:49Z</time>
      </trkpt>
      <trkpt lat="43.45621" lon="2.44456">
        <ele>956.3</ele>
        <time>2026-05-23T12:01:54Z</time>
      </trkpt>
      <trkpt lat="43.45625" lon="2.44451">
        <ele>955.6</ele>
        <time>2026-05-23T12:01:59Z</time>
      </trkpt>
      <trkpt lat="43.45628" lon="2.44447">
        <ele>955.1</ele>
        <time>2026-05-23T12:02:04Z</time>
      </trkpt>
      <trkpt lat="43.4563" lon="2.44446">
        <ele>955</ele>
        <time>2026-05-23T12:02:09Z</time>
      </trkpt>
      <trkpt lat="43.4563" lon="2.44444">
        <ele>954.8</ele>
        <time>2026-05-23T12:02:14Z</time>
      </trkpt>
      <trkpt lat="43.4563" lon="2.44444">
        <ele>954.8</ele>
        <time>2026-05-23T12:02:19Z</time>
      </trkpt>
      <trkpt lat="43.4563" lon="2.44444">
        <ele>954.8</ele>
        <time>2026-05-23T12:02:24Z</time>
      </trkpt>
      <trkpt lat="43.45624" lon="2.44447">
        <ele>955.1</ele>
        <time>2026-05-23T12:02:29Z</time>
      </trkpt>
      <trkpt lat="43.45619" lon="2.44452">
        <ele>955.8</ele>
        <time>2026-05-23T12:02:34Z</time>
      </trkpt>
      <trkpt lat="43.45613" lon="2.44456">
        <ele>956.3</ele>
        <time>2026-05-23T12:02:39Z</time>
      </trkpt>
      <trkpt lat="43.45606" lon="2.44456">
        <ele>956.4</ele>
        <time>2026-05-23T12:02:44Z</time>
      </trkpt>
      <trkpt lat="43.45606" lon="2.44449">
        <ele>955.4</ele>
        <time>2026-05-23T12:02:49Z</time>
      </trkpt>
      <trkpt lat="43.4561" lon="2.44443">
        <ele>954.6</ele>
        <time>2026-05-23T12:02:54Z</time>
      </trkpt>
      <trkpt lat="43.45615" lon="2.44438">
        <ele>953.9</ele>
        <time>2026-05-23T12:02:59Z</time>
      </trkpt>
      <trkpt lat="43.45619" lon="2.44432">
        <ele>953.2</ele>
        <time>2026-05-23T12:03:04Z</time>
      </trkpt>
      <trkpt lat="43.45623" lon="2.44427">
        <ele>952.7</ele>
        <time>2026-05-23T12:03:09Z</time>
      </trkpt>
      <trkpt lat="43.45628" lon="2.4442">
        <ele>952</ele>
        <time>2026-05-23T12:03:14Z</time>
      </trkpt>
      <trkpt lat="43.45632" lon="2.44414">
        <ele>951.3</ele>
        <time>2026-05-23T12:03:19Z</time>
      </trkpt>
      <trkpt lat="43.45636" lon="2.44408">
        <ele>950.6</ele>
        <time>2026-05-23T12:03:24Z</time>
      </trkpt>
      <trkpt lat="43.45639" lon="2.444">
        <ele>949.5</ele>
        <time>2026-05-23T12:03:29Z</time>
      </trkpt>
      <trkpt lat="43.45643" lon="2.44393">
        <ele>948.6</ele>
        <time>2026-05-23T12:03:34Z</time>
      </trkpt>
      <trkpt lat="43.45645" lon="2.44388">
        <ele>947.9</ele>
        <time>2026-05-23T12:03:39Z</time>
      </trkpt>
      <trkpt lat="43.45647" lon="2.44386">
        <ele>947.7</ele>
        <time>2026-05-23T12:03:44Z</time>
      </trkpt>
      <trkpt lat="43.45649" lon="2.44381">
        <ele>947</ele>
        <time>2026-05-23T12:03:49Z</time>
      </trkpt>
      <trkpt lat="43.4565" lon="2.44378">
        <ele>946.6</ele>
        <time>2026-05-23T12:03:54Z</time>
      </trkpt>
      <trkpt lat="43.45649" lon="2.44377">
        <ele>946.5</ele>
        <time>2026-05-23T12:03:59Z</time>
      </trkpt>
      <trkpt lat="43.45651" lon="2.44374">
        <ele>946.1</ele>
        <time>2026-05-23T12:04:04Z</time>
      </trkpt>
      <trkpt lat="43.45655" lon="2.4437">
        <ele>945.7</ele>
        <time>2026-05-23T12:04:09Z</time>
      </trkpt>
      <trkpt lat="43.45656" lon="2.44366">
        <ele>945.2</ele>
        <time>2026-05-23T12:04:14Z</time>
      </trkpt>
      <trkpt lat="43.45658" lon="2.4436">
        <ele>944.4</ele>
        <time>2026-05-23T12:04:19Z</time>
      </trkpt>
      <trkpt lat="43.45661" lon="2.44354">
        <ele>943.7</ele>
        <time>2026-05-23T12:04:24Z</time>
      </trkpt>
      <trkpt lat="43.45662" lon="2.44347">
        <ele>942.7</ele>
        <time>2026-05-23T12:04:29Z</time>
      </trkpt>
      <trkpt lat="43.45665" lon="2.4434">
        <ele>941.9</ele>
        <time>2026-05-23T12:04:34Z</time>
      </trkpt>
      <trkpt lat="43.45667" lon="2.44332">
        <ele>940.9</ele>
        <time>2026-05-23T12:04:39Z</time>
      </trkpt>
      <trkpt lat="43.4567" lon="2.44326">
        <ele>940.7</ele>
        <time>2026-05-23T12:04:44Z</time>
      </trkpt>
      <trkpt lat="43.45673" lon="2.44318">
        <ele>940.2</ele>
        <time>2026-05-23T12:04:49Z</time>
      </trkpt>
      <trkpt lat="43.45679" lon="2.44309">
        <ele>940.4</ele>
        <time>2026-05-23T12:04:54Z</time>
      </trkpt>
      <trkpt lat="43.45685" lon="2.443">
        <ele>940.8</ele>
        <time>2026-05-23T12:04:59Z</time>
      </trkpt>
      <trkpt lat="43.45688" lon="2.44292">
        <ele>940.4</ele>
        <time>2026-05-23T12:05:04Z</time>
      </trkpt>
      <trkpt lat="43.45692" lon="2.44285">
        <ele>940.6</ele>
        <time>2026-05-23T12:05:09Z</time>
      </trkpt>
      <trkpt lat="43.45696" lon="2.44276">
        <ele>940.6</ele>
        <time>2026-05-23T12:05:14Z</time>
      </trkpt>
      <trkpt lat="43.457" lon="2.44268">
        <ele>940.7</ele>
        <time>2026-05-23T12:05:19Z</time>
      </trkpt>
      <trkpt lat="43.45705" lon="2.44259">
        <ele>941.1</ele>
        <time>2026-05-23T12:05:24Z</time>
      </trkpt>
      <trkpt lat="43.4571" lon="2.44251">
        <ele>941.7</ele>
        <time>2026-05-23T12:05:29Z</time>
      </trkpt>
      <trkpt lat="43.45715" lon="2.44244">
        <ele>942.3</ele>
        <time>2026-05-23T12:05:34Z</time>
      </trkpt>
      <trkpt lat="43.4572" lon="2.44235">
        <ele>942.7</ele>
        <time>2026-05-23T12:05:39Z</time>
      </trkpt>
      <trkpt lat="43.45724" lon="2.44227">
        <ele>943</ele>
        <time>2026-05-23T12:05:44Z</time>
      </trkpt>
      <trkpt lat="43.45728" lon="2.44218">
        <ele>943.2</ele>
        <time>2026-05-23T12:05:49Z</time>
      </trkpt>
      <trkpt lat="43.4573" lon="2.44208">
        <ele>942.5</ele>
        <time>2026-05-23T12:05:54Z</time>
      </trkpt>
      <trkpt lat="43.45733" lon="2.44198">
        <ele>942.3</ele>
        <time>2026-05-23T12:05:59Z</time>
      </trkpt>
      <trkpt lat="43.45737" lon="2.4419">
        <ele>942.8</ele>
        <time>2026-05-23T12:06:04Z</time>
      </trkpt>
      <trkpt lat="43.45739" lon="2.44182">
        <ele>942.5</ele>
        <time>2026-05-23T12:06:09Z</time>
      </trkpt>
      <trkpt lat="43.45743" lon="2.44173">
        <ele>942.9</ele>
        <time>2026-05-23T12:06:14Z</time>
      </trkpt>
      <trkpt lat="43.45744" lon="2.44164">
        <ele>942.3</ele>
        <time>2026-05-23T12:06:19Z</time>
      </trkpt>
      <trkpt lat="43.45748" lon="2.44154">
        <ele>942.8</ele>
        <time>2026-05-23T12:06:24Z</time>
      </trkpt>
      <trkpt lat="43.45751" lon="2.44143">
        <ele>942.7</ele>
        <time>2026-05-23T12:06:29Z</time>
      </trkpt>
      <trkpt lat="43.45753" lon="2.44135">
        <ele>942.3</ele>
        <time>2026-05-23T12:06:34Z</time>
      </trkpt>
      <trkpt lat="43.45757" lon="2.44125">
        <ele>942.1</ele>
        <time>2026-05-23T12:06:39Z</time>
      </trkpt>
      <trkpt lat="43.45761" lon="2.44117">
        <ele>942.2</ele>
        <time>2026-05-23T12:06:44Z</time>
      </trkpt>
      <trkpt lat="43.45766" lon="2.4411">
        <ele>942.7</ele>
        <time>2026-05-23T12:06:49Z</time>
      </trkpt>
      <trkpt lat="43.45771" lon="2.44102">
        <ele>943.1</ele>
        <time>2026-05-23T12:06:54Z</time>
      </trkpt>
      <trkpt lat="43.45776" lon="2.44094">
        <ele>943.6</ele>
        <time>2026-05-23T12:06:59Z</time>
      </trkpt>
      <trkpt lat="43.45779" lon="2.44085">
        <ele>943.5</ele>
        <time>2026-05-23T12:07:04Z</time>
      </trkpt>
      <trkpt lat="43.45783" lon="2.44077">
        <ele>943.6</ele>
        <time>2026-05-23T12:07:09Z</time>
      </trkpt>
      <trkpt lat="43.45788" lon="2.44067">
        <ele>943.7</ele>
        <time>2026-05-23T12:07:14Z</time>
      </trkpt>
      <trkpt lat="43.45791" lon="2.44058">
        <ele>943.4</ele>
        <time>2026-05-23T12:07:19Z</time>
      </trkpt>
      <trkpt lat="43.45795" lon="2.44049">
        <ele>943.4</ele>
        <time>2026-05-23T12:07:24Z</time>
      </trkpt>
      <trkpt lat="43.45799" lon="2.44041">
        <ele>943.6</ele>
        <time>2026-05-23T12:07:29Z</time>
      </trkpt>
      <trkpt lat="43.45803" lon="2.44033">
        <ele>943.7</ele>
        <time>2026-05-23T12:07:34Z</time>
      </trkpt>
      <trkpt lat="43.45807" lon="2.44025">
        <ele>943.8</ele>
        <time>2026-05-23T12:07:39Z</time>
      </trkpt>
      <trkpt lat="43.45812" lon="2.44016">
        <ele>944.1</ele>
        <time>2026-05-23T12:07:44Z</time>
      </trkpt>
      <trkpt lat="43.45816" lon="2.44007">
        <ele>944.2</ele>
        <time>2026-05-23T12:07:49Z</time>
      </trkpt>
      <trkpt lat="43.4582" lon="2.44">
        <ele>944.5</ele>
        <time>2026-05-23T12:07:54Z</time>
      </trkpt>
      <trkpt lat="43.45826" lon="2.43992">
        <ele>945.1</ele>
        <time>2026-05-23T12:07:59Z</time>
      </trkpt>
      <trkpt lat="43.45832" lon="2.43983">
        <ele>945.6</ele>
        <time>2026-05-23T12:08:04Z</time>
      </trkpt>
      <trkpt lat="43.45836" lon="2.43975">
        <ele>945.5</ele>
        <time>2026-05-23T12:08:09Z</time>
      </trkpt>
      <trkpt lat="43.45842" lon="2.43968">
        <ele>945.7</ele>
        <time>2026-05-23T12:08:14Z</time>
      </trkpt>
      <trkpt lat="43.45848" lon="2.4396">
        <ele>945.9</ele>
        <time>2026-05-23T12:08:19Z</time>
      </trkpt>
      <trkpt lat="43.45855" lon="2.43955">
        <ele>946.7</ele>
        <time>2026-05-23T12:08:24Z</time>
      </trkpt>
      <trkpt lat="43.45861" lon="2.43948">
        <ele>947.1</ele>
        <time>2026-05-23T12:08:29Z</time>
      </trkpt>
      <trkpt lat="43.45867" lon="2.43942">
        <ele>947.7</ele>
        <time>2026-05-23T12:08:34Z</time>
      </trkpt>
      <trkpt lat="43.45874" lon="2.43935">
        <ele>948.4</ele>
        <time>2026-05-23T12:08:39Z</time>
      </trkpt>
      <trkpt lat="43.4588" lon="2.4393">
        <ele>949.2</ele>
        <time>2026-05-23T12:08:44Z</time>
      </trkpt>
      <trkpt lat="43.45885" lon="2.43923">
        <ele>949.7</ele>
        <time>2026-05-23T12:08:49Z</time>
      </trkpt>
      <trkpt lat="43.4589" lon="2.43916">
        <ele>950.2</ele>
        <time>2026-05-23T12:08:54Z</time>
      </trkpt>
      <trkpt lat="43.45895" lon="2.4391">
        <ele>950.5</ele>
        <time>2026-05-23T12:08:59Z</time>
      </trkpt>
      <trkpt lat="43.459" lon="2.43904">
        <ele>950.8</ele>
        <time>2026-05-23T12:09:04Z</time>
      </trkpt>
      <trkpt lat="43.45903" lon="2.43897">
        <ele>950.6</ele>
        <time>2026-05-23T12:09:09Z</time>
      </trkpt>
      <trkpt lat="43.45909" lon="2.43889">
        <ele>950.9</ele>
        <time>2026-05-23T12:09:14Z</time>
      </trkpt>
      <trkpt lat="43.45914" lon="2.43881">
        <ele>951.1</ele>
        <time>2026-05-23T12:09:19Z</time>
      </trkpt>
      <trkpt lat="43.45918" lon="2.43875">
        <ele>951.1</ele>
        <time>2026-05-23T12:09:24Z</time>
      </trkpt>
      <trkpt lat="43.45923" lon="2.43868">
        <ele>950.9</ele>
        <time>2026-05-23T12:09:29Z</time>
      </trkpt>
      <trkpt lat="43.45926" lon="2.43861">
        <ele>950.5</ele>
        <time>2026-05-23T12:09:34Z</time>
      </trkpt>
      <trkpt lat="43.45931" lon="2.43852">
        <ele>950.3</ele>
        <time>2026-05-23T12:09:39Z</time>
      </trkpt>
      <trkpt lat="43.45935" lon="2.43845">
        <ele>950.2</ele>
        <time>2026-05-23T12:09:44Z</time>
      </trkpt>
      <trkpt lat="43.45939" lon="2.43838">
        <ele>950.2</ele>
        <time>2026-05-23T12:09:49Z</time>
      </trkpt>
      <trkpt lat="43.45943" lon="2.43829">
        <ele>949.8</ele>
        <time>2026-05-23T12:09:54Z</time>
      </trkpt>
      <trkpt lat="43.45946" lon="2.43822">
        <ele>949.3</ele>
        <time>2026-05-23T12:09:59Z</time>
      </trkpt>
      <trkpt lat="43.45951" lon="2.43815">
        <ele>949.2</ele>
        <time>2026-05-23T12:10:04Z</time>
      </trkpt>
      <trkpt lat="43.45955" lon="2.43807">
        <ele>948.8</ele>
        <time>2026-05-23T12:10:09Z</time>
      </trkpt>
      <trkpt lat="43.4596" lon="2.438">
        <ele>948.7</ele>
        <time>2026-05-23T12:10:14Z</time>
      </trkpt>
      <trkpt lat="43.45967" lon="2.43794">
        <ele>949.1</ele>
        <time>2026-05-23T12:10:19Z</time>
      </trkpt>
      <trkpt lat="43.45973" lon="2.43789">
        <ele>949.4</ele>
        <time>2026-05-23T12:10:24Z</time>
      </trkpt>
      <trkpt lat="43.45975" lon="2.43783">
        <ele>949</ele>
        <time>2026-05-23T12:10:29Z</time>
      </trkpt>
      <trkpt lat="43.45979" lon="2.43775">
        <ele>948.6</ele>
        <time>2026-05-23T12:10:34Z</time>
      </trkpt>
      <trkpt lat="43.45982" lon="2.4377">
        <ele>948.5</ele>
        <time>2026-05-23T12:10:39Z</time>
      </trkpt>
      <trkpt lat="43.45984" lon="2.43764">
        <ele>948</ele>
        <time>2026-05-23T12:10:44Z</time>
      </trkpt>
      <trkpt lat="43.45986" lon="2.43757">
        <ele>947.4</ele>
        <time>2026-05-23T12:10:49Z</time>
      </trkpt>
      <trkpt lat="43.45988" lon="2.43751">
        <ele>947</ele>
        <time>2026-05-23T12:10:54Z</time>
      </trkpt>
      <trkpt lat="43.45992" lon="2.43744">
        <ele>946.4</ele>
        <time>2026-05-23T12:10:59Z</time>
      </trkpt>
      <trkpt lat="43.45996" lon="2.43736">
        <ele>945.6</ele>
        <time>2026-05-23T12:11:04Z</time>
      </trkpt>
      <trkpt lat="43.45999" lon="2.43729">
        <ele>944.8</ele>
        <time>2026-05-23T12:11:09Z</time>
      </trkpt>
      <trkpt lat="43.46001" lon="2.43721">
        <ele>943.5</ele>
        <time>2026-05-23T12:11:14Z</time>
      </trkpt>
      <trkpt lat="43.46006" lon="2.4371">
        <ele>942.1</ele>
        <time>2026-05-23T12:11:19Z</time>
      </trkpt>
      <trkpt lat="43.46011" lon="2.43699">
        <ele>940.7</ele>
        <time>2026-05-23T12:11:24Z</time>
      </trkpt>
      <trkpt lat="43.46015" lon="2.43692">
        <ele>939.9</ele>
        <time>2026-05-23T12:11:29Z</time>
      </trkpt>
      <trkpt lat="43.4602" lon="2.43685">
        <ele>939.4</ele>
        <time>2026-05-23T12:11:34Z</time>
      </trkpt>
      <trkpt lat="43.46025" lon="2.43679">
        <ele>939</ele>
        <time>2026-05-23T12:11:39Z</time>
      </trkpt>
      <trkpt lat="43.46029" lon="2.43674">
        <ele>938.8</ele>
        <time>2026-05-23T12:11:44Z</time>
      </trkpt>
      <trkpt lat="43.46034" lon="2.43667">
        <ele>938.4</ele>
        <time>2026-05-23T12:11:49Z</time>
      </trkpt>
      <trkpt lat="43.46037" lon="2.43659">
        <ele>937.2</ele>
        <time>2026-05-23T12:11:54Z</time>
      </trkpt>
      <trkpt lat="43.4604" lon="2.43651">
        <ele>936.1</ele>
        <time>2026-05-23T12:11:59Z</time>
      </trkpt>
      <trkpt lat="43.46041" lon="2.43649">
        <ele>935.9</ele>
        <time>2026-05-23T12:12:04Z</time>
      </trkpt>
      <trkpt lat="43.46041" lon="2.43642">
        <ele>934.5</ele>
        <time>2026-05-23T12:12:09Z</time>
      </trkpt>
      <trkpt lat="43.46042" lon="2.4364">
        <ele>934.3</ele>
        <time>2026-05-23T12:12:14Z</time>
      </trkpt>
      <trkpt lat="43.46042" lon="2.4364">
        <ele>934.3</ele>
        <time>2026-05-23T12:12:19Z</time>
      </trkpt>
      <trkpt lat="43.46042" lon="2.4364">
        <ele>934.3</ele>
        <time>2026-05-23T12:12:24Z</time>
      </trkpt>
      <trkpt lat="43.46042" lon="2.4364">
        <ele>934.3</ele>
        <time>2026-05-23T12:12:29Z</time>
      </trkpt>
      <trkpt lat="43.46047" lon="2.43637">
        <ele>934.7</ele>
        <time>2026-05-23T12:12:34Z</time>
      </trkpt>
      <trkpt lat="43.46051" lon="2.43631">
        <ele>934.3</ele>
        <time>2026-05-23T12:12:39Z</time>
      </trkpt>
      <trkpt lat="43.46056" lon="2.43624">
        <ele>934.1</ele>
        <time>2026-05-23T12:12:44Z</time>
      </trkpt>
      <trkpt lat="43.46061" lon="2.43618">
        <ele>934.1</ele>
        <time>2026-05-23T12:12:49Z</time>
      </trkpt>
      <trkpt lat="43.46067" lon="2.43611">
        <ele>934.3</ele>
        <time>2026-05-23T12:12:54Z</time>
      </trkpt>
      <trkpt lat="43.46074" lon="2.43606">
        <ele>935.1</ele>
        <time>2026-05-23T12:12:59Z</time>
      </trkpt>
      <trkpt lat="43.4608" lon="2.43601">
        <ele>935.7</ele>
        <time>2026-05-23T12:13:04Z</time>
      </trkpt>
      <trkpt lat="43.46087" lon="2.43596">
        <ele>936.4</ele>
        <time>2026-05-23T12:13:09Z</time>
      </trkpt>
      <trkpt lat="43.46092" lon="2.43593">
        <ele>936.8</ele>
        <time>2026-05-23T12:13:14Z</time>
      </trkpt>
      <trkpt lat="43.46098" lon="2.43589">
        <ele>937.3</ele>
        <time>2026-05-23T12:13:19Z</time>
      </trkpt>
      <trkpt lat="43.46106" lon="2.43585">
        <ele>938.3</ele>
        <time>2026-05-23T12:13:24Z</time>
      </trkpt>
      <trkpt lat="43.46115" lon="2.43582">
        <ele>939.5</ele>
        <time>2026-05-23T12:13:29Z</time>
      </trkpt>
      <trkpt lat="43.46122" lon="2.4358">
        <ele>940.5</ele>
        <time>2026-05-23T12:13:34Z</time>
      </trkpt>
      <trkpt lat="43.46128" lon="2.43577">
        <ele>941.2</ele>
        <time>2026-05-23T12:13:39Z</time>
      </trkpt>
      <trkpt lat="43.46133" lon="2.43575">
        <ele>941.8</ele>
        <time>2026-05-23T12:13:44Z</time>
      </trkpt>
      <trkpt lat="43.46139" lon="2.43573">
        <ele>942.7</ele>
        <time>2026-05-23T12:13:49Z</time>
      </trkpt>
      <trkpt lat="43.46146" lon="2.4357">
        <ele>943.6</ele>
        <time>2026-05-23T12:13:54Z</time>
      </trkpt>
      <trkpt lat="43.4615" lon="2.43569">
        <ele>944.2</ele>
        <time>2026-05-23T12:13:59Z</time>
      </trkpt>
      <trkpt lat="43.46155" lon="2.43567">
        <ele>944.9</ele>
        <time>2026-05-23T12:14:04Z</time>
      </trkpt>
      <trkpt lat="43.46163" lon="2.43565">
        <ele>946.1</ele>
        <time>2026-05-23T12:14:09Z</time>
      </trkpt>
      <trkpt lat="43.46171" lon="2.43563">
        <ele>946.6</ele>
        <time>2026-05-23T12:14:14Z</time>
      </trkpt>
      <trkpt lat="43.46179" lon="2.43562">
        <ele>946.7</ele>
        <time>2026-05-23T12:14:19Z</time>
      </trkpt>
      <trkpt lat="43.46184" lon="2.43562">
        <ele>946.8</ele>
        <time>2026-05-23T12:14:24Z</time>
      </trkpt>
      <trkpt lat="43.46188" lon="2.43561">
        <ele>946.8</ele>
        <time>2026-05-23T12:14:29Z</time>
      </trkpt>
      <trkpt lat="43.46193" lon="2.43561">
        <ele>946.9</ele>
        <time>2026-05-23T12:14:34Z</time>
      </trkpt>
      <trkpt lat="43.46198" lon="2.4356">
        <ele>946.9</ele>
        <time>2026-05-23T12:14:39Z</time>
      </trkpt>
      <trkpt lat="43.46205" lon="2.43559">
        <ele>947</ele>
        <time>2026-05-23T12:14:44Z</time>
      </trkpt>
      <trkpt lat="43.46212" lon="2.43557">
        <ele>947</ele>
        <time>2026-05-23T12:14:49Z</time>
      </trkpt>
      <trkpt lat="43.46218" lon="2.43555">
        <ele>947.1</ele>
        <time>2026-05-23T12:14:54Z</time>
      </trkpt>
      <trkpt lat="43.46225" lon="2.43552">
        <ele>947.2</ele>
        <time>2026-05-23T12:14:59Z</time>
      </trkpt>
      <trkpt lat="43.46231" lon="2.43548">
        <ele>947.3</ele>
        <time>2026-05-23T12:15:04Z</time>
      </trkpt>
      <trkpt lat="43.46237" lon="2.43543">
        <ele>947.4</ele>
        <time>2026-05-23T12:15:09Z</time>
      </trkpt>
      <trkpt lat="43.46243" lon="2.43539">
        <ele>947.6</ele>
        <time>2026-05-23T12:15:14Z</time>
      </trkpt>
      <trkpt lat="43.4625" lon="2.43534">
        <ele>948</ele>
        <time>2026-05-23T12:15:19Z</time>
      </trkpt>
      <trkpt lat="43.46256" lon="2.43528">
        <ele>948.1</ele>
        <time>2026-05-23T12:15:24Z</time>
      </trkpt>
      <trkpt lat="43.46262" lon="2.43522">
        <ele>948.2</ele>
        <time>2026-05-23T12:15:29Z</time>
      </trkpt>
      <trkpt lat="43.46268" lon="2.43516">
        <ele>948.4</ele>
        <time>2026-05-23T12:15:34Z</time>
      </trkpt>
      <trkpt lat="43.46273" lon="2.4351">
        <ele>948.6</ele>
        <time>2026-05-23T12:15:39Z</time>
      </trkpt>
      <trkpt lat="43.46279" lon="2.43505">
        <ele>948.9</ele>
        <time>2026-05-23T12:15:44Z</time>
      </trkpt>
      <trkpt lat="43.46282" lon="2.43502">
        <ele>949.1</ele>
        <time>2026-05-23T12:15:49Z</time>
      </trkpt>
      <trkpt lat="43.46282" lon="2.43501">
        <ele>949.1</ele>
        <time>2026-05-23T12:15:54Z</time>
      </trkpt>
      <trkpt lat="43.46283" lon="2.43501">
        <ele>949.2</ele>
        <time>2026-05-23T12:15:59Z</time>
      </trkpt>
      <trkpt lat="43.46283" lon="2.43501">
        <ele>949.2</ele>
        <time>2026-05-23T12:16:04Z</time>
      </trkpt>
      <trkpt lat="43.46283" lon="2.43501">
        <ele>949.2</ele>
        <time>2026-05-23T12:16:09Z</time>
      </trkpt>
      <trkpt lat="43.46289" lon="2.43498">
        <ele>949.2</ele>
        <time>2026-05-23T12:16:14Z</time>
      </trkpt>
      <trkpt lat="43.46295" lon="2.43495">
        <ele>949.2</ele>
        <time>2026-05-23T12:16:19Z</time>
      </trkpt>
      <trkpt lat="43.463" lon="2.4349">
        <ele>949</ele>
        <time>2026-05-23T12:16:24Z</time>
      </trkpt>
      <trkpt lat="43.46305" lon="2.43486">
        <ele>948.9</ele>
        <time>2026-05-23T12:16:29Z</time>
      </trkpt>
      <trkpt lat="43.4631" lon="2.43483">
        <ele>948.9</ele>
        <time>2026-05-23T12:16:34Z</time>
      </trkpt>
      <trkpt lat="43.46317" lon="2.43478">
        <ele>948.8</ele>
        <time>2026-05-23T12:16:39Z</time>
      </trkpt>
      <trkpt lat="43.46323" lon="2.43474">
        <ele>948.9</ele>
        <time>2026-05-23T12:16:44Z</time>
      </trkpt>
      <trkpt lat="43.46327" lon="2.43469">
        <ele>948.8</ele>
        <time>2026-05-23T12:16:49Z</time>
      </trkpt>
      <trkpt lat="43.46332" lon="2.43464">
        <ele>948.8</ele>
        <time>2026-05-23T12:16:54Z</time>
      </trkpt>
      <trkpt lat="43.46339" lon="2.43459">
        <ele>948.1</ele>
        <time>2026-05-23T12:16:59Z</time>
      </trkpt>
      <trkpt lat="43.46343" lon="2.43454">
        <ele>947.6</ele>
        <time>2026-05-23T12:17:04Z</time>
      </trkpt>
      <trkpt lat="43.46348" lon="2.4345">
        <ele>947</ele>
        <time>2026-05-23T12:17:09Z</time>
      </trkpt>
      <trkpt lat="43.46353" lon="2.43443">
        <ele>946.4</ele>
        <time>2026-05-23T12:17:14Z</time>
      </trkpt>
      <trkpt lat="43.46356" lon="2.43437">
        <ele>946</ele>
        <time>2026-05-23T12:17:19Z</time>
      </trkpt>
      <trkpt lat="43.46362" lon="2.43431">
        <ele>945.5</ele>
        <time>2026-05-23T12:17:24Z</time>
      </trkpt>
      <trkpt lat="43.46367" lon="2.43425">
        <ele>945</ele>
        <time>2026-05-23T12:17:29Z</time>
      </trkpt>
      <trkpt lat="43.46372" lon="2.4342">
        <ele>944.7</ele>
        <time>2026-05-23T12:17:34Z</time>
      </trkpt>
      <trkpt lat="43.46377" lon="2.43413">
        <ele>943.9</ele>
        <time>2026-05-23T12:17:39Z</time>
      </trkpt>
      <trkpt lat="43.46381" lon="2.43408">
        <ele>943</ele>
        <time>2026-05-23T12:17:44Z</time>
      </trkpt>
      <trkpt lat="43.46385" lon="2.434">
        <ele>941.7</ele>
        <time>2026-05-23T12:17:49Z</time>
      </trkpt>
      <trkpt lat="43.46389" lon="2.43393">
        <ele>940.6</ele>
        <time>2026-05-23T12:17:54Z</time>
      </trkpt>
      <trkpt lat="43.46393" lon="2.43388">
        <ele>939.8</ele>
        <time>2026-05-23T12:17:59Z</time>
      </trkpt>
      <trkpt lat="43.46397" lon="2.43385">
        <ele>939.4</ele>
        <time>2026-05-23T12:18:04Z</time>
      </trkpt>
      <trkpt lat="43.46402" lon="2.43379">
        <ele>938.5</ele>
        <time>2026-05-23T12:18:09Z</time>
      </trkpt>
      <trkpt lat="43.46407" lon="2.43372">
        <ele>937.6</ele>
        <time>2026-05-23T12:18:14Z</time>
      </trkpt>
      <trkpt lat="43.46412" lon="2.43366">
        <ele>936.9</ele>
        <time>2026-05-23T12:18:19Z</time>
      </trkpt>
      <trkpt lat="43.46417" lon="2.43361">
        <ele>936.3</ele>
        <time>2026-05-23T12:18:24Z</time>
      </trkpt>
      <trkpt lat="43.46421" lon="2.43354">
        <ele>935.3</ele>
        <time>2026-05-23T12:18:29Z</time>
      </trkpt>
      <trkpt lat="43.46426" lon="2.43347">
        <ele>934.3</ele>
        <time>2026-05-23T12:18:34Z</time>
      </trkpt>
      <trkpt lat="43.46427" lon="2.43346">
        <ele>934.2</ele>
        <time>2026-05-23T12:18:39Z</time>
      </trkpt>
      <trkpt lat="43.46428" lon="2.43346">
        <ele>934.2</ele>
        <time>2026-05-23T12:18:44Z</time>
      </trkpt>
      <trkpt lat="43.46429" lon="2.43344">
        <ele>933.9</ele>
        <time>2026-05-23T12:18:49Z</time>
      </trkpt>
      <trkpt lat="43.46431" lon="2.43341">
        <ele>933.6</ele>
        <time>2026-05-23T12:18:54Z</time>
      </trkpt>
      <trkpt lat="43.46435" lon="2.43337">
        <ele>933.1</ele>
        <time>2026-05-23T12:18:59Z</time>
      </trkpt>
      <trkpt lat="43.46437" lon="2.43331">
        <ele>932.4</ele>
        <time>2026-05-23T12:19:04Z</time>
      </trkpt>
      <trkpt lat="43.46441" lon="2.43326">
        <ele>931.6</ele>
        <time>2026-05-23T12:19:09Z</time>
      </trkpt>
      <trkpt lat="43.46445" lon="2.43323">
        <ele>931.1</ele>
        <time>2026-05-23T12:19:14Z</time>
      </trkpt>
      <trkpt lat="43.46446" lon="2.43319">
        <ele>930.5</ele>
        <time>2026-05-23T12:19:19Z</time>
      </trkpt>
      <trkpt lat="43.46448" lon="2.43314">
        <ele>929.8</ele>
        <time>2026-05-23T12:19:24Z</time>
      </trkpt>
      <trkpt lat="43.46454" lon="2.43308">
        <ele>929</ele>
        <time>2026-05-23T12:19:29Z</time>
      </trkpt>
      <trkpt lat="43.46458" lon="2.43302">
        <ele>928.2</ele>
        <time>2026-05-23T12:19:34Z</time>
      </trkpt>
      <trkpt lat="43.46463" lon="2.43296">
        <ele>927.4</ele>
        <time>2026-05-23T12:19:39Z</time>
      </trkpt>
      <trkpt lat="43.46468" lon="2.4329">
        <ele>926.7</ele>
        <time>2026-05-23T12:19:44Z</time>
      </trkpt>
      <trkpt lat="43.46475" lon="2.43285">
        <ele>926.2</ele>
        <time>2026-05-23T12:19:49Z</time>
      </trkpt>
      <trkpt lat="43.4648" lon="2.43279">
        <ele>925.6</ele>
        <time>2026-05-23T12:19:54Z</time>
      </trkpt>
      <trkpt lat="43.46485" lon="2.43273">
        <ele>925</ele>
        <time>2026-05-23T12:19:59Z</time>
      </trkpt>
      <trkpt lat="43.46488" lon="2.4327">
        <ele>924.8</ele>
        <time>2026-05-23T12:20:04Z</time>
      </trkpt>
      <trkpt lat="43.46491" lon="2.43266">
        <ele>924.4</ele>
        <time>2026-05-23T12:20:09Z</time>
      </trkpt>
      <trkpt lat="43.46495" lon="2.4326">
        <ele>923.9</ele>
        <time>2026-05-23T12:20:14Z</time>
      </trkpt>
      <trkpt lat="43.46502" lon="2.43253">
        <ele>923.3</ele>
        <time>2026-05-23T12:20:19Z</time>
      </trkpt>
      <trkpt lat="43.46506" lon="2.43249">
        <ele>922.7</ele>
        <time>2026-05-23T12:20:24Z</time>
      </trkpt>
      <trkpt lat="43.46507" lon="2.43248">
        <ele>922.5</ele>
        <time>2026-05-23T12:20:29Z</time>
      </trkpt>
      <trkpt lat="43.46507" lon="2.43248">
        <ele>922.5</ele>
        <time>2026-05-23T12:20:34Z</time>
      </trkpt>
      <trkpt lat="43.46507" lon="2.43248">
        <ele>922.5</ele>
        <time>2026-05-23T12:20:39Z</time>
      </trkpt>
      <trkpt lat="43.46507" lon="2.43248">
        <ele>922.5</ele>
        <time>2026-05-23T12:20:44Z</time>
      </trkpt>
      <trkpt lat="43.46508" lon="2.43247">
        <ele>922.3</ele>
        <time>2026-05-23T12:20:49Z</time>
      </trkpt>
      <trkpt lat="43.46511" lon="2.43243">
        <ele>921.6</ele>
        <time>2026-05-23T12:20:54Z</time>
      </trkpt>
      <trkpt lat="43.46517" lon="2.43238">
        <ele>920.6</ele>
        <time>2026-05-23T12:20:59Z</time>
      </trkpt>
      <trkpt lat="43.4652" lon="2.43233">
        <ele>919.8</ele>
        <time>2026-05-23T12:21:04Z</time>
      </trkpt>
      <trkpt lat="43.46525" lon="2.43226">
        <ele>918.7</ele>
        <time>2026-05-23T12:21:09Z</time>
      </trkpt>
      <trkpt lat="43.46529" lon="2.43222">
        <ele>918.1</ele>
        <time>2026-05-23T12:21:14Z</time>
      </trkpt>
      <trkpt lat="43.46533" lon="2.43218">
        <ele>917.5</ele>
        <time>2026-05-23T12:21:19Z</time>
      </trkpt>
      <trkpt lat="43.46536" lon="2.43214">
        <ele>917</ele>
        <time>2026-05-23T12:21:24Z</time>
      </trkpt>
      <trkpt lat="43.46542" lon="2.43209">
        <ele>916.3</ele>
        <time>2026-05-23T12:21:29Z</time>
      </trkpt>
      <trkpt lat="43.4655" lon="2.43203">
        <ele>915.7</ele>
        <time>2026-05-23T12:21:34Z</time>
      </trkpt>
      <trkpt lat="43.4655" lon="2.43203">
        <ele>915.7</ele>
        <time>2026-05-23T12:21:39Z</time>
      </trkpt>
      <trkpt lat="43.46551" lon="2.43202">
        <ele>915.6</ele>
        <time>2026-05-23T12:21:44Z</time>
      </trkpt>
      <trkpt lat="43.46554" lon="2.43195">
        <ele>914.8</ele>
        <time>2026-05-23T12:21:49Z</time>
      </trkpt>
      <trkpt lat="43.46556" lon="2.43189">
        <ele>914.1</ele>
        <time>2026-05-23T12:21:54Z</time>
      </trkpt>
      <trkpt lat="43.46559" lon="2.43184">
        <ele>913.6</ele>
        <time>2026-05-23T12:21:59Z</time>
      </trkpt>
      <trkpt lat="43.46563" lon="2.43179">
        <ele>913.2</ele>
        <time>2026-05-23T12:22:04Z</time>
      </trkpt>
      <trkpt lat="43.46568" lon="2.43174">
        <ele>912.9</ele>
        <time>2026-05-23T12:22:09Z</time>
      </trkpt>
      <trkpt lat="43.46572" lon="2.43169">
        <ele>912.6</ele>
        <time>2026-05-23T12:22:14Z</time>
      </trkpt>
      <trkpt lat="43.46575" lon="2.43161">
        <ele>911.7</ele>
        <time>2026-05-23T12:22:19Z</time>
      </trkpt>
      <trkpt lat="43.46579" lon="2.43152">
        <ele>910.6</ele>
        <time>2026-05-23T12:22:24Z</time>
      </trkpt>
      <trkpt lat="43.46581" lon="2.43145">
        <ele>909.7</ele>
        <time>2026-05-23T12:22:29Z</time>
      </trkpt>
      <trkpt lat="43.46585" lon="2.43138">
        <ele>908.9</ele>
        <time>2026-05-23T12:22:34Z</time>
      </trkpt>
      <trkpt lat="43.46589" lon="2.43131">
        <ele>907.8</ele>
        <time>2026-05-23T12:22:39Z</time>
      </trkpt>
      <trkpt lat="43.46594" lon="2.43125">
        <ele>907</ele>
        <time>2026-05-23T12:22:44Z</time>
      </trkpt>
      <trkpt lat="43.466" lon="2.43121">
        <ele>906.5</ele>
        <time>2026-05-23T12:22:49Z</time>
      </trkpt>
      <trkpt lat="43.46606" lon="2.43118">
        <ele>906.1</ele>
        <time>2026-05-23T12:22:54Z</time>
      </trkpt>
      <trkpt lat="43.46611" lon="2.43113">
        <ele>905.6</ele>
        <time>2026-05-23T12:22:59Z</time>
      </trkpt>
      <trkpt lat="43.46613" lon="2.43106">
        <ele>904.8</ele>
        <time>2026-05-23T12:23:04Z</time>
      </trkpt>
      <trkpt lat="43.46618" lon="2.431">
        <ele>904.1</ele>
        <time>2026-05-23T12:23:09Z</time>
      </trkpt>
      <trkpt lat="43.46622" lon="2.43093">
        <ele>903.5</ele>
        <time>2026-05-23T12:23:14Z</time>
      </trkpt>
      <trkpt lat="43.46626" lon="2.43089">
        <ele>903.1</ele>
        <time>2026-05-23T12:23:19Z</time>
      </trkpt>
      <trkpt lat="43.46632" lon="2.43085">
        <ele>902.9</ele>
        <time>2026-05-23T12:23:24Z</time>
      </trkpt>
      <trkpt lat="43.46635" lon="2.4308">
        <ele>902.3</ele>
        <time>2026-05-23T12:23:29Z</time>
      </trkpt>
      <trkpt lat="43.4664" lon="2.43074">
        <ele>901.6</ele>
        <time>2026-05-23T12:23:34Z</time>
      </trkpt>
      <trkpt lat="43.46645" lon="2.43067">
        <ele>900.7</ele>
        <time>2026-05-23T12:23:39Z</time>
      </trkpt>
      <trkpt lat="43.46649" lon="2.4306">
        <ele>899.8</ele>
        <time>2026-05-23T12:23:44Z</time>
      </trkpt>
      <trkpt lat="43.46653" lon="2.43053">
        <ele>898.9</ele>
        <time>2026-05-23T12:23:49Z</time>
      </trkpt>
      <trkpt lat="43.46657" lon="2.43046">
        <ele>898.1</ele>
        <time>2026-05-23T12:23:54Z</time>
      </trkpt>
      <trkpt lat="43.46662" lon="2.4304">
        <ele>897.5</ele>
        <time>2026-05-23T12:23:59Z</time>
      </trkpt>
      <trkpt lat="43.46664" lon="2.43035">
        <ele>896.9</ele>
        <time>2026-05-23T12:24:04Z</time>
      </trkpt>
      <trkpt lat="43.46667" lon="2.43029">
        <ele>896.2</ele>
        <time>2026-05-23T12:24:09Z</time>
      </trkpt>
      <trkpt lat="43.46671" lon="2.43021">
        <ele>894.8</ele>
        <time>2026-05-23T12:24:14Z</time>
      </trkpt>
      <trkpt lat="43.46674" lon="2.43014">
        <ele>893.7</ele>
        <time>2026-05-23T12:24:19Z</time>
      </trkpt>
      <trkpt lat="43.46678" lon="2.4301">
        <ele>893</ele>
        <time>2026-05-23T12:24:24Z</time>
      </trkpt>
      <trkpt lat="43.46682" lon="2.43003">
        <ele>892</ele>
        <time>2026-05-23T12:24:29Z</time>
      </trkpt>
      <trkpt lat="43.46684" lon="2.42997">
        <ele>891.2</ele>
        <time>2026-05-23T12:24:34Z</time>
      </trkpt>
      <trkpt lat="43.46686" lon="2.4299">
        <ele>890.2</ele>
        <time>2026-05-23T12:24:39Z</time>
      </trkpt>
      <trkpt lat="43.46686" lon="2.42984">
        <ele>889.3</ele>
        <time>2026-05-23T12:24:44Z</time>
      </trkpt>
      <trkpt lat="43.46687" lon="2.42975">
        <ele>888.1</ele>
        <time>2026-05-23T12:24:49Z</time>
      </trkpt>
      <trkpt lat="43.46689" lon="2.42967">
        <ele>886.9</ele>
        <time>2026-05-23T12:24:54Z</time>
      </trkpt>
      <trkpt lat="43.46691" lon="2.42959">
        <ele>885.8</ele>
        <time>2026-05-23T12:24:59Z</time>
      </trkpt>
      <trkpt lat="43.46693" lon="2.42951">
        <ele>884.7</ele>
        <time>2026-05-23T12:25:04Z</time>
      </trkpt>
      <trkpt lat="43.46697" lon="2.42945">
        <ele>883.8</ele>
        <time>2026-05-23T12:25:09Z</time>
      </trkpt>
      <trkpt lat="43.46701" lon="2.42937">
        <ele>882.7</ele>
        <time>2026-05-23T12:25:14Z</time>
      </trkpt>
      <trkpt lat="43.46703" lon="2.4293">
        <ele>881.8</ele>
        <time>2026-05-23T12:25:19Z</time>
      </trkpt>
      <trkpt lat="43.46706" lon="2.42922">
        <ele>880.7</ele>
        <time>2026-05-23T12:25:24Z</time>
      </trkpt>
      <trkpt lat="43.46706" lon="2.42915">
        <ele>879.8</ele>
        <time>2026-05-23T12:25:29Z</time>
      </trkpt>
      <trkpt lat="43.46708" lon="2.42909">
        <ele>878.9</ele>
        <time>2026-05-23T12:25:34Z</time>
      </trkpt>
      <trkpt lat="43.46709" lon="2.42903">
        <ele>878</ele>
        <time>2026-05-23T12:25:39Z</time>
      </trkpt>
      <trkpt lat="43.46712" lon="2.42896">
        <ele>877.1</ele>
        <time>2026-05-23T12:25:44Z</time>
      </trkpt>
      <trkpt lat="43.46713" lon="2.42888">
        <ele>876</ele>
        <time>2026-05-23T12:25:49Z</time>
      </trkpt>
      <trkpt lat="43.46714" lon="2.42881">
        <ele>875</ele>
        <time>2026-05-23T12:25:54Z</time>
      </trkpt>
      <trkpt lat="43.46714" lon="2.42875">
        <ele>874.2</ele>
        <time>2026-05-23T12:25:59Z</time>
      </trkpt>
      <trkpt lat="43.46714" lon="2.42868">
        <ele>873.2</ele>
        <time>2026-05-23T12:26:04Z</time>
      </trkpt>
      <trkpt lat="43.46713" lon="2.42862">
        <ele>872.3</ele>
        <time>2026-05-23T12:26:09Z</time>
      </trkpt>
      <trkpt lat="43.46711" lon="2.42853">
        <ele>871</ele>
        <time>2026-05-23T12:26:14Z</time>
      </trkpt>
      <trkpt lat="43.46709" lon="2.42846">
        <ele>869.9</ele>
        <time>2026-05-23T12:26:19Z</time>
      </trkpt>
      <trkpt lat="43.46707" lon="2.42837">
        <ele>868.4</ele>
        <time>2026-05-23T12:26:24Z</time>
      </trkpt>
      <trkpt lat="43.46704" lon="2.4283">
        <ele>867.3</ele>
        <time>2026-05-23T12:26:29Z</time>
      </trkpt>
      <trkpt lat="43.46699" lon="2.42821">
        <ele>866.1</ele>
        <time>2026-05-23T12:26:34Z</time>
      </trkpt>
      <trkpt lat="43.46696" lon="2.42811">
        <ele>864.8</ele>
        <time>2026-05-23T12:26:39Z</time>
      </trkpt>
      <trkpt lat="43.46695" lon="2.42802">
        <ele>863.8</ele>
        <time>2026-05-23T12:26:44Z</time>
      </trkpt>
      <trkpt lat="43.46693" lon="2.42791">
        <ele>862.5</ele>
        <time>2026-05-23T12:26:49Z</time>
      </trkpt>
      <trkpt lat="43.46692" lon="2.42781">
        <ele>861.4</ele>
        <time>2026-05-23T12:26:54Z</time>
      </trkpt>
      <trkpt lat="43.46692" lon="2.42772">
        <ele>860.4</ele>
        <time>2026-05-23T12:26:59Z</time>
      </trkpt>
      <trkpt lat="43.46691" lon="2.42762">
        <ele>859.3</ele>
        <time>2026-05-23T12:27:04Z</time>
      </trkpt>
      <trkpt lat="43.46689" lon="2.42752">
        <ele>858.1</ele>
        <time>2026-05-23T12:27:09Z</time>
      </trkpt>
      <trkpt lat="43.46685" lon="2.42742">
        <ele>857.7</ele>
        <time>2026-05-23T12:27:14Z</time>
      </trkpt>
      <trkpt lat="43.46683" lon="2.42733">
        <ele>857.8</ele>
        <time>2026-05-23T12:27:19Z</time>
      </trkpt>
      <trkpt lat="43.4668" lon="2.42725">
        <ele>857.8</ele>
        <time>2026-05-23T12:27:24Z</time>
      </trkpt>
      <trkpt lat="43.4668" lon="2.42715">
        <ele>858.1</ele>
        <time>2026-05-23T12:27:29Z</time>
      </trkpt>
      <trkpt lat="43.4668" lon="2.42709">
        <ele>858.3</ele>
        <time>2026-05-23T12:27:34Z</time>
      </trkpt>
      <trkpt lat="43.4668" lon="2.42703">
        <ele>858.5</ele>
        <time>2026-05-23T12:27:39Z</time>
      </trkpt>
      <trkpt lat="43.4668" lon="2.42694">
        <ele>858.7</ele>
        <time>2026-05-23T12:27:44Z</time>
      </trkpt>
      <trkpt lat="43.46681" lon="2.42684">
        <ele>859</ele>
        <time>2026-05-23T12:27:49Z</time>
      </trkpt>
      <trkpt lat="43.46683" lon="2.42676">
        <ele>859.3</ele>
        <time>2026-05-23T12:27:54Z</time>
      </trkpt>
      <trkpt lat="43.46686" lon="2.42667">
        <ele>859.7</ele>
        <time>2026-05-23T12:27:59Z</time>
      </trkpt>
      <trkpt lat="43.46688" lon="2.4266">
        <ele>860</ele>
        <time>2026-05-23T12:28:04Z</time>
      </trkpt>
      <trkpt lat="43.46692" lon="2.42652">
        <ele>860.5</ele>
        <time>2026-05-23T12:28:09Z</time>
      </trkpt>
      <trkpt lat="43.46696" lon="2.42645">
        <ele>860.9</ele>
        <time>2026-05-23T12:28:14Z</time>
      </trkpt>
      <trkpt lat="43.46698" lon="2.42635">
        <ele>861.4</ele>
        <time>2026-05-23T12:28:19Z</time>
      </trkpt>
      <trkpt lat="43.467" lon="2.42626">
        <ele>861.8</ele>
        <time>2026-05-23T12:28:24Z</time>
      </trkpt>
      <trkpt lat="43.46701" lon="2.42616">
        <ele>862.2</ele>
        <time>2026-05-23T12:28:29Z</time>
      </trkpt>
      <trkpt lat="43.46701" lon="2.42606">
        <ele>862.5</ele>
        <time>2026-05-23T12:28:34Z</time>
      </trkpt>
      <trkpt lat="43.46701" lon="2.42598">
        <ele>862.9</ele>
        <time>2026-05-23T12:28:39Z</time>
      </trkpt>
      <trkpt lat="43.46702" lon="2.42587">
        <ele>863.3</ele>
        <time>2026-05-23T12:28:44Z</time>
      </trkpt>
      <trkpt lat="43.46702" lon="2.42578">
        <ele>863.4</ele>
        <time>2026-05-23T12:28:49Z</time>
      </trkpt>
      <trkpt lat="43.46703" lon="2.42568">
        <ele>863.4</ele>
        <time>2026-05-23T12:28:54Z</time>
      </trkpt>
      <trkpt lat="43.46704" lon="2.42556">
        <ele>863.4</ele>
        <time>2026-05-23T12:28:59Z</time>
      </trkpt>
      <trkpt lat="43.46704" lon="2.42545">
        <ele>863.4</ele>
        <time>2026-05-23T12:29:04Z</time>
      </trkpt>
      <trkpt lat="43.46704" lon="2.42534">
        <ele>863.4</ele>
        <time>2026-05-23T12:29:09Z</time>
      </trkpt>
      <trkpt lat="43.46704" lon="2.42525">
        <ele>863.4</ele>
        <time>2026-05-23T12:29:14Z</time>
      </trkpt>
      <trkpt lat="43.46705" lon="2.42514">
        <ele>863.5</ele>
        <time>2026-05-23T12:29:19Z</time>
      </trkpt>
      <trkpt lat="43.46705" lon="2.42503">
        <ele>863.5</ele>
        <time>2026-05-23T12:29:24Z</time>
      </trkpt>
      <trkpt lat="43.46706" lon="2.42494">
        <ele>863.2</ele>
        <time>2026-05-23T12:29:29Z</time>
      </trkpt>
      <trkpt lat="43.46707" lon="2.42483">
        <ele>862.7</ele>
        <time>2026-05-23T12:29:34Z</time>
      </trkpt>
      <trkpt lat="43.4671" lon="2.42474">
        <ele>862.3</ele>
        <time>2026-05-23T12:29:39Z</time>
      </trkpt>
      <trkpt lat="43.46711" lon="2.42464">
        <ele>861.8</ele>
        <time>2026-05-23T12:29:44Z</time>
      </trkpt>
      <trkpt lat="43.46712" lon="2.42454">
        <ele>861.4</ele>
        <time>2026-05-23T12:29:49Z</time>
      </trkpt>
      <trkpt lat="43.46713" lon="2.42444">
        <ele>860.9</ele>
        <time>2026-05-23T12:29:54Z</time>
      </trkpt>
      <trkpt lat="43.46716" lon="2.42434">
        <ele>860.6</ele>
        <time>2026-05-23T12:29:59Z</time>
      </trkpt>
      <trkpt lat="43.46718" lon="2.42423">
        <ele>860.1</ele>
        <time>2026-05-23T12:30:04Z</time>
      </trkpt>
      <trkpt lat="43.46719" lon="2.42415">
        <ele>859.8</ele>
        <time>2026-05-23T12:30:09Z</time>
      </trkpt>
      <trkpt lat="43.4672" lon="2.42407">
        <ele>859.3</ele>
        <time>2026-05-23T12:30:14Z</time>
      </trkpt>
      <trkpt lat="43.4672" lon="2.42399">
        <ele>858.8</ele>
        <time>2026-05-23T12:30:19Z</time>
      </trkpt>
      <trkpt lat="43.46719" lon="2.4239">
        <ele>858.2</ele>
        <time>2026-05-23T12:30:24Z</time>
      </trkpt>
      <trkpt lat="43.4672" lon="2.4238">
        <ele>857.6</ele>
        <time>2026-05-23T12:30:29Z</time>
      </trkpt>
      <trkpt lat="43.4672" lon="2.42374">
        <ele>857.2</ele>
        <time>2026-05-23T12:30:34Z</time>
      </trkpt>
      <trkpt lat="43.46721" lon="2.42365">
        <ele>856.6</ele>
        <time>2026-05-23T12:30:39Z</time>
      </trkpt>
      <trkpt lat="43.46721" lon="2.42356">
        <ele>856.1</ele>
        <time>2026-05-23T12:30:44Z</time>
      </trkpt>
      <trkpt lat="43.46721" lon="2.42348">
        <ele>855.5</ele>
        <time>2026-05-23T12:30:49Z</time>
      </trkpt>
      <trkpt lat="43.46722" lon="2.42339">
        <ele>855</ele>
        <time>2026-05-23T12:30:54Z</time>
      </trkpt>
      <trkpt lat="43.46721" lon="2.4233">
        <ele>854.4</ele>
        <time>2026-05-23T12:30:59Z</time>
      </trkpt>
      <trkpt lat="43.4672" lon="2.4232">
        <ele>853.9</ele>
        <time>2026-05-23T12:31:04Z</time>
      </trkpt>
      <trkpt lat="43.46719" lon="2.42309">
        <ele>853.4</ele>
        <time>2026-05-23T12:31:09Z</time>
      </trkpt>
      <trkpt lat="43.46717" lon="2.42301">
        <ele>852.9</ele>
        <time>2026-05-23T12:31:14Z</time>
      </trkpt>
      <trkpt lat="43.46714" lon="2.42289">
        <ele>852.3</ele>
        <time>2026-05-23T12:31:19Z</time>
      </trkpt>
      <trkpt lat="43.46712" lon="2.42279">
        <ele>851.8</ele>
        <time>2026-05-23T12:31:24Z</time>
      </trkpt>
      <trkpt lat="43.46711" lon="2.42269">
        <ele>851.4</ele>
        <time>2026-05-23T12:31:29Z</time>
      </trkpt>
      <trkpt lat="43.4671" lon="2.42259">
        <ele>850.9</ele>
        <time>2026-05-23T12:31:34Z</time>
      </trkpt>
      <trkpt lat="43.46711" lon="2.4225">
        <ele>850.5</ele>
        <time>2026-05-23T12:31:39Z</time>
      </trkpt>
      <trkpt lat="43.46714" lon="2.42246">
        <ele>850.3</ele>
        <time>2026-05-23T12:31:44Z</time>
      </trkpt>
      <trkpt lat="43.46717" lon="2.42244">
        <ele>850.2</ele>
        <time>2026-05-23T12:31:49Z</time>
      </trkpt>
      <trkpt lat="43.46718" lon="2.42242">
        <ele>850.1</ele>
        <time>2026-05-23T12:31:54Z</time>
      </trkpt>
      <trkpt lat="43.46718" lon="2.42242">
        <ele>850.1</ele>
        <time>2026-05-23T12:31:59Z</time>
      </trkpt>
      <trkpt lat="43.46718" lon="2.42242">
        <ele>850.1</ele>
        <time>2026-05-23T12:32:04Z</time>
      </trkpt>
      <trkpt lat="43.46718" lon="2.42242">
        <ele>850.1</ele>
        <time>2026-05-23T12:32:09Z</time>
      </trkpt>
      <trkpt lat="43.46718" lon="2.42242">
        <ele>850.1</ele>
        <time>2026-05-23T12:32:14Z</time>
      </trkpt>
      <trkpt lat="43.46718" lon="2.42242">
        <ele>850.1</ele>
        <time>2026-05-23T12:32:19Z</time>
      </trkpt>
      <trkpt lat="43.46726" lon="2.42236">
        <ele>849.8</ele>
        <time>2026-05-23T12:32:24Z</time>
      </trkpt>
      <trkpt lat="43.46728" lon="2.42227">
        <ele>849.2</ele>
        <time>2026-05-23T12:32:29Z</time>
      </trkpt>
      <trkpt lat="43.4673" lon="2.42223">
        <ele>848.9</ele>
        <time>2026-05-23T12:32:34Z</time>
      </trkpt>
      <trkpt lat="43.46734" lon="2.42221">
        <ele>848.8</ele>
        <time>2026-05-23T12:32:39Z</time>
      </trkpt>
      <trkpt lat="43.46737" lon="2.4222">
        <ele>848.7</ele>
        <time>2026-05-23T12:32:44Z</time>
      </trkpt>
      <trkpt lat="43.46741" lon="2.42215">
        <ele>848.4</ele>
        <time>2026-05-23T12:32:49Z</time>
      </trkpt>
      <trkpt lat="43.46747" lon="2.42212">
        <ele>848.2</ele>
        <time>2026-05-23T12:32:54Z</time>
      </trkpt>
      <trkpt lat="43.46754" lon="2.4221">
        <ele>847.9</ele>
        <time>2026-05-23T12:32:59Z</time>
      </trkpt>
      <trkpt lat="43.4676" lon="2.42206">
        <ele>847.4</ele>
        <time>2026-05-23T12:33:04Z</time>
      </trkpt>
      <trkpt lat="43.46765" lon="2.42201">
        <ele>846.9</ele>
        <time>2026-05-23T12:33:09Z</time>
      </trkpt>
      <trkpt lat="43.46773" lon="2.42199">
        <ele>846.5</ele>
        <time>2026-05-23T12:33:14Z</time>
      </trkpt>
      <trkpt lat="43.4678" lon="2.42201">
        <ele>846.3</ele>
        <time>2026-05-23T12:33:19Z</time>
      </trkpt>
      <trkpt lat="43.46787" lon="2.42202">
        <ele>846</ele>
        <time>2026-05-23T12:33:24Z</time>
      </trkpt>
      <trkpt lat="43.46792" lon="2.42201">
        <ele>845.8</ele>
        <time>2026-05-23T12:33:29Z</time>
      </trkpt>
      <trkpt lat="43.46798" lon="2.42196">
        <ele>845.5</ele>
        <time>2026-05-23T12:33:34Z</time>
      </trkpt>
      <trkpt lat="43.46804" lon="2.4219">
        <ele>845.2</ele>
        <time>2026-05-23T12:33:39Z</time>
      </trkpt>
      <trkpt lat="43.46807" lon="2.42187">
        <ele>845.1</ele>
        <time>2026-05-23T12:33:44Z</time>
      </trkpt>
      <trkpt lat="43.46808" lon="2.42186">
        <ele>845.1</ele>
        <time>2026-05-23T12:33:49Z</time>
      </trkpt>
      <trkpt lat="43.46808" lon="2.42186">
        <ele>845.1</ele>
        <time>2026-05-23T12:33:54Z</time>
      </trkpt>
      <trkpt lat="43.46808" lon="2.42186">
        <ele>845.1</ele>
        <time>2026-05-23T12:33:59Z</time>
      </trkpt>
      <trkpt lat="43.46808" lon="2.42186">
        <ele>845.1</ele>
        <time>2026-05-23T12:34:04Z</time>
      </trkpt>
      <trkpt lat="43.46808" lon="2.42186">
        <ele>845.1</ele>
        <time>2026-05-23T12:34:09Z</time>
      </trkpt>
      <trkpt lat="43.46808" lon="2.42186">
        <ele>845.1</ele>
        <time>2026-05-23T12:34:14Z</time>
      </trkpt>
      <trkpt lat="43.46808" lon="2.42186">
        <ele>845.1</ele>
        <time>2026-05-23T12:34:19Z</time>
      </trkpt>
      <trkpt lat="43.46808" lon="2.42186">
        <ele>845.1</ele>
        <time>2026-05-23T12:34:24Z</time>
      </trkpt>
      <trkpt lat="43.46808" lon="2.42186">
        <ele>845.1</ele>
        <time>2026-05-23T12:34:29Z</time>
      </trkpt>
      <trkpt lat="43.46812" lon="2.42185">
        <ele>845</ele>
        <time>2026-05-23T12:34:34Z</time>
      </trkpt>
      <trkpt lat="43.46818" lon="2.42185">
        <ele>844.9</ele>
        <time>2026-05-23T12:34:39Z</time>
      </trkpt>
      <trkpt lat="43.46823" lon="2.42184">
        <ele>844.8</ele>
        <time>2026-05-23T12:34:44Z</time>
      </trkpt>
      <trkpt lat="43.46826" lon="2.42185">
        <ele>844.7</ele>
        <time>2026-05-23T12:34:49Z</time>
      </trkpt>
      <trkpt lat="43.46828" lon="2.42188">
        <ele>844.6</ele>
        <time>2026-05-23T12:34:54Z</time>
      </trkpt>
      <trkpt lat="43.46833" lon="2.42186">
        <ele>844.5</ele>
        <time>2026-05-23T12:34:59Z</time>
      </trkpt>
      <trkpt lat="43.46838" lon="2.42181">
        <ele>843.8</ele>
        <time>2026-05-23T12:35:04Z</time>
      </trkpt>
      <trkpt lat="43.46844" lon="2.42175">
        <ele>842.9</ele>
        <time>2026-05-23T12:35:09Z</time>
      </trkpt>
      <trkpt lat="43.46848" lon="2.42172">
        <ele>842.3</ele>
        <time>2026-05-23T12:35:14Z</time>
      </trkpt>
      <trkpt lat="43.46852" lon="2.42165">
        <ele>841.9</ele>
        <time>2026-05-23T12:35:19Z</time>
      </trkpt>
      <trkpt lat="43.46858" lon="2.42158">
        <ele>841.3</ele>
        <time>2026-05-23T12:35:24Z</time>
      </trkpt>
      <trkpt lat="43.46863" lon="2.42152">
        <ele>840.9</ele>
        <time>2026-05-23T12:35:29Z</time>
      </trkpt>
      <trkpt lat="43.46866" lon="2.42144">
        <ele>840.9</ele>
        <time>2026-05-23T12:35:34Z</time>
      </trkpt>
      <trkpt lat="43.46871" lon="2.42137">
        <ele>840.7</ele>
        <time>2026-05-23T12:35:39Z</time>
      </trkpt>
      <trkpt lat="43.46874" lon="2.42128">
        <ele>840.9</ele>
        <time>2026-05-23T12:35:44Z</time>
      </trkpt>
      <trkpt lat="43.46877" lon="2.4212">
        <ele>841.1</ele>
        <time>2026-05-23T12:35:49Z</time>
      </trkpt>
      <trkpt lat="43.46879" lon="2.42114">
        <ele>841.4</ele>
        <time>2026-05-23T12:35:54Z</time>
      </trkpt>
      <trkpt lat="43.46881" lon="2.42107">
        <ele>841.7</ele>
        <time>2026-05-23T12:35:59Z</time>
      </trkpt>
      <trkpt lat="43.46885" lon="2.42104">
        <ele>841.6</ele>
        <time>2026-05-23T12:36:04Z</time>
      </trkpt>
      <trkpt lat="43.46892" lon="2.42104">
        <ele>840.9</ele>
        <time>2026-05-23T12:36:09Z</time>
      </trkpt>
      <trkpt lat="43.46896" lon="2.42109">
        <ele>840</ele>
        <time>2026-05-23T12:36:14Z</time>
      </trkpt>
      <trkpt lat="43.46899" lon="2.42114">
        <ele>839.2</ele>
        <time>2026-05-23T12:36:19Z</time>
      </trkpt>
      <trkpt lat="43.46901" lon="2.42119">
        <ele>838.5</ele>
        <time>2026-05-23T12:36:24Z</time>
      </trkpt>
      <trkpt lat="43.46903" lon="2.42124">
        <ele>837.7</ele>
        <time>2026-05-23T12:36:29Z</time>
      </trkpt>
      <trkpt lat="43.46907" lon="2.4213">
        <ele>836.6</ele>
        <time>2026-05-23T12:36:34Z</time>
      </trkpt>
      <trkpt lat="43.46912" lon="2.42136">
        <ele>835.3</ele>
        <time>2026-05-23T12:36:39Z</time>
      </trkpt>
      <trkpt lat="43.46918" lon="2.42141">
        <ele>833.6</ele>
        <time>2026-05-23T12:36:44Z</time>
      </trkpt>
      <trkpt lat="43.46922" lon="2.42144">
        <ele>831.9</ele>
        <time>2026-05-23T12:36:49Z</time>
      </trkpt>
      <trkpt lat="43.46926" lon="2.42148">
        <ele>830</ele>
        <time>2026-05-23T12:36:54Z</time>
      </trkpt>
      <trkpt lat="43.46929" lon="2.42153">
        <ele>828.4</ele>
        <time>2026-05-23T12:36:59Z</time>
      </trkpt>
      <trkpt lat="43.4693" lon="2.42158">
        <ele>827.5</ele>
        <time>2026-05-23T12:37:04Z</time>
      </trkpt>
      <trkpt lat="43.46933" lon="2.42164">
        <ele>825.8</ele>
        <time>2026-05-23T12:37:09Z</time>
      </trkpt>
      <trkpt lat="43.46937" lon="2.42169">
        <ele>823.9</ele>
        <time>2026-05-23T12:37:14Z</time>
      </trkpt>
      <trkpt lat="43.4694" lon="2.42175">
        <ele>822.4</ele>
        <time>2026-05-23T12:37:19Z</time>
      </trkpt>
      <trkpt lat="43.46942" lon="2.42183">
        <ele>821</ele>
        <time>2026-05-23T12:37:24Z</time>
      </trkpt>
      <trkpt lat="43.46944" lon="2.4219">
        <ele>819.7</ele>
        <time>2026-05-23T12:37:29Z</time>
      </trkpt>
      <trkpt lat="43.46945" lon="2.42198">
        <ele>818.6</ele>
        <time>2026-05-23T12:37:34Z</time>
      </trkpt>
      <trkpt lat="43.46946" lon="2.42201">
        <ele>818</ele>
        <time>2026-05-23T12:37:39Z</time>
      </trkpt>
      <trkpt lat="43.46951" lon="2.42198">
        <ele>816.7</ele>
        <time>2026-05-23T12:37:44Z</time>
      </trkpt>
      <trkpt lat="43.46954" lon="2.4219">
        <ele>816.4</ele>
        <time>2026-05-23T12:37:49Z</time>
      </trkpt>
      <trkpt lat="43.46956" lon="2.42181">
        <ele>816.6</ele>
        <time>2026-05-23T12:37:54Z</time>
      </trkpt>
      <trkpt lat="43.46957" lon="2.42173">
        <ele>816.9</ele>
        <time>2026-05-23T12:37:59Z</time>
      </trkpt>
      <trkpt lat="43.46959" lon="2.42166">
        <ele>816.8</ele>
        <time>2026-05-23T12:38:04Z</time>
      </trkpt>
      <trkpt lat="43.46962" lon="2.4216">
        <ele>816.4</ele>
        <time>2026-05-23T12:38:09Z</time>
      </trkpt>
      <trkpt lat="43.46966" lon="2.42153">
        <ele>815.8</ele>
        <time>2026-05-23T12:38:14Z</time>
      </trkpt>
      <trkpt lat="43.46969" lon="2.42146">
        <ele>815.4</ele>
        <time>2026-05-23T12:38:19Z</time>
      </trkpt>
      <trkpt lat="43.46969" lon="2.42139">
        <ele>816.1</ele>
        <time>2026-05-23T12:38:24Z</time>
      </trkpt>
      <trkpt lat="43.46969" lon="2.42128">
        <ele>817.2</ele>
        <time>2026-05-23T12:38:29Z</time>
      </trkpt>
      <trkpt lat="43.46971" lon="2.42118">
        <ele>817.4</ele>
        <time>2026-05-23T12:38:34Z</time>
      </trkpt>
      <trkpt lat="43.46977" lon="2.42116">
        <ele>815.5</ele>
        <time>2026-05-23T12:38:39Z</time>
      </trkpt>
      <trkpt lat="43.4698" lon="2.42125">
        <ele>813.6</ele>
        <time>2026-05-23T12:38:44Z</time>
      </trkpt>
      <trkpt lat="43.46983" lon="2.4213">
        <ele>812.1</ele>
        <time>2026-05-23T12:38:49Z</time>
      </trkpt>
      <trkpt lat="43.46984" lon="2.42137">
        <ele>811.1</ele>
        <time>2026-05-23T12:38:54Z</time>
      </trkpt>
      <trkpt lat="43.46987" lon="2.42143">
        <ele>809.5</ele>
        <time>2026-05-23T12:38:59Z</time>
      </trkpt>
      <trkpt lat="43.46988" lon="2.4215">
        <ele>808.5</ele>
        <time>2026-05-23T12:39:04Z</time>
      </trkpt>
      <trkpt lat="43.46988" lon="2.42151">
        <ele>808.4</ele>
        <time>2026-05-23T12:39:09Z</time>
      </trkpt>
      <trkpt lat="43.46988" lon="2.42151">
        <ele>808.4</ele>
        <time>2026-05-23T12:39:14Z</time>
      </trkpt>
      <trkpt lat="43.46987" lon="2.42154">
        <ele>808.5</ele>
        <time>2026-05-23T12:39:19Z</time>
      </trkpt>
      <trkpt lat="43.46989" lon="2.42163">
        <ele>807</ele>
        <time>2026-05-23T12:39:24Z</time>
      </trkpt>
      <trkpt lat="43.4699" lon="2.42173">
        <ele>805.9</ele>
        <time>2026-05-23T12:39:29Z</time>
      </trkpt>
      <trkpt lat="43.4699" lon="2.42183">
        <ele>805.3</ele>
        <time>2026-05-23T12:39:34Z</time>
      </trkpt>
      <trkpt lat="43.4699" lon="2.42191">
        <ele>804.8</ele>
        <time>2026-05-23T12:39:39Z</time>
      </trkpt>
      <trkpt lat="43.4699" lon="2.42198">
        <ele>804.3</ele>
        <time>2026-05-23T12:39:44Z</time>
      </trkpt>
      <trkpt lat="43.4699" lon="2.42205">
        <ele>803.8</ele>
        <time>2026-05-23T12:39:49Z</time>
      </trkpt>
      <trkpt lat="43.46987" lon="2.42213">
        <ele>804.2</ele>
        <time>2026-05-23T12:39:54Z</time>
      </trkpt>
      <trkpt lat="43.46985" lon="2.42222">
        <ele>804.2</ele>
        <time>2026-05-23T12:39:59Z</time>
      </trkpt>
      <trkpt lat="43.46984" lon="2.42231">
        <ele>803.9</ele>
        <time>2026-05-23T12:40:04Z</time>
      </trkpt>
      <trkpt lat="43.46981" lon="2.42239">
        <ele>804.3</ele>
        <time>2026-05-23T12:40:09Z</time>
      </trkpt>
      <trkpt lat="43.4698" lon="2.42249">
        <ele>803.8</ele>
        <time>2026-05-23T12:40:14Z</time>
      </trkpt>
      <trkpt lat="43.46979" lon="2.42257">
        <ele>803.7</ele>
        <time>2026-05-23T12:40:19Z</time>
      </trkpt>
      <trkpt lat="43.46979" lon="2.42266">
        <ele>803.3</ele>
        <time>2026-05-23T12:40:24Z</time>
      </trkpt>
      <trkpt lat="43.4698" lon="2.42276">
        <ele>802.5</ele>
        <time>2026-05-23T12:40:29Z</time>
      </trkpt>
      <trkpt lat="43.46982" lon="2.42291">
        <ele>801.1</ele>
        <time>2026-05-23T12:40:34Z</time>
      </trkpt>
      <trkpt lat="43.46987" lon="2.42298">
        <ele>799.2</ele>
        <time>2026-05-23T12:40:39Z</time>
      </trkpt>
      <trkpt lat="43.4699" lon="2.42298">
        <ele>798.3</ele>
        <time>2026-05-23T12:40:44Z</time>
      </trkpt>
      <trkpt lat="43.46992" lon="2.42289">
        <ele>798.1</ele>
        <time>2026-05-23T12:40:49Z</time>
      </trkpt>
      <trkpt lat="43.46993" lon="2.42279">
        <ele>798.4</ele>
        <time>2026-05-23T12:40:54Z</time>
      </trkpt>
      <trkpt lat="43.46992" lon="2.4227">
        <ele>799.2</ele>
        <time>2026-05-23T12:40:59Z</time>
      </trkpt>
      <trkpt lat="43.46995" lon="2.42262">
        <ele>798.8</ele>
        <time>2026-05-23T12:41:04Z</time>
      </trkpt>
      <trkpt lat="43.46992" lon="2.4226">
        <ele>799.8</ele>
        <time>2026-05-23T12:41:09Z</time>
      </trkpt>
      <trkpt lat="43.4699" lon="2.4226">
        <ele>800.3</ele>
        <time>2026-05-23T12:41:14Z</time>
      </trkpt>
      <trkpt lat="43.4699" lon="2.4226">
        <ele>800.3</ele>
        <time>2026-05-23T12:41:19Z</time>
      </trkpt>
      <trkpt lat="43.46995" lon="2.42249">
        <ele>799.5</ele>
        <time>2026-05-23T12:41:24Z</time>
      </trkpt>
      <trkpt lat="43.47" lon="2.42241">
        <ele>798.5</ele>
        <time>2026-05-23T12:41:29Z</time>
      </trkpt>
      <trkpt lat="43.47005" lon="2.42233">
        <ele>797.6</ele>
        <time>2026-05-23T12:41:34Z</time>
      </trkpt>
      <trkpt lat="43.4701" lon="2.42225">
        <ele>796.5</ele>
        <time>2026-05-23T12:41:39Z</time>
      </trkpt>
      <trkpt lat="43.47013" lon="2.42218">
        <ele>796.1</ele>
        <time>2026-05-23T12:41:44Z</time>
      </trkpt>
      <trkpt lat="43.47016" lon="2.42208">
        <ele>795.7</ele>
        <time>2026-05-23T12:41:49Z</time>
      </trkpt>
      <trkpt lat="43.47019" lon="2.42199">
        <ele>795.3</ele>
        <time>2026-05-23T12:41:54Z</time>
      </trkpt>
      <trkpt lat="43.47021" lon="2.42189">
        <ele>795.2</ele>
        <time>2026-05-23T12:41:59Z</time>
      </trkpt>
      <trkpt lat="43.47023" lon="2.42179">
        <ele>795.2</ele>
        <time>2026-05-23T12:42:04Z</time>
      </trkpt>
      <trkpt lat="43.47024" lon="2.42169">
        <ele>795.4</ele>
        <time>2026-05-23T12:42:09Z</time>
      </trkpt>
      <trkpt lat="43.47025" lon="2.42158">
        <ele>795.9</ele>
        <time>2026-05-23T12:42:14Z</time>
      </trkpt>
      <trkpt lat="43.47026" lon="2.42147">
        <ele>796.4</ele>
        <time>2026-05-23T12:42:19Z</time>
      </trkpt>
      <trkpt lat="43.47026" lon="2.42137">
        <ele>797.2</ele>
        <time>2026-05-23T12:42:24Z</time>
      </trkpt>
      <trkpt lat="43.47027" lon="2.42126">
        <ele>797.7</ele>
        <time>2026-05-23T12:42:29Z</time>
      </trkpt>
      <trkpt lat="43.47026" lon="2.42117">
        <ele>798.7</ele>
        <time>2026-05-23T12:42:34Z</time>
      </trkpt>
      <trkpt lat="43.47025" lon="2.42108">
        <ele>799.7</ele>
        <time>2026-05-23T12:42:39Z</time>
      </trkpt>
      <trkpt lat="43.47027" lon="2.42098">
        <ele>799.8</ele>
        <time>2026-05-23T12:42:44Z</time>
      </trkpt>
      <trkpt lat="43.47028" lon="2.42088">
        <ele>800.2</ele>
        <time>2026-05-23T12:42:49Z</time>
      </trkpt>
      <trkpt lat="43.47026" lon="2.42078">
        <ele>802</ele>
        <time>2026-05-23T12:42:54Z</time>
      </trkpt>
      <trkpt lat="43.47023" lon="2.42066">
        <ele>804.6</ele>
        <time>2026-05-23T12:42:59Z</time>
      </trkpt>
      <trkpt lat="43.47021" lon="2.42056">
        <ele>806.6</ele>
        <time>2026-05-23T12:43:04Z</time>
      </trkpt>
      <trkpt lat="43.4702" lon="2.42046">
        <ele>808.3</ele>
        <time>2026-05-23T12:43:09Z</time>
      </trkpt>
      <trkpt lat="43.47022" lon="2.42034">
        <ele>809.2</ele>
        <time>2026-05-23T12:43:14Z</time>
      </trkpt>
      <trkpt lat="43.47023" lon="2.42024">
        <ele>810.2</ele>
        <time>2026-05-23T12:43:19Z</time>
      </trkpt>
      <trkpt lat="43.47027" lon="2.42014">
        <ele>810.1</ele>
        <time>2026-05-23T12:43:24Z</time>
      </trkpt>
      <trkpt lat="43.47032" lon="2.42004">
        <ele>809.6</ele>
        <time>2026-05-23T12:43:29Z</time>
      </trkpt>
      <trkpt lat="43.47038" lon="2.41996">
        <ele>808.4</ele>
        <time>2026-05-23T12:43:34Z</time>
      </trkpt>
      <trkpt lat="43.47038" lon="2.41987">
        <ele>809.6</ele>
        <time>2026-05-23T12:43:39Z</time>
      </trkpt>
      <trkpt lat="43.4704" lon="2.41978">
        <ele>810</ele>
        <time>2026-05-23T12:43:44Z</time>
      </trkpt>
      <trkpt lat="43.47041" lon="2.41968">
        <ele>811</ele>
        <time>2026-05-23T12:43:49Z</time>
      </trkpt>
      <trkpt lat="43.47041" lon="2.41959">
        <ele>812.2</ele>
        <time>2026-05-23T12:43:54Z</time>
      </trkpt>
      <trkpt lat="43.47043" lon="2.41951">
        <ele>812.5</ele>
        <time>2026-05-23T12:43:59Z</time>
      </trkpt>
      <trkpt lat="43.47047" lon="2.41943">
        <ele>812</ele>
        <time>2026-05-23T12:44:04Z</time>
      </trkpt>
      <trkpt lat="43.47049" lon="2.41936">
        <ele>812.1</ele>
        <time>2026-05-23T12:44:09Z</time>
      </trkpt>
      <trkpt lat="43.47056" lon="2.41927">
        <ele>810.5</ele>
        <time>2026-05-23T12:44:14Z</time>
      </trkpt>
      <trkpt lat="43.47064" lon="2.41922">
        <ele>808</ele>
        <time>2026-05-23T12:44:19Z</time>
      </trkpt>
      <trkpt lat="43.47072" lon="2.41918">
        <ele>805.3</ele>
        <time>2026-05-23T12:44:24Z</time>
      </trkpt>
      <trkpt lat="43.4708" lon="2.41916">
        <ele>802.5</ele>
        <time>2026-05-23T12:44:29Z</time>
      </trkpt>
      <trkpt lat="43.47086" lon="2.41912">
        <ele>800.7</ele>
        <time>2026-05-23T12:44:34Z</time>
      </trkpt>
      <trkpt lat="43.47093" lon="2.41906">
        <ele>798.7</ele>
        <time>2026-05-23T12:44:39Z</time>
      </trkpt>
      <trkpt lat="43.47099" lon="2.419">
        <ele>797.1</ele>
        <time>2026-05-23T12:44:44Z</time>
      </trkpt>
      <trkpt lat="43.47103" lon="2.41892">
        <ele>797</ele>
        <time>2026-05-23T12:44:49Z</time>
      </trkpt>
      <trkpt lat="43.47108" lon="2.41884">
        <ele>796.4</ele>
        <time>2026-05-23T12:44:54Z</time>
      </trkpt>
      <trkpt lat="43.47113" lon="2.41875">
        <ele>796</ele>
        <time>2026-05-23T12:44:59Z</time>
      </trkpt>
      <trkpt lat="43.47118" lon="2.41868">
        <ele>795.2</ele>
        <time>2026-05-23T12:45:04Z</time>
      </trkpt>
      <trkpt lat="43.47122" lon="2.41861">
        <ele>794.9</ele>
        <time>2026-05-23T12:45:09Z</time>
      </trkpt>
      <trkpt lat="43.47125" lon="2.41853">
        <ele>795.3</ele>
        <time>2026-05-23T12:45:14Z</time>
      </trkpt>
      <trkpt lat="43.47131" lon="2.41847">
        <ele>793.9</ele>
        <time>2026-05-23T12:45:19Z</time>
      </trkpt>
      <trkpt lat="43.47136" lon="2.41839">
        <ele>793.4</ele>
        <time>2026-05-23T12:45:24Z</time>
      </trkpt>
      <trkpt lat="43.47142" lon="2.41832">
        <ele>792.2</ele>
        <time>2026-05-23T12:45:29Z</time>
      </trkpt>
      <trkpt lat="43.47148" lon="2.41823">
        <ele>791.1</ele>
        <time>2026-05-23T12:45:34Z</time>
      </trkpt>
      <trkpt lat="43.47154" lon="2.41813">
        <ele>790.3</ele>
        <time>2026-05-23T12:45:39Z</time>
      </trkpt>
      <trkpt lat="43.4716" lon="2.41805">
        <ele>789.4</ele>
        <time>2026-05-23T12:45:44Z</time>
      </trkpt>
      <trkpt lat="43.47163" lon="2.41798">
        <ele>789.6</ele>
        <time>2026-05-23T12:45:49Z</time>
      </trkpt>
      <trkpt lat="43.47169" lon="2.41792">
        <ele>788.4</ele>
        <time>2026-05-23T12:45:54Z</time>
      </trkpt>
      <trkpt lat="43.47172" lon="2.41782">
        <ele>789</ele>
        <time>2026-05-23T12:45:59Z</time>
      </trkpt>
      <trkpt lat="43.47173" lon="2.41772">
        <ele>790.6</ele>
        <time>2026-05-23T12:46:04Z</time>
      </trkpt>
      <trkpt lat="43.47174" lon="2.41762">
        <ele>792.1</ele>
        <time>2026-05-23T12:46:09Z</time>
      </trkpt>
      <trkpt lat="43.47172" lon="2.41753">
        <ele>794.9</ele>
        <time>2026-05-23T12:46:14Z</time>
      </trkpt>
      <trkpt lat="43.47172" lon="2.41742">
        <ele>796.5</ele>
        <time>2026-05-23T12:46:19Z</time>
      </trkpt>
      <trkpt lat="43.47174" lon="2.41732">
        <ele>796.9</ele>
        <time>2026-05-23T12:46:24Z</time>
      </trkpt>
      <trkpt lat="43.47178" lon="2.41722">
        <ele>796.4</ele>
        <time>2026-05-23T12:46:29Z</time>
      </trkpt>
      <trkpt lat="43.47184" lon="2.41714">
        <ele>794.9</ele>
        <time>2026-05-23T12:46:34Z</time>
      </trkpt>
      <trkpt lat="43.47187" lon="2.41706">
        <ele>794.8</ele>
        <time>2026-05-23T12:46:39Z</time>
      </trkpt>
      <trkpt lat="43.47193" lon="2.41698">
        <ele>793.5</ele>
        <time>2026-05-23T12:46:44Z</time>
      </trkpt>
      <trkpt lat="43.47199" lon="2.41691">
        <ele>792.1</ele>
        <time>2026-05-23T12:46:49Z</time>
      </trkpt>
      <trkpt lat="43.47203" lon="2.41683">
        <ele>791.8</ele>
        <time>2026-05-23T12:46:54Z</time>
      </trkpt>
      <trkpt lat="43.47208" lon="2.41674">
        <ele>791.4</ele>
        <time>2026-05-23T12:46:59Z</time>
      </trkpt>
      <trkpt lat="43.47215" lon="2.41667">
        <ele>790</ele>
        <time>2026-05-23T12:47:04Z</time>
      </trkpt>
      <trkpt lat="43.4722" lon="2.4166">
        <ele>788.9</ele>
        <time>2026-05-23T12:47:09Z</time>
      </trkpt>
      <trkpt lat="43.47228" lon="2.41653">
        <ele>786.8</ele>
        <time>2026-05-23T12:47:14Z</time>
      </trkpt>
      <trkpt lat="43.47232" lon="2.41646">
        <ele>786.3</ele>
        <time>2026-05-23T12:47:19Z</time>
      </trkpt>
      <trkpt lat="43.47235" lon="2.41639">
        <ele>786.2</ele>
        <time>2026-05-23T12:47:24Z</time>
      </trkpt>
      <trkpt lat="43.47239" lon="2.41632">
        <ele>785.9</ele>
        <time>2026-05-23T12:47:29Z</time>
      </trkpt>
      <trkpt lat="43.47245" lon="2.41624">
        <ele>785.2</ele>
        <time>2026-05-23T12:47:34Z</time>
      </trkpt>
      <trkpt lat="43.47254" lon="2.41617">
        <ele>782.8</ele>
        <time>2026-05-23T12:47:39Z</time>
      </trkpt>
      <trkpt lat="43.4726" lon="2.41613">
        <ele>780.7</ele>
        <time>2026-05-23T12:47:44Z</time>
      </trkpt>
      <trkpt lat="43.47263" lon="2.41607">
        <ele>780.3</ele>
        <time>2026-05-23T12:47:49Z</time>
      </trkpt>
      <trkpt lat="43.47267" lon="2.41608">
        <ele>778.3</ele>
        <time>2026-05-23T12:47:54Z</time>
      </trkpt>
      <trkpt lat="43.47274" lon="2.41604">
        <ele>775.8</ele>
        <time>2026-05-23T12:47:59Z</time>
      </trkpt>
      <trkpt lat="43.4728" lon="2.41598">
        <ele>774.4</ele>
        <time>2026-05-23T12:48:04Z</time>
      </trkpt>
      <trkpt lat="43.47284" lon="2.41589">
        <ele>774.5</ele>
        <time>2026-05-23T12:48:09Z</time>
      </trkpt>
      <trkpt lat="43.47288" lon="2.41581">
        <ele>774.2</ele>
        <time>2026-05-23T12:48:14Z</time>
      </trkpt>
      <trkpt lat="43.47292" lon="2.41576">
        <ele>773</ele>
        <time>2026-05-23T12:48:19Z</time>
      </trkpt>
      <trkpt lat="43.47296" lon="2.41568">
        <ele>772.1</ele>
        <time>2026-05-23T12:48:24Z</time>
      </trkpt>
      <trkpt lat="43.47298" lon="2.41561">
        <ele>772</ele>
        <time>2026-05-23T12:48:29Z</time>
      </trkpt>
      <trkpt lat="43.47302" lon="2.41554">
        <ele>771.1</ele>
        <time>2026-05-23T12:48:34Z</time>
      </trkpt>
      <trkpt lat="43.47308" lon="2.41548">
        <ele>769.6</ele>
        <time>2026-05-23T12:48:39Z</time>
      </trkpt>
      <trkpt lat="43.47317" lon="2.41542">
        <ele>767.1</ele>
        <time>2026-05-23T12:48:44Z</time>
      </trkpt>
      <trkpt lat="43.47322" lon="2.41537">
        <ele>766.1</ele>
        <time>2026-05-23T12:48:49Z</time>
      </trkpt>
      <trkpt lat="43.47328" lon="2.41531">
        <ele>764.9</ele>
        <time>2026-05-23T12:48:54Z</time>
      </trkpt>
      <trkpt lat="43.47336" lon="2.41525">
        <ele>763.2</ele>
        <time>2026-05-23T12:48:59Z</time>
      </trkpt>
      <trkpt lat="43.47341" lon="2.41517">
        <ele>762.8</ele>
        <time>2026-05-23T12:49:04Z</time>
      </trkpt>
      <trkpt lat="43.47346" lon="2.4151">
        <ele>762.4</ele>
        <time>2026-05-23T12:49:09Z</time>
      </trkpt>
      <trkpt lat="43.47351" lon="2.41503">
        <ele>762.1</ele>
        <time>2026-05-23T12:49:14Z</time>
      </trkpt>
      <trkpt lat="43.47355" lon="2.41495">
        <ele>761.2</ele>
        <time>2026-05-23T12:49:19Z</time>
      </trkpt>
      <trkpt lat="43.47361" lon="2.41487">
        <ele>759.1</ele>
        <time>2026-05-23T12:49:24Z</time>
      </trkpt>
      <trkpt lat="43.47366" lon="2.4148">
        <ele>757.4</ele>
        <time>2026-05-23T12:49:29Z</time>
      </trkpt>
      <trkpt lat="43.4737" lon="2.41473">
        <ele>756</ele>
        <time>2026-05-23T12:49:34Z</time>
      </trkpt>
      <trkpt lat="43.47375" lon="2.41465">
        <ele>754.5</ele>
        <time>2026-05-23T12:49:39Z</time>
      </trkpt>
      <trkpt lat="43.47379" lon="2.41457">
        <ele>753.2</ele>
        <time>2026-05-23T12:49:44Z</time>
      </trkpt>
      <trkpt lat="43.47383" lon="2.41449">
        <ele>752.1</ele>
        <time>2026-05-23T12:49:49Z</time>
      </trkpt>
      <trkpt lat="43.47387" lon="2.41439">
        <ele>751</ele>
        <time>2026-05-23T12:49:54Z</time>
      </trkpt>
      <trkpt lat="43.47389" lon="2.4143">
        <ele>750.5</ele>
        <time>2026-05-23T12:49:59Z</time>
      </trkpt>
      <trkpt lat="43.47387" lon="2.41421">
        <ele>750.8</ele>
        <time>2026-05-23T12:50:04Z</time>
      </trkpt>
      <trkpt lat="43.47386" lon="2.41413">
        <ele>750.2</ele>
        <time>2026-05-23T12:50:09Z</time>
      </trkpt>
      <trkpt lat="43.47387" lon="2.41412">
        <ele>749.8</ele>
        <time>2026-05-23T12:50:14Z</time>
      </trkpt>
      <trkpt lat="43.47387" lon="2.41412">
        <ele>749.8</ele>
        <time>2026-05-23T12:50:19Z</time>
      </trkpt>
      <trkpt lat="43.47387" lon="2.41412">
        <ele>749.8</ele>
        <time>2026-05-23T12:50:24Z</time>
      </trkpt>
      <trkpt lat="43.47387" lon="2.41412">
        <ele>749.8</ele>
        <time>2026-05-23T12:50:29Z</time>
      </trkpt>
      <trkpt lat="43.47387" lon="2.41412">
        <ele>749.8</ele>
        <time>2026-05-23T12:50:34Z</time>
      </trkpt>
      <trkpt lat="43.47386" lon="2.41412">
        <ele>750</ele>
        <time>2026-05-23T12:50:39Z</time>
      </trkpt>
      <trkpt lat="43.47381" lon="2.41406">
        <ele>749.8</ele>
        <time>2026-05-23T12:50:44Z</time>
      </trkpt>
      <trkpt lat="43.47376" lon="2.41399">
        <ele>749.4</ele>
        <time>2026-05-23T12:50:49Z</time>
      </trkpt>
      <trkpt lat="43.47371" lon="2.41392">
        <ele>749</ele>
        <time>2026-05-23T12:50:54Z</time>
      </trkpt>
      <trkpt lat="43.47366" lon="2.41387">
        <ele>749</ele>
        <time>2026-05-23T12:50:59Z</time>
      </trkpt>
      <trkpt lat="43.47361" lon="2.41381">
        <ele>748.8</ele>
        <time>2026-05-23T12:51:04Z</time>
      </trkpt>
      <trkpt lat="43.47356" lon="2.41374">
        <ele>748.5</ele>
        <time>2026-05-23T12:51:09Z</time>
      </trkpt>
      <trkpt lat="43.47352" lon="2.41366">
        <ele>747.7</ele>
        <time>2026-05-23T12:51:14Z</time>
      </trkpt>
      <trkpt lat="43.47347" lon="2.41357">
        <ele>746.9</ele>
        <time>2026-05-23T12:51:19Z</time>
      </trkpt>
      <trkpt lat="43.47342" lon="2.41349">
        <ele>746.3</ele>
        <time>2026-05-23T12:51:24Z</time>
      </trkpt>
      <trkpt lat="43.47338" lon="2.41344">
        <ele>746.2</ele>
        <time>2026-05-23T12:51:29Z</time>
      </trkpt>
      <trkpt lat="43.47331" lon="2.41337">
        <ele>746.2</ele>
        <time>2026-05-23T12:51:34Z</time>
      </trkpt>
      <trkpt lat="43.47325" lon="2.4133">
        <ele>746.2</ele>
        <time>2026-05-23T12:51:39Z</time>
      </trkpt>
      <trkpt lat="43.47318" lon="2.41323">
        <ele>746.4</ele>
        <time>2026-05-23T12:51:44Z</time>
      </trkpt>
      <trkpt lat="43.47314" lon="2.41316">
        <ele>746</ele>
        <time>2026-05-23T12:51:49Z</time>
      </trkpt>
      <trkpt lat="43.47307" lon="2.4131">
        <ele>746.3</ele>
        <time>2026-05-23T12:51:54Z</time>
      </trkpt>
      <trkpt lat="43.47302" lon="2.41302">
        <ele>745.8</ele>
        <time>2026-05-23T12:51:59Z</time>
      </trkpt>
      <trkpt lat="43.47297" lon="2.41297">
        <ele>745.9</ele>
        <time>2026-05-23T12:52:04Z</time>
      </trkpt>
      <trkpt lat="43.47293" lon="2.41288">
        <ele>745</ele>
        <time>2026-05-23T12:52:09Z</time>
      </trkpt>
      <trkpt lat="43.47289" lon="2.4128">
        <ele>744.3</ele>
        <time>2026-05-23T12:52:14Z</time>
      </trkpt>
      <trkpt lat="43.47285" lon="2.4127">
        <ele>743.2</ele>
        <time>2026-05-23T12:52:19Z</time>
      </trkpt>
      <trkpt lat="43.47284" lon="2.41261">
        <ele>741.6</ele>
        <time>2026-05-23T12:52:24Z</time>
      </trkpt>
      <trkpt lat="43.47283" lon="2.41252">
        <ele>740.1</ele>
        <time>2026-05-23T12:52:29Z</time>
      </trkpt>
      <trkpt lat="43.47281" lon="2.41242">
        <ele>738.9</ele>
        <time>2026-05-23T12:52:34Z</time>
      </trkpt>
      <trkpt lat="43.47281" lon="2.41231">
        <ele>737.3</ele>
        <time>2026-05-23T12:52:39Z</time>
      </trkpt>
      <trkpt lat="43.47278" lon="2.41217">
        <ele>735.7</ele>
        <time>2026-05-23T12:52:44Z</time>
      </trkpt>
      <trkpt lat="43.47279" lon="2.41206">
        <ele>734</ele>
        <time>2026-05-23T12:52:49Z</time>
      </trkpt>
      <trkpt lat="43.4728" lon="2.41195">
        <ele>732.2</ele>
        <time>2026-05-23T12:52:54Z</time>
      </trkpt>
      <trkpt lat="43.47282" lon="2.41185">
        <ele>730.6</ele>
        <time>2026-05-23T12:52:59Z</time>
      </trkpt>
      <trkpt lat="43.47285" lon="2.41174">
        <ele>728.7</ele>
        <time>2026-05-23T12:53:04Z</time>
      </trkpt>
      <trkpt lat="43.47288" lon="2.41165">
        <ele>727.2</ele>
        <time>2026-05-23T12:53:09Z</time>
      </trkpt>
      <trkpt lat="43.47288" lon="2.41155">
        <ele>726</ele>
        <time>2026-05-23T12:53:14Z</time>
      </trkpt>
      <trkpt lat="43.47284" lon="2.41145">
        <ele>725.2</ele>
        <time>2026-05-23T12:53:19Z</time>
      </trkpt>
      <trkpt lat="43.47282" lon="2.41138">
        <ele>724.6</ele>
        <time>2026-05-23T12:53:24Z</time>
      </trkpt>
      <trkpt lat="43.47278" lon="2.4113">
        <ele>724.1</ele>
        <time>2026-05-23T12:53:29Z</time>
      </trkpt>
      <trkpt lat="43.47272" lon="2.41123">
        <ele>723.8</ele>
        <time>2026-05-23T12:53:34Z</time>
      </trkpt>
      <trkpt lat="43.47267" lon="2.41115">
        <ele>723.3</ele>
        <time>2026-05-23T12:53:39Z</time>
      </trkpt>
      <trkpt lat="43.47264" lon="2.41103">
        <ele>722.1</ele>
        <time>2026-05-23T12:53:44Z</time>
      </trkpt>
      <trkpt lat="43.47261" lon="2.41094">
        <ele>721.3</ele>
        <time>2026-05-23T12:53:49Z</time>
      </trkpt>
      <trkpt lat="43.47259" lon="2.41084">
        <ele>720.3</ele>
        <time>2026-05-23T12:53:54Z</time>
      </trkpt>
      <trkpt lat="43.47255" lon="2.41076">
        <ele>719.9</ele>
        <time>2026-05-23T12:53:59Z</time>
      </trkpt>
      <trkpt lat="43.47252" lon="2.41065">
        <ele>719.3</ele>
        <time>2026-05-23T12:54:04Z</time>
      </trkpt>
      <trkpt lat="43.4725" lon="2.41057">
        <ele>718.8</ele>
        <time>2026-05-23T12:54:09Z</time>
      </trkpt>
      <trkpt lat="43.47248" lon="2.41047">
        <ele>718.4</ele>
        <time>2026-05-23T12:54:14Z</time>
      </trkpt>
      <trkpt lat="43.47249" lon="2.41042">
        <ele>717.7</ele>
        <time>2026-05-23T12:54:19Z</time>
      </trkpt>
      <trkpt lat="43.47247" lon="2.41033">
        <ele>717.4</ele>
        <time>2026-05-23T12:54:24Z</time>
      </trkpt>
      <trkpt lat="43.47245" lon="2.41023">
        <ele>716.9</ele>
        <time>2026-05-23T12:54:29Z</time>
      </trkpt>
      <trkpt lat="43.47243" lon="2.41012">
        <ele>716.3</ele>
        <time>2026-05-23T12:54:34Z</time>
      </trkpt>
      <trkpt lat="43.4724" lon="2.41003">
        <ele>716.1</ele>
        <time>2026-05-23T12:54:39Z</time>
      </trkpt>
      <trkpt lat="43.47236" lon="2.40997">
        <ele>716.2</ele>
        <time>2026-05-23T12:54:44Z</time>
      </trkpt>
      <trkpt lat="43.47231" lon="2.40988">
        <ele>716.1</ele>
        <time>2026-05-23T12:54:49Z</time>
      </trkpt>
      <trkpt lat="43.47224" lon="2.40982">
        <ele>716.4</ele>
        <time>2026-05-23T12:54:54Z</time>
      </trkpt>
      <trkpt lat="43.47217" lon="2.40981">
        <ele>717.4</ele>
        <time>2026-05-23T12:54:59Z</time>
      </trkpt>
      <trkpt lat="43.4721" lon="2.4098">
        <ele>718.3</ele>
        <time>2026-05-23T12:55:04Z</time>
      </trkpt>
      <trkpt lat="43.47203" lon="2.40976">
        <ele>718.7</ele>
        <time>2026-05-23T12:55:09Z</time>
      </trkpt>
      <trkpt lat="43.47199" lon="2.40969">
        <ele>718.1</ele>
        <time>2026-05-23T12:55:14Z</time>
      </trkpt>
      <trkpt lat="43.47199" lon="2.4096">
        <ele>716.6</ele>
        <time>2026-05-23T12:55:19Z</time>
      </trkpt>
      <trkpt lat="43.47202" lon="2.40951">
        <ele>714.8</ele>
        <time>2026-05-23T12:55:24Z</time>
      </trkpt>
      <trkpt lat="43.47205" lon="2.40941">
        <ele>712.9</ele>
        <time>2026-05-23T12:55:29Z</time>
      </trkpt>
      <trkpt lat="43.47208" lon="2.40934">
        <ele>711.6</ele>
        <time>2026-05-23T12:55:34Z</time>
      </trkpt>
      <trkpt lat="43.47211" lon="2.40926">
        <ele>710.2</ele>
        <time>2026-05-23T12:55:39Z</time>
      </trkpt>
      <trkpt lat="43.47214" lon="2.40919">
        <ele>709.1</ele>
        <time>2026-05-23T12:55:44Z</time>
      </trkpt>
      <trkpt lat="43.47219" lon="2.4091">
        <ele>706.6</ele>
        <time>2026-05-23T12:55:49Z</time>
      </trkpt>
      <trkpt lat="43.47225" lon="2.40903">
        <ele>704.3</ele>
        <time>2026-05-23T12:55:54Z</time>
      </trkpt>
      <trkpt lat="43.47232" lon="2.4089">
        <ele>700.5</ele>
        <time>2026-05-23T12:55:59Z</time>
      </trkpt>
      <trkpt lat="43.47236" lon="2.40882">
        <ele>698.2</ele>
        <time>2026-05-23T12:56:04Z</time>
      </trkpt>
      <trkpt lat="43.47241" lon="2.40875">
        <ele>696.2</ele>
        <time>2026-05-23T12:56:09Z</time>
      </trkpt>
      <trkpt lat="43.47246" lon="2.40871">
        <ele>695</ele>
        <time>2026-05-23T12:56:14Z</time>
      </trkpt>
      <trkpt lat="43.47252" lon="2.40867">
        <ele>693.8</ele>
        <time>2026-05-23T12:56:19Z</time>
      </trkpt>
      <trkpt lat="43.47256" lon="2.40865">
        <ele>693</ele>
        <time>2026-05-23T12:56:24Z</time>
      </trkpt>
      <trkpt lat="43.47262" lon="2.40862">
        <ele>691.8</ele>
        <time>2026-05-23T12:56:29Z</time>
      </trkpt>
      <trkpt lat="43.47269" lon="2.40858">
        <ele>690.4</ele>
        <time>2026-05-23T12:56:34Z</time>
      </trkpt>
      <trkpt lat="43.47275" lon="2.40856">
        <ele>689.6</ele>
        <time>2026-05-23T12:56:39Z</time>
      </trkpt>
      <trkpt lat="43.47282" lon="2.40854">
        <ele>688.8</ele>
        <time>2026-05-23T12:56:44Z</time>
      </trkpt>
      <trkpt lat="43.47288" lon="2.40851">
        <ele>687.9</ele>
        <time>2026-05-23T12:56:49Z</time>
      </trkpt>
      <trkpt lat="43.47294" lon="2.40847">
        <ele>686.8</ele>
        <time>2026-05-23T12:56:54Z</time>
      </trkpt>
      <trkpt lat="43.47301" lon="2.40844">
        <ele>685.9</ele>
        <time>2026-05-23T12:56:59Z</time>
      </trkpt>
      <trkpt lat="43.47307" lon="2.40843">
        <ele>685.5</ele>
        <time>2026-05-23T12:57:04Z</time>
      </trkpt>
      <trkpt lat="43.4731" lon="2.40845">
        <ele>685.7</ele>
        <time>2026-05-23T12:57:09Z</time>
      </trkpt>
      <trkpt lat="43.4731" lon="2.40846">
        <ele>685.9</ele>
        <time>2026-05-23T12:57:14Z</time>
      </trkpt>
      <trkpt lat="43.4731" lon="2.40846">
        <ele>685.9</ele>
        <time>2026-05-23T12:57:19Z</time>
      </trkpt>
      <trkpt lat="43.47313" lon="2.4084">
        <ele>684.7</ele>
        <time>2026-05-23T12:57:24Z</time>
      </trkpt>
      <trkpt lat="43.47317" lon="2.40838">
        <ele>684.2</ele>
        <time>2026-05-23T12:57:29Z</time>
      </trkpt>
      <trkpt lat="43.4732" lon="2.40838">
        <ele>684.1</ele>
        <time>2026-05-23T12:57:34Z</time>
      </trkpt>
      <trkpt lat="43.47324" lon="2.40835">
        <ele>683.5</ele>
        <time>2026-05-23T12:57:39Z</time>
      </trkpt>
      <trkpt lat="43.47328" lon="2.40834">
        <ele>683.2</ele>
        <time>2026-05-23T12:57:44Z</time>
      </trkpt>
      <trkpt lat="43.47334" lon="2.40834">
        <ele>683.1</ele>
        <time>2026-05-23T12:57:49Z</time>
      </trkpt>
      <trkpt lat="43.47341" lon="2.40837">
        <ele>683.4</ele>
        <time>2026-05-23T12:57:54Z</time>
      </trkpt>
      <trkpt lat="43.47345" lon="2.40841">
        <ele>683.9</ele>
        <time>2026-05-23T12:57:59Z</time>
      </trkpt>
      <trkpt lat="43.47346" lon="2.40846">
        <ele>684.5</ele>
        <time>2026-05-23T12:58:04Z</time>
      </trkpt>
      <trkpt lat="43.47344" lon="2.40847">
        <ele>684.8</ele>
        <time>2026-05-23T12:58:09Z</time>
      </trkpt>
      <trkpt lat="43.47344" lon="2.40847">
        <ele>684.8</ele>
        <time>2026-05-23T12:58:14Z</time>
      </trkpt>
      <trkpt lat="43.47344" lon="2.40847">
        <ele>684.8</ele>
        <time>2026-05-23T12:58:19Z</time>
      </trkpt>
      <trkpt lat="43.47344" lon="2.40847">
        <ele>684.8</ele>
        <time>2026-05-23T12:58:24Z</time>
      </trkpt>
      <trkpt lat="43.47344" lon="2.40847">
        <ele>684.8</ele>
        <time>2026-05-23T12:58:29Z</time>
      </trkpt>
      <trkpt lat="43.47337" lon="2.40856">
        <ele>686.3</ele>
        <time>2026-05-23T12:58:34Z</time>
      </trkpt>
      <trkpt lat="43.47337" lon="2.40857">
        <ele>686.5</ele>
        <time>2026-05-23T12:58:39Z</time>
      </trkpt>
      <trkpt lat="43.47337" lon="2.40857">
        <ele>686.5</ele>
        <time>2026-05-23T12:58:44Z</time>
      </trkpt>
      <trkpt lat="43.47337" lon="2.40857">
        <ele>686.5</ele>
        <time>2026-05-23T12:58:49Z</time>
      </trkpt>
      <trkpt lat="43.47337" lon="2.40857">
        <ele>686.5</ele>
        <time>2026-05-23T12:58:54Z</time>
      </trkpt>
      <trkpt lat="43.47337" lon="2.40857">
        <ele>686.5</ele>
        <time>2026-05-23T12:58:59Z</time>
      </trkpt>
      <trkpt lat="43.47337" lon="2.40857">
        <ele>686.5</ele>
        <time>2026-05-23T12:59:04Z</time>
      </trkpt>
      <trkpt lat="43.47337" lon="2.40857">
        <ele>686.5</ele>
        <time>2026-05-23T12:59:09Z</time>
      </trkpt>
      <trkpt lat="43.47337" lon="2.40857">
        <ele>686.5</ele>
        <time>2026-05-23T12:59:14Z</time>
      </trkpt>
      <trkpt lat="43.47337" lon="2.40857">
        <ele>686.5</ele>
        <time>2026-05-23T12:59:19Z</time>
      </trkpt>
      <trkpt lat="43.47337" lon="2.40857">
        <ele>686.5</ele>
        <time>2026-05-23T12:59:24Z</time>
      </trkpt>
      <trkpt lat="43.47337" lon="2.40857">
        <ele>686.5</ele>
        <time>2026-05-23T12:59:29Z</time>
      </trkpt>
      <trkpt lat="43.47337" lon="2.40857">
        <ele>686.5</ele>
        <time>2026-05-23T12:59:34Z</time>
      </trkpt>
      <trkpt lat="43.47337" lon="2.40857">
        <ele>686.5</ele>
        <time>2026-05-23T12:59:39Z</time>
      </trkpt>
      <trkpt lat="43.47337" lon="2.40857">
        <ele>686.5</ele>
        <time>2026-05-23T12:59:44Z</time>
      </trkpt>
      <trkpt lat="43.47337" lon="2.40857">
        <ele>686.5</ele>
        <time>2026-05-23T12:59:49Z</time>
      </trkpt>
      <trkpt lat="43.47337" lon="2.40857">
        <ele>686.5</ele>
        <time>2026-05-23T12:59:54Z</time>
      </trkpt>
      <trkpt lat="43.47337" lon="2.40857">
        <ele>686.5</ele>
        <time>2026-05-23T12:59:59Z</time>
      </trkpt>
      <trkpt lat="43.47337" lon="2.40857">
        <ele>686.5</ele>
        <time>2026-05-23T13:00:04Z</time>
      </trkpt>
      <trkpt lat="43.47337" lon="2.40857">
        <ele>686.5</ele>
        <time>2026-05-23T13:00:09Z</time>
      </trkpt>
      <trkpt lat="43.47337" lon="2.40857">
        <ele>686.5</ele>
        <time>2026-05-23T13:00:14Z</time>
      </trkpt>
      <trkpt lat="43.47337" lon="2.40857">
        <ele>686.5</ele>
        <time>2026-05-23T13:00:19Z</time>
      </trkpt>
      <trkpt lat="43.47337" lon="2.40857">
        <ele>686.5</ele>
        <time>2026-05-23T13:00:24Z</time>
      </trkpt>
      <trkpt lat="43.47337" lon="2.40857">
        <ele>686.5</ele>
        <time>2026-05-23T13:00:29Z</time>
      </trkpt>
      <trkpt lat="43.47337" lon="2.40857">
        <ele>686.5</ele>
        <time>2026-05-23T13:00:34Z</time>
      </trkpt>
      <trkpt lat="43.47337" lon="2.40857">
        <ele>686.5</ele>
        <time>2026-05-23T13:00:39Z</time>
      </trkpt>
      <trkpt lat="43.47337" lon="2.40857">
        <ele>686.5</ele>
        <time>2026-05-23T13:00:44Z</time>
      </trkpt>
      <trkpt lat="43.47337" lon="2.40857">
        <ele>686.5</ele>
        <time>2026-05-23T13:00:49Z</time>
      </trkpt>
      <trkpt lat="43.47337" lon="2.40857">
        <ele>686.5</ele>
        <time>2026-05-23T13:00:54Z</time>
      </trkpt>
      <trkpt lat="43.47337" lon="2.40857">
        <ele>686.5</ele>
        <time>2026-05-23T13:00:59Z</time>
      </trkpt>
      <trkpt lat="43.47337" lon="2.40857">
        <ele>686.5</ele>
        <time>2026-05-23T13:01:04Z</time>
      </trkpt>
      <trkpt lat="43.47337" lon="2.40857">
        <ele>686.5</ele>
        <time>2026-05-23T13:01:09Z</time>
      </trkpt>
      <trkpt lat="43.47337" lon="2.40857">
        <ele>686.5</ele>
        <time>2026-05-23T13:01:14Z</time>
      </trkpt>
      <trkpt lat="43.47343" lon="2.40847">
        <ele>684.8</ele>
        <time>2026-05-23T13:01:19Z</time>
      </trkpt>
      <trkpt lat="43.47344" lon="2.40847">
        <ele>684.8</ele>
        <time>2026-05-23T13:01:24Z</time>
      </trkpt>
      <trkpt lat="43.47344" lon="2.40847">
        <ele>684.8</ele>
        <time>2026-05-23T13:01:29Z</time>
      </trkpt>
      <trkpt lat="43.47344" lon="2.40847">
        <ele>684.8</ele>
        <time>2026-05-23T13:01:34Z</time>
      </trkpt>
      <trkpt lat="43.47344" lon="2.40847">
        <ele>684.8</ele>
        <time>2026-05-23T13:01:39Z</time>
      </trkpt>
      <trkpt lat="43.47344" lon="2.40847">
        <ele>684.8</ele>
        <time>2026-05-23T13:01:44Z</time>
      </trkpt>
      <trkpt lat="43.47344" lon="2.40847">
        <ele>684.8</ele>
        <time>2026-05-23T13:01:49Z</time>
      </trkpt>
      <trkpt lat="43.47355" lon="2.40844">
        <ele>684</ele>
        <time>2026-05-23T13:01:54Z</time>
      </trkpt>
      <trkpt lat="43.47356" lon="2.40843">
        <ele>683.9</ele>
        <time>2026-05-23T13:01:59Z</time>
      </trkpt>
      <trkpt lat="43.47367" lon="2.40839">
        <ele>683.2</ele>
        <time>2026-05-23T13:02:04Z</time>
      </trkpt>
      <trkpt lat="43.47374" lon="2.40835">
        <ele>682.7</ele>
        <time>2026-05-23T13:02:09Z</time>
      </trkpt>
      <trkpt lat="43.47382" lon="2.40834">
        <ele>682.5</ele>
        <time>2026-05-23T13:02:14Z</time>
      </trkpt>
      <trkpt lat="43.47388" lon="2.40831">
        <ele>681.9</ele>
        <time>2026-05-23T13:02:19Z</time>
      </trkpt>
      <trkpt lat="43.47394" lon="2.40829">
        <ele>681.5</ele>
        <time>2026-05-23T13:02:24Z</time>
      </trkpt>
      <trkpt lat="43.474" lon="2.40825">
        <ele>680.7</ele>
        <time>2026-05-23T13:02:29Z</time>
      </trkpt>
      <trkpt lat="43.47408" lon="2.40822">
        <ele>680.1</ele>
        <time>2026-05-23T13:02:34Z</time>
      </trkpt>
      <trkpt lat="43.47415" lon="2.40818">
        <ele>679.4</ele>
        <time>2026-05-23T13:02:39Z</time>
      </trkpt>
      <trkpt lat="43.47421" lon="2.40813">
        <ele>678.6</ele>
        <time>2026-05-23T13:02:44Z</time>
      </trkpt>
      <trkpt lat="43.47427" lon="2.40809">
        <ele>677.9</ele>
        <time>2026-05-23T13:02:49Z</time>
      </trkpt>
      <trkpt lat="43.47432" lon="2.40803">
        <ele>676.8</ele>
        <time>2026-05-23T13:02:54Z</time>
      </trkpt>
      <trkpt lat="43.4744" lon="2.40799">
        <ele>676.1</ele>
        <time>2026-05-23T13:02:59Z</time>
      </trkpt>
      <trkpt lat="43.47448" lon="2.40796">
        <ele>675.6</ele>
        <time>2026-05-23T13:03:04Z</time>
      </trkpt>
      <trkpt lat="43.47455" lon="2.40792">
        <ele>674.8</ele>
        <time>2026-05-23T13:03:09Z</time>
      </trkpt>
      <trkpt lat="43.47463" lon="2.4079">
        <ele>674.4</ele>
        <time>2026-05-23T13:03:14Z</time>
      </trkpt>
      <trkpt lat="43.47471" lon="2.40786">
        <ele>673.7</ele>
        <time>2026-05-23T13:03:19Z</time>
      </trkpt>
      <trkpt lat="43.47477" lon="2.40785">
        <ele>673.5</ele>
        <time>2026-05-23T13:03:24Z</time>
      </trkpt>
      <trkpt lat="43.47485" lon="2.40784">
        <ele>673.2</ele>
        <time>2026-05-23T13:03:29Z</time>
      </trkpt>
      <trkpt lat="43.47491" lon="2.40782">
        <ele>672.8</ele>
        <time>2026-05-23T13:03:34Z</time>
      </trkpt>
      <trkpt lat="43.47496" lon="2.40778">
        <ele>672.1</ele>
        <time>2026-05-23T13:03:39Z</time>
      </trkpt>
      <trkpt lat="43.47502" lon="2.40773">
        <ele>671.1</ele>
        <time>2026-05-23T13:03:44Z</time>
      </trkpt>
      <trkpt lat="43.47507" lon="2.40766">
        <ele>669.9</ele>
        <time>2026-05-23T13:03:49Z</time>
      </trkpt>
      <trkpt lat="43.47512" lon="2.40758">
        <ele>668.7</ele>
        <time>2026-05-23T13:03:54Z</time>
      </trkpt>
      <trkpt lat="43.47517" lon="2.40752">
        <ele>667.9</ele>
        <time>2026-05-23T13:03:59Z</time>
      </trkpt>
      <trkpt lat="43.47522" lon="2.40744">
        <ele>666.3</ele>
        <time>2026-05-23T13:04:04Z</time>
      </trkpt>
      <trkpt lat="43.47529" lon="2.40739">
        <ele>665.4</ele>
        <time>2026-05-23T13:04:09Z</time>
      </trkpt>
      <trkpt lat="43.47535" lon="2.40732">
        <ele>664</ele>
        <time>2026-05-23T13:04:14Z</time>
      </trkpt>
      <trkpt lat="43.47539" lon="2.40725">
        <ele>662.5</ele>
        <time>2026-05-23T13:04:19Z</time>
      </trkpt>
      <trkpt lat="43.47543" lon="2.40719">
        <ele>661.3</ele>
        <time>2026-05-23T13:04:24Z</time>
      </trkpt>
      <trkpt lat="43.47548" lon="2.40713">
        <ele>660.2</ele>
        <time>2026-05-23T13:04:29Z</time>
      </trkpt>
      <trkpt lat="43.47552" lon="2.40705">
        <ele>658.5</ele>
        <time>2026-05-23T13:04:34Z</time>
      </trkpt>
      <trkpt lat="43.47557" lon="2.40698">
        <ele>657.2</ele>
        <time>2026-05-23T13:04:39Z</time>
      </trkpt>
      <trkpt lat="43.47561" lon="2.4069">
        <ele>655.7</ele>
        <time>2026-05-23T13:04:44Z</time>
      </trkpt>
      <trkpt lat="43.47565" lon="2.40682">
        <ele>654.1</ele>
        <time>2026-05-23T13:04:49Z</time>
      </trkpt>
      <trkpt lat="43.4757" lon="2.40676">
        <ele>653.1</ele>
        <time>2026-05-23T13:04:54Z</time>
      </trkpt>
      <trkpt lat="43.47575" lon="2.40667">
        <ele>651.5</ele>
        <time>2026-05-23T13:04:59Z</time>
      </trkpt>
      <trkpt lat="43.4758" lon="2.40659">
        <ele>650</ele>
        <time>2026-05-23T13:05:04Z</time>
      </trkpt>
      <trkpt lat="43.47584" lon="2.40652">
        <ele>648.7</ele>
        <time>2026-05-23T13:05:09Z</time>
      </trkpt>
      <trkpt lat="43.4759" lon="2.40646">
        <ele>648.2</ele>
        <time>2026-05-23T13:05:14Z</time>
      </trkpt>
      <trkpt lat="43.47595" lon="2.40638">
        <ele>647.1</ele>
        <time>2026-05-23T13:05:19Z</time>
      </trkpt>
      <trkpt lat="43.47599" lon="2.40631">
        <ele>646.1</ele>
        <time>2026-05-23T13:05:24Z</time>
      </trkpt>
      <trkpt lat="43.47604" lon="2.40625">
        <ele>645.5</ele>
        <time>2026-05-23T13:05:29Z</time>
      </trkpt>
      <trkpt lat="43.47608" lon="2.4062">
        <ele>644.9</ele>
        <time>2026-05-23T13:05:34Z</time>
      </trkpt>
      <trkpt lat="43.47614" lon="2.40616">
        <ele>644.9</ele>
        <time>2026-05-23T13:05:39Z</time>
      </trkpt>
      <trkpt lat="43.47618" lon="2.40609">
        <ele>644</ele>
        <time>2026-05-23T13:05:44Z</time>
      </trkpt>
      <trkpt lat="43.47623" lon="2.40603">
        <ele>643.4</ele>
        <time>2026-05-23T13:05:49Z</time>
      </trkpt>
      <trkpt lat="43.47629" lon="2.40597">
        <ele>643.1</ele>
        <time>2026-05-23T13:05:54Z</time>
      </trkpt>
      <trkpt lat="43.47633" lon="2.40592">
        <ele>642.6</ele>
        <time>2026-05-23T13:05:59Z</time>
      </trkpt>
      <trkpt lat="43.47637" lon="2.40587">
        <ele>642.2</ele>
        <time>2026-05-23T13:06:04Z</time>
      </trkpt>
      <trkpt lat="43.47642" lon="2.40582">
        <ele>641.9</ele>
        <time>2026-05-23T13:06:09Z</time>
      </trkpt>
      <trkpt lat="43.47648" lon="2.40578">
        <ele>642</ele>
        <time>2026-05-23T13:06:14Z</time>
      </trkpt>
      <trkpt lat="43.47653" lon="2.40574">
        <ele>641.9</ele>
        <time>2026-05-23T13:06:19Z</time>
      </trkpt>
      <trkpt lat="43.47658" lon="2.4057">
        <ele>641.7</ele>
        <time>2026-05-23T13:06:24Z</time>
      </trkpt>
      <trkpt lat="43.47665" lon="2.40567">
        <ele>642</ele>
        <time>2026-05-23T13:06:29Z</time>
      </trkpt>
      <trkpt lat="43.4767" lon="2.40562">
        <ele>641.4</ele>
        <time>2026-05-23T13:06:34Z</time>
      </trkpt>
      <trkpt lat="43.47674" lon="2.40559">
        <ele>641</ele>
        <time>2026-05-23T13:06:39Z</time>
      </trkpt>
      <trkpt lat="43.4768" lon="2.40559">
        <ele>641.4</ele>
        <time>2026-05-23T13:06:44Z</time>
      </trkpt>
      <trkpt lat="43.47686" lon="2.40557">
        <ele>641.4</ele>
        <time>2026-05-23T13:06:49Z</time>
      </trkpt>
      <trkpt lat="43.47691" lon="2.40555">
        <ele>641.3</ele>
        <time>2026-05-23T13:06:54Z</time>
      </trkpt>
      <trkpt lat="43.47696" lon="2.40554">
        <ele>641.4</ele>
        <time>2026-05-23T13:06:59Z</time>
      </trkpt>
      <trkpt lat="43.47702" lon="2.40552">
        <ele>641.4</ele>
        <time>2026-05-23T13:07:04Z</time>
      </trkpt>
      <trkpt lat="43.47706" lon="2.40552">
        <ele>641.7</ele>
        <time>2026-05-23T13:07:09Z</time>
      </trkpt>
      <trkpt lat="43.47711" lon="2.40552">
        <ele>642</ele>
        <time>2026-05-23T13:07:14Z</time>
      </trkpt>
      <trkpt lat="43.47714" lon="2.40552">
        <ele>642.3</ele>
        <time>2026-05-23T13:07:19Z</time>
      </trkpt>
      <trkpt lat="43.47716" lon="2.40551">
        <ele>642.2</ele>
        <time>2026-05-23T13:07:24Z</time>
      </trkpt>
      <trkpt lat="43.47716" lon="2.40551">
        <ele>642.2</ele>
        <time>2026-05-23T13:07:29Z</time>
      </trkpt>
      <trkpt lat="43.47716" lon="2.40551">
        <ele>642.2</ele>
        <time>2026-05-23T13:07:34Z</time>
      </trkpt>
      <trkpt lat="43.47716" lon="2.40551">
        <ele>642.2</ele>
        <time>2026-05-23T13:07:39Z</time>
      </trkpt>
      <trkpt lat="43.47716" lon="2.40551">
        <ele>642.2</ele>
        <time>2026-05-23T13:07:44Z</time>
      </trkpt>
      <trkpt lat="43.47717" lon="2.40551">
        <ele>642.3</ele>
        <time>2026-05-23T13:07:49Z</time>
      </trkpt>
      <trkpt lat="43.4772" lon="2.40551">
        <ele>642.5</ele>
        <time>2026-05-23T13:07:54Z</time>
      </trkpt>
      <trkpt lat="43.47721" lon="2.40555">
        <ele>643.5</ele>
        <time>2026-05-23T13:07:59Z</time>
      </trkpt>
      <trkpt lat="43.47724" lon="2.40556">
        <ele>643.9</ele>
        <time>2026-05-23T13:08:04Z</time>
      </trkpt>
      <trkpt lat="43.47729" lon="2.40559">
        <ele>644.9</ele>
        <time>2026-05-23T13:08:09Z</time>
      </trkpt>
      <trkpt lat="43.47736" lon="2.40562">
        <ele>646.1</ele>
        <time>2026-05-23T13:08:14Z</time>
      </trkpt>
      <trkpt lat="43.47741" lon="2.40568">
        <ele>647.9</ele>
        <time>2026-05-23T13:08:19Z</time>
      </trkpt>
      <trkpt lat="43.47744" lon="2.40574">
        <ele>649.4</ele>
        <time>2026-05-23T13:08:24Z</time>
      </trkpt>
      <trkpt lat="43.47747" lon="2.40582">
        <ele>651.5</ele>
        <time>2026-05-23T13:08:29Z</time>
      </trkpt>
      <trkpt lat="43.47749" lon="2.40589">
        <ele>652.3</ele>
        <time>2026-05-23T13:08:34Z</time>
      </trkpt>
      <trkpt lat="43.4775" lon="2.40596">
        <ele>652.9</ele>
        <time>2026-05-23T13:08:39Z</time>
      </trkpt>
      <trkpt lat="43.47751" lon="2.40605">
        <ele>653.2</ele>
        <time>2026-05-23T13:08:44Z</time>
      </trkpt>
      <trkpt lat="43.47756" lon="2.40614">
        <ele>652.2</ele>
        <time>2026-05-23T13:08:49Z</time>
      </trkpt>
      <trkpt lat="43.47762" lon="2.4061">
        <ele>650.1</ele>
        <time>2026-05-23T13:08:54Z</time>
      </trkpt>
      <trkpt lat="43.47763" lon="2.40601">
        <ele>649.3</ele>
        <time>2026-05-23T13:08:59Z</time>
      </trkpt>
      <trkpt lat="43.47764" lon="2.40593">
        <ele>648.7</ele>
        <time>2026-05-23T13:09:04Z</time>
      </trkpt>
      <trkpt lat="43.47764" lon="2.40585">
        <ele>648.4</ele>
        <time>2026-05-23T13:09:09Z</time>
      </trkpt>
      <trkpt lat="43.47764" lon="2.40577">
        <ele>647</ele>
        <time>2026-05-23T13:09:14Z</time>
      </trkpt>
      <trkpt lat="43.47764" lon="2.40567">
        <ele>644.8</ele>
        <time>2026-05-23T13:09:19Z</time>
      </trkpt>
      <trkpt lat="43.47765" lon="2.40559">
        <ele>642.9</ele>
        <time>2026-05-23T13:09:24Z</time>
      </trkpt>
      <trkpt lat="43.47765" lon="2.4055">
        <ele>641</ele>
        <time>2026-05-23T13:09:29Z</time>
      </trkpt>
      <trkpt lat="43.47765" lon="2.40539">
        <ele>638.7</ele>
        <time>2026-05-23T13:09:34Z</time>
      </trkpt>
      <trkpt lat="43.47764" lon="2.4053">
        <ele>637</ele>
        <time>2026-05-23T13:09:39Z</time>
      </trkpt>
      <trkpt lat="43.47762" lon="2.40522">
        <ele>635.7</ele>
        <time>2026-05-23T13:09:44Z</time>
      </trkpt>
      <trkpt lat="43.47759" lon="2.40514">
        <ele>634.5</ele>
        <time>2026-05-23T13:09:49Z</time>
      </trkpt>
      <trkpt lat="43.47756" lon="2.40505">
        <ele>633.1</ele>
        <time>2026-05-23T13:09:54Z</time>
      </trkpt>
      <trkpt lat="43.47752" lon="2.40499">
        <ele>632.3</ele>
        <time>2026-05-23T13:09:59Z</time>
      </trkpt>
      <trkpt lat="43.47747" lon="2.40493">
        <ele>630.2</ele>
        <time>2026-05-23T13:10:04Z</time>
      </trkpt>
      <trkpt lat="43.47741" lon="2.40489">
        <ele>628.5</ele>
        <time>2026-05-23T13:10:09Z</time>
      </trkpt>
      <trkpt lat="43.47736" lon="2.40486">
        <ele>627.2</ele>
        <time>2026-05-23T13:10:14Z</time>
      </trkpt>
      <trkpt lat="43.47731" lon="2.40483">
        <ele>626</ele>
        <time>2026-05-23T13:10:19Z</time>
      </trkpt>
      <trkpt lat="43.47724" lon="2.4048">
        <ele>624.7</ele>
        <time>2026-05-23T13:10:24Z</time>
      </trkpt>
      <trkpt lat="43.47717" lon="2.4048">
        <ele>624.5</ele>
        <time>2026-05-23T13:10:29Z</time>
      </trkpt>
      <trkpt lat="43.47711" lon="2.40478">
        <ele>623.7</ele>
        <time>2026-05-23T13:10:34Z</time>
      </trkpt>
      <trkpt lat="43.47703" lon="2.40475">
        <ele>622.7</ele>
        <time>2026-05-23T13:10:39Z</time>
      </trkpt>
      <trkpt lat="43.47697" lon="2.40475">
        <ele>622.6</ele>
        <time>2026-05-23T13:10:44Z</time>
      </trkpt>
      <trkpt lat="43.47691" lon="2.40473">
        <ele>621.9</ele>
        <time>2026-05-23T13:10:49Z</time>
      </trkpt>
      <trkpt lat="43.47684" lon="2.40471">
        <ele>621.3</ele>
        <time>2026-05-23T13:10:54Z</time>
      </trkpt>
      <trkpt lat="43.47677" lon="2.40466">
        <ele>620.1</ele>
        <time>2026-05-23T13:10:59Z</time>
      </trkpt>
      <trkpt lat="43.4767" lon="2.40459">
        <ele>618.6</ele>
        <time>2026-05-23T13:11:04Z</time>
      </trkpt>
      <trkpt lat="43.47665" lon="2.40454">
        <ele>617.5</ele>
        <time>2026-05-23T13:11:09Z</time>
      </trkpt>
      <trkpt lat="43.4766" lon="2.40447">
        <ele>615.6</ele>
        <time>2026-05-23T13:11:14Z</time>
      </trkpt>
      <trkpt lat="43.47655" lon="2.4044">
        <ele>613.7</ele>
        <time>2026-05-23T13:11:19Z</time>
      </trkpt>
      <trkpt lat="43.47651" lon="2.4043">
        <ele>611.2</ele>
        <time>2026-05-23T13:11:24Z</time>
      </trkpt>
      <trkpt lat="43.47648" lon="2.40422">
        <ele>609.3</ele>
        <time>2026-05-23T13:11:29Z</time>
      </trkpt>
      <trkpt lat="43.47642" lon="2.40413">
        <ele>607</ele>
        <time>2026-05-23T13:11:34Z</time>
      </trkpt>
      <trkpt lat="43.47639" lon="2.40405">
        <ele>605.4</ele>
        <time>2026-05-23T13:11:39Z</time>
      </trkpt>
      <trkpt lat="43.47635" lon="2.40396">
        <ele>603.5</ele>
        <time>2026-05-23T13:11:44Z</time>
      </trkpt>
      <trkpt lat="43.47632" lon="2.40385">
        <ele>601.3</ele>
        <time>2026-05-23T13:11:49Z</time>
      </trkpt>
      <trkpt lat="43.4763" lon="2.40375">
        <ele>599.3</ele>
        <time>2026-05-23T13:11:54Z</time>
      </trkpt>
      <trkpt lat="43.4763" lon="2.40367">
        <ele>597.9</ele>
        <time>2026-05-23T13:11:59Z</time>
      </trkpt>
      <trkpt lat="43.47629" lon="2.40359">
        <ele>596.4</ele>
        <time>2026-05-23T13:12:04Z</time>
      </trkpt>
      <trkpt lat="43.47629" lon="2.40351">
        <ele>595.1</ele>
        <time>2026-05-23T13:12:09Z</time>
      </trkpt>
      <trkpt lat="43.47628" lon="2.40341">
        <ele>593.2</ele>
        <time>2026-05-23T13:12:14Z</time>
      </trkpt>
      <trkpt lat="43.47627" lon="2.40332">
        <ele>591.6</ele>
        <time>2026-05-23T13:12:19Z</time>
      </trkpt>
      <trkpt lat="43.47628" lon="2.40323">
        <ele>590.7</ele>
        <time>2026-05-23T13:12:24Z</time>
      </trkpt>
      <trkpt lat="43.47627" lon="2.40313">
        <ele>589.5</ele>
        <time>2026-05-23T13:12:29Z</time>
      </trkpt>
      <trkpt lat="43.47623" lon="2.40303">
        <ele>587.8</ele>
        <time>2026-05-23T13:12:34Z</time>
      </trkpt>
      <trkpt lat="43.4762" lon="2.403">
        <ele>587</ele>
        <time>2026-05-23T13:12:39Z</time>
      </trkpt>
      <trkpt lat="43.47618" lon="2.403">
        <ele>586.7</ele>
        <time>2026-05-23T13:12:44Z</time>
      </trkpt>
      <trkpt lat="43.47619" lon="2.40291">
        <ele>585.8</ele>
        <time>2026-05-23T13:12:49Z</time>
      </trkpt>
      <trkpt lat="43.47622" lon="2.40285">
        <ele>585.5</ele>
        <time>2026-05-23T13:12:54Z</time>
      </trkpt>
      <trkpt lat="43.47624" lon="2.40282">
        <ele>585.5</ele>
        <time>2026-05-23T13:12:59Z</time>
      </trkpt>
      <trkpt lat="43.47627" lon="2.40279">
        <ele>585.6</ele>
        <time>2026-05-23T13:13:04Z</time>
      </trkpt>
      <trkpt lat="43.47632" lon="2.40274">
        <ele>585.8</ele>
        <time>2026-05-23T13:13:09Z</time>
      </trkpt>
      <trkpt lat="43.47636" lon="2.40267">
        <ele>585.7</ele>
        <time>2026-05-23T13:13:14Z</time>
      </trkpt>
      <trkpt lat="43.47639" lon="2.4026">
        <ele>585.4</ele>
        <time>2026-05-23T13:13:19Z</time>
      </trkpt>
      <trkpt lat="43.47643" lon="2.40252">
        <ele>585.2</ele>
        <time>2026-05-23T13:13:24Z</time>
      </trkpt>
      <trkpt lat="43.47648" lon="2.40245">
        <ele>585.6</ele>
        <time>2026-05-23T13:13:29Z</time>
      </trkpt>
      <trkpt lat="43.47649" lon="2.4024">
        <ele>585.5</ele>
        <time>2026-05-23T13:13:34Z</time>
      </trkpt>
      <trkpt lat="43.4765" lon="2.40232">
        <ele>585.2</ele>
        <time>2026-05-23T13:13:39Z</time>
      </trkpt>
      <trkpt lat="43.47651" lon="2.4022">
        <ele>584.8</ele>
        <time>2026-05-23T13:13:44Z</time>
      </trkpt>
      <trkpt lat="43.47652" lon="2.40206">
        <ele>584.2</ele>
        <time>2026-05-23T13:13:49Z</time>
      </trkpt>
      <trkpt lat="43.47653" lon="2.40195">
        <ele>583.7</ele>
        <time>2026-05-23T13:13:54Z</time>
      </trkpt>
      <trkpt lat="43.47653" lon="2.40183">
        <ele>583.1</ele>
        <time>2026-05-23T13:13:59Z</time>
      </trkpt>
      <trkpt lat="43.47655" lon="2.40174">
        <ele>582.9</ele>
        <time>2026-05-23T13:14:04Z</time>
      </trkpt>
      <trkpt lat="43.47654" lon="2.40165">
        <ele>582.2</ele>
        <time>2026-05-23T13:14:09Z</time>
      </trkpt>
      <trkpt lat="43.47654" lon="2.40158">
        <ele>581.9</ele>
        <time>2026-05-23T13:14:14Z</time>
      </trkpt>
      <trkpt lat="43.47652" lon="2.40148">
        <ele>581</ele>
        <time>2026-05-23T13:14:19Z</time>
      </trkpt>
      <trkpt lat="43.47651" lon="2.40141">
        <ele>580.5</ele>
        <time>2026-05-23T13:14:24Z</time>
      </trkpt>
      <trkpt lat="43.4765" lon="2.4013">
        <ele>579.8</ele>
        <time>2026-05-23T13:14:29Z</time>
      </trkpt>
      <trkpt lat="43.47649" lon="2.4012">
        <ele>579.1</ele>
        <time>2026-05-23T13:14:34Z</time>
      </trkpt>
      <trkpt lat="43.47648" lon="2.40114">
        <ele>578.6</ele>
        <time>2026-05-23T13:14:39Z</time>
      </trkpt>
      <trkpt lat="43.47647" lon="2.40108">
        <ele>578.1</ele>
        <time>2026-05-23T13:14:44Z</time>
      </trkpt>
      <trkpt lat="43.47645" lon="2.40102">
        <ele>577.4</ele>
        <time>2026-05-23T13:14:49Z</time>
      </trkpt>
      <trkpt lat="43.4764" lon="2.40098">
        <ele>576.4</ele>
        <time>2026-05-23T13:14:54Z</time>
      </trkpt>
      <trkpt lat="43.47633" lon="2.40097">
        <ele>575.2</ele>
        <time>2026-05-23T13:14:59Z</time>
      </trkpt>
      <trkpt lat="43.47624" lon="2.40086">
        <ele>573</ele>
        <time>2026-05-23T13:15:04Z</time>
      </trkpt>
      <trkpt lat="43.47616" lon="2.40074">
        <ele>570.5</ele>
        <time>2026-05-23T13:15:09Z</time>
      </trkpt>
      <trkpt lat="43.47616" lon="2.40066">
        <ele>569.7</ele>
        <time>2026-05-23T13:15:14Z</time>
      </trkpt>
      <trkpt lat="43.47616" lon="2.40058">
        <ele>568.9</ele>
        <time>2026-05-23T13:15:19Z</time>
      </trkpt>
      <trkpt lat="43.4762" lon="2.40052">
        <ele>569.1</ele>
        <time>2026-05-23T13:15:24Z</time>
      </trkpt>
      <trkpt lat="43.47619" lon="2.40045">
        <ele>568.2</ele>
        <time>2026-05-23T13:15:29Z</time>
      </trkpt>
      <trkpt lat="43.4762" lon="2.40036">
        <ele>567.5</ele>
        <time>2026-05-23T13:15:34Z</time>
      </trkpt>
      <trkpt lat="43.47623" lon="2.40028">
        <ele>567.3</ele>
        <time>2026-05-23T13:15:39Z</time>
      </trkpt>
      <trkpt lat="43.47625" lon="2.40019">
        <ele>566.8</ele>
        <time>2026-05-23T13:15:44Z</time>
      </trkpt>
      <trkpt lat="43.47628" lon="2.4001">
        <ele>566.6</ele>
        <time>2026-05-23T13:15:49Z</time>
      </trkpt>
      <trkpt lat="43.47629" lon="2.40001">
        <ele>566</ele>
        <time>2026-05-23T13:15:54Z</time>
      </trkpt>
      <trkpt lat="43.47628" lon="2.39989">
        <ele>564.9</ele>
        <time>2026-05-23T13:15:59Z</time>
      </trkpt>
      <trkpt lat="43.47628" lon="2.39979">
        <ele>564.3</ele>
        <time>2026-05-23T13:16:04Z</time>
      </trkpt>
      <trkpt lat="43.4763" lon="2.39969">
        <ele>564.1</ele>
        <time>2026-05-23T13:16:09Z</time>
      </trkpt>
      <trkpt lat="43.47631" lon="2.39959">
        <ele>563.7</ele>
        <time>2026-05-23T13:16:14Z</time>
      </trkpt>
      <trkpt lat="43.47634" lon="2.39951">
        <ele>563.9</ele>
        <time>2026-05-23T13:16:19Z</time>
      </trkpt>
      <trkpt lat="43.47635" lon="2.39954">
        <ele>564.3</ele>
        <time>2026-05-23T13:16:24Z</time>
      </trkpt>
      <trkpt lat="43.47636" lon="2.39954">
        <ele>564.6</ele>
        <time>2026-05-23T13:16:29Z</time>
      </trkpt>
      <trkpt lat="43.47636" lon="2.39954">
        <ele>564.6</ele>
        <time>2026-05-23T13:16:34Z</time>
      </trkpt>
      <trkpt lat="43.47636" lon="2.39954">
        <ele>564.6</ele>
        <time>2026-05-23T13:16:39Z</time>
      </trkpt>
      <trkpt lat="43.47637" lon="2.39945">
        <ele>564.2</ele>
        <time>2026-05-23T13:16:44Z</time>
      </trkpt>
      <trkpt lat="43.47637" lon="2.39939">
        <ele>563.9</ele>
        <time>2026-05-23T13:16:49Z</time>
      </trkpt>
      <trkpt lat="43.47636" lon="2.39932">
        <ele>563.2</ele>
        <time>2026-05-23T13:16:54Z</time>
      </trkpt>
      <trkpt lat="43.47634" lon="2.39925">
        <ele>562.3</ele>
        <time>2026-05-23T13:16:59Z</time>
      </trkpt>
      <trkpt lat="43.47634" lon="2.39918">
        <ele>561.9</ele>
        <time>2026-05-23T13:17:04Z</time>
      </trkpt>
      <trkpt lat="43.47633" lon="2.39911">
        <ele>561.9</ele>
        <time>2026-05-23T13:17:09Z</time>
      </trkpt>
      <trkpt lat="43.47632" lon="2.39908">
        <ele>561.8</ele>
        <time>2026-05-23T13:17:14Z</time>
      </trkpt>
      <trkpt lat="43.47633" lon="2.39897">
        <ele>562.7</ele>
        <time>2026-05-23T13:17:19Z</time>
      </trkpt>
      <trkpt lat="43.4763" lon="2.39888">
        <ele>562.4</ele>
        <time>2026-05-23T13:17:24Z</time>
      </trkpt>
      <trkpt lat="43.47627" lon="2.39879">
        <ele>562.1</ele>
        <time>2026-05-23T13:17:29Z</time>
      </trkpt>
      <trkpt lat="43.47625" lon="2.39873">
        <ele>561.9</ele>
        <time>2026-05-23T13:17:34Z</time>
      </trkpt>
      <trkpt lat="43.47623" lon="2.39864">
        <ele>561.8</ele>
        <time>2026-05-23T13:17:39Z</time>
      </trkpt>
      <trkpt lat="43.47622" lon="2.39862">
        <ele>561.6</ele>
        <time>2026-05-23T13:17:44Z</time>
      </trkpt>
      <trkpt lat="43.4762" lon="2.39858">
        <ele>561.2</ele>
        <time>2026-05-23T13:17:49Z</time>
      </trkpt>
      <trkpt lat="43.4762" lon="2.39853">
        <ele>561.4</ele>
        <time>2026-05-23T13:17:54Z</time>
      </trkpt>
      <trkpt lat="43.4762" lon="2.39847">
        <ele>561.8</ele>
        <time>2026-05-23T13:17:59Z</time>
      </trkpt>
      <trkpt lat="43.47619" lon="2.3984">
        <ele>561.8</ele>
        <time>2026-05-23T13:18:04Z</time>
      </trkpt>
      <trkpt lat="43.47618" lon="2.39834">
        <ele>561.8</ele>
        <time>2026-05-23T13:18:09Z</time>
      </trkpt>
      <trkpt lat="43.47618" lon="2.39826">
        <ele>561.5</ele>
        <time>2026-05-23T13:18:14Z</time>
      </trkpt>
      <trkpt lat="43.47618" lon="2.39818">
        <ele>561.2</ele>
        <time>2026-05-23T13:18:19Z</time>
      </trkpt>
      <trkpt lat="43.47618" lon="2.39809">
        <ele>560.8</ele>
        <time>2026-05-23T13:18:24Z</time>
      </trkpt>
      <trkpt lat="43.47617" lon="2.39802">
        <ele>560.1</ele>
        <time>2026-05-23T13:18:29Z</time>
      </trkpt>
      <trkpt lat="43.47615" lon="2.39794">
        <ele>559</ele>
        <time>2026-05-23T13:18:34Z</time>
      </trkpt>
      <trkpt lat="43.47615" lon="2.39787">
        <ele>558.6</ele>
        <time>2026-05-23T13:18:39Z</time>
      </trkpt>
      <trkpt lat="43.47614" lon="2.39781">
        <ele>557.9</ele>
        <time>2026-05-23T13:18:44Z</time>
      </trkpt>
      <trkpt lat="43.47615" lon="2.39779">
        <ele>558.2</ele>
        <time>2026-05-23T13:18:49Z</time>
      </trkpt>
      <trkpt lat="43.47613" lon="2.39772">
        <ele>557</ele>
        <time>2026-05-23T13:18:54Z</time>
      </trkpt>
      <trkpt lat="43.47611" lon="2.39764">
        <ele>555.7</ele>
        <time>2026-05-23T13:18:59Z</time>
      </trkpt>
      <trkpt lat="43.47609" lon="2.39757">
        <ele>554.4</ele>
        <time>2026-05-23T13:19:04Z</time>
      </trkpt>
      <trkpt lat="43.47608" lon="2.39751">
        <ele>553.6</ele>
        <time>2026-05-23T13:19:09Z</time>
      </trkpt>
      <trkpt lat="43.47608" lon="2.39744">
        <ele>552.5</ele>
        <time>2026-05-23T13:19:14Z</time>
      </trkpt>
      <trkpt lat="43.47609" lon="2.39734">
        <ele>551.2</ele>
        <time>2026-05-23T13:19:19Z</time>
      </trkpt>
      <trkpt lat="43.47612" lon="2.39726">
        <ele>551.2</ele>
        <time>2026-05-23T13:19:24Z</time>
      </trkpt>
      <trkpt lat="43.47615" lon="2.39718">
        <ele>551.2</ele>
        <time>2026-05-23T13:19:29Z</time>
      </trkpt>
      <trkpt lat="43.4762" lon="2.39713">
        <ele>552.7</ele>
        <time>2026-05-23T13:19:34Z</time>
      </trkpt>
      <trkpt lat="43.47624" lon="2.39707">
        <ele>553.5</ele>
        <time>2026-05-23T13:19:39Z</time>
      </trkpt>
      <trkpt lat="43.47627" lon="2.39701">
        <ele>553.9</ele>
        <time>2026-05-23T13:19:44Z</time>
      </trkpt>
      <trkpt lat="43.47624" lon="2.39699">
        <ele>552.2</ele>
        <time>2026-05-23T13:19:49Z</time>
      </trkpt>
      <trkpt lat="43.47623" lon="2.39699">
        <ele>551.7</ele>
        <time>2026-05-23T13:19:54Z</time>
      </trkpt>
      <trkpt lat="43.47623" lon="2.39699">
        <ele>551.7</ele>
        <time>2026-05-23T13:19:59Z</time>
      </trkpt>
      <trkpt lat="43.47623" lon="2.39699">
        <ele>551.7</ele>
        <time>2026-05-23T13:20:04Z</time>
      </trkpt>
      <trkpt lat="43.47622" lon="2.39694">
        <ele>550.3</ele>
        <time>2026-05-23T13:20:09Z</time>
      </trkpt>
      <trkpt lat="43.47625" lon="2.39689">
        <ele>550.9</ele>
        <time>2026-05-23T13:20:14Z</time>
      </trkpt>
      <trkpt lat="43.47628" lon="2.39686">
        <ele>551.8</ele>
        <time>2026-05-23T13:20:19Z</time>
      </trkpt>
      <trkpt lat="43.47634" lon="2.39682">
        <ele>554</ele>
        <time>2026-05-23T13:20:24Z</time>
      </trkpt>
      <trkpt lat="43.47641" lon="2.39678">
        <ele>556.6</ele>
        <time>2026-05-23T13:20:29Z</time>
      </trkpt>
      <trkpt lat="43.47648" lon="2.39672">
        <ele>559</ele>
        <time>2026-05-23T13:20:34Z</time>
      </trkpt>
      <trkpt lat="43.47654" lon="2.39669">
        <ele>561.3</ele>
        <time>2026-05-23T13:20:39Z</time>
      </trkpt>
      <trkpt lat="43.47659" lon="2.39664">
        <ele>562.5</ele>
        <time>2026-05-23T13:20:44Z</time>
      </trkpt>
      <trkpt lat="43.47664" lon="2.39659">
        <ele>563.3</ele>
        <time>2026-05-23T13:20:49Z</time>
      </trkpt>
      <trkpt lat="43.47669" lon="2.39655">
        <ele>564.2</ele>
        <time>2026-05-23T13:20:54Z</time>
      </trkpt>
      <trkpt lat="43.47673" lon="2.39651">
        <ele>564.5</ele>
        <time>2026-05-23T13:20:59Z</time>
      </trkpt>
      <trkpt lat="43.47679" lon="2.39648">
        <ele>565.9</ele>
        <time>2026-05-23T13:21:04Z</time>
      </trkpt>
      <trkpt lat="43.47684" lon="2.39646">
        <ele>567.3</ele>
        <time>2026-05-23T13:21:09Z</time>
      </trkpt>
      <trkpt lat="43.47687" lon="2.39643">
        <ele>567.5</ele>
        <time>2026-05-23T13:21:14Z</time>
      </trkpt>
      <trkpt lat="43.47692" lon="2.39639">
        <ele>568.3</ele>
        <time>2026-05-23T13:21:19Z</time>
      </trkpt>
      <trkpt lat="43.47699" lon="2.39635">
        <ele>569.9</ele>
        <time>2026-05-23T13:21:24Z</time>
      </trkpt>
      <trkpt lat="43.47705" lon="2.39631">
        <ele>571.1</ele>
        <time>2026-05-23T13:21:29Z</time>
      </trkpt>
      <trkpt lat="43.4771" lon="2.39627">
        <ele>572</ele>
        <time>2026-05-23T13:21:34Z</time>
      </trkpt>
      <trkpt lat="43.47716" lon="2.39622">
        <ele>573</ele>
        <time>2026-05-23T13:21:39Z</time>
      </trkpt>
      <trkpt lat="43.47723" lon="2.39618">
        <ele>574.7</ele>
        <time>2026-05-23T13:21:44Z</time>
      </trkpt>
      <trkpt lat="43.4773" lon="2.39613">
        <ele>576.3</ele>
        <time>2026-05-23T13:21:49Z</time>
      </trkpt>
      <trkpt lat="43.47737" lon="2.39605">
        <ele>577</ele>
        <time>2026-05-23T13:21:54Z</time>
      </trkpt>
      <trkpt lat="43.47745" lon="2.396">
        <ele>579.1</ele>
        <time>2026-05-23T13:21:59Z</time>
      </trkpt>
      <trkpt lat="43.47752" lon="2.39594">
        <ele>580.1</ele>
        <time>2026-05-23T13:22:04Z</time>
      </trkpt>
      <trkpt lat="43.47757" lon="2.39588">
        <ele>579.5</ele>
        <time>2026-05-23T13:22:09Z</time>
      </trkpt>
      <trkpt lat="43.47761" lon="2.39582">
        <ele>578.8</ele>
        <time>2026-05-23T13:22:14Z</time>
      </trkpt>
      <trkpt lat="43.47766" lon="2.39574">
        <ele>577.9</ele>
        <time>2026-05-23T13:22:19Z</time>
      </trkpt>
      <trkpt lat="43.47772" lon="2.39567">
        <ele>577.5</ele>
        <time>2026-05-23T13:22:24Z</time>
      </trkpt>
      <trkpt lat="43.47779" lon="2.39562">
        <ele>577.7</ele>
        <time>2026-05-23T13:22:29Z</time>
      </trkpt>
      <trkpt lat="43.47784" lon="2.39555">
        <ele>577.1</ele>
        <time>2026-05-23T13:22:34Z</time>
      </trkpt>
      <trkpt lat="43.47788" lon="2.39548">
        <ele>576.4</ele>
        <time>2026-05-23T13:22:39Z</time>
      </trkpt>
      <trkpt lat="43.47793" lon="2.39544">
        <ele>576.5</ele>
        <time>2026-05-23T13:22:44Z</time>
      </trkpt>
      <trkpt lat="43.47799" lon="2.39539">
        <ele>576.7</ele>
        <time>2026-05-23T13:22:49Z</time>
      </trkpt>
      <trkpt lat="43.47806" lon="2.39531">
        <ele>576.5</ele>
        <time>2026-05-23T13:22:54Z</time>
      </trkpt>
      <trkpt lat="43.47813" lon="2.39524">
        <ele>576.5</ele>
        <time>2026-05-23T13:22:59Z</time>
      </trkpt>
      <trkpt lat="43.47818" lon="2.3952">
        <ele>576.7</ele>
        <time>2026-05-23T13:23:04Z</time>
      </trkpt>
      <trkpt lat="43.47825" lon="2.39514">
        <ele>577</ele>
        <time>2026-05-23T13:23:09Z</time>
      </trkpt>
      <trkpt lat="43.4783" lon="2.39505">
        <ele>576.3</ele>
        <time>2026-05-23T13:23:14Z</time>
      </trkpt>
      <trkpt lat="43.47835" lon="2.39497">
        <ele>575.7</ele>
        <time>2026-05-23T13:23:19Z</time>
      </trkpt>
      <trkpt lat="43.4784" lon="2.3949">
        <ele>575.2</ele>
        <time>2026-05-23T13:23:24Z</time>
      </trkpt>
      <trkpt lat="43.47845" lon="2.39483">
        <ele>574.7</ele>
        <time>2026-05-23T13:23:29Z</time>
      </trkpt>
      <trkpt lat="43.4785" lon="2.39478">
        <ele>574.7</ele>
        <time>2026-05-23T13:23:34Z</time>
      </trkpt>
      <trkpt lat="43.47854" lon="2.39469">
        <ele>573.9</ele>
        <time>2026-05-23T13:23:39Z</time>
      </trkpt>
      <trkpt lat="43.47858" lon="2.3946">
        <ele>573.2</ele>
        <time>2026-05-23T13:23:44Z</time>
      </trkpt>
      <trkpt lat="43.47861" lon="2.39451">
        <ele>572.4</ele>
        <time>2026-05-23T13:23:49Z</time>
      </trkpt>
      <trkpt lat="43.47865" lon="2.39445">
        <ele>572.3</ele>
        <time>2026-05-23T13:23:54Z</time>
      </trkpt>
      <trkpt lat="43.47869" lon="2.39439">
        <ele>572.2</ele>
        <time>2026-05-23T13:23:59Z</time>
      </trkpt>
      <trkpt lat="43.47875" lon="2.39433">
        <ele>572.7</ele>
        <time>2026-05-23T13:24:04Z</time>
      </trkpt>
      <trkpt lat="43.47879" lon="2.39427">
        <ele>572.7</ele>
        <time>2026-05-23T13:24:09Z</time>
      </trkpt>
      <trkpt lat="43.47883" lon="2.39421">
        <ele>572.9</ele>
        <time>2026-05-23T13:24:14Z</time>
      </trkpt>
      <trkpt lat="43.47887" lon="2.39415">
        <ele>573.1</ele>
        <time>2026-05-23T13:24:19Z</time>
      </trkpt>
      <trkpt lat="43.47892" lon="2.39407">
        <ele>573.9</ele>
        <time>2026-05-23T13:24:24Z</time>
      </trkpt>
      <trkpt lat="43.47897" lon="2.39402">
        <ele>574.8</ele>
        <time>2026-05-23T13:24:29Z</time>
      </trkpt>
      <trkpt lat="43.47902" lon="2.39394">
        <ele>575.5</ele>
        <time>2026-05-23T13:24:34Z</time>
      </trkpt>
      <trkpt lat="43.47907" lon="2.39387">
        <ele>576.3</ele>
        <time>2026-05-23T13:24:39Z</time>
      </trkpt>
      <trkpt lat="43.47912" lon="2.39381">
        <ele>577.2</ele>
        <time>2026-05-23T13:24:44Z</time>
      </trkpt>
      <trkpt lat="43.47915" lon="2.39374">
        <ele>577.6</ele>
        <time>2026-05-23T13:24:49Z</time>
      </trkpt>
      <trkpt lat="43.4792" lon="2.39368">
        <ele>578.2</ele>
        <time>2026-05-23T13:24:54Z</time>
      </trkpt>
      <trkpt lat="43.47926" lon="2.39361">
        <ele>578.7</ele>
        <time>2026-05-23T13:24:59Z</time>
      </trkpt>
      <trkpt lat="43.47933" lon="2.39356">
        <ele>579.6</ele>
        <time>2026-05-23T13:25:04Z</time>
      </trkpt>
      <trkpt lat="43.47941" lon="2.39351">
        <ele>580.7</ele>
        <time>2026-05-23T13:25:09Z</time>
      </trkpt>
      <trkpt lat="43.47948" lon="2.39347">
        <ele>581.7</ele>
        <time>2026-05-23T13:25:14Z</time>
      </trkpt>
      <trkpt lat="43.47956" lon="2.39342">
        <ele>582.8</ele>
        <time>2026-05-23T13:25:19Z</time>
      </trkpt>
      <trkpt lat="43.47964" lon="2.39338">
        <ele>584</ele>
        <time>2026-05-23T13:25:24Z</time>
      </trkpt>
      <trkpt lat="43.4797" lon="2.39333">
        <ele>585</ele>
        <time>2026-05-23T13:25:29Z</time>
      </trkpt>
      <trkpt lat="43.47975" lon="2.39329">
        <ele>585.9</ele>
        <time>2026-05-23T13:25:34Z</time>
      </trkpt>
      <trkpt lat="43.47982" lon="2.39325">
        <ele>587.2</ele>
        <time>2026-05-23T13:25:39Z</time>
      </trkpt>
      <trkpt lat="43.47988" lon="2.39318">
        <ele>588.3</ele>
        <time>2026-05-23T13:25:44Z</time>
      </trkpt>
      <trkpt lat="43.47993" lon="2.39311">
        <ele>589.3</ele>
        <time>2026-05-23T13:25:49Z</time>
      </trkpt>
      <trkpt lat="43.47996" lon="2.39302">
        <ele>590.1</ele>
        <time>2026-05-23T13:25:54Z</time>
      </trkpt>
      <trkpt lat="43.47999" lon="2.39294">
        <ele>590.8</ele>
        <time>2026-05-23T13:25:59Z</time>
      </trkpt>
      <trkpt lat="43.48001" lon="2.39285">
        <ele>591.1</ele>
        <time>2026-05-23T13:26:04Z</time>
      </trkpt>
      <trkpt lat="43.48004" lon="2.39278">
        <ele>591</ele>
        <time>2026-05-23T13:26:09Z</time>
      </trkpt>
      <trkpt lat="43.48008" lon="2.39271">
        <ele>590.8</ele>
        <time>2026-05-23T13:26:14Z</time>
      </trkpt>
      <trkpt lat="43.48011" lon="2.39263">
        <ele>590.7</ele>
        <time>2026-05-23T13:26:19Z</time>
      </trkpt>
      <trkpt lat="43.48014" lon="2.39255">
        <ele>590.6</ele>
        <time>2026-05-23T13:26:24Z</time>
      </trkpt>
      <trkpt lat="43.48017" lon="2.39246">
        <ele>590</ele>
        <time>2026-05-23T13:26:29Z</time>
      </trkpt>
      <trkpt lat="43.4802" lon="2.39239">
        <ele>589.1</ele>
        <time>2026-05-23T13:26:34Z</time>
      </trkpt>
      <trkpt lat="43.48024" lon="2.39229">
        <ele>587.9</ele>
        <time>2026-05-23T13:26:39Z</time>
      </trkpt>
      <trkpt lat="43.48027" lon="2.39216">
        <ele>586.7</ele>
        <time>2026-05-23T13:26:44Z</time>
      </trkpt>
      <trkpt lat="43.48031" lon="2.39206">
        <ele>585.6</ele>
        <time>2026-05-23T13:26:49Z</time>
      </trkpt>
      <trkpt lat="43.48034" lon="2.39198">
        <ele>584.9</ele>
        <time>2026-05-23T13:26:54Z</time>
      </trkpt>
      <trkpt lat="43.48038" lon="2.39188">
        <ele>584</ele>
        <time>2026-05-23T13:26:59Z</time>
      </trkpt>
      <trkpt lat="43.48041" lon="2.39178">
        <ele>583.3</ele>
        <time>2026-05-23T13:27:04Z</time>
      </trkpt>
      <trkpt lat="43.48043" lon="2.3917">
        <ele>582.7</ele>
        <time>2026-05-23T13:27:09Z</time>
      </trkpt>
      <trkpt lat="43.48047" lon="2.39162">
        <ele>582.4</ele>
        <time>2026-05-23T13:27:14Z</time>
      </trkpt>
      <trkpt lat="43.48051" lon="2.39151">
        <ele>582.2</ele>
        <time>2026-05-23T13:27:19Z</time>
      </trkpt>
      <trkpt lat="43.48054" lon="2.39142">
        <ele>582</ele>
        <time>2026-05-23T13:27:24Z</time>
      </trkpt>
      <trkpt lat="43.48057" lon="2.39132">
        <ele>581.9</ele>
        <time>2026-05-23T13:27:29Z</time>
      </trkpt>
      <trkpt lat="43.4806" lon="2.39123">
        <ele>581.8</ele>
        <time>2026-05-23T13:27:34Z</time>
      </trkpt>
      <trkpt lat="43.48063" lon="2.39113">
        <ele>581.8</ele>
        <time>2026-05-23T13:27:39Z</time>
      </trkpt>
      <trkpt lat="43.48068" lon="2.39106">
        <ele>581.8</ele>
        <time>2026-05-23T13:27:44Z</time>
      </trkpt>
      <trkpt lat="43.48072" lon="2.39096">
        <ele>581.8</ele>
        <time>2026-05-23T13:27:49Z</time>
      </trkpt>
      <trkpt lat="43.48076" lon="2.39088">
        <ele>581.8</ele>
        <time>2026-05-23T13:27:54Z</time>
      </trkpt>
      <trkpt lat="43.4808" lon="2.39079">
        <ele>581.6</ele>
        <time>2026-05-23T13:27:59Z</time>
      </trkpt>
      <trkpt lat="43.48082" lon="2.39071">
        <ele>581.1</ele>
        <time>2026-05-23T13:28:04Z</time>
      </trkpt>
      <trkpt lat="43.48085" lon="2.39062">
        <ele>580.3</ele>
        <time>2026-05-23T13:28:09Z</time>
      </trkpt>
      <trkpt lat="43.48089" lon="2.39053">
        <ele>579.2</ele>
        <time>2026-05-23T13:28:14Z</time>
      </trkpt>
      <trkpt lat="43.48092" lon="2.39045">
        <ele>578.4</ele>
        <time>2026-05-23T13:28:19Z</time>
      </trkpt>
      <trkpt lat="43.48095" lon="2.39036">
        <ele>577.5</ele>
        <time>2026-05-23T13:28:24Z</time>
      </trkpt>
      <trkpt lat="43.48099" lon="2.39028">
        <ele>576.6</ele>
        <time>2026-05-23T13:28:29Z</time>
      </trkpt>
      <trkpt lat="43.48102" lon="2.39021">
        <ele>575.9</ele>
        <time>2026-05-23T13:28:34Z</time>
      </trkpt>
      <trkpt lat="43.48106" lon="2.39012">
        <ele>575.1</ele>
        <time>2026-05-23T13:28:39Z</time>
      </trkpt>
      <trkpt lat="43.48111" lon="2.39003">
        <ele>574.2</ele>
        <time>2026-05-23T13:28:44Z</time>
      </trkpt>
      <trkpt lat="43.48114" lon="2.38994">
        <ele>572.8</ele>
        <time>2026-05-23T13:28:49Z</time>
      </trkpt>
      <trkpt lat="43.48117" lon="2.38985">
        <ele>571</ele>
        <time>2026-05-23T13:28:54Z</time>
      </trkpt>
      <trkpt lat="43.48122" lon="2.38975">
        <ele>569.1</ele>
        <time>2026-05-23T13:28:59Z</time>
      </trkpt>
      <trkpt lat="43.48125" lon="2.38966">
        <ele>567.5</ele>
        <time>2026-05-23T13:29:04Z</time>
      </trkpt>
      <trkpt lat="43.48129" lon="2.38958">
        <ele>566.1</ele>
        <time>2026-05-23T13:29:09Z</time>
      </trkpt>
      <trkpt lat="43.48133" lon="2.38949">
        <ele>564.6</ele>
        <time>2026-05-23T13:29:14Z</time>
      </trkpt>
      <trkpt lat="43.48136" lon="2.38939">
        <ele>563</ele>
        <time>2026-05-23T13:29:19Z</time>
      </trkpt>
      <trkpt lat="43.48139" lon="2.3893">
        <ele>561.6</ele>
        <time>2026-05-23T13:29:24Z</time>
      </trkpt>
      <trkpt lat="43.48143" lon="2.38921">
        <ele>560.3</ele>
        <time>2026-05-23T13:29:29Z</time>
      </trkpt>
      <trkpt lat="43.48149" lon="2.38913">
        <ele>559.5</ele>
        <time>2026-05-23T13:29:34Z</time>
      </trkpt>
      <trkpt lat="43.48154" lon="2.38904">
        <ele>559</ele>
        <time>2026-05-23T13:29:39Z</time>
      </trkpt>
      <trkpt lat="43.48158" lon="2.38896">
        <ele>558.7</ele>
        <time>2026-05-23T13:29:44Z</time>
      </trkpt>
      <trkpt lat="43.48163" lon="2.38886">
        <ele>558.6</ele>
        <time>2026-05-23T13:29:49Z</time>
      </trkpt>
      <trkpt lat="43.48164" lon="2.38879">
        <ele>558.4</ele>
        <time>2026-05-23T13:29:54Z</time>
      </trkpt>
      <trkpt lat="43.48164" lon="2.38878">
        <ele>558.3</ele>
        <time>2026-05-23T13:29:59Z</time>
      </trkpt>
      <trkpt lat="43.48166" lon="2.38877">
        <ele>558.5</ele>
        <time>2026-05-23T13:30:04Z</time>
      </trkpt>
      <trkpt lat="43.4817" lon="2.38874">
        <ele>558.4</ele>
        <time>2026-05-23T13:30:09Z</time>
      </trkpt>
      <trkpt lat="43.4817" lon="2.38874">
        <ele>558.4</ele>
        <time>2026-05-23T13:30:14Z</time>
      </trkpt>
      <trkpt lat="43.4817" lon="2.38874">
        <ele>558.4</ele>
        <time>2026-05-23T13:30:19Z</time>
      </trkpt>
      <trkpt lat="43.48174" lon="2.38871">
        <ele>558.2</ele>
        <time>2026-05-23T13:30:24Z</time>
      </trkpt>
      <trkpt lat="43.48177" lon="2.38863">
        <ele>557.9</ele>
        <time>2026-05-23T13:30:29Z</time>
      </trkpt>
      <trkpt lat="43.48181" lon="2.38857">
        <ele>557.7</ele>
        <time>2026-05-23T13:30:34Z</time>
      </trkpt>
      <trkpt lat="43.48184" lon="2.3885">
        <ele>557.5</ele>
        <time>2026-05-23T13:30:39Z</time>
      </trkpt>
      <trkpt lat="43.48187" lon="2.38844">
        <ele>557.4</ele>
        <time>2026-05-23T13:30:44Z</time>
      </trkpt>
      <trkpt lat="43.4819" lon="2.38839">
        <ele>557.4</ele>
        <time>2026-05-23T13:30:49Z</time>
      </trkpt>
      <trkpt lat="43.48193" lon="2.38832">
        <ele>557.3</ele>
        <time>2026-05-23T13:30:54Z</time>
      </trkpt>
      <trkpt lat="43.48198" lon="2.38826">
        <ele>557.4</ele>
        <time>2026-05-23T13:30:59Z</time>
      </trkpt>
      <trkpt lat="43.482" lon="2.3882">
        <ele>557.4</ele>
        <time>2026-05-23T13:31:04Z</time>
      </trkpt>
      <trkpt lat="43.48202" lon="2.38812">
        <ele>557.6</ele>
        <time>2026-05-23T13:31:09Z</time>
      </trkpt>
      <trkpt lat="43.48204" lon="2.38804">
        <ele>557.7</ele>
        <time>2026-05-23T13:31:14Z</time>
      </trkpt>
      <trkpt lat="43.48208" lon="2.38798">
        <ele>558.1</ele>
        <time>2026-05-23T13:31:19Z</time>
      </trkpt>
      <trkpt lat="43.48211" lon="2.3879">
        <ele>558.5</ele>
        <time>2026-05-23T13:31:24Z</time>
      </trkpt>
      <trkpt lat="43.48213" lon="2.3878">
        <ele>559</ele>
        <time>2026-05-23T13:31:29Z</time>
      </trkpt>
      <trkpt lat="43.48215" lon="2.38771">
        <ele>559.5</ele>
        <time>2026-05-23T13:31:34Z</time>
      </trkpt>
      <trkpt lat="43.48221" lon="2.38762">
        <ele>560.6</ele>
        <time>2026-05-23T13:31:39Z</time>
      </trkpt>
      <trkpt lat="43.48224" lon="2.38754">
        <ele>561.4</ele>
        <time>2026-05-23T13:31:44Z</time>
      </trkpt>
      <trkpt lat="43.48228" lon="2.38748">
        <ele>562.4</ele>
        <time>2026-05-23T13:31:49Z</time>
      </trkpt>
      <trkpt lat="43.48236" lon="2.38746">
        <ele>563.9</ele>
        <time>2026-05-23T13:31:54Z</time>
      </trkpt>
      <trkpt lat="43.48245" lon="2.38748">
        <ele>565.3</ele>
        <time>2026-05-23T13:31:59Z</time>
      </trkpt>
      <trkpt lat="43.48252" lon="2.3875">
        <ele>565.5</ele>
        <time>2026-05-23T13:32:04Z</time>
      </trkpt>
      <trkpt lat="43.48257" lon="2.38754">
        <ele>564</ele>
        <time>2026-05-23T13:32:09Z</time>
      </trkpt>
      <trkpt lat="43.48263" lon="2.38754">
        <ele>562.6</ele>
        <time>2026-05-23T13:32:14Z</time>
      </trkpt>
      <trkpt lat="43.4827" lon="2.38752">
        <ele>561.2</ele>
        <time>2026-05-23T13:32:19Z</time>
      </trkpt>
      <trkpt lat="43.48275" lon="2.38749">
        <ele>560.4</ele>
        <time>2026-05-23T13:32:24Z</time>
      </trkpt>
      <trkpt lat="43.48281" lon="2.38746">
        <ele>559.4</ele>
        <time>2026-05-23T13:32:29Z</time>
      </trkpt>
      <trkpt lat="43.48286" lon="2.38741">
        <ele>558.8</ele>
        <time>2026-05-23T13:32:34Z</time>
      </trkpt>
      <trkpt lat="43.48291" lon="2.38738">
        <ele>558</ele>
        <time>2026-05-23T13:32:39Z</time>
      </trkpt>
      <trkpt lat="43.48291" lon="2.38738">
        <ele>558</ele>
        <time>2026-05-23T13:32:44Z</time>
      </trkpt>
      <trkpt lat="43.48292" lon="2.38738">
        <ele>557.8</ele>
        <time>2026-05-23T13:32:49Z</time>
      </trkpt>
      <trkpt lat="43.48292" lon="2.38738">
        <ele>557.8</ele>
        <time>2026-05-23T13:32:54Z</time>
      </trkpt>
      <trkpt lat="43.48293" lon="2.38736">
        <ele>557.8</ele>
        <time>2026-05-23T13:32:59Z</time>
      </trkpt>
      <trkpt lat="43.48293" lon="2.38736">
        <ele>557.8</ele>
        <time>2026-05-23T13:33:04Z</time>
      </trkpt>
      <trkpt lat="43.48293" lon="2.38736">
        <ele>557.8</ele>
        <time>2026-05-23T13:33:09Z</time>
      </trkpt>
      <trkpt lat="43.48293" lon="2.38736">
        <ele>557.8</ele>
        <time>2026-05-23T13:33:14Z</time>
      </trkpt>
      <trkpt lat="43.48297" lon="2.38733">
        <ele>557.3</ele>
        <time>2026-05-23T13:33:19Z</time>
      </trkpt>
      <trkpt lat="43.48301" lon="2.38726">
        <ele>557.3</ele>
        <time>2026-05-23T13:33:24Z</time>
      </trkpt>
      <trkpt lat="43.48303" lon="2.38721">
        <ele>557.5</ele>
        <time>2026-05-23T13:33:29Z</time>
      </trkpt>
      <trkpt lat="43.48307" lon="2.38716">
        <ele>557.3</ele>
        <time>2026-05-23T13:33:34Z</time>
      </trkpt>
      <trkpt lat="43.4831" lon="2.3871">
        <ele>557.4</ele>
        <time>2026-05-23T13:33:39Z</time>
      </trkpt>
      <trkpt lat="43.48313" lon="2.38703">
        <ele>557.7</ele>
        <time>2026-05-23T13:33:44Z</time>
      </trkpt>
      <trkpt lat="43.48317" lon="2.38696">
        <ele>557.9</ele>
        <time>2026-05-23T13:33:49Z</time>
      </trkpt>
      <trkpt lat="43.48317" lon="2.38688">
        <ele>558.9</ele>
        <time>2026-05-23T13:33:54Z</time>
      </trkpt>
      <trkpt lat="43.48318" lon="2.38678">
        <ele>560.1</ele>
        <time>2026-05-23T13:33:59Z</time>
      </trkpt>
      <trkpt lat="43.48321" lon="2.38669">
        <ele>560.8</ele>
        <time>2026-05-23T13:34:04Z</time>
      </trkpt>
      <trkpt lat="43.48324" lon="2.3866">
        <ele>561.1</ele>
        <time>2026-05-23T13:34:09Z</time>
      </trkpt>
      <trkpt lat="43.48324" lon="2.38651">
        <ele>561.9</ele>
        <time>2026-05-23T13:34:14Z</time>
      </trkpt>
      <trkpt lat="43.48326" lon="2.38642">
        <ele>562.4</ele>
        <time>2026-05-23T13:34:19Z</time>
      </trkpt>
      <trkpt lat="43.48327" lon="2.38632">
        <ele>563.1</ele>
        <time>2026-05-23T13:34:24Z</time>
      </trkpt>
      <trkpt lat="43.4833" lon="2.38621">
        <ele>563.7</ele>
        <time>2026-05-23T13:34:29Z</time>
      </trkpt>
      <trkpt lat="43.48333" lon="2.38612">
        <ele>564.3</ele>
        <time>2026-05-23T13:34:34Z</time>
      </trkpt>
      <trkpt lat="43.48335" lon="2.38603">
        <ele>564.5</ele>
        <time>2026-05-23T13:34:39Z</time>
      </trkpt>
      <trkpt lat="43.48338" lon="2.38595">
        <ele>564.1</ele>
        <time>2026-05-23T13:34:44Z</time>
      </trkpt>
      <trkpt lat="43.48341" lon="2.38587">
        <ele>563.6</ele>
        <time>2026-05-23T13:34:49Z</time>
      </trkpt>
      <trkpt lat="43.48343" lon="2.38579">
        <ele>563.2</ele>
        <time>2026-05-23T13:34:54Z</time>
      </trkpt>
      <trkpt lat="43.48345" lon="2.38571">
        <ele>562.4</ele>
        <time>2026-05-23T13:34:59Z</time>
      </trkpt>
      <trkpt lat="43.48347" lon="2.38563">
        <ele>561.6</ele>
        <time>2026-05-23T13:35:04Z</time>
      </trkpt>
      <trkpt lat="43.48348" lon="2.3856">
        <ele>561.3</ele>
        <time>2026-05-23T13:35:09Z</time>
      </trkpt>
      <trkpt lat="43.48348" lon="2.38555">
        <ele>561.3</ele>
        <time>2026-05-23T13:35:14Z</time>
      </trkpt>
      <trkpt lat="43.4835" lon="2.38552">
        <ele>560.6</ele>
        <time>2026-05-23T13:35:19Z</time>
      </trkpt>
      <trkpt lat="43.48356" lon="2.38546">
        <ele>558.4</ele>
        <time>2026-05-23T13:35:24Z</time>
      </trkpt>
      <trkpt lat="43.48361" lon="2.38545">
        <ele>556.7</ele>
        <time>2026-05-23T13:35:29Z</time>
      </trkpt>
      <trkpt lat="43.48368" lon="2.38546">
        <ele>554.1</ele>
        <time>2026-05-23T13:35:34Z</time>
      </trkpt>
      <trkpt lat="43.48371" lon="2.38544">
        <ele>553.1</ele>
        <time>2026-05-23T13:35:39Z</time>
      </trkpt>
      <trkpt lat="43.48374" lon="2.38542">
        <ele>552.1</ele>
        <time>2026-05-23T13:35:44Z</time>
      </trkpt>
      <trkpt lat="43.48376" lon="2.38539">
        <ele>551.5</ele>
        <time>2026-05-23T13:35:49Z</time>
      </trkpt>
      <trkpt lat="43.48379" lon="2.38536">
        <ele>550.5</ele>
        <time>2026-05-23T13:35:54Z</time>
      </trkpt>
      <trkpt lat="43.48382" lon="2.38533">
        <ele>549.6</ele>
        <time>2026-05-23T13:35:59Z</time>
      </trkpt>
      <trkpt lat="43.48386" lon="2.3853">
        <ele>548.3</ele>
        <time>2026-05-23T13:36:04Z</time>
      </trkpt>
      <trkpt lat="43.4839" lon="2.38527">
        <ele>547.1</ele>
        <time>2026-05-23T13:36:09Z</time>
      </trkpt>
      <trkpt lat="43.48394" lon="2.38524">
        <ele>545.9</ele>
        <time>2026-05-23T13:36:14Z</time>
      </trkpt>
      <trkpt lat="43.48396" lon="2.38519">
        <ele>545.5</ele>
        <time>2026-05-23T13:36:19Z</time>
      </trkpt>
      <trkpt lat="43.48399" lon="2.38515">
        <ele>544.7</ele>
        <time>2026-05-23T13:36:24Z</time>
      </trkpt>
      <trkpt lat="43.48403" lon="2.3851">
        <ele>543.7</ele>
        <time>2026-05-23T13:36:29Z</time>
      </trkpt>
      <trkpt lat="43.48407" lon="2.38505">
        <ele>542.7</ele>
        <time>2026-05-23T13:36:34Z</time>
      </trkpt>
      <trkpt lat="43.48411" lon="2.38499">
        <ele>541.8</ele>
        <time>2026-05-23T13:36:39Z</time>
      </trkpt>
      <trkpt lat="43.48415" lon="2.38493">
        <ele>541.2</ele>
        <time>2026-05-23T13:36:44Z</time>
      </trkpt>
      <trkpt lat="43.48419" lon="2.38488">
        <ele>540.2</ele>
        <time>2026-05-23T13:36:49Z</time>
      </trkpt>
      <trkpt lat="43.48424" lon="2.38481">
        <ele>538.8</ele>
        <time>2026-05-23T13:36:54Z</time>
      </trkpt>
      <trkpt lat="43.48429" lon="2.38475">
        <ele>537.4</ele>
        <time>2026-05-23T13:36:59Z</time>
      </trkpt>
      <trkpt lat="43.48436" lon="2.38469">
        <ele>535.2</ele>
        <time>2026-05-23T13:37:04Z</time>
      </trkpt>
      <trkpt lat="43.48441" lon="2.38465">
        <ele>533.6</ele>
        <time>2026-05-23T13:37:09Z</time>
      </trkpt>
      <trkpt lat="43.48447" lon="2.38462">
        <ele>531.6</ele>
        <time>2026-05-23T13:37:14Z</time>
      </trkpt>
      <trkpt lat="43.48454" lon="2.38458">
        <ele>529.3</ele>
        <time>2026-05-23T13:37:19Z</time>
      </trkpt>
      <trkpt lat="43.48461" lon="2.38455">
        <ele>526.8</ele>
        <time>2026-05-23T13:37:24Z</time>
      </trkpt>
      <trkpt lat="43.48468" lon="2.38451">
        <ele>524.6</ele>
        <time>2026-05-23T13:37:29Z</time>
      </trkpt>
      <trkpt lat="43.48474" lon="2.38447">
        <ele>522.8</ele>
        <time>2026-05-23T13:37:34Z</time>
      </trkpt>
      <trkpt lat="43.48479" lon="2.38444">
        <ele>521.2</ele>
        <time>2026-05-23T13:37:39Z</time>
      </trkpt>
      <trkpt lat="43.48485" lon="2.3844">
        <ele>519.4</ele>
        <time>2026-05-23T13:37:44Z</time>
      </trkpt>
      <trkpt lat="43.48491" lon="2.38436">
        <ele>517.7</ele>
        <time>2026-05-23T13:37:49Z</time>
      </trkpt>
      <trkpt lat="43.48497" lon="2.38433">
        <ele>515.8</ele>
        <time>2026-05-23T13:37:54Z</time>
      </trkpt>
      <trkpt lat="43.48499" lon="2.38433">
        <ele>515</ele>
        <time>2026-05-23T13:37:59Z</time>
      </trkpt>
      <trkpt lat="43.48499" lon="2.38433">
        <ele>515</ele>
        <time>2026-05-23T13:38:04Z</time>
      </trkpt>
      <trkpt lat="43.48499" lon="2.38433">
        <ele>515</ele>
        <time>2026-05-23T13:38:09Z</time>
      </trkpt>
      <trkpt lat="43.48503" lon="2.38429">
        <ele>513.6</ele>
        <time>2026-05-23T13:38:14Z</time>
      </trkpt>
      <trkpt lat="43.48507" lon="2.38425">
        <ele>512.1</ele>
        <time>2026-05-23T13:38:19Z</time>
      </trkpt>
      <trkpt lat="43.48512" lon="2.38421">
        <ele>510</ele>
        <time>2026-05-23T13:38:24Z</time>
      </trkpt>
      <trkpt lat="43.48515" lon="2.38414">
        <ele>509</ele>
        <time>2026-05-23T13:38:29Z</time>
      </trkpt>
      <trkpt lat="43.48517" lon="2.38407">
        <ele>507.9</ele>
        <time>2026-05-23T13:38:34Z</time>
      </trkpt>
      <trkpt lat="43.48521" lon="2.38402">
        <ele>505.7</ele>
        <time>2026-05-23T13:38:39Z</time>
      </trkpt>
      <trkpt lat="43.48527" lon="2.38399">
        <ele>502.5</ele>
        <time>2026-05-23T13:38:44Z</time>
      </trkpt>
      <trkpt lat="43.48534" lon="2.38395">
        <ele>498.7</ele>
        <time>2026-05-23T13:38:49Z</time>
      </trkpt>
      <trkpt lat="43.4854" lon="2.38391">
        <ele>495.4</ele>
        <time>2026-05-23T13:38:54Z</time>
      </trkpt>
      <trkpt lat="43.48546" lon="2.38389">
        <ele>492.2</ele>
        <time>2026-05-23T13:38:59Z</time>
      </trkpt>
      <trkpt lat="43.48552" lon="2.38386">
        <ele>488.9</ele>
        <time>2026-05-23T13:39:04Z</time>
      </trkpt>
      <trkpt lat="43.48556" lon="2.38382">
        <ele>486.7</ele>
        <time>2026-05-23T13:39:09Z</time>
      </trkpt>
      <trkpt lat="43.4856" lon="2.3838">
        <ele>484.6</ele>
        <time>2026-05-23T13:39:14Z</time>
      </trkpt>
      <trkpt lat="43.48565" lon="2.38376">
        <ele>481.8</ele>
        <time>2026-05-23T13:39:19Z</time>
      </trkpt>
      <trkpt lat="43.4857" lon="2.38373">
        <ele>479.1</ele>
        <time>2026-05-23T13:39:24Z</time>
      </trkpt>
      <trkpt lat="43.48575" lon="2.3837">
        <ele>476.3</ele>
        <time>2026-05-23T13:39:29Z</time>
      </trkpt>
      <trkpt lat="43.4858" lon="2.38367">
        <ele>473.6</ele>
        <time>2026-05-23T13:39:34Z</time>
      </trkpt>
      <trkpt lat="43.48584" lon="2.38363">
        <ele>471.5</ele>
        <time>2026-05-23T13:39:39Z</time>
      </trkpt>
      <trkpt lat="43.48588" lon="2.38357">
        <ele>470.1</ele>
        <time>2026-05-23T13:39:44Z</time>
      </trkpt>
      <trkpt lat="43.48594" lon="2.38353">
        <ele>468.2</ele>
        <time>2026-05-23T13:39:49Z</time>
      </trkpt>
      <trkpt lat="43.48599" lon="2.38346">
        <ele>466.7</ele>
        <time>2026-05-23T13:39:54Z</time>
      </trkpt>
      <trkpt lat="43.48604" lon="2.38342">
        <ele>465.2</ele>
        <time>2026-05-23T13:39:59Z</time>
      </trkpt>
      <trkpt lat="43.48609" lon="2.38337">
        <ele>463.9</ele>
        <time>2026-05-23T13:40:04Z</time>
      </trkpt>
      <trkpt lat="43.48613" lon="2.38334">
        <ele>462.8</ele>
        <time>2026-05-23T13:40:09Z</time>
      </trkpt>
      <trkpt lat="43.48616" lon="2.38332">
        <ele>461.7</ele>
        <time>2026-05-23T13:40:14Z</time>
      </trkpt>
      <trkpt lat="43.48619" lon="2.38329">
        <ele>460.3</ele>
        <time>2026-05-23T13:40:19Z</time>
      </trkpt>
      <trkpt lat="43.48622" lon="2.38322">
        <ele>458.2</ele>
        <time>2026-05-23T13:40:24Z</time>
      </trkpt>
      <trkpt lat="43.48625" lon="2.38315">
        <ele>456.1</ele>
        <time>2026-05-23T13:40:29Z</time>
      </trkpt>
      <trkpt lat="43.48627" lon="2.38309">
        <ele>454.4</ele>
        <time>2026-05-23T13:40:34Z</time>
      </trkpt>
      <trkpt lat="43.48629" lon="2.38303">
        <ele>452.8</ele>
        <time>2026-05-23T13:40:39Z</time>
      </trkpt>
      <trkpt lat="43.48632" lon="2.38296">
        <ele>450.7</ele>
        <time>2026-05-23T13:40:44Z</time>
      </trkpt>
      <trkpt lat="43.48635" lon="2.38288">
        <ele>448.5</ele>
        <time>2026-05-23T13:40:49Z</time>
      </trkpt>
      <trkpt lat="43.48635" lon="2.38279">
        <ele>446.9</ele>
        <time>2026-05-23T13:40:54Z</time>
      </trkpt>
      <trkpt lat="43.48634" lon="2.38271">
        <ele>445.7</ele>
        <time>2026-05-23T13:40:59Z</time>
      </trkpt>
      <trkpt lat="43.48635" lon="2.38265">
        <ele>444.3</ele>
        <time>2026-05-23T13:41:04Z</time>
      </trkpt>
      <trkpt lat="43.48637" lon="2.3826">
        <ele>442.9</ele>
        <time>2026-05-23T13:41:09Z</time>
      </trkpt>
      <trkpt lat="43.48638" lon="2.38259">
        <ele>442.5</ele>
        <time>2026-05-23T13:41:14Z</time>
      </trkpt>
      <trkpt lat="43.48638" lon="2.38259">
        <ele>442.5</ele>
        <time>2026-05-23T13:41:19Z</time>
      </trkpt>
      <trkpt lat="43.48638" lon="2.38259">
        <ele>442.5</ele>
        <time>2026-05-23T13:41:24Z</time>
      </trkpt>
      <trkpt lat="43.48638" lon="2.38259">
        <ele>442.5</ele>
        <time>2026-05-23T13:41:29Z</time>
      </trkpt>
      <trkpt lat="43.48643" lon="2.38252">
        <ele>440</ele>
        <time>2026-05-23T13:41:34Z</time>
      </trkpt>
      <trkpt lat="43.48645" lon="2.38245">
        <ele>438.3</ele>
        <time>2026-05-23T13:41:39Z</time>
      </trkpt>
      <trkpt lat="43.48647" lon="2.38241">
        <ele>437</ele>
        <time>2026-05-23T13:41:44Z</time>
      </trkpt>
      <trkpt lat="43.48648" lon="2.38236">
        <ele>435.8</ele>
        <time>2026-05-23T13:41:49Z</time>
      </trkpt>
      <trkpt lat="43.4865" lon="2.38231">
        <ele>434.3</ele>
        <time>2026-05-23T13:41:54Z</time>
      </trkpt>
      <trkpt lat="43.48652" lon="2.38226">
        <ele>432.8</ele>
        <time>2026-05-23T13:41:59Z</time>
      </trkpt>
      <trkpt lat="43.48653" lon="2.38222">
        <ele>431.7</ele>
        <time>2026-05-23T13:42:04Z</time>
      </trkpt>
      <trkpt lat="43.48655" lon="2.38218">
        <ele>430.3</ele>
        <time>2026-05-23T13:42:09Z</time>
      </trkpt>
      <trkpt lat="43.48655" lon="2.38212">
        <ele>429</ele>
        <time>2026-05-23T13:42:14Z</time>
      </trkpt>
      <trkpt lat="43.48655" lon="2.38209">
        <ele>428.4</ele>
        <time>2026-05-23T13:42:19Z</time>
      </trkpt>
      <trkpt lat="43.48654" lon="2.38206">
        <ele>428.1</ele>
        <time>2026-05-23T13:42:24Z</time>
      </trkpt>
      <trkpt lat="43.48651" lon="2.38203">
        <ele>428.5</ele>
        <time>2026-05-23T13:42:29Z</time>
      </trkpt>
      <trkpt lat="43.48647" lon="2.38196">
        <ele>428.5</ele>
        <time>2026-05-23T13:42:34Z</time>
      </trkpt>
      <trkpt lat="43.48643" lon="2.38191">
        <ele>429</ele>
        <time>2026-05-23T13:42:39Z</time>
      </trkpt>
      <trkpt lat="43.48639" lon="2.3819">
        <ele>430.3</ele>
        <time>2026-05-23T13:42:44Z</time>
      </trkpt>
      <trkpt lat="43.48636" lon="2.38185">
        <ele>430.6</ele>
        <time>2026-05-23T13:42:49Z</time>
      </trkpt>
      <trkpt lat="43.48631" lon="2.38181">
        <ele>431.8</ele>
        <time>2026-05-23T13:42:54Z</time>
      </trkpt>
      <trkpt lat="43.48627" lon="2.3818">
        <ele>433.2</ele>
        <time>2026-05-23T13:42:59Z</time>
      </trkpt>
      <trkpt lat="43.48624" lon="2.38178">
        <ele>434</ele>
        <time>2026-05-23T13:43:04Z</time>
      </trkpt>
      <trkpt lat="43.4862" lon="2.38176">
        <ele>435.3</ele>
        <time>2026-05-23T13:43:09Z</time>
      </trkpt>
      <trkpt lat="43.48615" lon="2.38174">
        <ele>437</ele>
        <time>2026-05-23T13:43:14Z</time>
      </trkpt>
      <trkpt lat="43.4861" lon="2.38173">
        <ele>438.8</ele>
        <time>2026-05-23T13:43:19Z</time>
      </trkpt>
      <trkpt lat="43.48605" lon="2.38173">
        <ele>440.8</ele>
        <time>2026-05-23T13:43:24Z</time>
      </trkpt>
      <trkpt lat="43.486" lon="2.38172">
        <ele>442.7</ele>
        <time>2026-05-23T13:43:29Z</time>
      </trkpt>
      <trkpt lat="43.48594" lon="2.38173">
        <ele>445.2</ele>
        <time>2026-05-23T13:43:34Z</time>
      </trkpt>
      <trkpt lat="43.48588" lon="2.38174">
        <ele>447.6</ele>
        <time>2026-05-23T13:43:39Z</time>
      </trkpt>
      <trkpt lat="43.48582" lon="2.38175">
        <ele>450.1</ele>
        <time>2026-05-23T13:43:44Z</time>
      </trkpt>
      <trkpt lat="43.48581" lon="2.38177">
        <ele>450.6</ele>
        <time>2026-05-23T13:43:49Z</time>
      </trkpt>
      <trkpt lat="43.48581" lon="2.38178">
        <ele>450.7</ele>
        <time>2026-05-23T13:43:54Z</time>
      </trkpt>
      <trkpt lat="43.48576" lon="2.38179">
        <ele>452.9</ele>
        <time>2026-05-23T13:43:59Z</time>
      </trkpt>
      <trkpt lat="43.48571" lon="2.38175">
        <ele>454.7</ele>
        <time>2026-05-23T13:44:04Z</time>
      </trkpt>
      <trkpt lat="43.48567" lon="2.38175">
        <ele>456.4</ele>
        <time>2026-05-23T13:44:09Z</time>
      </trkpt>
      <trkpt lat="43.48564" lon="2.38172">
        <ele>457.4</ele>
        <time>2026-05-23T13:44:14Z</time>
      </trkpt>
      <trkpt lat="43.4856" lon="2.38168">
        <ele>458.7</ele>
        <time>2026-05-23T13:44:19Z</time>
      </trkpt>
      <trkpt lat="43.48557" lon="2.38161">
        <ele>459.2</ele>
        <time>2026-05-23T13:44:24Z</time>
      </trkpt>
      <trkpt lat="43.48556" lon="2.38154">
        <ele>459</ele>
        <time>2026-05-23T13:44:29Z</time>
      </trkpt>
      <trkpt lat="43.48553" lon="2.38148">
        <ele>459.5</ele>
        <time>2026-05-23T13:44:34Z</time>
      </trkpt>
      <trkpt lat="43.48551" lon="2.3814">
        <ele>459.3</ele>
        <time>2026-05-23T13:44:39Z</time>
      </trkpt>
      <trkpt lat="43.48552" lon="2.38132">
        <ele>458.1</ele>
        <time>2026-05-23T13:44:44Z</time>
      </trkpt>
      <trkpt lat="43.48553" lon="2.38122">
        <ele>456.8</ele>
        <time>2026-05-23T13:44:49Z</time>
      </trkpt>
      <trkpt lat="43.48555" lon="2.38114">
        <ele>455.4</ele>
        <time>2026-05-23T13:44:54Z</time>
      </trkpt>
      <trkpt lat="43.48557" lon="2.38106">
        <ele>454.1</ele>
        <time>2026-05-23T13:44:59Z</time>
      </trkpt>
      <trkpt lat="43.48559" lon="2.38098">
        <ele>452.9</ele>
        <time>2026-05-23T13:45:04Z</time>
      </trkpt>
      <trkpt lat="43.4856" lon="2.3809">
        <ele>452</ele>
        <time>2026-05-23T13:45:09Z</time>
      </trkpt>
      <trkpt lat="43.4856" lon="2.38084">
        <ele>451.5</ele>
        <time>2026-05-23T13:45:14Z</time>
      </trkpt>
      <trkpt lat="43.48559" lon="2.38077">
        <ele>450.5</ele>
        <time>2026-05-23T13:45:19Z</time>
      </trkpt>
      <trkpt lat="43.4856" lon="2.38072">
        <ele>449.5</ele>
        <time>2026-05-23T13:45:24Z</time>
      </trkpt>
      <trkpt lat="43.4856" lon="2.38068">
        <ele>448.8</ele>
        <time>2026-05-23T13:45:29Z</time>
      </trkpt>
      <trkpt lat="43.48559" lon="2.3806">
        <ele>447.5</ele>
        <time>2026-05-23T13:45:34Z</time>
      </trkpt>
      <trkpt lat="43.4856" lon="2.38051">
        <ele>445.8</ele>
        <time>2026-05-23T13:45:39Z</time>
      </trkpt>
      <trkpt lat="43.4856" lon="2.38044">
        <ele>444.5</ele>
        <time>2026-05-23T13:45:44Z</time>
      </trkpt>
      <trkpt lat="43.48561" lon="2.38037">
        <ele>443.3</ele>
        <time>2026-05-23T13:45:49Z</time>
      </trkpt>
      <trkpt lat="43.48562" lon="2.3803">
        <ele>442</ele>
        <time>2026-05-23T13:45:54Z</time>
      </trkpt>
      <trkpt lat="43.48563" lon="2.38022">
        <ele>440.7</ele>
        <time>2026-05-23T13:45:59Z</time>
      </trkpt>
      <trkpt lat="43.48563" lon="2.38014">
        <ele>439.4</ele>
        <time>2026-05-23T13:46:04Z</time>
      </trkpt>
      <trkpt lat="43.48561" lon="2.38007">
        <ele>438.1</ele>
        <time>2026-05-23T13:46:09Z</time>
      </trkpt>
      <trkpt lat="43.48562" lon="2.38001">
        <ele>437.1</ele>
        <time>2026-05-23T13:46:14Z</time>
      </trkpt>
      <trkpt lat="43.48563" lon="2.37995">
        <ele>435.7</ele>
        <time>2026-05-23T13:46:19Z</time>
      </trkpt>
      <trkpt lat="43.48563" lon="2.37989">
        <ele>434</ele>
        <time>2026-05-23T13:46:24Z</time>
      </trkpt>
      <trkpt lat="43.48564" lon="2.37985">
        <ele>433</ele>
        <time>2026-05-23T13:46:29Z</time>
      </trkpt>
      <trkpt lat="43.48563" lon="2.37984">
        <ele>432.6</ele>
        <time>2026-05-23T13:46:34Z</time>
      </trkpt>
      <trkpt lat="43.4856" lon="2.3798">
        <ele>431.1</ele>
        <time>2026-05-23T13:46:39Z</time>
      </trkpt>
      <trkpt lat="43.48559" lon="2.37975">
        <ele>429.5</ele>
        <time>2026-05-23T13:46:44Z</time>
      </trkpt>
      <trkpt lat="43.48557" lon="2.37969">
        <ele>427.5</ele>
        <time>2026-05-23T13:46:49Z</time>
      </trkpt>
      <trkpt lat="43.48555" lon="2.37963">
        <ele>425.4</ele>
        <time>2026-05-23T13:46:54Z</time>
      </trkpt>
      <trkpt lat="43.48552" lon="2.37959">
        <ele>423.7</ele>
        <time>2026-05-23T13:46:59Z</time>
      </trkpt>
      <trkpt lat="43.48549" lon="2.37954">
        <ele>421.7</ele>
        <time>2026-05-23T13:47:04Z</time>
      </trkpt>
      <trkpt lat="43.48547" lon="2.37949">
        <ele>419.8</ele>
        <time>2026-05-23T13:47:09Z</time>
      </trkpt>
      <trkpt lat="43.48545" lon="2.37944">
        <ele>417.9</ele>
        <time>2026-05-23T13:47:14Z</time>
      </trkpt>
      <trkpt lat="43.48542" lon="2.37941">
        <ele>416.3</ele>
        <time>2026-05-23T13:47:19Z</time>
      </trkpt>
      <trkpt lat="43.48539" lon="2.37939">
        <ele>415</ele>
        <time>2026-05-23T13:47:24Z</time>
      </trkpt>
      <trkpt lat="43.48536" lon="2.37938">
        <ele>414.1</ele>
        <time>2026-05-23T13:47:29Z</time>
      </trkpt>
      <trkpt lat="43.48534" lon="2.37938">
        <ele>413.7</ele>
        <time>2026-05-23T13:47:34Z</time>
      </trkpt>
      <trkpt lat="43.48531" lon="2.37939">
        <ele>413.4</ele>
        <time>2026-05-23T13:47:39Z</time>
      </trkpt>
      <trkpt lat="43.48531" lon="2.37939">
        <ele>413.4</ele>
        <time>2026-05-23T13:47:44Z</time>
      </trkpt>
      <trkpt lat="43.48531" lon="2.37939">
        <ele>413.4</ele>
        <time>2026-05-23T13:47:49Z</time>
      </trkpt>
      <trkpt lat="43.48528" lon="2.3794">
        <ele>413.1</ele>
        <time>2026-05-23T13:47:54Z</time>
      </trkpt>
      <trkpt lat="43.48528" lon="2.3794">
        <ele>413.1</ele>
        <time>2026-05-23T13:47:59Z</time>
      </trkpt>
      <trkpt lat="43.48521" lon="2.37939">
        <ele>411.3</ele>
        <time>2026-05-23T13:48:04Z</time>
      </trkpt>
      <trkpt lat="43.48517" lon="2.3794">
        <ele>410.8</ele>
        <time>2026-05-23T13:48:09Z</time>
      </trkpt>
      <trkpt lat="43.48514" lon="2.37941">
        <ele>410.5</ele>
        <time>2026-05-23T13:48:14Z</time>
      </trkpt>
      <trkpt lat="43.48512" lon="2.37942">
        <ele>410.5</ele>
        <time>2026-05-23T13:48:19Z</time>
      </trkpt>
      <trkpt lat="43.4851" lon="2.37943">
        <ele>410.5</ele>
        <time>2026-05-23T13:48:24Z</time>
      </trkpt>
      <trkpt lat="43.48505" lon="2.37944">
        <ele>409.8</ele>
        <time>2026-05-23T13:48:29Z</time>
      </trkpt>
      <trkpt lat="43.48502" lon="2.37945">
        <ele>409.6</ele>
        <time>2026-05-23T13:48:34Z</time>
      </trkpt>
      <trkpt lat="43.48497" lon="2.37946">
        <ele>408.9</ele>
        <time>2026-05-23T13:48:39Z</time>
      </trkpt>
      <trkpt lat="43.48491" lon="2.37946">
        <ele>407.4</ele>
        <time>2026-05-23T13:48:44Z</time>
      </trkpt>
      <trkpt lat="43.48485" lon="2.37947">
        <ele>406.4</ele>
        <time>2026-05-23T13:48:49Z</time>
      </trkpt>
      <trkpt lat="43.48479" lon="2.37949">
        <ele>405.7</ele>
        <time>2026-05-23T13:48:54Z</time>
      </trkpt>
      <trkpt lat="43.48473" lon="2.3795">
        <ele>404.7</ele>
        <time>2026-05-23T13:48:59Z</time>
      </trkpt>
      <trkpt lat="43.48466" lon="2.37953">
        <ele>404.2</ele>
        <time>2026-05-23T13:49:04Z</time>
      </trkpt>
      <trkpt lat="43.48461" lon="2.37957">
        <ele>404.6</ele>
        <time>2026-05-23T13:49:09Z</time>
      </trkpt>
      <trkpt lat="43.48455" lon="2.3796">
        <ele>404.4</ele>
        <time>2026-05-23T13:49:14Z</time>
      </trkpt>
      <trkpt lat="43.48449" lon="2.37966">
        <ele>405.4</ele>
        <time>2026-05-23T13:49:19Z</time>
      </trkpt>
      <trkpt lat="43.48443" lon="2.3797">
        <ele>405.6</ele>
        <time>2026-05-23T13:49:24Z</time>
      </trkpt>
      <trkpt lat="43.48438" lon="2.37973">
        <ele>405.7</ele>
        <time>2026-05-23T13:49:29Z</time>
      </trkpt>
      <trkpt lat="43.48431" lon="2.37981">
        <ele>407.4</ele>
        <time>2026-05-23T13:49:34Z</time>
      </trkpt>
      <trkpt lat="43.48425" lon="2.37987">
        <ele>408.5</ele>
        <time>2026-05-23T13:49:39Z</time>
      </trkpt>
      <trkpt lat="43.48419" lon="2.37992">
        <ele>409.2</ele>
        <time>2026-05-23T13:49:44Z</time>
      </trkpt>
      <trkpt lat="43.48413" lon="2.37996">
        <ele>409.8</ele>
        <time>2026-05-23T13:49:49Z</time>
      </trkpt>
      <trkpt lat="43.48408" lon="2.37999">
        <ele>410.2</ele>
        <time>2026-05-23T13:49:54Z</time>
      </trkpt>
      <trkpt lat="43.48401" lon="2.38004">
        <ele>411.3</ele>
        <time>2026-05-23T13:49:59Z</time>
      </trkpt>
      <trkpt lat="43.48394" lon="2.38006">
        <ele>411</ele>
        <time>2026-05-23T13:50:04Z</time>
      </trkpt>
      <trkpt lat="43.48387" lon="2.3801">
        <ele>411.6</ele>
        <time>2026-05-23T13:50:09Z</time>
      </trkpt>
      <trkpt lat="43.48382" lon="2.38015">
        <ele>412.9</ele>
        <time>2026-05-23T13:50:14Z</time>
      </trkpt>
      <trkpt lat="43.48375" lon="2.3802">
        <ele>413.8</ele>
        <time>2026-05-23T13:50:19Z</time>
      </trkpt>
      <trkpt lat="43.48369" lon="2.38023">
        <ele>414</ele>
        <time>2026-05-23T13:50:24Z</time>
      </trkpt>
      <trkpt lat="43.48363" lon="2.38024">
        <ele>413.4</ele>
        <time>2026-05-23T13:50:29Z</time>
      </trkpt>
      <trkpt lat="43.48357" lon="2.38026">
        <ele>413.1</ele>
        <time>2026-05-23T13:50:34Z</time>
      </trkpt>
      <trkpt lat="43.48351" lon="2.38028">
        <ele>412.9</ele>
        <time>2026-05-23T13:50:39Z</time>
      </trkpt>
      <trkpt lat="43.48342" lon="2.38029">
        <ele>411.7</ele>
        <time>2026-05-23T13:50:44Z</time>
      </trkpt>
      <trkpt lat="43.48335" lon="2.38027">
        <ele>409.7</ele>
        <time>2026-05-23T13:50:49Z</time>
      </trkpt>
      <trkpt lat="43.48329" lon="2.38026">
        <ele>408.9</ele>
        <time>2026-05-23T13:50:54Z</time>
      </trkpt>
      <trkpt lat="43.48323" lon="2.38028">
        <ele>409.6</ele>
        <time>2026-05-23T13:50:59Z</time>
      </trkpt>
      <trkpt lat="43.48317" lon="2.38029">
        <ele>409.9</ele>
        <time>2026-05-23T13:51:04Z</time>
      </trkpt>
      <trkpt lat="43.48311" lon="2.38029">
        <ele>409.8</ele>
        <time>2026-05-23T13:51:09Z</time>
      </trkpt>
      <trkpt lat="43.48307" lon="2.38027">
        <ele>409</ele>
        <time>2026-05-23T13:51:14Z</time>
      </trkpt>
      <trkpt lat="43.48302" lon="2.38027">
        <ele>408.9</ele>
        <time>2026-05-23T13:51:19Z</time>
      </trkpt>
      <trkpt lat="43.48297" lon="2.38028">
        <ele>409.2</ele>
        <time>2026-05-23T13:51:24Z</time>
      </trkpt>
      <trkpt lat="43.48291" lon="2.38027">
        <ele>408.7</ele>
        <time>2026-05-23T13:51:29Z</time>
      </trkpt>
      <trkpt lat="43.48286" lon="2.38028">
        <ele>409</ele>
        <time>2026-05-23T13:51:34Z</time>
      </trkpt>
      <trkpt lat="43.48281" lon="2.38032">
        <ele>410.2</ele>
        <time>2026-05-23T13:51:39Z</time>
      </trkpt>
      <trkpt lat="43.48278" lon="2.38034">
        <ele>410.8</ele>
        <time>2026-05-23T13:51:44Z</time>
      </trkpt>
      <trkpt lat="43.48272" lon="2.38035">
        <ele>411</ele>
        <time>2026-05-23T13:51:49Z</time>
      </trkpt>
      <trkpt lat="43.48266" lon="2.38037">
        <ele>411.5</ele>
        <time>2026-05-23T13:51:54Z</time>
      </trkpt>
      <trkpt lat="43.48262" lon="2.38042">
        <ele>413</ele>
        <time>2026-05-23T13:51:59Z</time>
      </trkpt>
      <trkpt lat="43.48257" lon="2.38045">
        <ele>413.7</ele>
        <time>2026-05-23T13:52:04Z</time>
      </trkpt>
      <trkpt lat="43.4825" lon="2.38051">
        <ele>415.3</ele>
        <time>2026-05-23T13:52:09Z</time>
      </trkpt>
      <trkpt lat="43.48243" lon="2.38056">
        <ele>417.4</ele>
        <time>2026-05-23T13:52:14Z</time>
      </trkpt>
      <trkpt lat="43.48238" lon="2.38059">
        <ele>418.7</ele>
        <time>2026-05-23T13:52:19Z</time>
      </trkpt>
      <trkpt lat="43.48233" lon="2.38062">
        <ele>420</ele>
        <time>2026-05-23T13:52:24Z</time>
      </trkpt>
      <trkpt lat="43.48227" lon="2.38066">
        <ele>421.6</ele>
        <time>2026-05-23T13:52:29Z</time>
      </trkpt>
      <trkpt lat="43.48223" lon="2.38071">
        <ele>423.4</ele>
        <time>2026-05-23T13:52:34Z</time>
      </trkpt>
      <trkpt lat="43.48219" lon="2.38073">
        <ele>424.3</ele>
        <time>2026-05-23T13:52:39Z</time>
      </trkpt>
      <trkpt lat="43.48214" lon="2.38077">
        <ele>425.8</ele>
        <time>2026-05-23T13:52:44Z</time>
      </trkpt>
      <trkpt lat="43.48209" lon="2.38079">
        <ele>426.7</ele>
        <time>2026-05-23T13:52:49Z</time>
      </trkpt>
      <trkpt lat="43.48202" lon="2.38081">
        <ele>427.8</ele>
        <time>2026-05-23T13:52:54Z</time>
      </trkpt>
      <trkpt lat="43.48195" lon="2.38082">
        <ele>428.6</ele>
        <time>2026-05-23T13:52:59Z</time>
      </trkpt>
      <trkpt lat="43.48188" lon="2.38082">
        <ele>429.1</ele>
        <time>2026-05-23T13:53:04Z</time>
      </trkpt>
      <trkpt lat="43.48181" lon="2.38077">
        <ele>428.3</ele>
        <time>2026-05-23T13:53:09Z</time>
      </trkpt>
      <trkpt lat="43.48175" lon="2.38065">
        <ele>425.5</ele>
        <time>2026-05-23T13:53:14Z</time>
      </trkpt>
      <trkpt lat="43.48171" lon="2.38056">
        <ele>423.4</ele>
        <time>2026-05-23T13:53:19Z</time>
      </trkpt>
      <trkpt lat="43.48168" lon="2.3805">
        <ele>422.1</ele>
        <time>2026-05-23T13:53:24Z</time>
      </trkpt>
      <trkpt lat="43.48166" lon="2.38042">
        <ele>420.1</ele>
        <time>2026-05-23T13:53:29Z</time>
      </trkpt>
      <trkpt lat="43.48165" lon="2.38036">
        <ele>418.6</ele>
        <time>2026-05-23T13:53:34Z</time>
      </trkpt>
      <trkpt lat="43.48161" lon="2.38029">
        <ele>416.9</ele>
        <time>2026-05-23T13:53:39Z</time>
      </trkpt>
      <trkpt lat="43.48159" lon="2.38022">
        <ele>415.1</ele>
        <time>2026-05-23T13:53:44Z</time>
      </trkpt>
      <trkpt lat="43.48155" lon="2.38019">
        <ele>414.5</ele>
        <time>2026-05-23T13:53:49Z</time>
      </trkpt>
      <trkpt lat="43.48151" lon="2.38015">
        <ele>413.6</ele>
        <time>2026-05-23T13:53:54Z</time>
      </trkpt>
      <trkpt lat="43.48144" lon="2.38011">
        <ele>412.8</ele>
        <time>2026-05-23T13:53:59Z</time>
      </trkpt>
      <trkpt lat="43.48138" lon="2.38005">
        <ele>411.4</ele>
        <time>2026-05-23T13:54:04Z</time>
      </trkpt>
      <trkpt lat="43.48135" lon="2.38">
        <ele>410.1</ele>
        <time>2026-05-23T13:54:09Z</time>
      </trkpt>
      <trkpt lat="43.48129" lon="2.37997">
        <ele>409.5</ele>
        <time>2026-05-23T13:54:14Z</time>
      </trkpt>
      <trkpt lat="43.48124" lon="2.37992">
        <ele>408.3</ele>
        <time>2026-05-23T13:54:19Z</time>
      </trkpt>
      <trkpt lat="43.48118" lon="2.37986">
        <ele>406.8</ele>
        <time>2026-05-23T13:54:24Z</time>
      </trkpt>
      <trkpt lat="43.48111" lon="2.37984">
        <ele>406.5</ele>
        <time>2026-05-23T13:54:29Z</time>
      </trkpt>
      <trkpt lat="43.48104" lon="2.37984">
        <ele>406.7</ele>
        <time>2026-05-23T13:54:34Z</time>
      </trkpt>
      <trkpt lat="43.48098" lon="2.3798">
        <ele>405.8</ele>
        <time>2026-05-23T13:54:39Z</time>
      </trkpt>
      <trkpt lat="43.48093" lon="2.37972">
        <ele>403.6</ele>
        <time>2026-05-23T13:54:44Z</time>
      </trkpt>
      <trkpt lat="43.48086" lon="2.37967">
        <ele>402.4</ele>
        <time>2026-05-23T13:54:49Z</time>
      </trkpt>
      <trkpt lat="43.48081" lon="2.37965">
        <ele>401.7</ele>
        <time>2026-05-23T13:54:54Z</time>
      </trkpt>
      <trkpt lat="43.48075" lon="2.37966">
        <ele>401.4</ele>
        <time>2026-05-23T13:54:59Z</time>
      </trkpt>
      <trkpt lat="43.4807" lon="2.37966">
        <ele>401</ele>
        <time>2026-05-23T13:55:04Z</time>
      </trkpt>
      <trkpt lat="43.48063" lon="2.37969">
        <ele>401.1</ele>
        <time>2026-05-23T13:55:09Z</time>
      </trkpt>
      <trkpt lat="43.48059" lon="2.3797">
        <ele>401</ele>
        <time>2026-05-23T13:55:14Z</time>
      </trkpt>
      <trkpt lat="43.48053" lon="2.37973">
        <ele>401.3</ele>
        <time>2026-05-23T13:55:19Z</time>
      </trkpt>
      <trkpt lat="43.48047" lon="2.37975">
        <ele>401.3</ele>
        <time>2026-05-23T13:55:24Z</time>
      </trkpt>
      <trkpt lat="43.4804" lon="2.37976">
        <ele>400.9</ele>
        <time>2026-05-23T13:55:29Z</time>
      </trkpt>
      <trkpt lat="43.48034" lon="2.37975">
        <ele>400</ele>
        <time>2026-05-23T13:55:34Z</time>
      </trkpt>
      <trkpt lat="43.48029" lon="2.37969">
        <ele>397.9</ele>
        <time>2026-05-23T13:55:39Z</time>
      </trkpt>
      <trkpt lat="43.48025" lon="2.37965">
        <ele>396.5</ele>
        <time>2026-05-23T13:55:44Z</time>
      </trkpt>
      <trkpt lat="43.4802" lon="2.3796">
        <ele>394.7</ele>
        <time>2026-05-23T13:55:49Z</time>
      </trkpt>
      <trkpt lat="43.48016" lon="2.37952">
        <ele>392.3</ele>
        <time>2026-05-23T13:55:54Z</time>
      </trkpt>
      <trkpt lat="43.48011" lon="2.37943">
        <ele>389.6</ele>
        <time>2026-05-23T13:55:59Z</time>
      </trkpt>
      <trkpt lat="43.48005" lon="2.37938">
        <ele>387.8</ele>
        <time>2026-05-23T13:56:04Z</time>
      </trkpt>
      <trkpt lat="43.47998" lon="2.37931">
        <ele>384.8</ele>
        <time>2026-05-23T13:56:09Z</time>
      </trkpt>
      <trkpt lat="43.4799" lon="2.37929">
        <ele>380.8</ele>
        <time>2026-05-23T13:56:14Z</time>
      </trkpt>
      <trkpt lat="43.47984" lon="2.37923">
        <ele>376.9</ele>
        <time>2026-05-23T13:56:19Z</time>
      </trkpt>
      <trkpt lat="43.47978" lon="2.37917">
        <ele>373.1</ele>
        <time>2026-05-23T13:56:24Z</time>
      </trkpt>
      <trkpt lat="43.47973" lon="2.37912">
        <ele>370.7</ele>
        <time>2026-05-23T13:56:29Z</time>
      </trkpt>
      <trkpt lat="43.47969" lon="2.37906">
        <ele>368.8</ele>
        <time>2026-05-23T13:56:34Z</time>
      </trkpt>
      <trkpt lat="43.47965" lon="2.37901">
        <ele>367</ele>
        <time>2026-05-23T13:56:39Z</time>
      </trkpt>
      <trkpt lat="43.47961" lon="2.37896">
        <ele>365.2</ele>
        <time>2026-05-23T13:56:44Z</time>
      </trkpt>
      <trkpt lat="43.47958" lon="2.37889">
        <ele>363.9</ele>
        <time>2026-05-23T13:56:49Z</time>
      </trkpt>
      <trkpt lat="43.47955" lon="2.37883">
        <ele>362.6</ele>
        <time>2026-05-23T13:56:54Z</time>
      </trkpt>
      <trkpt lat="43.47951" lon="2.37877">
        <ele>361.1</ele>
        <time>2026-05-23T13:56:59Z</time>
      </trkpt>
      <trkpt lat="43.47946" lon="2.3787">
        <ele>359.3</ele>
        <time>2026-05-23T13:57:04Z</time>
      </trkpt>
      <trkpt lat="43.47941" lon="2.37866">
        <ele>357.6</ele>
        <time>2026-05-23T13:57:09Z</time>
      </trkpt>
      <trkpt lat="43.47939" lon="2.3786">
        <ele>357</ele>
        <time>2026-05-23T13:57:14Z</time>
      </trkpt>
      <trkpt lat="43.47936" lon="2.37856">
        <ele>356</ele>
        <time>2026-05-23T13:57:19Z</time>
      </trkpt>
      <trkpt lat="43.47936" lon="2.37849">
        <ele>356.1</ele>
        <time>2026-05-23T13:57:24Z</time>
      </trkpt>
      <trkpt lat="43.47936" lon="2.37843">
        <ele>356.1</ele>
        <time>2026-05-23T13:57:29Z</time>
      </trkpt>
      <trkpt lat="43.47933" lon="2.37835">
        <ele>355.3</ele>
        <time>2026-05-23T13:57:34Z</time>
      </trkpt>
      <trkpt lat="43.4793" lon="2.37825">
        <ele>356.6</ele>
        <time>2026-05-23T13:57:39Z</time>
      </trkpt>
      <trkpt lat="43.47926" lon="2.37817">
        <ele>357.7</ele>
        <time>2026-05-23T13:57:44Z</time>
      </trkpt>
      <trkpt lat="43.47924" lon="2.37808">
        <ele>359.7</ele>
        <time>2026-05-23T13:57:49Z</time>
      </trkpt>
      <trkpt lat="43.47921" lon="2.37802">
        <ele>360.8</ele>
        <time>2026-05-23T13:57:54Z</time>
      </trkpt>
      <trkpt lat="43.47916" lon="2.37799">
        <ele>360.9</ele>
        <time>2026-05-23T13:57:59Z</time>
      </trkpt>
      <trkpt lat="43.47915" lon="2.37799">
        <ele>360.9</ele>
        <time>2026-05-23T13:58:04Z</time>
      </trkpt>
      <trkpt lat="43.47914" lon="2.37798">
        <ele>361.2</ele>
        <time>2026-05-23T13:58:09Z</time>
      </trkpt>
      <trkpt lat="43.47914" lon="2.37798">
        <ele>361.2</ele>
        <time>2026-05-23T13:58:14Z</time>
      </trkpt>
      <trkpt lat="43.47914" lon="2.37798">
        <ele>361.2</ele>
        <time>2026-05-23T13:58:19Z</time>
      </trkpt>
      <trkpt lat="43.47914" lon="2.37798">
        <ele>361.2</ele>
        <time>2026-05-23T13:58:24Z</time>
      </trkpt>
      <trkpt lat="43.47914" lon="2.37798">
        <ele>361.2</ele>
        <time>2026-05-23T13:58:29Z</time>
      </trkpt>
      <trkpt lat="43.47914" lon="2.37798">
        <ele>361.2</ele>
        <time>2026-05-23T13:58:34Z</time>
      </trkpt>
      <trkpt lat="43.47914" lon="2.37798">
        <ele>361.2</ele>
        <time>2026-05-23T13:58:39Z</time>
      </trkpt>
      <trkpt lat="43.47907" lon="2.37801">
        <ele>360.6</ele>
        <time>2026-05-23T13:58:44Z</time>
      </trkpt>
      <trkpt lat="43.47903" lon="2.37803">
        <ele>360.2</ele>
        <time>2026-05-23T13:58:49Z</time>
      </trkpt>
      <trkpt lat="43.47899" lon="2.37804">
        <ele>360.2</ele>
        <time>2026-05-23T13:58:54Z</time>
      </trkpt>
      <trkpt lat="43.47895" lon="2.37805">
        <ele>360.1</ele>
        <time>2026-05-23T13:58:59Z</time>
      </trkpt>
      <trkpt lat="43.4789" lon="2.37809">
        <ele>359.7</ele>
        <time>2026-05-23T13:59:04Z</time>
      </trkpt>
      <trkpt lat="43.47887" lon="2.37815">
        <ele>358.9</ele>
        <time>2026-05-23T13:59:09Z</time>
      </trkpt>
      <trkpt lat="43.47888" lon="2.37822">
        <ele>357.7</ele>
        <time>2026-05-23T13:59:14Z</time>
      </trkpt>
      <trkpt lat="43.47887" lon="2.3783">
        <ele>356.5</ele>
        <time>2026-05-23T13:59:19Z</time>
      </trkpt>
      <trkpt lat="43.47885" lon="2.37838">
        <ele>356.3</ele>
        <time>2026-05-23T13:59:24Z</time>
      </trkpt>
      <trkpt lat="43.47883" lon="2.37846">
        <ele>356.6</ele>
        <time>2026-05-23T13:59:29Z</time>
      </trkpt>
      <trkpt lat="43.4788" lon="2.37855">
        <ele>357.2</ele>
        <time>2026-05-23T13:59:34Z</time>
      </trkpt>
      <trkpt lat="43.47879" lon="2.37859">
        <ele>357.4</ele>
        <time>2026-05-23T13:59:39Z</time>
      </trkpt>
      <trkpt lat="43.47878" lon="2.3786">
        <ele>357.6</ele>
        <time>2026-05-23T13:59:44Z</time>
      </trkpt>
      <trkpt lat="43.47877" lon="2.37861">
        <ele>357.8</ele>
        <time>2026-05-23T13:59:49Z</time>
      </trkpt>
      <trkpt lat="43.47877" lon="2.37861">
        <ele>357.8</ele>
        <time>2026-05-23T13:59:54Z</time>
      </trkpt>
      <trkpt lat="43.47874" lon="2.3787">
        <ele>358.4</ele>
        <time>2026-05-23T13:59:59Z</time>
      </trkpt>
      <trkpt lat="43.47873" lon="2.3788">
        <ele>358.7</ele>
        <time>2026-05-23T14:00:04Z</time>
      </trkpt>
      <trkpt lat="43.47873" lon="2.37887">
        <ele>358.8</ele>
        <time>2026-05-23T14:00:09Z</time>
      </trkpt>
      <trkpt lat="43.47869" lon="2.37893">
        <ele>359.7</ele>
        <time>2026-05-23T14:00:14Z</time>
      </trkpt>
      <trkpt lat="43.47865" lon="2.37898">
        <ele>360.7</ele>
        <time>2026-05-23T14:00:19Z</time>
      </trkpt>
      <trkpt lat="43.47863" lon="2.37902">
        <ele>361.3</ele>
        <time>2026-05-23T14:00:24Z</time>
      </trkpt>
      <trkpt lat="43.47863" lon="2.37902">
        <ele>361.3</ele>
        <time>2026-05-23T14:00:29Z</time>
      </trkpt>
      <trkpt lat="43.47863" lon="2.37902">
        <ele>361.3</ele>
        <time>2026-05-23T14:00:34Z</time>
      </trkpt>
      <trkpt lat="43.47863" lon="2.37902">
        <ele>361.3</ele>
        <time>2026-05-23T14:00:39Z</time>
      </trkpt>
      <trkpt lat="43.47863" lon="2.37909">
        <ele>361.4</ele>
        <time>2026-05-23T14:00:44Z</time>
      </trkpt>
      <trkpt lat="43.4786" lon="2.37919">
        <ele>362.2</ele>
        <time>2026-05-23T14:00:49Z</time>
      </trkpt>
      <trkpt lat="43.47858" lon="2.37927">
        <ele>362.4</ele>
        <time>2026-05-23T14:00:54Z</time>
      </trkpt>
      <trkpt lat="43.47855" lon="2.37936">
        <ele>362.6</ele>
        <time>2026-05-23T14:00:59Z</time>
      </trkpt>
      <trkpt lat="43.47854" lon="2.37944">
        <ele>362.4</ele>
        <time>2026-05-23T14:01:04Z</time>
      </trkpt>
      <trkpt lat="43.47852" lon="2.37951">
        <ele>362.3</ele>
        <time>2026-05-23T14:01:09Z</time>
      </trkpt>
      <trkpt lat="43.47851" lon="2.37957">
        <ele>362.1</ele>
        <time>2026-05-23T14:01:14Z</time>
      </trkpt>
      <trkpt lat="43.4785" lon="2.37962">
        <ele>362</ele>
        <time>2026-05-23T14:01:19Z</time>
      </trkpt>
      <trkpt lat="43.47847" lon="2.37965">
        <ele>362.1</ele>
        <time>2026-05-23T14:01:24Z</time>
      </trkpt>
      <trkpt lat="43.47844" lon="2.37972">
        <ele>362</ele>
        <time>2026-05-23T14:01:29Z</time>
      </trkpt>
      <trkpt lat="43.47842" lon="2.37978">
        <ele>361.6</ele>
        <time>2026-05-23T14:01:34Z</time>
      </trkpt>
      <trkpt lat="43.4784" lon="2.37986">
        <ele>361.1</ele>
        <time>2026-05-23T14:01:39Z</time>
      </trkpt>
      <trkpt lat="43.47837" lon="2.37995">
        <ele>360.4</ele>
        <time>2026-05-23T14:01:44Z</time>
      </trkpt>
      <trkpt lat="43.47836" lon="2.38003">
        <ele>359.5</ele>
        <time>2026-05-23T14:01:49Z</time>
      </trkpt>
      <trkpt lat="43.47835" lon="2.38011">
        <ele>358.4</ele>
        <time>2026-05-23T14:01:54Z</time>
      </trkpt>
      <trkpt lat="43.47833" lon="2.38019">
        <ele>357.4</ele>
        <time>2026-05-23T14:01:59Z</time>
      </trkpt>
      <trkpt lat="43.47831" lon="2.38027">
        <ele>356.8</ele>
        <time>2026-05-23T14:02:04Z</time>
      </trkpt>
      <trkpt lat="43.47827" lon="2.38035">
        <ele>356.6</ele>
        <time>2026-05-23T14:02:09Z</time>
      </trkpt>
      <trkpt lat="43.47825" lon="2.38041">
        <ele>356.1</ele>
        <time>2026-05-23T14:02:14Z</time>
      </trkpt>
      <trkpt lat="43.47822" lon="2.3805">
        <ele>355.3</ele>
        <time>2026-05-23T14:02:19Z</time>
      </trkpt>
      <trkpt lat="43.47821" lon="2.38058">
        <ele>354.1</ele>
        <time>2026-05-23T14:02:24Z</time>
      </trkpt>
      <trkpt lat="43.47819" lon="2.38064">
        <ele>353.5</ele>
        <time>2026-05-23T14:02:29Z</time>
      </trkpt>
      <trkpt lat="43.47818" lon="2.38071">
        <ele>352.4</ele>
        <time>2026-05-23T14:02:34Z</time>
      </trkpt>
      <trkpt lat="43.47817" lon="2.38075">
        <ele>351.9</ele>
        <time>2026-05-23T14:02:39Z</time>
      </trkpt>
      <trkpt lat="43.47817" lon="2.3808">
        <ele>351</ele>
        <time>2026-05-23T14:02:44Z</time>
      </trkpt>
      <trkpt lat="43.47817" lon="2.38083">
        <ele>350.4</ele>
        <time>2026-05-23T14:02:49Z</time>
      </trkpt>
      <trkpt lat="43.47815" lon="2.38084">
        <ele>350.7</ele>
        <time>2026-05-23T14:02:54Z</time>
      </trkpt>
      <trkpt lat="43.47814" lon="2.38084">
        <ele>350.8</ele>
        <time>2026-05-23T14:02:59Z</time>
      </trkpt>
      <trkpt lat="43.47814" lon="2.38084">
        <ele>350.8</ele>
        <time>2026-05-23T14:03:04Z</time>
      </trkpt>
      <trkpt lat="43.47814" lon="2.38084">
        <ele>350.8</ele>
        <time>2026-05-23T14:03:09Z</time>
      </trkpt>
      <trkpt lat="43.47814" lon="2.38084">
        <ele>350.8</ele>
        <time>2026-05-23T14:03:14Z</time>
      </trkpt>
      <trkpt lat="43.47814" lon="2.38084">
        <ele>350.8</ele>
        <time>2026-05-23T14:03:19Z</time>
      </trkpt>
      <trkpt lat="43.47814" lon="2.38084">
        <ele>350.8</ele>
        <time>2026-05-23T14:03:24Z</time>
      </trkpt>
      <trkpt lat="43.47814" lon="2.38084">
        <ele>350.8</ele>
        <time>2026-05-23T14:03:29Z</time>
      </trkpt>
      <trkpt lat="43.47814" lon="2.38084">
        <ele>350.8</ele>
        <time>2026-05-23T14:03:34Z</time>
      </trkpt>
      <trkpt lat="43.47814" lon="2.38084">
        <ele>350.8</ele>
        <time>2026-05-23T14:03:39Z</time>
      </trkpt>
      <trkpt lat="43.47811" lon="2.38086">
        <ele>351.4</ele>
        <time>2026-05-23T14:03:44Z</time>
      </trkpt>
      <trkpt lat="43.47807" lon="2.38088">
        <ele>352</ele>
        <time>2026-05-23T14:03:49Z</time>
      </trkpt>
      <trkpt lat="43.47807" lon="2.38094">
        <ele>352.3</ele>
        <time>2026-05-23T14:03:54Z</time>
      </trkpt>
      <trkpt lat="43.47807" lon="2.381">
        <ele>352.5</ele>
        <time>2026-05-23T14:03:59Z</time>
      </trkpt>
      <trkpt lat="43.47806" lon="2.38105">
        <ele>352.8</ele>
        <time>2026-05-23T14:04:04Z</time>
      </trkpt>
    </trkseg>
  </trk>
</gpx>